2010年12月3日星期五

[test] test via gmail

$GPRMC,161856.000,A,2233.2041,N,11413.8000,E,0.0,126.8,040191,,,A*6A
$GPGGA,161856.000,2233.2041,N,11413.8000,E,1,07,1.2,56.0,M,14.2,M,,0000*68
$GPVTG,126.8,T,,M,0.0,N,0.0,K,A*00
$GPGLL,2233.2041,N,11413.8000,E,161856.00,A,A*6D
$GPGSA,A,3,02,04,05,10,12,15,26,,,,,,1.8,1.2,1.4*3C
$GPGSV,3,1,11,10,27,042,23,05,51,356,16,02,53,076,16,04,20,106,12*7E
$GPGSV,3,2,11,27,04,180,37,12,09,226,20,26,71,170,41,15,47,205,40*7F
$GPGSV,3,3,11,29,30,312,17,08,13,083,,30,05,257,*40
$GPRMC,161857.000,A,2233.2041,N,11413.8000,E,0.0,126.8,040191,,,A*6B
$GPGGA,161857.000,2233.2041,N,11413.8000,E,1,05,1.3,56.0,M,14.2,M,,0000*6A
$GPVTG,126.8,T,,M,0.0,N,0.0,K,A*00
$GPGLL,2233.2041,N,11413.8000,E,161857.00,A,A*6C
$GPGSA,A,3,04,05,10,12,15,,,,,,,,2.5,1.3,2.1*33
$GPRMC,161858.000,A,2233.2041,N,11413.8000,E,0.0,126.8,040191,,,A*64
$GPGGA,161858.000,2233.2041,N,11413.8000,E,1,05,1.3,56.0,M,14.2,M,,0000*65
$GPVTG,126.8,T,,M,0.0,N,0.0,K,A*00
$GPGLL,2233.2041,N,11413.8000,E,161858.00,A,A*63
$GPGSA,A,3,04,05,10,12,15,,,,,,,,2.5,1.3,2.1*33
$GPRMC,161859.000,A,2233.2041,N,11413.8000,E,0.0,126.8,040191,,,A*65
$GPGGA,161859.000,2233.2041,N,11413.8000,E,1,07,1.2,56.0,M,14.2,M,,0000*67
$GPVTG,126.8,T,,M,0.0,N,0.0,K,A*00
$GPGLL,2233.2041,N,11413.8000,E,161859.00,A,A*62
$GPGSA,A,3,02,04,05,10,12,15,26,,,,,,1.8,1.2,1.4*3C
$GPRMC,161900.000,A,2233.2041,N,11413.8000,E,0.0,126.8,040191,,,A*68
$GPGGA,161900.000,2233.2041,N,11413.8000,E,1,07,1.2,56.0,M,14.2,M,,0000*6A
$GPVTG,126.8,T,,M,0.0,N,0.0,K,A*00
$GPGLL,2233.2041,N,11413.8000,E,161900.00,A,A*6F
$GPGSA,A,3,02,04,05,10,12,15,26,,,,,,1.8,1.2,1.4*3C
$GPRMC,161901.000,A,2233.2041,N,11413.8000,E,0.0,126.8,040191,,,A*69
$GPGGA,161901.000,2233.2041,N,11413.8000,E,1,07,1.2,56.0,M,14.2,M,,0000*6B
$GPVTG,126.8,T,,M,0.0,N,0.0,K,A*00
$GPGLL,2233.2041,N,11413.8000,E,161901.00,A,A*6E
$GPGSA,A,3,02,04,05,10,12,15,26,,,,,,1.8,1.2,1.4*3C
$GPGSV,3,1,11,10,27,042,21,05,51,356,17,02,53,076,18,04,20,106,11*70
$GPGSV,3,2,11,27,04,180,36,12,09,226,23,26,71,170,39,15,47,205,40*72
$GPGSV,3,3,11,29,30,312,17,08,13,083,,30,05,257,*40
$GPRMC,161902.000,A,2233.2041,N,11413.8000,E,0.0,126.8,040191,,,A*6A
$GPGGA,161902.000,2233.2041,N,11413.8000,E,1,07,1.2,56.0,M,14.2,M,,0000*68
$GPVTG,126.8,T,,M,0.0,N,0.0,K,A*00
$GPGLL,2233.2041,N,11413.8000,E,161902.00,A,A*6D
$GPGSA,A,3,02,04,05,10,12,15,26,,,,,,1.8,1.2,1.4*3C
$GPRMC,161903.000,A,2233.2041,N,11413.8000,E,0.0,126.8,040191,,,A*6B
$GPGGA,161903.000,2233.2041,N,11413.8000,E,1,07,1.2,56.0,M,14.2,M,,0000*69
$GPVTG,126.8,T,,M,0.0,N,0.0,K,A*00
$GPGLL,2233.2041,N,11413.8000,E,161903.00,A,A*6C
$GPGSA,A,3,02,04,05,10,12,15,26,,,,,,1.8,1.2,1.4*3C
$GPRMC,161904.000,A,2233.2041,N,11413.8000,E,0.0,126.8,040191,,,A*6C
$GPGGA,161904.000,2233.2041,N,11413.8000,E,1,07,1.2,56.0,M,14.2,M,,0000*6E
$GPVTG,126.8,T,,M,0.0,N,0.0,K,A*00
$GPGLL,2233.2041,N,11413.8000,E,161904.00,A,A*6B
$GPGSA,A,3,02,04,05,10,12,15,26,,,,,,1.8,1.2,1.4*3C
$GPRMC,161905.000,A,2233.2041,N,11413.8000,E,0.0,126.8,040191,,,A*6D
$GPGGA,161905.000,2233.2041,N,11413.8000,E,1,07,1.2,56.0,M,14.2,M,,0000*6F
$GPVTG,126.8,T,,M,0.0,N,0.0,K,A*00
$GPGLL,2233.2041,N,11413.8000,E,161905.00,A,A*6A
$GPGSA,A,3,02,04,05,10,12,15,26,,,,,,1.8,1.2,1.4*3C
$GPRMC,161906.000,A,2233.2041,N,11413.8000,E,0.0,126.8,040191,,,A*6E
$GPGGA,161906.000,2233.2041,N,11413.8000,E,1,07,1.2,56.0,M,14.2,M,,0000*6C
$GPVTG,126.8,T,,M,0.0,N,0.0,K,A*00
$GPGLL,2233.2041,N,11413.8000,E,161906.00,A,A*69
$GPGSA,A,3,02,04,05,10,12,15,26,,,,,,1.8,1.2,1.4*3C
$GPGSV,3,1,11,10,27,042,21,05,51,356,18,02,53,076,20,04,20,106,11*74
$GPGSV,3,2,11,27,04,180,35,12,09,226,23,26,71,170,39,15,47,205,41*70
$GPGSV,3,3,11,29,30,312,17,08,13,083,,30,05,257,*40
$GPRMC,161907.000,A,2233.2041,N,11413.8000,E,0.0,126.8,040191,,,A*6F
$GPGGA,161907.000,2233.2041,N,11413.8000,E,1,06,1.8,56.0,M,14.2,M,,0000*66
$GPVTG,126.8,T,,M,0.0,N,0.0,K,A*00
$GPGLL,2233.2041,N,11413.8000,E,161907.00,A,A*68
$GPGSA,A,3,02,05,10,12,15,26,,,,,,,2.5,1.8,1.7*3F
$GPRMC,161908.000,A,2233.2041,N,11413.8000,E,0.0,126.8,040191,,,A*60
$GPGGA,161908.000,2233.2041,N,11413.8000,E,1,06,1.8,56.0,M,14.2,M,,0000*69
$GPVTG,126.8,T,,M,0.0,N,0.0,K,A*00
$GPGLL,2233.2041,N,11413.8000,E,161908.00,A,A*67
$GPGSA,A,3,02,05,10,12,15,26,,,,,,,2.5,1.8,1.7*3F
$GPRMC,161909.000,A,2233.2041,N,11413.8000,E,0.0,126.8,040191,,,A*61
$GPGGA,161909.000,2233.2041,N,11413.8000,E,1,06,1.8,56.0,M,14.2,M,,0000*68
$GPVTG,126.8,T,,M,0.0,N,0.0,K,A*00
$GPGLL,2233.2041,N,11413.8000,E,161909.00,A,A*66
$GPGSA,A,3,02,05,10,12,15,26,,,,,,,2.5,1.8,1.7*3F
$GPRMC,161910.000,A,2233.2041,N,11413.8000,E,0.0,126.8,040191,,,A*69
$GPGGA,161910.000,2233.2041,N,11413.8000,E,1,06,1.8,56.0,M,14.2,M,,0000*60
$GPVTG,126.8,T,,M,0.0,N,0.0,K,A*00
$GPGLL,2233.2041,N,11413.8000,E,161910.00,A,A*6E
$GPGSA,A,3,02,05,10,12,15,26,,,,,,,2.5,1.8,1.7*3F
$GPRMC,161911.000,A,2233.2041,N,11413.8000,E,0.0,126.8,040191,,,A*68
$GPGGA,161911.000,2233.2041,N,11413.8000,E,1,06,1.8,56.0,M,14.2,M,,0000*61
$GPVTG,126.8,T,,M,0.0,N,0.0,K,A*00
$GPGLL,2233.2041,N,11413.8000,E,161911.00,A,A*6F
$GPGSA,A,3,02,05,10,12,15,26,,,,,,,2.5,1.8,1.7*3F
$GPGSV,3,1,11,10,27,042,21,05,51,356,15,02,53,076,18,27,04,180,33*7B
$GPGSV,3,2,11,12,09,226,26,26,71,170,38,15,47,205,41,29,30,312,15*76
$GPGSV,3,3,11,04,20,106,,08,13,083,,30,05,257,*4F
$GPRMC,161912.000,A,2233.2041,N,11413.8000,E,0.0,126.8,040191,,,A*6B
$GPGGA,161912.000,2233.2041,N,11413.8000,E,1,06,1.8,56.0,M,14.2,M,,0000*62
$GPVTG,126.8,T,,M,0.0,N,0.0,K,A*00
$GPGLL,2233.2041,N,11413.8000,E,161912.00,A,A*6C
$GPGSA,A,3,02,05,10,12,15,26,,,,,,,2.5,1.8,1.7*3F
$GPRMC,161913.000,A,2233.2041,N,11413.8000,E,0.0,126.8,040191,,,A*6A
$GPGGA,161913.000,2233.2041,N,11413.8000,E,1,06,1.8,56.0,M,14.2,M,,0000*63
$GPVTG,126.8,T,,M,0.0,N,0.0,K,A*00
$GPGLL,2233.2041,N,11413.8000,E,161913.00,A,A*6D
$GPGSA,A,3,02,05,10,12,15,26,,,,,,,2.5,1.8,1.7*3F
$GPRMC,161914.000,A,2233.2041,N,11413.8000,E,0.0,126.8,040191,,,A*6D
$GPGGA,161914.000,2233.2041,N,11413.8000,E,1,06,1.8,56.0,M,14.2,M,,0000*64
$GPVTG,126.8,T,,M,0.0,N,0.0,K,A*00
$GPGLL,2233.2041,N,11413.8000,E,161914.00,A,A*6A
$GPGSA,A,3,02,05,10,12,15,26,,,,,,,2.5,1.8,1.7*3F
$GPRMC,161915.000,A,2233.2041,N,11413.8000,E,0.0,126.8,040191,,,A*6C
$GPGGA,161915.000,2233.2041,N,11413.8000,E,1,06,1.8,56.0,M,14.2,M,,0000*65
$GPVTG,126.8,T,,M,0.0,N,0.0,K,A*00
$GPGLL,2233.2041,N,11413.8000,E,161915.00,A,A*6B
$GPGSA,A,3,02,05,10,12,15,26,,,,,,,2.5,1.8,1.7*3F
$GPRMC,161916.000,A,2233.2041,N,11413.8000,E,0.0,126.8,040191,,,A*6F
$GPGGA,161916.000,2233.2041,N,11413.8000,E,1,06,1.8,56.0,M,14.2,M,,0000*66
$GPVTG,126.8,T,,M,0.0,N,0.0,K,A*00
$GPGLL,2233.2041,N,11413.8000,E,161916.00,A,A*68
$GPGSA,A,3,02,05,10,12,15,26,,,,,,,2.5,1.8,1.7*3F
$GPGSV,3,1,11,10,27,042,18,05,51,356,19,02,53,076,16,27,04,180,33*73
$GPGSV,3,2,11,12,09,226,23,26,71,170,37,15,47,205,42,29,30,312,14*7E
$GPGSV,3,3,11,04,20,106,,08,13,083,,30,05,257,*4F
$GPRMC,161917.000,A,2233.2041,N,11413.8000,E,0.0,126.8,040191,,,A*6E
$GPGGA,161917.000,2233.2041,N,11413.8000,E,1,06,1.8,56.0,M,14.2,M,,0000*67
$GPVTG,126.8,T,,M,0.0,N,0.0,K,A*00
$GPGLL,2233.2041,N,11413.8000,E,161917.00,A,A*69
$GPGSA,A,3,02,05,10,12,15,26,,,,,,,2.5,1.8,1.7*3F
$GPRMC,161918.000,A,2233.2041,N,11413.8000,E,0.0,126.8,040191,,,A*61
$GPGGA,161918.000,2233.2041,N,11413.8000,E,1,06,1.8,56.0,M,14.2,M,,0000*68
$GPVTG,126.8,T,,M,0.0,N,0.0,K,A*00
$GPGLL,2233.2041,N,11413.8000,E,161918.00,A,A*66
$GPGSA,A,3,02,05,10,12,15,26,,,,,,,2.5,1.8,1.7*3F
$GPRMC,161919.000,A,2233.2041,N,11413.8000,E,0.0,126.8,040191,,,A*60
$GPGGA,161919.000,2233.2041,N,11413.8000,E,1,06,1.8,56.0,M,14.2,M,,0000*69
$GPVTG,126.8,T,,M,0.0,N,0.0,K,A*00
$GPGLL,2233.2041,N,11413.8000,E,161919.00,A,A*67
$GPGSA,A,3,02,05,10,12,15,26,,,,,,,2.5,1.8,1.7*3F
$GPRMC,161920.000,A,2233.2041,N,11413.8000,E,0.0,126.8,040191,,,A*6A
$GPGGA,161920.000,2233.2041,N,11413.8000,E,1,06,1.8,56.0,M,14.2,M,,0000*63
$GPVTG,126.8,T,,M,0.0,N,0.0,K,A*00
$GPGLL,2233.2041,N,11413.8000,E,161920.00,A,A*6D
$GPGSA,A,3,02,05,10,12,15,26,,,,,,,2.5,1.8,1.7*3F
$GPRMC,161921.000,A,2233.2041,N,11413.8000,E,0.0,126.8,040191,,,A*6B
$GPGGA,161921.000,2233.2041,N,11413.8000,E,1,06,1.8,56.0,M,14.2,M,,0000*62
$GPVTG,126.8,T,,M,0.0,N,0.0,K,A*00
$GPGLL,2233.2041,N,11413.8000,E,161921.00,A,A*6C
$GPGSA,A,3,02,05,10,12,15,26,,,,,,,2.5,1.8,1.7*3F
$GPGSV,3,1,11,10,27,042,18,05,51,356,20,02,53,076,15,27,04,180,34*7D
$GPGSV,3,2,11,12,09,226,22,26,71,170,37,15,47,205,41,29,30,312,*79
$GPGSV,3,3,11,04,20,106,,08,13,083,,30,05,257,*4F
$GPRMC,161922.000,A,2233.2041,N,11413.8000,E,0.0,126.8,040191,,,A*68
$GPGGA,161922.000,2233.2041,N,11413.8000,E,1,06,1.8,56.0,M,14.2,M,,0000*61
$GPVTG,126.8,T,,M,0.0,N,0.0,K,A*00
$GPGLL,2233.2041,N,11413.8000,E,161922.00,A,A*6F
$GPGSA,A,3,02,05,10,12,15,26,,,,,,,2.5,1.8,1.7*3F
$GPRMC,161923.000,A,2233.2041,N,11413.8000,E,0.0,126.8,040191,,,A*69
$GPGGA,161923.000,2233.2041,N,11413.8000,E,1,05,2.1,56.0,M,14.2,M,,0000*69
$GPVTG,126.8,T,,M,0.0,N,0.0,K,A*00
$GPGLL,2233.2041,N,11413.8000,E,161923.00,A,A*6E
$GPGSA,A,3,02,05,12,15,26,,,,,,,,3.3,2.1,2.5*32
$GPRMC,161924.000,A,2233.2041,N,11413.8000,E,0.0,126.8,040191,,,A*6E
$GPGGA,161924.000,2233.2041,N,11413.8000,E,1,05,2.1,56.0,M,14.2,M,,0000*6E
$GPVTG,126.8,T,,M,0.0,N,0.0,K,A*00
$GPGLL,2233.2041,N,11413.8000,E,161924.00,A,A*69
$GPGSA,A,3,02,05,12,15,26,,,,,,,,3.3,2.1,2.5*32
$GPRMC,161925.000,A,2233.2041,N,11413.8000,E,0.0,126.8,040191,,,A*6F
$GPGGA,161925.000,2233.2041,N,11413.8000,E,1,05,2.1,56.0,M,14.2,M,,0000*6F
$GPVTG,126.8,T,,M,0.0,N,0.0,K,A*00
$GPGLL,2233.2041,N,11413.8000,E,161925.00,A,A*68
$GPGSA,A,3,02,05,12,15,26,,,,,,,,3.3,2.1,2.5*32
$GPRMC,161926.000,A,2233.2041,N,11413.8000,E,0.0,126.8,040191,,,A*6C
$GPGGA,161926.000,2233.2041,N,11413.8000,E,1,05,2.1,56.0,M,14.2,M,,0000*6C
$GPVTG,126.8,T,,M,0.0,N,0.0,K,A*00
$GPGLL,2233.2041,N,11413.8000,E,161926.00,A,A*6B
$GPGSA,A,3,02,05,12,15,26,,,,,,,,3.3,2.1,2.5*32
$GPGSV,3,1,11,10,27,042,18,05,51,356,21,02,53,076,14,27,04,180,35*7C
$GPGSV,3,2,11,12,09,226,22,26,71,170,38,15,48,205,41,29,30,312,*79
$GPGSV,3,3,11,04,20,106,,08,13,083,,30,05,257,*4F
$GPRMC,161927.000,A,2233.2041,N,11413.8000,E,0.0,126.8,040191,,,A*6D
$GPGGA,161927.000,2233.2041,N,11413.8000,E,1,06,1.8,56.0,M,14.2,M,,0000*64
$GPVTG,126.8,T,,M,0.0,N,0.0,K,A*00
$GPGLL,2233.2041,N,11413.8000,E,161927.00,A,A*6A
$GPGSA,A,3,02,05,10,12,15,26,,,,,,,2.5,1.8,1.7*3F
$GPRMC,161928.000,A,2233.2041,N,11413.8000,E,0.0,126.8,040191,,,A*62
$GPGGA,161928.000,2233.2041,N,11413.8000,E,1,06,1.8,56.0,M,14.2,M,,0000*6B
$GPVTG,126.8,T,,M,0.0,N,0.0,K,A*00
$GPGLL,2233.2041,N,11413.8000,E,161928.00,A,A*65
$GPGSA,A,3,02,05,10,12,15,26,,,,,,,2.5,1.8,1.7*3F
$GPRMC,161929.000,A,2233.2041,N,11413.8000,E,0.0,126.8,040191,,,A*63
$GPGGA,161929.000,2233.2041,N,11413.8000,E,1,06,1.8,56.0,M,14.2,M,,0000*6A
$GPVTG,126.8,T,,M,0.0,N,0.0,K,A*00
$GPGLL,2233.2041,N,11413.8000,E,161929.00,A,A*64
$GPGSA,A,3,02,05,10,12,15,26,,,,,,,2.5,1.8,1.7*3F
$GPRMC,161930.000,A,2233.2041,N,11413.8000,E,0.0,126.8,040191,,,A*6B
$GPGGA,161930.000,2233.2041,N,11413.8000,E,1,06,1.8,56.0,M,14.2,M,,0000*62
$GPVTG,126.8,T,,M,0.0,N,0.0,K,A*00
$GPGLL,2233.2041,N,11413.8000,E,161930.00,A,A*6C
$GPGSA,A,3,02,05,10,12,15,26,,,,,,,2.5,1.8,1.7*3F
$GPRMC,161931.000,A,2233.2041,N,11413.8000,E,0.0,126.8,040191,,,A*6A
$GPGGA,161931.000,2233.2041,N,11413.8000,E,1,06,1.8,56.0,M,14.2,M,,0000*63
$GPVTG,126.8,T,,M,0.0,N,0.0,K,A*00
$GPGLL,2233.2041,N,11413.8000,E,161931.00,A,A*6D
$GPGSA,A,3,02,05,10,12,15,26,,,,,,,2.5,1.8,1.7*3F
$GPGSV,3,1,11,10,27,042,19,05,51,356,18,02,53,076,14,27,04,180,34*76
$GPGSV,3,2,11,12,09,226,23,26,71,170,37,15,48,205,39,29,30,312,18*71
$GPGSV,3,3,11,04,20,106,,08,13,083,,30,05,257,*4F
$GPRMC,161932.000,A,2233.2041,N,11413.8000,E,0.0,126.8,040191,,,A*69
$GPGGA,161932.000,2233.2041,N,11413.8000,E,1,06,1.8,56.0,M,14.2,M,,0000*60
$GPVTG,126.8,T,,M,0.0,N,0.0,K,A*00
$GPGLL,2233.2041,N,11413.8000,E,161932.00,A,A*6E
$GPGSA,A,3,02,05,10,12,15,26,,,,,,,2.5,1.8,1.7*3F
$GPRMC,161933.000,A,2233.2041,N,11413.8000,E,0.0,126.8,040191,,,A*68
$GPGGA,161933.000,2233.2041,N,11413.8000,E,1,06,1.8,56.0,M,14.2,M,,0000*61
$GPVTG,126.8,T,,M,0.0,N,0.0,K,A*00
$GPGLL,2233.2041,N,11413.8000,E,161933.00,A,A*6F
$GPGSA,A,3,02,05,10,12,15,26,,,,,,,2.5,1.8,1.7*3F
$GPRMC,161934.000,A,2233.2041,N,11413.8000,E,0.0,126.8,040191,,,A*6F
$GPGGA,161934.000,2233.2041,N,11413.8000,E,1,06,1.8,56.0,M,14.2,M,,0000*66
$GPVTG,126.8,T,,M,0.0,N,0.0,K,A*00
$GPGLL,2233.2041,N,11413.8000,E,161934.00,A,A*68
$GPGSA,A,3,02,05,10,12,15,26,,,,,,,2.5,1.8,1.7*3F
$GPRMC,161935.000,A,2233.2041,N,11413.8000,E,0.0,126.8,040191,,,A*6E
$GPGGA,161935.000,2233.2041,N,11413.8000,E,1,06,1.8,56.0,M,14.2,M,,0000*67
$GPVTG,126.8,T,,M,0.0,N,0.0,K,A*00
$GPGLL,2233.2041,N,11413.8000,E,161935.00,A,A*69
$GPGSA,A,3,02,05,10,12,15,26,,,,,,,2.5,1.8,1.7*3F
$GPRMC,161936.000,A,2233.2041,N,11413.8000,E,0.0,126.8,040191,,,A*6D
$GPGGA,161936.000,2233.2041,N,11413.8000,E,1,06,1.8,56.0,M,14.2,M,,0000*64
$GPVTG,126.8,T,,M,0.0,N,0.0,K,A*00
$GPGLL,2233.2041,N,11413.8000,E,161936.00,A,A*6A
$GPGSA,A,3,02,05,10,12,15,26,,,,,,,2.5,1.8,1.7*3F
$GPGSV,3,1,11,10,27,042,16,05,51,356,18,02,53,076,13,27,04,180,34*7E
$GPGSV,3,2,11,12,09,226,25,26,71,170,38,15,48,205,41,29,30,312,18*77
$GPGSV,3,3,11,04,20,106,,08,13,083,,30,05,257,*4F
$GPRMC,161937.000,A,2233.2041,N,11413.8000,E,0.0,126.8,040191,,,A*6C
$GPGGA,161937.000,2233.2041,N,11413.8000,E,1,06,1.8,56.0,M,14.2,M,,0000*65
$GPVTG,126.8,T,,M,0.0,N,0.0,K,A*00
$GPGLL,2233.2041,N,11413.8000,E,161937.00,A,A*6B
$GPGSA,A,3,02,05,10,12,15,26,,,,,,,2.5,1.8,1.7*3F
$GPRMC,161938.000,A,2233.2041,N,11413.8000,E,0.0,126.8,040191,,,A*63
$GPGGA,161938.000,2233.2041,N,11413.8000,E,1,06,1.8,56.0,M,14.2,M,,0000*6A
$GPVTG,126.8,T,,M,0.0,N,0.0,K,A*00
$GPGLL,2233.2041,N,11413.8000,E,161938.00,A,A*64
$GPGSA,A,3,02,05,10,12,15,26,,,,,,,2.5,1.8,1.7*3F
$GPRMC,161939.000,A,2233.2041,N,11413.8000,E,0.0,126.8,040191,,,A*62
$GPGGA,161939.000,2233.2041,N,11413.8000,E,1,06,1.8,56.0,M,14.2,M,,0000*6B
$GPVTG,126.8,T,,M,0.0,N,0.0,K,A*00
$GPGLL,2233.2041,N,11413.8000,E,161939.00,A,A*65
$GPGSA,A,3,02,05,10,12,15,26,,,,,,,2.5,1.8,1.7*3F
$GPRMC,161940.000,A,2233.2041,N,11413.8000,E,0.0,126.8,040191,,,A*6C
$GPGGA,161940.000,2233.2041,N,11413.8000,E,1,06,1.8,56.0,M,14.2,M,,0000*65
$GPVTG,126.8,T,,M,0.0,N,0.0,K,A*00
$GPGLL,2233.2041,N,11413.8000,E,161940.00,A,A*6B
$GPGSA,A,3,02,05,10,12,15,26,,,,,,,2.5,1.8,1.7*3F
$GPRMC,161941.000,A,2233.2041,N,11413.8000,E,0.0,126.8,040191,,,A*6D
$GPGGA,161941.000,2233.2041,N,11413.8000,E,1,06,1.8,56.0,M,14.2,M,,0000*64
$GPVTG,126.8,T,,M,0.0,N,0.0,K,A*00
$GPGLL,2233.2041,N,11413.8000,E,161941.00,A,A*6A
$GPGSA,A,3,02,05,10,12,15,26,,,,,,,2.5,1.8,1.7*3F
$GPGSV,3,1,11,10,27,042,19,05,51,356,16,02,53,076,13,27,04,180,34*7F
$GPGSV,3,2,11,12,09,226,23,26,71,170,39,15,48,205,41,29,30,312,*79
$GPGSV,3,3,11,04,20,106,,08,13,083,,30,05,257,*4F
$GPRMC,161942.000,A,2233.2041,N,11413.8000,E,0.0,126.8,040191,,,A*6E
$GPGGA,161942.000,2233.2041,N,11413.8000,E,1,06,1.8,56.0,M,14.2,M,,0000*67
$GPVTG,126.8,T,,M,0.0,N,0.0,K,A*00
$GPGLL,2233.2041,N,11413.8000,E,161942.00,A,A*69
$GPGSA,A,3,02,05,10,12,15,26,,,,,,,2.5,1.8,1.7*3F
$GPRMC,161943.000,A,2233.2041,N,11413.8000,E,0.0,126.8,040191,,,A*6F
$GPGGA,161943.000,2233.2041,N,11413.8000,E,1,06,1.8,56.0,M,14.2,M,,0000*66
$GPVTG,126.8,T,,M,0.0,N,0.0,K,A*00
$GPGLL,2233.2041,N,11413.8000,E,161943.00,A,A*68
$GPGSA,A,3,02,05,10,12,15,26,,,,,,,2.5,1.8,1.7*3F
$GPRMC,161944.000,A,2233.2041,N,11413.8000,E,0.0,126.8,040191,,,A*68
$GPGGA,161944.000,2233.2041,N,11413.8000,E,1,06,1.8,56.0,M,14.2,M,,0000*61
$GPVTG,126.8,T,,M,0.0,N,0.0,K,A*00
$GPGLL,2233.2041,N,11413.8000,E,161944.00,A,A*6F
$GPGSA,A,3,02,05,10,12,15,26,,,,,,,2.5,1.8,1.7*3F
$GPRMC,161945.000,A,2233.2041,N,11413.8000,E,0.0,126.8,040191,,,A*69
$GPGGA,161945.000,2233.2041,N,11413.8000,E,1,06,1.8,56.0,M,14.2,M,,0000*60
$GPVTG,126.8,T,,M,0.0,N,0.0,K,A*00
$GPGLL,2233.2041,N,11413.8000,E,161945.00,A,A*6E
$GPGSA,A,3,02,05,10,12,15,26,,,,,,,2.5,1.8,1.7*3F
$GPRMC,161946.000,A,2233.2041,N,11413.8000,E,0.0,126.8,040191,,,A*6A
$GPGGA,161946.000,2233.2041,N,11413.8000,E,1,06,1.8,56.0,M,14.2,M,,0000*63
$GPVTG,126.8,T,,M,0.0,N,0.0,K,A*00
$GPGLL,2233.2041,N,11413.8000,E,161946.00,A,A*6D
$GPGSA,A,3,02,05,10,12,15,26,,,,,,,2.5,1.8,1.7*3F
$GPGSV,3,1,11,10,27,042,25,05,51,356,16,02,53,077,12,27,04,180,34*70
$GPGSV,3,2,11,12,09,226,25,26,71,170,39,15,48,205,41,29,30,312,*7F
$GPGSV,3,3,11,04,20,106,,08,13,083,,30,05,257,*4F
$GPRMC,161947.000,A,2233.2041,N,11413.8000,E,0.0,126.8,040191,,,A*6B
$GPGGA,161947.000,2233.2041,N,11413.8000,E,1,06,1.7,56.0,M,14.2,M,,0000*6D
$GPVTG,126.8,T,,M,0.0,N,0.0,K,A*00
$GPGLL,2233.2041,N,11413.8000,E,161947.00,A,A*6C
$GPGSA,A,2,02,05,10,12,15,26,,,,,,,1.9,1.7,0.8*30
$GPRMC,161948.000,A,2233.2041,N,11413.8000,E,0.0,126.8,040191,,,A*64
$GPGGA,161948.000,2233.2041,N,11413.8000,E,1,06,1.8,56.0,M,14.2,M,,0000*6D
$GPVTG,126.8,T,,M,0.0,N,0.0,K,A*00
$GPGLL,2233.2041,N,11413.8000,E,161948.00,A,A*63
$GPGSA,A,3,02,05,10,12,15,26,,,,,,,2.5,1.8,1.7*3F
$GPRMC,161949.000,A,2233.2041,N,11413.8000,E,0.0,126.8,040191,,,A*65
$GPGGA,161949.000,2233.2041,N,11413.8000,E,1,06,1.8,56.0,M,14.2,M,,0000*6C
$GPVTG,126.8,T,,M,0.0,N,0.0,K,A*00
$GPGLL,2233.2041,N,11413.8000,E,161949.00,A,A*62
$GPGSA,A,3,02,05,10,12,15,26,,,,,,,2.5,1.8,1.7*3F
$GPRMC,161950.000,A,2233.2041,N,11413.8000,E,0.0,126.8,040191,,,A*6D
$GPGGA,161950.000,2233.2041,N,11413.8000,E,1,06,1.8,56.0,M,14.2,M,,0000*64
$GPVTG,126.8,T,,M,0.0,N,0.0,K,A*00
$GPGLL,2233.2041,N,11413.8000,E,161950.00,A,A*6A
$GPGSA,A,3,02,05,10,12,15,26,,,,,,,2.5,1.8,1.7*3F
$GPRMC,161951.000,A,2233.2041,N,11413.8000,E,0.0,126.8,040191,,,A*6C
$GPGGA,161951.000,2233.2041,N,11413.8000,E,1,06,1.8,56.0,M,14.2,M,,0000*65
$GPVTG,126.8,T,,M,0.0,N,0.0,K,A*00
$GPGLL,2233.2041,N,11413.8000,E,161951.00,A,A*6B
$GPGSA,A,3,02,05,10,12,15,26,,,,,,,2.5,1.8,1.7*3F
$GPGSV,3,1,11,10,27,042,24,05,51,357,13,02,53,077,14,27,04,180,36*71
$GPGSV,3,2,11,12,09,226,25,26,71,169,40,15,48,205,40,29,30,312,*78
$GPGSV,3,3,11,04,20,106,,08,13,083,,30,05,257,*4F
$GPRMC,161952.000,A,2233.2041,N,11413.8000,E,0.0,126.8,040191,,,A*6F
$GPGGA,161952.000,2233.2041,N,11413.8000,E,1,06,1.8,56.0,M,14.2,M,,0000*66
$GPVTG,126.8,T,,M,0.0,N,0.0,K,A*00
$GPGLL,2233.2041,N,11413.8000,E,161952.00,A,A*68
$GPGSA,A,3,02,05,10,12,15,26,,,,,,,2.5,1.8,1.7*3F
$GPRMC,161953.000,A,2233.2041,N,11413.8000,E,0.0,126.8,040191,,,A*6E
$GPGGA,161953.000,2233.2041,N,11413.8000,E,1,06,1.8,56.0,M,14.2,M,,0000*67
$GPVTG,126.8,T,,M,0.0,N,0.0,K,A*00
$GPGLL,2233.2041,N,11413.8000,E,161953.00,A,A*69
$GPGSA,A,3,02,05,10,12,15,26,,,,,,,2.5,1.8,1.7*3F
$GPRMC,161954.000,A,2233.2041,N,11413.8000,E,0.0,126.8,040191,,,A*69
$GPGGA,161954.000,2233.2041,N,11413.8000,E,1,06,1.8,56.0,M,14.2,M,,0000*60
$GPVTG,126.8,T,,M,0.0,N,0.0,K,A*00
$GPGLL,2233.2041,N,11413.8000,E,161954.00,A,A*6E
$GPGSA,A,3,02,05,10,12,15,26,,,,,,,2.5,1.8,1.7*3F
$GPRMC,161955.000,A,2233.2041,N,11413.8000,E,0.0,126.8,040191,,,A*68
$GPGGA,161955.000,2233.2041,N,11413.8000,E,1,06,1.8,56.0,M,14.2,M,,0000*61
$GPVTG,126.8,T,,M,0.0,N,0.0,K,A*00
$GPGLL,2233.2041,N,11413.8000,E,161955.00,A,A*6F
$GPGSA,A,3,02,05,10,12,15,26,,,,,,,2.5,1.8,1.7*3F
$GPRMC,161956.000,A,2233.2041,N,11413.8000,E,0.0,126.8,040191,,,A*6B
$GPGGA,161956.000,2233.2041,N,11413.8000,E,1,06,1.8,56.0,M,14.2,M,,0000*62
$GPVTG,126.8,T,,M,0.0,N,0.0,K,A*00
$GPGLL,2233.2041,N,11413.8000,E,161956.00,A,A*6C
$GPGSA,A,3,02,05,10,12,15,26,,,,,,,2.5,1.8,1.7*3F
$GPGSV,3,1,11,10,27,042,22,05,51,357,12,02,53,077,15,27,04,180,36*77
$GPGSV,3,2,11,12,09,226,26,26,71,169,40,15,48,205,41,29,30,312,*7A
$GPGSV,3,3,11,04,20,106,,08,13,083,,30,05,257,*4F
$GPRMC,161957.000,A,2233.2041,N,11413.8000,E,0.0,126.8,040191,,,A*6A
$GPGGA,161957.000,2233.2041,N,11413.8000,E,1,06,1.8,56.0,M,14.2,M,,0000*63
$GPVTG,126.8,T,,M,0.0,N,0.0,K,A*00
$GPGLL,2233.2041,N,11413.8000,E,161957.00,A,A*6D
$GPGSA,A,3,02,05,10,12,15,26,,,,,,,2.5,1.8,1.7*3F
$GPRMC,161958.000,A,2233.2041,N,11413.8000,E,0.0,126.8,040191,,,A*65
$GPGGA,161958.000,2233.2041,N,11413.8000,E,1,06,1.8,56.0,M,14.2,M,,0000*6C
$GPVTG,126.8,T,,M,0.0,N,0.0,K,A*00
$GPGLL,2233.2041,N,11413.8000,E,161958.00,A,A*62
$GPGSA,A,3,02,05,10,12,15,26,,,,,,,2.5,1.8,1.7*3F
$GPRMC,161959.000,A,2233.2041,N,11413.8000,E,0.0,126.8,040191,,,A*64
$GPGGA,161959.000,2233.2041,N,11413.8000,E,1,06,1.8,56.0,M,14.2,M,,0000*6D
$GPVTG,126.8,T,,M,0.0,N,0.0,K,A*00
$GPGLL,2233.2041,N,11413.8000,E,161959.00,A,A*63
$GPGSA,A,3,02,05,10,12,15,26,,,,,,,2.5,1.8,1.7*3F
$GPRMC,162000.000,A,2233.2041,N,11413.8000,E,0.0,126.8,040191,,,A*62
$GPGGA,162000.000,2233.2041,N,11413.8000,E,1,05,7.1,56.0,M,14.2,M,,0000*67
$GPVTG,126.8,T,,M,0.0,N,0.0,K,A*00
$GPGLL,2233.2041,N,11413.8000,E,162000.00,A,A*65
$GPGSA,A,3,02,10,12,15,26,,,,,,,,8.1,7.1,3.9*37
$GPRMC,162001.000,A,2233.2041,N,11413.8000,E,0.0,126.8,040191,,,A*63
$GPGGA,162001.000,2233.2041,N,11413.8000,E,1,06,1.8,56.0,M,14.2,M,,0000*6A
$GPVTG,126.8,T,,M,0.0,N,0.0,K,A*00
$GPGLL,2233.2041,N,11413.8000,E,162001.00,A,A*64
$GPGSA,A,3,02,05,10,12,15,26,,,,,,,2.5,1.8,1.7*3F
$GPGSV,3,1,11,10,27,042,26,05,51,357,12,02,53,077,14,27,04,180,35*71
$GPGSV,3,2,11,12,09,226,22,26,71,169,40,15,48,205,40,29,30,312,*7F
$GPGSV,3,3,11,04,20,106,,08,13,083,,30,05,257,*4F
$GPRMC,162002.000,A,2233.2041,N,11413.8000,E,0.0,126.8,040191,,,A*60
$GPGGA,162002.000,2233.2041,N,11413.8000,E,1,06,1.8,56.0,M,14.2,M,,0000*69
$GPVTG,126.8,T,,M,0.0,N,0.0,K,A*00
$GPGLL,2233.2041,N,11413.8000,E,162002.00,A,A*67
$GPGSA,A,3,02,05,10,12,15,26,,,,,,,2.5,1.8,1.7*3F
$GPRMC,162003.000,A,2233.2041,N,11413.8000,E,0.0,126.8,040191,,,A*61
$GPGGA,162003.000,2233.2041,N,11413.8000,E,1,06,1.8,56.0,M,14.2,M,,0000*68
$GPVTG,126.8,T,,M,0.0,N,0.0,K,A*00
$GPGLL,2233.2041,N,11413.8000,E,162003.00,A,A*66
$GPGSA,A,3,02,05,10,12,15,26,,,,,,,2.5,1.8,1.7*3F
$GPRMC,162004.000,A,2233.2041,N,11413.8000,E,0.0,126.8,040191,,,A*66
$GPGGA,162004.000,2233.2041,N,11413.8000,E,1,06,1.8,56.0,M,14.2,M,,0000*6F
$GPVTG,126.8,T,,M,0.0,N,0.0,K,A*00
$GPGLL,2233.2041,N,11413.8000,E,162004.00,A,A*61
$GPGSA,A,3,02,05,10,12,15,26,,,,,,,2.5,1.8,1.7*3F
$GPRMC,162005.000,A,2233.2041,N,11413.8000,E,0.0,126.8,040191,,,A*67
$GPGGA,162005.000,2233.2041,N,11413.8000,E,1,06,1.8,56.0,M,14.2,M,,0000*6E
$GPVTG,126.8,T,,M,0.0,N,0.0,K,A*00
$GPGLL,2233.2041,N,11413.8000,E,162005.00,A,A*60
$GPGSA,A,3,02,05,10,12,15,26,,,,,,,2.5,1.8,1.7*3F
$GPRMC,162006.000,A,2233.2041,N,11413.8000,E,0.0,126.8,040191,,,A*64
$GPGGA,162006.000,2233.2041,N,11413.8000,E,1,06,1.8,56.0,M,14.2,M,,0000*6D
$GPVTG,126.8,T,,M,0.0,N,0.0,K,A*00
$GPGLL,2233.2041,N,11413.8000,E,162006.00,A,A*63
$GPGSA,A,3,02,05,10,12,15,26,,,,,,,2.5,1.8,1.7*3F
$GPGSV,3,1,11,10,27,042,27,05,51,357,15,02,53,077,15,27,04,180,36*75
$GPGSV,3,2,11,12,09,226,19,26,71,169,40,15,48,205,40,29,30,312,18*7E
$GPGSV,3,3,11,04,20,106,,08,13,083,,30,05,257,*4F
$GPRMC,162007.000,A,2233.2041,N,11413.8000,E,0.0,126.8,040191,,,A*65
$GPGGA,162007.000,2233.2041,N,11413.8000,E,1,06,1.8,56.0,M,14.2,M,,0000*6C
$GPVTG,126.8,T,,M,0.0,N,0.0,K,A*00
$GPGLL,2233.2041,N,11413.8000,E,162007.00,A,A*62
$GPGSA,A,3,02,05,10,12,15,26,,,,,,,2.5,1.8,1.7*3F
$GPRMC,162008.000,A,2233.2041,N,11413.8000,E,0.0,126.8,040191,,,A*6A
$GPGGA,162008.000,2233.2041,N,11413.8000,E,1,06,1.8,56.0,M,14.2,M,,0000*63
$GPVTG,126.8,T,,M,0.0,N,0.0,K,A*00
$GPGLL,2233.2041,N,11413.8000,E,162008.00,A,A*6D
$GPGSA,A,3,02,05,10,12,15,26,,,,,,,2.5,1.8,1.7*3F
$GPRMC,162009.000,A,2233.2041,N,11413.8000,E,0.0,126.8,040191,,,A*6B
$GPGGA,162009.000,2233.2041,N,11413.8000,E,1,06,1.8,56.0,M,14.2,M,,0000*62
$GPVTG,126.8,T,,M,0.0,N,0.0,K,A*00
$GPGLL,2233.2041,N,11413.8000,E,162009.00,A,A*6C
$GPGSA,A,3,02,05,10,12,15,26,,,,,,,2.5,1.8,1.7*3F
$GPRMC,162010.000,A,2233.2041,N,11413.8000,E,0.0,126.8,040191,,,A*63
$GPGGA,162010.000,2233.2041,N,11413.8000,E,1,06,1.8,56.0,M,14.2,M,,0000*6A
$GPVTG,126.8,T,,M,0.0,N,0.0,K,A*00
$GPGLL,2233.2041,N,11413.8000,E,162010.00,A,A*64
$GPGSA,A,3,02,05,10,12,15,26,,,,,,,2.5,1.8,1.7*3F
$GPRMC,162011.000,A,2233.2041,N,11413.8000,E,0.0,126.8,040191,,,A*62
$GPGGA,162011.000,2233.2041,N,11413.8000,E,1,06,1.8,56.0,M,14.2,M,,0000*6B
$GPVTG,126.8,T,,M,0.0,N,0.0,K,A*00
$GPGLL,2233.2041,N,11413.8000,E,162011.00,A,A*65
$GPGSA,A,3,02,05,10,12,15,26,,,,,,,2.5,1.8,1.7*3F
$GPGSV,3,1,11,10,27,042,25,05,51,357,14,02,53,077,16,27,04,180,35*76
$GPGSV,3,2,11,12,09,226,19,26,71,169,39,15,48,205,40,29,30,312,*79
$GPGSV,3,3,11,04,20,106,,08,13,083,,30,05,257,*4F
$GPRMC,162012.000,A,2233.2041,N,11413.8000,E,0.0,126.8,040191,,,A*61
$GPGGA,162012.000,2233.2041,N,11413.8000,E,1,06,1.8,56.0,M,14.2,M,,0000*68
$GPVTG,126.8,T,,M,0.0,N,0.0,K,A*00
$GPGLL,2233.2041,N,11413.8000,E,162012.00,A,A*66
$GPGSA,A,3,02,05,10,12,15,26,,,,,,,2.5,1.8,1.7*3F
$GPRMC,162013.000,A,2233.2041,N,11413.8000,E,0.0,126.8,040191,,,A*60
$GPGGA,162013.000,2233.2041,N,11413.8000,E,1,06,1.8,56.0,M,14.2,M,,0000*69
$GPVTG,126.8,T,,M,0.0,N,0.0,K,A*00
$GPGLL,2233.2041,N,11413.8000,E,162013.00,A,A*67
$GPGSA,A,3,02,05,10,12,15,26,,,,,,,2.5,1.8,1.7*3F
$GPRMC,162014.000,A,2233.2041,N,11413.8000,E,0.0,126.8,040191,,,A*67
$GPGGA,162014.000,2233.2041,N,11413.8000,E,1,06,1.8,56.0,M,14.2,M,,0000*6E
$GPVTG,126.8,T,,M,0.0,N,0.0,K,A*00
$GPGLL,2233.2041,N,11413.8000,E,162014.00,A,A*60
$GPGSA,A,3,02,05,10,12,15,26,,,,,,,2.5,1.8,1.7*3F
$GPRMC,162015.000,A,2233.2041,N,11413.8000,E,0.0,126.8,040191,,,A*66
$GPGGA,162015.000,2233.2041,N,11413.8000,E,1,06,1.8,56.0,M,14.2,M,,0000*6F
$GPVTG,126.8,T,,M,0.0,N,0.0,K,A*00
$GPGLL,2233.2041,N,11413.8000,E,162015.00,A,A*61
$GPGSA,A,3,02,05,10,12,15,26,,,,,,,2.5,1.8,1.7*3F
$GPRMC,162016.000,A,2233.2041,N,11413.8000,E,0.0,126.8,040191,,,A*65
$GPGGA,162016.000,2233.2041,N,11413.8000,E,1,06,1.8,56.0,M,14.2,M,,0000*6C
$GPVTG,126.8,T,,M,0.0,N,0.0,K,A*00
$GPGLL,2233.2041,N,11413.8000,E,162016.00,A,A*62
$GPGSA,A,3,02,05,10,12,15,26,,,,,,,2.5,1.8,1.7*3F
$GPGSV,3,1,11,10,27,042,22,05,51,357,14,02,53,077,18,27,04,180,35*7F
$GPGSV,3,2,11,12,09,226,17,26,71,169,39,15,48,205,40,29,30,312,20*75
$GPGSV,3,3,11,04,20,106,,08,13,083,,30,05,257,*4F
$GPRMC,162017.000,A,2233.2041,N,11413.8000,E,0.0,126.8,040191,,,A*64
$GPGGA,162017.000,2233.2041,N,11413.8000,E,1,06,1.8,56.0,M,14.2,M,,0000*6D
$GPVTG,126.8,T,,M,0.0,N,0.0,K,A*00
$GPGLL,2233.2041,N,11413.8000,E,162017.00,A,A*63
$GPGSA,A,3,02,05,10,12,15,26,,,,,,,2.5,1.8,1.7*3F
$GPRMC,162018.000,A,2233.2041,N,11413.8000,E,0.0,126.8,040191,,,A*6B
$GPGGA,162018.000,2233.2041,N,11413.8000,E,1,06,1.8,56.0,M,14.2,M,,0000*62
$GPVTG,126.8,T,,M,0.0,N,0.0,K,A*00
$GPGLL,2233.2041,N,11413.8000,E,162018.00,A,A*6C
$GPGSA,A,3,02,05,10,12,15,26,,,,,,,2.5,1.8,1.7*3F
$GPRMC,162019.000,A,2233.2041,N,11413.8000,E,0.0,126.8,040191,,,A*6A
$GPGGA,162019.000,2233.2041,N,11413.8000,E,1,06,1.8,56.0,M,14.2,M,,0000*63
$GPVTG,126.8,T,,M,0.0,N,0.0,K,A*00
$GPGLL,2233.2041,N,11413.8000,E,162019.00,A,A*6D
$GPGSA,A,3,02,05,10,12,15,26,,,,,,,2.5,1.8,1.7*3F
$GPRMC,162020.000,A,2233.2041,N,11413.8000,E,0.0,126.8,040191,,,A*60
$GPGGA,162020.000,2233.2041,N,11413.8000,E,1,06,1.8,56.0,M,14.2,M,,0000*69
$GPVTG,126.8,T,,M,0.0,N,0.0,K,A*00
$GPGLL,2233.2041,N,11413.8000,E,162020.00,A,A*67
$GPGSA,A,3,02,05,10,12,15,26,,,,,,,2.5,1.8,1.7*3F
$GPRMC,162021.000,A,2233.2041,N,11413.8000,E,0.0,126.8,040191,,,A*61
$GPGGA,162021.000,2233.2041,N,11413.8000,E,1,06,1.8,56.0,M,14.2,M,,0000*68
$GPVTG,126.8,T,,M,0.0,N,0.0,K,A*00
$GPGLL,2233.2041,N,11413.8000,E,162021.00,A,A*66
$GPGSA,A,3,02,05,10,12,15,26,,,,,,,2.5,1.8,1.7*3F
$GPGSV,3,1,11,10,27,042,20,05,51,357,12,02,53,077,17,27,04,180,35*74
$GPGSV,3,2,11,12,09,226,18,26,72,169,39,15,48,205,42,29,31,312,*78
$GPGSV,3,3,11,04,20,106,,08,13,083,,30,05,257,*4F
$GPRMC,162022.000,A,2233.2041,N,11413.8000,E,0.0,126.8,040191,,,A*62
$GPGGA,162022.000,2233.2041,N,11413.8000,E,1,06,1.8,56.0,M,14.2,M,,0000*6B
$GPVTG,126.8,T,,M,0.0,N,0.0,K,A*00
$GPGLL,2233.2041,N,11413.8000,E,162022.00,A,A*65
$GPGSA,A,3,02,05,10,12,15,26,,,,,,,2.5,1.8,1.7*3F
$GPRMC,162023.000,A,2233.2041,N,11413.8000,E,0.0,126.8,040191,,,A*63
$GPGGA,162023.000,2233.2041,N,11413.8000,E,1,06,1.8,56.0,M,14.2,M,,0000*6A
$GPVTG,126.8,T,,M,0.0,N,0.0,K,A*00
$GPGLL,2233.2041,N,11413.8000,E,162023.00,A,A*64
$GPGSA,A,3,02,05,10,12,15,26,,,,,,,2.5,1.8,1.7*3F
$GPRMC,162024.000,A,2233.2041,N,11413.8000,E,0.0,126.8,040191,,,A*64
$GPGGA,162024.000,2233.2041,N,11413.8000,E,1,06,1.8,56.0,M,14.2,M,,0000*6D
$GPVTG,126.8,T,,M,0.0,N,0.0,K,A*00
$GPGLL,2233.2041,N,11413.8000,E,162024.00,A,A*63
$GPGSA,A,3,02,05,10,12,15,26,,,,,,,2.5,1.8,1.7*3F
$GPRMC,162025.000,A,2233.2041,N,11413.8000,E,0.0,126.8,040191,,,A*65
$GPGGA,162025.000,2233.2041,N,11413.8000,E,1,06,1.8,56.0,M,14.2,M,,0000*6C
$GPVTG,126.8,T,,M,0.0,N,0.0,K,A*00
$GPGLL,2233.2041,N,11413.8000,E,162025.00,A,A*62
$GPGSA,A,3,02,05,10,12,15,26,,,,,,,2.5,1.8,1.7*3F
$GPRMC,162026.000,A,2233.2041,N,11413.8000,E,0.0,126.8,040191,,,A*66
$GPGGA,162026.000,2233.2041,N,11413.8000,E,1,06,1.8,56.0,M,14.2,M,,0000*6F
$GPVTG,126.8,T,,M,0.0,N,0.0,K,A*00
$GPGLL,2233.2041,N,11413.8000,E,162026.00,A,A*61
$GPGSA,A,3,02,05,10,12,15,26,,,,,,,2.5,1.8,1.7*3F
$GPGSV,3,1,11,10,26,042,19,05,51,357,14,02,53,077,17,27,04,180,34*78
$GPGSV,3,2,11,12,09,226,26,26,72,169,38,15,48,205,42,29,31,312,*74
$GPGSV,3,3,11,04,20,106,,08,13,082,,30,05,257,*4E
$GPRMC,162027.000,A,2233.2041,N,11413.8000,E,0.0,126.8,040191,,,A*67
$GPGGA,162027.000,2233.2041,N,11413.8000,E,1,06,1.8,56.0,M,14.2,M,,0000*6E
$GPVTG,126.8,T,,M,0.0,N,0.0,K,A*00
$GPGLL,2233.2041,N,11413.8000,E,162027.00,A,A*60
$GPGSA,A,3,02,05,10,12,15,26,,,,,,,2.5,1.8,1.7*3F
$GPRMC,162028.000,A,2233.2041,N,11413.8000,E,0.0,126.8,040191,,,A*68
$GPGGA,162028.000,2233.2041,N,11413.8000,E,1,06,1.8,56.0,M,14.2,M,,0000*61
$GPVTG,126.8,T,,M,0.0,N,0.0,K,A*00
$GPGLL,2233.2041,N,11413.8000,E,162028.00,A,A*6F
$GPGSA,A,3,02,05,10,12,15,26,,,,,,,2.5,1.8,1.7*3F
$GPRMC,162029.000,A,2233.2041,N,11413.8000,E,0.0,126.8,040191,,,A*69
$GPGGA,162029.000,2233.2041,N,11413.8000,E,1,06,1.8,56.0,M,14.2,M,,0000*60
$GPVTG,126.8,T,,M,0.0,N,0.0,K,A*00
$GPGLL,2233.2041,N,11413.8000,E,162029.00,A,A*6E
$GPGSA,A,3,02,05,10,12,15,26,,,,,,,2.5,1.8,1.7*3F
$GPRMC,162030.000,A,2233.2041,N,11413.8000,E,0.0,126.8,040191,,,A*61
$GPGGA,162030.000,2233.2041,N,11413.8000,E,1,06,1.8,56.0,M,14.2,M,,0000*68
$GPVTG,126.8,T,,M,0.0,N,0.0,K,A*00
$GPGLL,2233.2041,N,11413.8000,E,162030.00,A,A*66
$GPGSA,A,3,02,05,10,12,15,26,,,,,,,2.5,1.8,1.7*3F
$GPRMC,162031.000,A,2233.2041,N,11413.8000,E,0.0,126.8,040191,,,A*60
$GPGGA,162031.000,2233.2041,N,11413.8000,E,1,05,1.8,56.0,M,14.2,M,,0000*6A
$GPVTG,126.8,T,,M,0.0,N,0.0,K,A*00
$GPGLL,2233.2041,N,11413.8000,E,162031.00,A,A*67
$GPGSA,A,3,02,05,10,12,26,,,,,,,,2.5,1.8,1.8*34
$GPGSV,3,1,11,10,26,042,17,05,51,357,15,02,53,077,16,27,04,180,34*76
$GPGSV,3,2,11,12,09,226,26,26,72,169,38,15,48,205,42,29,31,312,*74
$GPGSV,3,3,11,04,20,106,,08,13,082,,30,05,257,*4E
$GPRMC,162032.000,A,2233.2041,N,11413.8000,E,0.0,126.8,040191,,,A*63
$GPGGA,162032.000,2233.2041,N,11413.8000,E,1,05,1.8,56.0,M,14.2,M,,0000*69
$GPVTG,126.8,T,,M,0.0,N,0.0,K,A*00
$GPGLL,2233.2041,N,11413.8000,E,162032.00,A,A*64
$GPGSA,A,3,02,05,10,12,26,,,,,,,,2.5,1.8,1.8*34
$GPRMC,162033.000,A,2233.2041,N,11413.8000,E,0.0,126.8,040191,,,A*62
$GPGGA,162033.000,2233.2041,N,11413.8000,E,1,04,2.0,56.0,M,14.2,M,,0000*62
$GPVTG,126.8,T,,M,0.0,N,0.0,K,A*00
$GPGLL,2233.2041,N,11413.8000,E,162033.00,A,A*65
$GPGSA,A,3,02,05,10,12,,,,,,,,,3.3,2.0,2.6*31
$GPRMC,162034.000,A,2233.2041,N,11413.8000,E,0.0,126.8,040191,,,A*65
$GPGGA,162034.000,2233.2041,N,11413.8000,E,1,06,1.8,56.0,M,14.2,M,,0000*6C
$GPVTG,126.8,T,,M,0.0,N,0.0,K,A*00
$GPGLL,2233.2041,N,11413.8000,E,162034.00,A,A*62
$GPGSA,A,3,02,05,10,12,15,26,,,,,,,2.5,1.8,1.7*3F
$GPRMC,162035.000,A,2233.2041,N,11413.8000,E,0.0,126.8,040191,,,A*64
$GPGGA,162035.000,2233.2041,N,11413.8000,E,1,05,1.8,56.0,M,14.2,M,,0000*6E
$GPVTG,126.8,T,,M,0.0,N,0.0,K,A*00
$GPGLL,2233.2041,N,11413.8000,E,162035.00,A,A*63
$GPGSA,A,3,02,05,10,12,26,,,,,,,,2.5,1.8,1.8*34
$GPRMC,162036.000,A,2233.2041,N,11413.8000,E,0.0,126.8,040191,,,A*67
$GPGGA,162036.000,2233.2041,N,11413.8000,E,1,04,2.0,56.0,M,14.2,M,,0000*67
$GPVTG,126.8,T,,M,0.0,N,0.0,K,A*00
$GPGLL,2233.2041,N,11413.8000,E,162036.00,A,A*60
$GPGSA,A,3,02,05,10,12,,,,,,,,,3.3,2.0,2.6*31
$GPGSV,3,1,11,10,26,042,17,05,51,357,14,02,53,077,14,27,04,180,35*74
$GPGSV,3,2,11,12,09,226,27,26,72,169,38,15,48,205,42,29,31,312,20*77
$GPGSV,3,3,11,04,20,106,,08,13,082,,30,05,256,*4F
$GPRMC,162037.000,A,2233.2041,N,11413.8000,E,0.0,126.8,040191,,,A*66
$GPGGA,162037.000,2233.2041,N,11413.8000,E,1,06,1.8,56.0,M,14.2,M,,0000*6F
$GPVTG,126.8,T,,M,0.0,N,0.0,K,A*00
$GPGLL,2233.2041,N,11413.8000,E,162037.00,A,A*61
$GPGSA,A,3,02,05,10,12,15,26,,,,,,,2.5,1.8,1.7*3F
$GPRMC,162038.000,A,2233.2041,N,11413.8000,E,0.0,126.8,040191,,,A*69
$GPGGA,162038.000,2233.2041,N,11413.8000,E,1,04,2.0,56.0,M,14.2,M,,0000*69
$GPVTG,126.8,T,,M,0.0,N,0.0,K,A*00
$GPGLL,2233.2041,N,11413.8000,E,162038.00,A,A*6E
$GPGSA,A,3,02,05,10,12,,,,,,,,,3.3,2.0,2.6*31
$GPRMC,162039.000,A,2233.2041,N,11413.8000,E,0.0,126.8,040191,,,A*68
$GPGGA,162039.000,2233.2041,N,11413.8000,E,1,06,1.8,56.0,M,14.2,M,,0000*61
$GPVTG,126.8,T,,M,0.0,N,0.0,K,A*00
$GPGLL,2233.2041,N,11413.8000,E,162039.00,A,A*6F
$GPGSA,A,3,02,05,10,12,15,26,,,,,,,2.5,1.8,1.7*3F
$GPRMC,162040.000,A,2233.2041,N,11413.8000,E,0.0,126.8,040191,,,A*66
$GPGGA,162040.000,2233.2041,N,11413.8000,E,1,03,3.8,56.0,M,14.2,M,,0000*68
$GPVTG,126.8,T,,M,0.0,N,0.0,K,A*00
$GPGLL,2233.2041,N,11413.8000,E,162040.00,A,A*61
$GPGSA,A,2,02,10,12,,,,,,,,,,3.9,3.8,1.0*33
$GPRMC,162041.000,A,2233.2041,N,11413.8000,E,0.0,126.8,040191,,,A*67
$GPGGA,162041.000,2233.2041,N,11413.8000,E,1,04,19.9,56.0,M,14.2,M,,0000*54
$GPVTG,126.8,T,,M,0.0,N,0.0,K,A*00
$GPGLL,2233.2041,N,11413.8000,E,162041.00,A,A*60
$GPGSA,A,3,02,12,15,26,,,,,,,,,20.7,19.9,5.7*35
$GPGSV,3,1,11,10,26,042,16,05,51,357,15,02,53,077,12,27,04,180,35*72
$GPGSV,3,2,11,12,09,226,28,26,72,169,38,15,48,205,41,29,31,311,24*7C
$GPGSV,3,3,11,04,20,106,,08,13,082,,30,05,256,*4F
$GPRMC,162042.000,A,2233.2041,N,11413.8000,E,0.0,126.8,040191,,,A*64
$GPGGA,162042.000,2233.2041,N,11413.8000,E,1,03,19.9,56.0,M,14.2,M,,0000*50
$GPVTG,126.8,T,,M,0.0,N,0.0,K,A*00
$GPGLL,2233.2041,N,11413.8000,E,162042.00,A,A*63
$GPGSA,A,3,02,12,26,,,,,,,,,,20.7,19.9,5.7*31
$GPRMC,162043.000,A,2233.1993,N,11413.7928,E,9.3,126.8,040191,,,A*66
$GPGGA,162043.000,2233.1993,N,11413.7928,E,1,04,19.9,79.8,M,14.2,M,,0000*5A
$GPVTG,126.8,T,,M,9.3,N,17.2,K,A*3E
$GPGLL,2233.1993,N,11413.7928,E,162043.00,A,A*6B
$GPGSA,A,3,02,12,15,26,,,,,,,,,20.7,19.9,5.7*35
$GPRMC,162044.000,A,2233.2034,N,11413.7835,E,9.9,305.9,040191,,,A*63
$GPGGA,162044.000,2233.2034,N,11413.7835,E,1,04,19.9,92.1,M,14.2,M,,0000*5B
$GPVTG,305.9,T,,M,9.9,N,18.3,K,A*38
$GPGLL,2233.2034,N,11413.7835,E,162044.00,A,A*66
$GPGSA,A,3,02,12,15,26,,,,,,,,,20.7,19.9,5.7*35
$GPRMC,162045.000,A,2233.2034,N,11413.7835,E,0.0,305.9,040191,,,A*62
$GPGGA,162045.000,2233.2034,N,11413.7835,E,1,04,19.9,92.1,M,14.2,M,,0000*5A
$GPVTG,305.9,T,,M,0.0,N,0.0,K,A*02
$GPGLL,2233.2034,N,11413.7835,E,162045.00,A,A*67
$GPGSA,A,3,02,12,15,26,,,,,,,,,20.7,19.9,5.7*35
$GPRMC,162046.000,A,2233.2098,N,11413.7724,E,10.4,305.0,040191,,,A*54
$GPGGA,162046.000,2233.2098,N,11413.7724,E,1,04,19.9,103.8,M,14.2,M,,0000*60
$GPVTG,305.0,T,,M,10.4,N,19.3,K,A*05
$GPGLL,2233.2098,N,11413.7724,E,162046.00,A,A*6D
$GPGSA,A,3,02,12,15,26,,,,,,,,,20.7,19.9,5.7*35
$GPGSV,3,1,11,02,53,077,11,27,04,180,34,12,09,226,28,26,72,169,38*72
$GPGSV,3,2,11,15,48,205,40,29,31,311,27,05,51,357,,10,26,042,*7F
$GPGSV,3,3,11,04,20,106,,08,13,082,,30,05,256,*4F
$GPRMC,162047.000,A,2233.2171,N,11413.7604,E,9.9,304.4,040191,,,A*60
$GPGGA,162047.000,2233.2171,N,11413.7604,E,1,04,19.9,116.2,M,14.2,M,,0000*6A
$GPVTG,304.4,T,,M,9.9,N,18.4,K,A*33
$GPGLL,2233.2171,N,11413.7604,E,162047.00,A,A*69
$GPGSA,A,3,02,12,15,26,,,,,,,,,20.7,19.9,5.7*35
$GPRMC,162048.000,A,2233.2250,N,11413.7481,E,10.4,303.0,040191,,,A*56
$GPGGA,162048.000,2233.2250,N,11413.7481,E,1,04,19.9,129.3,M,14.2,M,,0000*67
$GPVTG,303.0,T,,M,10.4,N,19.3,K,A*03
$GPGLL,2233.2250,N,11413.7481,E,162048.00,A,A*69
$GPGSA,A,3,02,12,15,26,,,,,,,,,20.7,19.9,5.6*34
$GPRMC,162049.000,A,2233.2250,N,11413.7481,E,10.4,303.0,040191,,,A*57
$GPGGA,162049.000,2233.2250,N,11413.7481,E,1,03,19.9,129.3,M,14.2,M,,0000*61
$GPVTG,303.0,T,,M,10.4,N,19.3,K,A*03
$GPGLL,2233.2250,N,11413.7481,E,162049.00,A,A*68
$GPGSA,A,3,12,15,26,,,,,,,,,,20.7,19.9,5.6*36
$GPRMC,162050.000,A,2233.2250,N,11413.7481,E,10.4,303.0,040191,,,A*5F
$GPGGA,162050.000,2233.2250,N,11413.7481,E,1,04,19.9,129.3,M,14.2,M,,0000*6E
$GPVTG,303.0,T,,M,10.4,N,19.3,K,A*03
$GPGLL,2233.2250,N,11413.7481,E,162050.00,A,A*60
$GPGSA,A,3,05,12,15,26,,,,,,,,,20.7,19.9,5.6*33
$GPRMC,162051.000,A,2233.2250,N,11413.7481,E,0.0,303.0,040191,,,A*6B
$GPGGA,162051.000,2233.2250,N,11413.7481,E,1,04,10.9,129.3,M,14.2,M,,0000*66
$GPVTG,303.0,T,,M,0.0,N,0.0,K,A*0D
$GPGLL,2233.2250,N,11413.7481,E,162051.00,A,A*61
$GPGSA,A,3,05,12,15,26,,,,,,,,,14.3,10.9,9.3*30
$GPGSV,3,1,11,05,51,357,13,27,04,180,35,12,09,226,26,26,72,169,38*7B
$GPGSV,3,2,11,15,48,205,39,29,31,311,25,02,53,077,,10,26,042,*77
$GPGSV,3,3,11,04,20,106,,08,13,082,,30,05,256,*4F
$GPRMC,162052.000,A,2233.2250,N,11413.7481,E,0.0,303.0,040191,,,A*68
$GPGGA,162052.000,2233.2250,N,11413.7481,E,1,03,11.3,129.3,M,14.2,M,,0000*69
$GPVTG,303.0,T,,M,0.0,N,0.0,K,A*0D
$GPGLL,2233.2250,N,11413.7481,E,162052.00,A,A*62
$GPGSA,A,2,12,15,26,,,,,,,,,,11.3,11.3,1.0*31
$GPRMC,162053.000,A,2233.2250,N,11413.7481,E,0.0,303.0,040191,,,A*69
$GPGGA,162053.000,2233.2250,N,11413.7481,E,1,04,10.9,129.3,M,14.2,M,,0000*64
$GPVTG,303.0,T,,M,0.0,N,0.0,K,A*0D
$GPGLL,2233.2250,N,11413.7481,E,162053.00,A,A*63
$GPGSA,A,3,05,12,15,26,,,,,,,,,14.3,10.9,9.3*30
$GPRMC,162054.000,A,2233.2250,N,11413.7481,E,0.0,303.0,040191,,,A*6E
$GPGGA,162054.000,2233.2250,N,11413.7481,E,1,04,10.9,129.3,M,14.2,M,,0000*63
$GPVTG,303.0,T,,M,0.0,N,0.0,K,A*0D
$GPGLL,2233.2250,N,11413.7481,E,162054.00,A,A*64
$GPGSA,A,3,05,12,15,26,,,,,,,,,14.3,10.9,9.3*30
$GPRMC,162055.000,A,2233.2250,N,11413.7481,E,0.0,303.0,040191,,,A*6F
$GPGGA,162055.000,2233.2250,N,11413.7481,E,1,04,10.9,129.3,M,14.2,M,,0000*62
$GPVTG,303.0,T,,M,0.0,N,0.0,K,A*0D
$GPGLL,2233.2250,N,11413.7481,E,162055.00,A,A*65
$GPGSA,A,3,05,12,15,26,,,,,,,,,14.3,10.9,9.3*30
$GPRMC,162056.000,A,2233.2250,N,11413.7481,E,0.0,303.0,040191,,,A*6C
$GPGGA,162056.000,2233.2250,N,11413.7481,E,1,04,10.9,129.3,M,14.2,M,,0000*61
$GPVTG,303.0,T,,M,0.0,N,0.0,K,A*0D
$GPGLL,2233.2250,N,11413.7481,E,162056.00,A,A*66
$GPGSA,A,3,05,12,15,26,,,,,,,,,14.3,10.9,9.3*30
$GPGSV,3,1,11,05,51,357,12,02,53,078,13,27,04,180,36,12,09,226,27*75
$GPGSV,3,2,11,26,72,169,39,15,48,205,40,29,31,311,24,10,26,042,*79
$GPGSV,3,3,11,04,20,107,,08,13,082,,30,05,256,*4E
$GPRMC,162057.000,A,2233.2250,N,11413.7481,E,0.0,303.0,040191,,,A*6D
$GPGGA,162057.000,2233.2250,N,11413.7481,E,1,05,2.1,129.3,M,14.2,M,,0000*5A
$GPVTG,303.0,T,,M,0.0,N,0.0,K,A*0D
$GPGLL,2233.2250,N,11413.7481,E,162057.00,A,A*67
$GPGSA,A,3,02,05,12,15,26,,,,,,,,3.2,2.1,2.4*32
$GPRMC,162058.000,A,2233.2250,N,11413.7481,E,0.0,303.0,040191,,,A*62
$GPGGA,162058.000,2233.2250,N,11413.7481,E,1,06,1.8,129.3,M,14.2,M,,0000*5C
$GPVTG,303.0,T,,M,0.0,N,0.0,K,A*0D
$GPGLL,2233.2250,N,11413.7481,E,162058.00,A,A*68
$GPGSA,A,3,02,05,10,12,15,26,,,,,,,2.5,1.8,1.7*3F
$GPRMC,162059.000,A,2233.2250,N,11413.7481,E,0.0,303.0,040191,,,A*63
$GPGGA,162059.000,2233.2250,N,11413.7481,E,1,05,2.1,129.3,M,14.2,M,,0000*54
$GPVTG,303.0,T,,M,0.0,N,0.0,K,A*0D
$GPGLL,2233.2250,N,11413.7481,E,162059.00,A,A*69
$GPGSA,A,3,02,05,12,15,26,,,,,,,,3.2,2.1,2.4*32
$GPRMC,162100.000,A,2233.2250,N,11413.7481,E,0.0,303.0,040191,,,A*6E
$GPGGA,162100.000,2233.2250,N,11413.7481,E,1,06,1.8,129.3,M,14.2,M,,0000*50
$GPVTG,303.0,T,,M,0.0,N,0.0,K,A*0D
$GPGLL,2233.2250,N,11413.7481,E,162100.00,A,A*64
$GPGSA,A,3,02,05,10,12,15,26,,,,,,,2.5,1.8,1.7*3F
$GPRMC,162101.000,A,2233.2250,N,11413.7481,E,0.0,303.0,040191,,,A*6F
$GPGGA,162101.000,2233.2250,N,11413.7481,E,1,06,1.8,129.3,M,14.2,M,,0000*51
$GPVTG,303.0,T,,M,0.0,N,0.0,K,A*0D
$GPGLL,2233.2250,N,11413.7481,E,162101.00,A,A*65
$GPGSA,A,3,02,05,10,12,15,26,,,,,,,2.5,1.8,1.7*3F
$GPGSV,3,1,11,10,26,042,11,05,51,357,12,02,53,078,12,27,04,180,36*7E
$GPGSV,3,2,11,12,09,226,26,26,72,169,39,15,48,205,40,29,31,311,*74
$GPGSV,3,3,11,04,20,107,,08,13,082,,30,05,256,*4E
$GPRMC,162102.000,A,2233.2250,N,11413.7481,E,0.0,303.0,040191,,,A*6C
$GPGGA,162102.000,2233.2250,N,11413.7481,E,1,05,2.1,129.3,M,14.2,M,,0000*5B
$GPVTG,303.0,T,,M,0.0,N,0.0,K,A*0D
$GPGLL,2233.2250,N,11413.7481,E,162102.00,A,A*66
$GPGSA,A,3,02,05,12,15,26,,,,,,,,3.2,2.1,2.4*32
$GPRMC,162103.000,A,2233.2250,N,11413.7481,E,0.0,303.0,040191,,,A*6D
$GPGGA,162103.000,2233.2250,N,11413.7481,E,1,05,2.1,129.3,M,14.2,M,,0000*5A
$GPVTG,303.0,T,,M,0.0,N,0.0,K,A*0D
$GPGLL,2233.2250,N,11413.7481,E,162103.00,A,A*67
$GPGSA,A,3,02,05,12,15,26,,,,,,,,3.2,2.1,2.4*32
$GPRMC,162104.000,A,2233.2250,N,11413.7481,E,0.0,303.0,040191,,,A*6A
$GPGGA,162104.000,2233.2250,N,11413.7481,E,1,05,2.1,129.3,M,14.2,M,,0000*5D
$GPVTG,303.0,T,,M,0.0,N,0.0,K,A*0D
$GPGLL,2233.2250,N,11413.7481,E,162104.00,A,A*60
$GPGSA,A,3,02,05,12,15,26,,,,,,,,3.2,2.1,2.4*32
$GPRMC,162105.000,A,2233.2250,N,11413.7481,E,0.0,303.0,040191,,,A*6B
$GPGGA,162105.000,2233.2250,N,11413.7481,E,1,05,2.1,129.3,M,14.2,M,,0000*5C
$GPVTG,303.0,T,,M,0.0,N,0.0,K,A*0D
$GPGLL,2233.2250,N,11413.7481,E,162105.00,A,A*61
$GPGSA,A,3,02,05,12,15,26,,,,,,,,3.2,2.1,2.4*32
$GPRMC,162106.000,A,2233.2250,N,11413.7481,E,0.0,303.0,040191,,,A*68
$GPGGA,162106.000,2233.2250,N,11413.7481,E,1,06,1.8,129.3,M,14.2,M,,0000*56
$GPVTG,303.0,T,,M,0.0,N,0.0,K,A*0D
$GPGLL,2233.2250,N,11413.7481,E,162106.00,A,A*62
$GPGSA,A,3,02,05,10,12,15,26,,,,,,,2.5,1.8,1.7*3F
$GPGSV,3,1,11,10,26,042,16,05,51,357,12,02,53,078,12,27,04,180,35*7A
$GPGSV,3,2,11,12,09,226,27,26,72,169,38,15,48,205,40,29,31,311,*74
$GPGSV,3,3,11,04,20,107,,08,13,082,,30,05,256,*4E
$GPRMC,162107.000,A,2233.2250,N,11413.7481,E,0.0,303.0,040191,,,A*69
$GPGGA,162107.000,2233.2250,N,11413.7481,E,1,06,1.8,129.3,M,14.2,M,,0000*57
$GPVTG,303.0,T,,M,0.0,N,0.0,K,A*0D
$GPGLL,2233.2250,N,11413.7481,E,162107.00,A,A*63
$GPGSA,A,3,02,05,10,12,15,26,,,,,,,2.5,1.8,1.7*3F
$GPRMC,162108.000,A,2233.2250,N,11413.7481,E,0.0,303.0,040191,,,A*66
$GPGGA,162108.000,2233.2250,N,11413.7481,E,1,04,19.8,129.3,M,14.2,M,,0000*63
$GPVTG,303.0,T,,M,0.0,N,0.0,K,A*0D
$GPGLL,2233.2250,N,11413.7481,E,162108.00,A,A*6C
$GPGSA,A,3,02,12,15,26,,,,,,,,,20.5,19.8,5.4*35
$GPRMC,162109.000,A,2233.2250,N,11413.7481,E,0.0,303.0,040191,,,A*67
$GPGGA,162109.000,2233.2250,N,11413.7481,E,1,05,6.6,129.3,M,14.2,M,,0000*53
$GPVTG,303.0,T,,M,0.0,N,0.0,K,A*0D
$GPGLL,2233.2250,N,11413.7481,E,162109.00,A,A*6D
$GPGSA,A,3,02,10,12,15,26,,,,,,,,7.5,6.6,3.5*36
$GPRMC,162110.000,A,2233.2250,N,11413.7481,E,0.0,303.0,040191,,,A*6F
$GPGGA,162110.000,2233.2250,N,11413.7481,E,1,05,6.6,129.3,M,14.2,M,,0000*5B
$GPVTG,303.0,T,,M,0.0,N,0.0,K,A*0D
$GPGLL,2233.2250,N,11413.7481,E,162110.00,A,A*65
$GPGSA,A,3,02,10,12,15,26,,,,,,,,7.5,6.6,3.5*36
$GPRMC,162111.000,A,2233.2250,N,11413.7481,E,0.0,303.0,040191,,,A*6E
$GPGGA,162111.000,2233.2250,N,11413.7481,E,1,05,6.6,129.3,M,14.2,M,,0000*5A
$GPVTG,303.0,T,,M,0.0,N,0.0,K,A*0D
$GPGLL,2233.2250,N,11413.7481,E,162111.00,A,A*64
$GPGSA,A,3,02,10,12,15,26,,,,,,,,7.5,6.6,3.5*36
$GPGSV,3,1,11,10,26,042,18,05,51,357,18,02,52,078,13,27,04,180,35*7E
$GPGSV,3,2,11,12,09,225,28,26,72,169,38,15,48,205,41,29,31,311,16*7E
$GPGSV,3,3,11,04,20,107,,08,13,082,,30,05,256,*4E
$GPRMC,162112.000,A,2233.2250,N,11413.7481,E,0.0,303.0,040191,,,A*6D
$GPGGA,162112.000,2233.2250,N,11413.7481,E,1,06,1.8,129.3,M,14.2,M,,0000*53
$GPVTG,303.0,T,,M,0.0,N,0.0,K,A*0D
$GPGLL,2233.2250,N,11413.7481,E,162112.00,A,A*67
$GPGSA,A,3,02,05,10,12,15,26,,,,,,,2.5,1.8,1.7*3F
$GPRMC,162113.000,A,2233.2250,N,11413.7481,E,0.0,303.0,040191,,,A*6C
$GPGGA,162113.000,2233.2250,N,11413.7481,E,1,06,1.8,129.3,M,14.2,M,,0000*52
$GPVTG,303.0,T,,M,0.0,N,0.0,K,A*0D
$GPGLL,2233.2250,N,11413.7481,E,162113.00,A,A*66
$GPGSA,A,3,02,05,10,12,15,26,,,,,,,2.5,1.8,1.7*3F
$GPRMC,162114.000,A,2233.2250,N,11413.7481,E,0.0,303.0,040191,,,A*6B
$GPGGA,162114.000,2233.2250,N,11413.7481,E,1,06,1.8,129.3,M,14.2,M,,0000*55
$GPVTG,303.0,T,,M,0.0,N,0.0,K,A*0D
$GPGLL,2233.2250,N,11413.7481,E,162114.00,A,A*61
$GPGSA,A,3,02,05,10,12,15,26,,,,,,,2.5,1.8,1.7*3F
$GPRMC,162115.000,A,2233.2250,N,11413.7481,E,0.0,303.0,040191,,,A*6A
$GPGGA,162115.000,2233.2250,N,11413.7481,E,1,06,1.8,129.3,M,14.2,M,,0000*54
$GPVTG,303.0,T,,M,0.0,N,0.0,K,A*0D
$GPGLL,2233.2250,N,11413.7481,E,162115.00,A,A*60
$GPGSA,A,3,02,05,10,12,15,26,,,,,,,2.5,1.8,1.7*3F
$GPRMC,162116.000,A,2233.2250,N,11413.7481,E,0.0,303.0,040191,,,A*69
$GPGGA,162116.000,2233.2250,N,11413.7481,E,1,05,1.8,129.3,M,14.2,M,,0000*54
$GPVTG,303.0,T,,M,0.0,N,0.0,K,A*0D
$GPGLL,2233.2250,N,11413.7481,E,162116.00,A,A*63
$GPGSA,A,3,02,05,10,12,26,,,,,,,,2.5,1.8,1.8*34
$GPGSV,3,1,11,10,26,042,18,05,51,357,18,02,52,078,13,27,04,179,36*7B
$GPGSV,3,2,11,12,09,225,26,26,72,169,38,15,48,205,40,29,31,311,*76
$GPGSV,3,3,11,04,20,107,,08,13,082,,30,05,256,*4E
$GPRMC,162117.000,A,2233.2250,N,11413.7481,E,0.0,303.0,040191,,,A*68
$GPGGA,162117.000,2233.2250,N,11413.7481,E,1,04,2.0,129.3,M,14.2,M,,0000*5F
$GPVTG,303.0,T,,M,0.0,N,0.0,K,A*0D
$GPGLL,2233.2250,N,11413.7481,E,162117.00,A,A*62
$GPGSA,A,3,02,05,10,12,,,,,,,,,3.3,2.0,2.6*31
$GPRMC,162118.000,A,2233.2250,N,11413.7481,E,0.0,303.0,040191,,,A*67
$GPGGA,162118.000,2233.2250,N,11413.7481,E,1,06,1.8,129.3,M,14.2,M,,0000*59
$GPVTG,303.0,T,,M,0.0,N,0.0,K,A*0D
$GPGLL,2233.2250,N,11413.7481,E,162118.00,A,A*6D
$GPGSA,A,3,02,05,10,12,15,26,,,,,,,2.5,1.8,1.7*3F
$GPRMC,162119.000,A,2233.2250,N,11413.7481,E,0.0,303.0,040191,,,A*66
$GPGGA,162119.000,2233.2250,N,11413.7481,E,1,04,2.0,129.3,M,14.2,M,,0000*51
$GPVTG,303.0,T,,M,0.0,N,0.0,K,A*0D
$GPGLL,2233.2250,N,11413.7481,E,162119.00,A,A*6C
$GPGSA,A,3,02,05,10,12,,,,,,,,,3.3,2.0,2.6*31
$GPRMC,162120.000,A,2233.2250,N,11413.7481,E,0.0,303.0,040191,,,A*6C
$GPGGA,162120.000,2233.2250,N,11413.7481,E,1,06,1.8,129.3,M,14.2,M,,0000*52
$GPVTG,303.0,T,,M,0.0,N,0.0,K,A*0D
$GPGLL,2233.2250,N,11413.7481,E,162120.00,A,A*66
$GPGSA,A,3,02,05,10,12,15,26,,,,,,,2.5,1.8,1.7*3F
$GPRMC,162121.000,A,2233.2250,N,11413.7481,E,0.0,303.0,040191,,,A*6D
$GPGGA,162121.000,2233.2250,N,11413.7481,E,1,04,2.0,129.3,M,14.2,M,,0000*5A
$GPVTG,303.0,T,,M,0.0,N,0.0,K,A*0D
$GPGLL,2233.2250,N,11413.7481,E,162121.00,A,A*67
$GPGSA,A,3,02,05,10,12,,,,,,,,,3.3,2.0,2.6*31
$GPGSV,3,1,11,10,26,042,16,05,51,358,18,02,52,078,12,27,04,179,35*78
$GPGSV,3,2,11,12,09,225,26,26,72,169,36,15,48,205,40,29,31,311,*78
$GPGSV,3,3,11,04,20,107,,08,13,082,,30,05,256,*4E
$GPRMC,162122.000,A,2233.2250,N,11413.7481,E,0.0,303.0,040191,,,A*6E
$GPGGA,162122.000,2233.2250,N,11413.7481,E,1,04,2.0,129.3,M,14.2,M,,0000*59
$GPVTG,303.0,T,,M,0.0,N,0.0,K,A*0D
$GPGLL,2233.2250,N,11413.7481,E,162122.00,A,A*64
$GPGSA,A,3,02,05,10,12,,,,,,,,,3.3,2.0,2.6*31
$GPRMC,162123.000,A,2233.2250,N,11413.7481,E,0.0,303.0,040191,,,A*6F
$GPGGA,162123.000,2233.2250,N,11413.7481,E,1,05,1.8,129.3,M,14.2,M,,0000*52
$GPVTG,303.0,T,,M,0.0,N,0.0,K,A*0D
$GPGLL,2233.2250,N,11413.7481,E,162123.00,A,A*65
$GPGSA,A,3,02,05,10,12,26,,,,,,,,2.5,1.8,1.7*3B
$GPRMC,162124.000,A,2233.2250,N,11413.7481,E,0.0,303.0,040191,,,A*68
$GPGGA,162124.000,2233.2250,N,11413.7481,E,1,04,2.0,129.3,M,14.2,M,,0000*5F
$GPVTG,303.0,T,,M,0.0,N,0.0,K,A*0D
$GPGLL,2233.2250,N,11413.7481,E,162124.00,A,A*62
$GPGSA,A,3,02,05,10,12,,,,,,,,,3.3,2.0,2.6*31
$GPRMC,162125.000,A,2233.2250,N,11413.7481,E,0.0,303.0,040191,,,A*69
$GPGGA,162125.000,2233.2250,N,11413.7481,E,1,04,2.0,129.3,M,14.2,M,,0000*5E
$GPVTG,303.0,T,,M,0.0,N,0.0,K,A*0D
$GPGLL,2233.2250,N,11413.7481,E,162125.00,A,A*63
$GPGSA,A,3,02,05,10,12,,,,,,,,,3.3,2.0,2.6*31
$GPRMC,162126.000,A,2233.2250,N,11413.7481,E,0.0,303.0,040191,,,A*6A
$GPGGA,162126.000,2233.2250,N,11413.7481,E,1,05,2.2,129.3,M,14.2,M,,0000*5E
$GPVTG,303.0,T,,M,0.0,N,0.0,K,A*0D
$GPGLL,2233.2250,N,11413.7481,E,162126.00,A,A*60
$GPGSA,A,3,05,10,12,15,26,,,,,,,,2.8,2.2,1.7*39
$GPGSV,3,1,11,10,26,042,16,05,51,358,15,02,52,078,11,27,04,179,36*75
$GPGSV,3,2,11,12,09,225,25,26,72,169,36,15,48,205,39,29,31,311,*75
$GPGSV,3,3,11,04,20,107,,08,13,082,,30,05,256,*4E
$GPRMC,162127.000,A,2233.2250,N,11413.7481,E,0.0,303.0,040191,,,A*6B
$GPGGA,162127.000,2233.2250,N,11413.7481,E,1,05,2.2,129.3,M,14.2,M,,0000*5F
$GPVTG,303.0,T,,M,0.0,N,0.0,K,A*0D
$GPGLL,2233.2250,N,11413.7481,E,162127.00,A,A*61
$GPGSA,A,3,05,10,12,15,26,,,,,,,,2.8,2.2,1.7*39
$GPRMC,162128.000,A,2233.2147,N,11413.7638,E,14.9,109.7,040191,,,A*52
$GPGGA,162128.000,2233.2147,N,11413.7638,E,1,03,3.2,115.5,M,14.2,M,,0000*5B
$GPVTG,109.7,T,,M,14.9,N,27.6,K,A*0D
$GPGLL,2233.2147,N,11413.7638,E,162128.00,A,A*6B
$GPGSA,A,2,05,10,12,,,,,,,,,,3.3,3.2,0.9*3C
$GPRMC,162129.000,A,2233.2147,N,11413.7638,E,14.9,109.7,040191,,,A*53
$GPGGA,162129.000,2233.2147,N,11413.7638,E,1,03,3.2,115.5,M,14.2,M,,0000*5A
$GPVTG,109.7,T,,M,14.9,N,27.6,K,A*0D
$GPGLL,2233.2147,N,11413.7638,E,162129.00,A,A*6A
$GPGSA,A,3,05,10,12,,,,,,,,,,3.3,3.2,0.9*3D
$GPRMC,162130.000,A,2233.2147,N,11413.7638,E,0.0,109.7,040191,,,A*67
$GPGGA,162130.000,2233.2147,N,11413.7638,E,1,05,2.2,115.5,M,14.2,M,,0000*55
$GPVTG,109.7,T,,M,0.0,N,0.0,K,A*02
$GPGLL,2233.2147,N,11413.7638,E,162130.00,A,A*62
$GPGSA,A,3,05,10,12,15,26,,,,,,,,2.8,2.2,1.7*39
$GPRMC,162131.000,A,2233.2051,N,11413.7799,E,12.8,107.7,040191,,,A*5F
$GPGGA,162131.000,2233.2051,N,11413.7799,E,1,03,3.2,108.0,M,14.2,M,,0000*56
$GPVTG,107.7,T,,M,12.8,N,23.7,K,A*01
$GPGLL,2233.2051,N,11413.7799,E,162131.00,A,A*6F
$GPGSA,A,2,05,10,12,,,,,,,,,,3.3,3.2,0.9*3C
$GPGSV,3,1,11,10,26,042,12,05,51,358,16,27,04,179,35,12,09,225,25*73
$GPGSV,3,2,11,26,72,169,35,15,49,205,39,02,52,078,,29,31,311,*75
$GPGSV,3,3,11,04,20,107,,08,13,082,,30,05,256,*4E
$GPRMC,162132.000,A,2233.1970,N,11413.7926,E,11.7,108.9,040191,,,A*52
$GPGGA,162132.000,2233.1970,N,11413.7926,E,1,03,3.2,104.1,M,14.2,M,,0000*5B
$GPVTG,108.9,T,,M,11.7,N,21.6,K,A*0F
$GPGLL,2233.1970,N,11413.7926,E,162132.00,A,A*6F
$GPGSA,A,2,05,10,12,,,,,,,,,,3.3,3.2,0.9*3C
$GPRMC,162133.000,A,2233.1900,N,11413.8033,E,10.5,107.4,040191,,,A*57
$GPGGA,162133.000,2233.1900,N,11413.8033,E,1,03,3.2,101.8,M,14.2,M,,0000*53
$GPVTG,107.4,T,,M,10.5,N,19.5,K,A*06
$GPGLL,2233.1900,N,11413.8033,E,162133.00,A,A*6B
$GPGSA,A,2,05,10,12,,,,,,,,,,3.3,3.2,0.9*3C
$GPRMC,162134.000,A,2233.1837,N,11413.8128,E,9.4,106.5,040191,,,A*67
$GPGGA,162134.000,2233.1837,N,11413.8128,E,1,03,3.2,100.4,M,14.2,M,,0000*57
$GPVTG,106.5,T,,M,9.4,N,17.4,K,A*30
$GPGLL,2233.1837,N,11413.8128,E,162134.00,A,A*62
$GPGSA,A,2,05,10,12,,,,,,,,,,3.3,3.2,0.9*3C
$GPRMC,162135.000,A,2233.1770,N,11413.8230,E,9.9,105.6,040191,,,A*6D
$GPGGA,162135.000,2233.1770,N,11413.8230,E,1,03,3.2,99.6,M,14.2,M,,0000*63
$GPVTG,105.6,T,,M,9.9,N,18.3,K,A*35
$GPGLL,2233.1770,N,11413.8230,E,162135.00,A,A*65
$GPGSA,A,2,05,10,12,,,,,,,,,,3.3,3.2,0.9*3C
$GPRMC,162136.000,A,2233.1770,N,11413.8230,E,0.0,105.6,040191,,,A*6E
$GPGGA,162136.000,2233.1770,N,11413.8230,E,1,04,10.7,99.6,M,14.2,M,,0000*50
$GPVTG,105.6,T,,M,0.0,N,0.0,K,A*0F
$GPGLL,2233.1770,N,11413.8230,E,162136.00,A,A*66
$GPGSA,A,3,05,12,15,26,,,,,,,,,14.0,10.7,9.0*3E
$GPGSV,3,1,11,10,26,042,11,05,51,358,17,27,04,179,36,12,09,225,27*70
$GPGSV,3,2,11,26,72,169,37,15,49,205,41,02,52,078,,29,31,311,*78
$GPGSV,3,3,11,04,20,107,,08,13,082,,30,05,256,*4E
$GPRMC,162137.000,A,2233.1770,N,11413.8230,E,0.0,105.6,040191,,,A*6F
$GPGGA,162137.000,2233.1770,N,11413.8230,E,1,04,10.7,99.6,M,14.2,M,,0000*51
$GPVTG,105.6,T,,M,0.0,N,0.0,K,A*0F
$GPGLL,2233.1770,N,11413.8230,E,162137.00,A,A*67
$GPGSA,A,3,05,12,15,26,,,,,,,,,13.9,10.7,8.9*38
$GPRMC,162138.000,A,2233.1770,N,11413.8230,E,0.0,105.6,040191,,,A*60
$GPGGA,162138.000,2233.1770,N,11413.8230,E,1,04,10.7,99.6,M,14.2,M,,0000*5E
$GPVTG,105.6,T,,M,0.0,N,0.0,K,A*0F
$GPGLL,2233.1770,N,11413.8230,E,162138.00,A,A*68
$GPGSA,A,3,05,12,15,26,,,,,,,,,13.9,10.7,8.9*38
$GPRMC,162139.000,A,2233.1770,N,11413.8230,E,0.0,105.6,040191,,,A*61
$GPGGA,162139.000,2233.1770,N,11413.8230,E,1,05,2.1,99.6,M,14.2,M,,0000*6B
$GPVTG,105.6,T,,M,0.0,N,0.0,K,A*0F
$GPGLL,2233.1770,N,11413.8230,E,162139.00,A,A*69
$GPGSA,A,3,02,05,12,15,26,,,,,,,,3.2,2.1,2.4*32
$GPRMC,162140.000,A,2233.1770,N,11413.8230,E,0.0,105.6,040191,,,A*6F
$GPGGA,162140.000,2233.1770,N,11413.8230,E,1,04,10.7,99.6,M,14.2,M,,0000*51
$GPVTG,105.6,T,,M,0.0,N,0.0,K,A*0F
$GPGLL,2233.1770,N,11413.8230,E,162140.00,A,A*67
$GPGSA,A,3,05,12,15,26,,,,,,,,,13.9,10.7,8.9*38
$GPRMC,162141.000,A,2233.1770,N,11413.8230,E,0.0,105.6,040191,,,A*6E
$GPGGA,162141.000,2233.1770,N,11413.8230,E,1,05,2.1,99.6,M,14.2,M,,0000*64
$GPVTG,105.6,T,,M,0.0,N,0.0,K,A*0F
$GPGLL,2233.1770,N,11413.8230,E,162141.00,A,A*66
$GPGSA,A,3,02,05,12,15,26,,,,,,,,3.2,2.1,2.4*32
$GPGSV,3,1,11,05,51,358,17,02,52,078,12,27,04,179,36,12,09,225,28*75
$GPGSV,3,2,11,26,72,169,35,15,49,205,41,29,31,311,,10,26,042,*73
$GPGSV,3,3,11,04,19,107,,08,13,082,,30,05,256,*44
$GPRMC,162142.000,A,2233.1770,N,11413.8230,E,0.0,105.6,040191,,,A*6D
$GPGGA,162142.000,2233.1770,N,11413.8230,E,1,05,2.1,99.6,M,14.2,M,,0000*67
$GPVTG,105.6,T,,M,0.0,N,0.0,K,A*0F
$GPGLL,2233.1770,N,11413.8230,E,162142.00,A,A*65
$GPGSA,A,3,02,05,12,15,26,,,,,,,,3.2,2.1,2.4*32
$GPRMC,162143.000,A,2233.1770,N,11413.8230,E,0.0,105.6,040191,,,A*6C
$GPGGA,162143.000,2233.1770,N,11413.8230,E,1,04,10.7,99.6,M,14.2,M,,0000*52
$GPVTG,105.6,T,,M,0.0,N,0.0,K,A*0F
$GPGLL,2233.1770,N,11413.8230,E,162143.00,A,A*64
$GPGSA,A,3,05,12,15,26,,,,,,,,,13.9,10.7,8.9*38
$GPRMC,162144.000,A,2233.1770,N,11413.8230,E,0.0,105.6,040191,,,A*6B
$GPGGA,162144.000,2233.1770,N,11413.8230,E,1,04,10.7,99.6,M,14.2,M,,0000*55
$GPVTG,105.6,T,,M,0.0,N,0.0,K,A*0F
$GPGLL,2233.1770,N,11413.8230,E,162144.00,A,A*63
$GPGSA,A,3,05,12,15,26,,,,,,,,,13.9,10.7,8.9*38
$GPRMC,162145.000,A,2233.1770,N,11413.8230,E,0.0,105.6,040191,,,A*6A
$GPGGA,162145.000,2233.1770,N,11413.8230,E,1,04,10.7,99.6,M,14.2,M,,0000*54
$GPVTG,105.6,T,,M,0.0,N,0.0,K,A*0F
$GPGLL,2233.1770,N,11413.8230,E,162145.00,A,A*62
$GPGSA,A,3,05,12,15,26,,,,,,,,,13.9,10.7,8.9*38
$GPRMC,162146.000,A,2233.1770,N,11413.8230,E,0.0,105.6,040191,,,A*69
$GPGGA,162146.000,2233.1770,N,11413.8230,E,1,04,10.7,99.6,M,14.2,M,,0000*57
$GPVTG,105.6,T,,M,0.0,N,0.0,K,A*0F
$GPGLL,2233.1770,N,11413.8230,E,162146.00,A,A*61
$GPGSA,A,3,05,12,15,26,,,,,,,,,13.9,10.7,8.9*38
$GPGSV,3,1,11,05,51,358,16,27,04,179,36,12,09,225,27,26,72,169,36*78
$GPGSV,3,2,11,15,49,205,42,02,52,078,,29,31,311,,10,26,042,*73
$GPGSV,3,3,11,04,19,107,,08,13,082,,30,05,256,*44
$GPRMC,162147.000,A,2233.1828,N,11413.8143,E,3.2,105.6,040191,,,A*6C
$GPGGA,162147.000,2233.1828,N,11413.8143,E,1,05,2.0,105.8,M,14.2,M,,0000*5C
$GPVTG,105.6,T,,M,3.2,N,5.9,K,A*02
$GPGLL,2233.1828,N,11413.8143,E,162147.00,A,A*65
$GPGSA,A,3,05,12,15,26,27,,,,,,,,2.6,2.0,1.7*31
$GPRMC,162148.000,A,2233.1842,N,11413.8135,E,2.5,105.6,040191,,,A*68
$GPGGA,162148.000,2233.1842,N,11413.8135,E,1,05,2.0,103.5,M,14.2,M,,0000*55
$GPVTG,105.6,T,,M,2.5,N,4.7,K,A*0B
$GPGLL,2233.1842,N,11413.8135,E,162148.00,A,A*67
$GPGSA,A,3,05,12,15,26,27,,,,,,,,2.6,2.0,1.7*31
$GPRMC,162149.000,A,2233.1848,N,11413.8141,E,2.6,105.6,040191,,,A*63
$GPGGA,162149.000,2233.1848,N,11413.8141,E,1,05,2.0,100.2,M,14.2,M,,0000*59
$GPVTG,105.6,T,,M,2.6,N,4.8,K,A*07
$GPGLL,2233.1848,N,11413.8141,E,162149.00,A,A*6F
$GPGSA,A,3,05,12,15,26,27,,,,,,,,2.6,2.0,1.7*31
$GPRMC,162150.000,A,2233.1857,N,11413.8145,E,2.9,105.6,040191,,,A*6E
$GPGGA,162150.000,2233.1857,N,11413.8145,E,1,06,1.6,96.8,M,14.2,M,,0000*69
$GPVTG,105.6,T,,M,2.9,N,5.3,K,A*02
$GPGLL,2233.1857,N,11413.8145,E,162150.00,A,A*6D
$GPGSA,A,3,05,10,12,15,26,27,,,,,,,2.1,1.6,1.4*31
$GPRMC,162151.000,A,2233.1869,N,11413.8139,E,2.8,105.6,040191,,,A*68
$GPGGA,162151.000,2233.1869,N,11413.8139,E,1,06,1.6,93.9,M,14.2,M,,0000*6A
$GPVTG,105.6,T,,M,2.8,N,5.2,K,A*02
$GPGLL,2233.1869,N,11413.8139,E,162151.00,A,A*6A
$GPGSA,A,3,05,10,12,15,26,27,,,,,,,2.1,1.6,1.4*31
$GPGSV,3,1,11,10,26,043,12,05,51,358,12,27,05,179,36,12,09,225,27*76
$GPGSV,3,2,11,26,72,169,37,15,49,205,42,29,31,311,19,02,52,078,*73
$GPGSV,3,3,11,04,19,107,,08,13,082,,30,05,256,*44
$GPRMC,162152.000,A,2233.1877,N,11413.8140,E,2.8,105.6,040191,,,A*6A
$GPGGA,162152.000,2233.1877,N,11413.8140,E,1,06,1.6,90.8,M,14.2,M,,0000*6A
$GPVTG,105.6,T,,M,2.8,N,5.2,K,A*02
$GPGLL,2233.1877,N,11413.8140,E,162152.00,A,A*68
$GPGSA,A,3,05,10,12,15,26,27,,,,,,,2.1,1.6,1.4*31
$GPRMC,162153.000,A,2233.1883,N,11413.8138,E,2.4,105.6,040191,,,A*63
$GPGGA,162153.000,2233.1883,N,11413.8138,E,1,07,1.4,88.3,M,14.2,M,,0000*6E
$GPVTG,105.6,T,,M,2.4,N,4.4,K,A*09
$GPGLL,2233.1883,N,11413.8138,E,162153.00,A,A*6D
$GPGSA,A,3,02,05,10,12,15,26,27,,,,,,1.9,1.4,1.3*3D
$GPRMC,162154.000,A,2233.1890,N,11413.8138,E,2.4,105.6,040191,,,A*66
$GPGGA,162154.000,2233.1890,N,11413.8138,E,1,06,1.8,86.0,M,14.2,M,,0000*6B
$GPVTG,105.6,T,,M,2.4,N,4.5,K,A*08
$GPGLL,2233.1890,N,11413.8138,E,162154.00,A,A*68
$GPGSA,A,3,02,10,12,15,26,27,,,,,,,2.2,1.8,1.3*3C
$GPRMC,162155.000,A,2233.1894,N,11413.8141,E,2.1,105.6,040191,,,A*68
$GPGGA,162155.000,2233.1894,N,11413.8141,E,1,06,1.8,83.9,M,14.2,M,,0000*6C
$GPVTG,105.6,T,,M,2.1,N,3.8,K,A*07
$GPGLL,2233.1894,N,11413.8141,E,162155.00,A,A*63
$GPGSA,A,3,02,10,12,15,26,27,,,,,,,2.2,1.8,1.3*3C
$GPRMC,162156.000,A,2233.1902,N,11413.8142,E,2.6,105.6,040191,,,A*61
$GPGGA,162156.000,2233.1902,N,11413.8142,E,1,06,1.8,81.8,M,14.2,M,,0000*61
$GPVTG,105.6,T,,M,2.6,N,4.8,K,A*07
$GPGLL,2233.1902,N,11413.8142,E,162156.00,A,A*6D
$GPGSA,A,3,02,10,12,15,26,27,,,,,,,2.2,1.8,1.3*3C
$GPGSV,3,1,11,10,26,043,14,02,52,078,14,27,05,179,35,12,09,225,24*73
$GPGSV,3,2,11,26,72,168,37,15,49,205,42,29,31,311,19,05,51,358,*77
$GPGSV,3,3,11,04,19,107,,08,13,082,,30,05,256,*44
$GPRMC,162157.000,A,2233.1916,N,11413.8136,E,2.9,105.6,040191,,,A*69
$GPGGA,162157.000,2233.1916,N,11413.8136,E,1,06,1.8,78.4,M,14.2,M,,0000*6C
$GPVTG,105.6,T,,M,2.9,N,5.3,K,A*02
$GPGLL,2233.1916,N,11413.8136,E,162157.00,A,A*6A
$GPGSA,A,3,02,10,12,15,26,27,,,,,,,2.2,1.8,1.3*3C
$GPRMC,162158.000,A,2233.1924,N,11413.8133,E,2.5,105.6,040191,,,A*6E
$GPGGA,162158.000,2233.1924,N,11413.8133,E,1,06,1.8,76.4,M,14.2,M,,0000*69
$GPVTG,105.6,T,,M,2.5,N,4.6,K,A*0A
$GPGLL,2233.1924,N,11413.8133,E,162158.00,A,A*61
$GPGSA,A,3,02,10,12,15,26,27,,,,,,,2.2,1.8,1.3*3C
$GPRMC,162159.000,A,2233.1931,N,11413.8131,E,2.3,105.6,040191,,,A*6F
$GPGGA,162159.000,2233.1931,N,11413.8131,E,1,06,1.8,74.6,M,14.2,M,,0000*6E
$GPVTG,105.6,T,,M,2.3,N,4.2,K,A*08
$GPGLL,2233.1931,N,11413.8131,E,162159.00,A,A*66
$GPGSA,A,3,02,10,12,15,26,27,,,,,,,2.2,1.8,1.3*3C
$GPRMC,162200.000,A,2233.1934,N,11413.8132,E,2.7,105.6,040191,,,A*62
$GPGGA,162200.000,2233.1934,N,11413.8132,E,1,06,1.8,73.3,M,14.2,M,,0000*65
$GPVTG,105.6,T,,M,2.7,N,5.0,K,A*0F
$GPGLL,2233.1934,N,11413.8132,E,162200.00,A,A*6F
$GPGSA,A,3,02,10,12,15,26,27,,,,,,,2.2,1.8,1.3*3C
$GPRMC,162201.000,A,2233.1939,N,11413.8132,E,2.0,105.6,040191,,,A*69
$GPGGA,162201.000,2233.1939,N,11413.8132,E,1,06,1.8,71.5,M,14.2,M,,0000*6D
$GPVTG,105.6,T,,M,2.0,N,3.7,K,A*09
$GPGLL,2233.1939,N,11413.8132,E,162201.00,A,A*63
$GPGSA,A,3,02,10,12,15,26,27,,,,,,,2.2,1.8,1.3*3C
$GPGSV,3,1,11,10,26,043,16,02,52,078,14,27,05,179,35,12,09,225,20*75
$GPGSV,3,2,11,26,72,168,38,15,49,205,41,29,31,311,15,05,51,358,*77
$GPGSV,3,3,11,04,19,107,,08,13,082,,30,05,256,*44
$GPRMC,162202.000,A,2233.1942,N,11413.8134,E,2.0,105.6,040191,,,A*60
$GPGGA,162202.000,2233.1942,N,11413.8134,E,1,06,1.8,70.2,M,14.2,M,,0000*62
$GPVTG,105.6,T,,M,2.0,N,3.7,K,A*09
$GPGLL,2233.1942,N,11413.8134,E,162202.00,A,A*6A
$GPGSA,A,3,02,10,12,15,26,27,,,,,,,2.2,1.8,1.3*3C
$GPRMC,162203.000,A,2233.1960,N,11413.8135,E,2.0,105.6,040191,,,A*60
$GPGGA,162203.000,2233.1960,N,11413.8135,E,1,06,1.8,66.1,M,14.2,M,,0000*66
$GPVTG,105.6,T,,M,2.0,N,3.7,K,A*09
$GPGLL,2233.1960,N,11413.8135,E,162203.00,A,A*6A
$GPGSA,A,3,02,10,12,15,26,27,,,,,,,2.2,1.8,1.3*3C
$GPRMC,162204.000,A,2233.1972,N,11413.8137,E,2.1,105.6,040191,,,A*67
$GPGGA,162204.000,2233.1972,N,11413.8137,E,1,05,3.1,63.2,M,14.2,M,,0000*6E
$GPVTG,105.6,T,,M,2.1,N,3.8,K,A*07
$GPGLL,2233.1972,N,11413.8137,E,162204.00,A,A*6C
$GPGSA,A,3,02,10,15,26,27,,,,,,,,3.5,3.1,1.7*36
$GPRMC,162205.000,A,2233.1984,N,11413.8132,E,2.5,105.6,040191,,,A*6E
$GPGGA,162205.000,2233.1984,N,11413.8132,E,1,06,1.8,60.7,M,14.2,M,,0000*6D
$GPVTG,105.6,T,,M,2.5,N,4.6,K,A*0A
$GPGLL,2233.1984,N,11413.8132,E,162205.00,A,A*61
$GPGSA,A,3,02,10,12,15,26,27,,,,,,,2.2,1.8,1.3*3C
$GPRMC,162206.000,A,2233.1984,N,11413.8132,E,0.0,105.6,040191,,,A*6A
$GPGGA,162206.000,2233.1984,N,11413.8132,E,1,06,1.8,60.7,M,14.2,M,,0000*6E
$GPVTG,105.6,T,,M,0.0,N,0.0,K,A*0F
$GPGLL,2233.1984,N,11413.8132,E,162206.00,A,A*62
$GPGSA,A,3,02,10,12,15,26,27,,,,,,,2.2,1.8,1.3*3C
$GPGSV,3,1,11,10,26,043,20,02,52,078,14,27,05,179,34,12,09,225,22*73
$GPGSV,3,2,11,26,72,168,37,15,49,205,41,29,31,311,,05,51,358,*7C
$GPGSV,3,3,11,04,19,107,,08,13,082,,30,05,256,*44
$GPRMC,162207.000,A,2233.2004,N,11413.8115,E,2.3,105.6,040191,,,A*6D
$GPGGA,162207.000,2233.2004,N,11413.8115,E,1,06,1.8,57.3,M,14.2,M,,0000*68
$GPVTG,105.6,T,,M,2.3,N,4.2,K,A*08
$GPGLL,2233.2004,N,11413.8115,E,162207.00,A,A*64
$GPGSA,A,3,02,10,12,15,26,27,,,,,,,2.2,1.8,1.3*3C
$GPRMC,162208.000,A,2233.2004,N,11413.8115,E,0.0,105.6,040191,,,A*63
$GPGGA,162208.000,2233.2004,N,11413.8115,E,1,06,1.8,57.3,M,14.2,M,,0000*67
$GPVTG,105.6,T,,M,0.0,N,0.0,K,A*0F
$GPGLL,2233.2004,N,11413.8115,E,162208.00,A,A*6B
$GPGSA,A,3,02,10,12,15,26,27,,,,,,,2.2,1.8,1.3*3C
$GPRMC,162209.000,A,2233.2004,N,11413.8115,E,0.0,105.6,040191,,,A*62
$GPGGA,162209.000,2233.2004,N,11413.8115,E,1,06,1.8,57.3,M,14.2,M,,0000*66
$GPVTG,105.6,T,,M,0.0,N,0.0,K,A*0F
$GPGLL,2233.2004,N,11413.8115,E,162209.00,A,A*6A
$GPGSA,A,3,02,10,12,15,26,27,,,,,,,2.2,1.8,1.3*3C
$GPRMC,162210.000,A,2233.2004,N,11413.8115,E,0.0,105.6,040191,,,A*6A
$GPGGA,162210.000,2233.2004,N,11413.8115,E,1,06,1.8,57.3,M,14.2,M,,0000*6E
$GPVTG,105.6,T,,M,0.0,N,0.0,K,A*0F
$GPGLL,2233.2004,N,11413.8115,E,162210.00,A,A*62
$GPGSA,A,3,02,10,12,15,26,27,,,,,,,2.2,1.8,1.3*3C
$GPRMC,162211.000,A,2233.2004,N,11413.8115,E,0.0,105.6,040191,,,A*6B
$GPGGA,162211.000,2233.2004,N,11413.8115,E,1,06,1.8,57.3,M,14.2,M,,0000*6F
$GPVTG,105.6,T,,M,0.0,N,0.0,K,A*0F
$GPGLL,2233.2004,N,11413.8115,E,162211.00,A,A*63
$GPGSA,A,3,02,10,12,15,26,27,,,,,,,2.2,1.8,1.3*3C
$GPGSV,3,1,11,10,26,043,22,02,52,079,12,27,05,179,34,12,09,225,23*77
$GPGSV,3,2,11,26,73,168,37,15,49,206,42,29,31,311,20,05,51,358,*7F
$GPGSV,3,3,11,04,19,107,,08,13,082,,30,05,256,*44
$GPRMC,162212.000,A,2233.2004,N,11413.8115,E,0.0,105.6,040191,,,A*68
$GPGGA,162212.000,2233.2004,N,11413.8115,E,1,06,1.8,57.3,M,14.2,M,,0000*6C
$GPVTG,105.6,T,,M,0.0,N,0.0,K,A*0F
$GPGLL,2233.2004,N,11413.8115,E,162212.00,A,A*60
$GPGSA,A,3,02,10,12,15,26,27,,,,,,,2.2,1.8,1.3*3C
$GPRMC,162213.000,A,2233.2004,N,11413.8115,E,0.0,105.6,040191,,,A*69
$GPGGA,162213.000,2233.2004,N,11413.8115,E,1,06,1.8,57.3,M,14.2,M,,0000*6D
$GPVTG,105.6,T,,M,0.0,N,0.0,K,A*0F
$GPGLL,2233.2004,N,11413.8115,E,162213.00,A,A*61
$GPGSA,A,3,02,10,12,15,26,27,,,,,,,2.2,1.8,1.3*3C
$GPRMC,162214.000,A,2233.2004,N,11413.8115,E,0.0,105.6,040191,,,A*6E
$GPGGA,162214.000,2233.2004,N,11413.8115,E,1,06,1.8,57.3,M,14.2,M,,0000*6A
$GPVTG,105.6,T,,M,0.0,N,0.0,K,A*0F
$GPGLL,2233.2004,N,11413.8115,E,162214.00,A,A*66
$GPGSA,A,3,02,10,12,15,26,27,,,,,,,2.2,1.8,1.3*3C
$GPRMC,162215.000,A,2233.2004,N,11413.8115,E,0.0,105.6,040191,,,A*6F
$GPGGA,162215.000,2233.2004,N,11413.8115,E,1,06,1.8,57.3,M,14.2,M,,0000*6B
$GPVTG,105.6,T,,M,0.0,N,0.0,K,A*0F
$GPGLL,2233.2004,N,11413.8115,E,162215.00,A,A*67
$GPGSA,A,3,02,10,12,15,26,27,,,,,,,2.2,1.8,1.3*3C
$GPRMC,162216.000,A,2233.2004,N,11413.8115,E,0.0,105.6,040191,,,A*6C
$GPGGA,162216.000,2233.2004,N,11413.8115,E,1,06,1.8,57.3,M,14.2,M,,0000*68
$GPVTG,105.6,T,,M,0.0,N,0.0,K,A*0F
$GPGLL,2233.2004,N,11413.8115,E,162216.00,A,A*64
$GPGSA,A,3,02,10,12,15,26,27,,,,,,,2.2,1.8,1.3*3C
$GPGSV,3,1,11,10,26,043,22,02,52,079,11,27,05,179,35,12,09,225,24*72
$GPGSV,3,2,11,26,73,168,38,15,49,206,42,29,31,311,17,05,51,358,*74
$GPGSV,3,3,11,04,19,107,,08,13,082,,30,05,256,*44
$GPRMC,162217.000,A,2233.2004,N,11413.8115,E,0.0,105.6,040191,,,A*6D
$GPGGA,162217.000,2233.2004,N,11413.8115,E,1,06,1.8,57.3,M,14.2,M,,0000*69
$GPVTG,105.6,T,,M,0.0,N,0.0,K,A*0F
$GPGLL,2233.2004,N,11413.8115,E,162217.00,A,A*65
$GPGSA,A,3,02,10,12,15,26,27,,,,,,,2.2,1.8,1.3*3C
$GPRMC,162218.000,A,2233.2004,N,11413.8115,E,0.0,105.6,040191,,,A*62
$GPGGA,162218.000,2233.2004,N,11413.8115,E,1,06,1.8,57.3,M,14.2,M,,0000*66
$GPVTG,105.6,T,,M,0.0,N,0.0,K,A*0F
$GPGLL,2233.2004,N,11413.8115,E,162218.00,A,A*6A
$GPGSA,A,3,02,10,12,15,26,27,,,,,,,2.2,1.8,1.3*3C
$GPRMC,162219.000,A,2233.2004,N,11413.8115,E,0.0,105.6,040191,,,A*63
$GPGGA,162219.000,2233.2004,N,11413.8115,E,1,06,1.8,57.3,M,14.2,M,,0000*67
$GPVTG,105.6,T,,M,0.0,N,0.0,K,A*0F
$GPGLL,2233.2004,N,11413.8115,E,162219.00,A,A*6B
$GPGSA,A,3,02,10,12,15,26,27,,,,,,,2.2,1.8,1.3*3C
$GPRMC,162220.000,A,2233.2004,N,11413.8115,E,0.0,105.6,040191,,,A*69
$GPGGA,162220.000,2233.2004,N,11413.8115,E,1,06,1.8,57.3,M,14.2,M,,0000*6D
$GPVTG,105.6,T,,M,0.0,N,0.0,K,A*0F
$GPGLL,2233.2004,N,11413.8115,E,162220.00,A,A*61
$GPGSA,A,3,02,10,12,15,26,27,,,,,,,2.2,1.8,1.3*3C
$GPRMC,162221.000,A,2233.2004,N,11413.8115,E,0.0,105.6,040191,,,A*68
$GPGGA,162221.000,2233.2004,N,11413.8115,E,1,06,1.8,57.3,M,14.2,M,,0000*6C
$GPVTG,105.6,T,,M,0.0,N,0.0,K,A*0F
$GPGLL,2233.2004,N,11413.8115,E,162221.00,A,A*60
$GPGSA,A,3,02,10,12,15,26,27,,,,,,,2.2,1.8,1.3*3C
$GPGSV,3,1,11,10,26,043,22,02,52,079,11,27,05,179,35,12,09,225,27*71
$GPGSV,3,2,11,26,73,168,38,15,49,206,42,29,31,311,,05,51,358,*72
$GPGSV,3,3,11,04,19,107,,08,13,082,,30,05,256,*44
$GPRMC,162222.000,A,2233.2004,N,11413.8115,E,0.0,105.6,040191,,,A*6B
$GPGGA,162222.000,2233.2004,N,11413.8115,E,1,06,1.8,57.3,M,14.2,M,,0000*6F
$GPVTG,105.6,T,,M,0.0,N,0.0,K,A*0F
$GPGLL,2233.2004,N,11413.8115,E,162222.00,A,A*63
$GPGSA,A,3,02,10,12,15,26,27,,,,,,,2.2,1.8,1.3*3C
$GPRMC,162223.000,A,2233.2004,N,11413.8115,E,0.0,105.6,040191,,,A*6A
$GPGGA,162223.000,2233.2004,N,11413.8115,E,1,06,1.8,57.3,M,14.2,M,,0000*6E
$GPVTG,105.6,T,,M,0.0,N,0.0,K,A*0F
$GPGLL,2233.2004,N,11413.8115,E,162223.00,A,A*62
$GPGSA,A,3,02,10,12,15,26,27,,,,,,,2.2,1.8,1.3*3C
$GPRMC,162224.000,A,2233.2004,N,11413.8115,E,0.0,105.6,040191,,,A*6D
$GPGGA,162224.000,2233.2004,N,11413.8115,E,1,06,1.8,57.3,M,14.2,M,,0000*69
$GPVTG,105.6,T,,M,0.0,N,0.0,K,A*0F
$GPGLL,2233.2004,N,11413.8115,E,162224.00,A,A*65
$GPGSA,A,3,02,10,12,15,26,27,,,,,,,2.2,1.8,1.3*3C
$GPRMC,162225.000,A,2233.2004,N,11413.8115,E,0.0,105.6,040191,,,A*6C
$GPGGA,162225.000,2233.2004,N,11413.8115,E,1,06,1.8,57.3,M,14.2,M,,0000*68
$GPVTG,105.6,T,,M,0.0,N,0.0,K,A*0F
$GPGLL,2233.2004,N,11413.8115,E,162225.00,A,A*64
$GPGSA,A,3,02,10,12,15,26,27,,,,,,,2.2,1.8,1.3*3C
$GPRMC,162226.000,A,2233.2004,N,11413.8115,E,0.0,105.6,040191,,,A*6F
$GPGGA,162226.000,2233.2004,N,11413.8115,E,1,06,1.8,57.3,M,14.2,M,,0000*6B
$GPVTG,105.6,T,,M,0.0,N,0.0,K,A*0F
$GPGLL,2233.2004,N,11413.8115,E,162226.00,A,A*67
$GPGSA,A,3,02,10,12,15,26,27,,,,,,,2.2,1.8,1.3*3C
$GPGSV,3,1,11,10,26,043,22,02,52,079,13,27,05,179,35,12,09,225,27*73
$GPGSV,3,2,11,26,73,168,38,15,49,206,42,29,31,311,,05,51,358,*72
$GPGSV,3,3,11,04,19,107,,08,13,082,,30,05,256,*44
$GPRMC,162227.000,A,2233.2004,N,11413.8115,E,0.0,105.6,040191,,,A*6E
$GPGGA,162227.000,2233.2004,N,11413.8115,E,1,06,1.8,57.3,M,14.2,M,,0000*6A
$GPVTG,105.6,T,,M,0.0,N,0.0,K,A*0F
$GPGLL,2233.2004,N,11413.8115,E,162227.00,A,A*66
$GPGSA,A,3,02,10,12,15,26,27,,,,,,,2.2,1.8,1.3*3C
$GPRMC,162228.000,A,2233.2004,N,11413.8115,E,0.0,105.6,040191,,,A*61
$GPGGA,162228.000,2233.2004,N,11413.8115,E,1,06,1.8,57.3,M,14.2,M,,0000*65
$GPVTG,105.6,T,,M,0.0,N,0.0,K,A*0F
$GPGLL,2233.2004,N,11413.8115,E,162228.00,A,A*69
$GPGSA,A,3,02,10,12,15,26,27,,,,,,,2.2,1.8,1.3*3C
$GPRMC,162229.000,A,2233.2004,N,11413.8115,E,0.0,105.6,040191,,,A*60
$GPGGA,162229.000,2233.2004,N,11413.8115,E,1,06,1.8,57.3,M,14.2,M,,0000*64
$GPVTG,105.6,T,,M,0.0,N,0.0,K,A*0F
$GPGLL,2233.2004,N,11413.8115,E,162229.00,A,A*68
$GPGSA,A,3,02,10,12,15,26,27,,,,,,,2.2,1.8,1.3*3C
$GPRMC,162230.000,A,2233.2004,N,11413.8115,E,0.0,105.6,040191,,,A*68
$GPGGA,162230.000,2233.2004,N,11413.8115,E,1,06,1.8,57.3,M,14.2,M,,0000*6C
$GPVTG,105.6,T,,M,0.0,N,0.0,K,A*0F
$GPGLL,2233.2004,N,11413.8115,E,162230.00,A,A*60
$GPGSA,A,3,02,10,12,15,26,27,,,,,,,2.2,1.8,1.3*3C
$GPRMC,162231.000,A,2233.2004,N,11413.8115,E,0.0,105.6,040191,,,A*69
$GPGGA,162231.000,2233.2004,N,11413.8115,E,1,06,1.8,57.3,M,14.2,M,,0000*6D
$GPVTG,105.6,T,,M,0.0,N,0.0,K,A*0F
$GPGLL,2233.2004,N,11413.8115,E,162231.00,A,A*61
$GPGSA,A,3,02,10,12,15,26,27,,,,,,,2.2,1.8,1.3*3C
$GPGSV,3,1,11,10,26,043,19,02,52,079,13,27,05,179,36,12,09,225,27*78
$GPGSV,3,2,11,26,73,168,38,15,49,206,41,05,51,358,,29,31,311,*71
$GPGSV,3,3,11,04,19,107,,08,13,082,,30,05,256,*44
$GPRMC,162232.000,A,2233.2004,N,11413.8115,E,0.0,105.6,040191,,,A*6A
$GPGGA,162232.000,2233.2004,N,11413.8115,E,1,06,1.8,57.3,M,14.2,M,,0000*6E
$GPVTG,105.6,T,,M,0.0,N,0.0,K,A*0F
$GPGLL,2233.2004,N,11413.8115,E,162232.00,A,A*62
$GPGSA,A,3,02,10,12,15,26,27,,,,,,,2.2,1.8,1.3*3C
$GPRMC,162233.000,A,2233.2004,N,11413.8115,E,0.0,105.6,040191,,,A*6B
$GPGGA,162233.000,2233.2004,N,11413.8115,E,1,06,1.8,57.3,M,14.2,M,,0000*6F
$GPVTG,105.6,T,,M,0.0,N,0.0,K,A*0F
$GPGLL,2233.2004,N,11413.8115,E,162233.00,A,A*63
$GPGSA,A,3,02,10,12,15,26,27,,,,,,,2.2,1.8,1.3*3C
$GPRMC,162234.000,A,2233.2004,N,11413.8115,E,0.0,105.6,040191,,,A*6C
$GPGGA,162234.000,2233.2004,N,11413.8115,E,1,06,1.8,57.3,M,14.2,M,,0000*68
$GPVTG,105.6,T,,M,0.0,N,0.0,K,A*0F
$GPGLL,2233.2004,N,11413.8115,E,162234.00,A,A*64
$GPGSA,A,3,02,10,12,15,26,27,,,,,,,2.2,1.8,1.3*3C
$GPRMC,162235.000,A,2233.2004,N,11413.8115,E,0.0,105.6,040191,,,A*6D
$GPGGA,162235.000,2233.2004,N,11413.8115,E,1,06,1.8,57.3,M,14.2,M,,0000*69
$GPVTG,105.6,T,,M,0.0,N,0.0,K,A*0F
$GPGLL,2233.2004,N,11413.8115,E,162235.00,A,A*65
$GPGSA,A,3,02,10,12,15,26,27,,,,,,,2.2,1.8,1.3*3C
$GPRMC,162236.000,A,2233.2004,N,11413.8115,E,0.0,105.6,040191,,,A*6E
$GPGGA,162236.000,2233.2004,N,11413.8115,E,1,07,1.4,57.3,M,14.2,M,,0000*67
$GPVTG,105.6,T,,M,0.0,N,0.0,K,A*0F
$GPGLL,2233.2004,N,11413.8115,E,162236.00,A,A*66
$GPGSA,A,3,02,05,10,12,15,26,27,,,,,,1.9,1.4,1.3*3D
$GPGSV,3,1,11,10,26,043,17,05,51,358,13,02,52,079,12,27,05,179,36*70
$GPGSV,3,2,11,12,09,225,27,26,73,168,37,15,49,206,41,29,31,311,25*7C
$GPGSV,3,3,11,04,19,107,,08,13,082,,30,05,256,*44
$GPRMC,162237.000,A,2233.2004,N,11413.8115,E,0.0,105.6,040191,,,A*6F
$GPGGA,162237.000,2233.2004,N,11413.8115,E,1,07,1.4,57.3,M,14.2,M,,0000*66
$GPVTG,105.6,T,,M,0.0,N,0.0,K,A*0F
$GPGLL,2233.2004,N,11413.8115,E,162237.00,A,A*67
$GPGSA,A,3,02,05,10,12,15,26,27,,,,,,1.9,1.4,1.3*3D
$GPRMC,162238.000,A,2233.2004,N,11413.8115,E,0.0,105.6,040191,,,A*60
$GPGGA,162238.000,2233.2004,N,11413.8115,E,1,07,1.4,57.3,M,14.2,M,,0000*69
$GPVTG,105.6,T,,M,0.0,N,0.0,K,A*0F
$GPGLL,2233.2004,N,11413.8115,E,162238.00,A,A*68
$GPGSA,A,3,02,05,10,12,15,26,27,,,,,,1.9,1.4,1.3*3D
$GPRMC,162239.000,A,2233.2004,N,11413.8115,E,0.0,105.6,040191,,,A*61
$GPGGA,162239.000,2233.2004,N,11413.8115,E,1,07,1.4,57.3,M,14.2,M,,0000*68
$GPVTG,105.6,T,,M,0.0,N,0.0,K,A*0F
$GPGLL,2233.2004,N,11413.8115,E,162239.00,A,A*69
$GPGSA,A,3,02,05,10,12,15,26,27,,,,,,1.9,1.4,1.3*3D
$GPRMC,162240.000,A,2233.2004,N,11413.8115,E,0.0,105.6,040191,,,A*6F
$GPGGA,162240.000,2233.2004,N,11413.8115,E,1,07,1.4,57.3,M,14.2,M,,0000*66
$GPVTG,105.6,T,,M,0.0,N,0.0,K,A*0F
$GPGLL,2233.2004,N,11413.8115,E,162240.00,A,A*67
$GPGSA,A,3,02,05,10,12,15,26,27,,,,,,1.9,1.4,1.3*3D
$GPRMC,162241.000,A,2233.2004,N,11413.8115,E,0.0,105.6,040191,,,A*6E
$GPGGA,162241.000,2233.2004,N,11413.8115,E,1,06,1.6,57.3,M,14.2,M,,0000*64
$GPVTG,105.6,T,,M,0.0,N,0.0,K,A*0F
$GPGLL,2233.2004,N,11413.8115,E,162241.00,A,A*66
$GPGSA,A,3,05,10,12,15,26,27,,,,,,,2.1,1.6,1.3*36
$GPGSV,3,1,11,10,26,043,18,05,51,358,14,02,52,079,11,27,05,179,36*7B
$GPGSV,3,2,11,12,09,225,23,26,73,168,36,15,49,206,40,29,31,311,23*7E
$GPGSV,3,3,11,04,19,107,,08,13,081,,30,05,256,*47
$GPRMC,162242.000,A,2233.2004,N,11413.8115,E,0.0,105.6,040191,,,A*6D
$GPGGA,162242.000,2233.2004,N,11413.8115,E,1,06,1.6,57.3,M,14.2,M,,0000*67
$GPVTG,105.6,T,,M,0.0,N,0.0,K,A*0F
$GPGLL,2233.2004,N,11413.8115,E,162242.00,A,A*65
$GPGSA,A,3,05,10,12,15,26,27,,,,,,,2.1,1.6,1.3*36
$GPRMC,162243.000,A,2233.2004,N,11413.8115,E,0.0,105.6,040191,,,A*6C
$GPGGA,162243.000,2233.2004,N,11413.8115,E,1,06,1.6,57.3,M,14.2,M,,0000*66
$GPVTG,105.6,T,,M,0.0,N,0.0,K,A*0F
$GPGLL,2233.2004,N,11413.8115,E,162243.00,A,A*64
$GPGSA,A,3,05,10,12,15,26,27,,,,,,,2.1,1.6,1.3*36
$GPRMC,162244.000,A,2233.2004,N,11413.8115,E,0.0,105.6,040191,,,A*6B
$GPGGA,162244.000,2233.2004,N,11413.8115,E,1,06,1.6,57.3,M,14.2,M,,0000*61
$GPVTG,105.6,T,,M,0.0,N,0.0,K,A*0F
$GPGLL,2233.2004,N,11413.8115,E,162244.00,A,A*63
$GPGSA,A,3,05,10,12,15,26,27,,,,,,,2.1,1.6,1.3*36
$GPRMC,162245.000,A,2233.2004,N,11413.8115,E,0.0,105.6,040191,,,A*6A
$GPGGA,162245.000,2233.2004,N,11413.8115,E,1,06,1.6,57.3,M,14.2,M,,0000*60
$GPVTG,105.6,T,,M,0.0,N,0.0,K,A*0F
$GPGLL,2233.2004,N,11413.8115,E,162245.00,A,A*62
$GPGSA,A,3,05,10,12,15,26,27,,,,,,,2.1,1.6,1.3*36
$GPRMC,162246.000,A,2233.2004,N,11413.8115,E,0.0,105.6,040191,,,A*69
$GPGGA,162246.000,2233.2004,N,11413.8115,E,1,06,1.6,57.3,M,14.2,M,,0000*63
$GPVTG,105.6,T,,M,0.0,N,0.0,K,A*0F
$GPGLL,2233.2004,N,11413.8115,E,162246.00,A,A*61
$GPGSA,A,3,05,10,12,15,26,27,,,,,,,2.1,1.6,1.3*36
$GPGSV,3,1,11,10,26,043,15,05,51,358,13,27,05,179,35,12,09,225,21*75
$GPGSV,3,2,11,26,73,168,35,15,49,206,41,29,31,311,22,02,52,079,*78
$GPGSV,3,3,11,04,19,107,,08,13,081,,30,05,256,*47
$GPRMC,162247.000,A,2233.2004,N,11413.8115,E,0.0,105.6,040191,,,A*68
$GPGGA,162247.000,2233.2004,N,11413.8115,E,1,06,1.6,57.3,M,14.2,M,,0000*62
$GPVTG,105.6,T,,M,0.0,N,0.0,K,A*0F
$GPGLL,2233.2004,N,11413.8115,E,162247.00,A,A*60
$GPGSA,A,3,05,10,12,15,26,27,,,,,,,2.1,1.6,1.3*36
$GPRMC,162248.000,A,2233.2004,N,11413.8115,E,0.0,105.6,040191,,,A*67
$GPGGA,162248.000,2233.2004,N,11413.8115,E,1,06,1.5,57.3,M,14.2,M,,0000*6E
$GPVTG,105.6,T,,M,0.0,N,0.0,K,A*0F
$GPGLL,2233.2004,N,11413.8115,E,162248.00,A,A*6F
$GPGSA,A,2,05,10,12,15,26,27,,,,,,,1.7,1.5,0.8*3B
$GPRMC,162249.000,A,2233.2004,N,11413.8115,E,0.0,105.6,040191,,,A*66
$GPGGA,162249.000,2233.2004,N,11413.8115,E,1,06,1.6,57.3,M,14.2,M,,0000*6C
$GPVTG,105.6,T,,M,0.0,N,0.0,K,A*0F
$GPGLL,2233.2004,N,11413.8115,E,162249.00,A,A*6E
$GPGSA,A,3,05,10,12,15,26,27,,,,,,,2.1,1.6,1.3*36
$GPRMC,162250.000,A,2233.2004,N,11413.8115,E,0.0,105.6,040191,,,A*6E
$GPGGA,162250.000,2233.2004,N,11413.8115,E,1,06,1.6,57.3,M,14.2,M,,0000*64
$GPVTG,105.6,T,,M,0.0,N,0.0,K,A*0F
$GPGLL,2233.2004,N,11413.8115,E,162250.00,A,A*66
$GPGSA,A,3,05,10,12,15,26,27,,,,,,,2.1,1.6,1.3*36
$GPRMC,162251.000,A,2233.2004,N,11413.8115,E,0.0,105.6,040191,,,A*6F
$GPGGA,162251.000,2233.2004,N,11413.8115,E,1,06,1.6,57.3,M,14.2,M,,0000*65
$GPVTG,105.6,T,,M,0.0,N,0.0,K,A*0F
$GPGLL,2233.2004,N,11413.8115,E,162251.00,A,A*67
$GPGSA,A,3,05,10,12,15,26,27,,,,,,,2.1,1.6,1.3*36
$GPGSV,3,1,11,10,26,043,12,05,51,359,12,27,05,179,35,12,09,225,18*78
$GPGSV,3,2,11,26,73,168,36,15,49,206,41,29,31,311,23,02,52,079,*7A
$GPGSV,3,3,11,04,19,107,,08,13,081,,30,05,256,*47
$GPRMC,162252.000,A,2233.2004,N,11413.8115,E,0.0,105.6,040191,,,A*6C
$GPGGA,162252.000,2233.2004,N,11413.8115,E,1,06,1.6,57.3,M,14.2,M,,0000*66
$GPVTG,105.6,T,,M,0.0,N,0.0,K,A*0F
$GPGLL,2233.2004,N,11413.8115,E,162252.00,A,A*64
$GPGSA,A,3,05,10,12,15,26,27,,,,,,,2.1,1.6,1.3*36
$GPRMC,162253.000,A,2233.2004,N,11413.8115,E,0.0,105.6,040191,,,A*6D
$GPGGA,162253.000,2233.2004,N,11413.8115,E,1,06,1.6,57.3,M,14.2,M,,0000*67
$GPVTG,105.6,T,,M,0.0,N,0.0,K,A*0F
$GPGLL,2233.2004,N,11413.8115,E,162253.00,A,A*65
$GPGSA,A,3,05,10,12,15,26,27,,,,,,,2.1,1.6,1.3*36
$GPRMC,162254.000,A,2233.2004,N,11413.8115,E,0.0,105.6,040191,,,A*6A
$GPGGA,162254.000,2233.2004,N,11413.8115,E,1,06,1.6,57.3,M,14.2,M,,0000*60
$GPVTG,105.6,T,,M,0.0,N,0.0,K,A*0F
$GPGLL,2233.2004,N,11413.8115,E,162254.00,A,A*62
$GPGSA,A,3,05,10,12,15,26,27,,,,,,,2.1,1.6,1.3*36
$GPRMC,162255.000,A,2233.2004,N,11413.8115,E,0.0,105.6,040191,,,A*6B
$GPGGA,162255.000,2233.2004,N,11413.8115,E,1,05,1.9,57.3,M,14.2,M,,0000*6D
$GPVTG,105.6,T,,M,0.0,N,0.0,K,A*0F
$GPGLL,2233.2004,N,11413.8115,E,162255.00,A,A*63
$GPGSA,A,3,10,12,15,26,27,,,,,,,,2.4,1.9,1.4*3E
$GPRMC,162256.000,A,2233.2004,N,11413.8115,E,0.0,105.6,040191,,,A*68
$GPGGA,162256.000,2233.2004,N,11413.8115,E,1,04,5.5,57.3,M,14.2,M,,0000*67
$GPVTG,105.6,T,,M,0.0,N,0.0,K,A*0F
$GPGLL,2233.2004,N,11413.8115,E,162256.00,A,A*60
$GPGSA,A,3,10,15,26,27,,,,,,,,,6.1,5.5,2.7*34
$GPGSV,3,1,11,10,26,043,12,05,51,359,11,27,05,179,35,12,09,225,16*75
$GPGSV,3,2,11,26,73,168,37,15,49,206,41,29,31,311,22,02,52,079,*7A
$GPGSV,3,3,11,04,19,107,,08,13,081,,30,05,256,*47
$GPRMC,162257.000,A,2233.2004,N,11413.8115,E,0.0,105.6,040191,,,A*69
$GPGGA,162257.000,2233.2004,N,11413.8115,E,1,04,5.5,57.3,M,14.2,M,,0000*66
$GPVTG,105.6,T,,M,0.0,N,0.0,K,A*0F
$GPGLL,2233.2004,N,11413.8115,E,162257.00,A,A*61
$GPGSA,A,3,10,15,26,27,,,,,,,,,6.1,5.5,2.7*34
$GPRMC,162258.000,A,2233.2004,N,11413.8115,E,0.0,105.6,040191,,,A*66
$GPGGA,162258.000,2233.2004,N,11413.8115,E,1,05,1.9,57.3,M,14.2,M,,0000*60
$GPVTG,105.6,T,,M,0.0,N,0.0,K,A*0F
$GPGLL,2233.2004,N,11413.8115,E,162258.00,A,A*6E
$GPGSA,A,3,10,12,15,26,27,,,,,,,,2.4,1.9,1.4*3E
$GPRMC,162259.000,A,2233.2004,N,11413.8115,E,0.0,105.6,040191,,,A*67
$GPGGA,162259.000,2233.2004,N,11413.8115,E,1,04,5.5,57.3,M,14.2,M,,0000*68
$GPVTG,105.6,T,,M,0.0,N,0.0,K,A*0F
$GPGLL,2233.2004,N,11413.8115,E,162259.00,A,A*6F
$GPGSA,A,3,10,15,26,27,,,,,,,,,6.1,5.5,2.7*34
$GPRMC,162300.000,A,2233.2004,N,11413.8115,E,0.0,105.6,040191,,,A*6A
$GPGGA,162300.000,2233.2004,N,11413.8115,E,1,04,5.5,57.3,M,14.2,M,,0000*65
$GPVTG,105.6,T,,M,0.0,N,0.0,K,A*0F
$GPGLL,2233.2004,N,11413.8115,E,162300.00,A,A*62
$GPGSA,A,3,10,15,26,27,,,,,,,,,6.1,5.5,2.7*34
$GPRMC,162301.000,A,2233.2004,N,11413.8115,E,0.0,105.6,040191,,,A*6B
$GPGGA,162301.000,2233.2004,N,11413.8115,E,1,06,1.4,57.3,M,14.2,M,,0000*63
$GPVTG,105.6,T,,M,0.0,N,0.0,K,A*0F
$GPGLL,2233.2004,N,11413.8115,E,162301.00,A,A*63
$GPGSA,A,3,04,10,12,15,26,27,,,,,,,1.9,1.4,1.3*3E
$GPGSV,3,1,11,10,26,043,12,04,19,107,11,27,05,179,35,12,09,225,23*77
$GPGSV,3,2,11,26,73,168,37,15,49,206,41,29,31,311,20,02,52,079,*78
$GPGSV,3,3,11,05,51,359,,08,13,081,,30,05,255,*40
$GPRMC,162302.000,A,2233.2004,N,11413.8115,E,0.0,105.6,040191,,,A*68
$GPGGA,162302.000,2233.2004,N,11413.8115,E,1,06,1.4,57.3,M,14.2,M,,0000*60
$GPVTG,105.6,T,,M,0.0,N,0.0,K,A*0F
$GPGLL,2233.2004,N,11413.8115,E,162302.00,A,A*60
$GPGSA,A,3,04,10,12,15,26,27,,,,,,,1.9,1.4,1.3*3E
$GPRMC,162303.000,A,2233.2004,N,11413.8115,E,0.0,105.6,040191,,,A*69
$GPGGA,162303.000,2233.2004,N,11413.8115,E,1,06,1.4,57.3,M,14.2,M,,0000*61
$GPVTG,105.6,T,,M,0.0,N,0.0,K,A*0F
$GPGLL,2233.2004,N,11413.8115,E,162303.00,A,A*61
$GPGSA,A,3,04,10,12,15,26,27,,,,,,,1.9,1.4,1.3*3E
$GPRMC,162304.000,A,2233.2004,N,11413.8115,E,0.0,105.6,040191,,,A*6E
$GPGGA,162304.000,2233.2004,N,11413.8115,E,1,06,1.4,57.3,M,14.2,M,,0000*66
$GPVTG,105.6,T,,M,0.0,N,0.0,K,A*0F
$GPGLL,2233.2004,N,11413.8115,E,162304.00,A,A*66
$GPGSA,A,3,04,10,12,15,26,27,,,,,,,1.9,1.4,1.3*3E
$GPRMC,162305.000,A,2233.2004,N,11413.8115,E,0.0,105.6,040191,,,A*6F
$GPGGA,162305.000,2233.2004,N,11413.8115,E,1,06,1.4,57.3,M,14.2,M,,0000*67
$GPVTG,105.6,T,,M,0.0,N,0.0,K,A*0F
$GPGLL,2233.2004,N,11413.8115,E,162305.00,A,A*67
$GPGSA,A,3,04,10,12,15,26,27,,,,,,,1.9,1.4,1.3*3E
$GPRMC,162306.000,A,2233.2004,N,11413.8115,E,0.0,105.6,040191,,,A*6C
$GPGGA,162306.000,2233.2004,N,11413.8115,E,1,06,1.4,57.3,M,14.2,M,,0000*64
$GPVTG,105.6,T,,M,0.0,N,0.0,K,A*0F
$GPGLL,2233.2004,N,11413.8115,E,162306.00,A,A*64
$GPGSA,A,3,04,10,12,15,26,27,,,,,,,1.9,1.4,1.3*3E
$GPGSV,3,1,11,10,26,043,13,02,52,079,13,04,19,107,11,27,05,179,36*72
$GPGSV,3,2,11,12,09,225,22,26,73,168,36,15,49,206,41,29,31,311,22*7F
$GPGSV,3,3,11,05,51,359,,08,13,081,,30,05,255,*40
$GPRMC,162307.000,A,2233.2004,N,11413.8115,E,0.0,105.6,040191,,,A*6D
$GPGGA,162307.000,2233.2004,N,11413.8115,E,1,06,1.8,57.3,M,14.2,M,,0000*69
$GPVTG,105.6,T,,M,0.0,N,0.0,K,A*0F
$GPGLL,2233.2004,N,11413.8115,E,162307.00,A,A*65
$GPGSA,A,3,02,10,12,15,26,27,,,,,,,2.2,1.8,1.3*3C
$GPRMC,162308.000,A,2233.2004,N,11413.8115,E,0.0,105.6,040191,,,A*62
$GPGGA,162308.000,2233.2004,N,11413.8115,E,1,06,1.8,57.3,M,14.2,M,,0000*66
$GPVTG,105.6,T,,M,0.0,N,0.0,K,A*0F
$GPGLL,2233.2004,N,11413.8115,E,162308.00,A,A*6A
$GPGSA,A,3,02,10,12,15,26,27,,,,,,,2.2,1.8,1.3*3C
$GPRMC,162309.000,A,2233.2004,N,11413.8115,E,0.0,105.6,040191,,,A*63
$GPGGA,162309.000,2233.2004,N,11413.8115,E,1,06,1.8,57.3,M,14.2,M,,0000*67
$GPVTG,105.6,T,,M,0.0,N,0.0,K,A*0F
$GPGLL,2233.2004,N,11413.8115,E,162309.00,A,A*6B
$GPGSA,A,3,02,10,12,15,26,27,,,,,,,2.2,1.8,1.3*3C
$GPRMC,162310.000,A,2233.2004,N,11413.8115,E,0.0,105.6,040191,,,A*6B
$GPGGA,162310.000,2233.2004,N,11413.8115,E,1,06,1.8,57.3,M,14.2,M,,0000*6F
$GPVTG,105.6,T,,M,0.0,N,0.0,K,A*0F
$GPGLL,2233.2004,N,11413.8115,E,162310.00,A,A*63
$GPGSA,A,3,02,10,12,15,26,27,,,,,,,2.2,1.8,1.3*3C
$GPRMC,162311.000,A,2233.2004,N,11413.8115,E,0.0,105.6,040191,,,A*6A
$GPGGA,162311.000,2233.2004,N,11413.8115,E,1,06,1.8,57.3,M,14.2,M,,0000*6E
$GPVTG,105.6,T,,M,0.0,N,0.0,K,A*0F
$GPGLL,2233.2004,N,11413.8115,E,162311.00,A,A*62
$GPGSA,A,3,02,10,12,15,26,27,,,,,,,2.2,1.8,1.3*3C
$GPGSV,3,1,11,10,26,043,14,02,52,079,13,27,05,179,36,12,08,225,22*71
$GPGSV,3,2,11,26,73,168,36,15,49,206,41,29,31,311,,05,51,359,*7E
$GPGSV,3,3,11,04,19,107,,08,13,081,,30,05,255,*44
$GPRMC,162312.000,A,2233.2004,N,11413.8115,E,0.0,105.6,040191,,,A*69
$GPGGA,162312.000,2233.2004,N,11413.8115,E,1,06,1.8,57.3,M,14.2,M,,0000*6D
$GPVTG,105.6,T,,M,0.0,N,0.0,K,A*0F
$GPGLL,2233.2004,N,11413.8115,E,162312.00,A,A*61
$GPGSA,A,3,02,10,12,15,26,27,,,,,,,2.2,1.8,1.3*3C
$GPRMC,162313.000,A,2233.2004,N,11413.8115,E,0.0,105.6,040191,,,A*68
$GPGGA,162313.000,2233.2004,N,11413.8115,E,1,06,1.8,57.3,M,14.2,M,,0000*6C
$GPVTG,105.6,T,,M,0.0,N,0.0,K,A*0F
$GPGLL,2233.2004,N,11413.8115,E,162313.00,A,A*60
$GPGSA,A,3,02,10,12,15,26,27,,,,,,,2.2,1.8,1.3*3C
$GPRMC,162314.000,A,2233.2004,N,11413.8115,E,0.0,105.6,040191,,,A*6F
$GPGGA,162314.000,2233.2004,N,11413.8115,E,1,06,1.8,57.3,M,14.2,M,,0000*6B
$GPVTG,105.6,T,,M,0.0,N,0.0,K,A*0F
$GPGLL,2233.2004,N,11413.8115,E,162314.00,A,A*67
$GPGSA,A,3,02,10,12,15,26,27,,,,,,,2.2,1.8,1.3*3C
$GPRMC,162315.000,A,2233.2004,N,11413.8115,E,0.0,105.6,040191,,,A*6E
$GPGGA,162315.000,2233.2004,N,11413.8115,E,1,06,1.8,57.3,M,14.2,M,,0000*6A
$GPVTG,105.6,T,,M,0.0,N,0.0,K,A*0F
$GPGLL,2233.2004,N,11413.8115,E,162315.00,A,A*66
$GPGSA,A,3,02,10,12,15,26,27,,,,,,,2.2,1.8,1.3*3C
$GPRMC,162316.000,A,2233.2014,N,11413.8107,E,2.1,105.6,040191,,,A*6C
$GPGGA,162316.000,2233.2014,N,11413.8107,E,1,06,1.8,55.6,M,14.2,M,,0000*6C
$GPVTG,105.6,T,,M,2.1,N,3.9,K,A*06
$GPGLL,2233.2014,N,11413.8107,E,162316.00,A,A*67
$GPGSA,A,3,02,10,12,15,26,27,,,,,,,2.2,1.8,1.3*3C
$GPGSV,3,1,11,10,26,043,15,05,51,359,16,02,52,079,13,27,05,179,36*77
$GPGSV,3,2,11,12,08,225,23,26,73,168,37,15,49,206,42,29,31,311,*7D
$GPGSV,3,3,11,04,19,107,,08,13,081,,30,05,255,*44
$GPRMC,162317.000,A,2233.2014,N,11413.8107,E,0.0,105.6,040191,,,A*6E
$GPGGA,162317.000,2233.2014,N,11413.8107,E,1,07,1.4,55.6,M,14.2,M,,0000*60
$GPVTG,105.6,T,,M,0.0,N,0.0,K,A*0F
$GPGLL,2233.2014,N,11413.8107,E,162317.00,A,A*66
$GPGSA,A,3,02,05,10,12,15,26,27,,,,,,1.9,1.4,1.3*3D
$GPRMC,162318.000,A,2233.2026,N,11413.8099,E,2.1,105.6,040191,,,A*65
$GPGGA,162318.000,2233.2026,N,11413.8099,E,1,07,1.4,53.8,M,14.2,M,,0000*60
$GPVTG,105.6,T,,M,2.1,N,3.8,K,A*07
$GPGLL,2233.2026,N,11413.8099,E,162318.00,A,A*6E
$GPGSA,A,3,02,05,10,12,15,26,27,,,,,,1.9,1.4,1.3*3D
$GPRMC,162319.000,A,2233.2026,N,11413.8099,E,0.0,105.6,040191,,,A*67
$GPGGA,162319.000,2233.2026,N,11413.8099,E,1,07,1.4,53.8,M,14.2,M,,0000*61
$GPVTG,105.6,T,,M,0.0,N,0.0,K,A*0F
$GPGLL,2233.2026,N,11413.8099,E,162319.00,A,A*6F
$GPGSA,A,3,02,05,10,12,15,26,27,,,,,,1.9,1.4,1.3*3D
$GPRMC,162320.000,A,2233.2038,N,11413.8090,E,2.0,105.6,040191,,,A*69
$GPGGA,162320.000,2233.2038,N,11413.8090,E,1,07,1.4,51.9,M,14.2,M,,0000*6E
$GPVTG,105.6,T,,M,2.0,N,3.7,K,A*09
$GPGLL,2233.2038,N,11413.8090,E,162320.00,A,A*63
$GPGSA,A,3,02,05,10,12,15,26,27,,,,,,1.9,1.4,1.3*3D
$GPRMC,162321.000,A,2233.2038,N,11413.8090,E,0.0,105.6,040191,,,A*6A
$GPGGA,162321.000,2233.2038,N,11413.8090,E,1,07,1.4,51.9,M,14.2,M,,0000*6F
$GPVTG,105.6,T,,M,0.0,N,0.0,K,A*0F
$GPGLL,2233.2038,N,11413.8090,E,162321.00,A,A*62
$GPGSA,A,3,02,05,10,12,15,26,27,,,,,,1.9,1.4,1.3*3D
$GPGSV,3,1,11,10,26,043,22,05,51,359,16,02,52,079,12,27,05,179,35*71
$GPGSV,3,2,11,12,08,225,22,26,73,168,37,15,49,206,41,29,31,311,*7F
$GPGSV,3,3,11,04,19,107,,08,13,081,,30,05,255,*44
$GPRMC,162322.000,A,2233.2038,N,11413.8090,E,0.0,105.6,040191,,,A*69
$GPGGA,162322.000,2233.2038,N,11413.8090,E,1,07,1.4,51.9,M,14.2,M,,0000*6C
$GPVTG,105.6,T,,M,0.0,N,0.0,K,A*0F
$GPGLL,2233.2038,N,11413.8090,E,162322.00,A,A*61
$GPGSA,A,3,02,05,10,12,15,26,27,,,,,,1.9,1.4,1.3*3D
$GPRMC,162323.000,A,2233.2038,N,11413.8090,E,0.0,105.6,040191,,,A*68
$GPGGA,162323.000,2233.2038,N,11413.8090,E,1,07,1.4,51.9,M,14.2,M,,0000*6D
$GPVTG,105.6,T,,M,0.0,N,0.0,K,A*0F
$GPGLL,2233.2038,N,11413.8090,E,162323.00,A,A*60
$GPGSA,A,3,02,05,10,12,15,26,27,,,,,,1.9,1.4,1.3*3D
$GPRMC,162324.000,A,2233.2038,N,11413.8090,E,0.0,105.6,040191,,,A*6F
$GPGGA,162324.000,2233.2038,N,11413.8090,E,1,07,1.4,51.9,M,14.2,M,,0000*6A
$GPVTG,105.6,T,,M,0.0,N,0.0,K,A*0F
$GPGLL,2233.2038,N,11413.8090,E,162324.00,A,A*67
$GPGSA,A,3,02,05,10,12,15,26,27,,,,,,1.9,1.4,1.3*3D
$GPRMC,162325.000,A,2233.2038,N,11413.8090,E,0.0,105.6,040191,,,A*6E
$GPGGA,162325.000,2233.2038,N,11413.8090,E,1,07,1.4,51.9,M,14.2,M,,0000*6B
$GPVTG,105.6,T,,M,0.0,N,0.0,K,A*0F
$GPGLL,2233.2038,N,11413.8090,E,162325.00,A,A*66
$GPGSA,A,3,02,05,10,12,15,26,27,,,,,,1.9,1.4,1.3*3D
$GPRMC,162326.000,A,2233.2038,N,11413.8090,E,0.0,105.6,040191,,,A*6D
$GPGGA,162326.000,2233.2038,N,11413.8090,E,1,07,1.4,51.9,M,14.2,M,,0000*68
$GPVTG,105.6,T,,M,0.0,N,0.0,K,A*0F
$GPGLL,2233.2038,N,11413.8090,E,162326.00,A,A*65
$GPGSA,A,3,02,05,10,12,15,26,27,,,,,,1.9,1.4,1.3*3D
$GPGSV,3,1,11,10,26,043,21,05,51,359,18,02,52,079,13,27,05,179,34*7C
$GPGSV,3,2,11,12,08,225,21,26,73,168,37,15,49,206,42,29,32,311,*7C
$GPGSV,3,3,11,04,19,108,,08,13,081,,30,05,255,*4B
$GPRMC,162327.000,A,2233.2038,N,11413.8090,E,0.0,105.6,040191,,,A*6C
$GPGGA,162327.000,2233.2038,N,11413.8090,E,1,07,1.4,51.9,M,14.2,M,,0000*69
$GPVTG,105.6,T,,M,0.0,N,0.0,K,A*0F
$GPGLL,2233.2038,N,11413.8090,E,162327.00,A,A*64
$GPGSA,A,3,02,05,10,12,15,26,27,,,,,,1.9,1.4,1.3*3D
$GPRMC,162328.000,A,2233.2038,N,11413.8090,E,0.0,105.6,040191,,,A*63
$GPGGA,162328.000,2233.2038,N,11413.8090,E,1,07,1.4,51.9,M,14.2,M,,0000*66
$GPVTG,105.6,T,,M,0.0,N,0.0,K,A*0F
$GPGLL,2233.2038,N,11413.8090,E,162328.00,A,A*6B
$GPGSA,A,3,02,05,10,12,15,26,27,,,,,,1.9,1.4,1.3*3D
$GPRMC,162329.000,A,2233.2038,N,11413.8090,E,0.0,105.6,040191,,,A*62
$GPGGA,162329.000,2233.2038,N,11413.8090,E,1,07,1.4,51.9,M,14.2,M,,0000*67
$GPVTG,105.6,T,,M,0.0,N,0.0,K,A*0F
$GPGLL,2233.2038,N,11413.8090,E,162329.00,A,A*6A
$GPGSA,A,3,02,05,10,12,15,26,27,,,,,,1.9,1.4,1.3*3D
$GPRMC,162330.000,A,2233.2038,N,11413.8090,E,0.0,105.6,040191,,,A*6A
$GPGGA,162330.000,2233.2038,N,11413.8090,E,1,07,1.4,51.9,M,14.2,M,,0000*6F
$GPVTG,105.6,T,,M,0.0,N,0.0,K,A*0F
$GPGLL,2233.2038,N,11413.8090,E,162330.00,A,A*62
$GPGSA,A,3,02,05,10,12,15,26,27,,,,,,1.9,1.4,1.3*3D
$GPRMC,162331.000,A,2233.2038,N,11413.8090,E,0.0,105.6,040191,,,A*6B
$GPGGA,162331.000,2233.2038,N,11413.8090,E,1,07,1.4,51.9,M,14.2,M,,0000*6E
$GPVTG,105.6,T,,M,0.0,N,0.0,K,A*0F
$GPGLL,2233.2038,N,11413.8090,E,162331.00,A,A*63
$GPGSA,A,3,02,05,10,12,15,26,27,,,,,,1.9,1.4,1.3*3D
$GPGSV,3,1,11,10,26,043,21,05,51,359,20,02,52,080,12,27,05,179,35*71
$GPGSV,3,2,11,12,08,225,21,26,73,168,38,15,49,206,42,29,32,311,*73
$GPGSV,3,3,11,04,19,108,,08,13,081,,30,05,255,*4B
$GPRMC,162332.000,A,2233.2038,N,11413.8090,E,0.0,105.6,040191,,,A*68
$GPGGA,162332.000,2233.2038,N,11413.8090,E,1,07,1.4,51.9,M,14.2,M,,0000*6D
$GPVTG,105.6,T,,M,0.0,N,0.0,K,A*0F
$GPGLL,2233.2038,N,11413.8090,E,162332.00,A,A*60
$GPGSA,A,3,02,05,10,12,15,26,27,,,,,,1.9,1.4,1.3*3D
$GPRMC,162333.000,A,2233.2038,N,11413.8090,E,0.0,105.6,040191,,,A*69
$GPGGA,162333.000,2233.2038,N,11413.8090,E,1,07,1.4,51.9,M,14.2,M,,0000*6C
$GPVTG,105.6,T,,M,0.0,N,0.0,K,A*0F
$GPGLL,2233.2038,N,11413.8090,E,162333.00,A,A*61
$GPGSA,A,3,02,05,10,12,15,26,27,,,,,,1.9,1.4,1.3*3D
$GPRMC,162334.000,A,2233.2038,N,11413.8090,E,0.0,105.6,040191,,,A*6E
$GPGGA,162334.000,2233.2038,N,11413.8090,E,1,07,1.4,51.9,M,14.2,M,,0000*6B
$GPVTG,105.6,T,,M,0.0,N,0.0,K,A*0F
$GPGLL,2233.2038,N,11413.8090,E,162334.00,A,A*66
$GPGSA,A,3,02,05,10,12,15,26,27,,,,,,1.9,1.4,1.3*3D
$GPRMC,162335.000,A,2233.2038,N,11413.8090,E,0.0,105.6,040191,,,A*6F
$GPGGA,162335.000,2233.2038,N,11413.8090,E,1,06,1.6,51.9,M,14.2,M,,0000*69
$GPVTG,105.6,T,,M,0.0,N,0.0,K,A*0F
$GPGLL,2233.2038,N,11413.8090,E,162335.00,A,A*67
$GPGSA,A,3,05,10,12,15,26,27,,,,,,,2.1,1.6,1.3*36
$GPRMC,162336.000,A,2233.2038,N,11413.8090,E,0.0,105.6,040191,,,A*6C
$GPGGA,162336.000,2233.2038,N,11413.8090,E,1,06,1.6,51.9,M,14.2,M,,0000*6A
$GPVTG,105.6,T,,M,0.0,N,0.0,K,A*0F
$GPGLL,2233.2038,N,11413.8090,E,162336.00,A,A*64
$GPGSA,A,3,05,10,12,15,26,27,,,,,,,2.1,1.6,1.3*36
$GPGSV,3,1,11,10,26,043,21,05,51,359,21,27,05,179,36,12,08,225,24*75
$GPGSV,3,2,11,26,73,168,38,15,50,206,42,29,32,311,23,02,52,080,*7A
$GPGSV,3,3,11,04,19,108,,08,13,081,,30,05,255,*4B
$GPRMC,162337.000,A,2233.2038,N,11413.8090,E,0.0,105.6,040191,,,A*6D
$GPGGA,162337.000,2233.2038,N,11413.8090,E,1,06,1.6,51.9,M,14.2,M,,0000*6B
$GPVTG,105.6,T,,M,0.0,N,0.0,K,A*0F
$GPGLL,2233.2038,N,11413.8090,E,162337.00,A,A*65
$GPGSA,A,3,05,10,12,15,26,27,,,,,,,2.1,1.6,1.3*36
$GPRMC,162338.000,A,2233.2038,N,11413.8090,E,0.0,105.6,040191,,,A*62
$GPGGA,162338.000,2233.2038,N,11413.8090,E,1,06,1.6,51.9,M,14.2,M,,0000*64
$GPVTG,105.6,T,,M,0.0,N,0.0,K,A*0F
$GPGLL,2233.2038,N,11413.8090,E,162338.00,A,A*6A
$GPGSA,A,3,05,10,12,15,26,27,,,,,,,2.1,1.6,1.3*36
$GPRMC,162339.000,A,2233.2038,N,11413.8090,E,0.0,105.6,040191,,,A*63
$GPGGA,162339.000,2233.2038,N,11413.8090,E,1,06,1.6,51.9,M,14.2,M,,0000*65
$GPVTG,105.6,T,,M,0.0,N,0.0,K,A*0F
$GPGLL,2233.2038,N,11413.8090,E,162339.00,A,A*6B
$GPGSA,A,3,05,10,12,15,26,27,,,,,,,2.1,1.6,1.3*36
$GPRMC,162340.000,A,2233.2038,N,11413.8090,E,0.0,105.6,040191,,,A*6D
$GPGGA,162340.000,2233.2038,N,11413.8090,E,1,06,1.6,51.9,M,14.2,M,,0000*6B
$GPVTG,105.6,T,,M,0.0,N,0.0,K,A*0F
$GPGLL,2233.2038,N,11413.8090,E,162340.00,A,A*65
$GPGSA,A,3,05,10,12,15,26,27,,,,,,,2.1,1.6,1.3*36
$GPRMC,162341.000,A,2233.2038,N,11413.8090,E,0.0,105.6,040191,,,A*6C
$GPGGA,162341.000,2233.2038,N,11413.8090,E,1,06,1.6,51.9,M,14.2,M,,0000*6A
$GPVTG,105.6,T,,M,0.0,N,0.0,K,A*0F
$GPGLL,2233.2038,N,11413.8090,E,162341.00,A,A*64
$GPGSA,A,3,05,10,12,15,26,27,,,,,,,2.1,1.6,1.3*36
$GPGSV,3,1,11,10,26,043,21,05,51,359,21,27,05,179,37,12,08,225,23*73
$GPGSV,3,2,11,26,73,168,37,15,50,206,43,29,32,311,22,02,52,080,*75
$GPGSV,3,3,11,04,19,108,,08,13,081,,30,05,255,*4B
$GPRMC,162342.000,A,2233.2038,N,11413.8090,E,0.0,105.6,040191,,,A*6F
$GPGGA,162342.000,2233.2038,N,11413.8090,E,1,06,1.6,51.9,M,14.2,M,,0000*69
$GPVTG,105.6,T,,M,0.0,N,0.0,K,A*0F
$GPGLL,2233.2038,N,11413.8090,E,162342.00,A,A*67
$GPGSA,A,3,05,10,12,15,26,27,,,,,,,2.1,1.6,1.3*36
$GPRMC,162343.000,A,2233.2038,N,11413.8090,E,0.0,105.6,040191,,,A*6E
$GPGGA,162343.000,2233.2038,N,11413.8090,E,1,06,1.6,51.9,M,14.2,M,,0000*68
$GPVTG,105.6,T,,M,0.0,N,0.0,K,A*0F
$GPGLL,2233.2038,N,11413.8090,E,162343.00,A,A*66
$GPGSA,A,3,05,10,12,15,26,27,,,,,,,2.1,1.6,1.3*36
$GPRMC,162344.000,A,2233.2038,N,11413.8090,E,0.0,105.6,040191,,,A*69
$GPGGA,162344.000,2233.2038,N,11413.8090,E,1,06,1.6,51.9,M,14.2,M,,0000*6F
$GPVTG,105.6,T,,M,0.0,N,0.0,K,A*0F
$GPGLL,2233.2038,N,11413.8090,E,162344.00,A,A*61
$GPGSA,A,3,05,10,12,15,26,27,,,,,,,2.1,1.6,1.3*36
$GPRMC,162345.000,A,2233.2038,N,11413.8090,E,0.0,105.6,040191,,,A*68
$GPGGA,162345.000,2233.2038,N,11413.8090,E,1,06,1.6,51.9,M,14.2,M,,0000*6E
$GPVTG,105.6,T,,M,0.0,N,0.0,K,A*0F
$GPGLL,2233.2038,N,11413.8090,E,162345.00,A,A*60
$GPGSA,A,3,05,10,12,15,26,27,,,,,,,2.1,1.6,1.3*36
$GPRMC,162346.000,A,2233.2038,N,11413.8090,E,0.0,105.6,040191,,,A*6B
$GPGGA,162346.000,2233.2038,N,11413.8090,E,1,06,1.6,51.9,M,14.2,M,,0000*6D
$GPVTG,105.6,T,,M,0.0,N,0.0,K,A*0F
$GPGLL,2233.2038,N,11413.8090,E,162346.00,A,A*63
$GPGSA,A,3,05,10,12,15,26,27,,,,,,,2.1,1.6,1.3*36
$GPGSV,3,1,11,10,26,043,21,05,51,359,20,27,05,179,36,12,08,225,24*74
$GPGSV,3,2,11,26,73,167,37,15,50,206,42,29,32,310,20,02,52,080,*78
$GPGSV,3,3,11,04,19,108,,08,13,081,,30,05,255,*4B
$GPRMC,162347.000,A,2233.2038,N,11413.8090,E,0.0,105.6,040191,,,A*6A
$GPGGA,162347.000,2233.2038,N,11413.8090,E,1,06,1.6,51.9,M,14.2,M,,0000*6C
$GPVTG,105.6,T,,M,0.0,N,0.0,K,A*0F
$GPGLL,2233.2038,N,11413.8090,E,162347.00,A,A*62
$GPGSA,A,3,05,10,12,15,26,27,,,,,,,2.1,1.6,1.3*36
$GPRMC,162348.000,A,2233.2038,N,11413.8090,E,0.0,105.6,040191,,,A*65
$GPGGA,162348.000,2233.2038,N,11413.8090,E,1,06,1.6,51.9,M,14.2,M,,0000*63
$GPVTG,105.6,T,,M,0.0,N,0.0,K,A*0F
$GPGLL,2233.2038,N,11413.8090,E,162348.00,A,A*6D
$GPGSA,A,3,05,10,12,15,26,27,,,,,,,2.1,1.6,1.3*36
$GPRMC,162349.000,A,2233.2038,N,11413.8090,E,0.0,105.6,040191,,,A*64
$GPGGA,162349.000,2233.2038,N,11413.8090,E,1,06,1.6,51.9,M,14.2,M,,0000*62
$GPVTG,105.6,T,,M,0.0,N,0.0,K,A*0F
$GPGLL,2233.2038,N,11413.8090,E,162349.00,A,A*6C
$GPGSA,A,3,05,10,12,15,26,27,,,,,,,2.1,1.6,1.3*36
$GPRMC,162350.000,A,2233.2038,N,11413.8090,E,0.0,105.6,040191,,,A*6C
$GPGGA,162350.000,2233.2038,N,11413.8090,E,1,06,1.6,51.9,M,14.2,M,,0000*6A
$GPVTG,105.6,T,,M,0.0,N,0.0,K,A*0F
$GPGLL,2233.2038,N,11413.8090,E,162350.00,A,A*64
$GPGSA,A,3,05,10,12,15,26,27,,,,,,,2.1,1.6,1.3*36
$GPRMC,162351.000,A,2233.2038,N,11413.8090,E,0.0,105.6,040191,,,A*6D
$GPGGA,162351.000,2233.2038,N,11413.8090,E,1,06,1.6,51.9,M,14.2,M,,0000*6B
$GPVTG,105.6,T,,M,0.0,N,0.0,K,A*0F
$GPGLL,2233.2038,N,11413.8090,E,162351.00,A,A*65
$GPGSA,A,3,05,10,12,15,26,27,,,,,,,2.1,1.6,1.3*36
$GPGSV,3,1,11,10,26,043,18,05,51,359,18,27,05,179,36,12,08,224,25*75
$GPGSV,3,2,11,26,73,167,36,15,50,206,42,29,32,310,20,02,52,080,*79
$GPGSV,3,3,11,04,19,108,,08,13,081,,30,05,255,*4B
$GPRMC,162352.000,A,2233.2038,N,11413.8090,E,0.0,105.6,040191,,,A*6E
$GPGGA,162352.000,2233.2038,N,11413.8090,E,1,06,1.6,51.9,M,14.2,M,,0000*68
$GPVTG,105.6,T,,M,0.0,N,0.0,K,A*0F
$GPGLL,2233.2038,N,11413.8090,E,162352.00,A,A*66
$GPGSA,A,3,05,10,12,15,26,27,,,,,,,2.1,1.6,1.3*36
$GPRMC,162353.000,A,2233.2038,N,11413.8090,E,0.0,105.6,040191,,,A*6F
$GPGGA,162353.000,2233.2038,N,11413.8090,E,1,06,1.6,51.9,M,14.2,M,,0000*69
$GPVTG,105.6,T,,M,0.0,N,0.0,K,A*0F
$GPGLL,2233.2038,N,11413.8090,E,162353.00,A,A*67
$GPGSA,A,3,05,10,12,15,26,27,,,,,,,2.1,1.6,1.3*36
$GPRMC,162354.000,A,2233.2038,N,11413.8090,E,0.0,105.6,040191,,,A*68
$GPGGA,162354.000,2233.2038,N,11413.8090,E,1,06,1.6,51.9,M,14.2,M,,0000*6E
$GPVTG,105.6,T,,M,0.0,N,0.0,K,A*0F
$GPGLL,2233.2038,N,11413.8090,E,162354.00,A,A*60
$GPGSA,A,3,05,10,12,15,26,27,,,,,,,2.1,1.6,1.3*36
$GPRMC,162355.000,A,2233.2038,N,11413.8090,E,0.0,105.6,040191,,,A*69
$GPGGA,162355.000,2233.2038,N,11413.8090,E,1,06,1.6,51.9,M,14.2,M,,0000*6F
$GPVTG,105.6,T,,M,0.0,N,0.0,K,A*0F
$GPGLL,2233.2038,N,11413.8090,E,162355.00,A,A*61
$GPGSA,A,3,05,10,12,15,26,27,,,,,,,2.1,1.6,1.3*36
$GPRMC,162356.000,A,2233.2038,N,11413.8090,E,0.0,105.6,040191,,,A*6A
$GPGGA,162356.000,2233.2038,N,11413.8090,E,1,06,1.6,51.9,M,14.2,M,,0000*6C
$GPVTG,105.6,T,,M,0.0,N,0.0,K,A*0F
$GPGLL,2233.2038,N,11413.8090,E,162356.00,A,A*62
$GPGSA,A,3,05,10,12,15,26,27,,,,,,,2.1,1.6,1.3*36
$GPGSV,3,1,11,10,26,043,17,05,51,359,16,27,05,179,36,12,08,224,25*74
$GPGSV,3,2,11,26,73,167,36,15,50,206,42,29,32,310,20,02,52,080,*79
$GPGSV,3,3,11,04,19,108,,08,13,081,,30,05,255,*4B
$GPRMC,162357.000,A,2233.2038,N,11413.8090,E,0.0,105.6,040191,,,A*6B
$GPGGA,162357.000,2233.2038,N,11413.8090,E,1,06,1.6,51.9,M,14.2,M,,0000*6D
$GPVTG,105.6,T,,M,0.0,N,0.0,K,A*0F
$GPGLL,2233.2038,N,11413.8090,E,162357.00,A,A*63
$GPGSA,A,3,05,10,12,15,26,27,,,,,,,2.1,1.6,1.3*36
$GPRMC,162358.000,A,2233.2038,N,11413.8090,E,0.0,105.6,040191,,,A*64
$GPGGA,162358.000,2233.2038,N,11413.8090,E,1,06,1.6,51.9,M,14.2,M,,0000*62
$GPVTG,105.6,T,,M,0.0,N,0.0,K,A*0F
$GPGLL,2233.2038,N,11413.8090,E,162358.00,A,A*6C
$GPGSA,A,3,05,10,12,15,26,27,,,,,,,2.1,1.6,1.3*36
$GPRMC,162359.000,A,2233.2038,N,11413.8090,E,0.0,105.6,040191,,,A*65
$GPGGA,162359.000,2233.2038,N,11413.8090,E,1,06,1.6,51.9,M,14.2,M,,0000*63
$GPVTG,105.6,T,,M,0.0,N,0.0,K,A*0F
$GPGLL,2233.2038,N,11413.8090,E,162359.00,A,A*6D
$GPGSA,A,3,05,10,12,15,26,27,,,,,,,2.1,1.6,1.3*36
$GPRMC,162400.000,A,2233.2038,N,11413.8090,E,0.0,105.6,040191,,,A*6E
$GPGGA,162400.000,2233.2038,N,11413.8090,E,1,06,1.6,51.9,M,14.2,M,,0000*68
$GPVTG,105.6,T,,M,0.0,N,0.0,K,A*0F
$GPGLL,2233.2038,N,11413.8090,E,162400.00,A,A*66
$GPGSA,A,3,05,10,12,15,26,27,,,,,,,2.1,1.6,1.3*36
$GPRMC,162401.000,A,2233.2038,N,11413.8090,E,0.0,105.6,040191,,,A*6F
$GPGGA,162401.000,2233.2038,N,11413.8090,E,1,06,1.6,51.9,M,14.2,M,,0000*69
$GPVTG,105.6,T,,M,0.0,N,0.0,K,A*0F
$GPGLL,2233.2038,N,11413.8090,E,162401.00,A,A*67
$GPGSA,A,3,05,10,12,15,26,27,,,,,,,2.1,1.6,1.3*36
$GPGSV,3,1,11,10,26,043,18,05,50,359,16,27,05,179,35,12,08,224,25*79
$GPGSV,3,2,11,26,73,167,35,15,50,206,42,02,52,080,,29,32,310,*78
$GPGSV,3,3,11,04,19,108,,08,13,081,,30,05,255,*4B
$GPRMC,162402.000,A,2233.2038,N,11413.8090,E,0.0,105.6,040191,,,A*6C
$GPGGA,162402.000,2233.2038,N,11413.8090,E,1,06,1.6,51.9,M,14.2,M,,0000*6A
$GPVTG,105.6,T,,M,0.0,N,0.0,K,A*0F
$GPGLL,2233.2038,N,11413.8090,E,162402.00,A,A*64
$GPGSA,A,3,05,10,12,15,26,27,,,,,,,2.1,1.6,1.3*36
$GPRMC,162403.000,A,2233.2038,N,11413.8090,E,0.0,105.6,040191,,,A*6D
$GPGGA,162403.000,2233.2038,N,11413.8090,E,1,07,1.4,51.9,M,14.2,M,,0000*68
$GPVTG,105.6,T,,M,0.0,N,0.0,K,A*0F
$GPGLL,2233.2038,N,11413.8090,E,162403.00,A,A*65
$GPGSA,A,3,02,05,10,12,15,26,27,,,,,,1.9,1.4,1.3*3D
$GPRMC,162404.000,A,2233.2038,N,11413.8090,E,0.0,105.6,040191,,,A*6A
$GPGGA,162404.000,2233.2038,N,11413.8090,E,1,06,1.6,51.9,M,14.2,M,,0000*6C
$GPVTG,105.6,T,,M,0.0,N,0.0,K,A*0F
$GPGLL,2233.2038,N,11413.8090,E,162404.00,A,A*62
$GPGSA,A,3,05,10,12,15,26,27,,,,,,,2.1,1.6,1.3*36
$GPRMC,162405.000,A,2233.2038,N,11413.8090,E,0.0,105.6,040191,,,A*6B
$GPGGA,162405.000,2233.2038,N,11413.8090,E,1,07,1.4,51.9,M,14.2,M,,0000*6E
$GPVTG,105.6,T,,M,0.0,N,0.0,K,A*0F
$GPGLL,2233.2038,N,11413.8090,E,162405.00,A,A*63
$GPGSA,A,3,02,05,10,12,15,26,27,,,,,,1.9,1.4,1.3*3D
$GPRMC,162406.000,A,2233.2038,N,11413.8090,E,0.0,105.6,040191,,,A*68
$GPGGA,162406.000,2233.2038,N,11413.8090,E,1,07,1.4,51.9,M,14.2,M,,0000*6D
$GPVTG,105.6,T,,M,0.0,N,0.0,K,A*0F
$GPGLL,2233.2038,N,11413.8090,E,162406.00,A,A*60
$GPGSA,A,3,02,05,10,12,15,26,27,,,,,,1.9,1.4,1.3*3D
$GPGSV,3,1,11,10,25,043,20,05,50,359,15,02,52,080,13,27,05,179,35*75
$GPGSV,3,2,11,12,08,224,23,26,74,167,36,15,50,206,41,29,32,310,*7C
$GPGSV,3,3,11,04,19,108,,08,13,081,,30,04,255,*4A
$GPRMC,162407.000,A,2233.2038,N,11413.8090,E,0.0,105.6,040191,,,A*69
$GPGGA,162407.000,2233.2038,N,11413.8090,E,1,06,1.6,51.9,M,14.2,M,,0000*6F
$GPVTG,105.6,T,,M,0.0,N,0.0,K,A*0F
$GPGLL,2233.2038,N,11413.8090,E,162407.00,A,A*61
$GPGSA,A,3,05,10,12,15,26,27,,,,,,,2.1,1.6,1.3*36
$GPRMC,162408.000,A,2233.2038,N,11413.8090,E,0.0,105.6,040191,,,A*66
$GPGGA,162408.000,2233.2038,N,11413.8090,E,1,06,1.6,51.9,M,14.2,M,,0000*60
$GPVTG,105.6,T,,M,0.0,N,0.0,K,A*0F
$GPGLL,2233.2038,N,11413.8090,E,162408.00,A,A*6E
$GPGSA,A,3,05,10,12,15,26,27,,,,,,,2.1,1.6,1.3*36
$GPRMC,162409.000,A,2233.2038,N,11413.8090,E,0.0,105.6,040191,,,A*67
$GPGGA,162409.000,2233.2038,N,11413.8090,E,1,06,1.6,51.9,M,14.2,M,,0000*61
$GPVTG,105.6,T,,M,0.0,N,0.0,K,A*0F
$GPGLL,2233.2038,N,11413.8090,E,162409.00,A,A*6F
$GPGSA,A,3,05,10,12,15,26,27,,,,,,,2.1,1.6,1.3*36
$GPRMC,162410.000,A,2233.2038,N,11413.8090,E,0.0,105.6,040191,,,A*6F
$GPGGA,162410.000,2233.2038,N,11413.8090,E,1,06,1.6,51.9,M,14.2,M,,0000*69
$GPVTG,105.6,T,,M,0.0,N,0.0,K,A*0F
$GPGLL,2233.2038,N,11413.8090,E,162410.00,A,A*67
$GPGSA,A,3,05,10,12,15,26,27,,,,,,,2.1,1.6,1.3*36
$GPRMC,162411.000,A,2233.2038,N,11413.8090,E,0.0,105.6,040191,,,A*6E
$GPGGA,162411.000,2233.2038,N,11413.8090,E,1,06,1.6,51.9,M,14.2,M,,0000*68
$GPVTG,105.6,T,,M,0.0,N,0.0,K,A*0F
$GPGLL,2233.2038,N,11413.8090,E,162411.00,A,A*66
$GPGSA,A,3,05,10,12,15,26,27,,,,,,,2.1,1.6,1.3*36
$GPGSV,3,1,11,10,25,043,17,05,50,359,15,27,05,179,36,12,08,224,21*71
$GPGSV,3,2,11,26,74,167,35,15,50,206,40,29,32,310,18,02,52,080,*74
$GPGSV,3,3,11,04,19,108,,08,13,081,,30,04,255,*4A
$GPRMC,162412.000,A,2233.2038,N,11413.8090,E,0.0,105.6,040191,,,A*6D
$GPGGA,162412.000,2233.2038,N,11413.8090,E,1,06,1.6,51.9,M,14.2,M,,0000*6B
$GPVTG,105.6,T,,M,0.0,N,0.0,K,A*0F
$GPGLL,2233.2038,N,11413.8090,E,162412.00,A,A*65
$GPGSA,A,3,05,10,12,15,26,27,,,,,,,2.1,1.6,1.3*36
$GPRMC,162413.000,A,2233.2038,N,11413.8090,E,0.0,105.6,040191,,,A*6C
$GPGGA,162413.000,2233.2038,N,11413.8090,E,1,05,1.6,51.9,M,14.2,M,,0000*69
$GPVTG,105.6,T,,M,0.0,N,0.0,K,A*0F
$GPGLL,2233.2038,N,11413.8090,E,162413.00,A,A*64
$GPGSA,A,3,05,10,12,26,27,,,,,,,,2.2,1.6,1.5*37
$GPRMC,162414.000,A,2233.2038,N,11413.8090,E,0.0,105.6,040191,,,A*6B
$GPGGA,162414.000,2233.2038,N,11413.8090,E,1,06,1.6,51.9,M,14.2,M,,0000*6D
$GPVTG,105.6,T,,M,0.0,N,0.0,K,A*0F
$GPGLL,2233.2038,N,11413.8090,E,162414.00,A,A*63
$GPGSA,A,3,05,10,12,15,26,27,,,,,,,2.1,1.6,1.3*36
$GPRMC,162415.000,A,2233.2038,N,11413.8090,E,0.0,105.6,040191,,,A*6A
$GPGGA,162415.000,2233.2038,N,11413.8090,E,1,06,1.6,51.9,M,14.2,M,,0000*6C
$GPVTG,105.6,T,,M,0.0,N,0.0,K,A*0F
$GPGLL,2233.2038,N,11413.8090,E,162415.00,A,A*62
$GPGSA,A,3,05,10,12,15,26,27,,,,,,,2.1,1.6,1.3*36
$GPRMC,162416.000,A,2233.2038,N,11413.8090,E,0.0,105.6,040191,,,A*69
$GPGGA,162416.000,2233.2038,N,11413.8090,E,1,06,1.6,51.9,M,14.2,M,,0000*6F
$GPVTG,105.6,T,,M,0.0,N,0.0,K,A*0F
$GPGLL,2233.2038,N,11413.8090,E,162416.00,A,A*61
$GPGSA,A,3,05,10,12,15,26,27,,,,,,,2.1,1.6,1.3*36
$GPGSV,3,1,11,10,25,043,13,05,50,359,17,27,05,179,36,12,08,224,19*7C
$GPGSV,3,2,11,26,74,167,35,15,50,206,40,29,32,310,22,02,52,080,*7D
$GPGSV,3,3,11,04,19,108,,08,13,081,,30,04,255,*4A
$GPRMC,162417.000,A,2233.2038,N,11413.8090,E,0.0,105.6,040191,,,A*68
$GPGGA,162417.000,2233.2038,N,11413.8090,E,1,06,1.6,51.9,M,14.2,M,,0000*6E
$GPVTG,105.6,T,,M,0.0,N,0.0,K,A*0F
$GPGLL,2233.2038,N,11413.8090,E,162417.00,A,A*60
$GPGSA,A,3,05,10,12,15,26,27,,,,,,,2.1,1.6,1.3*36
$GPRMC,162418.000,A,2233.2038,N,11413.8090,E,0.0,105.6,040191,,,A*67
$GPGGA,162418.000,2233.2038,N,11413.8090,E,1,06,1.6,51.9,M,14.2,M,,0000*61
$GPVTG,105.6,T,,M,0.0,N,0.0,K,A*0F
$GPGLL,2233.2038,N,11413.8090,E,162418.00,A,A*6F
$GPGSA,A,3,05,10,12,15,26,27,,,,,,,2.1,1.6,1.3*36
$GPRMC,162419.000,A,2233.2038,N,11413.8090,E,0.0,105.6,040191,,,A*66
$GPGGA,162419.000,2233.2038,N,11413.8090,E,1,06,1.6,51.9,M,14.2,M,,0000*60
$GPVTG,105.6,T,,M,0.0,N,0.0,K,A*0F
$GPGLL,2233.2038,N,11413.8090,E,162419.00,A,A*6E
$GPGSA,A,3,05,10,12,15,26,27,,,,,,,2.1,1.6,1.3*36
$GPRMC,162420.000,A,2233.2038,N,11413.8090,E,0.0,105.6,040191,,,A*6C
$GPGGA,162420.000,2233.2038,N,11413.8090,E,1,05,2.0,51.9,M,14.2,M,,0000*6C
$GPVTG,105.6,T,,M,0.0,N,0.0,K,A*0F
$GPGLL,2233.2038,N,11413.8090,E,162420.00,A,A*64
$GPGSA,A,3,05,12,15,26,27,,,,,,,,2.6,2.0,1.7*31
$GPRMC,162421.000,A,2233.2038,N,11413.8090,E,0.0,105.6,040191,,,A*6D
$GPGGA,162421.000,2233.2038,N,11413.8090,E,1,05,2.0,51.9,M,14.2,M,,0000*6D
$GPVTG,105.6,T,,M,0.0,N,0.0,K,A*0F
$GPGLL,2233.2038,N,11413.8090,E,162421.00,A,A*65
$GPGSA,A,3,05,12,15,26,27,,,,,,,,2.6,2.0,1.7*31
$GPGSV,3,1,11,10,25,043,17,05,50,000,18,27,05,179,35,12,08,224,18*7A
$GPGSV,3,2,11,26,74,167,34,15,50,206,41,29,32,310,26,02,52,080,*79
$GPGSV,3,3,11,04,19,108,,08,13,081,,30,04,255,*4A
$GPRMC,162422.000,A,2233.2038,N,11413.8090,E,0.0,105.6,040191,,,A*6E
$GPGGA,162422.000,2233.2038,N,11413.8090,E,1,05,2.0,51.9,M,14.2,M,,0000*6E
$GPVTG,105.6,T,,M,0.0,N,0.0,K,A*0F
$GPGLL,2233.2038,N,11413.8090,E,162422.00,A,A*66
$GPGSA,A,3,05,12,15,26,27,,,,,,,,2.6,2.0,1.7*31
$GPRMC,162423.000,A,2233.2038,N,11413.8090,E,0.0,105.6,040191,,,A*6F
$GPGGA,162423.000,2233.2038,N,11413.8090,E,1,05,2.0,51.9,M,14.2,M,,0000*6F
$GPVTG,105.6,T,,M,0.0,N,0.0,K,A*0F
$GPGLL,2233.2038,N,11413.8090,E,162423.00,A,A*67
$GPGSA,A,3,05,12,15,26,27,,,,,,,,2.6,2.0,1.7*31
$GPRMC,162424.000,A,2233.2038,N,11413.8090,E,0.0,105.6,040191,,,A*68
$GPGGA,162424.000,2233.2038,N,11413.8090,E,1,05,2.0,51.9,M,14.2,M,,0000*68
$GPVTG,105.6,T,,M,0.0,N,0.0,K,A*0F
$GPGLL,2233.2038,N,11413.8090,E,162424.00,A,A*60
$GPGSA,A,3,05,12,15,26,27,,,,,,,,2.6,2.0,1.7*31
$GPRMC,162425.000,A,2233.2038,N,11413.8090,E,0.0,105.6,040191,,,A*69
$GPGGA,162425.000,2233.2038,N,11413.8090,E,1,05,2.0,51.9,M,14.2,M,,0000*69
$GPVTG,105.6,T,,M,0.0,N,0.0,K,A*0F
$GPGLL,2233.2038,N,11413.8090,E,162425.00,A,A*61
$GPGSA,A,3,05,12,15,26,27,,,,,,,,2.6,2.0,1.7*31
$GPRMC,162426.000,A,2233.2038,N,11413.8090,E,0.0,105.6,040191,,,A*6A
$GPGGA,162426.000,2233.2038,N,11413.8090,E,1,05,2.0,51.9,M,14.2,M,,0000*6A
$GPVTG,105.6,T,,M,0.0,N,0.0,K,A*0F
$GPGLL,2233.2038,N,11413.8090,E,162426.00,A,A*62
$GPGSA,A,3,05,12,15,26,27,,,,,,,,2.6,2.0,1.7*31
$GPGSV,3,1,11,05,50,000,16,27,05,179,35,12,08,224,19,26,74,167,35*73
$GPGSV,3,2,11,15,50,206,42,29,32,310,26,02,52,080,,10,25,043,*7B
$GPGSV,3,3,11,04,19,108,,08,13,081,,30,04,255,*4A
$GPRMC,162427.000,A,2233.2038,N,11413.8090,E,0.0,105.6,040191,,,A*6B
$GPGGA,162427.000,2233.2038,N,11413.8090,E,1,05,2.0,51.9,M,14.2,M,,0000*6B
$GPVTG,105.6,T,,M,0.0,N,0.0,K,A*0F
$GPGLL,2233.2038,N,11413.8090,E,162427.00,A,A*63
$GPGSA,A,3,05,12,15,26,27,,,,,,,,2.6,2.0,1.7*31
$GPRMC,162428.000,A,2233.2038,N,11413.8090,E,0.0,105.6,040191,,,A*64
$GPGGA,162428.000,2233.2038,N,11413.8090,E,1,06,1.6,51.9,M,14.2,M,,0000*62
$GPVTG,105.6,T,,M,0.0,N,0.0,K,A*0F
$GPGLL,2233.2038,N,11413.8090,E,162428.00,A,A*6C
$GPGSA,A,3,02,05,12,15,26,27,,,,,,,2.3,1.6,1.7*33
$GPRMC,162429.000,A,2233.2038,N,11413.8090,E,0.0,105.6,040191,,,A*65
$GPGGA,162429.000,2233.2038,N,11413.8090,E,1,05,2.0,51.9,M,14.2,M,,0000*65
$GPVTG,105.6,T,,M,0.0,N,0.0,K,A*0F
$GPGLL,2233.2038,N,11413.8090,E,162429.00,A,A*6D
$GPGSA,A,3,05,12,15,26,27,,,,,,,,2.6,2.0,1.7*31
$GPRMC,162430.000,A,2233.2038,N,11413.8090,E,0.0,105.6,040191,,,A*6D
$GPGGA,162430.000,2233.2038,N,11413.8090,E,1,06,1.6,51.9,M,14.2,M,,0000*6B
$GPVTG,105.6,T,,M,0.0,N,0.0,K,A*0F
$GPGLL,2233.2038,N,11413.8090,E,162430.00,A,A*65
$GPGSA,A,3,02,05,12,15,26,27,,,,,,,2.3,1.6,1.7*33
$GPRMC,162431.000,A,2233.2038,N,11413.8090,E,0.0,105.6,040191,,,A*6C
$GPGGA,162431.000,2233.2038,N,11413.8090,E,1,06,1.6,51.9,M,14.2,M,,0000*6A
$GPVTG,105.6,T,,M,0.0,N,0.0,K,A*0F
$GPGLL,2233.2038,N,11413.8090,E,162431.00,A,A*64
$GPGSA,A,3,02,05,12,15,26,27,,,,,,,2.3,1.6,1.7*33
$GPGSV,3,1,11,10,25,043,12,05,50,000,17,02,52,080,15,27,05,179,34*7E
$GPGSV,3,2,11,12,08,224,24,26,74,167,36,15,50,206,42,29,32,310,23*79
$GPGSV,3,3,11,04,19,108,,08,13,081,,30,04,255,*4A
$GPRMC,162432.000,A,2233.2038,N,11413.8090,E,0.0,105.6,040191,,,A*6F
$GPGGA,162432.000,2233.2038,N,11413.8090,E,1,06,1.6,51.9,M,14.2,M,,0000*69
$GPVTG,105.6,T,,M,0.0,N,0.0,K,A*0F
$GPGLL,2233.2038,N,11413.8090,E,162432.00,A,A*67
$GPGSA,A,3,05,10,12,15,26,27,,,,,,,2.1,1.6,1.3*36
$GPRMC,162433.000,A,2233.2038,N,11413.8090,E,0.0,105.6,040191,,,A*6E
$GPGGA,162433.000,2233.2038,N,11413.8090,E,1,06,1.6,51.9,M,14.2,M,,0000*68
$GPVTG,105.6,T,,M,0.0,N,0.0,K,A*0F
$GPGLL,2233.2038,N,11413.8090,E,162433.00,A,A*66
$GPGSA,A,3,05,10,12,15,26,27,,,,,,,2.1,1.6,1.3*36
$GPRMC,162434.000,A,2233.2038,N,11413.8090,E,0.0,105.6,040191,,,A*69
$GPGGA,162434.000,2233.2038,N,11413.8090,E,1,06,1.6,51.9,M,14.2,M,,0000*6F
$GPVTG,105.6,T,,M,0.0,N,0.0,K,A*0F
$GPGLL,2233.2038,N,11413.8090,E,162434.00,A,A*61
$GPGSA,A,3,05,10,12,15,26,27,,,,,,,2.1,1.6,1.3*36
$GPRMC,162435.000,A,2233.2038,N,11413.8090,E,0.0,105.6,040191,,,A*68
$GPGGA,162435.000,2233.2038,N,11413.8090,E,1,06,1.6,51.9,M,14.2,M,,0000*6E
$GPVTG,105.6,T,,M,0.0,N,0.0,K,A*0F
$GPGLL,2233.2038,N,11413.8090,E,162435.00,A,A*60
$GPGSA,A,3,05,10,12,15,26,27,,,,,,,2.1,1.6,1.3*36
$GPRMC,162436.000,A,2233.2038,N,11413.8090,E,0.0,105.6,040191,,,A*6B
$GPGGA,162436.000,2233.2038,N,11413.8090,E,1,06,1.6,51.9,M,14.2,M,,0000*6D
$GPVTG,105.6,T,,M,0.0,N,0.0,K,A*0F
$GPGLL,2233.2038,N,11413.8090,E,162436.00,A,A*63
$GPGSA,A,3,05,10,12,15,26,27,,,,,,,2.1,1.6,1.3*36
$GPGSV,3,1,11,10,25,043,14,05,50,000,15,27,05,179,35,12,08,224,25*7A
$GPGSV,3,2,11,26,74,167,37,15,50,206,41,29,32,310,23,02,52,080,*7F
$GPGSV,3,3,11,04,19,108,,08,13,081,,30,04,255,*4A
$GPRMC,162437.000,A,2233.2038,N,11413.8090,E,0.0,105.6,040191,,,A*6A
$GPGGA,162437.000,2233.2038,N,11413.8090,E,1,06,1.6,51.9,M,14.2,M,,0000*6C
$GPVTG,105.6,T,,M,0.0,N,0.0,K,A*0F
$GPGLL,2233.2038,N,11413.8090,E,162437.00,A,A*62
$GPGSA,A,3,05,10,12,15,26,27,,,,,,,2.1,1.6,1.3*36
$GPRMC,162438.000,A,2233.2038,N,11413.8090,E,0.0,105.6,040191,,,A*65
$GPGGA,162438.000,2233.2038,N,11413.8090,E,1,07,1.1,51.9,M,14.2,M,,0000*65
$GPVTG,105.6,T,,M,0.0,N,0.0,K,A*0F
$GPGLL,2233.2038,N,11413.8090,E,162438.00,A,A*6D
$GPGSA,A,3,04,05,10,12,15,26,27,,,,,,1.7,1.1,1.3*30
$GPRMC,162439.000,A,2233.2038,N,11413.8090,E,0.0,105.6,040191,,,A*64
$GPGGA,162439.000,2233.2038,N,11413.8090,E,1,07,1.1,51.9,M,14.2,M,,0000*64
$GPVTG,105.6,T,,M,0.0,N,0.0,K,A*0F
$GPGLL,2233.2038,N,11413.8090,E,162439.00,A,A*6C
$GPGSA,A,3,04,05,10,12,15,26,27,,,,,,1.7,1.1,1.3*30
$GPRMC,162440.000,A,2233.2038,N,11413.8090,E,0.0,105.6,040191,,,A*6A
$GPGGA,162440.000,2233.2038,N,11413.8090,E,1,07,1.1,51.9,M,14.2,M,,0000*6A
$GPVTG,105.6,T,,M,0.0,N,0.0,K,A*0F
$GPGLL,2233.2038,N,11413.8090,E,162440.00,A,A*62
$GPGSA,A,3,04,05,10,12,15,26,27,,,,,,1.7,1.1,1.3*30
$GPRMC,162441.000,A,2233.2038,N,11413.8090,E,0.0,105.6,040191,,,A*6B
$GPGGA,162441.000,2233.2038,N,11413.8090,E,1,07,1.1,51.9,M,14.2,M,,0000*6B
$GPVTG,105.6,T,,M,0.0,N,0.0,K,A*0F
$GPGLL,2233.2038,N,11413.8090,E,162441.00,A,A*63
$GPGSA,A,3,04,05,10,12,15,26,27,,,,,,1.7,1.1,1.3*30
$GPGSV,3,1,11,10,25,044,19,05,50,000,13,04,19,108,13,27,05,179,34*78
$GPGSV,3,2,11,12,08,224,26,26,74,167,37,15,50,206,41,29,32,310,20*7A
$GPGSV,3,3,11,02,52,080,,08,13,081,,30,04,255,*42
$GPRMC,162442.000,A,2233.2038,N,11413.8090,E,0.0,105.6,040191,,,A*68
$GPGGA,162442.000,2233.2038,N,11413.8090,E,1,07,1.1,51.9,M,14.2,M,,0000*68
$GPVTG,105.6,T,,M,0.0,N,0.0,K,A*0F
$GPGLL,2233.2038,N,11413.8090,E,162442.00,A,A*60
$GPGSA,A,3,04,05,10,12,15,26,27,,,,,,1.7,1.1,1.3*30
$GPRMC,162443.000,A,2233.2038,N,11413.8090,E,0.0,105.6,040191,,,A*69
$GPGGA,162443.000,2233.2038,N,11413.8090,E,1,07,1.1,51.9,M,14.2,M,,0000*69
$GPVTG,105.6,T,,M,0.0,N,0.0,K,A*0F
$GPGLL,2233.2038,N,11413.8090,E,162443.00,A,A*61
$GPGSA,A,3,04,05,10,12,15,26,27,,,,,,1.7,1.1,1.3*30
$GPRMC,162444.000,A,2233.2038,N,11413.8090,E,0.0,105.6,040191,,,A*6E
$GPGGA,162444.000,2233.2038,N,11413.8090,E,1,08,1.1,51.9,M,14.2,M,,0000*61
$GPVTG,105.6,T,,M,0.0,N,0.0,K,A*0F
$GPGLL,2233.2038,N,11413.8090,E,162444.00,A,A*66
$GPGSA,A,3,02,04,05,10,12,15,26,27,,,,,1.7,1.1,1.3*32
$GPRMC,162445.000,A,2233.2038,N,11413.8090,E,0.0,105.6,040191,,,A*6F
$GPGGA,162445.000,2233.2038,N,11413.8090,E,1,07,1.1,51.9,M,14.2,M,,0000*6F
$GPVTG,105.6,T,,M,0.0,N,0.0,K,A*0F
$GPGLL,2233.2038,N,11413.8090,E,162445.00,A,A*67
$GPGSA,A,3,04,05,10,12,15,26,27,,,,,,1.7,1.1,1.3*30
$GPRMC,162446.000,A,2233.2038,N,11413.8090,E,0.0,105.6,040191,,,A*6C
$GPGGA,162446.000,2233.2038,N,11413.8090,E,1,08,1.1,51.9,M,14.2,M,,0000*63
$GPVTG,105.6,T,,M,0.0,N,0.0,K,A*0F
$GPGLL,2233.2038,N,11413.8090,E,162446.00,A,A*64
$GPGSA,A,3,02,04,05,10,12,15,26,27,,,,,1.7,1.1,1.3*32
$GPGSV,3,1,11,10,25,044,19,05,50,000,12,02,52,081,15,04,19,108,12*78
$GPGSV,3,2,11,27,05,178,35,12,08,224,27,26,74,167,37,15,50,206,42*7A
$GPGSV,3,3,11,29,32,310,19,08,13,081,,30,04,255,*4F
$GPRMC,162447.000,A,2233.2038,N,11413.8090,E,0.0,105.6,040191,,,A*6D
$GPGGA,162447.000,2233.2038,N,11413.8090,E,1,08,1.1,51.9,M,14.2,M,,0000*62
$GPVTG,105.6,T,,M,0.0,N,0.0,K,A*0F
$GPGLL,2233.2038,N,11413.8090,E,162447.00,A,A*65
$GPGSA,A,3,02,04,05,10,12,15,26,27,,,,,1.7,1.1,1.3*32
$GPRMC,162448.000,A,2233.2038,N,11413.8090,E,0.0,105.6,040191,,,A*62
$GPGGA,162448.000,2233.2038,N,11413.8090,E,1,06,1.4,51.9,M,14.2,M,,0000*66
$GPVTG,105.6,T,,M,0.0,N,0.0,K,A*0F
$GPGLL,2233.2038,N,11413.8090,E,162448.00,A,A*6A
$GPGSA,A,3,04,10,12,15,26,27,,,,,,,1.9,1.4,1.3*3E
$GPRMC,162449.000,A,2233.2038,N,11413.8090,E,0.0,105.6,040191,,,A*63
$GPGGA,162449.000,2233.2038,N,11413.8090,E,1,06,1.4,51.9,M,14.2,M,,0000*67
$GPVTG,105.6,T,,M,0.0,N,0.0,K,A*0F
$GPGLL,2233.2038,N,11413.8090,E,162449.00,A,A*6B
$GPGSA,A,3,04,10,12,15,26,27,,,,,,,1.9,1.4,1.3*3E
$GPRMC,162450.000,A,2233.2038,N,11413.8090,E,0.0,105.6,040191,,,A*6B
$GPGGA,162450.000,2233.2038,N,11413.8090,E,1,07,1.4,51.9,M,14.2,M,,0000*6E
$GPVTG,105.6,T,,M,0.0,N,0.0,K,A*0F
$GPGLL,2233.2038,N,11413.8090,E,162450.00,A,A*63
$GPGSA,A,3,02,04,10,12,15,26,27,,,,,,1.9,1.4,1.3*3C
$GPRMC,162451.000,A,2233.2038,N,11413.8090,E,0.0,105.6,040191,,,A*6A
$GPGGA,162451.000,2233.2038,N,11413.8090,E,1,07,1.4,51.9,M,14.2,M,,0000*6F
$GPVTG,105.6,T,,M,0.0,N,0.0,K,A*0F
$GPGLL,2233.2038,N,11413.8090,E,162451.00,A,A*62
$GPGSA,A,3,02,04,10,12,15,26,27,,,,,,1.9,1.4,1.3*3C
$GPGSV,3,1,11,10,25,044,20,02,52,081,16,04,19,108,11,27,05,178,36*7A
$GPGSV,3,2,11,12,08,224,28,26,74,167,38,15,50,206,42,29,32,310,17*7C
$GPGSV,3,3,11,05,50,000,,08,13,081,,30,04,255,*4F
$GPRMC,162452.000,A,2233.2038,N,11413.8090,E,0.0,105.6,040191,,,A*69
$GPGGA,162452.000,2233.2038,N,11413.8090,E,1,05,1.9,51.9,M,14.2,M,,0000*63
$GPVTG,105.6,T,,M,0.0,N,0.0,K,A*0F
$GPGLL,2233.2038,N,11413.8090,E,162452.00,A,A*61
$GPGSA,A,3,10,12,15,26,27,,,,,,,,2.3,1.9,1.3*3E
$GPRMC,162453.000,A,2233.2038,N,11413.8090,E,0.0,105.6,040191,,,A*68
$GPGGA,162453.000,2233.2038,N,11413.8090,E,1,05,1.9,51.9,M,14.2,M,,0000*62
$GPVTG,105.6,T,,M,0.0,N,0.0,K,A*0F
$GPGLL,2233.2038,N,11413.8090,E,162453.00,A,A*60
$GPGSA,A,3,10,12,15,26,27,,,,,,,,2.3,1.9,1.3*3E
$GPRMC,162454.000,A,2233.2038,N,11413.8090,E,0.0,105.6,040191,,,A*6F
$GPGGA,162454.000,2233.2038,N,11413.8090,E,1,05,1.9,51.9,M,14.2,M,,0000*65
$GPVTG,105.6,T,,M,0.0,N,0.0,K,A*0F
$GPGLL,2233.2038,N,11413.8090,E,162454.00,A,A*67
$GPGSA,A,3,10,12,15,26,27,,,,,,,,2.3,1.9,1.3*3E
$GPRMC,162455.000,A,2233.2038,N,11413.8090,E,0.0,105.6,040191,,,A*6E
$GPGGA,162455.000,2233.2038,N,11413.8090,E,1,05,1.9,51.9,M,14.2,M,,0000*64
$GPVTG,105.6,T,,M,0.0,N,0.0,K,A*0F
$GPGLL,2233.2038,N,11413.8090,E,162455.00,A,A*66
$GPGSA,A,3,10,12,15,26,27,,,,,,,,2.3,1.9,1.3*3E
$GPRMC,162456.000,A,2233.2038,N,11413.8090,E,0.0,105.6,040191,,,A*6D
$GPGGA,162456.000,2233.2038,N,11413.8090,E,1,05,1.9,51.9,M,14.2,M,,0000*67
$GPVTG,105.6,T,,M,0.0,N,0.0,K,A*0F
$GPGLL,2233.2038,N,11413.8090,E,162456.00,A,A*65
$GPGSA,A,3,10,12,15,26,27,,,,,,,,2.3,1.9,1.3*3E
$GPGSV,3,1,11,10,25,044,18,27,05,178,36,12,08,224,29,26,74,167,37*78
$GPGSV,3,2,11,15,50,206,41,29,32,310,17,02,52,081,,05,50,000,*7A
$GPGSV,3,3,11,04,19,108,,08,13,080,,30,04,255,*4B
$GPRMC,162457.000,A,2233.2038,N,11413.8090,E,0.0,105.6,040191,,,A*6C
$GPGGA,162457.000,2233.2038,N,11413.8090,E,1,05,1.9,51.9,M,14.2,M,,0000*66
$GPVTG,105.6,T,,M,0.0,N,0.0,K,A*0F
$GPGLL,2233.2038,N,11413.8090,E,162457.00,A,A*64
$GPGSA,A,3,10,12,15,26,27,,,,,,,,2.3,1.9,1.3*3E
$GPRMC,162458.000,A,2233.2038,N,11413.8090,E,0.0,105.6,040191,,,A*63
$GPGGA,162458.000,2233.2038,N,11413.8090,E,1,05,1.9,51.9,M,14.2,M,,0000*69
$GPVTG,105.6,T,,M,0.0,N,0.0,K,A*0F
$GPGLL,2233.2038,N,11413.8090,E,162458.00,A,A*6B
$GPGSA,A,3,10,12,15,26,27,,,,,,,,2.3,1.9,1.3*3E
$GPRMC,162459.000,A,2233.2038,N,11413.8090,E,0.0,105.6,040191,,,A*62
$GPGGA,162459.000,2233.2038,N,11413.8090,E,1,05,1.9,51.9,M,14.2,M,,0000*68
$GPVTG,105.6,T,,M,0.0,N,0.0,K,A*0F
$GPGLL,2233.2038,N,11413.8090,E,162459.00,A,A*6A
$GPGSA,A,3,10,12,15,26,27,,,,,,,,2.3,1.9,1.3*3E
$GPRMC,162500.000,A,2233.2038,N,11413.8090,E,0.0,105.6,040191,,,A*6F
$GPGGA,162500.000,2233.2038,N,11413.8090,E,1,05,1.9,51.9,M,14.2,M,,0000*65
$GPVTG,105.6,T,,M,0.0,N,0.0,K,A*0F
$GPGLL,2233.2038,N,11413.8090,E,162500.00,A,A*67
$GPGSA,A,3,10,12,15,26,27,,,,,,,,2.3,1.9,1.3*3E
$GPRMC,162501.000,A,2233.2038,N,11413.8090,E,0.0,105.6,040191,,,A*6E
$GPGGA,162501.000,2233.2038,N,11413.8090,E,1,05,1.9,51.9,M,14.2,M,,0000*64
$GPVTG,105.6,T,,M,0.0,N,0.0,K,A*0F
$GPGLL,2233.2038,N,11413.8090,E,162501.00,A,A*66
$GPGSA,A,3,10,12,15,26,27,,,,,,,,2.3,1.9,1.3*3E
$GPGSV,3,1,11,10,25,044,16,27,05,178,36,12,08,224,26,26,74,167,36*78
$GPGSV,3,2,11,15,50,206,41,29,32,310,18,02,52,081,,05,50,000,*75
$GPGSV,3,3,11,04,19,108,,08,13,080,,30,04,255,*4B
$GPRMC,162502.000,A,2233.2038,N,11413.8090,E,0.0,105.6,040191,,,A*6D
$GPGGA,162502.000,2233.2038,N,11413.8090,E,1,05,1.9,51.9,M,14.2,M,,0000*67
$GPVTG,105.6,T,,M,0.0,N,0.0,K,A*0F
$GPGLL,2233.2038,N,11413.8090,E,162502.00,A,A*65
$GPGSA,A,3,10,12,15,26,27,,,,,,,,2.3,1.9,1.3*3E
$GPRMC,162503.000,A,2233.2038,N,11413.8090,E,0.0,105.6,040191,,,A*6C
$GPGGA,162503.000,2233.2038,N,11413.8090,E,1,06,1.6,51.9,M,14.2,M,,0000*6A
$GPVTG,105.6,T,,M,0.0,N,0.0,K,A*0F
$GPGLL,2233.2038,N,11413.8090,E,162503.00,A,A*64
$GPGSA,A,3,05,10,12,15,26,27,,,,,,,2.1,1.6,1.3*36
$GPRMC,162504.000,A,2233.2038,N,11413.8090,E,0.0,105.6,040191,,,A*6B
$GPGGA,162504.000,2233.2038,N,11413.8090,E,1,06,1.6,51.9,M,14.2,M,,0000*6D
$GPVTG,105.6,T,,M,0.0,N,0.0,K,A*0F
$GPGLL,2233.2038,N,11413.8090,E,162504.00,A,A*63
$GPGSA,A,3,05,10,12,15,26,27,,,,,,,2.1,1.6,1.3*36
$GPRMC,162505.000,A,2233.2038,N,11413.8090,E,0.0,105.6,040191,,,A*6A
$GPGGA,162505.000,2233.2038,N,11413.8090,E,1,06,1.6,51.9,M,14.2,M,,0000*6C
$GPVTG,105.6,T,,M,0.0,N,0.0,K,A*0F
$GPGLL,2233.2038,N,11413.8090,E,162505.00,A,A*62
$GPGSA,A,3,05,10,12,15,26,27,,,,,,,2.1,1.6,1.3*36
$GPRMC,162506.000,A,2233.2038,N,11413.8090,E,0.0,105.6,040191,,,A*69
$GPGGA,162506.000,2233.2038,N,11413.8090,E,1,06,1.6,51.9,M,14.2,M,,0000*6F
$GPVTG,105.6,T,,M,0.0,N,0.0,K,A*0F
$GPGLL,2233.2038,N,11413.8090,E,162506.00,A,A*61
$GPGSA,A,3,05,10,12,15,26,27,,,,,,,2.1,1.6,1.3*36
$GPGSV,3,1,11,10,25,044,13,05,50,000,15,27,05,178,35,12,08,224,27*79
$GPGSV,3,2,11,26,74,167,36,15,50,206,42,29,32,310,21,02,52,081,*7E
$GPGSV,3,3,11,04,19,108,,08,13,080,,30,04,255,*4B
$GPRMC,162507.000,A,2233.2038,N,11413.8090,E,0.0,105.6,040191,,,A*68
$GPGGA,162507.000,2233.2038,N,11413.8090,E,1,06,1.6,51.9,M,14.2,M,,0000*6E
$GPVTG,105.6,T,,M,0.0,N,0.0,K,A*0F
$GPGLL,2233.2038,N,11413.8090,E,162507.00,A,A*60
$GPGSA,A,3,05,10,12,15,26,27,,,,,,,2.1,1.6,1.3*36
$GPRMC,162508.000,A,2233.2038,N,11413.8090,E,0.0,105.6,040191,,,A*67
$GPGGA,162508.000,2233.2038,N,11413.8090,E,1,07,1.4,51.9,M,14.2,M,,0000*62
$GPVTG,105.6,T,,M,0.0,N,0.0,K,A*0F
$GPGLL,2233.2038,N,11413.8090,E,162508.00,A,A*6F
$GPGSA,A,3,02,05,10,12,15,26,27,,,,,,1.9,1.4,1.3*3D
$GPRMC,162509.000,A,2233.2038,N,11413.8090,E,0.0,105.6,040191,,,A*66
$GPGGA,162509.000,2233.2038,N,11413.8090,E,1,07,1.4,51.9,M,14.2,M,,0000*63
$GPVTG,105.6,T,,M,0.0,N,0.0,K,A*0F
$GPGLL,2233.2038,N,11413.8090,E,162509.00,A,A*6E
$GPGSA,A,3,02,05,10,12,15,26,27,,,,,,1.9,1.4,1.3*3D
$GPRMC,162510.000,A,2233.2038,N,11413.8090,E,0.0,105.6,040191,,,A*6E
$GPGGA,162510.000,2233.2038,N,11413.8090,E,1,07,1.4,51.9,M,14.2,M,,0000*6B
$GPVTG,105.6,T,,M,0.0,N,0.0,K,A*0F
$GPGLL,2233.2038,N,11413.8090,E,162510.00,A,A*66
$GPGSA,A,3,02,05,10,12,15,26,27,,,,,,1.9,1.4,1.3*3D
$GPRMC,162511.000,A,2233.2038,N,11413.8090,E,0.0,105.6,040191,,,A*6F
$GPGGA,162511.000,2233.2038,N,11413.8090,E,1,07,1.4,51.9,M,14.2,M,,0000*6A
$GPVTG,105.6,T,,M,0.0,N,0.0,K,A*0F
$GPGLL,2233.2038,N,11413.8090,E,162511.00,A,A*67
$GPGSA,A,3,02,05,10,12,15,26,27,,,,,,1.9,1.4,1.3*3D
$GPGSV,3,1,11,10,25,044,15,05,50,000,17,02,52,081,12,27,06,178,34*7A
$GPGSV,3,2,11,12,08,224,29,26,74,167,35,15,50,206,42,29,32,310,20*74
$GPGSV,3,3,11,04,19,108,,08,13,080,,30,04,255,*4B
$GPRMC,162512.000,A,2233.2038,N,11413.8090,E,0.0,105.6,040191,,,A*6C
$GPGGA,162512.000,2233.2038,N,11413.8090,E,1,07,1.4,51.9,M,14.2,M,,0000*69
$GPVTG,105.6,T,,M,0.0,N,0.0,K,A*0F
$GPGLL,2233.2038,N,11413.8090,E,162512.00,A,A*64
$GPGSA,A,3,02,05,10,12,15,26,27,,,,,,1.9,1.4,1.3*3D
$GPRMC,162513.000,A,2233.2038,N,11413.8090,E,0.0,105.6,040191,,,A*6D
$GPGGA,162513.000,2233.2038,N,11413.8090,E,1,07,1.4,51.9,M,14.2,M,,0000*68
$GPVTG,105.6,T,,M,0.0,N,0.0,K,A*0F
$GPGLL,2233.2038,N,11413.8090,E,162513.00,A,A*65
$GPGSA,A,3,02,05,10,12,15,26,27,,,,,,1.9,1.4,1.3*3D
$GPRMC,162514.000,A,2233.2038,N,11413.8090,E,0.0,105.6,040191,,,A*6A
$GPGGA,162514.000,2233.2038,N,11413.8090,E,1,07,1.4,51.9,M,14.2,M,,0000*6F
$GPVTG,105.6,T,,M,0.0,N,0.0,K,A*0F
$GPGLL,2233.2038,N,11413.8090,E,162514.00,A,A*62
$GPGSA,A,3,02,05,10,12,15,26,27,,,,,,1.9,1.4,1.3*3D
$GPRMC,162515.000,A,2233.2038,N,11413.8090,E,0.0,105.6,040191,,,A*6B
$GPGGA,162515.000,2233.2038,N,11413.8090,E,1,07,1.4,51.9,M,14.2,M,,0000*6E
$GPVTG,105.6,T,,M,0.0,N,0.0,K,A*0F
$GPGLL,2233.2038,N,11413.8090,E,162515.00,A,A*63
$GPGSA,A,3,02,05,10,12,15,26,27,,,,,,1.9,1.4,1.3*3D
$GPRMC,162516.000,A,2233.2038,N,11413.8090,E,0.0,105.6,040191,,,A*68
$GPGGA,162516.000,2233.2038,N,11413.8090,E,1,07,1.4,51.9,M,14.2,M,,0000*6D
$GPVTG,105.6,T,,M,0.0,N,0.0,K,A*0F
$GPGLL,2233.2038,N,11413.8090,E,162516.00,A,A*60
$GPGSA,A,3,02,05,10,12,15,26,27,,,,,,1.9,1.4,1.3*3D
$GPGSV,3,1,11,10,25,044,21,05,50,000,17,02,52,081,11,27,06,178,35*7F
$GPGSV,3,2,11,12,08,224,27,26,74,167,35,15,50,206,41,29,32,310,16*7C
$GPGSV,3,3,11,04,19,108,,08,13,080,,30,04,255,*4B
$GPRMC,162517.000,A,2233.2038,N,11413.8090,E,0.0,105.6,040191,,,A*69
$GPGGA,162517.000,2233.2038,N,11413.8090,E,1,07,1.4,51.9,M,14.2,M,,0000*6C
$GPVTG,105.6,T,,M,0.0,N,0.0,K,A*0F
$GPGLL,2233.2038,N,11413.8090,E,162517.00,A,A*61
$GPGSA,A,3,02,05,10,12,15,26,27,,,,,,1.9,1.4,1.3*3D
$GPRMC,162518.000,A,2233.2038,N,11413.8090,E,0.0,105.6,040191,,,A*66
$GPGGA,162518.000,2233.2038,N,11413.8090,E,1,06,1.6,51.9,M,14.2,M,,0000*60
$GPVTG,105.6,T,,M,0.0,N,0.0,K,A*0F
$GPGLL,2233.2038,N,11413.8090,E,162518.00,A,A*6E
$GPGSA,A,3,05,10,12,15,26,27,,,,,,,2.1,1.6,1.3*36
$GPRMC,162519.000,A,2233.2038,N,11413.8090,E,0.0,105.6,040191,,,A*67
$GPGGA,162519.000,2233.2038,N,11413.8090,E,1,06,1.6,51.9,M,14.2,M,,0000*61
$GPVTG,105.6,T,,M,0.0,N,0.0,K,A*0F
$GPGLL,2233.2038,N,11413.8090,E,162519.00,A,A*6F
$GPGSA,A,3,05,10,12,15,26,27,,,,,,,2.1,1.6,1.3*36
$GPRMC,162520.000,A,2233.2038,N,11413.8090,E,0.0,105.6,040191,,,A*6D
$GPGGA,162520.000,2233.2038,N,11413.8090,E,1,06,1.6,51.9,M,14.2,M,,0000*6B
$GPVTG,105.6,T,,M,0.0,N,0.0,K,A*0F
$GPGLL,2233.2038,N,11413.8090,E,162520.00,A,A*65
$GPGSA,A,3,05,10,12,15,26,27,,,,,,,2.1,1.6,1.3*36
$GPRMC,162521.000,A,2233.2038,N,11413.8090,E,0.0,105.6,040191,,,A*6C
$GPGGA,162521.000,2233.2038,N,11413.8090,E,1,06,1.6,51.9,M,14.2,M,,0000*6A
$GPVTG,105.6,T,,M,0.0,N,0.0,K,A*0F
$GPGLL,2233.2038,N,11413.8090,E,162521.00,A,A*64
$GPGSA,A,3,05,10,12,15,26,27,,,,,,,2.1,1.6,1.3*36
$GPGSV,3,1,11,10,25,044,20,05,50,000,19,27,06,178,35,12,08,224,26*77
$GPGSV,3,2,11,26,74,167,35,15,50,206,40,29,32,310,16,02,52,081,*7B
$GPGSV,3,3,11,04,19,108,,08,13,080,,30,04,255,*4B
$GPRMC,162522.000,A,2233.2038,N,11413.8090,E,0.0,105.6,040191,,,A*6F
$GPGGA,162522.000,2233.2038,N,11413.8090,E,1,06,1.6,51.9,M,14.2,M,,0000*69
$GPVTG,105.6,T,,M,0.0,N,0.0,K,A*0F
$GPGLL,2233.2038,N,11413.8090,E,162522.00,A,A*67
$GPGSA,A,3,05,10,12,15,26,27,,,,,,,2.1,1.6,1.3*36
$GPRMC,162523.000,A,2233.2038,N,11413.8090,E,0.0,105.6,040191,,,A*6E
$GPGGA,162523.000,2233.2038,N,11413.8090,E,1,06,1.6,51.9,M,14.2,M,,0000*68
$GPVTG,105.6,T,,M,0.0,N,0.0,K,A*0F
$GPGLL,2233.2038,N,11413.8090,E,162523.00,A,A*66
$GPGSA,A,3,05,10,12,15,26,27,,,,,,,2.1,1.6,1.3*36
$GPRMC,162524.000,A,2233.2038,N,11413.8090,E,0.0,105.6,040191,,,A*69
$GPGGA,162524.000,2233.2038,N,11413.8090,E,1,06,1.6,51.9,M,14.2,M,,0000*6F
$GPVTG,105.6,T,,M,0.0,N,0.0,K,A*0F
$GPGLL,2233.2038,N,11413.8090,E,162524.00,A,A*61
$GPGSA,A,3,05,10,12,15,26,27,,,,,,,2.1,1.6,1.3*36
$GPRMC,162525.000,A,2233.2038,N,11413.8090,E,0.0,105.6,040191,,,A*68
$GPGGA,162525.000,2233.2038,N,11413.8090,E,1,06,1.6,51.9,M,14.2,M,,0000*6E
$GPVTG,105.6,T,,M,0.0,N,0.0,K,A*0F
$GPGLL,2233.2038,N,11413.8090,E,162525.00,A,A*60
$GPGSA,A,3,05,10,12,15,26,27,,,,,,,2.1,1.6,1.3*36
$GPRMC,162526.000,A,2233.2038,N,11413.8090,E,0.0,105.6,040191,,,A*6B
$GPGGA,162526.000,2233.2038,N,11413.8090,E,1,06,1.6,51.9,M,14.2,M,,0000*6D
$GPVTG,105.6,T,,M,0.0,N,0.0,K,A*0F
$GPGLL,2233.2038,N,11413.8090,E,162526.00,A,A*63
$GPGSA,A,3,05,10,12,15,26,27,,,,,,,2.1,1.6,1.3*36
$GPGSV,3,1,11,10,25,044,18,05,50,000,20,27,06,178,34,12,08,224,25*74
$GPGSV,3,2,11,26,74,166,35,15,50,206,38,29,32,310,15,02,52,081,*76
$GPGSV,3,3,11,04,19,108,,08,13,080,,30,04,255,*4B
$GPRMC,162527.000,A,2233.2038,N,11413.8090,E,0.0,105.6,040191,,,A*6A
$GPGGA,162527.000,2233.2038,N,11413.8090,E,1,06,1.6,51.9,M,14.2,M,,0000*6C
$GPVTG,105.6,T,,M,0.0,N,0.0,K,A*0F
$GPGLL,2233.2038,N,11413.8090,E,162527.00,A,A*62
$GPGSA,A,3,05,10,12,15,26,27,,,,,,,2.1,1.6,1.3*36
$GPRMC,162528.000,A,2233.2038,N,11413.8090,E,0.0,105.6,040191,,,A*65
$GPGGA,162528.000,2233.2038,N,11413.8090,E,1,06,1.6,51.9,M,14.2,M,,0000*63
$GPVTG,105.6,T,,M,0.0,N,0.0,K,A*0F
$GPGLL,2233.2038,N,11413.8090,E,162528.00,A,A*6D
$GPGSA,A,3,05,10,12,15,26,27,,,,,,,2.1,1.6,1.3*36
$GPRMC,162529.000,A,2233.2038,N,11413.8090,E,0.0,105.6,040191,,,A*64
$GPGGA,162529.000,2233.2038,N,11413.8090,E,1,06,1.6,51.9,M,14.2,M,,0000*62
$GPVTG,105.6,T,,M,0.0,N,0.0,K,A*0F
$GPGLL,2233.2038,N,11413.8090,E,162529.00,A,A*6C
$GPGSA,A,3,05,10,12,15,26,27,,,,,,,2.1,1.6,1.3*36
$GPRMC,162530.000,A,2233.2038,N,11413.8090,E,0.0,105.6,040191,,,A*6C
$GPGGA,162530.000,2233.2038,N,11413.8090,E,1,06,1.6,51.9,M,14.2,M,,0000*6A
$GPVTG,105.6,T,,M,0.0,N,0.0,K,A*0F
$GPGLL,2233.2038,N,11413.8090,E,162530.00,A,A*64
$GPGSA,A,3,05,10,12,15,26,27,,,,,,,2.1,1.6,1.3*36
$GPRMC,162531.000,A,2233.2038,N,11413.8090,E,0.0,105.6,040191,,,A*6D
$GPGGA,162531.000,2233.2038,N,11413.8090,E,1,06,1.6,51.9,M,14.2,M,,0000*6B
$GPVTG,105.6,T,,M,0.0,N,0.0,K,A*0F
$GPGLL,2233.2038,N,11413.8090,E,162531.00,A,A*65
$GPGSA,A,3,05,10,12,15,26,27,,,,,,,2.1,1.6,1.3*36
$GPGSV,3,1,11,10,25,044,16,05,50,000,18,27,06,178,33,12,08,224,22*71
$GPGSV,3,2,11,26,74,166,35,15,50,206,38,29,32,310,14,02,52,081,*77
$GPGSV,3,3,11,04,19,108,,08,13,080,,30,04,254,*4A
$GPRMC,162532.000,A,2233.2038,N,11413.8090,E,0.0,105.6,040191,,,A*6E
$GPGGA,162532.000,2233.2038,N,11413.8090,E,1,06,1.6,51.9,M,14.2,M,,0000*68
$GPVTG,105.6,T,,M,0.0,N,0.0,K,A*0F
$GPGLL,2233.2038,N,11413.8090,E,162532.00,A,A*66
$GPGSA,A,3,05,10,12,15,26,27,,,,,,,2.1,1.6,1.3*36
$GPRMC,162533.000,A,2233.2038,N,11413.8090,E,0.0,105.6,040191,,,A*6F
$GPGGA,162533.000,2233.2038,N,11413.8090,E,1,07,1.4,51.9,M,14.2,M,,0000*6A
$GPVTG,105.6,T,,M,0.0,N,0.0,K,A*0F
$GPGLL,2233.2038,N,11413.8090,E,162533.00,A,A*67
$GPGSA,A,3,02,05,10,12,15,26,27,,,,,,1.9,1.4,1.3*3D
$GPRMC,162534.000,A,2233.2038,N,11413.8090,E,0.0,105.6,040191,,,A*68
$GPGGA,162534.000,2233.2038,N,11413.8090,E,1,07,1.4,51.9,M,14.2,M,,0000*6D
$GPVTG,105.6,T,,M,0.0,N,0.0,K,A*0F
$GPGLL,2233.2038,N,11413.8090,E,162534.00,A,A*60
$GPGSA,A,3,02,05,10,12,15,26,27,,,,,,1.9,1.4,1.3*3D
$GPRMC,162535.000,A,2233.2038,N,11413.8090,E,0.0,105.6,040191,,,A*69
$GPGGA,162535.000,2233.2038,N,11413.8090,E,1,06,1.6,51.9,M,14.2,M,,0000*6F
$GPVTG,105.6,T,,M,0.0,N,0.0,K,A*0F
$GPGLL,2233.2038,N,11413.8090,E,162535.00,A,A*61
$GPGSA,A,3,05,10,12,15,26,27,,,,,,,2.1,1.6,1.3*36
$GPRMC,162536.000,A,2233.2038,N,11413.8090,E,0.0,105.6,040191,,,A*6A
$GPGGA,162536.000,2233.2038,N,11413.8090,E,1,06,1.6,51.9,M,14.2,M,,0000*6C
$GPVTG,105.6,T,,M,0.0,N,0.0,K,A*0F
$GPGLL,2233.2038,N,11413.8090,E,162536.00,A,A*62
$GPGSA,A,3,05,10,12,15,26,27,,,,,,,2.1,1.6,1.3*36
$GPGSV,3,1,11,10,25,044,17,05,50,000,16,02,52,081,12,27,06,178,35*78
$GPGSV,3,2,11,12,08,224,21,26,74,166,35,15,50,206,40,29,32,310,17*7B
$GPGSV,3,3,11,04,19,108,,08,13,080,,30,04,254,*4A
$GPRMC,162537.000,A,2233.2038,N,11413.8090,E,0.0,105.6,040191,,,A*6B
$GPGGA,162537.000,2233.2038,N,11413.8090,E,1,06,1.6,51.9,M,14.2,M,,0000*6D
$GPVTG,105.6,T,,M,0.0,N,0.0,K,A*0F
$GPGLL,2233.2038,N,11413.8090,E,162537.00,A,A*63
$GPGSA,A,3,05,10,12,15,26,27,,,,,,,2.1,1.6,1.3*36
$GPRMC,162538.000,A,2233.2038,N,11413.8090,E,0.0,105.6,040191,,,A*64
$GPGGA,162538.000,2233.2038,N,11413.8090,E,1,06,1.6,51.9,M,14.2,M,,0000*62
$GPVTG,105.6,T,,M,0.0,N,0.0,K,A*0F
$GPGLL,2233.2038,N,11413.8090,E,162538.00,A,A*6C
$GPGSA,A,3,05,10,12,15,26,27,,,,,,,2.1,1.6,1.3*36
$GPRMC,162539.000,A,2233.2038,N,11413.8090,E,0.0,105.6,040191,,,A*65
$GPGGA,162539.000,2233.2038,N,11413.8090,E,1,06,1.6,51.9,M,14.2,M,,0000*63
$GPVTG,105.6,T,,M,0.0,N,0.0,K,A*0F
$GPGLL,2233.2038,N,11413.8090,E,162539.00,A,A*6D
$GPGSA,A,3,05,10,12,15,26,27,,,,,,,2.1,1.6,1.3*36
$GPRMC,162540.000,A,2233.2038,N,11413.8090,E,0.0,105.6,040191,,,A*6B
$GPGGA,162540.000,2233.2038,N,11413.8090,E,1,06,1.6,51.9,M,14.2,M,,0000*6D
$GPVTG,105.6,T,,M,0.0,N,0.0,K,A*0F
$GPGLL,2233.2038,N,11413.8090,E,162540.00,A,A*63
$GPGSA,A,3,05,10,12,15,26,27,,,,,,,2.1,1.6,1.3*36
$GPRMC,162541.000,A,2233.2038,N,11413.8090,E,0.0,105.6,040191,,,A*6A
$GPGGA,162541.000,2233.2038,N,11413.8090,E,1,07,1.4,51.9,M,14.2,M,,0000*6F
$GPVTG,105.6,T,,M,0.0,N,0.0,K,A*0F
$GPGLL,2233.2038,N,11413.8090,E,162541.00,A,A*62
$GPGSA,A,3,02,05,10,12,15,26,27,,,,,,1.9,1.4,1.3*3D
$GPGSV,3,1,11,10,25,044,14,05,50,000,17,02,52,081,,27,06,178,34*78
$GPGSV,3,2,11,12,08,224,22,26,74,166,35,15,51,206,40,29,32,310,16*78
$GPGSV,3,3,11,04,19,108,,08,13,080,,30,04,254,*4A
$GPRMC,162542.000,A,2233.2038,N,11413.8090,E,0.0,105.6,040191,,,A*69
$GPGGA,162542.000,2233.2038,N,11413.8090,E,1,06,1.6,51.9,M,14.2,M,,0000*6F
$GPVTG,105.6,T,,M,0.0,N,0.0,K,A*0F
$GPGLL,2233.2038,N,11413.8090,E,162542.00,A,A*61
$GPGSA,A,3,05,10,12,15,26,27,,,,,,,2.1,1.6,1.3*36
$GPRMC,162543.000,A,2233.2038,N,11413.8090,E,0.0,105.6,040191,,,A*68
$GPGGA,162543.000,2233.2038,N,11413.8090,E,1,07,1.4,51.9,M,14.2,M,,0000*6D
$GPVTG,105.6,T,,M,0.0,N,0.0,K,A*0F
$GPGLL,2233.2038,N,11413.8090,E,162543.00,A,A*60
$GPGSA,A,3,02,05,10,12,15,26,27,,,,,,1.9,1.4,1.3*3D
$GPRMC,162544.000,A,2233.2038,N,11413.8090,E,0.0,105.6,040191,,,A*6F
$GPGGA,162544.000,2233.2038,N,11413.8090,E,1,07,1.4,51.9,M,14.2,M,,0000*6A
$GPVTG,105.6,T,,M,0.0,N,0.0,K,A*0F
$GPGLL,2233.2038,N,11413.8090,E,162544.00,A,A*67
$GPGSA,A,3,02,05,10,12,15,26,27,,,,,,1.9,1.4,1.3*3D
$GPRMC,162545.000,A,2233.2038,N,11413.8090,E,0.0,105.6,040191,,,A*6E
$GPGGA,162545.000,2233.2038,N,11413.8090,E,1,06,1.6,51.9,M,14.2,M,,0000*68
$GPVTG,105.6,T,,M,0.0,N,0.0,K,A*0F
$GPGLL,2233.2038,N,11413.8090,E,162545.00,A,A*66
$GPGSA,A,3,05,10,12,15,26,27,,,,,,,2.1,1.6,1.3*36
$GPRMC,162546.000,A,2233.2038,N,11413.8090,E,0.0,105.6,040191,,,A*6D
$GPGGA,162546.000,2233.2038,N,11413.8090,E,1,06,1.6,51.9,M,14.2,M,,0000*6B
$GPVTG,105.6,T,,M,0.0,N,0.0,K,A*0F
$GPGLL,2233.2038,N,11413.8090,E,162546.00,A,A*65
$GPGSA,A,3,05,10,12,15,26,27,,,,,,,2.1,1.6,1.3*36
$GPGSV,3,1,11,10,25,044,13,05,50,000,13,02,52,081,16,27,06,178,36*7E
$GPGSV,3,2,11,12,08,224,20,26,74,166,35,15,51,206,41,29,32,310,18*75
$GPGSV,3,3,11,04,18,108,,08,13,080,,30,04,254,*4B
$GPRMC,162547.000,A,2233.2038,N,11413.8090,E,0.0,105.6,040191,,,A*6C
$GPGGA,162547.000,2233.2038,N,11413.8090,E,1,06,1.6,51.9,M,14.2,M,,0000*6A
$GPVTG,105.6,T,,M,0.0,N,0.0,K,A*0F
$GPGLL,2233.2038,N,11413.8090,E,162547.00,A,A*64
$GPGSA,A,3,05,10,12,15,26,27,,,,,,,2.1,1.6,1.3*36
$GPRMC,162548.000,A,2233.2038,N,11413.8090,E,0.0,105.6,040191,,,A*63
$GPGGA,162548.000,2233.2038,N,11413.8090,E,1,06,1.6,51.9,M,14.2,M,,0000*65
$GPVTG,105.6,T,,M,0.0,N,0.0,K,A*0F
$GPGLL,2233.2038,N,11413.8090,E,162548.00,A,A*6B
$GPGSA,A,3,05,10,12,15,26,27,,,,,,,2.1,1.6,1.3*36
$GPRMC,162549.000,A,2233.2038,N,11413.8090,E,0.0,105.6,040191,,,A*62
$GPGGA,162549.000,2233.2038,N,11413.8090,E,1,07,1.4,51.9,M,14.2,M,,0000*67
$GPVTG,105.6,T,,M,0.0,N,0.0,K,A*0F
$GPGLL,2233.2038,N,11413.8090,E,162549.00,A,A*6A
$GPGSA,A,3,02,05,10,12,15,26,27,,,,,,1.9,1.4,1.3*3D
$GPRMC,162550.000,A,2233.2038,N,11413.8090,E,0.0,105.6,040191,,,A*6A
$GPGGA,162550.000,2233.2038,N,11413.8090,E,1,07,1.4,51.9,M,14.2,M,,0000*6F
$GPVTG,105.6,T,,M,0.0,N,0.0,K,A*0F
$GPGLL,2233.2038,N,11413.8090,E,162550.00,A,A*62
$GPGSA,A,3,02,05,10,12,15,26,27,,,,,,1.9,1.4,1.3*3D
$GPRMC,162551.000,A,2233.2038,N,11413.8090,E,0.0,105.6,040191,,,A*6B
$GPGGA,162551.000,2233.2038,N,11413.8090,E,1,06,1.6,51.9,M,14.2,M,,0000*6D
$GPVTG,105.6,T,,M,0.0,N,0.0,K,A*0F
$GPGLL,2233.2038,N,11413.8090,E,162551.00,A,A*63
$GPGSA,A,3,05,10,12,15,26,27,,,,,,,2.1,1.6,1.3*36
$GPGSV,3,1,11,10,25,044,11,05,50,000,12,02,52,081,15,27,06,178,36*7E
$GPGSV,3,2,11,12,08,224,18,26,74,166,36,15,51,206,42,29,32,310,20*75
$GPGSV,3,3,11,04,18,108,,08,13,080,,30,04,254,*4B
$GPRMC,162552.000,A,2233.2038,N,11413.8090,E,0.0,105.6,040191,,,A*68
$GPGGA,162552.000,2233.2038,N,11413.8090,E,1,06,1.6,51.9,M,14.2,M,,0000*6E
$GPVTG,105.6,T,,M,0.0,N,0.0,K,A*0F
$GPGLL,2233.2038,N,11413.8090,E,162552.00,A,A*60
$GPGSA,A,3,05,10,12,15,26,27,,,,,,,2.1,1.6,1.3*36
$GPRMC,162553.000,A,2233.2038,N,11413.8090,E,0.0,105.6,040191,,,A*69
$GPGGA,162553.000,2233.2038,N,11413.8090,E,1,04,2.3,51.9,M,14.2,M,,0000*6B
$GPVTG,105.6,T,,M,0.0,N,0.0,K,A*0F
$GPGLL,2233.2038,N,11413.8090,E,162553.00,A,A*61
$GPGSA,A,3,05,12,26,27,,,,,,,,,3.2,2.3,2.2*35
$GPRMC,162554.000,A,2233.2038,N,11413.8090,E,0.0,105.6,040191,,,A*6E
$GPGGA,162554.000,2233.2038,N,11413.8090,E,1,04,2.3,51.9,M,14.2,M,,0000*6C
$GPVTG,105.6,T,,M,0.0,N,0.0,K,A*0F
$GPGLL,2233.2038,N,11413.8090,E,162554.00,A,A*66
$GPGSA,A,3,05,12,26,27,,,,,,,,,3.2,2.3,2.2*35
$GPRMC,162555.000,A,2233.2038,N,11413.8090,E,0.0,105.6,040191,,,A*6F
$GPGGA,162555.000,2233.2038,N,11413.8090,E,1,04,2.3,51.9,M,14.2,M,,0000*6D
$GPVTG,105.6,T,,M,0.0,N,0.0,K,A*0F
$GPGLL,2233.2038,N,11413.8090,E,162555.00,A,A*67
$GPGSA,A,3,05,12,26,27,,,,,,,,,3.2,2.3,2.2*35
$GPRMC,162556.000,A,2233.2038,N,11413.8090,E,0.0,105.6,040191,,,A*6C
$GPGGA,162556.000,2233.2038,N,11413.8090,E,1,04,2.3,51.9,M,14.2,M,,0000*6E
$GPVTG,105.6,T,,M,0.0,N,0.0,K,A*0F
$GPGLL,2233.2038,N,11413.8090,E,162556.00,A,A*64
$GPGSA,A,3,05,12,26,27,,,,,,,,,3.2,2.3,2.2*35
$GPGSV,3,1,11,27,06,178,35,12,08,224,17,26,75,166,36,15,51,206,42*79
$GPGSV,3,2,11,29,32,310,20,02,52,081,,05,50,001,,10,25,044,*79
$GPGSV,3,3,11,04,18,108,,08,13,080,,30,04,254,*4B
$GPRMC,162557.000,A,2233.2038,N,11413.8090,E,0.0,105.6,040191,,,A*6D
$GPGGA,162557.000,2233.2038,N,11413.8090,E,1,03,2.8,51.9,M,14.2,M,,0000*63
$GPVTG,105.6,T,,M,0.0,N,0.0,K,A*0F
$GPGLL,2233.2038,N,11413.8090,E,162557.00,A,A*65
$GPGSA,A,2,12,26,27,,,,,,,,,,2.9,2.8,0.9*39
$GPRMC,162558.000,A,2233.2038,N,11413.8090,E,0.0,105.6,040191,,,A*62
$GPGGA,162558.000,2233.2038,N,11413.8090,E,1,04,2.3,51.9,M,14.2,M,,0000*60
$GPVTG,105.6,T,,M,0.0,N,0.0,K,A*0F
$GPGLL,2233.2038,N,11413.8090,E,162558.00,A,A*6A
$GPGSA,A,3,05,12,26,27,,,,,,,,,3.2,2.3,2.2*35
$GPRMC,162559.000,A,2233.2038,N,11413.8090,E,0.0,105.6,040191,,,A*63
$GPGGA,162559.000,2233.2038,N,11413.8090,E,1,05,2.0,51.9,M,14.2,M,,0000*63
$GPVTG,105.6,T,,M,0.0,N,0.0,K,A*0F
$GPGLL,2233.2038,N,11413.8090,E,162559.00,A,A*6B
$GPGSA,A,3,05,12,15,26,27,,,,,,,,2.6,2.0,1.7*31
$GPRMC,162600.000,A,2233.2038,N,11413.8090,E,0.0,105.6,040191,,,A*6C
$GPGGA,162600.000,2233.2038,N,11413.8090,E,1,04,2.9,51.9,M,14.2,M,,0000*64
$GPVTG,105.6,T,,M,0.0,N,0.0,K,A*0F
$GPGLL,2233.2038,N,11413.8090,E,162600.00,A,A*64
$GPGSA,A,3,02,12,26,27,,,,,,,,,4.0,2.9,2.7*38
$GPRMC,162601.000,A,2233.2038,N,11413.8090,E,0.0,105.6,040191,,,A*6D
$GPGGA,162601.000,2233.2038,N,11413.8090,E,1,04,5.5,51.9,M,14.2,M,,0000*6E
$GPVTG,105.6,T,,M,0.0,N,0.0,K,A*0F
$GPGLL,2233.2038,N,11413.8090,E,162601.00,A,A*65
$GPGSA,A,3,12,15,26,27,,,,,,,,,6.7,5.5,3.9*3F
$GPGSV,3,1,11,05,50,001,12,02,52,082,14,27,06,178,35,12,08,224,22*77
$GPGSV,3,2,11,26,75,166,37,15,51,206,42,29,32,310,21,10,25,044,*74
$GPGSV,3,3,11,04,18,109,,08,13,080,,30,04,254,*4A
$GPRMC,162602.000,A,2233.2038,N,11413.8090,E,0.0,105.6,040191,,,A*6E
$GPGGA,162602.000,2233.2038,N,11413.8090,E,1,05,2.7,51.9,M,14.2,M,,0000*69
$GPVTG,105.6,T,,M,0.0,N,0.0,K,A*0F
$GPGLL,2233.2038,N,11413.8090,E,162602.00,A,A*66
$GPGSA,A,3,02,12,15,26,27,,,,,,,,3.4,2.7,2.0*36
$GPRMC,162603.000,A,2233.2038,N,11413.8090,E,0.0,105.6,040191,,,A*6F
$GPGGA,162603.000,2233.2038,N,11413.8090,E,1,06,1.6,51.9,M,14.2,M,,0000*69
$GPVTG,105.6,T,,M,0.0,N,0.0,K,A*0F
$GPGLL,2233.2038,N,11413.8090,E,162603.00,A,A*67
$GPGSA,A,3,02,05,12,15,26,27,,,,,,,2.3,1.6,1.7*33
$GPRMC,162604.000,A,2233.2038,N,11413.8090,E,0.0,105.6,040191,,,A*68
$GPGGA,162604.000,2233.2038,N,11413.8090,E,1,05,2.0,51.9,M,14.2,M,,0000*68
$GPVTG,105.6,T,,M,0.0,N,0.0,K,A*0F
$GPGLL,2233.2038,N,11413.8090,E,162604.00,A,A*60
$GPGSA,A,3,05,12,15,26,27,,,,,,,,2.6,2.0,1.7*31
$GPRMC,162605.000,A,2233.2038,N,11413.8090,E,0.0,105.6,040191,,,A*69
$GPGGA,162605.000,2233.2038,N,11413.8090,E,1,05,2.7,51.9,M,14.2,M,,0000*6E
$GPVTG,105.6,T,,M,0.0,N,0.0,K,A*0F
$GPGLL,2233.2038,N,11413.8090,E,162605.00,A,A*61
$GPGSA,A,3,02,12,15,26,27,,,,,,,,3.4,2.7,2.0*36
$GPRMC,162606.000,A,2233.2038,N,11413.8090,E,0.0,105.6,040191,,,A*6A
$GPGGA,162606.000,2233.2038,N,11413.8090,E,1,05,2.7,51.9,M,14.2,M,,0000*6D
$GPVTG,105.6,T,,M,0.0,N,0.0,K,A*0F
$GPGLL,2233.2038,N,11413.8090,E,162606.00,A,A*62
$GPGSA,A,3,02,12,15,26,27,,,,,,,,3.4,2.7,2.0*36
$GPGSV,3,1,11,05,50,001,15,02,52,082,19,27,06,178,34,12,08,224,22*7C
$GPGSV,3,2,11,26,75,166,37,15,51,206,40,29,32,310,20,10,25,044,*77
$GPGSV,3,3,11,04,18,109,,08,13,080,,30,04,254,*4A
$GPRMC,162607.000,A,2233.2038,N,11413.8090,E,0.0,105.6,040191,,,A*6B
$GPGGA,162607.000,2233.2038,N,11413.8090,E,1,04,5.5,51.9,M,14.2,M,,0000*68
$GPVTG,105.6,T,,M,0.0,N,0.0,K,A*0F
$GPGLL,2233.2038,N,11413.8090,E,162607.00,A,A*63
$GPGSA,A,3,12,15,26,27,,,,,,,,,6.7,5.5,3.9*3F
$GPRMC,162608.000,A,2233.2038,N,11413.8090,E,0.0,105.6,040191,,,A*64
$GPGGA,162608.000,2233.2038,N,11413.8090,E,1,05,2.7,51.9,M,14.2,M,,0000*63
$GPVTG,105.6,T,,M,0.0,N,0.0,K,A*0F
$GPGLL,2233.2038,N,11413.8090,E,162608.00,A,A*6C
$GPGSA,A,3,02,12,15,26,27,,,,,,,,3.4,2.7,2.0*36
$GPRMC,162609.000,A,2233.2038,N,11413.8090,E,0.0,105.6,040191,,,A*65
$GPGGA,162609.000,2233.2038,N,11413.8090,E,1,05,2.7,51.9,M,14.2,M,,0000*62
$GPVTG,105.6,T,,M,0.0,N,0.0,K,A*0F
$GPGLL,2233.2038,N,11413.8090,E,162609.00,A,A*6D
$GPGSA,A,3,02,12,15,26,27,,,,,,,,3.4,2.7,2.0*36
$GPRMC,162610.000,A,2233.2038,N,11413.8090,E,0.0,105.6,040191,,,A*6D
$GPGGA,162610.000,2233.2038,N,11413.8090,E,1,05,2.7,51.9,M,14.2,M,,0000*6A
$GPVTG,105.6,T,,M,0.0,N,0.0,K,A*0F
$GPGLL,2233.2038,N,11413.8090,E,162610.00,A,A*65
$GPGSA,A,3,02,12,15,26,27,,,,,,,,3.4,2.7,2.0*36
$GPRMC,162611.000,A,2233.2038,N,11413.8090,E,0.0,105.6,040191,,,A*6C
$GPGGA,162611.000,2233.2038,N,11413.8090,E,1,06,1.6,51.9,M,14.2,M,,0000*6A
$GPVTG,105.6,T,,M,0.0,N,0.0,K,A*0F
$GPGLL,2233.2038,N,11413.8090,E,162611.00,A,A*64
$GPGSA,A,3,02,05,12,15,26,27,,,,,,,2.3,1.6,1.7*33
$GPGSV,3,1,11,05,50,001,16,02,52,082,16,27,06,178,34,12,08,224,23*71
$GPGSV,3,2,11,26,75,166,37,15,51,207,39,29,32,310,20,10,25,044,*78
$GPGSV,3,3,11,04,18,109,,08,13,080,,30,04,254,*4A
$GPRMC,162612.000,A,2233.2038,N,11413.8090,E,0.0,105.6,040191,,,A*6F
$GPGGA,162612.000,2233.2038,N,11413.8090,E,1,06,1.6,51.9,M,14.2,M,,0000*69
$GPVTG,105.6,T,,M,0.0,N,0.0,K,A*0F
$GPGLL,2233.2038,N,11413.8090,E,162612.00,A,A*67
$GPGSA,A,3,02,05,12,15,26,27,,,,,,,2.3,1.6,1.7*33
$GPRMC,162613.000,A,2233.2038,N,11413.8090,E,0.0,105.6,040191,,,A*6E
$GPGGA,162613.000,2233.2038,N,11413.8090,E,1,06,1.6,51.9,M,14.2,M,,0000*68
$GPVTG,105.6,T,,M,0.0,N,0.0,K,A*0F
$GPGLL,2233.2038,N,11413.8090,E,162613.00,A,A*66
$GPGSA,A,3,02,05,12,15,26,27,,,,,,,2.3,1.6,1.7*33
$GPRMC,162614.000,A,2233.2038,N,11413.8090,E,0.0,105.6,040191,,,A*69
$GPGGA,162614.000,2233.2038,N,11413.8090,E,1,06,1.6,51.9,M,14.2,M,,0000*6F
$GPVTG,105.6,T,,M,0.0,N,0.0,K,A*0F
$GPGLL,2233.2038,N,11413.8090,E,162614.00,A,A*61
$GPGSA,A,3,02,05,12,15,26,27,,,,,,,2.3,1.6,1.7*33
$GPRMC,162615.000,A,2233.2038,N,11413.8090,E,0.0,105.6,040191,,,A*68
$GPGGA,162615.000,2233.2038,N,11413.8090,E,1,06,1.6,51.9,M,14.2,M,,0000*6E
$GPVTG,105.6,T,,M,0.0,N,0.0,K,A*0F
$GPGLL,2233.2038,N,11413.8090,E,162615.00,A,A*60
$GPGSA,A,3,02,05,12,15,26,27,,,,,,,2.3,1.6,1.7*33
$GPRMC,162616.000,A,2233.2038,N,11413.8090,E,0.0,105.6,040191,,,A*6B
$GPGGA,162616.000,2233.2038,N,11413.8090,E,1,06,1.6,51.9,M,14.2,M,,0000*6D
$GPVTG,105.6,T,,M,0.0,N,0.0,K,A*0F
$GPGLL,2233.2038,N,11413.8090,E,162616.00,A,A*63
$GPGSA,A,3,02,05,12,15,26,27,,,,,,,2.3,1.6,1.7*33
$GPGSV,3,1,11,05,50,001,16,02,52,082,14,27,06,178,34,12,08,224,24*74
$GPGSV,3,2,11,26,75,166,37,15,51,207,40,29,32,310,20,10,25,044,*76
$GPGSV,3,3,11,04,18,109,,08,13,080,,30,04,254,*4A
$GPRMC,162617.000,A,2233.2038,N,11413.8090,E,0.0,105.6,040191,,,A*6A
$GPGGA,162617.000,2233.2038,N,11413.8090,E,1,06,1.6,51.9,M,14.2,M,,0000*6C
$GPVTG,105.6,T,,M,0.0,N,0.0,K,A*0F
$GPGLL,2233.2038,N,11413.8090,E,162617.00,A,A*62
$GPGSA,A,3,02,05,12,15,26,27,,,,,,,2.3,1.6,1.7*33
$GPRMC,162618.000,A,2233.2038,N,11413.8090,E,0.0,105.6,040191,,,A*65
$GPGGA,162618.000,2233.2038,N,11413.8090,E,1,07,1.4,51.9,M,14.2,M,,0000*60
$GPVTG,105.6,T,,M,0.0,N,0.0,K,A*0F
$GPGLL,2233.2038,N,11413.8090,E,162618.00,A,A*6D
$GPGSA,A,3,02,05,10,12,15,26,27,,,,,,1.9,1.4,1.3*3D
$GPRMC,162619.000,A,2233.2038,N,11413.8090,E,0.0,105.6,040191,,,A*64
$GPGGA,162619.000,2233.2038,N,11413.8090,E,1,07,1.4,51.9,M,14.2,M,,0000*61
$GPVTG,105.6,T,,M,0.0,N,0.0,K,A*0F
$GPGLL,2233.2038,N,11413.8090,E,162619.00,A,A*6C
$GPGSA,A,3,02,05,10,12,15,26,27,,,,,,1.9,1.4,1.3*3D
$GPRMC,162620.000,A,2233.2038,N,11413.8090,E,0.0,105.6,040191,,,A*6E
$GPGGA,162620.000,2233.2038,N,11413.8090,E,1,06,1.6,51.9,M,14.2,M,,0000*68
$GPVTG,105.6,T,,M,0.0,N,0.0,K,A*0F
$GPGLL,2233.2038,N,11413.8090,E,162620.00,A,A*66
$GPGSA,A,3,05,10,12,15,26,27,,,,,,,2.1,1.6,1.3*36
$GPRMC,162621.000,A,2233.2038,N,11413.8090,E,0.0,105.6,040191,,,A*6F
$GPGGA,162621.000,2233.2038,N,11413.8090,E,1,06,1.6,51.9,M,14.2,M,,0000*69
$GPVTG,105.6,T,,M,0.0,N,0.0,K,A*0F
$GPGLL,2233.2038,N,11413.8090,E,162621.00,A,A*67
$GPGSA,A,3,05,10,12,15,26,27,,,,,,,2.1,1.6,1.3*36
$GPGSV,3,1,11,10,25,044,13,05,50,001,15,27,06,178,32,12,08,224,20*7B
$GPGSV,3,2,11,26,75,166,37,15,51,207,40,02,52,082,,29,32,310,*7D
$GPGSV,3,3,11,04,18,109,,08,13,080,,30,04,254,*4A
$GPRMC,162622.000,A,2233.2038,N,11413.8090,E,0.0,105.6,040191,,,A*6C
$GPGGA,162622.000,2233.2038,N,11413.8090,E,1,06,1.6,51.9,M,14.2,M,,0000*6A
$GPVTG,105.6,T,,M,0.0,N,0.0,K,A*0F
$GPGLL,2233.2038,N,11413.8090,E,162622.00,A,A*64
$GPGSA,A,3,05,10,12,15,26,27,,,,,,,2.1,1.6,1.3*36
$GPRMC,162623.000,A,2233.2038,N,11413.8090,E,0.0,105.6,040191,,,A*6D
$GPGGA,162623.000,2233.2038,N,11413.8090,E,1,06,1.6,51.9,M,14.2,M,,0000*6B
$GPVTG,105.6,T,,M,0.0,N,0.0,K,A*0F
$GPGLL,2233.2038,N,11413.8090,E,162623.00,A,A*65
$GPGSA,A,3,05,10,12,15,26,27,,,,,,,2.1,1.6,1.3*36
$GPRMC,162624.000,A,2233.2038,N,11413.8090,E,0.0,105.6,040191,,,A*6A
$GPGGA,162624.000,2233.2038,N,11413.8090,E,1,06,1.6,51.9,M,14.2,M,,0000*6C
$GPVTG,105.6,T,,M,0.0,N,0.0,K,A*0F
$GPGLL,2233.2038,N,11413.8090,E,162624.00,A,A*62
$GPGSA,A,3,05,10,12,15,26,27,,,,,,,2.1,1.6,1.3*36
$GPRMC,162625.000,A,2233.2038,N,11413.8090,E,0.0,105.6,040191,,,A*6B
$GPGGA,162625.000,2233.2038,N,11413.8090,E,1,06,1.6,51.9,M,14.2,M,,0000*6D
$GPVTG,105.6,T,,M,0.0,N,0.0,K,A*0F
$GPGLL,2233.2038,N,11413.8090,E,162625.00,A,A*63
$GPGSA,A,3,05,10,12,15,26,27,,,,,,,2.1,1.6,1.3*36
$GPRMC,162626.000,A,2233.2038,N,11413.8090,E,0.0,105.6,040191,,,A*68
$GPGGA,162626.000,2233.2038,N,11413.8090,E,1,06,1.6,51.9,M,14.2,M,,0000*6E
$GPVTG,105.6,T,,M,0.0,N,0.0,K,A*0F
$GPGLL,2233.2038,N,11413.8090,E,162626.00,A,A*60
$GPGSA,A,3,05,10,12,15,26,27,,,,,,,2.1,1.6,1.3*36
$GPGSV,3,1,11,10,25,044,14,05,50,001,14,02,52,082,15,27,06,178,32*7B
$GPGSV,3,2,11,12,08,224,20,26,75,166,36,15,51,207,41,29,32,310,*7F
$GPGSV,3,3,11,04,18,109,,08,13,080,,30,04,254,*4A
$GPRMC,162627.000,A,2233.2038,N,11413.8090,E,0.0,105.6,040191,,,A*69
$GPGGA,162627.000,2233.2038,N,11413.8090,E,1,07,1.4,51.9,M,14.2,M,,0000*6C
$GPVTG,105.6,T,,M,0.0,N,0.0,K,A*0F
$GPGLL,2233.2038,N,11413.8090,E,162627.00,A,A*61
$GPGSA,A,3,02,05,10,12,15,26,27,,,,,,1.9,1.4,1.3*3D
$GPRMC,162628.000,A,2233.2038,N,11413.8090,E,0.0,105.6,040191,,,A*66
$GPGGA,162628.000,2233.2038,N,11413.8090,E,1,07,1.4,51.9,M,14.2,M,,0000*63
$GPVTG,105.6,T,,M,0.0,N,0.0,K,A*0F
$GPGLL,2233.2038,N,11413.8090,E,162628.00,A,A*6E
$GPGSA,A,3,02,05,10,12,15,26,27,,,,,,1.9,1.4,1.3*3D
$GPRMC,162629.000,A,2233.2038,N,11413.8090,E,0.0,105.6,040191,,,A*67
$GPGGA,162629.000,2233.2038,N,11413.8090,E,1,06,1.6,51.9,M,14.2,M,,0000*61
$GPVTG,105.6,T,,M,0.0,N,0.0,K,A*0F
$GPGLL,2233.2038,N,11413.8090,E,162629.00,A,A*6F
$GPGSA,A,3,05,10,12,15,26,27,,,,,,,2.1,1.6,1.3*36
$GPRMC,162630.000,A,2233.2038,N,11413.8090,E,0.0,105.6,040191,,,A*6F
$GPGGA,162630.000,2233.2038,N,11413.8090,E,1,06,1.6,51.9,M,14.2,M,,0000*69
$GPVTG,105.6,T,,M,0.0,N,0.0,K,A*0F
$GPGLL,2233.2038,N,11413.8090,E,162630.00,A,A*67
$GPGSA,A,3,05,10,12,15,26,27,,,,,,,2.1,1.6,1.3*36
$GPRMC,162631.000,A,2233.2038,N,11413.8090,E,0.0,105.6,040191,,,A*6E
$GPGGA,162631.000,2233.2038,N,11413.8090,E,1,06,1.6,51.9,M,14.2,M,,0000*68
$GPVTG,105.6,T,,M,0.0,N,0.0,K,A*0F
$GPGLL,2233.2038,N,11413.8090,E,162631.00,A,A*66
$GPGSA,A,3,05,10,12,15,26,27,,,,,,,2.1,1.6,1.3*36
$GPGSV,3,1,11,10,25,044,20,05,50,001,11,27,06,178,33,12,08,223,24*7D
$GPGSV,3,2,11,26,75,166,36,15,51,207,41,02,52,082,,29,32,310,*7D
$GPGSV,3,3,11,04,18,109,,08,13,080,,30,04,254,*4A
$GPRMC,162632.000,A,2233.2038,N,11413.8090,E,0.0,105.6,040191,,,A*6D
$GPGGA,162632.000,2233.2038,N,11413.8090,E,1,06,1.6,51.9,M,14.2,M,,0000*6B
$GPVTG,105.6,T,,M,0.0,N,0.0,K,A*0F
$GPGLL,2233.2038,N,11413.8090,E,162632.00,A,A*65
$GPGSA,A,3,05,10,12,15,26,27,,,,,,,2.1,1.6,1.3*36
$GPRMC,162633.000,A,2233.2038,N,11413.8090,E,0.0,105.6,040191,,,A*6C
$GPGGA,162633.000,2233.2038,N,11413.8090,E,1,06,1.6,51.9,M,14.2,M,,0000*6A
$GPVTG,105.6,T,,M,0.0,N,0.0,K,A*0F
$GPGLL,2233.2038,N,11413.8090,E,162633.00,A,A*64
$GPGSA,A,3,05,10,12,15,26,27,,,,,,,2.1,1.6,1.3*36
$GPRMC,162634.000,A,2233.2038,N,11413.8090,E,0.0,105.6,040191,,,A*6B
$GPGGA,162634.000,2233.2038,N,11413.8090,E,1,06,1.6,51.9,M,14.2,M,,0000*6D
$GPVTG,105.6,T,,M,0.0,N,0.0,K,A*0F
$GPGLL,2233.2038,N,11413.8090,E,162634.00,A,A*63
$GPGSA,A,3,05,10,12,15,26,27,,,,,,,2.1,1.6,1.3*36
$GPRMC,162635.000,A,2233.2038,N,11413.8090,E,0.0,105.6,040191,,,A*6A
$GPGGA,162635.000,2233.2038,N,11413.8090,E,1,06,1.8,51.9,M,14.2,M,,0000*62
$GPVTG,105.6,T,,M,0.0,N,0.0,K,A*0F
$GPGLL,2233.2038,N,11413.8090,E,162635.00,A,A*62
$GPGSA,A,3,02,10,12,15,26,27,,,,,,,2.2,1.8,1.3*3C
$GPRMC,162636.000,A,2233.2038,N,11413.8090,E,0.0,105.6,040191,,,A*69
$GPGGA,162636.000,2233.2038,N,11413.8090,E,1,05,2.0,51.9,M,14.2,M,,0000*69
$GPVTG,105.6,T,,M,0.0,N,0.0,K,A*0F
$GPGLL,2233.2038,N,11413.8090,E,162636.00,A,A*61
$GPGSA,A,3,10,12,15,26,27,,,,,,,,2.4,2.0,1.3*33
$GPGSV,3,1,11,10,25,044,20,05,50,001,11,02,52,082,15,27,06,178,34*7F
$GPGSV,3,2,11,12,08,223,22,26,75,166,36,15,51,207,40,29,33,309,17*74
$GPGSV,3,3,11,04,18,109,,08,13,080,,30,04,254,*4A
$GPRMC,162637.000,A,2233.2038,N,11413.8090,E,0.0,105.6,040191,,,A*68
$GPGGA,162637.000,2233.2038,N,11413.8090,E,1,06,1.8,51.9,M,14.2,M,,0000*60
$GPVTG,105.6,T,,M,0.0,N,0.0,K,A*0F
$GPGLL,2233.2038,N,11413.8090,E,162637.00,A,A*60
$GPGSA,A,3,02,10,12,15,26,27,,,,,,,2.2,1.8,1.3*3C
$GPRMC,162638.000,A,2233.2038,N,11413.8090,E,0.0,105.6,040191,,,A*67
$GPGGA,162638.000,2233.2038,N,11413.8090,E,1,06,1.8,51.9,M,14.2,M,,0000*6F
$GPVTG,105.6,T,,M,0.0,N,0.0,K,A*0F
$GPGLL,2233.2038,N,11413.8090,E,162638.00,A,A*6F
$GPGSA,A,3,02,10,12,15,26,27,,,,,,,2.2,1.8,1.3*3C
$GPRMC,162639.000,A,2233.2038,N,11413.8090,E,0.0,105.6,040191,,,A*66
$GPGGA,162639.000,2233.2038,N,11413.8090,E,1,05,2.0,51.9,M,14.2,M,,0000*66
$GPVTG,105.6,T,,M,0.0,N,0.0,K,A*0F
$GPGLL,2233.2038,N,11413.8090,E,162639.00,A,A*6E
$GPGSA,A,3,10,12,15,26,27,,,,,,,,2.4,2.0,1.3*33
$GPRMC,162640.000,A,2233.2038,N,11413.8090,E,0.0,105.6,040191,,,A*68
$GPGGA,162640.000,2233.2038,N,11413.8090,E,1,05,2.0,51.9,M,14.2,M,,0000*68
$GPVTG,105.6,T,,M,0.0,N,0.0,K,A*0F
$GPGLL,2233.2038,N,11413.8090,E,162640.00,A,A*60
$GPGSA,A,3,10,12,15,26,27,,,,,,,,2.4,2.0,1.3*33
$GPRMC,162641.000,A,2233.2038,N,11413.8090,E,0.0,105.6,040191,,,A*69
$GPGGA,162641.000,2233.2038,N,11413.8090,E,1,05,2.0,51.9,M,14.2,M,,0000*69
$GPVTG,105.6,T,,M,0.0,N,0.0,K,A*0F
$GPGLL,2233.2038,N,11413.8090,E,162641.00,A,A*61
$GPGSA,A,3,10,12,15,26,27,,,,,,,,2.4,2.0,1.3*33
$GPGSV,3,1,11,10,25,044,18,05,50,001,15,27,06,178,34,12,08,223,22*73
$GPGSV,3,2,11,26,75,166,36,15,51,207,39,29,33,309,20,02,52,082,*79
$GPGSV,3,3,11,04,18,109,,08,13,080,,30,04,254,*4A
$GPRMC,162642.000,A,2233.2038,N,11413.8090,E,0.0,105.6,040191,,,A*6A
$GPGGA,162642.000,2233.2038,N,11413.8090,E,1,06,1.6,51.9,M,14.2,M,,0000*6C
$GPVTG,105.6,T,,M,0.0,N,0.0,K,A*0F
$GPGLL,2233.2038,N,11413.8090,E,162642.00,A,A*62
$GPGSA,A,3,05,10,12,15,26,27,,,,,,,2.1,1.6,1.3*36
$GPRMC,162643.000,A,2233.2038,N,11413.8090,E,0.0,105.6,040191,,,A*6B
$GPGGA,162643.000,2233.2038,N,11413.8090,E,1,07,1.4,51.9,M,14.2,M,,0000*6E
$GPVTG,105.6,T,,M,0.0,N,0.0,K,A*0F
$GPGLL,2233.2038,N,11413.8090,E,162643.00,A,A*63
$GPGSA,A,3,02,05,10,12,15,26,27,,,,,,1.9,1.4,1.3*3D
$GPRMC,162644.000,A,2233.2038,N,11413.8090,E,0.0,105.6,040191,,,A*6C
$GPGGA,162644.000,2233.2038,N,11413.8090,E,1,06,1.8,51.9,M,14.2,M,,0000*64
$GPVTG,105.6,T,,M,0.0,N,0.0,K,A*0F
$GPGLL,2233.2038,N,11413.8090,E,162644.00,A,A*64
$GPGSA,A,3,02,10,12,15,26,27,,,,,,,2.2,1.8,1.3*3C
$GPRMC,162645.000,A,2233.2038,N,11413.8090,E,0.0,105.6,040191,,,A*6D
$GPGGA,162645.000,2233.2038,N,11413.8090,E,1,05,2.0,51.9,M,14.2,M,,0000*6D
$GPVTG,105.6,T,,M,0.0,N,0.0,K,A*0F
$GPGLL,2233.2038,N,11413.8090,E,162645.00,A,A*65
$GPGSA,A,3,10,12,15,26,27,,,,,,,,2.4,2.0,1.3*33
$GPRMC,162646.000,A,2233.2038,N,11413.8090,E,0.0,105.6,040191,,,A*6E
$GPGGA,162646.000,2233.2038,N,11413.8090,E,1,05,2.0,51.9,M,14.2,M,,0000*6E
$GPVTG,105.6,T,,M,0.0,N,0.0,K,A*0F
$GPGLL,2233.2038,N,11413.8090,E,162646.00,A,A*66
$GPGSA,A,3,10,12,15,26,27,,,,,,,,2.4,2.0,1.3*33
$GPGSV,3,1,11,10,25,044,17,02,52,082,15,27,06,178,34,12,08,223,20*70
$GPGSV,3,2,11,26,75,166,36,15,51,207,39,29,33,309,17,05,50,001,*73
$GPGSV,3,3,11,04,18,109,,08,13,080,,30,04,254,*4A
$GPRMC,162647.000,A,2233.2038,N,11413.8090,E,0.0,105.6,040191,,,A*6F
$GPGGA,162647.000,2233.2038,N,11413.8090,E,1,05,2.0,51.9,M,14.2,M,,0000*6F
$GPVTG,105.6,T,,M,0.0,N,0.0,K,A*0F
$GPGLL,2233.2038,N,11413.8090,E,162647.00,A,A*67
$GPGSA,A,3,10,12,15,26,27,,,,,,,,2.4,2.0,1.3*33
$GPRMC,162648.000,A,2233.2038,N,11413.8090,E,0.0,105.6,040191,,,A*60
$GPGGA,162648.000,2233.2038,N,11413.8090,E,1,04,5.5,51.9,M,14.2,M,,0000*63
$GPVTG,105.6,T,,M,0.0,N,0.0,K,A*0F
$GPGLL,2233.2038,N,11413.8090,E,162648.00,A,A*68
$GPGSA,A,3,12,15,26,27,,,,,,,,,6.7,5.5,3.9*3F
$GPRMC,162649.000,A,2233.2038,N,11413.8090,E,0.0,105.6,040191,,,A*61
$GPGGA,162649.000,2233.2038,N,11413.8090,E,1,05,2.0,51.9,M,14.2,M,,0000*61
$GPVTG,105.6,T,,M,0.0,N,0.0,K,A*0F
$GPGLL,2233.2038,N,11413.8090,E,162649.00,A,A*69
$GPGSA,A,3,10,12,15,26,27,,,,,,,,2.4,2.0,1.3*33
$GPRMC,162650.000,A,2233.2038,N,11413.8090,E,0.0,105.6,040191,,,A*69
$GPGGA,162650.000,2233.2038,N,11413.8090,E,1,06,1.8,51.9,M,14.2,M,,0000*61
$GPVTG,105.6,T,,M,0.0,N,0.0,K,A*0F
$GPGLL,2233.2038,N,11413.8090,E,162650.00,A,A*61
$GPGSA,A,3,02,10,12,15,26,27,,,,,,,2.2,1.8,1.3*3C
$GPRMC,162651.000,A,2233.2038,N,11413.8090,E,0.0,105.6,040191,,,A*68
$GPGGA,162651.000,2233.2038,N,11413.8090,E,1,06,1.8,51.9,M,14.2,M,,0000*60
$GPVTG,105.6,T,,M,0.0,N,0.0,K,A*0F
$GPGLL,2233.2038,N,11413.8090,E,162651.00,A,A*60
$GPGSA,A,3,02,10,12,15,26,27,,,,,,,2.2,1.8,1.3*3C
$GPGSV,3,1,11,10,25,044,15,02,52,082,13,27,06,178,34,12,08,223,20*74
$GPGSV,3,2,11,26,75,165,35,15,51,207,39,29,33,309,22,05,50,001,*75
$GPGSV,3,3,11,04,18,109,,08,13,080,,30,04,254,*4A
$GPRMC,162652.000,A,2233.2038,N,11413.8090,E,0.0,105.6,040191,,,A*6B
$GPGGA,162652.000,2233.2038,N,11413.8090,E,1,05,2.7,51.9,M,14.2,M,,0000*6C
$GPVTG,105.6,T,,M,0.0,N,0.0,K,A*0F
$GPGLL,2233.2038,N,11413.8090,E,162652.00,A,A*63
$GPGSA,A,3,02,12,15,26,27,,,,,,,,3.4,2.7,2.1*37
$GPRMC,162653.000,A,2233.2038,N,11413.8090,E,0.0,105.6,040191,,,A*6A
$GPGGA,162653.000,2233.2038,N,11413.8090,E,1,05,2.7,51.9,M,14.2,M,,0000*6D
$GPVTG,105.6,T,,M,0.0,N,0.0,K,A*0F
$GPGLL,2233.2038,N,11413.8090,E,162653.00,A,A*62
$GPGSA,A,3,02,12,15,26,27,,,,,,,,3.4,2.7,2.1*37
$GPRMC,162654.000,A,2233.2038,N,11413.8090,E,0.0,105.6,040191,,,A*6D
$GPGGA,162654.000,2233.2038,N,11413.8090,E,1,05,2.7,51.9,M,14.2,M,,0000*6A
$GPVTG,105.6,T,,M,0.0,N,0.0,K,A*0F
$GPGLL,2233.2038,N,11413.8090,E,162654.00,A,A*65
$GPGSA,A,3,02,12,15,26,27,,,,,,,,3.4,2.7,2.1*37
$GPRMC,162655.000,A,2233.2038,N,11413.8090,E,0.0,105.6,040191,,,A*6C
$GPGGA,162655.000,2233.2038,N,11413.8090,E,1,05,2.7,51.9,M,14.2,M,,0000*6B
$GPVTG,105.6,T,,M,0.0,N,0.0,K,A*0F
$GPGLL,2233.2038,N,11413.8090,E,162655.00,A,A*64
$GPGSA,A,3,02,12,15,26,27,,,,,,,,3.4,2.7,2.1*37
$GPRMC,162656.000,A,2233.2038,N,11413.8090,E,0.0,105.6,040191,,,A*6F
$GPGGA,162656.000,2233.2038,N,11413.8090,E,1,05,2.7,51.9,M,14.2,M,,0000*68
$GPVTG,105.6,T,,M,0.0,N,0.0,K,A*0F
$GPGLL,2233.2038,N,11413.8090,E,162656.00,A,A*67
$GPGSA,A,3,02,12,15,26,27,,,,,,,,3.4,2.7,2.1*37
$GPGSV,3,1,11,02,52,082,13,27,06,178,34,12,08,223,23,26,75,165,35*77
$GPGSV,3,2,11,15,51,207,38,29,33,309,21,05,50,001,,10,25,044,*73
$GPGSV,3,3,11,04,18,109,,08,13,080,,30,04,254,*4A
$GPRMC,162657.000,A,2233.2038,N,11413.8090,E,0.0,105.6,040191,,,A*6E
$GPGGA,162657.000,2233.2038,N,11413.8090,E,1,05,2.7,51.9,M,14.2,M,,0000*69
$GPVTG,105.6,T,,M,0.0,N,0.0,K,A*0F
$GPGLL,2233.2038,N,11413.8090,E,162657.00,A,A*66
$GPGSA,A,3,02,12,15,26,27,,,,,,,,3.4,2.7,2.1*37
$GPRMC,162658.000,A,2233.2038,N,11413.8090,E,0.0,105.6,040191,,,A*61
$GPGGA,162658.000,2233.2038,N,11413.8090,E,1,05,2.7,51.9,M,14.2,M,,0000*66
$GPVTG,105.6,T,,M,0.0,N,0.0,K,A*0F
$GPGLL,2233.2038,N,11413.8090,E,162658.00,A,A*69
$GPGSA,A,3,02,12,15,26,27,,,,,,,,3.4,2.7,2.1*37
$GPRMC,162659.000,A,2233.2038,N,11413.8090,E,0.0,105.6,040191,,,A*60
$GPGGA,162659.000,2233.2038,N,11413.8090,E,1,05,2.7,51.9,M,14.2,M,,0000*67
$GPVTG,105.6,T,,M,0.0,N,0.0,K,A*0F
$GPGLL,2233.2038,N,11413.8090,E,162659.00,A,A*68
$GPGSA,A,3,02,12,15,26,27,,,,,,,,3.4,2.7,2.1*37
$GPRMC,162700.000,A,2233.2038,N,11413.8090,E,0.0,105.6,040191,,,A*6D
$GPGGA,162700.000,2233.2038,N,11413.8090,E,1,06,1.8,51.9,M,14.2,M,,0000*65
$GPVTG,105.6,T,,M,0.0,N,0.0,K,A*0F
$GPGLL,2233.2038,N,11413.8090,E,162700.00,A,A*65
$GPGSA,A,3,02,10,12,15,26,27,,,,,,,2.2,1.8,1.3*3C
$GPRMC,162701.000,A,2233.2038,N,11413.8090,E,0.0,105.6,040191,,,A*6C
$GPGGA,162701.000,2233.2038,N,11413.8090,E,1,06,1.8,51.9,M,14.2,M,,0000*64
$GPVTG,105.6,T,,M,0.0,N,0.0,K,A*0F
$GPGLL,2233.2038,N,11413.8090,E,162701.00,A,A*64
$GPGSA,A,3,02,10,12,15,26,27,,,,,,,2.2,1.8,1.3*3C
$GPGSV,3,1,11,10,25,044,14,02,52,082,14,27,06,178,34,12,08,223,22*70
$GPGSV,3,2,11,26,75,165,35,15,51,207,39,29,33,309,20,05,50,001,*77
$GPGSV,3,3,11,04,18,109,,08,13,080,,30,04,254,*4A
$GPRMC,162702.000,A,2233.2038,N,11413.8090,E,0.0,105.6,040191,,,A*6F
$GPGGA,162702.000,2233.2038,N,11413.8090,E,1,06,1.8,51.9,M,14.2,M,,0000*67
$GPVTG,105.6,T,,M,0.0,N,0.0,K,A*0F
$GPGLL,2233.2038,N,11413.8090,E,162702.00,A,A*67
$GPGSA,A,3,02,10,12,15,26,27,,,,,,,2.2,1.8,1.3*3C
$GPRMC,162703.000,A,2233.2038,N,11413.8090,E,0.0,105.6,040191,,,A*6E
$GPGGA,162703.000,2233.2038,N,11413.8090,E,1,06,1.8,51.9,M,14.2,M,,0000*66
$GPVTG,105.6,T,,M,0.0,N,0.0,K,A*0F
$GPGLL,2233.2038,N,11413.8090,E,162703.00,A,A*66
$GPGSA,A,3,02,10,12,15,26,27,,,,,,,2.2,1.8,1.3*3C
$GPRMC,162704.000,A,2233.2038,N,11413.8090,E,0.0,105.6,040191,,,A*69
$GPGGA,162704.000,2233.2038,N,11413.8090,E,1,06,1.8,51.9,M,14.2,M,,0000*61
$GPVTG,105.6,T,,M,0.0,N,0.0,K,A*0F
$GPGLL,2233.2038,N,11413.8090,E,162704.00,A,A*61
$GPGSA,A,3,02,10,12,15,26,27,,,,,,,2.2,1.8,1.3*3C
$GPRMC,162705.000,A,2233.2038,N,11413.8090,E,0.0,105.6,040191,,,A*68
$GPGGA,162705.000,2233.2038,N,11413.8090,E,1,06,1.8,51.9,M,14.2,M,,0000*60
$GPVTG,105.6,T,,M,0.0,N,0.0,K,A*0F
$GPGLL,2233.2038,N,11413.8090,E,162705.00,A,A*60
$GPGSA,A,3,02,10,12,15,26,27,,,,,,,2.2,1.8,1.3*3C
$GPRMC,162706.000,A,2233.2038,N,11413.8090,E,0.0,105.6,040191,,,A*6B
$GPGGA,162706.000,2233.2038,N,11413.8090,E,1,06,1.8,51.9,M,14.2,M,,0000*63
$GPVTG,105.6,T,,M,0.0,N,0.0,K,A*0F
$GPGLL,2233.2038,N,11413.8090,E,162706.00,A,A*63
$GPGSA,A,3,02,10,12,15,26,27,,,,,,,2.2,1.8,1.3*3C
$GPGSV,3,1,11,10,25,044,17,02,52,082,13,27,06,178,34,12,08,223,18*7D
$GPGSV,3,2,11,26,75,165,35,15,51,207,40,29,33,309,19,05,50,001,*73
$GPGSV,3,3,11,04,18,109,,08,13,080,,30,04,254,*4A
$GPRMC,162707.000,A,2233.2038,N,11413.8090,E,0.0,105.6,040191,,,A*6A
$GPGGA,162707.000,2233.2038,N,11413.8090,E,1,06,1.8,51.9,M,14.2,M,,0000*62
$GPVTG,105.6,T,,M,0.0,N,0.0,K,A*0F
$GPGLL,2233.2038,N,11413.8090,E,162707.00,A,A*62
$GPGSA,A,3,02,10,12,15,26,27,,,,,,,2.2,1.8,1.3*3C
$GPRMC,162708.000,A,2233.2038,N,11413.8090,E,0.0,105.6,040191,,,A*65
$GPGGA,162708.000,2233.2038,N,11413.8090,E,1,06,1.8,51.9,M,14.2,M,,0000*6D
$GPVTG,105.6,T,,M,0.0,N,0.0,K,A*0F
$GPGLL,2233.2038,N,11413.8090,E,162708.00,A,A*6D
$GPGSA,A,3,02,10,12,15,26,27,,,,,,,2.2,1.8,1.3*3C
$GPRMC,162709.000,A,2233.2038,N,11413.8090,E,0.0,105.6,040191,,,A*64
$GPGGA,162709.000,2233.2038,N,11413.8090,E,1,06,1.8,51.9,M,14.2,M,,0000*6C
$GPVTG,105.6,T,,M,0.0,N,0.0,K,A*0F
$GPGLL,2233.2038,N,11413.8090,E,162709.00,A,A*6C
$GPGSA,A,3,02,10,12,15,26,27,,,,,,,2.2,1.8,1.3*3C
$GPRMC,162710.000,A,2233.2038,N,11413.8090,E,0.0,105.6,040191,,,A*6C
$GPGGA,162710.000,2233.2038,N,11413.8090,E,1,06,1.8,51.9,M,14.2,M,,0000*64
$GPVTG,105.6,T,,M,0.0,N,0.0,K,A*0F
$GPGLL,2233.2038,N,11413.8090,E,162710.00,A,A*64
$GPGSA,A,3,02,10,12,15,26,27,,,,,,,2.2,1.8,1.3*3C
$GPRMC,162711.000,A,2233.2038,N,11413.8090,E,0.0,105.6,040191,,,A*6D
$GPGGA,162711.000,2233.2038,N,11413.8090,E,1,06,1.8,51.9,M,14.2,M,,0000*65
$GPVTG,105.6,T,,M,0.0,N,0.0,K,A*0F
$GPGLL,2233.2038,N,11413.8090,E,162711.00,A,A*65
$GPGSA,A,3,02,10,12,15,26,27,,,,,,,2.2,1.8,1.3*3C
$GPGSV,3,1,11,10,25,044,20,02,52,082,12,27,06,178,35,12,08,223,17*76
$GPGSV,3,2,11,26,75,165,35,15,51,207,41,29,33,309,17,05,50,001,*7C
$GPGSV,3,3,11,04,18,109,,08,13,079,,30,04,254,*4C
$GPRMC,162712.000,A,2233.2038,N,11413.8090,E,0.0,105.6,040191,,,A*6E
$GPGGA,162712.000,2233.2038,N,11413.8090,E,1,06,1.8,51.9,M,14.2,M,,0000*66
$GPVTG,105.6,T,,M,0.0,N,0.0,K,A*0F
$GPGLL,2233.2038,N,11413.8090,E,162712.00,A,A*66
$GPGSA,A,3,02,10,12,15,26,27,,,,,,,2.2,1.8,1.3*3C
$GPRMC,162713.000,A,2233.2038,N,11413.8090,E,0.0,105.6,040191,,,A*6F
$GPGGA,162713.000,2233.2038,N,11413.8090,E,1,07,1.4,51.9,M,14.2,M,,0000*6A
$GPVTG,105.6,T,,M,0.0,N,0.0,K,A*0F
$GPGLL,2233.2038,N,11413.8090,E,162713.00,A,A*67
$GPGSA,A,3,02,05,10,12,15,26,27,,,,,,1.9,1.4,1.3*3D
$GPRMC,162714.000,A,2233.2038,N,11413.8090,E,0.0,105.6,040191,,,A*68
$GPGGA,162714.000,2233.2038,N,11413.8090,E,1,07,1.4,51.9,M,14.2,M,,0000*6D
$GPVTG,105.6,T,,M,0.0,N,0.0,K,A*0F
$GPGLL,2233.2038,N,11413.8090,E,162714.00,A,A*60
$GPGSA,A,3,02,05,10,12,15,26,27,,,,,,1.9,1.4,1.3*3D
$GPRMC,162715.000,A,2233.2038,N,11413.8090,E,0.0,105.6,040191,,,A*69
$GPGGA,162715.000,2233.2038,N,11413.8090,E,1,07,1.4,51.9,M,14.2,M,,0000*6C
$GPVTG,105.6,T,,M,0.0,N,0.0,K,A*0F
$GPGLL,2233.2038,N,11413.8090,E,162715.00,A,A*61
$GPGSA,A,3,02,05,10,12,15,26,27,,,,,,1.9,1.4,1.3*3D
$GPRMC,162716.000,A,2233.2038,N,11413.8090,E,0.0,105.6,040191,,,A*6A
$GPGGA,162716.000,2233.2038,N,11413.8090,E,1,06,1.6,51.9,M,14.2,M,,0000*6C
$GPVTG,105.6,T,,M,0.0,N,0.0,K,A*0F
$GPGLL,2233.2038,N,11413.8090,E,162716.00,A,A*62
$GPGSA,A,3,05,10,12,15,26,27,,,,,,,2.1,1.6,1.3*36
$GPGSV,3,1,11,10,25,044,19,05,50,001,12,02,52,083,11,27,06,178,36*71
$GPGSV,3,2,11,12,08,223,17,26,75,165,35,15,51,207,41,29,33,309,18*7C
$GPGSV,3,3,11,04,18,109,,08,13,079,,30,04,254,*4C
$GPRMC,162717.000,A,2233.2038,N,11413.8090,E,0.0,105.6,040191,,,A*6B
$GPGGA,162717.000,2233.2038,N,11413.8090,E,1,06,1.6,51.9,M,14.2,M,,0000*6D
$GPVTG,105.6,T,,M,0.0,N,0.0,K,A*0F
$GPGLL,2233.2038,N,11413.8090,E,162717.00,A,A*63
$GPGSA,A,3,05,10,12,15,26,27,,,,,,,2.1,1.6,1.3*36
$GPRMC,162718.000,A,2233.2038,N,11413.8090,E,0.0,105.6,040191,,,A*64
$GPGGA,162718.000,2233.2038,N,11413.8090,E,1,06,1.6,51.9,M,14.2,M,,0000*62
$GPVTG,105.6,T,,M,0.0,N,0.0,K,A*0F
$GPGLL,2233.2038,N,11413.8090,E,162718.00,A,A*6C
$GPGSA,A,3,05,10,12,15,26,27,,,,,,,2.1,1.6,1.3*36
$GPRMC,162719.000,A,2233.2038,N,11413.8090,E,0.0,105.6,040191,,,A*65
$GPGGA,162719.000,2233.2038,N,11413.8090,E,1,06,1.6,51.9,M,14.2,M,,0000*63
$GPVTG,105.6,T,,M,0.0,N,0.0,K,A*0F
$GPGLL,2233.2038,N,11413.8090,E,162719.00,A,A*6D
$GPGSA,A,3,05,10,12,15,26,27,,,,,,,2.1,1.6,1.3*36
$GPRMC,162720.000,A,2233.2038,N,11413.8090,E,0.0,105.6,040191,,,A*6F
$GPGGA,162720.000,2233.2038,N,11413.8090,E,1,06,1.6,51.9,M,14.2,M,,0000*69
$GPVTG,105.6,T,,M,0.0,N,0.0,K,A*0F
$GPGLL,2233.2038,N,11413.8090,E,162720.00,A,A*67
$GPGSA,A,3,05,10,12,15,26,27,,,,,,,2.1,1.6,1.3*36
$GPRMC,162721.000,A,2233.2038,N,11413.8090,E,0.0,105.6,040191,,,A*6E
$GPGGA,162721.000,2233.2038,N,11413.8090,E,1,07,1.4,51.9,M,14.2,M,,0000*6B
$GPVTG,105.6,T,,M,0.0,N,0.0,K,A*0F
$GPGLL,2233.2038,N,11413.8090,E,162721.00,A,A*66
$GPGSA,A,3,02,05,10,12,15,26,27,,,,,,1.9,1.4,1.3*3D
$GPGSV,3,1,11,10,25,044,17,05,50,001,11,02,52,083,16,27,06,178,35*78
$GPGSV,3,2,11,12,08,223,20,26,75,165,35,15,51,207,40,29,33,309,17*76
$GPGSV,3,3,11,04,18,109,,08,13,079,,30,04,254,*4C
$GPRMC,162722.000,A,2233.2038,N,11413.8090,E,0.0,105.6,040191,,,A*6D
$GPGGA,162722.000,2233.2038,N,11413.8090,E,1,07,1.4,51.9,M,14.2,M,,0000*68
$GPVTG,105.6,T,,M,0.0,N,0.0,K,A*0F
$GPGLL,2233.2038,N,11413.8090,E,162722.00,A,A*65
$GPGSA,A,3,02,05,10,12,15,26,27,,,,,,1.9,1.4,1.3*3D
$GPRMC,162723.000,A,2233.2038,N,11413.8090,E,0.0,105.6,040191,,,A*6C
$GPGGA,162723.000,2233.2038,N,11413.8090,E,1,07,1.4,51.9,M,14.2,M,,0000*69
$GPVTG,105.6,T,,M,0.0,N,0.0,K,A*0F
$GPGLL,2233.2038,N,11413.8090,E,162723.00,A,A*64
$GPGSA,A,3,02,05,10,12,15,26,27,,,,,,1.9,1.4,1.3*3D
$GPRMC,162724.000,A,2233.2038,N,11413.8090,E,0.0,105.6,040191,,,A*6B
$GPGGA,162724.000,2233.2038,N,11413.8090,E,1,07,1.4,51.9,M,14.2,M,,0000*6E
$GPVTG,105.6,T,,M,0.0,N,0.0,K,A*0F
$GPGLL,2233.2038,N,11413.8090,E,162724.00,A,A*63
$GPGSA,A,3,02,05,10,12,15,26,27,,,,,,1.9,1.4,1.3*3D
$GPRMC,162725.000,A,2233.2038,N,11413.8090,E,0.0,105.6,040191,,,A*6A
$GPGGA,162725.000,2233.2038,N,11413.8090,E,1,07,1.4,51.9,M,14.2,M,,0000*6F
$GPVTG,105.6,T,,M,0.0,N,0.0,K,A*0F
$GPGLL,2233.2038,N,11413.8090,E,162725.00,A,A*62
$GPGSA,A,3,02,05,10,12,15,26,27,,,,,,1.9,1.4,1.3*3D
$GPRMC,162726.000,A,2233.2038,N,11413.8090,E,0.0,105.6,040191,,,A*69
$GPGGA,162726.000,2233.2038,N,11413.8090,E,1,06,1.8,51.9,M,14.2,M,,0000*61
$GPVTG,105.6,T,,M,0.0,N,0.0,K,A*0F
$GPGLL,2233.2038,N,11413.8090,E,162726.00,A,A*61
$GPGSA,A,3,02,10,12,15,26,27,,,,,,,2.2,1.8,1.3*3C
$GPGSV,3,1,11,10,25,044,21,05,50,001,11,02,52,083,17,27,06,178,36*7F
$GPGSV,3,2,11,12,08,223,22,26,75,165,35,15,51,207,39,29,33,309,15*78
$GPGSV,3,3,11,04,18,109,,08,13,079,,30,04,254,*4C
$GPRMC,162727.000,A,2233.2038,N,11413.8090,E,0.0,105.6,040191,,,A*68
$GPGGA,162727.000,2233.2038,N,11413.8090,E,1,06,1.8,51.9,M,14.2,M,,0000*60
$GPVTG,105.6,T,,M,0.0,N,0.0,K,A*0F
$GPGLL,2233.2038,N,11413.8090,E,162727.00,A,A*60
$GPGSA,A,3,02,10,12,15,26,27,,,,,,,2.2,1.8,1.3*3C
$GPRMC,162728.000,A,2233.2038,N,11413.8090,E,0.0,105.6,040191,,,A*67
$GPGGA,162728.000,2233.2038,N,11413.8090,E,1,06,1.8,51.9,M,14.2,M,,0000*6F
$GPVTG,105.6,T,,M,0.0,N,0.0,K,A*0F
$GPGLL,2233.2038,N,11413.8090,E,162728.00,A,A*6F
$GPGSA,A,3,02,10,12,15,26,27,,,,,,,2.2,1.8,1.3*3C
$GPRMC,162729.000,A,2233.2038,N,11413.8090,E,0.0,105.6,040191,,,A*66
$GPGGA,162729.000,2233.2038,N,11413.8090,E,1,06,1.8,51.9,M,14.2,M,,0000*6E
$GPVTG,105.6,T,,M,0.0,N,0.0,K,A*0F
$GPGLL,2233.2038,N,11413.8090,E,162729.00,A,A*6E
$GPGSA,A,3,02,10,12,15,26,27,,,,,,,2.2,1.8,1.3*3C
$GPRMC,162730.000,A,2233.2038,N,11413.8090,E,0.0,105.6,040191,,,A*6E
$GPGGA,162730.000,2233.2038,N,11413.8090,E,1,06,1.8,51.9,M,14.2,M,,0000*66
$GPVTG,105.6,T,,M,0.0,N,0.0,K,A*0F
$GPGLL,2233.2038,N,11413.8090,E,162730.00,A,A*66
$GPGSA,A,3,02,10,12,15,26,27,,,,,,,2.2,1.8,1.3*3C
$GPRMC,162731.000,A,2233.2038,N,11413.8090,E,0.0,105.6,040191,,,A*6F
$GPGGA,162731.000,2233.2038,N,11413.8090,E,1,06,1.8,51.9,M,14.2,M,,0000*67
$GPVTG,105.6,T,,M,0.0,N,0.0,K,A*0F
$GPGLL,2233.2038,N,11413.8090,E,162731.00,A,A*67
$GPGSA,A,3,02,10,12,15,26,27,,,,,,,2.2,1.8,1.3*3C
$GPGSV,3,1,11,10,25,045,19,02,52,083,16,27,06,178,36,12,08,223,22*7D
$GPGSV,3,2,11,26,75,165,37,15,51,207,39,29,33,309,17,05,50,002,*72
$GPGSV,3,3,11,04,18,109,,08,13,079,,30,04,254,*4C
$GPRMC,162732.000,A,2233.2038,N,11413.8090,E,0.0,105.6,040191,,,A*6C
$GPGGA,162732.000,2233.2038,N,11413.8090,E,1,06,1.8,51.9,M,14.2,M,,0000*64
$GPVTG,105.6,T,,M,0.0,N,0.0,K,A*0F
$GPGLL,2233.2038,N,11413.8090,E,162732.00,A,A*64
$GPGSA,A,3,02,10,12,15,26,27,,,,,,,2.2,1.8,1.3*3C
$GPRMC,162733.000,A,2233.2038,N,11413.8090,E,0.0,105.6,040191,,,A*6D
$GPGGA,162733.000,2233.2038,N,11413.8090,E,1,06,1.8,51.9,M,14.2,M,,0000*65
$GPVTG,105.6,T,,M,0.0,N,0.0,K,A*0F
$GPGLL,2233.2038,N,11413.8090,E,162733.00,A,A*65
$GPGSA,A,3,02,10,12,15,26,27,,,,,,,2.2,1.8,1.3*3C
$GPRMC,162734.000,A,2233.2038,N,11413.8090,E,0.0,105.6,040191,,,A*6A
$GPGGA,162734.000,2233.2038,N,11413.8090,E,1,07,1.4,51.9,M,14.2,M,,0000*6F
$GPVTG,105.6,T,,M,0.0,N,0.0,K,A*0F
$GPGLL,2233.2038,N,11413.8090,E,162734.00,A,A*62
$GPGSA,A,3,02,05,10,12,15,26,27,,,,,,1.9,1.4,1.3*3D
$GPRMC,162735.000,A,2233.2038,N,11413.8090,E,0.0,105.6,040191,,,A*6B
$GPGGA,162735.000,2233.2038,N,11413.8090,E,1,07,1.4,51.9,M,14.2,M,,0000*6E
$GPVTG,105.6,T,,M,0.0,N,0.0,K,A*0F
$GPGLL,2233.2038,N,11413.8090,E,162735.00,A,A*63
$GPGSA,A,3,02,05,10,12,15,26,27,,,,,,1.9,1.4,1.3*3D
$GPRMC,162736.000,A,2233.2038,N,11413.8090,E,0.0,105.6,040191,,,A*68
$GPGGA,162736.000,2233.2038,N,11413.8090,E,1,07,1.4,51.9,M,14.2,M,,0000*6D
$GPVTG,105.6,T,,M,0.0,N,0.0,K,A*0F
$GPGLL,2233.2038,N,11413.8090,E,162736.00,A,A*60
$GPGSA,A,3,02,05,10,12,15,26,27,,,,,,1.9,1.4,1.3*3D
$GPGSV,3,1,11,10,25,045,18,05,50,002,14,02,52,083,15,27,06,178,36*70
$GPGSV,3,2,11,12,08,223,23,26,75,165,38,15,51,207,39,29,33,309,17*76
$GPGSV,3,3,11,04,18,109,,08,13,079,,30,04,254,*4C
$GPRMC,162737.000,A,2233.2038,N,11413.8090,E,0.0,105.6,040191,,,A*69
$GPGGA,162737.000,2233.2038,N,11413.8090,E,1,07,1.4,51.9,M,14.2,M,,0000*6C
$GPVTG,105.6,T,,M,0.0,N,0.0,K,A*0F
$GPGLL,2233.2038,N,11413.8090,E,162737.00,A,A*61
$GPGSA,A,3,02,05,10,12,15,26,27,,,,,,1.9,1.4,1.3*3D
$GPRMC,162738.000,A,2233.2038,N,11413.8090,E,0.0,105.6,040191,,,A*66
$GPGGA,162738.000,2233.2038,N,11413.8090,E,1,08,1.1,51.9,M,14.2,M,,0000*69
$GPVTG,105.6,T,,M,0.0,N,0.0,K,A*0F
$GPGLL,2233.2038,N,11413.8090,E,162738.00,A,A*6E
$GPGSA,A,3,02,04,05,10,12,15,26,27,,,,,1.7,1.1,1.3*32
$GPRMC,162739.000,A,2233.2038,N,11413.8090,E,0.0,105.6,040191,,,A*67
$GPGGA,162739.000,2233.2038,N,11413.8090,E,1,08,1.1,51.9,M,14.2,M,,0000*68
$GPVTG,105.6,T,,M,0.0,N,0.0,K,A*0F
$GPGLL,2233.2038,N,11413.8090,E,162739.00,A,A*6F
$GPGSA,A,3,02,04,05,10,12,15,26,27,,,,,1.7,1.1,1.3*32
$GPRMC,162740.000,A,2233.2038,N,11413.8090,E,0.0,105.6,040191,,,A*69
$GPGGA,162740.000,2233.2038,N,11413.8090,E,1,07,1.4,51.9,M,14.2,M,,0000*6C
$GPVTG,105.6,T,,M,0.0,N,0.0,K,A*0F
$GPGLL,2233.2038,N,11413.8090,E,162740.00,A,A*61
$GPGSA,A,3,02,05,10,12,15,26,27,,,,,,1.9,1.4,1.3*3D
$GPRMC,162741.000,A,2233.2038,N,11413.8090,E,0.0,105.6,040191,,,A*68
$GPGGA,162741.000,2233.2038,N,11413.8090,E,1,07,1.4,51.9,M,14.2,M,,0000*6D
$GPVTG,105.6,T,,M,0.0,N,0.0,K,A*0F
$GPGLL,2233.2038,N,11413.8090,E,162741.00,A,A*60
$GPGSA,A,3,02,05,10,12,15,26,27,,,,,,1.9,1.4,1.3*3D
$GPGSV,3,1,11,10,25,045,17,05,50,002,14,02,51,083,15,04,18,109,12*72
$GPGSV,3,2,11,27,06,178,36,12,08,223,23,26,75,165,38,15,51,207,39*79
$GPGSV,3,3,11,29,33,309,15,08,13,079,,30,04,254,*4C
$GPRMC,162742.000,A,2233.2038,N,11413.8090,E,0.0,105.6,040191,,,A*6B
$GPGGA,162742.000,2233.2038,N,11413.8090,E,1,07,1.4,51.9,M,14.2,M,,0000*6E
$GPVTG,105.6,T,,M,0.0,N,0.0,K,A*0F
$GPGLL,2233.2038,N,11413.8090,E,162742.00,A,A*63
$GPGSA,A,3,02,05,10,12,15,26,27,,,,,,1.9,1.4,1.3*3D
$GPRMC,162743.000,A,2233.2038,N,11413.8090,E,0.0,105.6,040191,,,A*6A
$GPGGA,162743.000,2233.2038,N,11413.8090,E,1,06,1.6,51.9,M,14.2,M,,0000*6C
$GPVTG,105.6,T,,M,0.0,N,0.0,K,A*0F
$GPGLL,2233.2038,N,11413.8090,E,162743.00,A,A*62
$GPGSA,A,3,02,05,12,15,26,27,,,,,,,2.3,1.6,1.7*33
$GPRMC,162744.000,A,2233.2038,N,11413.8090,E,0.0,105.6,040191,,,A*6D
$GPGGA,162744.000,2233.2038,N,11413.8090,E,1,06,1.6,51.9,M,14.2,M,,0000*6B
$GPVTG,105.6,T,,M,0.0,N,0.0,K,A*0F
$GPGLL,2233.2038,N,11413.8090,E,162744.00,A,A*65
$GPGSA,A,3,02,05,12,15,26,27,,,,,,,2.3,1.6,1.7*33
$GPRMC,162745.000,A,2233.2038,N,11413.8090,E,0.0,105.6,040191,,,A*6C
$GPGGA,162745.000,2233.2038,N,11413.8090,E,1,06,1.6,51.9,M,14.2,M,,0000*6A
$GPVTG,105.6,T,,M,0.0,N,0.0,K,A*0F
$GPGLL,2233.2038,N,11413.8090,E,162745.00,A,A*64
$GPGSA,A,3,02,05,12,15,26,27,,,,,,,2.3,1.6,1.7*33
$GPRMC,162746.000,A,2233.2038,N,11413.8090,E,0.0,105.6,040191,,,A*6F
$GPGGA,162746.000,2233.2038,N,11413.8090,E,1,06,1.6,51.9,M,14.2,M,,0000*69
$GPVTG,105.6,T,,M,0.0,N,0.0,K,A*0F
$GPGLL,2233.2038,N,11413.8090,E,162746.00,A,A*67
$GPGSA,A,3,02,05,12,15,26,27,,,,,,,2.3,1.6,1.7*33
$GPGSV,3,1,11,05,50,002,15,02,51,083,14,27,06,178,36,12,08,223,23*74
$GPGSV,3,2,11,26,75,165,38,15,52,207,39,29,33,309,,10,25,045,*7D
$GPGSV,3,3,11,04,18,109,,08,13,079,,30,04,254,*4C
$GPRMC,162747.000,A,2233.2038,N,11413.8090,E,0.0,105.6,040191,,,A*6E
$GPGGA,162747.000,2233.2038,N,11413.8090,E,1,06,1.6,51.9,M,14.2,M,,0000*68
$GPVTG,105.6,T,,M,0.0,N,0.0,K,A*0F
$GPGLL,2233.2038,N,11413.8090,E,162747.00,A,A*66
$GPGSA,A,3,02,05,12,15,26,27,,,,,,,2.3,1.6,1.7*33
$GPRMC,162748.000,A,2233.2038,N,11413.8090,E,0.0,105.6,040191,,,A*61
$GPGGA,162748.000,2233.2038,N,11413.8090,E,1,06,1.6,51.9,M,14.2,M,,0000*67
$GPVTG,105.6,T,,M,0.0,N,0.0,K,A*0F
$GPGLL,2233.2038,N,11413.8090,E,162748.00,A,A*69
$GPGSA,A,3,02,05,12,15,26,27,,,,,,,2.3,1.6,1.7*33
$GPRMC,162749.000,A,2233.2038,N,11413.8090,E,0.0,105.6,040191,,,A*60
$GPGGA,162749.000,2233.2038,N,11413.8090,E,1,06,1.6,51.9,M,14.2,M,,0000*66
$GPVTG,105.6,T,,M,0.0,N,0.0,K,A*0F
$GPGLL,2233.2038,N,11413.8090,E,162749.00,A,A*68
$GPGSA,A,3,02,05,12,15,26,27,,,,,,,2.3,1.6,1.7*33
$GPRMC,162750.000,A,2233.2038,N,11413.8090,E,0.0,105.6,040191,,,A*68
$GPGGA,162750.000,2233.2038,N,11413.8090,E,1,06,1.6,51.9,M,14.2,M,,0000*6E
$GPVTG,105.6,T,,M,0.0,N,0.0,K,A*0F
$GPGLL,2233.2038,N,11413.8090,E,162750.00,A,A*60
$GPGSA,A,3,02,05,12,15,26,27,,,,,,,2.3,1.6,1.7*33
$GPRMC,162751.000,A,2233.2038,N,11413.8090,E,0.0,105.6,040191,,,A*69
$GPGGA,162751.000,2233.2038,N,11413.8090,E,1,06,1.6,51.9,M,14.2,M,,0000*6F
$GPVTG,105.6,T,,M,0.0,N,0.0,K,A*0F
$GPGLL,2233.2038,N,11413.8090,E,162751.00,A,A*61
$GPGSA,A,3,02,05,12,15,26,27,,,,,,,2.3,1.6,1.7*33
$GPGSV,3,1,11,05,50,002,19,02,51,083,16,27,06,178,35,12,08,223,24*7E
$GPGSV,3,2,11,26,76,165,39,15,52,207,40,29,33,309,,10,24,045,*70
$GPGSV,3,3,11,04,18,109,,08,13,079,,30,04,254,*4C
$GPRMC,162752.000,A,2233.2038,N,11413.8090,E,0.0,105.6,040191,,,A*6A
$GPGGA,162752.000,2233.2038,N,11413.8090,E,1,06,1.6,51.9,M,14.2,M,,0000*6C
$GPVTG,105.6,T,,M,0.0,N,0.0,K,A*0F
$GPGLL,2233.2038,N,11413.8090,E,162752.00,A,A*62
$GPGSA,A,3,02,05,12,15,26,27,,,,,,,2.3,1.6,1.7*33
$GPRMC,162753.000,A,2233.2038,N,11413.8090,E,0.0,105.6,040191,,,A*6B
$GPGGA,162753.000,2233.2038,N,11413.8090,E,1,06,1.6,51.9,M,14.2,M,,0000*6D
$GPVTG,105.6,T,,M,0.0,N,0.0,K,A*0F
$GPGLL,2233.2038,N,11413.8090,E,162753.00,A,A*63
$GPGSA,A,3,02,05,12,15,26,27,,,,,,,2.3,1.6,1.7*33
$GPRMC,162754.000,A,2233.2038,N,11413.8090,E,0.0,105.6,040191,,,A*6C
$GPGGA,162754.000,2233.2038,N,11413.8090,E,1,06,1.6,51.9,M,14.2,M,,0000*6A
$GPVTG,105.6,T,,M,0.0,N,0.0,K,A*0F
$GPGLL,2233.2038,N,11413.8090,E,162754.00,A,A*64
$GPGSA,A,3,02,05,12,15,26,27,,,,,,,2.3,1.6,1.7*33
$GPRMC,162755.000,A,2233.2038,N,11413.8090,E,0.0,105.6,040191,,,A*6D
$GPGGA,162755.000,2233.2038,N,11413.8090,E,1,06,1.6,51.9,M,14.2,M,,0000*6B
$GPVTG,105.6,T,,M,0.0,N,0.0,K,A*0F
$GPGLL,2233.2038,N,11413.8090,E,162755.00,A,A*65
$GPGSA,A,3,02,05,12,15,26,27,,,,,,,2.3,1.6,1.7*33
$GPRMC,162756.000,A,2233.2038,N,11413.8090,E,0.0,105.6,040191,,,A*6E
$GPGGA,162756.000,2233.2038,N,11413.8090,E,1,06,1.6,51.9,M,14.2,M,,0000*68
$GPVTG,105.6,T,,M,0.0,N,0.0,K,A*0F
$GPGLL,2233.2038,N,11413.8090,E,162756.00,A,A*66
$GPGSA,A,3,02,05,12,15,26,27,,,,,,,2.3,1.6,1.7*33
$GPGSV,3,1,11,05,50,002,20,02,51,083,16,27,06,178,34,12,08,223,24*75
$GPGSV,3,2,11,26,76,165,39,15,52,207,40,29,33,309,,10,24,045,*70
$GPGSV,3,3,11,04,18,109,,08,13,079,,30,04,253,*4B
$GPRMC,162757.000,A,2233.2038,N,11413.8090,E,0.0,105.6,040191,,,A*6F
$GPGGA,162757.000,2233.2038,N,11413.8090,E,1,06,1.6,51.9,M,14.2,M,,0000*69
$GPVTG,105.6,T,,M,0.0,N,0.0,K,A*0F
$GPGLL,2233.2038,N,11413.8090,E,162757.00,A,A*67
$GPGSA,A,3,02,05,12,15,26,27,,,,,,,2.3,1.6,1.7*33
$GPRMC,162758.000,A,2233.2038,N,11413.8090,E,0.0,105.6,040191,,,A*60
$GPGGA,162758.000,2233.2038,N,11413.8090,E,1,06,1.6,51.9,M,14.2,M,,0000*66
$GPVTG,105.6,T,,M,0.0,N,0.0,K,A*0F
$GPGLL,2233.2038,N,11413.8090,E,162758.00,A,A*68
$GPGSA,A,3,02,05,12,15,26,27,,,,,,,2.3,1.6,1.7*33
$GPRMC,162759.000,A,2233.2038,N,11413.8090,E,0.0,105.6,040191,,,A*61
$GPGGA,162759.000,2233.2038,N,11413.8090,E,1,06,1.6,51.9,M,14.2,M,,0000*67
$GPVTG,105.6,T,,M,0.0,N,0.0,K,A*0F
$GPGLL,2233.2038,N,11413.8090,E,162759.00,A,A*69
$GPGSA,A,3,02,05,12,15,26,27,,,,,,,2.3,1.6,1.7*33
$GPRMC,162800.000,A,2233.2038,N,11413.8090,E,0.0,105.6,040191,,,A*62
$GPGGA,162800.000,2233.2038,N,11413.8090,E,1,06,1.6,51.9,M,14.2,M,,0000*64
$GPVTG,105.6,T,,M,0.0,N,0.0,K,A*0F
$GPGLL,2233.2038,N,11413.8090,E,162800.00,A,A*6A
$GPGSA,A,3,02,05,12,15,26,27,,,,,,,2.3,1.6,1.7*33
$GPRMC,162801.000,A,2233.2038,N,11413.8090,E,0.0,105.6,040191,,,A*63
$GPGGA,162801.000,2233.2038,N,11413.8090,E,1,06,1.6,51.9,M,14.2,M,,0000*65
$GPVTG,105.6,T,,M,0.0,N,0.0,K,A*0F
$GPGLL,2233.2038,N,11413.8090,E,162801.00,A,A*6B
$GPGSA,A,3,02,05,12,15,26,27,,,,,,,2.3,1.6,1.7*33
$GPGSV,3,1,11,05,50,002,18,02,51,083,16,27,06,178,35,12,08,223,22*79
$GPGSV,3,2,11,26,76,165,39,15,52,207,39,29,33,309,19,10,24,045,*76
$GPGSV,3,3,11,04,18,109,,08,13,079,,30,04,253,*4B
$GPRMC,162802.000,A,2233.2038,N,11413.8090,E,0.0,105.6,040191,,,A*60
$GPGGA,162802.000,2233.2038,N,11413.8090,E,1,06,1.6,51.9,M,14.2,M,,0000*66
$GPVTG,105.6,T,,M,0.0,N,0.0,K,A*0F
$GPGLL,2233.2038,N,11413.8090,E,162802.00,A,A*68
$GPGSA,A,3,02,05,12,15,26,27,,,,,,,2.3,1.6,1.7*33
$GPRMC,162803.000,A,2233.2038,N,11413.8090,E,0.0,105.6,040191,,,A*61
$GPGGA,162803.000,2233.2038,N,11413.8090,E,1,07,1.4,51.9,M,14.2,M,,0000*64
$GPVTG,105.6,T,,M,0.0,N,0.0,K,A*0F
$GPGLL,2233.2038,N,11413.8090,E,162803.00,A,A*69
$GPGSA,A,3,02,05,10,12,15,26,27,,,,,,1.9,1.4,1.3*3D
$GPRMC,162804.000,A,2233.2038,N,11413.8090,E,0.0,105.6,040191,,,A*66
$GPGGA,162804.000,2233.2038,N,11413.8090,E,1,07,1.4,51.9,M,14.2,M,,0000*63
$GPVTG,105.6,T,,M,0.0,N,0.0,K,A*0F
$GPGLL,2233.2038,N,11413.8090,E,162804.00,A,A*6E
$GPGSA,A,3,02,05,10,12,15,26,27,,,,,,1.9,1.4,1.3*3D
$GPRMC,162805.000,A,2233.2038,N,11413.8090,E,0.0,105.6,040191,,,A*67
$GPGGA,162805.000,2233.2038,N,11413.8090,E,1,08,1.1,51.9,M,14.2,M,,0000*68
$GPVTG,105.6,T,,M,0.0,N,0.0,K,A*0F
$GPGLL,2233.2038,N,11413.8090,E,162805.00,A,A*6F
$GPGSA,A,3,02,04,05,10,12,15,26,27,,,,,1.7,1.1,1.3*32
$GPRMC,162806.000,A,2233.2038,N,11413.8090,E,0.0,105.6,040191,,,A*64
$GPGGA,162806.000,2233.2038,N,11413.8090,E,1,08,1.1,51.9,M,14.2,M,,0000*6B
$GPVTG,105.6,T,,M,0.0,N,0.0,K,A*0F
$GPGLL,2233.2038,N,11413.8090,E,162806.00,A,A*6C
$GPGSA,A,3,02,04,05,10,12,15,26,27,,,,,1.7,1.1,1.3*32
$GPGSV,3,1,11,10,24,045,18,05,50,002,15,02,51,083,15,04,18,109,13*7C
$GPGSV,3,2,11,27,06,178,35,12,08,223,25,26,76,165,38,15,52,207,39*7C
$GPGSV,3,3,11,29,33,309,19,08,13,079,,30,04,253,*47
$GPRMC,162807.000,A,2233.2038,N,11413.8090,E,0.0,105.6,040191,,,A*65
$GPGGA,162807.000,2233.2038,N,11413.8090,E,1,07,1.4,51.9,M,14.2,M,,0000*60
$GPVTG,105.6,T,,M,0.0,N,0.0,K,A*0F
$GPGLL,2233.2038,N,11413.8090,E,162807.00,A,A*6D
$GPGSA,A,3,02,05,10,12,15,26,27,,,,,,1.9,1.4,1.3*3D
$GPRMC,162808.000,A,2233.2038,N,11413.8090,E,0.0,105.6,040191,,,A*6A
$GPGGA,162808.000,2233.2038,N,11413.8090,E,1,07,1.4,51.9,M,14.2,M,,0000*6F
$GPVTG,105.6,T,,M,0.0,N,0.0,K,A*0F
$GPGLL,2233.2038,N,11413.8090,E,162808.00,A,A*62
$GPGSA,A,3,02,05,10,12,15,26,27,,,,,,1.9,1.4,1.3*3D
$GPRMC,162809.000,A,2233.2038,N,11413.8090,E,0.0,105.6,040191,,,A*6B
$GPGGA,162809.000,2233.2038,N,11413.8090,E,1,07,1.4,51.9,M,14.2,M,,0000*6E
$GPVTG,105.6,T,,M,0.0,N,0.0,K,A*0F
$GPGLL,2233.2038,N,11413.8090,E,162809.00,A,A*63
$GPGSA,A,3,02,05,10,12,15,26,27,,,,,,1.9,1.4,1.3*3D
$GPRMC,162810.000,A,2233.2038,N,11413.8090,E,0.0,105.6,040191,,,A*63
$GPGGA,162810.000,2233.2038,N,11413.8090,E,1,07,1.4,51.9,M,14.2,M,,0000*66
$GPVTG,105.6,T,,M,0.0,N,0.0,K,A*0F
$GPGLL,2233.2038,N,11413.8090,E,162810.00,A,A*6B
$GPGSA,A,3,02,05,10,12,15,26,27,,,,,,1.9,1.4,1.3*3D
$GPRMC,162811.000,A,2233.2038,N,11413.8090,E,0.0,105.6,040191,,,A*62
$GPGGA,162811.000,2233.2038,N,11413.8090,E,1,07,1.4,51.9,M,14.2,M,,0000*67
$GPVTG,105.6,T,,M,0.0,N,0.0,K,A*0F
$GPGLL,2233.2038,N,11413.8090,E,162811.00,A,A*6A
$GPGSA,A,3,02,05,10,12,15,26,27,,,,,,1.9,1.4,1.3*3D
$GPGSV,3,1,11,10,24,045,17,05,50,002,15,02,51,083,14,27,06,178,34*7F
$GPGSV,3,2,11,12,07,223,25,26,76,164,37,15,52,207,39,29,33,309,16*70
$GPGSV,3,3,11,04,18,109,,08,13,079,,30,04,253,*4B
$GPRMC,162812.000,A,2233.2038,N,11413.8090,E,0.0,105.6,040191,,,A*61
$GPGGA,162812.000,2233.2038,N,11413.8090,E,1,07,1.4,51.9,M,14.2,M,,0000*64
$GPVTG,105.6,T,,M,0.0,N,0.0,K,A*0F
$GPGLL,2233.2038,N,11413.8090,E,162812.00,A,A*69
$GPGSA,A,3,02,05,10,12,15,26,27,,,,,,1.9,1.4,1.3*3D
$GPRMC,162813.000,A,2233.2038,N,11413.8090,E,0.0,105.6,040191,,,A*60
$GPGGA,162813.000,2233.2038,N,11413.8090,E,1,07,1.4,51.9,M,14.2,M,,0000*65
$GPVTG,105.6,T,,M,0.0,N,0.0,K,A*0F
$GPGLL,2233.2038,N,11413.8090,E,162813.00,A,A*68
$GPGSA,A,3,02,05,10,12,15,26,27,,,,,,1.9,1.4,1.3*3D
$GPRMC,162814.000,A,2233.2038,N,11413.8090,E,0.0,105.6,040191,,,A*67
$GPGGA,162814.000,2233.2038,N,11413.8090,E,1,07,1.4,51.9,M,14.2,M,,0000*62
$GPVTG,105.6,T,,M,0.0,N,0.0,K,A*0F
$GPGLL,2233.2038,N,11413.8090,E,162814.00,A,A*6F
$GPGSA,A,3,02,05,10,12,15,26,27,,,,,,1.9,1.4,1.3*3D
$GPRMC,162815.000,A,2233.2038,N,11413.8090,E,0.0,105.6,040191,,,A*66
$GPGGA,162815.000,2233.2038,N,11413.8090,E,1,07,1.4,51.9,M,14.2,M,,0000*63
$GPVTG,105.6,T,,M,0.0,N,0.0,K,A*0F
$GPGLL,2233.2038,N,11413.8090,E,162815.00,A,A*6E
$GPGSA,A,3,02,05,10,12,15,26,27,,,,,,1.9,1.4,1.3*3D
$GPRMC,162816.000,A,2233.2038,N,11413.8090,E,0.0,105.6,040191,,,A*65
$GPGGA,162816.000,2233.2038,N,11413.8090,E,1,07,1.4,51.9,M,14.2,M,,0000*60
$GPVTG,105.6,T,,M,0.0,N,0.0,K,A*0F
$GPGLL,2233.2038,N,11413.8090,E,162816.00,A,A*6D
$GPGSA,A,3,02,05,10,12,15,26,27,,,,,,1.9,1.4,1.3*3D
$GPGSV,3,1,11,10,24,045,18,05,50,002,17,02,51,083,14,27,06,177,35*7C
$GPGSV,3,2,11,12,07,223,25,26,76,164,37,15,52,207,39,29,33,309,*77
$GPGSV,3,3,11,04,18,109,,08,13,079,,30,04,253,*4B
$GPRMC,162817.000,A,2233.2038,N,11413.8090,E,0.0,105.6,040191,,,A*64
$GPGGA,162817.000,2233.2038,N,11413.8090,E,1,07,1.4,51.9,M,14.2,M,,0000*61
$GPVTG,105.6,T,,M,0.0,N,0.0,K,A*0F
$GPGLL,2233.2038,N,11413.8090,E,162817.00,A,A*6C
$GPGSA,A,3,02,05,10,12,15,26,27,,,,,,1.9,1.4,1.3*3D
$GPRMC,162818.000,A,2233.2038,N,11413.8090,E,0.0,105.6,040191,,,A*6B
$GPGGA,162818.000,2233.2038,N,11413.8090,E,1,07,1.4,51.9,M,14.2,M,,0000*6E
$GPVTG,105.6,T,,M,0.0,N,0.0,K,A*0F
$GPGLL,2233.2038,N,11413.8090,E,162818.00,A,A*63
$GPGSA,A,3,02,05,10,12,15,26,27,,,,,,1.9,1.4,1.3*3D
$GPRMC,162819.000,A,2233.2038,N,11413.8090,E,0.0,105.6,040191,,,A*6A
$GPGGA,162819.000,2233.2038,N,11413.8090,E,1,07,1.4,51.9,M,14.2,M,,0000*6F
$GPVTG,105.6,T,,M,0.0,N,0.0,K,A*0F
$GPGLL,2233.2038,N,11413.8090,E,162819.00,A,A*62
$GPGSA,A,3,02,05,10,12,15,26,27,,,,,,1.9,1.4,1.3*3D
$GPRMC,162820.000,A,2233.2038,N,11413.8090,E,0.0,105.6,040191,,,A*60
$GPGGA,162820.000,2233.2038,N,11413.8090,E,1,07,1.4,51.9,M,14.2,M,,0000*65
$GPVTG,105.6,T,,M,0.0,N,0.0,K,A*0F
$GPGLL,2233.2038,N,11413.8090,E,162820.00,A,A*68
$GPGSA,A,3,02,05,10,12,15,26,27,,,,,,1.9,1.4,1.3*3D
$GPRMC,162821.000,A,2233.2038,N,11413.8090,E,0.0,105.6,040191,,,A*61
$GPGGA,162821.000,2233.2038,N,11413.8090,E,1,07,1.4,51.9,M,14.2,M,,0000*64
$GPVTG,105.6,T,,M,0.0,N,0.0,K,A*0F
$GPGLL,2233.2038,N,11413.8090,E,162821.00,A,A*69
$GPGSA,A,3,02,05,10,12,15,26,27,,,,,,1.9,1.4,1.3*3D
$GPGSV,3,1,11,10,24,045,20,05,50,002,17,02,51,083,14,27,06,177,34*76
$GPGSV,3,2,11,12,07,223,22,26,76,164,37,15,52,207,39,29,33,309,21*73
$GPGSV,3,3,11,04,18,109,,08,13,079,,30,04,253,*4B
$GPRMC,162822.000,A,2233.2038,N,11413.8090,E,0.0,105.6,040191,,,A*62
$GPGGA,162822.000,2233.2038,N,11413.8090,E,1,07,1.4,51.9,M,14.2,M,,0000*67
$GPVTG,105.6,T,,M,0.0,N,0.0,K,A*0F
$GPGLL,2233.2038,N,11413.8090,E,162822.00,A,A*6A
$GPGSA,A,3,02,05,10,12,15,26,27,,,,,,1.9,1.4,1.3*3D
$GPRMC,162823.000,A,2233.2038,N,11413.8090,E,0.0,105.6,040191,,,A*63
$GPGGA,162823.000,2233.2038,N,11413.8090,E,1,07,1.4,51.9,M,14.2,M,,0000*66
$GPVTG,105.6,T,,M,0.0,N,0.0,K,A*0F
$GPGLL,2233.2038,N,11413.8090,E,162823.00,A,A*6B
$GPGSA,A,3,02,05,10,12,15,26,27,,,,,,1.9,1.4,1.3*3D
$GPRMC,162824.000,A,2233.2038,N,11413.8090,E,0.0,105.6,040191,,,A*64
$GPGGA,162824.000,2233.2038,N,11413.8090,E,1,07,1.4,51.9,M,14.2,M,,0000*61
$GPVTG,105.6,T,,M,0.0,N,0.0,K,A*0F
$GPGLL,2233.2038,N,11413.8090,E,162824.00,A,A*6C
$GPGSA,A,3,02,05,10,12,15,26,27,,,,,,1.9,1.4,1.3*3D
$GPRMC,162825.000,A,2233.2038,N,11413.8090,E,0.0,105.6,040191,,,A*65
$GPGGA,162825.000,2233.2038,N,11413.8090,E,1,07,1.4,51.9,M,14.2,M,,0000*60
$GPVTG,105.6,T,,M,0.0,N,0.0,K,A*0F
$GPGLL,2233.2038,N,11413.8090,E,162825.00,A,A*6D
$GPGSA,A,3,02,05,10,12,15,26,27,,,,,,1.9,1.4,1.3*3D
$GPRMC,162826.000,A,2233.2038,N,11413.8090,E,0.0,105.6,040191,,,A*66
$GPGGA,162826.000,2233.2038,N,11413.8090,E,1,07,1.4,51.9,M,14.2,M,,0000*63
$GPVTG,105.6,T,,M,0.0,N,0.0,K,A*0F
$GPGLL,2233.2038,N,11413.8090,E,162826.00,A,A*6E
$GPGSA,A,3,02,05,10,12,15,26,27,,,,,,1.9,1.4,1.3*3D
$GPGSV,3,1,11,10,24,045,22,05,50,002,18,02,51,083,17,27,06,177,34*78
$GPGSV,3,2,11,12,07,223,21,26,76,164,36,15,52,207,39,29,33,309,21*71
$GPGSV,3,3,11,04,18,109,,08,13,079,,30,04,253,*4B
$GPRMC,162827.000,A,2233.2038,N,11413.8090,E,0.0,105.6,040191,,,A*67
$GPGGA,162827.000,2233.2038,N,11413.8090,E,1,07,1.4,51.9,M,14.2,M,,0000*62
$GPVTG,105.6,T,,M,0.0,N,0.0,K,A*0F
$GPGLL,2233.2038,N,11413.8090,E,162827.00,A,A*6F
$GPGSA,A,3,02,05,10,12,15,26,27,,,,,,1.9,1.4,1.3*3D
$GPRMC,162828.000,A,2233.2038,N,11413.8090,E,0.0,105.6,040191,,,A*68
$GPGGA,162828.000,2233.2038,N,11413.8090,E,1,07,1.4,51.9,M,14.2,M,,0000*6D
$GPVTG,105.6,T,,M,0.0,N,0.0,K,A*0F
$GPGLL,2233.2038,N,11413.8090,E,162828.00,A,A*60
$GPGSA,A,3,02,05,10,12,15,26,27,,,,,,1.9,1.4,1.3*3D
$GPRMC,162829.000,A,2233.2038,N,11413.8090,E,0.0,105.6,040191,,,A*69
$GPGGA,162829.000,2233.2038,N,11413.8090,E,1,07,1.4,51.9,M,14.2,M,,0000*6C
$GPVTG,105.6,T,,M,0.0,N,0.0,K,A*0F
$GPGLL,2233.2038,N,11413.8090,E,162829.00,A,A*61
$GPGSA,A,3,02,05,10,12,15,26,27,,,,,,1.9,1.4,1.3*3D
$GPRMC,162830.000,A,2233.2038,N,11413.8090,E,0.0,105.6,040191,,,A*61
$GPGGA,162830.000,2233.2038,N,11413.8090,E,1,07,1.4,51.9,M,14.2,M,,0000*64
$GPVTG,105.6,T,,M,0.0,N,0.0,K,A*0F
$GPGLL,2233.2038,N,11413.8090,E,162830.00,A,A*69
$GPGSA,A,3,02,05,10,12,15,26,27,,,,,,1.9,1.4,1.3*3D
$GPRMC,162831.000,A,2233.2038,N,11413.8090,E,0.0,105.6,040191,,,A*60
$GPGGA,162831.000,2233.2038,N,11413.8090,E,1,07,1.4,51.9,M,14.2,M,,0000*65
$GPVTG,105.6,T,,M,0.0,N,0.0,K,A*0F
$GPGLL,2233.2038,N,11413.8090,E,162831.00,A,A*68
$GPGSA,A,3,02,05,10,12,15,26,27,,,,,,1.9,1.4,1.3*3D
$GPGSV,3,1,11,10,24,045,21,05,50,002,19,02,51,083,17,27,07,177,34*7B
$GPGSV,3,2,11,12,07,223,21,26,76,164,36,15,52,207,38,29,33,309,19*7B
$GPGSV,3,3,11,04,18,109,,08,13,079,,30,04,253,*4B
$GPRMC,162832.000,A,2233.2038,N,11413.8090,E,0.0,105.6,040191,,,A*63
$GPGGA,162832.000,2233.2038,N,11413.8090,E,1,07,1.4,51.9,M,14.2,M,,0000*66
$GPVTG,105.6,T,,M,0.0,N,0.0,K,A*0F
$GPGLL,2233.2038,N,11413.8090,E,162832.00,A,A*6B
$GPGSA,A,3,02,05,10,12,15,26,27,,,,,,1.9,1.4,1.3*3D
$GPRMC,162833.000,A,2233.2038,N,11413.8090,E,0.0,105.6,040191,,,A*62
$GPGGA,162833.000,2233.2038,N,11413.8090,E,1,07,1.4,51.9,M,14.2,M,,0000*67
$GPVTG,105.6,T,,M,0.0,N,0.0,K,A*0F
$GPGLL,2233.2038,N,11413.8090,E,162833.00,A,A*6A
$GPGSA,A,3,02,05,10,12,15,26,27,,,,,,1.9,1.4,1.3*3D
$GPRMC,162834.000,A,2233.2038,N,11413.8090,E,0.0,105.6,040191,,,A*65
$GPGGA,162834.000,2233.2038,N,11413.8090,E,1,07,1.4,51.9,M,14.2,M,,0000*60
$GPVTG,105.6,T,,M,0.0,N,0.0,K,A*0F
$GPGLL,2233.2038,N,11413.8090,E,162834.00,A,A*6D
$GPGSA,A,3,02,05,10,12,15,26,27,,,,,,1.9,1.4,1.3*3D
$GPRMC,162835.000,A,2233.2038,N,11413.8090,E,0.0,105.6,040191,,,A*64
$GPGGA,162835.000,2233.2038,N,11413.8090,E,1,08,1.1,51.9,M,14.2,M,,0000*6B
$GPVTG,105.6,T,,M,0.0,N,0.0,K,A*0F
$GPGLL,2233.2038,N,11413.8090,E,162835.00,A,A*6C
$GPGSA,A,3,02,04,05,10,12,15,26,27,,,,,1.7,1.1,1.3*32
$GPRMC,162836.000,A,2233.2038,N,11413.8090,E,0.0,105.6,040191,,,A*67
$GPGGA,162836.000,2233.2038,N,11413.8090,E,1,08,1.1,51.9,M,14.2,M,,0000*68
$GPVTG,105.6,T,,M,0.0,N,0.0,K,A*0F
$GPGLL,2233.2038,N,11413.8090,E,162836.00,A,A*6F
$GPGSA,A,3,02,04,05,10,12,15,26,27,,,,,1.7,1.1,1.3*32
$GPGSV,3,1,11,10,24,045,19,05,50,002,18,02,51,084,19,04,18,110,14*74
$GPGSV,3,2,11,27,07,177,35,12,07,223,19,26,76,164,35,15,52,207,38*7F
$GPGSV,3,3,11,29,33,309,19,08,13,079,,30,04,253,*47
$GPRMC,162837.000,A,2233.2038,N,11413.8090,E,0.0,105.6,040191,,,A*66
$GPGGA,162837.000,2233.2038,N,11413.8090,E,1,07,1.4,51.9,M,14.2,M,,0000*63
$GPVTG,105.6,T,,M,0.0,N,0.0,K,A*0F
$GPGLL,2233.2038,N,11413.8090,E,162837.00,A,A*6E
$GPGSA,A,3,02,05,10,12,15,26,27,,,,,,1.9,1.4,1.3*3D
$GPRMC,162838.000,A,2233.2038,N,11413.8090,E,0.0,105.6,040191,,,A*69
$GPGGA,162838.000,2233.2038,N,11413.8090,E,1,08,1.1,51.9,M,14.2,M,,0000*66
$GPVTG,105.6,T,,M,0.0,N,0.0,K,A*0F
$GPGLL,2233.2038,N,11413.8090,E,162838.00,A,A*61
$GPGSA,A,3,02,04,05,10,12,15,26,27,,,,,1.7,1.1,1.3*32
$GPRMC,162839.000,A,2233.2038,N,11413.8090,E,0.0,105.6,040191,,,A*68
$GPGGA,162839.000,2233.2038,N,11413.8090,E,1,08,1.1,51.9,M,14.2,M,,0000*67
$GPVTG,105.6,T,,M,0.0,N,0.0,K,A*0F
$GPGLL,2233.2038,N,11413.8090,E,162839.00,A,A*60
$GPGSA,A,3,02,04,05,10,12,15,26,27,,,,,1.7,1.1,1.3*32
$GPRMC,162840.000,A,2233.2038,N,11413.8090,E,0.0,105.6,040191,,,A*66
$GPGGA,162840.000,2233.2038,N,11413.8090,E,1,08,1.1,51.9,M,14.2,M,,0000*69
$GPVTG,105.6,T,,M,0.0,N,0.0,K,A*0F
$GPGLL,2233.2038,N,11413.8090,E,162840.00,A,A*6E
$GPGSA,A,3,02,04,05,10,12,15,26,27,,,,,1.7,1.1,1.3*32
$GPRMC,162841.000,A,2233.2038,N,11413.8090,E,0.0,105.6,040191,,,A*67
$GPGGA,162841.000,2233.2038,N,11413.8090,E,1,08,1.1,51.9,M,14.2,M,,0000*68
$GPVTG,105.6,T,,M,0.0,N,0.0,K,A*0F
$GPGLL,2233.2038,N,11413.8090,E,162841.00,A,A*6F
$GPGSA,A,3,02,04,05,10,12,15,26,27,,,,,1.7,1.1,1.3*32
$GPGSV,3,1,11,10,24,045,18,05,50,002,16,02,51,084,17,04,18,110,12*73
$GPGSV,3,2,11,27,07,177,35,12,07,223,19,26,76,164,36,15,52,207,38*7C
$GPGSV,3,3,11,29,33,309,19,08,13,079,,30,04,253,*47
$GPRMC,162842.000,A,2233.2038,N,11413.8090,E,0.0,105.6,040191,,,A*64
$GPGGA,162842.000,2233.2038,N,11413.8090,E,1,08,1.1,51.9,M,14.2,M,,0000*6B
$GPVTG,105.6,T,,M,0.0,N,0.0,K,A*0F
$GPGLL,2233.2038,N,11413.8090,E,162842.00,A,A*6C
$GPGSA,A,3,02,04,05,10,12,15,26,27,,,,,1.7,1.1,1.3*32
$GPRMC,162843.000,A,2233.2038,N,11413.8090,E,0.0,105.6,040191,,,A*65
$GPGGA,162843.000,2233.2038,N,11413.8090,E,1,08,1.1,51.9,M,14.2,M,,0000*6A
$GPVTG,105.6,T,,M,0.0,N,0.0,K,A*0F
$GPGLL,2233.2038,N,11413.8090,E,162843.00,A,A*6D
$GPGSA,A,3,02,04,05,10,12,15,26,27,,,,,1.7,1.1,1.3*32
$GPRMC,162844.000,A,2233.2038,N,11413.8090,E,0.0,105.6,040191,,,A*62
$GPGGA,162844.000,2233.2038,N,11413.8090,E,1,08,1.1,51.9,M,14.2,M,,0000*6D
$GPVTG,105.6,T,,M,0.0,N,0.0,K,A*0F
$GPGLL,2233.2038,N,11413.8090,E,162844.00,A,A*6A
$GPGSA,A,3,02,04,05,10,12,15,26,27,,,,,1.7,1.1,1.3*32
$GPRMC,162845.000,A,2233.2038,N,11413.8090,E,0.0,105.6,040191,,,A*63
$GPGGA,162845.000,2233.2038,N,11413.8090,E,1,08,1.1,51.9,M,14.2,M,,0000*6C
$GPVTG,105.6,T,,M,0.0,N,0.0,K,A*0F
$GPGLL,2233.2038,N,11413.8090,E,162845.00,A,A*6B
$GPGSA,A,3,02,04,05,10,12,15,26,27,,,,,1.7,1.1,1.3*32
$GPRMC,162846.000,A,2233.2038,N,11413.8090,E,0.0,105.6,040191,,,A*60
$GPGGA,162846.000,2233.2038,N,11413.8090,E,1,07,1.4,51.9,M,14.2,M,,0000*65
$GPVTG,105.6,T,,M,0.0,N,0.0,K,A*0F
$GPGLL,2233.2038,N,11413.8090,E,162846.00,A,A*68
$GPGSA,A,3,02,05,10,12,15,26,27,,,,,,1.9,1.4,1.3*3D
$GPGSV,3,1,11,10,24,045,22,05,50,002,16,02,51,084,16,04,18,110,11*78
$GPGSV,3,2,11,27,07,177,35,12,07,223,22,26,76,164,35,15,52,207,39*76
$GPGSV,3,3,11,29,33,309,19,08,13,079,,30,04,253,*47
$GPRMC,162847.000,A,2233.2038,N,11413.8090,E,0.0,105.6,040191,,,A*61
$GPGGA,162847.000,2233.2038,N,11413.8090,E,1,07,1.4,51.9,M,14.2,M,,0000*64
$GPVTG,105.6,T,,M,0.0,N,0.0,K,A*0F
$GPGLL,2233.2038,N,11413.8090,E,162847.00,A,A*69
$GPGSA,A,3,02,05,10,12,15,26,27,,,,,,1.9,1.4,1.3*3D
$GPRMC,162848.000,A,2233.2038,N,11413.8090,E,0.0,105.6,040191,,,A*6E
$GPGGA,162848.000,2233.2038,N,11413.8090,E,1,07,1.4,51.9,M,14.2,M,,0000*6B
$GPVTG,105.6,T,,M,0.0,N,0.0,K,A*0F
$GPGLL,2233.2038,N,11413.8090,E,162848.00,A,A*66
$GPGSA,A,3,02,05,10,12,15,26,27,,,,,,1.9,1.4,1.3*3D
$GPRMC,162849.000,A,2233.2038,N,11413.8090,E,0.0,105.6,040191,,,A*6F
$GPGGA,162849.000,2233.2038,N,11413.8090,E,1,07,1.4,51.9,M,14.2,M,,0000*6A
$GPVTG,105.6,T,,M,0.0,N,0.0,K,A*0F
$GPGLL,2233.2038,N,11413.8090,E,162849.00,A,A*67
$GPGSA,A,3,02,05,10,12,15,26,27,,,,,,1.9,1.4,1.3*3D
$GPRMC,162850.000,A,2233.2038,N,11413.8090,E,0.0,105.6,040191,,,A*67
$GPGGA,162850.000,2233.2038,N,11413.8090,E,1,07,1.4,51.9,M,14.2,M,,0000*62
$GPVTG,105.6,T,,M,0.0,N,0.0,K,A*0F
$GPGLL,2233.2038,N,11413.8090,E,162850.00,A,A*6F
$GPGSA,A,3,02,05,10,12,15,26,27,,,,,,1.9,1.4,1.3*3D
$GPRMC,162851.000,A,2233.2038,N,11413.8090,E,0.0,105.6,040191,,,A*66
$GPGGA,162851.000,2233.2038,N,11413.8090,E,1,07,1.4,51.9,M,14.2,M,,0000*63
$GPVTG,105.6,T,,M,0.0,N,0.0,K,A*0F
$GPGLL,2233.2038,N,11413.8090,E,162851.00,A,A*6E
$GPGSA,A,3,02,05,10,12,15,26,27,,,,,,1.9,1.4,1.3*3D
$GPGSV,3,1,11,10,24,045,23,05,50,002,14,02,51,084,13,27,07,177,34*77
$GPGSV,3,2,11,12,07,223,22,26,76,164,35,15,52,207,40,29,33,309,22*7C
$GPGSV,3,3,11,04,18,110,,08,13,079,,30,04,253,*43
$GPRMC,162852.000,A,2233.2038,N,11413.8090,E,0.0,105.6,040191,,,A*65
$GPGGA,162852.000,2233.2038,N,11413.8090,E,1,07,1.4,51.9,M,14.2,M,,0000*60
$GPVTG,105.6,T,,M,0.0,N,0.0,K,A*0F
$GPGLL,2233.2038,N,11413.8090,E,162852.00,A,A*6D
$GPGSA,A,3,02,05,10,12,15,26,27,,,,,,1.9,1.4,1.3*3D
$GPRMC,162853.000,A,2233.2038,N,11413.8090,E,0.0,105.6,040191,,,A*64
$GPGGA,162853.000,2233.2038,N,11413.8090,E,1,07,1.4,51.9,M,14.2,M,,0000*61
$GPVTG,105.6,T,,M,0.0,N,0.0,K,A*0F
$GPGLL,2233.2038,N,11413.8090,E,162853.00,A,A*6C
$GPGSA,A,3,02,05,10,12,15,26,27,,,,,,1.9,1.4,1.3*3D
$GPRMC,162854.000,A,2233.2038,N,11413.8090,E,0.0,105.6,040191,,,A*63
$GPGGA,162854.000,2233.2038,N,11413.8090,E,1,08,1.1,51.9,M,14.2,M,,0000*6C
$GPVTG,105.6,T,,M,0.0,N,0.0,K,A*0F
$GPGLL,2233.2038,N,11413.8090,E,162854.00,A,A*6B
$GPGSA,A,3,02,04,05,10,12,15,26,27,,,,,1.7,1.1,1.3*32
$GPRMC,162855.000,A,2233.2038,N,11413.8090,E,0.0,105.6,040191,,,A*62
$GPGGA,162855.000,2233.2038,N,11413.8090,E,1,08,1.1,51.9,M,14.2,M,,0000*6D
$GPVTG,105.6,T,,M,0.0,N,0.0,K,A*0F
$GPGLL,2233.2038,N,11413.8090,E,162855.00,A,A*6A
$GPGSA,A,3,02,04,05,10,12,15,26,27,,,,,1.7,1.1,1.3*32
$GPRMC,162856.000,A,2233.2038,N,11413.8090,E,0.0,105.6,040191,,,A*61
$GPGGA,162856.000,2233.2038,N,11413.8090,E,1,07,1.4,51.9,M,14.2,M,,0000*64
$GPVTG,105.6,T,,M,0.0,N,0.0,K,A*0F
$GPGLL,2233.2038,N,11413.8090,E,162856.00,A,A*69
$GPGSA,A,3,02,05,10,12,15,26,27,,,,,,1.9,1.4,1.3*3D
$GPGSV,3,1,11,10,24,045,20,05,50,002,13,02,51,084,12,04,18,110,14*7E
$GPGSV,3,2,11,27,07,177,35,12,07,223,23,26,76,164,35,15,52,207,40*79
$GPGSV,3,3,11,29,33,309,24,08,13,079,,30,04,253,*49
$GPRMC,162857.000,A,2233.2038,N,11413.8090,E,0.0,105.6,040191,,,A*60
$GPGGA,162857.000,2233.2038,N,11413.8090,E,1,07,1.4,51.9,M,14.2,M,,0000*65
$GPVTG,105.6,T,,M,0.0,N,0.0,K,A*0F
$GPGLL,2233.2038,N,11413.8090,E,162857.00,A,A*68
$GPGSA,A,3,02,05,10,12,15,26,27,,,,,,1.9,1.4,1.3*3D
$GPRMC,162858.000,A,2233.2038,N,11413.8090,E,0.0,105.6,040191,,,A*6F
$GPGGA,162858.000,2233.2038,N,11413.8090,E,1,07,1.4,51.9,M,14.2,M,,0000*6A
$GPVTG,105.6,T,,M,0.0,N,0.0,K,A*0F
$GPGLL,2233.2038,N,11413.8090,E,162858.00,A,A*67
$GPGSA,A,3,02,05,10,12,15,26,27,,,,,,1.9,1.4,1.3*3D
$GPRMC,162859.000,A,2233.2038,N,11413.8090,E,0.0,105.6,040191,,,A*6E
$GPGGA,162859.000,2233.2038,N,11413.8090,E,1,07,1.4,51.9,M,14.2,M,,0000*6B
$GPVTG,105.6,T,,M,0.0,N,0.0,K,A*0F
$GPGLL,2233.2038,N,11413.8090,E,162859.00,A,A*66
$GPGSA,A,3,02,05,10,12,15,26,27,,,,,,1.9,1.4,1.3*3D
$GPRMC,162900.000,A,2233.2038,N,11413.8090,E,0.0,105.6,040191,,,A*63
$GPGGA,162900.000,2233.2038,N,11413.8090,E,1,07,1.4,51.9,M,14.2,M,,0000*66
$GPVTG,105.6,T,,M,0.0,N,0.0,K,A*0F
$GPGLL,2233.2038,N,11413.8090,E,162900.00,A,A*6B
$GPGSA,A,3,02,05,10,12,15,26,27,,,,,,1.9,1.4,1.3*3D
$GPRMC,162901.000,A,2233.2038,N,11413.8090,E,0.0,105.6,040191,,,A*62
$GPGGA,162901.000,2233.2038,N,11413.8090,E,1,07,1.4,51.9,M,14.2,M,,0000*67
$GPVTG,105.6,T,,M,0.0,N,0.0,K,A*0F
$GPGLL,2233.2038,N,11413.8090,E,162901.00,A,A*6A
$GPGSA,A,3,02,05,10,12,15,26,27,,,,,,1.9,1.4,1.3*3D
$GPGSV,3,1,11,10,24,045,18,05,50,002,15,02,51,084,14,27,07,177,34*79
$GPGSV,3,2,11,12,07,223,24,26,76,164,36,15,52,207,40,29,33,309,26*7D
$GPGSV,3,3,11,04,18,110,,08,13,079,,30,04,253,*43
$GPRMC,162902.000,A,2233.2038,N,11413.8090,E,0.0,105.6,040191,,,A*61
$GPGGA,162902.000,2233.2038,N,11413.8090,E,1,07,1.4,51.9,M,14.2,M,,0000*64
$GPVTG,105.6,T,,M,0.0,N,0.0,K,A*0F
$GPGLL,2233.2038,N,11413.8090,E,162902.00,A,A*69
$GPGSA,A,3,02,05,10,12,15,26,27,,,,,,1.9,1.4,1.3*3D
$GPRMC,162903.000,A,2233.2038,N,11413.8090,E,0.0,105.6,040191,,,A*60
$GPGGA,162903.000,2233.2038,N,11413.8090,E,1,07,1.4,51.9,M,14.2,M,,0000*65
$GPVTG,105.6,T,,M,0.0,N,0.0,K,A*0F
$GPGLL,2233.2038,N,11413.8090,E,162903.00,A,A*68
$GPGSA,A,3,02,05,10,12,15,26,27,,,,,,1.9,1.4,1.3*3D
$GPRMC,162904.000,A,2233.2038,N,11413.8090,E,0.0,105.6,040191,,,A*67
$GPGGA,162904.000,2233.2038,N,11413.8090,E,1,07,1.4,51.9,M,14.2,M,,0000*62
$GPVTG,105.6,T,,M,0.0,N,0.0,K,A*0F
$GPGLL,2233.2038,N,11413.8090,E,162904.00,A,A*6F
$GPGSA,A,3,02,05,10,12,15,26,27,,,,,,1.9,1.4,1.3*3D
$GPRMC,162905.000,A,2233.2038,N,11413.8090,E,0.0,105.6,040191,,,A*66
$GPGGA,162905.000,2233.2038,N,11413.8090,E,1,07,1.4,51.9,M,14.2,M,,0000*63
$GPVTG,105.6,T,,M,0.0,N,0.0,K,A*0F
$GPGLL,2233.2038,N,11413.8090,E,162905.00,A,A*6E
$GPGSA,A,3,02,05,10,12,15,26,27,,,,,,1.9,1.4,1.3*3D
$GPRMC,162906.000,A,2233.2038,N,11413.8090,E,0.0,105.6,040191,,,A*65
$GPGGA,162906.000,2233.2038,N,11413.8090,E,1,07,1.4,51.9,M,14.2,M,,0000*60
$GPVTG,105.6,T,,M,0.0,N,0.0,K,A*0F
$GPGLL,2233.2038,N,11413.8090,E,162906.00,A,A*6D
$GPGSA,A,3,02,05,10,12,15,26,27,,,,,,1.9,1.4,1.3*3D
$GPGSV,3,1,11,10,24,045,19,05,50,003,14,02,51,084,14,27,07,177,34*78
$GPGSV,3,2,11,12,07,223,24,26,76,164,36,15,52,207,40,29,33,309,26*7D
$GPGSV,3,3,11,04,18,110,,08,13,079,,30,04,253,*43
$GPRMC,162907.000,A,2233.2038,N,11413.8090,E,0.0,105.6,040191,,,A*64
$GPGGA,162907.000,2233.2038,N,11413.8090,E,1,07,1.4,51.9,M,14.2,M,,0000*61
$GPVTG,105.6,T,,M,0.0,N,0.0,K,A*0F
$GPGLL,2233.2038,N,11413.8090,E,162907.00,A,A*6C
$GPGSA,A,3,02,05,10,12,15,26,27,,,,,,1.9,1.4,1.3*3D
$GPRMC,162908.000,A,2233.2038,N,11413.8090,E,0.0,105.6,040191,,,A*6B
$GPGGA,162908.000,2233.2038,N,11413.8090,E,1,06,1.6,51.9,M,14.2,M,,0000*6D
$GPVTG,105.6,T,,M,0.0,N,0.0,K,A*0F
$GPGLL,2233.2038,N,11413.8090,E,162908.00,A,A*63
$GPGSA,A,3,02,05,12,15,26,27,,,,,,,2.3,1.6,1.7*33
$GPRMC,162909.000,A,2233.2038,N,11413.8090,E,0.0,105.6,040191,,,A*6A
$GPGGA,162909.000,2233.2038,N,11413.8090,E,1,06,1.6,51.9,M,14.2,M,,0000*6C
$GPVTG,105.6,T,,M,0.0,N,0.0,K,A*0F
$GPGLL,2233.2038,N,11413.8090,E,162909.00,A,A*62
$GPGSA,A,3,02,05,12,15,26,27,,,,,,,2.3,1.6,1.7*33
$GPRMC,162910.000,A,2233.2038,N,11413.8090,E,0.0,105.6,040191,,,A*62
$GPGGA,162910.000,2233.2038,N,11413.8090,E,1,06,1.6,51.9,M,14.2,M,,0000*64
$GPVTG,105.6,T,,M,0.0,N,0.0,K,A*0F
$GPGLL,2233.2038,N,11413.8090,E,162910.00,A,A*6A
$GPGSA,A,3,02,05,12,15,26,27,,,,,,,2.3,1.6,1.7*33
$GPRMC,162911.000,A,2233.2038,N,11413.8090,E,0.0,105.6,040191,,,A*63
$GPGGA,162911.000,2233.2038,N,11413.8090,E,1,06,1.6,51.9,M,14.2,M,,0000*65
$GPVTG,105.6,T,,M,0.0,N,0.0,K,A*0F
$GPGLL,2233.2038,N,11413.8090,E,162911.00,A,A*6B
$GPGSA,A,3,02,05,12,15,26,27,,,,,,,2.3,1.6,1.7*33
$GPGSV,3,1,11,05,50,003,13,02,51,084,13,04,18,110,11,27,07,177,34*7B
$GPGSV,3,2,11,12,07,222,24,26,76,164,37,15,52,207,41,29,33,309,24*7E
$GPGSV,3,3,11,10,24,045,,08,13,079,,30,04,253,*48
$GPRMC,162912.000,A,2233.2038,N,11413.8090,E,0.0,105.6,040191,,,A*60
$GPGGA,162912.000,2233.2038,N,11413.8090,E,1,07,1.3,51.9,M,14.2,M,,0000*62
$GPVTG,105.6,T,,M,0.0,N,0.0,K,A*0F
$GPGLL,2233.2038,N,11413.8090,E,162912.00,A,A*68
$GPGSA,A,3,02,04,05,12,15,26,27,,,,,,2.0,1.3,1.5*33
$GPRMC,162913.000,A,2233.2038,N,11413.8090,E,0.0,105.6,040191,,,A*61
$GPGGA,162913.000,2233.2038,N,11413.8090,E,1,07,1.4,51.9,M,14.2,M,,0000*64
$GPVTG,105.6,T,,M,0.0,N,0.0,K,A*0F
$GPGLL,2233.2038,N,11413.8090,E,162913.00,A,A*69
$GPGSA,A,3,02,05,10,12,15,26,27,,,,,,1.9,1.4,1.3*3D
$GPRMC,162914.000,A,2233.2038,N,11413.8090,E,0.0,105.6,040191,,,A*66
$GPGGA,162914.000,2233.2038,N,11413.8090,E,1,08,1.1,51.9,M,14.2,M,,0000*69
$GPVTG,105.6,T,,M,0.0,N,0.0,K,A*0F
$GPGLL,2233.2038,N,11413.8090,E,162914.00,A,A*6E
$GPGSA,A,3,02,04,05,10,12,15,26,27,,,,,1.6,1.1,1.2*32
$GPRMC,162915.000,A,2233.2038,N,11413.8090,E,0.0,105.6,040191,,,A*67
$GPGGA,162915.000,2233.2038,N,11413.8090,E,1,08,1.1,51.9,M,14.2,M,,0000*68
$GPVTG,105.6,T,,M,0.0,N,0.0,K,A*0F
$GPGLL,2233.2038,N,11413.8090,E,162915.00,A,A*6F
$GPGSA,A,3,02,04,05,10,12,15,26,27,,,,,1.6,1.1,1.2*32
$GPRMC,162916.000,A,2233.2038,N,11413.8090,E,0.0,105.6,040191,,,A*64
$GPGGA,162916.000,2233.2038,N,11413.8090,E,1,06,1.6,51.9,M,14.2,M,,0000*62
$GPVTG,105.6,T,,M,0.0,N,0.0,K,A*0F
$GPGLL,2233.2038,N,11413.8090,E,162916.00,A,A*6C
$GPGSA,A,3,05,10,12,15,26,27,,,,,,,2.1,1.6,1.3*36
$GPGSV,3,1,11,10,24,045,16,05,50,003,11,02,51,084,12,04,18,110,12*7E
$GPGSV,3,2,11,27,07,177,35,12,07,222,24,26,76,164,37,15,52,207,41*7C
$GPGSV,3,3,11,29,33,309,22,08,13,079,,30,04,253,*4F
$GPRMC,162917.000,A,2233.2038,N,11413.8090,E,0.0,105.6,040191,,,A*65
$GPGGA,162917.000,2233.2038,N,11413.8090,E,1,05,2.0,51.9,M,14.2,M,,0000*65
$GPVTG,105.6,T,,M,0.0,N,0.0,K,A*0F
$GPGLL,2233.2038,N,11413.8090,E,162917.00,A,A*6D
$GPGSA,A,3,10,12,15,26,27,,,,,,,,2.4,2.0,1.3*33
$GPRMC,162918.000,A,2233.2038,N,11413.8090,E,0.0,105.6,040191,,,A*6A
$GPGGA,162918.000,2233.2038,N,11413.8090,E,1,05,2.0,51.9,M,14.2,M,,0000*6A
$GPVTG,105.6,T,,M,0.0,N,0.0,K,A*0F
$GPGLL,2233.2038,N,11413.8090,E,162918.00,A,A*62
$GPGSA,A,3,10,12,15,26,27,,,,,,,,2.4,2.0,1.3*33
$GPRMC,162919.000,A,2233.2038,N,11413.8090,E,0.0,105.6,040191,,,A*6B
$GPGGA,162919.000,2233.2038,N,11413.8090,E,1,05,2.0,51.9,M,14.2,M,,0000*6B
$GPVTG,105.6,T,,M,0.0,N,0.0,K,A*0F
$GPGLL,2233.2038,N,11413.8090,E,162919.00,A,A*63
$GPGSA,A,3,10,12,15,26,27,,,,,,,,2.4,2.0,1.3*33
$GPRMC,162920.000,A,2233.2038,N,11413.8090,E,0.0,105.6,040191,,,A*61
$GPGGA,162920.000,2233.2038,N,11413.8090,E,1,05,2.0,51.9,M,14.2,M,,0000*61
$GPVTG,105.6,T,,M,0.0,N,0.0,K,A*0F
$GPGLL,2233.2038,N,11413.8090,E,162920.00,A,A*69
$GPGSA,A,3,10,12,15,26,27,,,,,,,,2.4,2.0,1.3*33
$GPRMC,162921.000,A,2233.2038,N,11413.8090,E,0.0,105.6,040191,,,A*60
$GPGGA,162921.000,2233.2038,N,11413.8090,E,1,05,2.0,51.9,M,14.2,M,,0000*60
$GPVTG,105.6,T,,M,0.0,N,0.0,K,A*0F
$GPGLL,2233.2038,N,11413.8090,E,162921.00,A,A*68
$GPGSA,A,3,10,12,15,26,27,,,,,,,,2.4,2.0,1.3*33
$GPGSV,3,1,11,10,24,045,17,27,07,177,35,12,07,222,20,26,76,163,37*7F
$GPGSV,3,2,11,15,52,207,40,02,51,084,,05,50,003,,29,33,308,*73
$GPGSV,3,3,11,04,18,110,,08,13,078,,30,04,253,*42
$GPRMC,162922.000,A,2233.2038,N,11413.8090,E,0.0,105.6,040191,,,A*63
$GPGGA,162922.000,2233.2038,N,11413.8090,E,1,05,2.0,51.9,M,14.2,M,,0000*63
$GPVTG,105.6,T,,M,0.0,N,0.0,K,A*0F
$GPGLL,2233.2038,N,11413.8090,E,162922.00,A,A*6B
$GPGSA,A,3,10,12,15,26,27,,,,,,,,2.4,2.0,1.3*33
$GPRMC,162923.000,A,2233.2038,N,11413.8090,E,0.0,105.6,040191,,,A*62
$GPGGA,162923.000,2233.2038,N,11413.8090,E,1,06,1.6,51.9,M,14.2,M,,0000*64
$GPVTG,105.6,T,,M,0.0,N,0.0,K,A*0F
$GPGLL,2233.2038,N,11413.8090,E,162923.00,A,A*6A
$GPGSA,A,3,05,10,12,15,26,27,,,,,,,2.1,1.6,1.3*36
$GPRMC,162924.000,A,2233.2038,N,11413.8090,E,0.0,105.6,040191,,,A*65
$GPGGA,162924.000,2233.2038,N,11413.8090,E,1,06,1.6,51.9,M,14.2,M,,0000*63
$GPVTG,105.6,T,,M,0.0,N,0.0,K,A*0F
$GPGLL,2233.2038,N,11413.8090,E,162924.00,A,A*6D
$GPGSA,A,3,05,10,12,15,26,27,,,,,,,2.1,1.6,1.3*36
$GPRMC,162925.000,A,2233.2038,N,11413.8090,E,0.0,105.6,040191,,,A*64
$GPGGA,162925.000,2233.2038,N,11413.8090,E,1,06,1.6,51.9,M,14.2,M,,0000*62
$GPVTG,105.6,T,,M,0.0,N,0.0,K,A*0F
$GPGLL,2233.2038,N,11413.8090,E,162925.00,A,A*6C
$GPGSA,A,3,05,10,12,15,26,27,,,,,,,2.1,1.6,1.3*36
$GPRMC,162926.000,A,2233.2038,N,11413.8090,E,0.0,105.6,040191,,,A*67
$GPGGA,162926.000,2233.2038,N,11413.8090,E,1,06,1.6,51.9,M,14.2,M,,0000*61
$GPVTG,105.6,T,,M,0.0,N,0.0,K,A*0F
$GPGLL,2233.2038,N,11413.8090,E,162926.00,A,A*6F
$GPGSA,A,3,05,10,12,15,26,27,,,,,,,2.1,1.6,1.3*36
$GPGSV,3,1,11,10,24,045,20,05,49,003,16,27,07,177,34,12,07,222,18*78
$GPGSV,3,2,11,26,76,163,37,15,52,207,38,02,51,084,,29,33,308,*7A
$GPGSV,3,3,11,04,18,110,,08,13,078,,30,04,253,*42
$GPRMC,162927.000,A,2233.2038,N,11413.8090,E,0.0,105.6,040191,,,A*66
$GPGGA,162927.000,2233.2038,N,11413.8090,E,1,06,1.6,51.9,M,14.2,M,,0000*60
$GPVTG,105.6,T,,M,0.0,N,0.0,K,A*0F
$GPGLL,2233.2038,N,11413.8090,E,162927.00,A,A*6E
$GPGSA,A,3,05,10,12,15,26,27,,,,,,,2.1,1.6,1.3*36
$GPRMC,162928.000,A,2233.2038,N,11413.8090,E,0.0,105.6,040191,,,A*69
$GPGGA,162928.000,2233.2038,N,11413.8090,E,1,06,1.6,51.9,M,14.2,M,,0000*6F
$GPVTG,105.6,T,,M,0.0,N,0.0,K,A*0F
$GPGLL,2233.2038,N,11413.8090,E,162928.00,A,A*61
$GPGSA,A,3,05,10,12,15,26,27,,,,,,,2.1,1.6,1.3*36
$GPRMC,162929.000,A,2233.2038,N,11413.8090,E,0.0,105.6,040191,,,A*68
$GPGGA,162929.000,2233.2038,N,11413.8090,E,1,06,1.6,51.9,M,14.2,M,,0000*6E
$GPVTG,105.6,T,,M,0.0,N,0.0,K,A*0F
$GPGLL,2233.2038,N,11413.8090,E,162929.00,A,A*60
$GPGSA,A,3,05,10,12,15,26,27,,,,,,,2.1,1.6,1.3*36
$GPRMC,162930.000,A,2233.2038,N,11413.8090,E,0.0,105.6,040191,,,A*60
$GPGGA,162930.000,2233.2038,N,11413.8090,E,1,06,1.6,51.9,M,14.2,M,,0000*66
$GPVTG,105.6,T,,M,0.0,N,0.0,K,A*0F
$GPGLL,2233.2038,N,11413.8090,E,162930.00,A,A*68
$GPGSA,A,3,05,10,12,15,26,27,,,,,,,2.1,1.6,1.3*36
$GPRMC,162931.000,A,2233.2038,N,11413.8090,E,0.0,105.6,040191,,,A*61
$GPGGA,162931.000,2233.2038,N,11413.8090,E,1,06,1.6,51.9,M,14.2,M,,0000*67
$GPVTG,105.6,T,,M,0.0,N,0.0,K,A*0F
$GPGLL,2233.2038,N,11413.8090,E,162931.00,A,A*69
$GPGSA,A,3,05,10,12,15,26,27,,,,,,,2.1,1.6,1.3*36
$GPGSV,3,1,11,10,24,045,19,05,49,003,16,27,07,177,35,12,07,222,17*7C
$GPGSV,3,2,11,26,76,163,37,15,52,207,38,02,51,084,,29,33,308,*7A
$GPGSV,3,3,11,04,18,110,,08,13,078,,30,04,253,*42
$GPRMC,162932.000,A,2233.2038,N,11413.8090,E,0.0,105.6,040191,,,A*62
$GPGGA,162932.000,2233.2038,N,11413.8090,E,1,06,1.6,51.9,M,14.2,M,,0000*64
$GPVTG,105.6,T,,M,0.0,N,0.0,K,A*0F
$GPGLL,2233.2038,N,11413.8090,E,162932.00,A,A*6A
$GPGSA,A,3,05,10,12,15,26,27,,,,,,,2.1,1.6,1.3*36
$GPRMC,162933.000,A,2233.2038,N,11413.8090,E,0.0,105.6,040191,,,A*63
$GPGGA,162933.000,2233.2038,N,11413.8090,E,1,06,1.6,51.9,M,14.2,M,,0000*65
$GPVTG,105.6,T,,M,0.0,N,0.0,K,A*0F
$GPGLL,2233.2038,N,11413.8090,E,162933.00,A,A*6B
$GPGSA,A,3,05,10,12,15,26,27,,,,,,,2.1,1.6,1.3*36
$GPRMC,162934.000,A,2233.2038,N,11413.8090,E,0.0,105.6,040191,,,A*64
$GPGGA,162934.000,2233.2038,N,11413.8090,E,1,06,1.6,51.9,M,14.2,M,,0000*62
$GPVTG,105.6,T,,M,0.0,N,0.0,K,A*0F
$GPGLL,2233.2038,N,11413.8090,E,162934.00,A,A*6C
$GPGSA,A,3,05,10,12,15,26,27,,,,,,,2.1,1.6,1.3*36
$GPRMC,162935.000,A,2233.2038,N,11413.8090,E,0.0,105.6,040191,,,A*65
$GPGGA,162935.000,2233.2038,N,11413.8090,E,1,06,1.6,51.9,M,14.2,M,,0000*63
$GPVTG,105.6,T,,M,0.0,N,0.0,K,A*0F
$GPGLL,2233.2038,N,11413.8090,E,162935.00,A,A*6D
$GPGSA,A,3,05,10,12,15,26,27,,,,,,,2.1,1.6,1.3*36
$GPRMC,162936.000,A,2233.2038,N,11413.8090,E,0.0,105.6,040191,,,A*66
$GPGGA,162936.000,2233.2038,N,11413.8090,E,1,06,1.6,51.9,M,14.2,M,,0000*60
$GPVTG,105.6,T,,M,0.0,N,0.0,K,A*0F
$GPGLL,2233.2038,N,11413.8090,E,162936.00,A,A*6E
$GPGSA,A,3,05,10,12,15,26,27,,,,,,,2.1,1.6,1.3*36
$GPGSV,3,1,11,10,24,045,21,05,49,003,15,27,07,177,35,12,07,222,18*7B
$GPGSV,3,2,11,26,76,163,36,15,52,207,38,29,33,308,23,02,51,084,*7A
$GPGSV,3,3,11,04,18,110,,08,13,078,,30,04,253,*42
$GPRMC,162937.000,A,2233.2038,N,11413.8090,E,0.0,105.6,040191,,,A*67
$GPGGA,162937.000,2233.2038,N,11413.8090,E,1,06,1.6,51.9,M,14.2,M,,0000*61
$GPVTG,105.6,T,,M,0.0,N,0.0,K,A*0F
$GPGLL,2233.2038,N,11413.8090,E,162937.00,A,A*6F
$GPGSA,A,3,05,10,12,15,26,27,,,,,,,2.1,1.6,1.3*36
$GPRMC,162938.000,A,2233.2038,N,11413.8090,E,0.0,105.6,040191,,,A*68
$GPGGA,162938.000,2233.2038,N,11413.8090,E,1,06,1.6,51.9,M,14.2,M,,0000*6E
$GPVTG,105.6,T,,M,0.0,N,0.0,K,A*0F
$GPGLL,2233.2038,N,11413.8090,E,162938.00,A,A*60
$GPGSA,A,3,05,10,12,15,26,27,,,,,,,2.1,1.6,1.3*36
$GPRMC,162939.000,A,2233.2038,N,11413.8090,E,0.0,105.6,040191,,,A*69
$GPGGA,162939.000,2233.2038,N,11413.8090,E,1,06,1.6,51.9,M,14.2,M,,0000*6F
$GPVTG,105.6,T,,M,0.0,N,0.0,K,A*0F
$GPGLL,2233.2038,N,11413.8090,E,162939.00,A,A*61
$GPGSA,A,3,05,10,12,15,26,27,,,,,,,2.1,1.6,1.3*36
$GPRMC,162940.000,A,2233.2038,N,11413.8090,E,0.0,105.6,040191,,,A*67
$GPGGA,162940.000,2233.2038,N,11413.8090,E,1,06,1.6,51.9,M,14.2,M,,0000*61
$GPVTG,105.6,T,,M,0.0,N,0.0,K,A*0F
$GPGLL,2233.2038,N,11413.8090,E,162940.00,A,A*6F
$GPGSA,A,3,05,10,12,15,26,27,,,,,,,2.1,1.6,1.3*36
$GPRMC,162941.000,A,2233.2038,N,11413.8090,E,0.0,105.6,040191,,,A*66
$GPGGA,162941.000,2233.2038,N,11413.8090,E,1,06,1.6,51.9,M,14.2,M,,0000*60
$GPVTG,105.6,T,,M,0.0,N,0.0,K,A*0F
$GPGLL,2233.2038,N,11413.8090,E,162941.00,A,A*6E
$GPGSA,A,3,05,10,12,15,26,27,,,,,,,2.1,1.6,1.3*36
$GPGSV,3,1,11,10,24,045,22,05,49,003,13,27,07,177,35,12,07,222,15*73
$GPGSV,3,2,11,26,76,163,36,15,52,208,39,29,33,308,20,02,51,084,*77
$GPGSV,3,3,11,04,18,110,,08,13,078,,30,04,253,*42
$GPRMC,162942.000,A,2233.2038,N,11413.8090,E,0.0,105.6,040191,,,A*65
$GPGGA,162942.000,2233.2038,N,11413.8090,E,1,06,1.6,51.9,M,14.2,M,,0000*63
$GPVTG,105.6,T,,M,0.0,N,0.0,K,A*0F
$GPGLL,2233.2038,N,11413.8090,E,162942.00,A,A*6D
$GPGSA,A,3,05,10,12,15,26,27,,,,,,,2.1,1.6,1.3*36
$GPRMC,162943.000,A,2233.2038,N,11413.8090,E,0.0,105.6,040191,,,A*64
$GPGGA,162943.000,2233.2038,N,11413.8090,E,1,07,1.4,51.9,M,14.2,M,,0000*61
$GPVTG,105.6,T,,M,0.0,N,0.0,K,A*0F
$GPGLL,2233.2038,N,11413.8090,E,162943.00,A,A*6C
$GPGSA,A,3,02,05,10,12,15,26,27,,,,,,1.9,1.4,1.3*3D
$GPRMC,162944.000,A,2233.2038,N,11413.8090,E,0.0,105.6,040191,,,A*63
$GPGGA,162944.000,2233.2038,N,11413.8090,E,1,07,1.4,51.9,M,14.2,M,,0000*66
$GPVTG,105.6,T,,M,0.0,N,0.0,K,A*0F
$GPGLL,2233.2038,N,11413.8090,E,162944.00,A,A*6B
$GPGSA,A,3,02,05,10,12,15,26,27,,,,,,1.9,1.4,1.3*3D
$GPRMC,162945.000,A,2233.2038,N,11413.8090,E,0.0,105.6,040191,,,A*62
$GPGGA,162945.000,2233.2038,N,11413.8090,E,1,06,1.6,51.9,M,14.2,M,,0000*64
$GPVTG,105.6,T,,M,0.0,N,0.0,K,A*0F
$GPGLL,2233.2038,N,11413.8090,E,162945.00,A,A*6A
$GPGSA,A,3,05,10,12,15,26,27,,,,,,,2.1,1.6,1.3*36
$GPRMC,162946.000,A,2233.2038,N,11413.8090,E,0.0,105.6,040191,,,A*61
$GPGGA,162946.000,2233.2038,N,11413.8090,E,1,05,2.0,51.9,M,14.2,M,,0000*61
$GPVTG,105.6,T,,M,0.0,N,0.0,K,A*0F
$GPGLL,2233.2038,N,11413.8090,E,162946.00,A,A*69
$GPGSA,A,3,10,12,15,26,27,,,,,,,,2.4,2.0,1.3*33
$GPGSV,3,1,11,10,24,045,21,05,49,003,11,02,51,084,13,27,07,177,36*7B
$GPGSV,3,2,11,12,07,222,17,26,77,163,36,15,52,208,38,29,33,308,18*76
$GPGSV,3,3,11,04,17,110,,08,13,078,,30,04,253,*4D
$GPRMC,162947.000,A,2233.2038,N,11413.8090,E,0.0,105.6,040191,,,A*60
$GPGGA,162947.000,2233.2038,N,11413.8090,E,1,05,2.0,51.9,M,14.2,M,,0000*60
$GPVTG,105.6,T,,M,0.0,N,0.0,K,A*0F
$GPGLL,2233.2038,N,11413.8090,E,162947.00,A,A*68
$GPGSA,A,3,10,12,15,26,27,,,,,,,,2.4,2.0,1.3*33
$GPRMC,162948.000,A,2233.2038,N,11413.8090,E,0.0,105.6,040191,,,A*6F
$GPGGA,162948.000,2233.2038,N,11413.8090,E,1,05,2.0,51.9,M,14.2,M,,0000*6F
$GPVTG,105.6,T,,M,0.0,N,0.0,K,A*0F
$GPGLL,2233.2038,N,11413.8090,E,162948.00,A,A*67
$GPGSA,A,3,10,12,15,26,27,,,,,,,,2.4,2.0,1.3*33
$GPRMC,162949.000,A,2233.2038,N,11413.8090,E,0.0,105.6,040191,,,A*6E
$GPGGA,162949.000,2233.2038,N,11413.8090,E,1,05,2.0,51.9,M,14.2,M,,0000*6E
$GPVTG,105.6,T,,M,0.0,N,0.0,K,A*0F
$GPGLL,2233.2038,N,11413.8090,E,162949.00,A,A*66
$GPGSA,A,3,10,12,15,26,27,,,,,,,,2.4,2.0,1.3*33
$GPRMC,162950.000,A,2233.2038,N,11413.8090,E,0.0,105.6,040191,,,A*66
$GPGGA,162950.000,2233.2038,N,11413.8090,E,1,05,2.0,51.9,M,14.2,M,,0000*66
$GPVTG,105.6,T,,M,0.0,N,0.0,K,A*0F
$GPGLL,2233.2038,N,11413.8090,E,162950.00,A,A*6E
$GPGSA,A,3,10,12,15,26,27,,,,,,,,2.4,2.0,1.3*33
$GPRMC,162951.000,A,2233.2038,N,11413.8090,E,0.0,105.6,040191,,,A*67
$GPGGA,162951.000,2233.2038,N,11413.8090,E,1,06,1.8,51.9,M,14.2,M,,0000*6F
$GPVTG,105.6,T,,M,0.0,N,0.0,K,A*0F
$GPGLL,2233.2038,N,11413.8090,E,162951.00,A,A*6F
$GPGSA,A,3,02,10,12,15,26,27,,,,,,,2.2,1.8,1.3*3C
$GPGSV,3,1,11,10,24,045,18,02,51,084,,27,07,177,36,12,07,222,21*7D
$GPGSV,3,2,11,26,77,163,36,15,53,208,39,29,33,308,17,05,49,003,*72
$GPGSV,3,3,11,04,17,110,,08,13,078,,30,04,253,*4D
$GPRMC,162952.000,A,2233.2038,N,11413.8090,E,0.0,105.6,040191,,,A*64
$GPGGA,162952.000,2233.2038,N,11413.8090,E,1,05,2.0,51.9,M,14.2,M,,0000*64
$GPVTG,105.6,T,,M,0.0,N,0.0,K,A*0F
$GPGLL,2233.2038,N,11413.8090,E,162952.00,A,A*6C
$GPGSA,A,3,10,12,15,26,27,,,,,,,,2.4,2.0,1.3*33
$GPRMC,162953.000,A,2233.2038,N,11413.8090,E,0.0,105.6,040191,,,A*65
$GPGGA,162953.000,2233.2038,N,11413.8090,E,1,06,1.8,51.9,M,14.2,M,,0000*6D
$GPVTG,105.6,T,,M,0.0,N,0.0,K,A*0F
$GPGLL,2233.2038,N,11413.8090,E,162953.00,A,A*6D
$GPGSA,A,3,02,10,12,15,26,27,,,,,,,2.2,1.8,1.3*3C
$GPRMC,162954.000,A,2233.2038,N,11413.8090,E,0.0,105.6,040191,,,A*62
$GPGGA,162954.000,2233.2038,N,11413.8090,E,1,07,1.4,51.9,M,14.2,M,,0000*67
$GPVTG,105.6,T,,M,0.0,N,0.0,K,A*0F
$GPGLL,2233.2038,N,11413.8090,E,162954.00,A,A*6A
$GPGSA,A,3,02,05,10,12,15,26,27,,,,,,1.9,1.4,1.3*3D
$GPRMC,162955.000,A,2233.2038,N,11413.8090,E,0.0,105.6,040191,,,A*63
$GPGGA,162955.000,2233.2038,N,11413.8090,E,1,06,1.6,51.9,M,14.2,M,,0000*65
$GPVTG,105.6,T,,M,0.0,N,0.0,K,A*0F
$GPGLL,2233.2038,N,11413.8090,E,162955.00,A,A*6B
$GPGSA,A,3,05,10,12,15,26,27,,,,,,,2.1,1.6,1.3*36
$GPRMC,162956.000,A,2233.2038,N,11413.8090,E,0.0,105.6,040191,,,A*60
$GPGGA,162956.000,2233.2038,N,11413.8090,E,1,07,1.4,51.9,M,14.2,M,,0000*65
$GPVTG,105.6,T,,M,0.0,N,0.0,K,A*0F
$GPGLL,2233.2038,N,11413.8090,E,162956.00,A,A*68
$GPGSA,A,3,02,05,10,12,15,26,27,,,,,,1.9,1.4,1.3*3D
$GPGSV,3,1,11,10,24,045,16,05,49,003,13,02,51,085,,27,07,177,36*7E
$GPGSV,3,2,11,12,07,222,22,26,77,163,36,15,53,208,40,29,34,308,17*76
$GPGSV,3,3,11,04,17,110,,08,13,078,,30,04,253,*4D
$GPRMC,162957.000,A,2233.2038,N,11413.8090,E,0.0,105.6,040191,,,A*61
$GPGGA,162957.000,2233.2038,N,11413.8090,E,1,06,1.6,51.9,M,14.2,M,,0000*67
$GPVTG,105.6,T,,M,0.0,N,0.0,K,A*0F
$GPGLL,2233.2038,N,11413.8090,E,162957.00,A,A*69
$GPGSA,A,3,05,10,12,15,26,27,,,,,,,2.1,1.6,1.3*36
$GPRMC,162958.000,A,2233.2038,N,11413.8090,E,0.0,105.6,040191,,,A*6E
$GPGGA,162958.000,2233.2038,N,11413.8090,E,1,07,1.4,51.9,M,14.2,M,,0000*6B
$GPVTG,105.6,T,,M,0.0,N,0.0,K,A*0F
$GPGLL,2233.2038,N,11413.8090,E,162958.00,A,A*66
$GPGSA,A,3,02,05,10,12,15,26,27,,,,,,1.9,1.4,1.3*3D
$GPRMC,162959.000,A,2233.2038,N,11413.8090,E,0.0,105.6,040191,,,A*6F
$GPGGA,162959.000,2233.2038,N,11413.8090,E,1,07,1.4,51.9,M,14.2,M,,0000*6A
$GPVTG,105.6,T,,M,0.0,N,0.0,K,A*0F
$GPGLL,2233.2038,N,11413.8090,E,162959.00,A,A*67
$GPGSA,A,3,02,05,10,12,15,26,27,,,,,,1.9,1.4,1.3*3D
$GPRMC,163000.000,A,2233.2038,N,11413.8090,E,0.0,105.6,040191,,,A*6B
$GPGGA,163000.000,2233.2038,N,11413.8090,E,1,06,1.6,51.9,M,14.2,M,,0000*6D
$GPVTG,105.6,T,,M,0.0,N,0.0,K,A*0F
$GPGLL,2233.2038,N,11413.8090,E,163000.00,A,A*63
$GPGSA,A,3,05,10,12,15,26,27,,,,,,,2.1,1.6,1.3*36
$GPRMC,163001.000,A,2233.2038,N,11413.8090,E,0.0,105.6,040191,,,A*6A
$GPGGA,163001.000,2233.2038,N,11413.8090,E,1,06,1.6,51.9,M,14.2,M,,0000*6C
$GPVTG,105.6,T,,M,0.0,N,0.0,K,A*0F
$GPGLL,2233.2038,N,11413.8090,E,163001.00,A,A*62
$GPGSA,A,3,05,10,12,15,26,27,,,,,,,2.1,1.6,1.3*36
$GPGSV,3,1,11,10,24,045,15,05,49,003,11,02,51,085,18,27,07,177,35*75
$GPGSV,3,2,11,12,07,222,23,26,77,163,36,15,53,208,40,29,34,308,16*76
$GPGSV,3,3,11,04,17,110,,08,13,078,,30,04,253,*4D
$GPRMC,163002.000,A,2233.2038,N,11413.8090,E,0.0,105.6,040191,,,A*69
$GPGGA,163002.000,2233.2038,N,11413.8090,E,1,06,1.6,51.9,M,14.2,M,,0000*6F
$GPVTG,105.6,T,,M,0.0,N,0.0,K,A*0F
$GPGLL,2233.2038,N,11413.8090,E,163002.00,A,A*61
$GPGSA,A,3,05,10,12,15,26,27,,,,,,,2.1,1.6,1.3*36
$GPRMC,163003.000,A,2233.2038,N,11413.8090,E,0.0,105.6,040191,,,A*68
$GPGGA,163003.000,2233.2038,N,11413.8090,E,1,05,2.0,51.9,M,14.2,M,,0000*68
$GPVTG,105.6,T,,M,0.0,N,0.0,K,A*0F
$GPGLL,2233.2038,N,11413.8090,E,163003.00,A,A*60
$GPGSA,A,3,10,12,15,26,27,,,,,,,,2.4,2.0,1.3*33
$GPRMC,163004.000,A,2233.2038,N,11413.8090,E,0.0,105.6,040191,,,A*6F
$GPGGA,163004.000,2233.2038,N,11413.8090,E,1,06,1.8,51.9,M,14.2,M,,0000*67
$GPVTG,105.6,T,,M,0.0,N,0.0,K,A*0F
$GPGLL,2233.2038,N,11413.8090,E,163004.00,A,A*67
$GPGSA,A,3,02,10,12,15,26,27,,,,,,,2.2,1.8,1.3*3C
$GPRMC,163005.000,A,2233.2038,N,11413.8090,E,0.0,105.6,040191,,,A*6E
$GPGGA,163005.000,2233.2038,N,11413.8090,E,1,05,2.0,51.9,M,14.2,M,,0000*6E
$GPVTG,105.6,T,,M,0.0,N,0.0,K,A*0F
$GPGLL,2233.2038,N,11413.8090,E,163005.00,A,A*66
$GPGSA,A,3,10,12,15,26,27,,,,,,,,2.4,2.0,1.3*33
$GPRMC,163006.000,A,2233.2038,N,11413.8090,E,0.0,105.6,040191,,,A*6D
$GPGGA,163006.000,2233.2038,N,11413.8090,E,1,06,1.8,51.9,M,14.2,M,,0000*65
$GPVTG,105.6,T,,M,0.0,N,0.0,K,A*0F
$GPGLL,2233.2038,N,11413.8090,E,163006.00,A,A*65
$GPGSA,A,3,02,10,12,15,26,27,,,,,,,2.2,1.8,1.3*3C
$GPGSV,3,1,11,10,24,045,13,02,51,085,15,27,07,177,35,12,07,222,22*73
$GPGSV,3,2,11,26,77,163,36,15,53,208,39,29,34,308,,05,49,003,*73
$GPGSV,3,3,11,04,17,110,,08,13,078,,30,04,253,*4D
$GPRMC,163007.000,A,2233.2038,N,11413.8090,E,0.0,105.6,040191,,,A*6C
$GPGGA,163007.000,2233.2038,N,11413.8090,E,1,06,1.8,51.9,M,14.2,M,,0000*64
$GPVTG,105.6,T,,M,0.0,N,0.0,K,A*0F
$GPGLL,2233.2038,N,11413.8090,E,163007.00,A,A*64
$GPGSA,A,3,02,10,12,15,26,27,,,,,,,2.2,1.8,1.3*3C
$GPRMC,163008.000,A,2233.2038,N,11413.8090,E,0.0,105.6,040191,,,A*63
$GPGGA,163008.000,2233.2038,N,11413.8090,E,1,06,1.4,51.9,M,14.2,M,,0000*67
$GPVTG,105.6,T,,M,0.0,N,0.0,K,A*0F
$GPGLL,2233.2038,N,11413.8090,E,163008.00,A,A*6B
$GPGSA,A,3,04,10,12,15,26,27,,,,,,,1.9,1.4,1.3*3E
$GPRMC,163009.000,A,2233.2038,N,11413.8090,E,0.0,105.6,040191,,,A*62
$GPGGA,163009.000,2233.2038,N,11413.8090,E,1,07,1.2,51.9,M,14.2,M,,0000*61
$GPVTG,105.6,T,,M,0.0,N,0.0,K,A*0F
$GPGLL,2233.2038,N,11413.8090,E,163009.00,A,A*6A
$GPGSA,A,3,04,05,10,12,15,26,27,,,,,,1.8,1.2,1.3*3C
$GPRMC,163010.000,A,2233.2038,N,11413.8090,E,0.0,105.6,040191,,,A*6A
$GPGGA,163010.000,2233.2038,N,11413.8090,E,1,06,1.4,51.9,M,14.2,M,,0000*6E
$GPVTG,105.6,T,,M,0.0,N,0.0,K,A*0F
$GPGLL,2233.2038,N,11413.8090,E,163010.00,A,A*62
$GPGSA,A,3,04,10,12,15,26,27,,,,,,,1.9,1.4,1.3*3E
$GPRMC,163011.000,A,2233.2038,N,11413.8090,E,0.0,105.6,040191,,,A*6B
$GPGGA,163011.000,2233.2038,N,11413.8090,E,1,07,1.2,51.9,M,14.2,M,,0000*68
$GPVTG,105.6,T,,M,0.0,N,0.0,K,A*0F
$GPGLL,2233.2038,N,11413.8090,E,163011.00,A,A*63
$GPGSA,A,3,04,05,10,12,15,26,27,,,,,,1.8,1.2,1.3*3C
$GPGSV,3,1,11,10,24,045,12,05,49,003,16,04,17,110,16,27,07,177,36*71
$GPGSV,3,2,11,12,07,222,22,26,77,163,36,15,53,208,39,02,51,085,*72
$GPGSV,3,3,11,29,34,308,,08,13,078,,30,04,253,*48
$GPRMC,163012.000,A,2233.2038,N,11413.8090,E,0.0,105.6,040191,,,A*68
$GPGGA,163012.000,2233.2038,N,11413.8090,E,1,07,1.2,51.9,M,14.2,M,,0000*6B
$GPVTG,105.6,T,,M,0.0,N,0.0,K,A*0F
$GPGLL,2233.2038,N,11413.8090,E,163012.00,A,A*60
$GPGSA,A,3,04,05,10,12,15,26,27,,,,,,1.8,1.2,1.3*3C
$GPRMC,163013.000,A,2233.2038,N,11413.8090,E,0.0,105.6,040191,,,A*69
$GPGGA,163013.000,2233.2038,N,11413.8090,E,1,06,1.4,51.9,M,14.2,M,,0000*6D
$GPVTG,105.6,T,,M,0.0,N,0.0,K,A*0F
$GPGLL,2233.2038,N,11413.8090,E,163013.00,A,A*61
$GPGSA,A,3,04,10,12,15,26,27,,,,,,,1.9,1.4,1.3*3E
$GPRMC,163014.000,A,2233.2038,N,11413.8090,E,0.0,105.6,040191,,,A*6E
$GPGGA,163014.000,2233.2038,N,11413.8090,E,1,06,1.4,51.9,M,14.2,M,,0000*6A
$GPVTG,105.6,T,,M,0.0,N,0.0,K,A*0F
$GPGLL,2233.2038,N,11413.8090,E,163014.00,A,A*66
$GPGSA,A,3,04,10,12,15,26,27,,,,,,,1.9,1.4,1.3*3E
$GPRMC,163015.000,A,2233.2038,N,11413.8090,E,0.0,105.6,040191,,,A*6F
$GPGGA,163015.000,2233.2038,N,11413.8090,E,1,06,1.4,51.9,M,14.2,M,,0000*6B
$GPVTG,105.6,T,,M,0.0,N,0.0,K,A*0F
$GPGLL,2233.2038,N,11413.8090,E,163015.00,A,A*67
$GPGSA,A,3,04,10,12,15,26,27,,,,,,,1.9,1.4,1.3*3E
$GPRMC,163016.000,A,2233.2038,N,11413.8090,E,0.0,105.6,040191,,,A*6C
$GPGGA,163016.000,2233.2038,N,11413.8090,E,1,07,1.2,51.9,M,14.2,M,,0000*6F
$GPVTG,105.6,T,,M,0.0,N,0.0,K,A*0F
$GPGLL,2233.2038,N,11413.8090,E,163016.00,A,A*64
$GPGSA,A,3,04,05,10,12,15,26,27,,,,,,1.8,1.2,1.3*3C
$GPGSV,3,1,11,10,24,045,13,05,49,003,16,02,51,085,18,04,17,110,15*77
$GPGSV,3,2,11,27,07,177,36,12,07,222,22,26,77,163,36,15,53,208,40*71
$GPGSV,3,3,11,29,34,308,18,08,13,078,,30,04,253,*41
$GPRMC,163017.000,A,2233.2038,N,11413.8090,E,0.0,105.6,040191,,,A*6D
$GPGGA,163017.000,2233.2038,N,11413.8090,E,1,08,1.1,51.9,M,14.2,M,,0000*62
$GPVTG,105.6,T,,M,0.0,N,0.0,K,A*0F
$GPGLL,2233.2038,N,11413.8090,E,163017.00,A,A*65
$GPGSA,A,3,02,04,05,10,12,15,26,27,,,,,1.6,1.1,1.2*32
$GPRMC,163018.000,A,2233.2038,N,11413.8090,E,0.0,105.6,040191,,,A*62
$GPGGA,163018.000,2233.2038,N,11413.8090,E,1,07,1.3,51.9,M,14.2,M,,0000*60
$GPVTG,105.6,T,,M,0.0,N,0.0,K,A*0F
$GPGLL,2233.2038,N,11413.8090,E,163018.00,A,A*6A
$GPGSA,A,3,02,04,05,12,15,26,27,,,,,,2.0,1.3,1.5*33
$GPRMC,163019.000,A,2233.2038,N,11413.8090,E,0.0,105.6,040191,,,A*63
$GPGGA,163019.000,2233.2038,N,11413.8090,E,1,07,1.2,51.9,M,14.2,M,,0000*60
$GPVTG,105.6,T,,M,0.0,N,0.0,K,A*0F
$GPGLL,2233.2038,N,11413.8090,E,163019.00,A,A*6B
$GPGSA,A,3,04,05,10,12,15,26,27,,,,,,1.8,1.2,1.3*3C
$GPRMC,163020.000,A,2233.2038,N,11413.8090,E,0.0,105.6,040191,,,A*69
$GPGGA,163020.000,2233.2038,N,11413.8090,E,1,07,1.2,51.9,M,14.2,M,,0000*6A
$GPVTG,105.6,T,,M,0.0,N,0.0,K,A*0F
$GPGLL,2233.2038,N,11413.8090,E,163020.00,A,A*61
$GPGSA,A,3,04,05,10,12,15,26,27,,,,,,1.8,1.2,1.3*3C
$GPRMC,163021.000,A,2233.2038,N,11413.8090,E,0.0,105.6,040191,,,A*68
$GPGGA,163021.000,2233.2038,N,11413.8090,E,1,06,1.3,51.9,M,14.2,M,,0000*6B
$GPVTG,105.6,T,,M,0.0,N,0.0,K,A*0F
$GPGLL,2233.2038,N,11413.8090,E,163021.00,A,A*60
$GPGSA,A,3,04,05,12,15,26,27,,,,,,,2.0,1.3,1.5*31
$GPGSV,3,1,11,10,24,046,18,05,49,003,16,04,17,110,13,27,07,177,36*7D
$GPGSV,3,2,11,12,07,222,19,26,77,163,37,15,53,208,40,29,34,308,*79
$GPGSV,3,3,11,02,51,085,,08,13,078,,30,04,253,*44
$GPRMC,163022.000,A,2233.2038,N,11413.8090,E,0.0,105.6,040191,,,A*6B
$GPGGA,163022.000,2233.2038,N,11413.8090,E,1,07,1.2,51.9,M,14.2,M,,0000*68
$GPVTG,105.6,T,,M,0.0,N,0.0,K,A*0F
$GPGLL,2233.2038,N,11413.8090,E,163022.00,A,A*63
$GPGSA,A,3,04,05,10,12,15,26,27,,,,,,1.8,1.2,1.3*3C
$GPRMC,163023.000,A,2233.2038,N,11413.8090,E,0.0,105.6,040191,,,A*6A
$GPGGA,163023.000,2233.2038,N,11413.8090,E,1,07,1.2,51.9,M,14.2,M,,0000*69
$GPVTG,105.6,T,,M,0.0,N,0.0,K,A*0F
$GPGLL,2233.2038,N,11413.8090,E,163023.00,A,A*62
$GPGSA,A,3,04,05,10,12,15,26,27,,,,,,1.8,1.2,1.3*3C
$GPRMC,163024.000,A,2233.2038,N,11413.8090,E,0.0,105.6,040191,,,A*6D
$GPGGA,163024.000,2233.2038,N,11413.8090,E,1,07,1.2,51.9,M,14.2,M,,0000*6E
$GPVTG,105.6,T,,M,0.0,N,0.0,K,A*0F
$GPGLL,2233.2038,N,11413.8090,E,163024.00,A,A*65
$GPGSA,A,3,04,05,10,12,15,26,27,,,,,,1.8,1.2,1.3*3C
$GPRMC,163025.000,A,2233.2038,N,11413.8090,E,0.0,105.6,040191,,,A*6C
$GPGGA,163025.000,2233.2038,N,11413.8090,E,1,07,1.2,51.9,M,14.2,M,,0000*6F
$GPVTG,105.6,T,,M,0.0,N,0.0,K,A*0F
$GPGLL,2233.2038,N,11413.8090,E,163025.00,A,A*64
$GPGSA,A,3,04,05,10,12,15,26,27,,,,,,1.8,1.2,1.3*3C
$GPRMC,163026.000,A,2233.2038,N,11413.8090,E,0.0,105.6,040191,,,A*6F
$GPGGA,163026.000,2233.2038,N,11413.8090,E,1,06,1.6,51.9,M,14.2,M,,0000*69
$GPVTG,105.6,T,,M,0.0,N,0.0,K,A*0F
$GPGLL,2233.2038,N,11413.8090,E,163026.00,A,A*67
$GPGSA,A,3,05,10,12,15,26,27,,,,,,,2.1,1.6,1.3*36
$GPGSV,3,1,11,10,24,046,21,05,49,003,14,04,17,110,11,27,07,177,35*74
$GPGSV,3,2,11,12,07,222,17,26,77,162,37,15,53,208,40,29,34,308,*76
$GPGSV,3,3,11,02,51,085,,08,13,078,,30,04,252,*45
$GPRMC,163027.000,A,2233.2038,N,11413.8090,E,0.0,105.6,040191,,,A*6E
$GPGGA,163027.000,2233.2038,N,11413.8090,E,1,06,1.6,51.9,M,14.2,M,,0000*68
$GPVTG,105.6,T,,M,0.0,N,0.0,K,A*0F
$GPGLL,2233.2038,N,11413.8090,E,163027.00,A,A*66
$GPGSA,A,3,05,10,12,15,26,27,,,,,,,2.1,1.6,1.3*36
$GPRMC,163028.000,A,2233.2038,N,11413.8090,E,0.0,105.6,040191,,,A*61
$GPGGA,163028.000,2233.2038,N,11413.8090,E,1,06,1.6,51.9,M,14.2,M,,0000*67
$GPVTG,105.6,T,,M,0.0,N,0.0,K,A*0F
$GPGLL,2233.2038,N,11413.8090,E,163028.00,A,A*69
$GPGSA,A,3,05,10,12,15,26,27,,,,,,,2.1,1.6,1.3*36
$GPRMC,163029.000,A,2233.2038,N,11413.8090,E,0.0,105.6,040191,,,A*60
$GPGGA,163029.000,2233.2038,N,11413.8090,E,1,06,1.6,51.9,M,14.2,M,,0000*66
$GPVTG,105.6,T,,M,0.0,N,0.0,K,A*0F
$GPGLL,2233.2038,N,11413.8090,E,163029.00,A,A*68
$GPGSA,A,3,05,10,12,15,26,27,,,,,,,2.1,1.6,1.3*36
$GPRMC,163030.000,A,2233.2038,N,11413.8090,E,0.0,105.6,040191,,,A*68
$GPGGA,163030.000,2233.2038,N,11413.8090,E,1,06,1.6,51.9,M,14.2,M,,0000*6E
$GPVTG,105.6,T,,M,0.0,N,0.0,K,A*0F
$GPGLL,2233.2038,N,11413.8090,E,163030.00,A,A*60
$GPGSA,A,3,05,10,12,15,26,27,,,,,,,2.1,1.6,1.3*36
$GPRMC,163031.000,A,2233.2038,N,11413.8090,E,0.0,105.6,040191,,,A*69
$GPGGA,163031.000,2233.2038,N,11413.8090,E,1,06,1.6,51.9,M,14.2,M,,0000*6F
$GPVTG,105.6,T,,M,0.0,N,0.0,K,A*0F
$GPGLL,2233.2038,N,11413.8090,E,163031.00,A,A*61
$GPGSA,A,3,05,10,12,15,26,27,,,,,,,2.1,1.6,1.3*36
$GPGSV,3,1,11,10,24,046,22,05,49,003,13,27,07,177,35,12,07,222,19*7C
$GPGSV,3,2,11,26,77,162,36,15,53,208,40,02,51,085,,29,34,308,*7C
$GPGSV,3,3,11,04,17,110,,08,13,078,,30,04,252,*4C
$GPRMC,163032.000,A,2233.2038,N,11413.8090,E,0.0,105.6,040191,,,A*6A
$GPGGA,163032.000,2233.2038,N,11413.8090,E,1,06,1.6,51.9,M,14.2,M,,0000*6C
$GPVTG,105.6,T,,M,0.0,N,0.0,K,A*0F
$GPGLL,2233.2038,N,11413.8090,E,163032.00,A,A*62
$GPGSA,A,3,05,10,12,15,26,27,,,,,,,2.1,1.6,1.3*36
$GPRMC,163033.000,A,2233.2038,N,11413.8090,E,0.0,105.6,040191,,,A*6B
$GPGGA,163033.000,2233.2038,N,11413.8090,E,1,06,1.6,51.9,M,14.2,M,,0000*6D
$GPVTG,105.6,T,,M,0.0,N,0.0,K,A*0F
$GPGLL,2233.2038,N,11413.8090,E,163033.00,A,A*63
$GPGSA,A,3,05,10,12,15,26,27,,,,,,,2.1,1.6,1.3*36
$GPRMC,163034.000,A,2233.2038,N,11413.8090,E,0.0,105.6,040191,,,A*6C
$GPGGA,163034.000,2233.2038,N,11413.8090,E,1,07,1.4,51.9,M,14.2,M,,0000*69
$GPVTG,105.6,T,,M,0.0,N,0.0,K,A*0F
$GPGLL,2233.2038,N,11413.8090,E,163034.00,A,A*64
$GPGSA,A,3,02,05,10,12,15,26,27,,,,,,1.9,1.4,1.3*3D
$GPRMC,163035.000,A,2233.2038,N,11413.8090,E,0.0,105.6,040191,,,A*6D
$GPGGA,163035.000,2233.2038,N,11413.8090,E,1,06,1.6,51.9,M,14.2,M,,0000*6B
$GPVTG,105.6,T,,M,0.0,N,0.0,K,A*0F
$GPGLL,2233.2038,N,11413.8090,E,163035.00,A,A*65
$GPGSA,A,3,05,10,12,15,26,27,,,,,,,2.1,1.6,1.3*36
$GPRMC,163036.000,A,2233.2038,N,11413.8090,E,0.0,105.6,040191,,,A*6E
$GPGGA,163036.000,2233.2038,N,11413.8090,E,1,07,1.4,51.9,M,14.2,M,,0000*6B
$GPVTG,105.6,T,,M,0.0,N,0.0,K,A*0F
$GPGLL,2233.2038,N,11413.8090,E,163036.00,A,A*66
$GPGSA,A,3,02,05,10,12,15,26,27,,,,,,1.9,1.4,1.3*3D
$GPGSV,3,1,11,10,24,046,23,05,49,003,14,02,51,085,12,27,07,177,35*7C
$GPGSV,3,2,11,12,07,222,23,26,77,162,37,15,53,208,40,29,34,308,17*77
$GPGSV,3,3,11,04,17,110,,08,13,078,,30,04,252,*4C
$GPRMC,163037.000,A,2233.2038,N,11413.8090,E,0.0,105.6,040191,,,A*6F
$GPGGA,163037.000,2233.2038,N,11413.8090,E,1,07,1.4,51.9,M,14.2,M,,0000*6A
$GPVTG,105.6,T,,M,0.0,N,0.0,K,A*0F
$GPGLL,2233.2038,N,11413.8090,E,163037.00,A,A*67
$GPGSA,A,3,02,05,10,12,15,26,27,,,,,,1.9,1.4,1.3*3D
$GPRMC,163038.000,A,2233.2038,N,11413.8090,E,0.0,105.6,040191,,,A*60
$GPGGA,163038.000,2233.2038,N,11413.8090,E,1,06,1.6,51.9,M,14.2,M,,0000*66
$GPVTG,105.6,T,,M,0.0,N,0.0,K,A*0F
$GPGLL,2233.2038,N,11413.8090,E,163038.00,A,A*68
$GPGSA,A,3,05,10,12,15,26,27,,,,,,,2.1,1.6,1.3*36
$GPRMC,163039.000,A,2233.2038,N,11413.8090,E,0.0,105.6,040191,,,A*61
$GPGGA,163039.000,2233.2038,N,11413.8090,E,1,06,1.6,51.9,M,14.2,M,,0000*67
$GPVTG,105.6,T,,M,0.0,N,0.0,K,A*0F
$GPGLL,2233.2038,N,11413.8090,E,163039.00,A,A*69
$GPGSA,A,3,05,10,12,15,26,27,,,,,,,2.1,1.6,1.3*36
$GPRMC,163040.000,A,2233.2038,N,11413.8090,E,0.0,105.6,040191,,,A*6F
$GPGGA,163040.000,2233.2038,N,11413.8090,E,1,06,1.6,51.9,M,14.2,M,,0000*69
$GPVTG,105.6,T,,M,0.0,N,0.0,K,A*0F
$GPGLL,2233.2038,N,11413.8090,E,163040.00,A,A*67
$GPGSA,A,3,05,10,12,15,26,27,,,,,,,2.1,1.6,1.3*36
$GPRMC,163041.000,A,2233.2038,N,11413.8090,E,0.0,105.6,040191,,,A*6E
$GPGGA,163041.000,2233.2038,N,11413.8090,E,1,06,1.6,51.9,M,14.2,M,,0000*68
$GPVTG,105.6,T,,M,0.0,N,0.0,K,A*0F
$GPGLL,2233.2038,N,11413.8090,E,163041.00,A,A*66
$GPGSA,A,3,05,10,12,15,26,27,,,,,,,2.1,1.6,1.3*36
$GPGSV,3,1,11,10,24,046,22,05,49,004,17,27,07,177,36,12,07,222,24*72
$GPGSV,3,2,11,26,77,162,37,15,53,208,40,29,34,308,,02,51,085,*7D
$GPGSV,3,3,11,04,17,110,,08,13,078,,30,04,252,*4C
$GPRMC,163042.000,A,2233.2038,N,11413.8090,E,0.0,105.6,040191,,,A*6D
$GPGGA,163042.000,2233.2038,N,11413.8090,E,1,06,1.6,51.9,M,14.2,M,,0000*6B
$GPVTG,105.6,T,,M,0.0,N,0.0,K,A*0F
$GPGLL,2233.2038,N,11413.8090,E,163042.00,A,A*65
$GPGSA,A,3,05,10,12,15,26,27,,,,,,,2.1,1.6,1.3*36
$GPRMC,163043.000,A,2233.2038,N,11413.8090,E,0.0,105.6,040191,,,A*6C
$GPGGA,163043.000,2233.2038,N,11413.8090,E,1,06,1.6,51.9,M,14.2,M,,0000*6A
$GPVTG,105.6,T,,M,0.0,N,0.0,K,A*0F
$GPGLL,2233.2038,N,11413.8090,E,163043.00,A,A*64
$GPGSA,A,3,05,10,12,15,26,27,,,,,,,2.1,1.6,1.3*36
$GPRMC,163044.000,A,2233.2038,N,11413.8090,E,0.0,105.6,040191,,,A*6B
$GPGGA,163044.000,2233.2038,N,11413.8090,E,1,06,1.6,51.9,M,14.2,M,,0000*6D
$GPVTG,105.6,T,,M,0.0,N,0.0,K,A*0F
$GPGLL,2233.2038,N,11413.8090,E,163044.00,A,A*63
$GPGSA,A,3,05,10,12,15,26,27,,,,,,,2.1,1.6,1.3*36
$GPRMC,163045.000,A,2233.2038,N,11413.8090,E,0.0,105.6,040191,,,A*6A
$GPGGA,163045.000,2233.2038,N,11413.8090,E,1,07,1.4,51.9,M,14.2,M,,0000*6F
$GPVTG,105.6,T,,M,0.0,N,0.0,K,A*0F
$GPGLL,2233.2038,N,11413.8090,E,163045.00,A,A*62
$GPGSA,A,3,02,05,10,12,15,26,27,,,,,,1.9,1.4,1.3*3D
$GPRMC,163046.000,A,2233.2038,N,11413.8090,E,0.0,105.6,040191,,,A*69
$GPGGA,163046.000,2233.2038,N,11413.8090,E,1,06,1.6,51.9,M,14.2,M,,0000*6F
$GPVTG,105.6,T,,M,0.0,N,0.0,K,A*0F
$GPGLL,2233.2038,N,11413.8090,E,163046.00,A,A*61
$GPGSA,A,3,05,10,12,15,26,27,,,,,,,2.1,1.6,1.3*36
$GPGSV,3,1,11,10,24,046,22,05,49,004,17,02,51,085,13,27,07,177,36*7B
$GPGSV,3,2,11,12,07,222,24,26,77,162,38,15,53,208,39,29,34,308,16*70
$GPGSV,3,3,11,04,17,110,,08,13,078,,30,04,252,*4C
$GPRMC,163047.000,A,2233.2038,N,11413.8090,E,0.0,105.6,040191,,,A*68
$GPGGA,163047.000,2233.2038,N,11413.8090,E,1,07,1.4,51.9,M,14.2,M,,0000*6D
$GPVTG,105.6,T,,M,0.0,N,0.0,K,A*0F
$GPGLL,2233.2038,N,11413.8090,E,163047.00,A,A*60
$GPGSA,A,3,02,05,10,12,15,26,27,,,,,,1.9,1.4,1.3*3D
$GPRMC,163048.000,A,2233.2038,N,11413.8090,E,0.0,105.6,040191,,,A*67
$GPGGA,163048.000,2233.2038,N,11413.8090,E,1,07,1.4,51.9,M,14.2,M,,0000*62
$GPVTG,105.6,T,,M,0.0,N,0.0,K,A*0F
$GPGLL,2233.2038,N,11413.8090,E,163048.00,A,A*6F
$GPGSA,A,3,02,05,10,12,15,26,27,,,,,,1.9,1.4,1.3*3D
$GPRMC,163049.000,A,2233.2038,N,11413.8090,E,0.0,105.6,040191,,,A*66
$GPGGA,163049.000,2233.2038,N,11413.8090,E,1,06,1.6,51.9,M,14.2,M,,0000*60
$GPVTG,105.6,T,,M,0.0,N,0.0,K,A*0F
$GPGLL,2233.2038,N,11413.8090,E,163049.00,A,A*6E
$GPGSA,A,3,05,10,12,15,26,27,,,,,,,2.1,1.6,1.3*36
$GPRMC,163050.000,A,2233.2038,N,11413.8090,E,0.0,105.6,040191,,,A*6E
$GPGGA,163050.000,2233.2038,N,11413.8090,E,1,06,1.6,51.9,M,14.2,M,,0000*68
$GPVTG,105.6,T,,M,0.0,N,0.0,K,A*0F
$GPGLL,2233.2038,N,11413.8090,E,163050.00,A,A*66
$GPGSA,A,3,05,10,12,15,26,27,,,,,,,2.1,1.6,1.3*36
$GPRMC,163051.000,A,2233.2038,N,11413.8090,E,0.0,105.6,040191,,,A*6F
$GPGGA,163051.000,2233.2038,N,11413.8090,E,1,06,1.6,51.9,M,14.2,M,,0000*69
$GPVTG,105.6,T,,M,0.0,N,0.0,K,A*0F
$GPGLL,2233.2038,N,11413.8090,E,163051.00,A,A*67
$GPGSA,A,3,05,10,12,15,26,27,,,,,,,2.1,1.6,1.3*36
$GPGSV,3,1,11,10,24,046,21,05,49,004,16,02,51,085,16,27,07,177,36*7C
$GPGSV,3,2,11,12,07,222,22,26,77,162,38,15,53,208,39,29,34,308,*71
$GPGSV,3,3,11,04,17,110,,08,13,078,,30,04,252,*4C
$GPRMC,163052.000,A,2233.2038,N,11413.8090,E,0.0,105.6,040191,,,A*6C
$GPGGA,163052.000,2233.2038,N,11413.8090,E,1,07,1.4,51.9,M,14.2,M,,0000*69
$GPVTG,105.6,T,,M,0.0,N,0.0,K,A*0F
$GPGLL,2233.2038,N,11413.8090,E,163052.00,A,A*64
$GPGSA,A,3,02,05,10,12,15,26,27,,,,,,1.9,1.4,1.3*3D
$GPRMC,163053.000,A,2233.2038,N,11413.8090,E,0.0,105.6,040191,,,A*6D
$GPGGA,163053.000,2233.2038,N,11413.8090,E,1,07,1.4,51.9,M,14.2,M,,0000*68
$GPVTG,105.6,T,,M,0.0,N,0.0,K,A*0F
$GPGLL,2233.2038,N,11413.8090,E,163053.00,A,A*65
$GPGSA,A,3,02,05,10,12,15,26,27,,,,,,1.9,1.4,1.3*3D
$GPRMC,163054.000,A,2233.2038,N,11413.8090,E,0.0,105.6,040191,,,A*6A
$GPGGA,163054.000,2233.2038,N,11413.8090,E,1,07,1.4,51.9,M,14.2,M,,0000*6F
$GPVTG,105.6,T,,M,0.0,N,0.0,K,A*0F
$GPGLL,2233.2038,N,11413.8090,E,163054.00,A,A*62
$GPGSA,A,3,02,05,10,12,15,26,27,,,,,,1.9,1.4,1.3*3D
$GPRMC,163055.000,A,2233.2038,N,11413.8090,E,0.0,105.6,040191,,,A*6B
$GPGGA,163055.000,2233.2038,N,11413.8090,E,1,07,1.4,51.9,M,14.2,M,,0000*6E
$GPVTG,105.6,T,,M,0.0,N,0.0,K,A*0F
$GPGLL,2233.2038,N,11413.8090,E,163055.00,A,A*63
$GPGSA,A,3,02,05,10,12,15,26,27,,,,,,1.9,1.4,1.3*3D
$GPRMC,163056.000,A,2233.2038,N,11413.8090,E,0.0,105.6,040191,,,A*68
$GPGGA,163056.000,2233.2038,N,11413.8090,E,1,07,1.4,51.9,M,14.2,M,,0000*6D
$GPVTG,105.6,T,,M,0.0,N,0.0,K,A*0F
$GPGLL,2233.2038,N,11413.8090,E,163056.00,A,A*60
$GPGSA,A,3,02,05,10,12,15,26,27,,,,,,1.9,1.4,1.3*3D
$GPGSV,3,1,10,10,24,046,22,05,49,004,15,02,51,085,16,04,17,110,12*7A
$GPGSV,3,2,10,27,07,177,35,12,07,222,24,26,77,162,38,15,53,208,39*74
$GPGSV,3,3,10,29,34,308,,08,13,078,*7A
$GPRMC,163057.000,A,2233.2038,N,11413.8090,E,0.0,105.6,040191,,,A*69
$GPGGA,163057.000,2233.2038,N,11413.8090,E,1,08,1.1,51.9,M,14.2,M,,0000*66
$GPVTG,105.6,T,,M,0.0,N,0.0,K,A*0F
$GPGLL,2233.2038,N,11413.8090,E,163057.00,A,A*61
$GPGSA,A,3,02,04,05,10,12,15,26,27,,,,,1.6,1.1,1.2*32
$GPRMC,163058.000,A,2233.2038,N,11413.8090,E,0.0,105.6,040191,,,A*66
$GPGGA,163058.000,2233.2038,N,11413.8090,E,1,07,1.4,51.9,M,14.2,M,,0000*63
$GPVTG,105.6,T,,M,0.0,N,0.0,K,A*0F
$GPGLL,2233.2038,N,11413.8090,E,163058.00,A,A*6E
$GPGSA,A,3,02,05,10,12,15,26,27,,,,,,1.9,1.4,1.3*3D
$GPRMC,163059.000,A,2233.2038,N,11413.8090,E,0.0,105.6,040191,,,A*67
$GPGGA,163059.000,2233.2038,N,11413.8090,E,1,08,1.1,51.9,M,14.2,M,,0000*68
$GPVTG,105.6,T,,M,0.0,N,0.0,K,A*0F
$GPGLL,2233.2038,N,11413.8090,E,163059.00,A,A*6F
$GPGSA,A,3,02,04,05,10,12,15,26,27,,,,,1.6,1.1,1.2*32
$GPRMC,163100.000,A,2233.2038,N,11413.8090,E,0.0,105.6,040191,,,A*6A
$GPGGA,163100.000,2233.2038,N,11413.8090,E,1,08,1.1,51.9,M,14.2,M,,0000*65
$GPVTG,105.6,T,,M,0.0,N,0.0,K,A*0F
$GPGLL,2233.2038,N,11413.8090,E,163100.00,A,A*62
$GPGSA,A,3,02,04,05,10,12,15,26,27,,,,,1.6,1.1,1.2*32
$GPRMC,163101.000,A,2233.2038,N,11413.8090,E,0.0,105.6,040191,,,A*6B
$GPGGA,163101.000,2233.2038,N,11413.8090,E,1,07,1.4,51.9,M,14.2,M,,0000*6E
$GPVTG,105.6,T,,M,0.0,N,0.0,K,A*0F
$GPGLL,2233.2038,N,11413.8090,E,163101.00,A,A*63
$GPGSA,A,3,02,05,10,12,15,26,27,,,,,,1.9,1.4,1.3*3D
$GPGSV,3,1,10,10,24,046,20,05,49,004,14,02,51,085,18,04,17,110,11*74
$GPGSV,3,2,10,27,07,177,36,12,07,222,24,26,77,162,39,15,53,208,39*76
$GPGSV,3,3,10,29,34,308,19,08,13,078,*72
$GPRMC,163102.000,A,2233.2038,N,11413.8090,E,0.0,105.6,040191,,,A*68
$GPGGA,163102.000,2233.2038,N,11413.8090,E,1,07,1.4,51.9,M,14.2,M,,0000*6D
$GPVTG,105.6,T,,M,0.0,N,0.0,K,A*0F
$GPGLL,2233.2038,N,11413.8090,E,163102.00,A,A*60
$GPGSA,A,3,02,05,10,12,15,26,27,,,,,,1.9,1.4,1.3*3D
$GPRMC,163103.000,A,2233.2038,N,11413.8090,E,0.0,105.6,040191,,,A*69
$GPGGA,163103.000,2233.2038,N,11413.8090,E,1,07,1.4,51.9,M,14.2,M,,0000*6C
$GPVTG,105.6,T,,M,0.0,N,0.0,K,A*0F
$GPGLL,2233.2038,N,11413.8090,E,163103.00,A,A*61
$GPGSA,A,3,02,05,10,12,15,26,27,,,,,,1.9,1.4,1.3*3D
$GPRMC,163104.000,A,2233.2038,N,11413.8090,E,0.0,105.6,040191,,,A*6E
$GPGGA,163104.000,2233.2038,N,11413.8090,E,1,07,1.4,51.9,M,14.2,M,,0000*6B
$GPVTG,105.6,T,,M,0.0,N,0.0,K,A*0F
$GPGLL,2233.2038,N,11413.8090,E,163104.00,A,A*66
$GPGSA,A,3,02,05,10,12,15,26,27,,,,,,1.9,1.4,1.3*3D
$GPRMC,163105.000,A,2233.2038,N,11413.8090,E,0.0,105.6,040191,,,A*6F
$GPGGA,163105.000,2233.2038,N,11413.8090,E,1,07,1.4,51.9,M,14.2,M,,0000*6A
$GPVTG,105.6,T,,M,0.0,N,0.0,K,A*0F
$GPGLL,2233.2038,N,11413.8090,E,163105.00,A,A*67
$GPGSA,A,3,02,05,10,12,15,26,27,,,,,,1.9,1.4,1.3*3D
$GPRMC,163106.000,A,2233.2038,N,11413.8090,E,0.0,105.6,040191,,,A*6C
$GPGGA,163106.000,2233.2038,N,11413.8090,E,1,07,1.4,51.9,M,14.2,M,,0000*69
$GPVTG,105.6,T,,M,0.0,N,0.0,K,A*0F
$GPGLL,2233.2038,N,11413.8090,E,163106.00,A,A*64
$GPGSA,A,3,02,05,10,12,15,26,27,,,,,,1.9,1.4,1.3*3D
$GPGSV,3,1,10,10,24,046,19,05,49,004,15,02,51,085,18,27,07,177,36*7B
$GPGSV,3,2,10,12,07,222,24,26,77,162,39,15,53,208,40,29,34,308,18*70
$GPGSV,3,3,10,04,17,110,,08,13,078,*7F
$GPRMC,163107.000,A,2233.2038,N,11413.8090,E,0.0,105.6,040191,,,A*6D
$GPGGA,163107.000,2233.2038,N,11413.8090,E,1,07,1.4,51.9,M,14.2,M,,0000*68
$GPVTG,105.6,T,,M,0.0,N,0.0,K,A*0F
$GPGLL,2233.2038,N,11413.8090,E,163107.00,A,A*65
$GPGSA,A,3,02,05,10,12,15,26,27,,,,,,1.9,1.4,1.3*3D
$GPRMC,163108.000,A,2233.2038,N,11413.8090,E,0.0,105.6,040191,,,A*62
$GPGGA,163108.000,2233.2038,N,11413.8090,E,1,07,1.4,51.9,M,14.2,M,,0000*67
$GPVTG,105.6,T,,M,0.0,N,0.0,K,A*0F
$GPGLL,2233.2038,N,11413.8090,E,163108.00,A,A*6A
$GPGSA,A,3,02,05,10,12,15,26,27,,,,,,1.9,1.4,1.3*3D
$GPRMC,163109.000,A,2233.2038,N,11413.8090,E,0.0,105.6,040191,,,A*63
$GPGGA,163109.000,2233.2038,N,11413.8090,E,1,07,1.4,51.9,M,14.2,M,,0000*66
$GPVTG,105.6,T,,M,0.0,N,0.0,K,A*0F
$GPGLL,2233.2038,N,11413.8090,E,163109.00,A,A*6B
$GPGSA,A,3,02,05,10,12,15,26,27,,,,,,1.9,1.4,1.3*3D
$GPRMC,163110.000,A,2233.2038,N,11413.8090,E,0.0,105.6,040191,,,A*6B
$GPGGA,163110.000,2233.2038,N,11413.8090,E,1,07,1.4,51.9,M,14.2,M,,0000*6E
$GPVTG,105.6,T,,M,0.0,N,0.0,K,A*0F
$GPGLL,2233.2038,N,11413.8090,E,163110.00,A,A*63
$GPGSA,A,3,02,05,10,12,15,26,27,,,,,,1.9,1.4,1.3*3D
$GPRMC,163111.000,A,2233.2038,N,11413.8090,E,0.0,105.6,040191,,,A*6A
$GPGGA,163111.000,2233.2038,N,11413.8090,E,1,07,1.4,51.9,M,14.2,M,,0000*6F
$GPVTG,105.6,T,,M,0.0,N,0.0,K,A*0F
$GPGLL,2233.2038,N,11413.8090,E,163111.00,A,A*62
$GPGSA,A,3,02,05,10,12,15,26,27,,,,,,1.9,1.4,1.3*3D
$GPGSV,3,1,10,10,24,046,17,05,49,004,15,02,51,086,18,27,07,177,36*76
$GPGSV,3,2,10,12,07,222,17,26,77,162,38,15,53,208,41,29,34,308,*79
$GPGSV,3,3,10,04,17,110,,08,13,078,*7F
$GPRMC,163112.000,A,2233.2038,N,11413.8090,E,0.0,105.6,040191,,,A*69
$GPGGA,163112.000,2233.2038,N,11413.8090,E,1,07,1.4,51.9,M,14.2,M,,0000*6C
$GPVTG,105.6,T,,M,0.0,N,0.0,K,A*0F
$GPGLL,2233.2038,N,11413.8090,E,163112.00,A,A*61
$GPGSA,A,3,02,05,10,12,15,26,27,,,,,,1.9,1.4,1.3*3D
$GPRMC,163113.000,A,2233.2038,N,11413.8090,E,0.0,105.6,040191,,,A*68
$GPGGA,163113.000,2233.2038,N,11413.8090,E,1,07,1.4,51.9,M,14.2,M,,0000*6D
$GPVTG,105.6,T,,M,0.0,N,0.0,K,A*0F
$GPGLL,2233.2038,N,11413.8090,E,163113.00,A,A*60
$GPGSA,A,3,02,05,10,12,15,26,27,,,,,,1.9,1.4,1.3*3D
$GPRMC,163114.000,A,2233.2038,N,11413.8090,E,0.0,105.6,040191,,,A*6F
$GPGGA,163114.000,2233.2038,N,11413.8090,E,1,07,1.4,51.9,M,14.2,M,,0000*6A
$GPVTG,105.6,T,,M,0.0,N,0.0,K,A*0F
$GPGLL,2233.2038,N,11413.8090,E,163114.00,A,A*67
$GPGSA,A,3,02,05,10,12,15,26,27,,,,,,1.9,1.4,1.3*3D
$GPRMC,163115.000,A,2233.2038,N,11413.8090,E,0.0,105.6,040191,,,A*6E
$GPGGA,163115.000,2233.2038,N,11413.8090,E,1,06,1.8,51.9,M,14.2,M,,0000*66
$GPVTG,105.6,T,,M,0.0,N,0.0,K,A*0F
$GPGLL,2233.2038,N,11413.8090,E,163115.00,A,A*66
$GPGSA,A,3,02,05,10,15,26,27,,,,,,,2.4,1.8,1.6*39
$GPRMC,163116.000,A,2233.2038,N,11413.8090,E,0.0,105.6,040191,,,A*6D
$GPGGA,163116.000,2233.2038,N,11413.8090,E,1,06,1.8,51.9,M,14.2,M,,0000*65
$GPVTG,105.6,T,,M,0.0,N,0.0,K,A*0F
$GPGLL,2233.2038,N,11413.8090,E,163116.00,A,A*65
$GPGSA,A,3,02,05,10,15,26,27,,,,,,,2.4,1.8,1.6*39
$GPGSV,3,1,10,10,24,046,18,05,49,004,15,02,51,086,20,27,07,177,36*72
$GPGSV,3,2,10,12,07,222,20,26,77,162,38,15,53,208,41,29,34,308,*7D
$GPGSV,3,3,10,04,17,111,,08,13,078,*7E
$GPRMC,163117.000,A,2233.2038,N,11413.8090,E,0.0,105.6,040191,,,A*6C
$GPGGA,163117.000,2233.2038,N,11413.8090,E,1,06,1.8,51.9,M,14.2,M,,0000*64
$GPVTG,105.6,T,,M,0.0,N,0.0,K,A*0F
$GPGLL,2233.2038,N,11413.8090,E,163117.00,A,A*64
$GPGSA,A,3,02,05,10,15,26,27,,,,,,,2.4,1.8,1.6*39
$GPRMC,163118.000,A,2233.2038,N,11413.8090,E,0.0,105.6,040191,,,A*63
$GPGGA,163118.000,2233.2038,N,11413.8090,E,1,07,1.4,51.9,M,14.2,M,,0000*66
$GPVTG,105.6,T,,M,0.0,N,0.0,K,A*0F
$GPGLL,2233.2038,N,11413.8090,E,163118.00,A,A*6B
$GPGSA,A,3,02,05,10,12,15,26,27,,,,,,1.9,1.4,1.3*3D
$GPRMC,163119.000,A,2233.2038,N,11413.8090,E,0.0,105.6,040191,,,A*62
$GPGGA,163119.000,2233.2038,N,11413.8090,E,1,07,1.4,51.9,M,14.2,M,,0000*67
$GPVTG,105.6,T,,M,0.0,N,0.0,K,A*0F
$GPGLL,2233.2038,N,11413.8090,E,163119.00,A,A*6A
$GPGSA,A,3,02,05,10,12,15,26,27,,,,,,1.9,1.4,1.3*3D
$GPRMC,163120.000,A,2233.2038,N,11413.8090,E,0.0,105.6,040191,,,A*68
$GPGGA,163120.000,2233.2038,N,11413.8090,E,1,07,1.4,51.9,M,14.2,M,,0000*6D
$GPVTG,105.6,T,,M,0.0,N,0.0,K,A*0F
$GPGLL,2233.2038,N,11413.8090,E,163120.00,A,A*60
$GPGSA,A,3,02,05,10,12,15,26,27,,,,,,1.9,1.4,1.3*3D
$GPRMC,163121.000,A,2233.2038,N,11413.8090,E,0.0,105.6,040191,,,A*69
$GPGGA,163121.000,2233.2038,N,11413.8090,E,1,07,1.4,51.9,M,14.2,M,,0000*6C
$GPVTG,105.6,T,,M,0.0,N,0.0,K,A*0F
$GPGLL,2233.2038,N,11413.8090,E,163121.00,A,A*61
$GPGSA,A,3,02,05,10,12,15,26,27,,,,,,1.9,1.4,1.3*3D
$GPGSV,3,1,10,10,24,046,18,05,49,004,14,02,51,086,20,27,07,177,36*73
$GPGSV,3,2,10,12,07,222,24,26,77,161,38,15,53,208,41,29,34,308,*7A
$GPGSV,3,3,10,04,17,111,,08,13,078,*7E
$GPRMC,163122.000,A,2233.2038,N,11413.8090,E,0.0,105.6,040191,,,A*6A
$GPGGA,163122.000,2233.2038,N,11413.8090,E,1,07,1.4,51.9,M,14.2,M,,0000*6F
$GPVTG,105.6,T,,M,0.0,N,0.0,K,A*0F
$GPGLL,2233.2038,N,11413.8090,E,163122.00,A,A*62
$GPGSA,A,3,02,05,10,12,15,26,27,,,,,,1.9,1.4,1.3*3D
$GPRMC,163123.000,A,2233.2038,N,11413.8090,E,0.0,105.6,040191,,,A*6B
$GPGGA,163123.000,2233.2038,N,11413.8090,E,1,07,1.4,51.9,M,14.2,M,,0000*6E
$GPVTG,105.6,T,,M,0.0,N,0.0,K,A*0F
$GPGLL,2233.2038,N,11413.8090,E,163123.00,A,A*63
$GPGSA,A,3,02,05,10,12,15,26,27,,,,,,1.9,1.4,1.3*3D
$GPRMC,163124.000,A,2233.2038,N,11413.8090,E,0.0,105.6,040191,,,A*6C
$GPGGA,163124.000,2233.2038,N,11413.8090,E,1,07,1.4,51.9,M,14.2,M,,0000*69
$GPVTG,105.6,T,,M,0.0,N,0.0,K,A*0F
$GPGLL,2233.2038,N,11413.8090,E,163124.00,A,A*64
$GPGSA,A,3,02,05,10,12,15,26,27,,,,,,1.9,1.4,1.3*3D
$GPRMC,163125.000,A,2233.2038,N,11413.8090,E,0.0,105.6,040191,,,A*6D
$GPGGA,163125.000,2233.2038,N,11413.8090,E,1,07,1.4,51.9,M,14.2,M,,0000*68
$GPVTG,105.6,T,,M,0.0,N,0.0,K,A*0F
$GPGLL,2233.2038,N,11413.8090,E,163125.00,A,A*65
$GPGSA,A,3,02,05,10,12,15,26,27,,,,,,1.9,1.4,1.3*3D
$GPRMC,163126.000,A,2233.2038,N,11413.8090,E,0.0,105.6,040191,,,A*6E
$GPGGA,163126.000,2233.2038,N,11413.8090,E,1,07,1.4,51.9,M,14.2,M,,0000*6B
$GPVTG,105.6,T,,M,0.0,N,0.0,K,A*0F
$GPGLL,2233.2038,N,11413.8090,E,163126.00,A,A*66
$GPGSA,A,3,02,05,10,12,15,26,27,,,,,,1.9,1.4,1.3*3D
$GPGSV,3,1,10,10,24,046,16,05,49,004,12,02,51,086,17,27,07,177,35*7C
$GPGSV,3,2,10,12,07,222,25,26,77,161,37,15,53,208,41,29,34,308,19*7C
$GPGSV,3,3,10,04,17,111,,08,14,078,*79
$GPRMC,163127.000,A,2233.2038,N,11413.8090,E,0.0,105.6,040191,,,A*6F
$GPGGA,163127.000,2233.2038,N,11413.8090,E,1,07,1.4,51.9,M,14.2,M,,0000*6A
$GPVTG,105.6,T,,M,0.0,N,0.0,K,A*0F
$GPGLL,2233.2038,N,11413.8090,E,163127.00,A,A*67
$GPGSA,A,3,02,05,10,12,15,26,27,,,,,,1.9,1.4,1.3*3D
$GPRMC,163128.000,A,2233.2038,N,11413.8090,E,0.0,105.6,040191,,,A*60
$GPGGA,163128.000,2233.2038,N,11413.8090,E,1,07,1.4,51.9,M,14.2,M,,0000*65
$GPVTG,105.6,T,,M,0.0,N,0.0,K,A*0F
$GPGLL,2233.2038,N,11413.8090,E,163128.00,A,A*68
$GPGSA,A,3,02,05,10,12,15,26,27,,,,,,1.9,1.4,1.3*3D
$GPRMC,163129.000,A,2233.2038,N,11413.8090,E,0.0,105.6,040191,,,A*61
$GPGGA,163129.000,2233.2038,N,11413.8090,E,1,07,1.4,51.9,M,14.2,M,,0000*64
$GPVTG,105.6,T,,M,0.0,N,0.0,K,A*0F
$GPGLL,2233.2038,N,11413.8090,E,163129.00,A,A*69
$GPGSA,A,3,02,05,10,12,15,26,27,,,,,,1.9,1.4,1.3*3D
$GPRMC,163130.000,A,2233.2038,N,11413.8090,E,0.0,105.6,040191,,,A*69
$GPGGA,163130.000,2233.2038,N,11413.8090,E,1,07,1.4,51.9,M,14.2,M,,0000*6C
$GPVTG,105.6,T,,M,0.0,N,0.0,K,A*0F
$GPGLL,2233.2038,N,11413.8090,E,163130.00,A,A*61
$GPGSA,A,3,02,05,10,12,15,26,27,,,,,,1.9,1.4,1.3*3D
$GPRMC,163131.000,A,2233.2038,N,11413.8090,E,0.0,105.6,040191,,,A*68
$GPGGA,163131.000,2233.2038,N,11413.8090,E,1,07,1.4,51.9,M,14.2,M,,0000*6D
$GPVTG,105.6,T,,M,0.0,N,0.0,K,A*0F
$GPGLL,2233.2038,N,11413.8090,E,163131.00,A,A*60
$GPGSA,A,3,02,05,10,12,15,26,27,,,,,,1.9,1.4,1.3*3D
$GPGSV,3,1,10,10,24,046,16,05,49,004,14,02,51,086,15,27,07,177,35*78
$GPGSV,3,2,10,12,07,222,24,26,77,161,36,15,53,208,40,29,34,308,20*77
$GPGSV,3,3,10,04,17,111,,08,14,078,*79
$GPRMC,163132.000,A,2233.2038,N,11413.8090,E,0.0,105.6,040191,,,A*6B
$GPGGA,163132.000,2233.2038,N,11413.8090,E,1,07,1.4,51.9,M,14.2,M,,0000*6E
$GPVTG,105.6,T,,M,0.0,N,0.0,K,A*0F
$GPGLL,2233.2038,N,11413.8090,E,163132.00,A,A*63
$GPGSA,A,3,02,05,10,12,15,26,27,,,,,,1.9,1.4,1.3*3D
$GPRMC,163133.000,A,2233.2038,N,11413.8090,E,0.0,105.6,040191,,,A*6A
$GPGGA,163133.000,2233.2038,N,11413.8090,E,1,07,1.4,51.9,M,14.2,M,,0000*6F
$GPVTG,105.6,T,,M,0.0,N,0.0,K,A*0F
$GPGLL,2233.2038,N,11413.8090,E,163133.00,A,A*62
$GPGSA,A,3,02,05,10,12,15,26,27,,,,,,1.9,1.4,1.3*3D
$GPRMC,163134.000,A,2233.2038,N,11413.8090,E,0.0,105.6,040191,,,A*6D
$GPGGA,163134.000,2233.2038,N,11413.8090,E,1,07,1.4,51.9,M,14.2,M,,0000*68
$GPVTG,105.6,T,,M,0.0,N,0.0,K,A*0F
$GPGLL,2233.2038,N,11413.8090,E,163134.00,A,A*65
$GPGSA,A,3,02,05,10,12,15,26,27,,,,,,1.9,1.4,1.3*3D
$GPRMC,163135.000,A,2233.2038,N,11413.8090,E,0.0,105.6,040191,,,A*6C
$GPGGA,163135.000,2233.2038,N,11413.8090,E,1,07,1.4,51.9,M,14.2,M,,0000*69
$GPVTG,105.6,T,,M,0.0,N,0.0,K,A*0F
$GPGLL,2233.2038,N,11413.8090,E,163135.00,A,A*64
$GPGSA,A,3,02,05,10,12,15,26,27,,,,,,1.9,1.4,1.3*3D
$GPRMC,163136.000,A,2233.2038,N,11413.8090,E,0.0,105.6,040191,,,A*6F
$GPGGA,163136.000,2233.2038,N,11413.8090,E,1,07,1.4,51.9,M,14.2,M,,0000*6A
$GPVTG,105.6,T,,M,0.0,N,0.0,K,A*0F
$GPGLL,2233.2038,N,11413.8090,E,163136.00,A,A*67
$GPGSA,A,3,02,05,10,12,15,26,27,,,,,,1.9,1.4,1.3*3D
$GPGSV,3,1,10,10,24,046,15,05,49,004,15,02,51,086,16,27,07,177,36*7A
$GPGSV,3,2,10,12,07,222,27,26,77,161,37,15,53,208,41,29,34,308,*76
$GPGSV,3,3,10,04,17,111,,08,14,077,*76
$GPRMC,163137.000,A,2233.2038,N,11413.8090,E,0.0,105.6,040191,,,A*6E
$GPGGA,163137.000,2233.2038,N,11413.8090,E,1,07,1.4,51.9,M,14.2,M,,0000*6B
$GPVTG,105.6,T,,M,0.0,N,0.0,K,A*0F
$GPGLL,2233.2038,N,11413.8090,E,163137.00,A,A*66
$GPGSA,A,3,02,05,10,12,15,26,27,,,,,,1.9,1.4,1.3*3D
$GPRMC,163138.000,A,2233.2038,N,11413.8090,E,0.0,105.6,040191,,,A*61
$GPGGA,163138.000,2233.2038,N,11413.8090,E,1,07,1.4,51.9,M,14.2,M,,0000*64
$GPVTG,105.6,T,,M,0.0,N,0.0,K,A*0F
$GPGLL,2233.2038,N,11413.8090,E,163138.00,A,A*69
$GPGSA,A,3,02,05,10,12,15,26,27,,,,,,1.9,1.4,1.3*3D
$GPRMC,163139.000,A,2233.2038,N,11413.8090,E,0.0,105.6,040191,,,A*60
$GPGGA,163139.000,2233.2038,N,11413.8090,E,1,07,1.4,51.9,M,14.2,M,,0000*65
$GPVTG,105.6,T,,M,0.0,N,0.0,K,A*0F
$GPGLL,2233.2038,N,11413.8090,E,163139.00,A,A*68
$GPGSA,A,3,02,05,10,12,15,26,27,,,,,,1.9,1.4,1.3*3D
$GPRMC,163140.000,A,2233.2038,N,11413.8090,E,0.0,105.6,040191,,,A*6E
$GPGGA,163140.000,2233.2038,N,11413.8090,E,1,07,1.4,51.9,M,14.2,M,,0000*6B
$GPVTG,105.6,T,,M,0.0,N,0.0,K,A*0F
$GPGLL,2233.2038,N,11413.8090,E,163140.00,A,A*66
$GPGSA,A,3,02,05,10,12,15,26,27,,,,,,1.9,1.4,1.3*3D
$GPRMC,163141.000,A,2233.2038,N,11413.8090,E,0.0,105.6,040191,,,A*6F
$GPGGA,163141.000,2233.2038,N,11413.8090,E,1,07,1.4,51.9,M,14.2,M,,0000*6A
$GPVTG,105.6,T,,M,0.0,N,0.0,K,A*0F
$GPGLL,2233.2038,N,11413.8090,E,163141.00,A,A*67
$GPGSA,A,3,02,05,10,12,15,26,27,,,,,,1.9,1.4,1.3*3D
$GPGSV,3,1,10,10,23,046,14,05,49,004,14,02,51,086,13,27,07,177,35*7B
$GPGSV,3,2,10,12,07,222,25,26,78,161,36,15,53,208,41,29,34,308,*7A
$GPGSV,3,3,10,04,17,111,,08,14,077,*76
$GPRMC,163142.000,A,2233.2038,N,11413.8090,E,0.0,105.6,040191,,,A*6C
$GPGGA,163142.000,2233.2038,N,11413.8090,E,1,07,1.4,51.9,M,14.2,M,,0000*69
$GPVTG,105.6,T,,M,0.0,N,0.0,K,A*0F
$GPGLL,2233.2038,N,11413.8090,E,163142.00,A,A*64
$GPGSA,A,3,02,05,10,12,15,26,27,,,,,,1.9,1.4,1.3*3D
$GPRMC,163143.000,A,2233.2038,N,11413.8090,E,0.0,105.6,040191,,,A*6D
$GPGGA,163143.000,2233.2038,N,11413.8090,E,1,07,1.4,51.9,M,14.2,M,,0000*68
$GPVTG,105.6,T,,M,0.0,N,0.0,K,A*0F
$GPGLL,2233.2038,N,11413.8090,E,163143.00,A,A*65
$GPGSA,A,3,02,05,10,12,15,26,27,,,,,,1.9,1.4,1.3*3D
$GPRMC,163144.000,A,2233.2038,N,11413.8090,E,0.0,105.6,040191,,,A*6A
$GPGGA,163144.000,2233.2038,N,11413.8090,E,1,07,1.4,51.9,M,14.2,M,,0000*6F
$GPVTG,105.6,T,,M,0.0,N,0.0,K,A*0F
$GPGLL,2233.2038,N,11413.8090,E,163144.00,A,A*62
$GPGSA,A,3,02,05,10,12,15,26,27,,,,,,1.9,1.4,1.3*3D
$GPRMC,163145.000,A,2233.2038,N,11413.8090,E,0.0,105.6,040191,,,A*6B
$GPGGA,163145.000,2233.2038,N,11413.8090,E,1,07,1.4,51.9,M,14.2,M,,0000*6E
$GPVTG,105.6,T,,M,0.0,N,0.0,K,A*0F
$GPGLL,2233.2038,N,11413.8090,E,163145.00,A,A*63
$GPGSA,A,3,02,05,10,12,15,26,27,,,,,,1.9,1.4,1.3*3D
$GPRMC,163146.000,A,2233.2038,N,11413.8090,E,0.0,105.6,040191,,,A*68
$GPGGA,163146.000,2233.2038,N,11413.8090,E,1,07,1.4,51.9,M,14.2,M,,0000*6D
$GPVTG,105.6,T,,M,0.0,N,0.0,K,A*0F
$GPGLL,2233.2038,N,11413.8090,E,163146.00,A,A*60
$GPGSA,A,3,02,05,10,12,15,26,27,,,,,,1.9,1.4,1.3*3D
$GPGSV,3,1,10,10,23,046,14,05,49,004,12,02,51,086,12,27,08,176,35*72
$GPGSV,3,2,10,12,07,222,22,26,78,161,36,15,53,208,41,29,34,308,*7D
$GPGSV,3,3,10,04,17,111,,08,14,077,*76
$GPRMC,163147.000,A,2233.2038,N,11413.8090,E,0.0,105.6,040191,,,A*69
$GPGGA,163147.000,2233.2038,N,11413.8090,E,1,06,1.6,51.9,M,14.2,M,,0000*6F
$GPVTG,105.6,T,,M,0.0,N,0.0,K,A*0F
$GPGLL,2233.2038,N,11413.8090,E,163147.00,A,A*61
$GPGSA,A,3,05,10,12,15,26,27,,,,,,,2.1,1.6,1.3*36
$GPRMC,163148.000,A,2233.2038,N,11413.8090,E,0.0,105.6,040191,,,A*66
$GPGGA,163148.000,2233.2038,N,11413.8090,E,1,06,1.6,51.9,M,14.2,M,,0000*60
$GPVTG,105.6,T,,M,0.0,N,0.0,K,A*0F
$GPGLL,2233.2038,N,11413.8090,E,163148.00,A,A*6E
$GPGSA,A,3,05,10,12,15,26,27,,,,,,,2.1,1.6,1.3*36
$GPRMC,163149.000,A,2233.2038,N,11413.8090,E,0.0,105.6,040191,,,A*67
$GPGGA,163149.000,2233.2038,N,11413.8090,E,1,06,1.6,51.9,M,14.2,M,,0000*61
$GPVTG,105.6,T,,M,0.0,N,0.0,K,A*0F
$GPGLL,2233.2038,N,11413.8090,E,163149.00,A,A*6F
$GPGSA,A,3,05,10,12,15,26,27,,,,,,,2.1,1.6,1.3*36
$GPRMC,163150.000,A,2233.2038,N,11413.8090,E,0.0,105.6,040191,,,A*6F
$GPGGA,163150.000,2233.2038,N,11413.8090,E,1,05,2.0,51.9,M,14.2,M,,0000*6F
$GPVTG,105.6,T,,M,0.0,N,0.0,K,A*0F
$GPGLL,2233.2038,N,11413.8090,E,163150.00,A,A*67
$GPGSA,A,3,10,12,15,26,27,,,,,,,,2.4,2.0,1.3*33
$GPRMC,163151.000,A,2233.2038,N,11413.8090,E,0.0,105.6,040191,,,A*6E
$GPGGA,163151.000,2233.2038,N,11413.8090,E,1,05,2.0,51.9,M,14.2,M,,0000*6E
$GPVTG,105.6,T,,M,0.0,N,0.0,K,A*0F
$GPGLL,2233.2038,N,11413.8090,E,163151.00,A,A*66
$GPGSA,A,3,10,12,15,26,27,,,,,,,,2.4,2.0,1.3*33
$GPGSV,3,1,10,10,23,046,16,05,49,004,11,27,08,176,35,12,07,221,20*7F
$GPGSV,3,2,10,26,78,161,35,15,53,208,41,02,51,086,,29,34,308,*70
$GPGSV,3,3,10,04,17,111,,08,14,077,*76
$GPRMC,163152.000,A,2233.2038,N,11413.8090,E,0.0,105.6,040191,,,A*6D
$GPGGA,163152.000,2233.2038,N,11413.8090,E,1,05,2.0,51.9,M,14.2,M,,0000*6D
$GPVTG,105.6,T,,M,0.0,N,0.0,K,A*0F
$GPGLL,2233.2038,N,11413.8090,E,163152.00,A,A*65
$GPGSA,A,3,10,12,15,26,27,,,,,,,,2.4,2.0,1.3*33
$GPRMC,163153.000,A,2233.2038,N,11413.8090,E,0.0,105.6,040191,,,A*6C
$GPGGA,163153.000,2233.2038,N,11413.8090,E,1,05,2.0,51.9,M,14.2,M,,0000*6C
$GPVTG,105.6,T,,M,0.0,N,0.0,K,A*0F
$GPGLL,2233.2038,N,11413.8090,E,163153.00,A,A*64
$GPGSA,A,3,10,12,15,26,27,,,,,,,,2.4,2.0,1.3*33
$GPRMC,163154.000,A,2233.2038,N,11413.8090,E,0.0,105.6,040191,,,A*6B
$GPGGA,163154.000,2233.2038,N,11413.8090,E,1,05,2.0,51.9,M,14.2,M,,0000*6B
$GPVTG,105.6,T,,M,0.0,N,0.0,K,A*0F
$GPGLL,2233.2038,N,11413.8090,E,163154.00,A,A*63
$GPGSA,A,3,10,12,15,26,27,,,,,,,,2.4,2.0,1.3*33
$GPRMC,163155.000,A,2233.2038,N,11413.8090,E,0.0,105.6,040191,,,A*6A
$GPGGA,163155.000,2233.2038,N,11413.8090,E,1,05,2.0,51.9,M,14.2,M,,0000*6A
$GPVTG,105.6,T,,M,0.0,N,0.0,K,A*0F
$GPGLL,2233.2038,N,11413.8090,E,163155.00,A,A*62
$GPGSA,A,3,10,12,15,26,27,,,,,,,,2.4,2.0,1.3*33
$GPRMC,163156.000,A,2233.2038,N,11413.8090,E,0.0,105.6,040191,,,A*69
$GPGGA,163156.000,2233.2038,N,11413.8090,E,1,06,1.8,51.9,M,14.2,M,,0000*61
$GPVTG,105.6,T,,M,0.0,N,0.0,K,A*0F
$GPGLL,2233.2038,N,11413.8090,E,163156.00,A,A*61
$GPGSA,A,3,02,10,12,15,26,27,,,,,,,2.2,1.8,1.3*3C
$GPGSV,3,1,10,10,23,046,21,02,51,086,14,27,08,176,37,12,07,221,21*79
$GPGSV,3,2,10,26,78,161,36,15,54,208,41,29,34,307,21,05,49,004,*7C
$GPGSV,3,3,10,04,17,111,,08,14,077,*76
$GPRMC,163157.000,A,2233.2038,N,11413.8090,E,0.0,105.6,040191,,,A*68
$GPGGA,163157.000,2233.2038,N,11413.8090,E,1,06,1.8,51.9,M,14.2,M,,0000*60
$GPVTG,105.6,T,,M,0.0,N,0.0,K,A*0F
$GPGLL,2233.2038,N,11413.8090,E,163157.00,A,A*60
$GPGSA,A,3,02,10,12,15,26,27,,,,,,,2.2,1.8,1.3*3C
$GPRMC,163158.000,A,2233.2038,N,11413.8090,E,0.0,105.6,040191,,,A*67
$GPGGA,163158.000,2233.2038,N,11413.8090,E,1,06,1.8,51.9,M,14.2,M,,0000*6F
$GPVTG,105.6,T,,M,0.0,N,0.0,K,A*0F
$GPGLL,2233.2038,N,11413.8090,E,163158.00,A,A*6F
$GPGSA,A,3,02,10,12,15,26,27,,,,,,,2.2,1.8,1.3*3C
$GPRMC,163159.000,A,2233.2038,N,11413.8090,E,0.0,105.6,040191,,,A*66
$GPGGA,163159.000,2233.2038,N,11413.8090,E,1,06,1.8,51.9,M,14.2,M,,0000*6E
$GPVTG,105.6,T,,M,0.0,N,0.0,K,A*0F
$GPGLL,2233.2038,N,11413.8090,E,163159.00,A,A*6E
$GPGSA,A,3,02,10,12,15,26,27,,,,,,,2.2,1.8,1.3*3C
$GPRMC,163200.000,A,2233.2038,N,11413.8090,E,0.0,105.6,040191,,,A*69
$GPGGA,163200.000,2233.2038,N,11413.8090,E,1,06,1.8,51.9,M,14.2,M,,0000*61
$GPVTG,105.6,T,,M,0.0,N,0.0,K,A*0F
$GPGLL,2233.2038,N,11413.8090,E,163200.00,A,A*61
$GPGSA,A,3,02,10,12,15,26,27,,,,,,,2.2,1.8,1.3*3C
$GPRMC,163201.000,A,2233.2038,N,11413.8090,E,0.0,105.6,040191,,,A*68
$GPGGA,163201.000,2233.2038,N,11413.8090,E,1,06,1.8,51.9,M,14.2,M,,0000*60
$GPVTG,105.6,T,,M,0.0,N,0.0,K,A*0F
$GPGLL,2233.2038,N,11413.8090,E,163201.00,A,A*60
$GPGSA,A,3,02,10,12,15,26,27,,,,,,,2.2,1.8,1.3*3C
$GPGSV,3,1,10,10,23,046,19,02,51,086,14,27,08,176,37,12,07,221,22*71
$GPGSV,3,2,10,26,78,161,36,15,54,208,40,29,34,307,16,05,49,004,*79
$GPGSV,3,3,10,04,17,111,,08,14,077,*76
$GPRMC,163202.000,A,2233.2038,N,11413.8090,E,0.0,105.6,040191,,,A*6B
$GPGGA,163202.000,2233.2038,N,11413.8090,E,1,06,1.8,51.9,M,14.2,M,,0000*63
$GPVTG,105.6,T,,M,0.0,N,0.0,K,A*0F
$GPGLL,2233.2038,N,11413.8090,E,163202.00,A,A*63
$GPGSA,A,3,02,10,12,15,26,27,,,,,,,2.2,1.8,1.3*3C
$GPRMC,163203.000,A,2233.2038,N,11413.8090,E,0.0,105.6,040191,,,A*6A
$GPGGA,163203.000,2233.2038,N,11413.8090,E,1,06,1.8,51.9,M,14.2,M,,0000*62
$GPVTG,105.6,T,,M,0.0,N,0.0,K,A*0F
$GPGLL,2233.2038,N,11413.8090,E,163203.00,A,A*62
$GPGSA,A,3,02,10,12,15,26,27,,,,,,,2.2,1.8,1.3*3C
$GPRMC,163204.000,A,2233.2038,N,11413.8090,E,0.0,105.6,040191,,,A*6D
$GPGGA,163204.000,2233.2038,N,11413.8090,E,1,06,1.8,51.9,M,14.2,M,,0000*65
$GPVTG,105.6,T,,M,0.0,N,0.0,K,A*0F
$GPGLL,2233.2038,N,11413.8090,E,163204.00,A,A*65
$GPGSA,A,3,02,10,12,15,26,27,,,,,,,2.2,1.8,1.3*3C
$GPRMC,163205.000,A,2233.2038,N,11413.8090,E,0.0,105.6,040191,,,A*6C
$GPGGA,163205.000,2233.2038,N,11413.8090,E,1,06,1.8,51.9,M,14.2,M,,0000*64
$GPVTG,105.6,T,,M,0.0,N,0.0,K,A*0F
$GPGLL,2233.2038,N,11413.8090,E,163205.00,A,A*64
$GPGSA,A,3,02,10,12,15,26,27,,,,,,,2.2,1.8,1.3*3C
$GPRMC,163206.000,A,2233.2038,N,11413.8090,E,0.0,105.6,040191,,,A*6F
$GPGGA,163206.000,2233.2038,N,11413.8090,E,1,06,1.8,51.9,M,14.2,M,,0000*67
$GPVTG,105.6,T,,M,0.0,N,0.0,K,A*0F
$GPGLL,2233.2038,N,11413.8090,E,163206.00,A,A*67
$GPGSA,A,3,02,10,12,15,26,27,,,,,,,2.2,1.8,1.3*3C
$GPGSV,3,1,10,10,23,046,20,05,49,004,11,02,51,086,16,27,08,176,36*71
$GPGSV,3,2,10,12,07,221,17,26,78,161,36,15,54,208,39,29,34,307,18*76
$GPGSV,3,3,10,04,17,111,,08,14,077,*76
$GPRMC,163207.000,A,2233.2038,N,11413.8090,E,0.0,105.6,040191,,,A*6E
$GPGGA,163207.000,2233.2038,N,11413.8090,E,1,07,1.4,51.9,M,14.2,M,,0000*6B
$GPVTG,105.6,T,,M,0.0,N,0.0,K,A*0F
$GPGLL,2233.2038,N,11413.8090,E,163207.00,A,A*66
$GPGSA,A,3,02,05,10,12,15,26,27,,,,,,1.9,1.4,1.3*3D
$GPRMC,163208.000,A,2233.2038,N,11413.8090,E,0.0,105.6,040191,,,A*61
$GPGGA,163208.000,2233.2038,N,11413.8090,E,1,06,1.8,51.9,M,14.2,M,,0000*69
$GPVTG,105.6,T,,M,0.0,N,0.0,K,A*0F
$GPGLL,2233.2038,N,11413.8090,E,163208.00,A,A*69
$GPGSA,A,3,02,10,12,15,26,27,,,,,,,2.2,1.8,1.3*3C
$GPRMC,163209.000,A,2233.2038,N,11413.8090,E,0.0,105.6,040191,,,A*60
$GPGGA,163209.000,2233.2038,N,11413.8090,E,1,07,1.4,51.9,M,14.2,M,,0000*65
$GPVTG,105.6,T,,M,0.0,N,0.0,K,A*0F
$GPGLL,2233.2038,N,11413.8090,E,163209.00,A,A*68
$GPGSA,A,3,02,05,10,12,15,26,27,,,,,,1.9,1.4,1.3*3D
$GPRMC,163210.000,A,2233.2038,N,11413.8090,E,0.0,105.6,040191,,,A*68
$GPGGA,163210.000,2233.2038,N,11413.8090,E,1,07,1.4,51.9,M,14.2,M,,0000*6D
$GPVTG,105.6,T,,M,0.0,N,0.0,K,A*0F
$GPGLL,2233.2038,N,11413.8090,E,163210.00,A,A*60
$GPGSA,A,3,02,05,10,12,15,26,27,,,,,,1.9,1.4,1.3*3D
$GPRMC,163211.000,A,2233.2038,N,11413.8090,E,0.0,105.6,040191,,,A*69
$GPGGA,163211.000,2233.2038,N,11413.8090,E,1,06,1.8,51.9,M,14.2,M,,0000*61
$GPVTG,105.6,T,,M,0.0,N,0.0,K,A*0F
$GPGLL,2233.2038,N,11413.8090,E,163211.00,A,A*61
$GPGSA,A,3,02,10,12,15,26,27,,,,,,,2.2,1.8,1.3*3C
$GPGSV,3,1,10,10,23,046,22,05,49,004,12,02,51,086,19,27,08,176,36*7F
$GPGSV,3,2,10,12,07,221,14,26,78,161,36,15,54,208,39,29,34,307,18*75
$GPGSV,3,3,10,04,17,111,,08,14,077,*76
$GPRMC,163212.000,A,2233.2038,N,11413.8090,E,0.0,105.6,040191,,,A*6A
$GPGGA,163212.000,2233.2038,N,11413.8090,E,1,06,1.8,51.9,M,14.2,M,,0000*62
$GPVTG,105.6,T,,M,0.0,N,0.0,K,A*0F
$GPGLL,2233.2038,N,11413.8090,E,163212.00,A,A*62
$GPGSA,A,3,02,10,12,15,26,27,,,,,,,2.2,1.8,1.3*3C
$GPRMC,163213.000,A,2233.2038,N,11413.8090,E,0.0,105.6,040191,,,A*6B
$GPGGA,163213.000,2233.2038,N,11413.8090,E,1,06,1.8,51.9,M,14.2,M,,0000*63
$GPVTG,105.6,T,,M,0.0,N,0.0,K,A*0F
$GPGLL,2233.2038,N,11413.8090,E,163213.00,A,A*63
$GPGSA,A,3,02,10,12,15,26,27,,,,,,,2.2,1.8,1.3*3C
$GPRMC,163214.000,A,2233.2038,N,11413.8090,E,0.0,105.6,040191,,,A*6C
$GPGGA,163214.000,2233.2038,N,11413.8090,E,1,06,1.8,51.9,M,14.2,M,,0000*64
$GPVTG,105.6,T,,M,0.0,N,0.0,K,A*0F
$GPGLL,2233.2038,N,11413.8090,E,163214.00,A,A*64
$GPGSA,A,3,02,10,12,15,26,27,,,,,,,2.2,1.8,1.3*3C
$GPRMC,163215.000,A,2233.2038,N,11413.8090,E,0.0,105.6,040191,,,A*6D
$GPGGA,163215.000,2233.2038,N,11413.8090,E,1,06,1.8,51.9,M,14.2,M,,0000*65
$GPVTG,105.6,T,,M,0.0,N,0.0,K,A*0F
$GPGLL,2233.2038,N,11413.8090,E,163215.00,A,A*65
$GPGSA,A,3,02,05,10,15,26,27,,,,,,,2.4,1.8,1.6*39
$GPRMC,163216.000,A,2233.2038,N,11413.8090,E,0.0,105.6,040191,,,A*6E
$GPGGA,163216.000,2233.2038,N,11413.8090,E,1,07,1.4,51.9,M,14.2,M,,0000*6B
$GPVTG,105.6,T,,M,0.0,N,0.0,K,A*0F
$GPGLL,2233.2038,N,11413.8090,E,163216.00,A,A*66
$GPGSA,A,3,02,05,10,12,15,26,27,,,,,,1.9,1.4,1.3*3D
$GPGSV,3,1,10,10,23,046,23,05,49,005,15,02,51,086,18,27,08,176,36*79
$GPGSV,3,2,10,12,07,221,16,26,78,160,36,15,54,208,39,29,34,307,18*76
$GPGSV,3,3,10,04,17,111,,08,14,077,*76
$GPRMC,163217.000,A,2233.2038,N,11413.8090,E,0.0,105.6,040191,,,A*6F
$GPGGA,163217.000,2233.2038,N,11413.8090,E,1,07,1.4,51.9,M,14.2,M,,0000*6A
$GPVTG,105.6,T,,M,0.0,N,0.0,K,A*0F
$GPGLL,2233.2038,N,11413.8090,E,163217.00,A,A*67
$GPGSA,A,3,02,05,10,12,15,26,27,,,,,,1.9,1.4,1.3*3D
$GPRMC,163218.000,A,2233.2038,N,11413.8090,E,0.0,105.6,040191,,,A*60
$GPGGA,163218.000,2233.2038,N,11413.8090,E,1,07,1.4,51.9,M,14.2,M,,0000*65
$GPVTG,105.6,T,,M,0.0,N,0.0,K,A*0F
$GPGLL,2233.2038,N,11413.8090,E,163218.00,A,A*68
$GPGSA,A,3,02,05,10,12,15,26,27,,,,,,1.9,1.4,1.3*3D
$GPRMC,163219.000,A,2233.2038,N,11413.8090,E,0.0,105.6,040191,,,A*61
$GPGGA,163219.000,2233.2038,N,11413.8090,E,1,07,1.4,51.9,M,14.2,M,,0000*64
$GPVTG,105.6,T,,M,0.0,N,0.0,K,A*0F
$GPGLL,2233.2038,N,11413.8090,E,163219.00,A,A*69
$GPGSA,A,3,02,05,10,12,15,26,27,,,,,,1.9,1.4,1.3*3D
$GPRMC,163220.000,A,2233.2038,N,11413.8090,E,0.0,105.6,040191,,,A*6B
$GPGGA,163220.000,2233.2038,N,11413.8090,E,1,07,1.4,51.9,M,14.2,M,,0000*6E
$GPVTG,105.6,T,,M,0.0,N,0.0,K,A*0F
$GPGLL,2233.2038,N,11413.8090,E,163220.00,A,A*63
$GPGSA,A,3,02,05,10,12,15,26,27,,,,,,1.9,1.4,1.3*3D
$GPRMC,163221.000,A,2233.2038,N,11413.8090,E,0.0,105.6,040191,,,A*6A
$GPGGA,163221.000,2233.2038,N,11413.8090,E,1,07,1.4,51.9,M,14.2,M,,0000*6F
$GPVTG,105.6,T,,M,0.0,N,0.0,K,A*0F
$GPGLL,2233.2038,N,11413.8090,E,163221.00,A,A*62
$GPGSA,A,3,02,05,10,12,15,26,27,,,,,,1.9,1.4,1.3*3D
$GPGSV,3,1,10,10,23,046,20,05,49,005,14,02,51,086,16,27,08,176,36*75
$GPGSV,3,2,10,12,07,221,13,26,78,160,37,15,54,208,40,29,34,307,17*73
$GPGSV,3,3,10,04,17,111,,08,14,077,*76
$GPRMC,163222.000,A,2233.2038,N,11413.8090,E,0.0,105.6,040191,,,A*69
$GPGGA,163222.000,2233.2038,N,11413.8090,E,1,07,1.4,51.9,M,14.2,M,,0000*6C
$GPVTG,105.6,T,,M,0.0,N,0.0,K,A*0F
$GPGLL,2233.2038,N,11413.8090,E,163222.00,A,A*61
$GPGSA,A,3,02,05,10,12,15,26,27,,,,,,1.9,1.4,1.3*3D
$GPRMC,163223.000,A,2233.2038,N,11413.8090,E,0.0,105.6,040191,,,A*68
$GPGGA,163223.000,2233.2038,N,11413.8090,E,1,07,1.4,51.9,M,14.2,M,,0000*6D
$GPVTG,105.6,T,,M,0.0,N,0.0,K,A*0F
$GPGLL,2233.2038,N,11413.8090,E,163223.00,A,A*60
$GPGSA,A,3,02,05,10,12,15,26,27,,,,,,1.9,1.4,1.3*3D
$GPRMC,163224.000,A,2233.2038,N,11413.8090,E,0.0,105.6,040191,,,A*6F
$GPGGA,163224.000,2233.2038,N,11413.8090,E,1,07,1.4,51.9,M,14.2,M,,0000*6A
$GPVTG,105.6,T,,M,0.0,N,0.0,K,A*0F
$GPGLL,2233.2038,N,11413.8090,E,163224.00,A,A*67
$GPGSA,A,3,02,05,10,12,15,26,27,,,,,,1.9,1.4,1.3*3D
$GPRMC,163225.000,A,2233.2038,N,11413.8090,E,0.0,105.6,040191,,,A*6E
$GPGGA,163225.000,2233.2038,N,11413.8090,E,1,07,1.4,51.9,M,14.2,M,,0000*6B
$GPVTG,105.6,T,,M,0.0,N,0.0,K,A*0F
$GPGLL,2233.2038,N,11413.8090,E,163225.00,A,A*66
$GPGSA,A,3,02,05,10,12,15,26,27,,,,,,1.9,1.4,1.3*3D
$GPRMC,163226.000,A,2233.2038,N,11413.8090,E,0.0,105.6,040191,,,A*6D
$GPGGA,163226.000,2233.2038,N,11413.8090,E,1,07,1.4,51.9,M,14.2,M,,0000*68
$GPVTG,105.6,T,,M,0.0,N,0.0,K,A*0F
$GPGLL,2233.2038,N,11413.8090,E,163226.00,A,A*65
$GPGSA,A,3,02,05,10,12,15,26,27,,,,,,1.9,1.4,1.3*3D
$GPGSV,3,1,10,10,23,046,20,05,49,005,14,02,51,086,15,27,08,176,36*76
$GPGSV,3,2,10,12,07,221,14,26,78,160,36,15,54,208,41,29,34,307,17*74
$GPGSV,3,3,10,04,17,111,,08,14,077,*76
$GPRMC,163227.000,A,2233.2038,N,11413.8090,E,0.0,105.6,040191,,,A*6C
$GPGGA,163227.000,2233.2038,N,11413.8090,E,1,07,1.4,51.9,M,14.2,M,,0000*69
$GPVTG,105.6,T,,M,0.0,N,0.0,K,A*0F
$GPGLL,2233.2038,N,11413.8090,E,163227.00,A,A*64
$GPGSA,A,3,02,05,10,12,15,26,27,,,,,,1.9,1.4,1.3*3D
$GPRMC,163228.000,A,2233.2038,N,11413.8090,E,0.0,105.6,040191,,,A*63
$GPGGA,163228.000,2233.2038,N,11413.8090,E,1,07,1.4,51.9,M,14.2,M,,0000*66
$GPVTG,105.6,T,,M,0.0,N,0.0,K,A*0F
$GPGLL,2233.2038,N,11413.8090,E,163228.00,A,A*6B
$GPGSA,A,3,02,05,10,12,15,26,27,,,,,,1.9,1.4,1.3*3D
$GPRMC,163229.000,A,2233.2038,N,11413.8090,E,0.0,105.6,040191,,,A*62
$GPGGA,163229.000,2233.2038,N,11413.8090,E,1,07,1.4,51.9,M,14.2,M,,0000*67
$GPVTG,105.6,T,,M,0.0,N,0.0,K,A*0F
$GPGLL,2233.2038,N,11413.8090,E,163229.00,A,A*6A
$GPGSA,A,3,02,05,10,12,15,26,27,,,,,,1.9,1.4,1.3*3D
$GPRMC,163230.000,A,2233.2038,N,11413.8090,E,0.0,105.6,040191,,,A*6A
$GPGGA,163230.000,2233.2038,N,11413.8090,E,1,07,1.4,51.9,M,14.2,M,,0000*6F
$GPVTG,105.6,T,,M,0.0,N,0.0,K,A*0F
$GPGLL,2233.2038,N,11413.8090,E,163230.00,A,A*62
$GPGSA,A,3,02,05,10,12,15,26,27,,,,,,1.9,1.4,1.3*3D
$GPRMC,163231.000,A,2233.2038,N,11413.8090,E,0.0,105.6,040191,,,A*6B
$GPGGA,163231.000,2233.2038,N,11413.8090,E,1,07,1.4,51.9,M,14.2,M,,0000*6E
$GPVTG,105.6,T,,M,0.0,N,0.0,K,A*0F
$GPGLL,2233.2038,N,11413.8090,E,163231.00,A,A*63
$GPGSA,A,3,02,05,10,12,15,26,27,,,,,,1.9,1.4,1.3*3D
$GPGSV,3,1,10,10,23,046,20,05,49,005,13,02,51,087,15,27,08,176,36*70
$GPGSV,3,2,10,12,07,221,15,26,78,160,37,15,54,208,42,29,34,307,*71
$GPGSV,3,3,10,04,17,111,,08,14,077,*76
$GPRMC,163232.000,A,2233.2038,N,11413.8090,E,0.0,105.6,040191,,,A*68
$GPGGA,163232.000,2233.2038,N,11413.8090,E,1,07,1.4,51.9,M,14.2,M,,0000*6D
$GPVTG,105.6,T,,M,0.0,N,0.0,K,A*0F
$GPGLL,2233.2038,N,11413.8090,E,163232.00,A,A*60
$GPGSA,A,3,02,05,10,12,15,26,27,,,,,,1.9,1.4,1.3*3D
$GPRMC,163233.000,A,2233.2038,N,11413.8090,E,0.0,105.6,040191,,,A*69
$GPGGA,163233.000,2233.2038,N,11413.8090,E,1,07,1.4,51.9,M,14.2,M,,0000*6C
$GPVTG,105.6,T,,M,0.0,N,0.0,K,A*0F
$GPGLL,2233.2038,N,11413.8090,E,163233.00,A,A*61
$GPGSA,A,3,02,05,10,12,15,26,27,,,,,,1.9,1.4,1.3*3D
$GPRMC,163234.000,A,2233.2038,N,11413.8090,E,0.0,105.6,040191,,,A*6E
$GPGGA,163234.000,2233.2038,N,11413.8090,E,1,07,1.4,51.9,M,14.2,M,,0000*6B
$GPVTG,105.6,T,,M,0.0,N,0.0,K,A*0F
$GPGLL,2233.2038,N,11413.8090,E,163234.00,A,A*66
$GPGSA,A,3,02,05,10,12,15,26,27,,,,,,1.9,1.4,1.3*3D
$GPRMC,163235.000,A,2233.2038,N,11413.8090,E,0.0,105.6,040191,,,A*6F
$GPGGA,163235.000,2233.2038,N,11413.8090,E,1,07,1.4,51.9,M,14.2,M,,0000*6A
$GPVTG,105.6,T,,M,0.0,N,0.0,K,A*0F
$GPGLL,2233.2038,N,11413.8090,E,163235.00,A,A*67
$GPGSA,A,3,02,05,10,12,15,26,27,,,,,,1.9,1.4,1.3*3D
$GPRMC,163236.000,A,2233.2038,N,11413.8090,E,0.0,105.6,040191,,,A*6C
$GPGGA,163236.000,2233.2038,N,11413.8090,E,1,07,1.4,51.9,M,14.2,M,,0000*69
$GPVTG,105.6,T,,M,0.0,N,0.0,K,A*0F
$GPGLL,2233.2038,N,11413.8090,E,163236.00,A,A*64
$GPGSA,A,3,02,05,10,12,15,26,27,,,,,,1.9,1.4,1.3*3D
$GPGSV,3,1,10,10,23,046,21,05,49,005,13,02,51,087,17,27,08,176,36*73
$GPGSV,3,2,10,12,07,221,13,26,78,160,38,15,54,208,41,29,34,307,*7B
$GPGSV,3,3,10,04,17,111,,08,14,077,*76
$GPRMC,163237.000,A,2233.2038,N,11413.8090,E,0.0,105.6,040191,,,A*6D
$GPGGA,163237.000,2233.2038,N,11413.8090,E,1,07,1.4,51.9,M,14.2,M,,0000*68
$GPVTG,105.6,T,,M,0.0,N,0.0,K,A*0F
$GPGLL,2233.2038,N,11413.8090,E,163237.00,A,A*65
$GPGSA,A,3,02,05,10,12,15,26,27,,,,,,1.9,1.4,1.3*3D
$GPRMC,163238.000,A,2233.2038,N,11413.8090,E,0.0,105.6,040191,,,A*62
$GPGGA,163238.000,2233.2038,N,11413.8090,E,1,07,1.4,51.9,M,14.2,M,,0000*67
$GPVTG,105.6,T,,M,0.0,N,0.0,K,A*0F
$GPGLL,2233.2038,N,11413.8090,E,163238.00,A,A*6A
$GPGSA,A,3,02,05,10,12,15,26,27,,,,,,1.9,1.4,1.3*3D
$GPRMC,163239.000,A,2233.2038,N,11413.8090,E,0.0,105.6,040191,,,A*63
$GPGGA,163239.000,2233.2038,N,11413.8090,E,1,07,1.4,51.9,M,14.2,M,,0000*66
$GPVTG,105.6,T,,M,0.0,N,0.0,K,A*0F
$GPGLL,2233.2038,N,11413.8090,E,163239.00,A,A*6B
$GPGSA,A,3,02,05,10,12,15,26,27,,,,,,1.9,1.4,1.3*3D
$GPRMC,163240.000,A,2233.2038,N,11413.8090,E,0.0,105.6,040191,,,A*6D
$GPGGA,163240.000,2233.2038,N,11413.8090,E,1,07,1.4,51.9,M,14.2,M,,0000*68
$GPVTG,105.6,T,,M,0.0,N,0.0,K,A*0F
$GPGLL,2233.2038,N,11413.8090,E,163240.00,A,A*65
$GPGSA,A,3,02,05,10,12,15,26,27,,,,,,1.9,1.4,1.3*3D
$GPRMC,163241.000,A,2233.2038,N,11413.8090,E,0.0,105.6,040191,,,A*6C
$GPGGA,163241.000,2233.2038,N,11413.8090,E,1,08,1.1,51.9,M,14.2,M,,0000*63
$GPVTG,105.6,T,,M,0.0,N,0.0,K,A*0F
$GPGLL,2233.2038,N,11413.8090,E,163241.00,A,A*64
$GPGSA,A,3,02,04,05,10,12,15,26,27,,,,,1.6,1.1,1.2*32
$GPGSV,3,1,10,10,23,046,19,05,49,005,12,02,51,087,17,04,17,111,12*71
$GPGSV,3,2,10,27,08,176,36,12,07,221,17,26,78,160,38,15,54,208,40*7E
$GPGSV,3,3,10,29,34,307,19,08,14,077,*75
$GPRMC,163242.000,A,2233.2052,N,11413.8083,E,2.0,105.6,040191,,,A*63
$GPGGA,163242.000,2233.2052,N,11413.8083,E,1,08,1.1,49.4,M,14.2,M,,0000*6A
$GPVTG,105.6,T,,M,2.0,N,3.6,K,A*08
$GPGLL,2233.2052,N,11413.8083,E,163242.00,A,A*69
$GPGSA,A,3,02,04,05,10,12,15,26,27,,,,,1.6,1.1,1.2*32
$GPRMC,163243.000,A,2233.2052,N,11413.8083,E,0.0,105.6,040191,,,A*60
$GPGGA,163243.000,2233.2052,N,11413.8083,E,1,08,1.1,49.4,M,14.2,M,,0000*6B
$GPVTG,105.6,T,,M,0.0,N,0.0,K,A*0F
$GPGLL,2233.2052,N,11413.8083,E,163243.00,A,A*68
$GPGSA,A,3,02,04,05,10,12,15,26,27,,,,,1.6,1.1,1.2*32
$GPRMC,163244.000,A,2233.2052,N,11413.8083,E,0.0,105.6,040191,,,A*67
$GPGGA,163244.000,2233.2052,N,11413.8083,E,1,08,1.1,49.4,M,14.2,M,,0000*6C
$GPVTG,105.6,T,,M,0.0,N,0.0,K,A*0F
$GPGLL,2233.2052,N,11413.8083,E,163244.00,A,A*6F
$GPGSA,A,3,02,04,05,10,12,15,26,27,,,,,1.6,1.1,1.2*32
$GPRMC,163245.000,A,2233.2052,N,11413.8083,E,0.0,105.6,040191,,,A*66
$GPGGA,163245.000,2233.2052,N,11413.8083,E,1,07,1.4,49.4,M,14.2,M,,0000*67
$GPVTG,105.6,T,,M,0.0,N,0.0,K,A*0F
$GPGLL,2233.2052,N,11413.8083,E,163245.00,A,A*6E
$GPGSA,A,3,02,04,10,12,15,26,27,,,,,,1.8,1.4,1.2*3C
$GPRMC,163246.000,A,2233.2052,N,11413.8083,E,0.0,105.6,040191,,,A*65
$GPGGA,163246.000,2233.2052,N,11413.8083,E,1,08,1.1,49.4,M,14.2,M,,0000*6E
$GPVTG,105.6,T,,M,0.0,N,0.0,K,A*0F
$GPGLL,2233.2052,N,11413.8083,E,163246.00,A,A*6D
$GPGSA,A,3,02,04,05,10,12,15,26,27,,,,,1.6,1.1,1.2*32
$GPGSV,3,1,10,10,23,046,18,05,49,005,11,02,51,087,16,04,17,111,13*73
$GPGSV,3,2,10,27,08,176,36,12,07,221,24,26,78,160,38,15,54,208,39*70
$GPGSV,3,3,10,29,34,307,,08,14,077,*7D
$GPRMC,163247.000,A,2233.2052,N,11413.8083,E,0.0,105.6,040191,,,A*64
$GPGGA,163247.000,2233.2052,N,11413.8083,E,1,08,1.1,49.4,M,14.2,M,,0000*6F
$GPVTG,105.6,T,,M,0.0,N,0.0,K,A*0F
$GPGLL,2233.2052,N,11413.8083,E,163247.00,A,A*6C
$GPGSA,A,3,02,04,05,10,12,15,26,27,,,,,1.6,1.1,1.2*32
$GPRMC,163248.000,A,2233.2052,N,11413.8083,E,0.0,105.6,040191,,,A*6B
$GPGGA,163248.000,2233.2052,N,11413.8083,E,1,08,1.1,49.4,M,14.2,M,,0000*60
$GPVTG,105.6,T,,M,0.0,N,0.0,K,A*0F
$GPGLL,2233.2052,N,11413.8083,E,163248.00,A,A*63
$GPGSA,A,3,02,04,05,10,12,15,26,27,,,,,1.6,1.1,1.2*32
$GPRMC,163249.000,A,2233.2052,N,11413.8083,E,0.0,105.6,040191,,,A*6A
$GPGGA,163249.000,2233.2052,N,11413.8083,E,1,08,1.1,49.4,M,14.2,M,,0000*61
$GPVTG,105.6,T,,M,0.0,N,0.0,K,A*0F
$GPGLL,2233.2052,N,11413.8083,E,163249.00,A,A*62
$GPGSA,A,3,02,04,05,10,12,15,26,27,,,,,1.6,1.1,1.2*32
$GPRMC,163250.000,A,2233.2052,N,11413.8083,E,0.0,105.6,040191,,,A*62
$GPGGA,163250.000,2233.2052,N,11413.8083,E,1,08,1.1,49.4,M,14.2,M,,0000*69
$GPVTG,105.6,T,,M,0.0,N,0.0,K,A*0F
$GPGLL,2233.2052,N,11413.8083,E,163250.00,A,A*6A
$GPGSA,A,3,02,04,05,10,12,15,26,27,,,,,1.6,1.1,1.2*32
$GPRMC,163251.000,A,2233.2052,N,11413.8083,E,0.0,105.6,040191,,,A*63
$GPGGA,163251.000,2233.2052,N,11413.8083,E,1,08,1.1,49.4,M,14.2,M,,0000*68
$GPVTG,105.6,T,,M,0.0,N,0.0,K,A*0F
$GPGLL,2233.2052,N,11413.8083,E,163251.00,A,A*6B
$GPGSA,A,3,02,04,05,10,12,15,26,27,,,,,1.6,1.1,1.2*32
$GPGSV,3,1,10,10,23,046,18,05,49,005,13,02,51,087,14,04,17,111,14*74
$GPGSV,3,2,10,27,08,176,35,12,07,221,25,26,78,160,38,15,54,208,39*72
$GPGSV,3,3,10,29,34,307,,08,14,077,*7D
$GPRMC,163252.000,A,2233.2052,N,11413.8083,E,0.0,105.6,040191,,,A*60
$GPGGA,163252.000,2233.2052,N,11413.8083,E,1,08,1.1,49.4,M,14.2,M,,0000*6B
$GPVTG,105.6,T,,M,0.0,N,0.0,K,A*0F
$GPGLL,2233.2052,N,11413.8083,E,163252.00,A,A*68
$GPGSA,A,3,02,04,05,10,12,15,26,27,,,,,1.6,1.1,1.2*32
$GPRMC,163253.000,A,2233.2052,N,11413.8083,E,0.0,105.6,040191,,,A*61
$GPGGA,163253.000,2233.2052,N,11413.8083,E,1,08,1.1,49.4,M,14.2,M,,0000*6A
$GPVTG,105.6,T,,M,0.0,N,0.0,K,A*0F
$GPGLL,2233.2052,N,11413.8083,E,163253.00,A,A*69
$GPGSA,A,3,02,04,05,10,12,15,26,27,,,,,1.6,1.1,1.2*32
$GPRMC,163254.000,A,2233.2052,N,11413.8083,E,0.0,105.6,040191,,,A*66
$GPGGA,163254.000,2233.2052,N,11413.8083,E,1,08,1.1,49.4,M,14.2,M,,0000*6D
$GPVTG,105.6,T,,M,0.0,N,0.0,K,A*0F
$GPGLL,2233.2052,N,11413.8083,E,163254.00,A,A*6E
$GPGSA,A,3,02,04,05,10,12,15,26,27,,,,,1.6,1.1,1.2*32
$GPRMC,163255.000,A,2233.2052,N,11413.8083,E,0.0,105.6,040191,,,A*67
$GPGGA,163255.000,2233.2052,N,11413.8083,E,1,08,1.1,49.4,M,14.2,M,,0000*6C
$GPVTG,105.6,T,,M,0.0,N,0.0,K,A*0F
$GPGLL,2233.2052,N,11413.8083,E,163255.00,A,A*6F
$GPGSA,A,3,02,04,05,10,12,15,26,27,,,,,1.6,1.1,1.2*32
$GPRMC,163256.000,A,2233.2052,N,11413.8083,E,0.0,105.6,040191,,,A*64
$GPGGA,163256.000,2233.2052,N,11413.8083,E,1,08,1.1,49.4,M,14.2,M,,0000*6F
$GPVTG,105.6,T,,M,0.0,N,0.0,K,A*0F
$GPGLL,2233.2052,N,11413.8083,E,163256.00,A,A*6C
$GPGSA,A,3,02,04,05,10,12,15,26,27,,,,,1.6,1.1,1.2*32
$GPGSV,3,1,10,10,23,046,21,05,49,005,13,02,51,087,12,04,17,111,13*7F
$GPGSV,3,2,10,27,08,176,36,12,07,221,27,26,78,160,38,15,54,208,41*7C
$GPGSV,3,3,10,29,34,307,19,08,14,077,*75
$GPRMC,163257.000,A,2233.2052,N,11413.8083,E,0.0,105.6,040191,,,A*65
$GPGGA,163257.000,2233.2052,N,11413.8083,E,1,08,1.1,49.4,M,14.2,M,,0000*6E
$GPVTG,105.6,T,,M,0.0,N,0.0,K,A*0F
$GPGLL,2233.2052,N,11413.8083,E,163257.00,A,A*6D
$GPGSA,A,3,02,04,05,10,12,15,26,27,,,,,1.6,1.1,1.2*32
$GPRMC,163258.000,A,2233.2052,N,11413.8083,E,0.0,105.6,040191,,,A*6A
$GPGGA,163258.000,2233.2052,N,11413.8083,E,1,08,1.1,49.4,M,14.2,M,,0000*61
$GPVTG,105.6,T,,M,0.0,N,0.0,K,A*0F
$GPGLL,2233.2052,N,11413.8083,E,163258.00,A,A*62
$GPGSA,A,3,02,04,05,10,12,15,26,27,,,,,1.6,1.1,1.2*32
$GPRMC,163259.000,A,2233.2052,N,11413.8083,E,0.0,105.6,040191,,,A*6B
$GPGGA,163259.000,2233.2052,N,11413.8083,E,1,08,1.1,49.4,M,14.2,M,,0000*60
$GPVTG,105.6,T,,M,0.0,N,0.0,K,A*0F
$GPGLL,2233.2052,N,11413.8083,E,163259.00,A,A*63
$GPGSA,A,3,02,04,05,10,12,15,26,27,,,,,1.6,1.1,1.2*32
$GPRMC,163300.000,A,2233.2052,N,11413.8083,E,0.0,105.6,040191,,,A*66
$GPGGA,163300.000,2233.2052,N,11413.8083,E,1,08,1.1,49.4,M,14.2,M,,0000*6D
$GPVTG,105.6,T,,M,0.0,N,0.0,K,A*0F
$GPGLL,2233.2052,N,11413.8083,E,163300.00,A,A*6E
$GPGSA,A,3,02,04,05,10,12,15,26,27,,,,,1.6,1.1,1.2*32
$GPRMC,163301.000,A,2233.2052,N,11413.8083,E,0.0,105.6,040191,,,A*67
$GPGGA,163301.000,2233.2052,N,11413.8083,E,1,06,1.8,49.4,M,14.2,M,,0000*6B
$GPVTG,105.6,T,,M,0.0,N,0.0,K,A*0F
$GPGLL,2233.2052,N,11413.8083,E,163301.00,A,A*6F
$GPGSA,A,3,02,10,12,15,26,27,,,,,,,2.2,1.8,1.3*3C
$GPGSV,3,1,10,10,23,046,22,05,49,005,12,02,51,087,12,04,17,111,12*7C
$GPGSV,3,2,10,27,08,176,36,12,07,221,25,26,78,160,38,15,54,209,42*7C
$GPGSV,3,3,10,29,34,307,,08,14,077,*7D
$GPRMC,163302.000,A,2233.2052,N,11413.8083,E,0.0,105.6,040191,,,A*64
$GPGGA,163302.000,2233.2052,N,11413.8083,E,1,06,1.6,49.4,M,14.2,M,,0000*66
$GPVTG,105.6,T,,M,0.0,N,0.0,K,A*0F
$GPGLL,2233.2052,N,11413.8083,E,163302.00,A,A*6C
$GPGSA,A,3,05,10,12,15,26,27,,,,,,,2.1,1.6,1.3*36
$GPRMC,163303.000,A,2233.2052,N,11413.8083,E,0.0,105.6,040191,,,A*65
$GPGGA,163303.000,2233.2052,N,11413.8083,E,1,06,1.6,49.4,M,14.2,M,,0000*67
$GPVTG,105.6,T,,M,0.0,N,0.0,K,A*0F
$GPGLL,2233.2052,N,11413.8083,E,163303.00,A,A*6D
$GPGSA,A,3,05,10,12,15,26,27,,,,,,,2.1,1.6,1.3*36
$GPRMC,163304.000,A,2233.2052,N,11413.8083,E,0.0,105.6,040191,,,A*62
$GPGGA,163304.000,2233.2052,N,11413.8083,E,1,05,2.0,49.4,M,14.2,M,,0000*66
$GPVTG,105.6,T,,M,0.0,N,0.0,K,A*0F
$GPGLL,2233.2052,N,11413.8083,E,163304.00,A,A*6A
$GPGSA,A,3,10,12,15,26,27,,,,,,,,2.4,2.0,1.3*33
$GPRMC,163305.000,A,2233.2052,N,11413.8083,E,0.0,105.6,040191,,,A*63
$GPGGA,163305.000,2233.2052,N,11413.8083,E,1,05,2.0,49.4,M,14.2,M,,0000*67
$GPVTG,105.6,T,,M,0.0,N,0.0,K,A*0F
$GPGLL,2233.2052,N,11413.8083,E,163305.00,A,A*6B
$GPGSA,A,3,10,12,15,26,27,,,,,,,,2.4,2.0,1.3*33
$GPRMC,163306.000,A,2233.2052,N,11413.8083,E,0.0,105.6,040191,,,A*60
$GPGGA,163306.000,2233.2052,N,11413.8083,E,1,05,2.0,49.4,M,14.2,M,,0000*64
$GPVTG,105.6,T,,M,0.0,N,0.0,K,A*0F
$GPGLL,2233.2052,N,11413.8083,E,163306.00,A,A*68
$GPGSA,A,3,10,12,15,26,27,,,,,,,,2.4,2.0,1.3*33
$GPGSV,3,1,10,10,23,046,20,02,51,087,17,27,08,176,36,12,07,221,27*7D
$GPGSV,3,2,10,26,78,159,38,15,54,209,42,29,34,307,,05,49,005,*79
$GPGSV,3,3,10,04,17,111,,08,14,077,*76
$GPRMC,163307.000,A,2233.2052,N,11413.8083,E,0.0,105.6,040191,,,A*61
$GPGGA,163307.000,2233.2052,N,11413.8083,E,1,06,1.8,49.4,M,14.2,M,,0000*6D
$GPVTG,105.6,T,,M,0.0,N,0.0,K,A*0F
$GPGLL,2233.2052,N,11413.8083,E,163307.00,A,A*69
$GPGSA,A,3,02,10,12,15,26,27,,,,,,,2.2,1.8,1.3*3C
$GPRMC,163308.000,A,2233.2052,N,11413.8083,E,0.0,105.6,040191,,,A*6E
$GPGGA,163308.000,2233.2052,N,11413.8083,E,1,06,1.8,49.4,M,14.2,M,,0000*62
$GPVTG,105.6,T,,M,0.0,N,0.0,K,A*0F
$GPGLL,2233.2052,N,11413.8083,E,163308.00,A,A*66
$GPGSA,A,3,02,10,12,15,26,27,,,,,,,2.2,1.8,1.3*3C
$GPRMC,163309.000,A,2233.2052,N,11413.8083,E,0.0,105.6,040191,,,A*6F
$GPGGA,163309.000,2233.2052,N,11413.8083,E,1,06,1.6,49.4,M,14.2,M,,0000*6D
$GPVTG,105.6,T,,M,0.0,N,0.0,K,A*0F
$GPGLL,2233.2052,N,11413.8083,E,163309.00,A,A*67
$GPGSA,A,3,05,10,12,15,26,27,,,,,,,2.1,1.6,1.3*36
$GPRMC,163310.000,A,2233.2052,N,11413.8083,E,0.0,105.6,040191,,,A*67
$GPGGA,163310.000,2233.2052,N,11413.8083,E,1,07,1.4,49.4,M,14.2,M,,0000*66
$GPVTG,105.6,T,,M,0.0,N,0.0,K,A*0F
$GPGLL,2233.2052,N,11413.8083,E,163310.00,A,A*6F
$GPGSA,A,3,02,05,10,12,15,26,27,,,,,,1.9,1.4,1.3*3D
$GPRMC,163311.000,A,2233.2052,N,11413.8083,E,0.0,105.6,040191,,,A*66
$GPGGA,163311.000,2233.2052,N,11413.8083,E,1,07,1.4,49.4,M,14.2,M,,0000*67
$GPVTG,105.6,T,,M,0.0,N,0.0,K,A*0F
$GPGLL,2233.2052,N,11413.8083,E,163311.00,A,A*6E
$GPGSA,A,3,02,05,10,12,15,26,27,,,,,,1.9,1.4,1.3*3D
$GPGSV,3,1,10,10,23,047,18,05,49,005,14,02,51,087,17,04,17,111,12*77
$GPGSV,3,2,10,27,08,176,36,12,07,221,24,26,78,159,38,15,54,209,42*77
$GPGSV,3,3,10,29,34,307,,08,14,077,*7D
$GPRMC,163312.000,A,2233.2052,N,11413.8083,E,0.0,105.6,040191,,,A*65
$GPGGA,163312.000,2233.2052,N,11413.8083,E,1,07,1.2,49.4,M,14.2,M,,0000*62
$GPVTG,105.6,T,,M,0.0,N,0.0,K,A*0F
$GPGLL,2233.2052,N,11413.8083,E,163312.00,A,A*6D
$GPGSA,A,3,04,05,10,12,15,26,27,,,,,,1.8,1.2,1.3*3C
$GPRMC,163313.000,A,2233.2052,N,11413.8083,E,0.0,105.6,040191,,,A*64
$GPGGA,163313.000,2233.2052,N,11413.8083,E,1,07,1.2,49.4,M,14.2,M,,0000*63
$GPVTG,105.6,T,,M,0.0,N,0.0,K,A*0F
$GPGLL,2233.2052,N,11413.8083,E,163313.00,A,A*6C
$GPGSA,A,3,04,05,10,12,15,26,27,,,,,,1.8,1.2,1.3*3C
$GPRMC,163314.000,A,2233.2052,N,11413.8083,E,0.0,105.6,040191,,,A*63
$GPGGA,163314.000,2233.2052,N,11413.8083,E,1,07,1.2,49.4,M,14.2,M,,0000*64
$GPVTG,105.6,T,,M,0.0,N,0.0,K,A*0F
$GPGLL,2233.2052,N,11413.8083,E,163314.00,A,A*6B
$GPGSA,A,3,04,05,10,12,15,26,27,,,,,,1.8,1.2,1.3*3C
$GPRMC,163315.000,A,2233.2052,N,11413.8083,E,0.0,105.6,040191,,,A*62
$GPGGA,163315.000,2233.2052,N,11413.8083,E,1,07,1.2,49.4,M,14.2,M,,0000*65
$GPVTG,105.6,T,,M,0.0,N,0.0,K,A*0F
$GPGLL,2233.2052,N,11413.8083,E,163315.00,A,A*6A
$GPGSA,A,3,04,05,10,12,15,26,27,,,,,,1.8,1.2,1.3*3C
$GPRMC,163316.000,A,2233.2052,N,11413.8083,E,0.0,105.6,040191,,,A*61
$GPGGA,163316.000,2233.2052,N,11413.8083,E,1,07,1.2,49.4,M,14.2,M,,0000*66
$GPVTG,105.6,T,,M,0.0,N,0.0,K,A*0F
$GPGLL,2233.2052,N,11413.8083,E,163316.00,A,A*69
$GPGSA,A,3,04,05,10,12,15,26,27,,,,,,1.8,1.2,1.3*3C
$GPGSV,3,1,10,10,23,047,18,05,49,005,14,02,50,087,15,04,17,111,11*77
$GPGSV,3,2,10,27,08,176,36,12,07,221,23,26,78,159,38,15,54,209,42*70
$GPGSV,3,3,10,29,35,307,20,08,14,077,*7E
$GPRMC,163317.000,A,2233.2052,N,11413.8083,E,0.0,105.6,040191,,,A*60
$GPGGA,163317.000,2233.2052,N,11413.8083,E,1,08,1.1,49.4,M,14.2,M,,0000*6B
$GPVTG,105.6,T,,M,0.0,N,0.0,K,A*0F
$GPGLL,2233.2052,N,11413.8083,E,163317.00,A,A*68
$GPGSA,A,3,02,04,05,10,12,15,26,27,,,,,1.6,1.1,1.2*32
$GPRMC,163318.000,A,2233.2052,N,11413.8083,E,0.0,105.6,040191,,,A*6F
$GPGGA,163318.000,2233.2052,N,11413.8083,E,1,08,1.1,49.4,M,14.2,M,,0000*64
$GPVTG,105.6,T,,M,0.0,N,0.0,K,A*0F
$GPGLL,2233.2052,N,11413.8083,E,163318.00,A,A*67
$GPGSA,A,3,02,04,05,10,12,15,26,27,,,,,1.6,1.1,1.2*32
$GPRMC,163319.000,A,2233.2052,N,11413.8083,E,0.0,105.6,040191,,,A*6E
$GPGGA,163319.000,2233.2052,N,11413.8083,E,1,07,1.2,49.4,M,14.2,M,,0000*69
$GPVTG,105.6,T,,M,0.0,N,0.0,K,A*0F
$GPGLL,2233.2052,N,11413.8083,E,163319.00,A,A*66
$GPGSA,A,3,04,05,10,12,15,26,27,,,,,,1.8,1.2,1.3*3C
$GPRMC,163320.000,A,2233.2052,N,11413.8083,E,0.0,105.6,040191,,,A*64
$GPGGA,163320.000,2233.2052,N,11413.8083,E,1,07,1.2,49.4,M,14.2,M,,0000*63
$GPVTG,105.6,T,,M,0.0,N,0.0,K,A*0F
$GPGLL,2233.2052,N,11413.8083,E,163320.00,A,A*6C
$GPGSA,A,3,04,05,10,12,15,26,27,,,,,,1.8,1.2,1.3*3C
$GPRMC,163321.000,A,2233.2052,N,11413.8083,E,0.0,105.6,040191,,,A*65
$GPGGA,163321.000,2233.2052,N,11413.8083,E,1,07,1.2,49.4,M,14.2,M,,0000*62
$GPVTG,105.6,T,,M,0.0,N,0.0,K,A*0F
$GPGLL,2233.2052,N,11413.8083,E,163321.00,A,A*6D
$GPGSA,A,3,04,05,10,12,15,26,27,,,,,,1.8,1.2,1.3*3C
$GPGSV,3,1,10,10,23,047,22,05,49,005,15,04,17,111,11,27,08,176,36*7B
$GPGSV,3,2,10,12,06,221,19,26,78,159,38,15,54,209,41,29,35,307,*7A
$GPGSV,3,3,10,02,50,087,,08,14,077,*7D
$GPRMC,163322.000,A,2233.2052,N,11413.8083,E,0.0,105.6,040191,,,A*66
$GPGGA,163322.000,2233.2052,N,11413.8083,E,1,07,1.2,49.4,M,14.2,M,,0000*61
$GPVTG,105.6,T,,M,0.0,N,0.0,K,A*0F
$GPGLL,2233.2052,N,11413.8083,E,163322.00,A,A*6E
$GPGSA,A,3,04,05,10,12,15,26,27,,,,,,1.8,1.2,1.3*3C
$GPRMC,163323.000,A,2233.2052,N,11413.8083,E,0.0,105.6,040191,,,A*67
$GPGGA,163323.000,2233.2052,N,11413.8083,E,1,06,1.6,49.4,M,14.2,M,,0000*65
$GPVTG,105.6,T,,M,0.0,N,0.0,K,A*0F
$GPGLL,2233.2052,N,11413.8083,E,163323.00,A,A*6F
$GPGSA,A,3,05,10,12,15,26,27,,,,,,,2.1,1.6,1.3*36
$GPRMC,163324.000,A,2233.2052,N,11413.8083,E,0.0,105.6,040191,,,A*60
$GPGGA,163324.000,2233.2052,N,11413.8083,E,1,06,1.6,49.4,M,14.2,M,,0000*62
$GPVTG,105.6,T,,M,0.0,N,0.0,K,A*0F
$GPGLL,2233.2052,N,11413.8083,E,163324.00,A,A*68
$GPGSA,A,3,05,10,12,15,26,27,,,,,,,2.1,1.6,1.3*36
$GPRMC,163325.000,A,2233.2052,N,11413.8083,E,0.0,105.6,040191,,,A*61
$GPGGA,163325.000,2233.2052,N,11413.8083,E,1,07,1.4,49.4,M,14.2,M,,0000*60
$GPVTG,105.6,T,,M,0.0,N,0.0,K,A*0F
$GPGLL,2233.2052,N,11413.8083,E,163325.00,A,A*69
$GPGSA,A,3,02,05,10,12,15,26,27,,,,,,1.9,1.4,1.3*3D
$GPRMC,163326.000,A,2233.2052,N,11413.8083,E,0.0,105.6,040191,,,A*62
$GPGGA,163326.000,2233.2052,N,11413.8083,E,1,07,1.4,49.4,M,14.2,M,,0000*63
$GPVTG,105.6,T,,M,0.0,N,0.0,K,A*0F
$GPGLL,2233.2052,N,11413.8083,E,163326.00,A,A*6A
$GPGSA,A,3,02,05,10,12,15,26,27,,,,,,1.9,1.4,1.3*3D
$GPGSV,3,1,10,10,23,047,20,05,49,005,17,02,50,087,13,27,08,176,36*72
$GPGSV,3,2,10,12,06,221,17,26,78,159,37,15,54,209,41,29,35,307,*7B
$GPGSV,3,3,10,04,17,111,,08,14,077,*76
$GPRMC,163327.000,A,2233.2052,N,11413.8083,E,0.0,105.6,040191,,,A*63
$GPGGA,163327.000,2233.2052,N,11413.8083,E,1,06,1.6,49.4,M,14.2,M,,0000*61
$GPVTG,105.6,T,,M,0.0,N,0.0,K,A*0F
$GPGLL,2233.2052,N,11413.8083,E,163327.00,A,A*6B
$GPGSA,A,3,05,10,12,15,26,27,,,,,,,2.1,1.6,1.3*36
$GPRMC,163328.000,A,2233.2052,N,11413.8083,E,0.0,105.6,040191,,,A*6C
$GPGGA,163328.000,2233.2052,N,11413.8083,E,1,06,1.6,49.4,M,14.2,M,,0000*6E
$GPVTG,105.6,T,,M,0.0,N,0.0,K,A*0F
$GPGLL,2233.2052,N,11413.8083,E,163328.00,A,A*64
$GPGSA,A,3,05,10,12,15,26,27,,,,,,,2.1,1.6,1.3*36
$GPRMC,163329.000,A,2233.2052,N,11413.8083,E,0.0,105.6,040191,,,A*6D
$GPGGA,163329.000,2233.2052,N,11413.8083,E,1,06,1.6,49.4,M,14.2,M,,0000*6F
$GPVTG,105.6,T,,M,0.0,N,0.0,K,A*0F
$GPGLL,2233.2052,N,11413.8083,E,163329.00,A,A*65
$GPGSA,A,3,05,10,12,15,26,27,,,,,,,2.1,1.6,1.3*36
$GPRMC,163330.000,A,2233.2052,N,11413.8083,E,0.0,105.6,040191,,,A*65
$GPGGA,163330.000,2233.2052,N,11413.8083,E,1,06,1.6,49.4,M,14.2,M,,0000*67
$GPVTG,105.6,T,,M,0.0,N,0.0,K,A*0F
$GPGLL,2233.2052,N,11413.8083,E,163330.00,A,A*6D
$GPGSA,A,3,05,10,12,15,26,27,,,,,,,2.1,1.6,1.3*36
$GPRMC,163331.000,A,2233.2052,N,11413.8083,E,0.0,105.6,040191,,,A*64
$GPGGA,163331.000,2233.2052,N,11413.8083,E,1,06,1.6,49.4,M,14.2,M,,0000*66
$GPVTG,105.6,T,,M,0.0,N,0.0,K,A*0F
$GPGLL,2233.2052,N,11413.8083,E,163331.00,A,A*6C
$GPGSA,A,3,05,10,12,15,26,27,,,,,,,2.1,1.6,1.3*36
$GPGSV,3,1,10,10,23,047,18,05,49,005,16,27,08,176,36,12,06,221,19*7E
$GPGSV,3,2,10,26,78,159,37,15,54,209,42,02,50,087,,29,35,307,*72
$GPGSV,3,3,10,04,17,111,,08,14,077,*76
$GPRMC,163332.000,A,2233.2052,N,11413.8083,E,0.0,105.6,040191,,,A*67
$GPGGA,163332.000,2233.2052,N,11413.8083,E,1,06,1.6,49.4,M,14.2,M,,0000*65
$GPVTG,105.6,T,,M,0.0,N,0.0,K,A*0F
$GPGLL,2233.2052,N,11413.8083,E,163332.00,A,A*6F
$GPGSA,A,3,05,10,12,15,26,27,,,,,,,2.1,1.6,1.3*36
$GPRMC,163333.000,A,2233.2052,N,11413.8083,E,0.0,105.6,040191,,,A*66
$GPGGA,163333.000,2233.2052,N,11413.8083,E,1,06,1.6,49.4,M,14.2,M,,0000*64
$GPVTG,105.6,T,,M,0.0,N,0.0,K,A*0F
$GPGLL,2233.2052,N,11413.8083,E,163333.00,A,A*6E
$GPGSA,A,3,05,10,12,15,26,27,,,,,,,2.1,1.6,1.3*36
$GPRMC,163334.000,A,2233.2052,N,11413.8083,E,0.0,105.6,040191,,,A*61
$GPGGA,163334.000,2233.2052,N,11413.8083,E,1,06,1.6,49.4,M,14.2,M,,0000*63
$GPVTG,105.6,T,,M,0.0,N,0.0,K,A*0F
$GPGLL,2233.2052,N,11413.8083,E,163334.00,A,A*69
$GPGSA,A,3,05,10,12,15,26,27,,,,,,,2.1,1.6,1.3*36
$GPRMC,163335.000,A,2233.2052,N,11413.8083,E,0.0,105.6,040191,,,A*60
$GPGGA,163335.000,2233.2052,N,11413.8083,E,1,06,1.6,49.4,M,14.2,M,,0000*62
$GPVTG,105.6,T,,M,0.0,N,0.0,K,A*0F
$GPGLL,2233.2052,N,11413.8083,E,163335.00,A,A*68
$GPGSA,A,3,05,10,12,15,26,27,,,,,,,2.1,1.6,1.3*36
$GPRMC,163336.000,A,2233.2052,N,11413.8083,E,0.0,105.6,040191,,,A*63
$GPGGA,163336.000,2233.2052,N,11413.8083,E,1,06,1.6,49.4,M,14.2,M,,0000*61
$GPVTG,105.6,T,,M,0.0,N,0.0,K,A*0F
$GPGLL,2233.2052,N,11413.8083,E,163336.00,A,A*6B
$GPGSA,A,3,05,10,12,15,26,27,,,,,,,2.1,1.6,1.3*36
$GPGSV,3,1,10,10,23,047,16,05,49,005,16,27,08,176,35,12,06,221,25*7C
$GPGSV,3,2,10,26,78,159,37,15,54,209,42,29,35,307,20,02,50,087,*70
$GPGSV,3,3,10,04,17,111,,08,14,077,*76
$GPRMC,163337.000,A,2233.2052,N,11413.8083,E,0.0,105.6,040191,,,A*62
$GPGGA,163337.000,2233.2052,N,11413.8083,E,1,06,1.6,49.4,M,14.2,M,,0000*60
$GPVTG,105.6,T,,M,0.0,N,0.0,K,A*0F
$GPGLL,2233.2052,N,11413.8083,E,163337.00,A,A*6A
$GPGSA,A,3,05,10,12,15,26,27,,,,,,,2.1,1.6,1.3*36
$GPRMC,163338.000,A,2233.2052,N,11413.8083,E,0.0,105.6,040191,,,A*6D
$GPGGA,163338.000,2233.2052,N,11413.8083,E,1,06,1.6,49.4,M,14.2,M,,0000*6F
$GPVTG,105.6,T,,M,0.0,N,0.0,K,A*0F
$GPGLL,2233.2052,N,11413.8083,E,163338.00,A,A*65
$GPGSA,A,3,05,10,12,15,26,27,,,,,,,2.1,1.6,1.3*36
$GPRMC,163339.000,A,2233.2052,N,11413.8083,E,0.0,105.6,040191,,,A*6C
$GPGGA,163339.000,2233.2052,N,11413.8083,E,1,06,1.6,49.4,M,14.2,M,,0000*6E
$GPVTG,105.6,T,,M,0.0,N,0.0,K,A*0F
$GPGLL,2233.2052,N,11413.8083,E,163339.00,A,A*64
$GPGSA,A,3,05,10,12,15,26,27,,,,,,,2.1,1.6,1.3*36
$GPRMC,163340.000,A,2233.2052,N,11413.8083,E,0.0,105.6,040191,,,A*62
$GPGGA,163340.000,2233.2052,N,11413.8083,E,1,06,1.6,49.4,M,14.2,M,,0000*60
$GPVTG,105.6,T,,M,0.0,N,0.0,K,A*0F
$GPGLL,2233.2052,N,11413.8083,E,163340.00,A,A*6A
$GPGSA,A,3,05,10,12,15,26,27,,,,,,,2.1,1.6,1.3*36
$GPRMC,163341.000,A,2233.2052,N,11413.8083,E,0.0,105.6,040191,,,A*63
$GPGGA,163341.000,2233.2052,N,11413.8083,E,1,06,1.6,49.4,M,14.2,M,,0000*61
$GPVTG,105.6,T,,M,0.0,N,0.0,K,A*0F
$GPGLL,2233.2052,N,11413.8083,E,163341.00,A,A*6B
$GPGSA,A,3,05,10,12,15,26,27,,,,,,,2.1,1.6,1.3*36
$GPGSV,3,1,10,10,23,047,16,05,49,005,16,27,08,176,36,12,06,221,25*7F
$GPGSV,3,2,10,26,79,159,36,15,54,209,42,02,50,087,,29,35,307,*72
$GPGSV,3,3,10,04,16,111,,08,14,077,*77
$GPRMC,163342.000,A,2233.2052,N,11413.8083,E,0.0,105.6,040191,,,A*60
$GPGGA,163342.000,2233.2052,N,11413.8083,E,1,06,1.6,49.4,M,14.2,M,,0000*62
$GPVTG,105.6,T,,M,0.0,N,0.0,K,A*0F
$GPGLL,2233.2052,N,11413.8083,E,163342.00,A,A*68
$GPGSA,A,3,05,10,12,15,26,27,,,,,,,2.1,1.6,1.3*36
$GPRMC,163343.000,A,2233.2052,N,11413.8083,E,0.0,105.6,040191,,,A*61
$GPGGA,163343.000,2233.2052,N,11413.8083,E,1,06,1.6,49.4,M,14.2,M,,0000*63
$GPVTG,105.6,T,,M,0.0,N,0.0,K,A*0F
$GPGLL,2233.2052,N,11413.8083,E,163343.00,A,A*69
$GPGSA,A,3,05,10,12,15,26,27,,,,,,,2.1,1.6,1.3*36
$GPRMC,163344.000,A,2233.2052,N,11413.8083,E,0.0,105.6,040191,,,A*66
$GPGGA,163344.000,2233.2052,N,11413.8083,E,1,06,1.6,49.4,M,14.2,M,,0000*64
$GPVTG,105.6,T,,M,0.0,N,0.0,K,A*0F
$GPGLL,2233.2052,N,11413.8083,E,163344.00,A,A*6E
$GPGSA,A,3,05,10,12,15,26,27,,,,,,,2.1,1.6,1.3*36
$GPRMC,163345.000,A,2233.2052,N,11413.8083,E,0.0,105.6,040191,,,A*67
$GPGGA,163345.000,2233.2052,N,11413.8083,E,1,06,1.6,49.4,M,14.2,M,,0000*65
$GPVTG,105.6,T,,M,0.0,N,0.0,K,A*0F
$GPGLL,2233.2052,N,11413.8083,E,163345.00,A,A*6F
$GPGSA,A,3,05,10,12,15,26,27,,,,,,,2.1,1.6,1.3*36
$GPRMC,163346.000,A,2233.2052,N,11413.8083,E,0.0,105.6,040191,,,A*64
$GPGGA,163346.000,2233.2052,N,11413.8083,E,1,06,1.6,49.4,M,14.2,M,,0000*66
$GPVTG,105.6,T,,M,0.0,N,0.0,K,A*0F
$GPGLL,2233.2052,N,11413.8083,E,163346.00,A,A*6C
$GPGSA,A,3,05,10,12,15,26,27,,,,,,,2.1,1.6,1.3*36
$GPGSV,3,1,10,10,23,047,21,05,49,005,16,27,08,176,36,12,06,221,24*7A
$GPGSV,3,2,10,26,79,159,36,15,54,209,42,29,35,307,,02,50,087,*72
$GPGSV,3,3,10,04,16,111,,08,14,077,*77
$GPRMC,163347.000,A,2233.2052,N,11413.8083,E,0.0,105.6,040191,,,A*65
$GPGGA,163347.000,2233.2052,N,11413.8083,E,1,06,1.6,49.4,M,14.2,M,,0000*67
$GPVTG,105.6,T,,M,0.0,N,0.0,K,A*0F
$GPGLL,2233.2052,N,11413.8083,E,163347.00,A,A*6D
$GPGSA,A,3,05,10,12,15,26,27,,,,,,,2.1,1.6,1.3*36
$GPRMC,163348.000,A,2233.2052,N,11413.8083,E,0.0,105.6,040191,,,A*6A
$GPGGA,163348.000,2233.2052,N,11413.8083,E,1,06,1.6,49.4,M,14.2,M,,0000*68
$GPVTG,105.6,T,,M,0.0,N,0.0,K,A*0F
$GPGLL,2233.2052,N,11413.8083,E,163348.00,A,A*62
$GPGSA,A,3,05,10,12,15,26,27,,,,,,,2.1,1.6,1.3*36
$GPRMC,163349.000,A,2233.2052,N,11413.8083,E,0.0,105.6,040191,,,A*6B
$GPGGA,163349.000,2233.2052,N,11413.8083,E,1,06,1.6,49.4,M,14.2,M,,0000*69
$GPVTG,105.6,T,,M,0.0,N,0.0,K,A*0F
$GPGLL,2233.2052,N,11413.8083,E,163349.00,A,A*63
$GPGSA,A,3,05,10,12,15,26,27,,,,,,,2.1,1.6,1.3*36
$GPRMC,163350.000,A,2233.2052,N,11413.8083,E,0.0,105.6,040191,,,A*63
$GPGGA,163350.000,2233.2052,N,11413.8083,E,1,06,1.6,49.4,M,14.2,M,,0000*61
$GPVTG,105.6,T,,M,0.0,N,0.0,K,A*0F
$GPGLL,2233.2052,N,11413.8083,E,163350.00,A,A*6B
$GPGSA,A,3,05,10,12,15,26,27,,,,,,,2.1,1.6,1.3*36
$GPRMC,163351.000,A,2233.2052,N,11413.8083,E,0.0,105.6,040191,,,A*62
$GPGGA,163351.000,2233.2052,N,11413.8083,E,1,06,1.6,49.4,M,14.2,M,,0000*60
$GPVTG,105.6,T,,M,0.0,N,0.0,K,A*0F
$GPGLL,2233.2052,N,11413.8083,E,163351.00,A,A*6A
$GPGSA,A,3,05,10,12,15,26,27,,,,,,,2.1,1.6,1.3*36
$GPGSV,3,1,10,10,23,047,23,05,49,006,15,27,08,176,36,12,06,221,23*7F
$GPGSV,3,2,10,26,79,159,35,15,54,209,42,02,50,088,,29,35,307,*7E
$GPGSV,3,3,10,04,16,111,,08,14,076,*76
$GPRMC,163352.000,A,2233.2052,N,11413.8083,E,0.0,105.6,040191,,,A*61
$GPGGA,163352.000,2233.2052,N,11413.8083,E,1,06,1.6,49.4,M,14.2,M,,0000*63
$GPVTG,105.6,T,,M,0.0,N,0.0,K,A*0F
$GPGLL,2233.2052,N,11413.8083,E,163352.00,A,A*69
$GPGSA,A,3,05,10,12,15,26,27,,,,,,,2.1,1.6,1.3*36
$GPRMC,163353.000,A,2233.2052,N,11413.8083,E,0.0,105.6,040191,,,A*60
$GPGGA,163353.000,2233.2052,N,11413.8083,E,1,06,1.6,49.4,M,14.2,M,,0000*62
$GPVTG,105.6,T,,M,0.0,N,0.0,K,A*0F
$GPGLL,2233.2052,N,11413.8083,E,163353.00,A,A*68
$GPGSA,A,3,05,10,12,15,26,27,,,,,,,2.1,1.6,1.3*36
$GPRMC,163354.000,A,2233.2052,N,11413.8083,E,0.0,105.6,040191,,,A*67
$GPGGA,163354.000,2233.2052,N,11413.8083,E,1,06,1.6,49.4,M,14.2,M,,0000*65
$GPVTG,105.6,T,,M,0.0,N,0.0,K,A*0F
$GPGLL,2233.2052,N,11413.8083,E,163354.00,A,A*6F
$GPGSA,A,3,05,10,12,15,26,27,,,,,,,2.1,1.6,1.3*36
$GPRMC,163355.000,A,2233.2052,N,11413.8083,E,0.0,105.6,040191,,,A*66
$GPGGA,163355.000,2233.2052,N,11413.8083,E,1,06,1.6,49.4,M,14.2,M,,0000*64
$GPVTG,105.6,T,,M,0.0,N,0.0,K,A*0F
$GPGLL,2233.2052,N,11413.8083,E,163355.00,A,A*6E
$GPGSA,A,3,05,10,12,15,26,27,,,,,,,2.1,1.6,1.3*36
$GPRMC,163356.000,A,2233.2052,N,11413.8083,E,0.0,105.6,040191,,,A*65
$GPGGA,163356.000,2233.2052,N,11413.8083,E,1,06,1.6,49.4,M,14.2,M,,0000*67
$GPVTG,105.6,T,,M,0.0,N,0.0,K,A*0F
$GPGLL,2233.2052,N,11413.8083,E,163356.00,A,A*6D
$GPGSA,A,3,05,10,12,15,26,27,,,,,,,2.1,1.6,1.3*36
$GPGSV,3,1,10,10,23,047,20,05,49,006,14,27,08,176,36,12,06,221,21*7F
$GPGSV,3,2,10,26,79,158,35,15,54,209,41,02,50,088,,29,35,307,*7C
$GPGSV,3,3,10,04,16,112,,08,14,076,*75
$GPRMC,163357.000,A,2233.2052,N,11413.8083,E,0.0,105.6,040191,,,A*64
$GPGGA,163357.000,2233.2052,N,11413.8083,E,1,06,1.6,49.4,M,14.2,M,,0000*66
$GPVTG,105.6,T,,M,0.0,N,0.0,K,A*0F
$GPGLL,2233.2052,N,11413.8083,E,163357.00,A,A*6C
$GPGSA,A,3,05,10,12,15,26,27,,,,,,,2.1,1.6,1.3*36
$GPRMC,163358.000,A,2233.2052,N,11413.8083,E,0.0,105.6,040191,,,A*6B
$GPGGA,163358.000,2233.2052,N,11413.8083,E,1,06,1.6,49.4,M,14.2,M,,0000*69
$GPVTG,105.6,T,,M,0.0,N,0.0,K,A*0F
$GPGLL,2233.2052,N,11413.8083,E,163358.00,A,A*63
$GPGSA,A,3,05,10,12,15,26,27,,,,,,,2.1,1.6,1.3*36
$GPRMC,163359.000,A,2233.2052,N,11413.8083,E,0.0,105.6,040191,,,A*6A
$GPGGA,163359.000,2233.2052,N,11413.8083,E,1,06,1.6,49.4,M,14.2,M,,0000*68
$GPVTG,105.6,T,,M,0.0,N,0.0,K,A*0F
$GPGLL,2233.2052,N,11413.8083,E,163359.00,A,A*62
$GPGSA,A,3,05,10,12,15,26,27,,,,,,,2.1,1.6,1.3*36
$GPRMC,163400.000,A,2233.2052,N,11413.8083,E,0.0,105.6,040191,,,A*61
$GPGGA,163400.000,2233.2052,N,11413.8083,E,1,06,1.6,49.4,M,14.2,M,,0000*63
$GPVTG,105.6,T,,M,0.0,N,0.0,K,A*0F
$GPGLL,2233.2052,N,11413.8083,E,163400.00,A,A*69
$GPGSA,A,3,05,10,12,15,26,27,,,,,,,2.1,1.6,1.3*36
$GPRMC,163401.000,A,2233.2052,N,11413.8083,E,0.0,105.6,040191,,,A*60
$GPGGA,163401.000,2233.2052,N,11413.8083,E,1,06,1.6,49.4,M,14.2,M,,0000*62
$GPVTG,105.6,T,,M,0.0,N,0.0,K,A*0F
$GPGLL,2233.2052,N,11413.8083,E,163401.00,A,A*68
$GPGSA,A,3,05,10,12,15,26,27,,,,,,,2.1,1.6,1.3*36
$GPGSV,3,1,10,10,23,047,19,05,49,006,12,27,08,176,36,12,06,221,17*76
$GPGSV,3,2,10,26,79,158,35,15,55,209,41,02,50,088,,29,35,307,*7D
$GPGSV,3,3,10,04,16,112,,08,14,076,*75
$GPRMC,163402.000,A,2233.2052,N,11413.8083,E,0.0,105.6,040191,,,A*63
$GPGGA,163402.000,2233.2052,N,11413.8083,E,1,06,1.6,49.4,M,14.2,M,,0000*61
$GPVTG,105.6,T,,M,0.0,N,0.0,K,A*0F
$GPGLL,2233.2052,N,11413.8083,E,163402.00,A,A*6B
$GPGSA,A,3,05,10,12,15,26,27,,,,,,,2.1,1.6,1.3*36
$GPRMC,163403.000,A,2233.2052,N,11413.8083,E,0.0,105.6,040191,,,A*62
$GPGGA,163403.000,2233.2052,N,11413.8083,E,1,05,2.0,49.4,M,14.2,M,,0000*66
$GPVTG,105.6,T,,M,0.0,N,0.0,K,A*0F
$GPGLL,2233.2052,N,11413.8083,E,163403.00,A,A*6A
$GPGSA,A,3,10,12,15,26,27,,,,,,,,2.4,2.0,1.3*33
$GPRMC,163404.000,A,2233.2052,N,11413.8083,E,0.0,105.6,040191,,,A*65
$GPGGA,163404.000,2233.2052,N,11413.8083,E,1,05,2.0,49.4,M,14.2,M,,0000*61
$GPVTG,105.6,T,,M,0.0,N,0.0,K,A*0F
$GPGLL,2233.2052,N,11413.8083,E,163404.00,A,A*6D
$GPGSA,A,3,10,12,15,26,27,,,,,,,,2.4,2.0,1.3*33
$GPRMC,163405.000,A,2233.2052,N,11413.8083,E,0.0,105.6,040191,,,A*64
$GPGGA,163405.000,2233.2052,N,11413.8083,E,1,05,2.0,49.4,M,14.2,M,,0000*60
$GPVTG,105.6,T,,M,0.0,N,0.0,K,A*0F
$GPGLL,2233.2052,N,11413.8083,E,163405.00,A,A*6C
$GPGSA,A,3,10,12,15,26,27,,,,,,,,2.4,2.0,1.3*33
$GPRMC,163406.000,A,2233.2052,N,11413.8083,E,0.0,105.6,040191,,,A*67
$GPGGA,163406.000,2233.2052,N,11413.8083,E,1,05,2.0,49.4,M,14.2,M,,0000*63
$GPVTG,105.6,T,,M,0.0,N,0.0,K,A*0F
$GPGLL,2233.2052,N,11413.8083,E,163406.00,A,A*6F
$GPGSA,A,3,10,12,15,26,27,,,,,,,,2.4,2.0,1.3*33
$GPGSV,3,1,10,10,23,047,17,27,08,176,36,12,06,221,19,26,79,158,33*7D
$GPGSV,3,2,10,15,55,209,41,02,50,088,,05,49,006,,29,35,307,*73
$GPGSV,3,3,10,04,16,112,,08,14,076,*75
$GPRMC,163407.000,A,2233.2052,N,11413.8083,E,0.0,105.6,040191,,,A*66
$GPGGA,163407.000,2233.2052,N,11413.8083,E,1,05,2.0,49.4,M,14.2,M,,0000*62
$GPVTG,105.6,T,,M,0.0,N,0.0,K,A*0F
$GPGLL,2233.2052,N,11413.8083,E,163407.00,A,A*6E
$GPGSA,A,3,10,12,15,26,27,,,,,,,,2.4,2.0,1.3*33
$GPRMC,163408.000,A,2233.2052,N,11413.8083,E,0.0,105.6,040191,,,A*69
$GPGGA,163408.000,2233.2052,N,11413.8083,E,1,05,2.0,49.4,M,14.2,M,,0000*6D
$GPVTG,105.6,T,,M,0.0,N,0.0,K,A*0F
$GPGLL,2233.2052,N,11413.8083,E,163408.00,A,A*61
$GPGSA,A,3,10,12,15,26,27,,,,,,,,2.4,2.0,1.3*33
$GPRMC,163409.000,A,2233.2052,N,11413.8083,E,0.0,105.6,040191,,,A*68
$GPGGA,163409.000,2233.2052,N,11413.8083,E,1,05,2.0,49.4,M,14.2,M,,0000*6C
$GPVTG,105.6,T,,M,0.0,N,0.0,K,A*0F
$GPGLL,2233.2052,N,11413.8083,E,163409.00,A,A*60
$GPGSA,A,3,10,12,15,26,27,,,,,,,,2.4,2.0,1.3*33
$GPRMC,163410.000,A,2233.2052,N,11413.8083,E,0.0,105.6,040191,,,A*60
$GPGGA,163410.000,2233.2052,N,11413.8083,E,1,05,2.0,49.4,M,14.2,M,,0000*64
$GPVTG,105.6,T,,M,0.0,N,0.0,K,A*0F
$GPGLL,2233.2052,N,11413.8083,E,163410.00,A,A*68
$GPGSA,A,3,10,12,15,26,27,,,,,,,,2.4,2.0,1.3*33
$GPRMC,163411.000,A,2233.2052,N,11413.8083,E,0.0,105.6,040191,,,A*61
$GPGGA,163411.000,2233.2052,N,11413.8083,E,1,05,2.0,49.4,M,14.2,M,,0000*65
$GPVTG,105.6,T,,M,0.0,N,0.0,K,A*0F
$GPGLL,2233.2052,N,11413.8083,E,163411.00,A,A*69
$GPGSA,A,3,10,12,15,26,27,,,,,,,,2.4,2.0,1.3*33
$GPGSV,3,1,10,10,23,047,16,27,08,176,36,12,06,221,24,26,79,158,33*72
$GPGSV,3,2,10,15,55,209,41,02,50,088,,05,49,006,,29,35,307,*73
$GPGSV,3,3,10,04,16,112,,08,14,076,*75
$GPRMC,163412.000,A,2233.2052,N,11413.8083,E,0.0,105.6,040191,,,A*62
$GPGGA,163412.000,2233.2052,N,11413.8083,E,1,05,2.0,49.4,M,14.2,M,,0000*66
$GPVTG,105.6,T,,M,0.0,N,0.0,K,A*0F
$GPGLL,2233.2052,N,11413.8083,E,163412.00,A,A*6A
$GPGSA,A,3,10,12,15,26,27,,,,,,,,2.4,2.0,1.3*33
$GPRMC,163413.000,A,2233.2052,N,11413.8083,E,0.0,105.6,040191,,,A*63
$GPGGA,163413.000,2233.2052,N,11413.8083,E,1,05,2.0,49.4,M,14.2,M,,0000*67
$GPVTG,105.6,T,,M,0.0,N,0.0,K,A*0F
$GPGLL,2233.2052,N,11413.8083,E,163413.00,A,A*6B
$GPGSA,A,3,10,12,15,26,27,,,,,,,,2.4,2.0,1.3*33
$GPRMC,163414.000,A,2233.2052,N,11413.8083,E,0.0,105.6,040191,,,A*64
$GPGGA,163414.000,2233.2052,N,11413.8083,E,1,05,2.0,49.4,M,14.2,M,,0000*60
$GPVTG,105.6,T,,M,0.0,N,0.0,K,A*0F
$GPGLL,2233.2052,N,11413.8083,E,163414.00,A,A*6C
$GPGSA,A,3,10,12,15,26,27,,,,,,,,2.4,2.0,1.3*33
$GPRMC,163415.000,A,2233.2052,N,11413.8083,E,0.0,105.6,040191,,,A*65
$GPGGA,163415.000,2233.2052,N,11413.8083,E,1,05,2.0,49.4,M,14.2,M,,0000*61
$GPVTG,105.6,T,,M,0.0,N,0.0,K,A*0F
$GPGLL,2233.2052,N,11413.8083,E,163415.00,A,A*6D
$GPGSA,A,3,10,12,15,26,27,,,,,,,,2.4,2.0,1.3*33
$GPRMC,163416.000,A,2233.2052,N,11413.8083,E,0.0,105.6,040191,,,A*66
$GPGGA,163416.000,2233.2052,N,11413.8083,E,1,05,2.0,49.4,M,14.2,M,,0000*62
$GPVTG,105.6,T,,M,0.0,N,0.0,K,A*0F
$GPGLL,2233.2052,N,11413.8083,E,163416.00,A,A*6E
$GPGSA,A,3,10,12,15,26,27,,,,,,,,2.4,2.0,1.3*33
$GPGSV,3,1,10,10,23,047,21,05,49,006,12,27,08,176,36,12,06,221,26*7F
$GPGSV,3,2,10,26,79,158,33,15,55,209,41,02,50,088,,29,35,307,*7B
$GPGSV,3,3,10,04,16,112,,08,14,076,*75
$GPRMC,163417.000,A,2233.2052,N,11413.8083,E,0.0,105.6,040191,,,A*67
$GPGGA,163417.000,2233.2052,N,11413.8083,E,1,06,1.6,49.4,M,14.2,M,,0000*65
$GPVTG,105.6,T,,M,0.0,N,0.0,K,A*0F
$GPGLL,2233.2052,N,11413.8083,E,163417.00,A,A*6F
$GPGSA,A,3,05,10,12,15,26,27,,,,,,,2.1,1.6,1.3*36
$GPRMC,163418.000,A,2233.2052,N,11413.8083,E,0.0,105.6,040191,,,A*68
$GPGGA,163418.000,2233.2052,N,11413.8083,E,1,06,1.6,49.4,M,14.2,M,,0000*6A
$GPVTG,105.6,T,,M,0.0,N,0.0,K,A*0F
$GPGLL,2233.2052,N,11413.8083,E,163418.00,A,A*60
$GPGSA,A,3,05,10,12,15,26,27,,,,,,,2.1,1.6,1.3*36
$GPRMC,163419.000,A,2233.2052,N,11413.8083,E,0.0,105.6,040191,,,A*69
$GPGGA,163419.000,2233.2052,N,11413.8083,E,1,06,1.6,49.4,M,14.2,M,,0000*6B
$GPVTG,105.6,T,,M,0.0,N,0.0,K,A*0F
$GPGLL,2233.2052,N,11413.8083,E,163419.00,A,A*61
$GPGSA,A,3,05,10,12,15,26,27,,,,,,,2.1,1.6,1.3*36
$GPRMC,163420.000,A,2233.2052,N,11413.8083,E,0.0,105.6,040191,,,A*63
$GPGGA,163420.000,2233.2052,N,11413.8083,E,1,06,1.6,49.4,M,14.2,M,,0000*61
$GPVTG,105.6,T,,M,0.0,N,0.0,K,A*0F
$GPGLL,2233.2052,N,11413.8083,E,163420.00,A,A*6B
$GPGSA,A,3,05,10,12,15,26,27,,,,,,,2.1,1.6,1.3*36
$GPRMC,163421.000,A,2233.2052,N,11413.8083,E,0.0,105.6,040191,,,A*62
$GPGGA,163421.000,2233.2052,N,11413.8083,E,1,06,1.6,49.4,M,14.2,M,,0000*60
$GPVTG,105.6,T,,M,0.0,N,0.0,K,A*0F
$GPGLL,2233.2052,N,11413.8083,E,163421.00,A,A*6A
$GPGSA,A,3,05,10,12,15,26,27,,,,,,,2.1,1.6,1.3*36
$GPGSV,3,1,10,10,23,047,23,05,49,006,12,27,08,176,36,12,06,221,25*7E
$GPGSV,3,2,10,26,79,158,35,15,55,209,41,29,35,307,,02,50,088,*7D
$GPGSV,3,3,10,04,16,112,,08,14,076,*75
$GPRMC,163422.000,A,2233.2052,N,11413.8083,E,0.0,105.6,040191,,,A*61
$GPGGA,163422.000,2233.2052,N,11413.8083,E,1,06,1.6,49.4,M,14.2,M,,0000*63
$GPVTG,105.6,T,,M,0.0,N,0.0,K,A*0F
$GPGLL,2233.2052,N,11413.8083,E,163422.00,A,A*69
$GPGSA,A,3,05,10,12,15,26,27,,,,,,,2.1,1.6,1.3*36
$GPRMC,163423.000,A,2233.2052,N,11413.8083,E,0.0,105.6,040191,,,A*60
$GPGGA,163423.000,2233.2052,N,11413.8083,E,1,06,1.6,49.4,M,14.2,M,,0000*62
$GPVTG,105.6,T,,M,0.0,N,0.0,K,A*0F
$GPGLL,2233.2052,N,11413.8083,E,163423.00,A,A*68
$GPGSA,A,3,05,10,12,15,26,27,,,,,,,2.1,1.6,1.3*36
$GPRMC,163424.000,A,2233.2052,N,11413.8083,E,0.0,105.6,040191,,,A*67
$GPGGA,163424.000,2233.2052,N,11413.8083,E,1,06,1.6,49.4,M,14.2,M,,0000*65
$GPVTG,105.6,T,,M,0.0,N,0.0,K,A*0F
$GPGLL,2233.2052,N,11413.8083,E,163424.00,A,A*6F
$GPGSA,A,3,05,10,12,15,26,27,,,,,,,2.1,1.6,1.3*36
$GPRMC,163425.000,A,2233.2052,N,11413.8083,E,0.0,105.6,040191,,,A*66
$GPGGA,163425.000,2233.2052,N,11413.8083,E,1,06,1.6,49.4,M,14.2,M,,0000*64
$GPVTG,105.6,T,,M,0.0,N,0.0,K,A*0F
$GPGLL,2233.2052,N,11413.8083,E,163425.00,A,A*6E
$GPGSA,A,3,05,10,12,15,26,27,,,,,,,2.1,1.6,1.3*36
$GPRMC,163426.000,A,2233.2052,N,11413.8083,E,0.0,105.6,040191,,,A*65
$GPGGA,163426.000,2233.2052,N,11413.8083,E,1,06,1.6,49.4,M,14.2,M,,0000*67
$GPVTG,105.6,T,,M,0.0,N,0.0,K,A*0F
$GPGLL,2233.2052,N,11413.8083,E,163426.00,A,A*6D
$GPGSA,A,3,05,10,12,15,26,27,,,,,,,2.1,1.6,1.3*36
$GPGSV,3,1,10,10,23,047,23,05,49,006,13,27,08,176,35,12,06,221,24*7D
$GPGSV,3,2,10,26,79,158,35,15,55,209,41,29,35,306,19,02,50,088,*74
$GPGSV,3,3,10,04,16,112,,08,14,076,*75
$GPRMC,163427.000,A,2233.2052,N,11413.8083,E,0.0,105.6,040191,,,A*64
$GPGGA,163427.000,2233.2052,N,11413.8083,E,1,06,1.6,49.4,M,14.2,M,,0000*66
$GPVTG,105.6,T,,M,0.0,N,0.0,K,A*0F
$GPGLL,2233.2052,N,11413.8083,E,163427.00,A,A*6C
$GPGSA,A,3,05,10,12,15,26,27,,,,,,,2.1,1.6,1.3*36
$GPRMC,163428.000,A,2233.2052,N,11413.8083,E,0.0,105.6,040191,,,A*6B
$GPGGA,163428.000,2233.2052,N,11413.8083,E,1,06,1.6,49.4,M,14.2,M,,0000*69
$GPVTG,105.6,T,,M,0.0,N,0.0,K,A*0F
$GPGLL,2233.2052,N,11413.8083,E,163428.00,A,A*63
$GPGSA,A,3,05,10,12,15,26,27,,,,,,,2.1,1.6,1.3*36
$GPRMC,163429.000,A,2233.2052,N,11413.8083,E,0.0,105.6,040191,,,A*6A
$GPGGA,163429.000,2233.2052,N,11413.8083,E,1,07,1.4,49.4,M,14.2,M,,0000*6B
$GPVTG,105.6,T,,M,0.0,N,0.0,K,A*0F
$GPGLL,2233.2052,N,11413.8083,E,163429.00,A,A*62
$GPGSA,A,3,02,05,10,12,15,26,27,,,,,,1.9,1.4,1.3*3D
$GPRMC,163430.000,A,2233.2052,N,11413.8083,E,0.0,105.6,040191,,,A*62
$GPGGA,163430.000,2233.2052,N,11413.8083,E,1,06,1.6,49.4,M,14.2,M,,0000*60
$GPVTG,105.6,T,,M,0.0,N,0.0,K,A*0F
$GPGLL,2233.2052,N,11413.8083,E,163430.00,A,A*6A
$GPGSA,A,3,05,10,12,15,26,27,,,,,,,2.1,1.6,1.3*36
$GPRMC,163431.000,A,2233.2052,N,11413.8083,E,0.0,105.6,040191,,,A*63
$GPGGA,163431.000,2233.2052,N,11413.8083,E,1,07,1.4,49.4,M,14.2,M,,0000*62
$GPVTG,105.6,T,,M,0.0,N,0.0,K,A*0F
$GPGLL,2233.2052,N,11413.8083,E,163431.00,A,A*6B
$GPGSA,A,3,02,05,10,12,15,26,27,,,,,,1.9,1.4,1.3*3D
$GPGSV,3,1,10,10,23,047,22,05,49,006,14,02,50,088,13,27,08,176,36*7F
$GPGSV,3,2,10,12,06,221,25,26,79,158,35,15,55,209,42,29,35,306,18*72
$GPGSV,3,3,10,04,16,112,,08,14,076,*75
$GPRMC,163432.000,A,2233.2052,N,11413.8083,E,0.0,105.6,040191,,,A*60
$GPGGA,163432.000,2233.2052,N,11413.8083,E,1,07,1.4,49.4,M,14.2,M,,0000*61
$GPVTG,105.6,T,,M,0.0,N,0.0,K,A*0F
$GPGLL,2233.2052,N,11413.8083,E,163432.00,A,A*68
$GPGSA,A,3,02,05,10,12,15,26,27,,,,,,1.9,1.4,1.3*3D
$GPRMC,163433.000,A,2233.2052,N,11413.8083,E,0.0,105.6,040191,,,A*61
$GPGGA,163433.000,2233.2052,N,11413.8083,E,1,06,1.6,49.4,M,14.2,M,,0000*63
$GPVTG,105.6,T,,M,0.0,N,0.0,K,A*0F
$GPGLL,2233.2052,N,11413.8083,E,163433.00,A,A*69
$GPGSA,A,3,05,10,12,15,26,27,,,,,,,2.1,1.6,1.3*36
$GPRMC,163434.000,A,2233.2052,N,11413.8083,E,0.0,105.6,040191,,,A*66
$GPGGA,163434.000,2233.2052,N,11413.8083,E,1,06,1.6,49.4,M,14.2,M,,0000*64
$GPVTG,105.6,T,,M,0.0,N,0.0,K,A*0F
$GPGLL,2233.2052,N,11413.8083,E,163434.00,A,A*6E
$GPGSA,A,3,05,10,12,15,26,27,,,,,,,2.1,1.6,1.3*36
$GPRMC,163435.000,A,2233.2052,N,11413.8083,E,0.0,105.6,040191,,,A*67
$GPGGA,163435.000,2233.2052,N,11413.8083,E,1,06,1.6,49.4,M,14.2,M,,0000*65
$GPVTG,105.6,T,,M,0.0,N,0.0,K,A*0F
$GPGLL,2233.2052,N,11413.8083,E,163435.00,A,A*6F
$GPGSA,A,3,05,10,12,15,26,27,,,,,,,2.1,1.6,1.3*36
$GPRMC,163436.000,A,2233.2052,N,11413.8083,E,0.0,105.6,040191,,,A*64
$GPGGA,163436.000,2233.2052,N,11413.8083,E,1,06,1.6,49.4,M,14.2,M,,0000*66
$GPVTG,105.6,T,,M,0.0,N,0.0,K,A*0F
$GPGLL,2233.2052,N,11413.8083,E,163436.00,A,A*6C
$GPGSA,A,3,05,10,12,15,26,27,,,,,,,2.1,1.6,1.3*36
$GPGSV,3,1,10,10,23,047,20,05,49,006,15,27,08,176,36,12,06,220,25*7B
$GPGSV,3,2,10,26,79,157,35,15,55,209,41,29,35,306,18,02,50,088,*7A
$GPGSV,3,3,10,04,16,112,,08,14,076,*75
$GPRMC,163437.000,A,2233.2052,N,11413.8083,E,0.0,105.6,040191,,,A*65
$GPGGA,163437.000,2233.2052,N,11413.8083,E,1,06,1.6,49.4,M,14.2,M,,0000*67
$GPVTG,105.6,T,,M,0.0,N,0.0,K,A*0F
$GPGLL,2233.2052,N,11413.8083,E,163437.00,A,A*6D
$GPGSA,A,3,05,10,12,15,26,27,,,,,,,2.1,1.6,1.3*36
$GPRMC,163438.000,A,2233.2052,N,11413.8083,E,0.0,105.6,040191,,,A*6A
$GPGGA,163438.000,2233.2052,N,11413.8083,E,1,06,1.6,49.4,M,14.2,M,,0000*68
$GPVTG,105.6,T,,M,0.0,N,0.0,K,A*0F
$GPGLL,2233.2052,N,11413.8083,E,163438.00,A,A*62
$GPGSA,A,3,05,10,12,15,26,27,,,,,,,2.1,1.6,1.3*36
$GPRMC,163439.000,A,2233.2052,N,11413.8083,E,0.0,105.6,040191,,,A*6B
$GPGGA,163439.000,2233.2052,N,11413.8083,E,1,06,1.6,49.4,M,14.2,M,,0000*69
$GPVTG,105.6,T,,M,0.0,N,0.0,K,A*0F
$GPGLL,2233.2052,N,11413.8083,E,163439.00,A,A*63
$GPGSA,A,3,05,10,12,15,26,27,,,,,,,2.1,1.6,1.3*36
$GPRMC,163440.000,A,2233.2052,N,11413.8083,E,0.0,105.6,040191,,,A*65
$GPGGA,163440.000,2233.2052,N,11413.8083,E,1,06,1.6,49.4,M,14.2,M,,0000*67
$GPVTG,105.6,T,,M,0.0,N,0.0,K,A*0F
$GPGLL,2233.2052,N,11413.8083,E,163440.00,A,A*6D
$GPGSA,A,3,05,10,12,15,26,27,,,,,,,2.1,1.6,1.3*36
$GPRMC,163441.000,A,2233.2052,N,11413.8083,E,0.0,105.6,040191,,,A*64
$GPGGA,163441.000,2233.2052,N,11413.8083,E,1,06,1.6,49.4,M,14.2,M,,0000*66
$GPVTG,105.6,T,,M,0.0,N,0.0,K,A*0F
$GPGLL,2233.2052,N,11413.8083,E,163441.00,A,A*6C
$GPGSA,A,3,05,10,12,15,26,27,,,,,,,2.1,1.6,1.3*36
$GPGSV,3,1,10,10,23,047,19,05,49,006,15,27,08,176,36,12,06,220,22*76
$GPGSV,3,2,10,26,79,157,35,15,55,209,40,29,35,306,18,02,50,088,*7B
$GPGSV,3,3,10,04,16,112,,08,14,076,*75
$GPRMC,163442.000,A,2233.2052,N,11413.8083,E,0.0,105.6,040191,,,A*67
$GPGGA,163442.000,2233.2052,N,11413.8083,E,1,06,1.6,49.4,M,14.2,M,,0000*65
$GPVTG,105.6,T,,M,0.0,N,0.0,K,A*0F
$GPGLL,2233.2052,N,11413.8083,E,163442.00,A,A*6F
$GPGSA,A,3,05,10,12,15,26,27,,,,,,,2.1,1.6,1.3*36
$GPRMC,163443.000,A,2233.2052,N,11413.8083,E,0.0,105.6,040191,,,A*66
$GPGGA,163443.000,2233.2052,N,11413.8083,E,1,06,1.6,49.4,M,14.2,M,,0000*64
$GPVTG,105.6,T,,M,0.0,N,0.0,K,A*0F
$GPGLL,2233.2052,N,11413.8083,E,163443.00,A,A*6E
$GPGSA,A,3,05,10,12,15,26,27,,,,,,,2.1,1.6,1.3*36
$GPRMC,163444.000,A,2233.2052,N,11413.8083,E,0.0,105.6,040191,,,A*61
$GPGGA,163444.000,2233.2052,N,11413.8083,E,1,06,1.6,49.4,M,14.2,M,,0000*63
$GPVTG,105.6,T,,M,0.0,N,0.0,K,A*0F
$GPGLL,2233.2052,N,11413.8083,E,163444.00,A,A*69
$GPGSA,A,3,05,10,12,15,26,27,,,,,,,2.1,1.6,1.3*36
$GPRMC,163445.000,A,2233.2052,N,11413.8083,E,0.0,105.6,040191,,,A*60
$GPGGA,163445.000,2233.2052,N,11413.8083,E,1,06,1.6,49.4,M,14.2,M,,0000*62
$GPVTG,105.6,T,,M,0.0,N,0.0,K,A*0F
$GPGLL,2233.2052,N,11413.8083,E,163445.00,A,A*68
$GPGSA,A,3,05,10,12,15,26,27,,,,,,,2.1,1.6,1.3*36
$GPRMC,163446.000,A,2233.2052,N,11413.8083,E,0.0,105.6,040191,,,A*63
$GPGGA,163446.000,2233.2052,N,11413.8083,E,1,06,1.6,49.4,M,14.2,M,,0000*61
$GPVTG,105.6,T,,M,0.0,N,0.0,K,A*0F
$GPGLL,2233.2052,N,11413.8083,E,163446.00,A,A*6B
$GPGSA,A,3,05,10,12,15,26,27,,,,,,,2.1,1.6,1.3*36
$GPGSV,3,1,10,10,23,047,20,05,48,006,15,27,08,176,36,12,06,220,19*75
$GPGSV,3,2,10,26,79,157,36,15,55,209,40,02,50,088,,29,35,306,*71
$GPGSV,3,3,10,04,16,112,,08,14,076,*75
$GPRMC,163447.000,A,2233.2052,N,11413.8083,E,0.0,105.6,040191,,,A*62
$GPGGA,163447.000,2233.2052,N,11413.8083,E,1,06,1.6,49.4,M,14.2,M,,0000*60
$GPVTG,105.6,T,,M,0.0,N,0.0,K,A*0F
$GPGLL,2233.2052,N,11413.8083,E,163447.00,A,A*6A
$GPGSA,A,3,05,10,12,15,26,27,,,,,,,2.1,1.6,1.3*36
$GPRMC,163448.000,A,2233.2052,N,11413.8083,E,0.0,105.6,040191,,,A*6D
$GPGGA,163448.000,2233.2052,N,11413.8083,E,1,06,1.6,49.4,M,14.2,M,,0000*6F
$GPVTG,105.6,T,,M,0.0,N,0.0,K,A*0F
$GPGLL,2233.2052,N,11413.8083,E,163448.00,A,A*65
$GPGSA,A,3,05,10,12,15,26,27,,,,,,,2.1,1.6,1.3*36
$GPRMC,163449.000,A,2233.2052,N,11413.8083,E,0.0,105.6,040191,,,A*6C
$GPGGA,163449.000,2233.2052,N,11413.8083,E,1,06,1.6,49.4,M,14.2,M,,0000*6E
$GPVTG,105.6,T,,M,0.0,N,0.0,K,A*0F
$GPGLL,2233.2052,N,11413.8083,E,163449.00,A,A*64
$GPGSA,A,3,05,10,12,15,26,27,,,,,,,2.1,1.6,1.3*36
$GPRMC,163450.000,A,2233.2052,N,11413.8083,E,0.0,105.6,040191,,,A*64
$GPGGA,163450.000,2233.2052,N,11413.8083,E,1,06,1.6,49.4,M,14.2,M,,0000*66
$GPVTG,105.6,T,,M,0.0,N,0.0,K,A*0F
$GPGLL,2233.2052,N,11413.8083,E,163450.00,A,A*6C
$GPGSA,A,3,05,10,12,15,26,27,,,,,,,2.1,1.6,1.3*36
$GPRMC,163451.000,A,2233.2052,N,11413.8083,E,0.0,105.6,040191,,,A*65
$GPGGA,163451.000,2233.2052,N,11413.8083,E,1,06,1.6,49.4,M,14.2,M,,0000*67
$GPVTG,105.6,T,,M,0.0,N,0.0,K,A*0F
$GPGLL,2233.2052,N,11413.8083,E,163451.00,A,A*6D
$GPGSA,A,3,05,10,12,15,26,27,,,,,,,2.1,1.6,1.3*36
$GPGSV,3,1,10,10,23,047,18,05,48,006,16,27,08,176,36,12,06,220,18*7C
$GPGSV,3,2,10,26,79,157,36,15,55,209,41,02,50,088,,29,35,306,*70
$GPGSV,3,3,10,04,16,112,,08,14,076,*75
$GPRMC,163452.000,A,2233.2052,N,11413.8083,E,0.0,105.6,040191,,,A*66
$GPGGA,163452.000,2233.2052,N,11413.8083,E,1,06,1.6,49.4,M,14.2,M,,0000*64
$GPVTG,105.6,T,,M,0.0,N,0.0,K,A*0F
$GPGLL,2233.2052,N,11413.8083,E,163452.00,A,A*6E
$GPGSA,A,3,05,10,12,15,26,27,,,,,,,2.1,1.6,1.3*36
$GPRMC,163453.000,A,2233.2052,N,11413.8083,E,0.0,105.6,040191,,,A*67
$GPGGA,163453.000,2233.2052,N,11413.8083,E,1,06,1.6,49.4,M,14.2,M,,0000*65
$GPVTG,105.6,T,,M,0.0,N,0.0,K,A*0F
$GPGLL,2233.2052,N,11413.8083,E,163453.00,A,A*6F
$GPGSA,A,3,05,10,12,15,26,27,,,,,,,2.1,1.6,1.3*36
$GPRMC,163454.000,A,2233.2052,N,11413.8083,E,0.0,105.6,040191,,,A*60
$GPGGA,163454.000,2233.2052,N,11413.8083,E,1,06,1.6,49.4,M,14.2,M,,0000*62
$GPVTG,105.6,T,,M,0.0,N,0.0,K,A*0F
$GPGLL,2233.2052,N,11413.8083,E,163454.00,A,A*68
$GPGSA,A,3,05,10,12,15,26,27,,,,,,,2.1,1.6,1.3*36
$GPRMC,163455.000,A,2233.2052,N,11413.8083,E,0.0,105.6,040191,,,A*61
$GPGGA,163455.000,2233.2052,N,11413.8083,E,1,06,1.6,49.4,M,14.2,M,,0000*63
$GPVTG,105.6,T,,M,0.0,N,0.0,K,A*0F
$GPGLL,2233.2052,N,11413.8083,E,163455.00,A,A*69
$GPGSA,A,3,05,10,12,15,26,27,,,,,,,2.1,1.6,1.3*36
$GPRMC,163456.000,A,2233.2052,N,11413.8083,E,0.0,105.6,040191,,,A*62
$GPGGA,163456.000,2233.2052,N,11413.8083,E,1,06,1.6,49.4,M,14.2,M,,0000*60
$GPVTG,105.6,T,,M,0.0,N,0.0,K,A*0F
$GPGLL,2233.2052,N,11413.8083,E,163456.00,A,A*6A
$GPGSA,A,3,05,10,12,15,26,27,,,,,,,2.1,1.6,1.3*36
$GPGSV,3,1,10,10,23,047,17,05,48,006,22,27,09,176,35,12,06,220,15*7B
$GPGSV,3,2,10,26,79,157,36,15,55,209,42,02,50,088,,29,35,306,*73
$GPGSV,3,3,10,04,16,112,,08,14,076,*75
$GPRMC,163457.000,A,2233.2052,N,11413.8083,E,0.0,105.6,040191,,,A*63
$GPGGA,163457.000,2233.2052,N,11413.8083,E,1,06,1.6,49.4,M,14.2,M,,0000*61
$GPVTG,105.6,T,,M,0.0,N,0.0,K,A*0F
$GPGLL,2233.2052,N,11413.8083,E,163457.00,A,A*6B
$GPGSA,A,3,05,10,12,15,26,27,,,,,,,2.1,1.6,1.3*36
$GPRMC,163458.000,A,2233.2052,N,11413.8083,E,0.0,105.6,040191,,,A*6C
$GPGGA,163458.000,2233.2052,N,11413.8083,E,1,06,1.6,49.4,M,14.2,M,,0000*6E
$GPVTG,105.6,T,,M,0.0,N,0.0,K,A*0F
$GPGLL,2233.2052,N,11413.8083,E,163458.00,A,A*64
$GPGSA,A,3,05,10,12,15,26,27,,,,,,,2.1,1.6,1.3*36
$GPRMC,163459.000,A,2233.2052,N,11413.8083,E,0.0,105.6,040191,,,A*6D
$GPGGA,163459.000,2233.2052,N,11413.8083,E,1,04,4.1,49.4,M,14.2,M,,0000*6F
$GPVTG,105.6,T,,M,0.0,N,0.0,K,A*0F
$GPGLL,2233.2052,N,11413.8083,E,163459.00,A,A*65
$GPGSA,A,3,05,15,26,27,,,,,,,,,4.7,4.1,2.3*35
$GPRMC,163500.000,A,2233.2052,N,11413.8083,E,0.0,105.6,040191,,,A*60
$GPGGA,163500.000,2233.2052,N,11413.8083,E,1,05,2.0,49.4,M,14.2,M,,0000*64
$GPVTG,105.6,T,,M,0.0,N,0.0,K,A*0F
$GPGLL,2233.2052,N,11413.8083,E,163500.00,A,A*68
$GPGSA,A,3,05,12,15,26,27,,,,,,,,2.6,2.0,1.7*31
$GPRMC,163501.000,A,2233.2052,N,11413.8083,E,0.0,105.6,040191,,,A*61
$GPGGA,163501.000,2233.2052,N,11413.8083,E,1,05,2.0,49.4,M,14.2,M,,0000*65
$GPVTG,105.6,T,,M,0.0,N,0.0,K,A*0F
$GPGLL,2233.2052,N,11413.8083,E,163501.00,A,A*69
$GPGSA,A,3,05,12,15,26,27,,,,,,,,2.6,2.0,1.7*31
$GPGSV,3,1,10,05,48,006,21,27,09,176,35,12,06,220,15,26,79,157,36*71
$GPGSV,3,2,10,15,55,209,42,29,35,306,16,02,50,088,,10,23,047,*7B
$GPGSV,3,3,10,04,16,112,,08,14,076,*75
$GPRMC,163502.000,A,2233.2052,N,11413.8083,E,0.0,105.6,040191,,,A*62
$GPGGA,163502.000,2233.2052,N,11413.8083,E,1,04,4.1,49.4,M,14.2,M,,0000*60
$GPVTG,105.6,T,,M,0.0,N,0.0,K,A*0F
$GPGLL,2233.2052,N,11413.8083,E,163502.00,A,A*6A
$GPGSA,A,3,05,15,26,27,,,,,,,,,4.7,4.1,2.3*35
$GPRMC,163503.000,A,2233.2052,N,11413.8083,E,0.0,105.6,040191,,,A*63
$GPGGA,163503.000,2233.2052,N,11413.8083,E,1,05,2.0,49.4,M,14.2,M,,0000*67
$GPVTG,105.6,T,,M,0.0,N,0.0,K,A*0F
$GPGLL,2233.2052,N,11413.8083,E,163503.00,A,A*6B
$GPGSA,A,3,05,12,15,26,27,,,,,,,,2.6,2.0,1.7*31
$GPRMC,163504.000,A,2233.2052,N,11413.8083,E,0.0,105.6,040191,,,A*64
$GPGGA,163504.000,2233.2052,N,11413.8083,E,1,05,2.0,49.4,M,14.2,M,,0000*60
$GPVTG,105.6,T,,M,0.0,N,0.0,K,A*0F
$GPGLL,2233.2052,N,11413.8083,E,163504.00,A,A*6C
$GPGSA,A,3,05,12,15,26,27,,,,,,,,2.6,2.0,1.7*31
$GPRMC,163505.000,A,2233.2052,N,11413.8083,E,0.0,105.6,040191,,,A*65
$GPGGA,163505.000,2233.2052,N,11413.8083,E,1,05,2.0,49.4,M,14.2,M,,0000*61
$GPVTG,105.6,T,,M,0.0,N,0.0,K,A*0F
$GPGLL,2233.2052,N,11413.8083,E,163505.00,A,A*6D
$GPGSA,A,3,05,12,15,26,27,,,,,,,,2.6,2.0,1.7*31
$GPRMC,163506.000,A,2233.2052,N,11413.8083,E,0.0,105.6,040191,,,A*66
$GPGGA,163506.000,2233.2052,N,11413.8083,E,1,06,1.6,49.4,M,14.2,M,,0000*64
$GPVTG,105.6,T,,M,0.0,N,0.0,K,A*0F
$GPGLL,2233.2052,N,11413.8083,E,163506.00,A,A*6E
$GPGSA,A,3,05,10,12,15,26,27,,,,,,,2.1,1.6,1.3*36
$GPGSV,3,1,10,10,23,047,,05,48,006,19,27,09,176,35,12,06,220,21*72
$GPGSV,3,2,10,26,79,157,35,15,55,209,42,29,35,306,,02,50,088,*70
$GPGSV,3,3,10,04,16,112,,08,14,076,*75
$GPRMC,163507.000,A,2233.2052,N,11413.8083,E,0.0,105.6,040191,,,A*67
$GPGGA,163507.000,2233.2052,N,11413.8083,E,1,05,2.0,49.4,M,14.2,M,,0000*63
$GPVTG,105.6,T,,M,0.0,N,0.0,K,A*0F
$GPGLL,2233.2052,N,11413.8083,E,163507.00,A,A*6F
$GPGSA,A,3,05,12,15,26,27,,,,,,,,2.6,2.0,1.7*31
$GPRMC,163508.000,A,2233.2052,N,11413.8083,E,0.0,105.6,040191,,,A*68
$GPGGA,163508.000,2233.2052,N,11413.8083,E,1,06,1.6,49.4,M,14.2,M,,0000*6A
$GPVTG,105.6,T,,M,0.0,N,0.0,K,A*0F
$GPGLL,2233.2052,N,11413.8083,E,163508.00,A,A*60
$GPGSA,A,3,05,10,12,15,26,27,,,,,,,2.1,1.6,1.3*36
$GPRMC,163509.000,A,2233.2052,N,11413.8083,E,0.0,105.6,040191,,,A*69
$GPGGA,163509.000,2233.2052,N,11413.8083,E,1,06,1.6,49.4,M,14.2,M,,0000*6B
$GPVTG,105.6,T,,M,0.0,N,0.0,K,A*0F
$GPGLL,2233.2052,N,11413.8083,E,163509.00,A,A*61
$GPGSA,A,3,05,10,12,15,26,27,,,,,,,2.1,1.6,1.3*36
$GPRMC,163510.000,A,2233.2052,N,11413.8083,E,0.0,105.6,040191,,,A*61
$GPGGA,163510.000,2233.2052,N,11413.8083,E,1,05,2.0,49.4,M,14.2,M,,0000*65
$GPVTG,105.6,T,,M,0.0,N,0.0,K,A*0F
$GPGLL,2233.2052,N,11413.8083,E,163510.00,A,A*69
$GPGSA,A,3,05,12,15,26,27,,,,,,,,2.6,2.0,1.7*31
$GPRMC,163511.000,A,2233.2052,N,11413.8083,E,0.0,105.6,040191,,,A*60
$GPGGA,163511.000,2233.2052,N,11413.8083,E,1,05,2.0,49.4,M,14.2,M,,0000*64
$GPVTG,105.6,T,,M,0.0,N,0.0,K,A*0F
$GPGLL,2233.2052,N,11413.8083,E,163511.00,A,A*68
$GPGSA,A,3,05,12,15,26,27,,,,,,,,2.6,2.0,1.7*31
$GPGSV,3,1,10,10,23,047,18,05,48,006,20,27,09,176,35,12,06,220,24*74
$GPGSV,3,2,10,26,79,157,34,15,55,209,41,29,35,306,17,02,50,088,*74
$GPGSV,3,3,10,04,16,112,,08,14,076,*75
$GPRMC,163512.000,A,2233.2052,N,11413.8083,E,0.0,105.6,040191,,,A*63
$GPGGA,163512.000,2233.2052,N,11413.8083,E,1,06,1.6,49.4,M,14.2,M,,0000*61
$GPVTG,105.6,T,,M,0.0,N,0.0,K,A*0F
$GPGLL,2233.2052,N,11413.8083,E,163512.00,A,A*6B
$GPGSA,A,3,05,10,12,15,26,27,,,,,,,2.1,1.6,1.3*36
$GPRMC,163513.000,A,2233.2052,N,11413.8083,E,0.0,105.6,040191,,,A*62
$GPGGA,163513.000,2233.2052,N,11413.8083,E,1,06,1.6,49.4,M,14.2,M,,0000*60
$GPVTG,105.6,T,,M,0.0,N,0.0,K,A*0F
$GPGLL,2233.2052,N,11413.8083,E,163513.00,A,A*6A
$GPGSA,A,3,05,10,12,15,26,27,,,,,,,2.1,1.6,1.3*36
$GPRMC,163514.000,A,2233.2052,N,11413.8083,E,0.0,105.6,040191,,,A*65
$GPGGA,163514.000,2233.2052,N,11413.8083,E,1,06,1.6,49.4,M,14.2,M,,0000*67
$GPVTG,105.6,T,,M,0.0,N,0.0,K,A*0F
$GPGLL,2233.2052,N,11413.8083,E,163514.00,A,A*6D
$GPGSA,A,3,05,10,12,15,26,27,,,,,,,2.1,1.6,1.3*36
$GPRMC,163515.000,A,2233.2052,N,11413.8083,E,0.0,105.6,040191,,,A*64
$GPGGA,163515.000,2233.2052,N,11413.8083,E,1,06,1.6,49.4,M,14.2,M,,0000*66
$GPVTG,105.6,T,,M,0.0,N,0.0,K,A*0F
$GPGLL,2233.2052,N,11413.8083,E,163515.00,A,A*6C
$GPGSA,A,3,05,10,12,15,26,27,,,,,,,2.1,1.6,1.3*36
$GPRMC,163516.000,A,2233.2052,N,11413.8083,E,0.0,105.6,040191,,,A*67
$GPGGA,163516.000,2233.2052,N,11413.8083,E,1,06,1.6,49.4,M,14.2,M,,0000*65
$GPVTG,105.6,T,,M,0.0,N,0.0,K,A*0F
$GPGLL,2233.2052,N,11413.8083,E,163516.00,A,A*6F
$GPGSA,A,3,05,10,12,15,26,27,,,,,,,2.1,1.6,1.3*36
$GPGSV,3,1,10,10,23,047,17,05,48,006,19,27,09,176,35,12,06,220,24*71
$GPGSV,3,2,10,26,79,156,33,15,55,209,42,29,35,306,,02,50,089,*76
$GPGSV,3,3,10,04,16,112,,08,14,076,*75
$GPRMC,163517.000,A,2233.2052,N,11413.8083,E,0.0,105.6,040191,,,A*66
$GPGGA,163517.000,2233.2052,N,11413.8083,E,1,06,1.6,49.4,M,14.2,M,,0000*64
$GPVTG,105.6,T,,M,0.0,N,0.0,K,A*0F
$GPGLL,2233.2052,N,11413.8083,E,163517.00,A,A*6E
$GPGSA,A,3,05,10,12,15,26,27,,,,,,,2.1,1.6,1.3*36
$GPRMC,163518.000,A,2233.2052,N,11413.8083,E,0.0,105.6,040191,,,A*69
$GPGGA,163518.000,2233.2052,N,11413.8083,E,1,06,1.6,49.4,M,14.2,M,,0000*6B
$GPVTG,105.6,T,,M,0.0,N,0.0,K,A*0F
$GPGLL,2233.2052,N,11413.8083,E,163518.00,A,A*61
$GPGSA,A,3,05,10,12,15,26,27,,,,,,,2.1,1.6,1.3*36
$GPRMC,163519.000,A,2233.2052,N,11413.8083,E,0.0,105.6,040191,,,A*68
$GPGGA,163519.000,2233.2052,N,11413.8083,E,1,06,1.6,49.4,M,14.2,M,,0000*6A
$GPVTG,105.6,T,,M,0.0,N,0.0,K,A*0F
$GPGLL,2233.2052,N,11413.8083,E,163519.00,A,A*60
$GPGSA,A,3,05,10,12,15,26,27,,,,,,,2.1,1.6,1.3*36
$GPRMC,163520.000,A,2233.2052,N,11413.8083,E,0.0,105.6,040191,,,A*62
$GPGGA,163520.000,2233.2052,N,11413.8083,E,1,07,1.4,49.4,M,14.2,M,,0000*63
$GPVTG,105.6,T,,M,0.0,N,0.0,K,A*0F
$GPGLL,2233.2052,N,11413.8083,E,163520.00,A,A*6A
$GPGSA,A,3,02,05,10,12,15,26,27,,,,,,1.9,1.4,1.3*3D
$GPRMC,163521.000,A,2233.2052,N,11413.8083,E,0.0,105.6,040191,,,A*63
$GPGGA,163521.000,2233.2052,N,11413.8083,E,1,07,1.4,49.4,M,14.2,M,,0000*62
$GPVTG,105.6,T,,M,0.0,N,0.0,K,A*0F
$GPGLL,2233.2052,N,11413.8083,E,163521.00,A,A*6B
$GPGSA,A,3,02,05,10,12,15,26,27,,,,,,1.9,1.4,1.3*3D
$GPGSV,3,1,10,10,23,047,14,05,48,006,17,02,50,089,16,27,09,176,36*7D
$GPGSV,3,2,10,12,06,220,24,26,79,156,33,15,55,209,42,29,35,306,18*7A
$GPGSV,3,3,10,04,16,112,,08,14,076,*75
$GPRMC,163522.000,A,2233.2052,N,11413.8083,E,0.0,105.6,040191,,,A*60
$GPGGA,163522.000,2233.2052,N,11413.8083,E,1,07,1.4,49.4,M,14.2,M,,0000*61
$GPVTG,105.6,T,,M,0.0,N,0.0,K,A*0F
$GPGLL,2233.2052,N,11413.8083,E,163522.00,A,A*68
$GPGSA,A,3,02,05,10,12,15,26,27,,,,,,1.9,1.4,1.3*3D
$GPRMC,163523.000,A,2233.2052,N,11413.8083,E,0.0,105.6,040191,,,A*61
$GPGGA,163523.000,2233.2052,N,11413.8083,E,1,07,1.4,49.4,M,14.2,M,,0000*60
$GPVTG,105.6,T,,M,0.0,N,0.0,K,A*0F
$GPGLL,2233.2052,N,11413.8083,E,163523.00,A,A*69
$GPGSA,A,3,02,05,10,12,15,26,27,,,,,,1.9,1.4,1.3*3D
$GPRMC,163524.000,A,2233.2052,N,11413.8083,E,0.0,105.6,040191,,,A*66
$GPGGA,163524.000,2233.2052,N,11413.8083,E,1,07,1.4,49.4,M,14.2,M,,0000*67
$GPVTG,105.6,T,,M,0.0,N,0.0,K,A*0F
$GPGLL,2233.2052,N,11413.8083,E,163524.00,A,A*6E
$GPGSA,A,3,02,05,10,12,15,26,27,,,,,,1.9,1.4,1.3*3D
$GPRMC,163525.000,A,2233.2052,N,11413.8083,E,0.0,105.6,040191,,,A*67
$GPGGA,163525.000,2233.2052,N,11413.8083,E,1,07,1.4,49.4,M,14.2,M,,0000*66
$GPVTG,105.6,T,,M,0.0,N,0.0,K,A*0F
$GPGLL,2233.2052,N,11413.8083,E,163525.00,A,A*6F
$GPGSA,A,3,02,05,10,12,15,26,27,,,,,,1.9,1.4,1.3*3D
$GPRMC,163526.000,A,2233.2052,N,11413.8083,E,0.0,105.6,040191,,,A*64
$GPGGA,163526.000,2233.2052,N,11413.8083,E,1,07,1.4,49.4,M,14.2,M,,0000*65
$GPVTG,105.6,T,,M,0.0,N,0.0,K,A*0F
$GPGLL,2233.2052,N,11413.8083,E,163526.00,A,A*6C
$GPGSA,A,3,02,05,10,12,15,26,27,,,,,,1.9,1.4,1.3*3D
$GPGSV,3,1,10,10,23,047,14,05,48,006,17,02,50,089,17,27,09,175,36*7F
$GPGSV,3,2,10,12,06,220,25,26,79,156,33,15,55,209,42,29,35,306,*72
$GPGSV,3,3,10,04,16,112,,08,14,076,*75
$GPRMC,163527.000,A,2233.2052,N,11413.8083,E,0.0,105.6,040191,,,A*65
$GPGGA,163527.000,2233.2052,N,11413.8083,E,1,07,1.4,49.4,M,14.2,M,,0000*64
$GPVTG,105.6,T,,M,0.0,N,0.0,K,A*0F
$GPGLL,2233.2052,N,11413.8083,E,163527.00,A,A*6D
$GPGSA,A,3,02,05,10,12,15,26,27,,,,,,1.9,1.4,1.3*3D
$GPRMC,163528.000,A,2233.2052,N,11413.8083,E,0.0,105.6,040191,,,A*6A
$GPGGA,163528.000,2233.2052,N,11413.8083,E,1,07,1.4,49.4,M,14.2,M,,0000*6B
$GPVTG,105.6,T,,M,0.0,N,0.0,K,A*0F
$GPGLL,2233.2052,N,11413.8083,E,163528.00,A,A*62
$GPGSA,A,3,02,05,10,12,15,26,27,,,,,,1.9,1.4,1.3*3D
$GPRMC,163529.000,A,2233.2052,N,11413.8083,E,0.0,105.6,040191,,,A*6B
$GPGGA,163529.000,2233.2052,N,11413.8083,E,1,07,1.4,49.4,M,14.2,M,,0000*6A
$GPVTG,105.6,T,,M,0.0,N,0.0,K,A*0F
$GPGLL,2233.2052,N,11413.8083,E,163529.00,A,A*63
$GPGSA,A,3,02,05,10,12,15,26,27,,,,,,1.9,1.4,1.3*3D
$GPRMC,163530.000,A,2233.2052,N,11413.8083,E,0.0,105.6,040191,,,A*63
$GPGGA,163530.000,2233.2052,N,11413.8083,E,1,07,1.4,49.4,M,14.2,M,,0000*62
$GPVTG,105.6,T,,M,0.0,N,0.0,K,A*0F
$GPGLL,2233.2052,N,11413.8083,E,163530.00,A,A*6B
$GPGSA,A,3,02,05,10,12,15,26,27,,,,,,1.9,1.4,1.3*3D
$GPRMC,163531.000,A,2233.2052,N,11413.8083,E,0.0,105.6,040191,,,A*62
$GPGGA,163531.000,2233.2052,N,11413.8083,E,1,07,1.4,49.4,M,14.2,M,,0000*63
$GPVTG,105.6,T,,M,0.0,N,0.0,K,A*0F
$GPGLL,2233.2052,N,11413.8083,E,163531.00,A,A*6A
$GPGSA,A,3,02,05,10,12,15,26,27,,,,,,1.9,1.4,1.3*3D
$GPGSV,3,1,10,10,22,047,12,05,48,007,22,02,50,089,16,27,09,175,36*7E
$GPGSV,3,2,10,12,06,220,25,26,79,156,34,15,55,209,42,29,35,306,*75
$GPGSV,3,3,10,04,16,112,,08,14,076,*75
$GPRMC,163532.000,A,2233.2052,N,11413.8083,E,0.0,105.6,040191,,,A*61
$GPGGA,163532.000,2233.2052,N,11413.8083,E,1,07,1.4,49.4,M,14.2,M,,0000*60
$GPVTG,105.6,T,,M,0.0,N,0.0,K,A*0F
$GPGLL,2233.2052,N,11413.8083,E,163532.00,A,A*69
$GPGSA,A,3,02,05,10,12,15,26,27,,,,,,1.9,1.4,1.3*3D
$GPRMC,163533.000,A,2233.2052,N,11413.8083,E,0.0,105.6,040191,,,A*60
$GPGGA,163533.000,2233.2052,N,11413.8083,E,1,07,1.4,49.4,M,14.2,M,,0000*61
$GPVTG,105.6,T,,M,0.0,N,0.0,K,A*0F
$GPGLL,2233.2052,N,11413.8083,E,163533.00,A,A*68
$GPGSA,A,3,02,05,10,12,15,26,27,,,,,,1.9,1.4,1.3*3D
$GPRMC,163534.000,A,2233.2052,N,11413.8083,E,0.0,105.6,040191,,,A*67
$GPGGA,163534.000,2233.2052,N,11413.8083,E,1,07,1.4,49.4,M,14.2,M,,0000*66
$GPVTG,105.6,T,,M,0.0,N,0.0,K,A*0F
$GPGLL,2233.2052,N,11413.8083,E,163534.00,A,A*6F
$GPGSA,A,3,02,05,10,12,15,26,27,,,,,,1.9,1.4,1.3*3D
$GPRMC,163535.000,A,2233.2052,N,11413.8083,E,0.0,105.6,040191,,,A*66
$GPGGA,163535.000,2233.2052,N,11413.8083,E,1,07,1.4,49.4,M,14.2,M,,0000*67
$GPVTG,105.6,T,,M,0.0,N,0.0,K,A*0F
$GPGLL,2233.2052,N,11413.8083,E,163535.00,A,A*6E
$GPGSA,A,3,02,05,10,12,15,26,27,,,,,,1.9,1.4,1.3*3D
$GPRMC,163536.000,A,2233.2052,N,11413.8083,E,0.0,105.6,040191,,,A*65
$GPGGA,163536.000,2233.2052,N,11413.8083,E,1,07,1.4,49.4,M,14.2,M,,0000*64
$GPVTG,105.6,T,,M,0.0,N,0.0,K,A*0F
$GPGLL,2233.2052,N,11413.8083,E,163536.00,A,A*6D
$GPGSA,A,3,02,05,10,12,15,26,27,,,,,,1.9,1.4,1.3*3D
$GPGSV,3,1,10,10,22,047,12,05,48,007,21,02,50,089,16,27,09,175,36*7D
$GPGSV,3,2,10,12,06,220,24,26,79,156,34,15,55,209,42,29,35,306,*74
$GPGSV,3,3,10,04,16,112,,08,14,076,*75
$GPRMC,163537.000,A,2233.2052,N,11413.8083,E,0.0,105.6,040191,,,A*64
$GPGGA,163537.000,2233.2052,N,11413.8083,E,1,07,1.4,49.4,M,14.2,M,,0000*65
$GPVTG,105.6,T,,M,0.0,N,0.0,K,A*0F
$GPGLL,2233.2052,N,11413.8083,E,163537.00,A,A*6C
$GPGSA,A,3,02,05,10,12,15,26,27,,,,,,1.9,1.4,1.3*3D
$GPRMC,163538.000,A,2233.2052,N,11413.8083,E,0.0,105.6,040191,,,A*6B
$GPGGA,163538.000,2233.2052,N,11413.8083,E,1,07,1.4,49.4,M,14.2,M,,0000*6A
$GPVTG,105.6,T,,M,0.0,N,0.0,K,A*0F
$GPGLL,2233.2052,N,11413.8083,E,163538.00,A,A*63
$GPGSA,A,3,02,05,10,12,15,26,27,,,,,,1.9,1.4,1.3*3D
$GPRMC,163539.000,A,2233.2052,N,11413.8083,E,0.0,105.6,040191,,,A*6A
$GPGGA,163539.000,2233.2052,N,11413.8083,E,1,07,1.4,49.4,M,14.2,M,,0000*6B
$GPVTG,105.6,T,,M,0.0,N,0.0,K,A*0F
$GPGLL,2233.2052,N,11413.8083,E,163539.00,A,A*62
$GPGSA,A,3,02,05,10,12,15,26,27,,,,,,1.9,1.4,1.3*3D
$GPRMC,163540.000,A,2233.2052,N,11413.8083,E,0.0,105.6,040191,,,A*64
$GPGGA,163540.000,2233.2052,N,11413.8083,E,1,07,1.4,49.4,M,14.2,M,,0000*65
$GPVTG,105.6,T,,M,0.0,N,0.0,K,A*0F
$GPGLL,2233.2052,N,11413.8083,E,163540.00,A,A*6C
$GPGSA,A,3,02,05,10,12,15,26,27,,,,,,1.9,1.4,1.3*3D
$GPRMC,163541.000,A,2233.2052,N,11413.8083,E,0.0,105.6,040191,,,A*65
$GPGGA,163541.000,2233.2052,N,11413.8083,E,1,07,1.4,49.4,M,14.2,M,,0000*64
$GPVTG,105.6,T,,M,0.0,N,0.0,K,A*0F
$GPGLL,2233.2052,N,11413.8083,E,163541.00,A,A*6D
$GPGSA,A,3,02,05,10,12,15,26,27,,,,,,1.9,1.4,1.3*3D
$GPGSV,3,1,10,10,22,047,14,05,48,007,21,02,50,089,16,27,09,175,36*7B
$GPGSV,3,2,10,12,06,220,23,26,80,156,33,15,55,209,42,29,35,306,18*7B
$GPGSV,3,3,10,04,16,112,,08,14,076,*75
$GPRMC,163542.000,A,2233.2052,N,11413.8083,E,0.0,105.6,040191,,,A*66
$GPGGA,163542.000,2233.2052,N,11413.8083,E,1,07,1.4,49.4,M,14.2,M,,0000*67
$GPVTG,105.6,T,,M,0.0,N,0.0,K,A*0F
$GPGLL,2233.2052,N,11413.8083,E,163542.00,A,A*6E
$GPGSA,A,3,02,05,10,12,15,26,27,,,,,,1.9,1.4,1.3*3D
$GPRMC,163543.000,A,2233.2052,N,11413.8083,E,0.0,105.6,040191,,,A*67
$GPGGA,163543.000,2233.2052,N,11413.8083,E,1,07,1.4,49.4,M,14.2,M,,0000*66
$GPVTG,105.6,T,,M,0.0,N,0.0,K,A*0F
$GPGLL,2233.2052,N,11413.8083,E,163543.00,A,A*6F
$GPGSA,A,3,02,05,10,12,15,26,27,,,,,,1.9,1.4,1.3*3D
$GPRMC,163544.000,A,2233.2052,N,11413.8083,E,0.0,105.6,040191,,,A*60
$GPGGA,163544.000,2233.2052,N,11413.8083,E,1,07,1.4,49.4,M,14.2,M,,0000*61
$GPVTG,105.6,T,,M,0.0,N,0.0,K,A*0F
$GPGLL,2233.2052,N,11413.8083,E,163544.00,A,A*68
$GPGSA,A,3,02,05,10,12,15,26,27,,,,,,1.9,1.4,1.3*3D
$GPRMC,163545.000,A,2233.2052,N,11413.8083,E,0.0,105.6,040191,,,A*61
$GPGGA,163545.000,2233.2052,N,11413.8083,E,1,07,1.4,49.4,M,14.2,M,,0000*60
$GPVTG,105.6,T,,M,0.0,N,0.0,K,A*0F
$GPGLL,2233.2052,N,11413.8083,E,163545.00,A,A*69
$GPGSA,A,3,02,05,10,12,15,26,27,,,,,,1.9,1.4,1.3*3D
$GPRMC,163546.000,A,2233.2052,N,11413.8083,E,0.0,105.6,040191,,,A*62
$GPGGA,163546.000,2233.2052,N,11413.8083,E,1,07,1.4,49.4,M,14.2,M,,0000*63
$GPVTG,105.6,T,,M,0.0,N,0.0,K,A*0F
$GPGLL,2233.2052,N,11413.8083,E,163546.00,A,A*6A
$GPGSA,A,3,02,05,10,12,15,26,27,,,,,,1.9,1.4,1.3*3D
$GPGSV,3,1,10,10,22,047,20,05,48,007,21,02,50,089,16,27,09,175,35*7F
$GPGSV,3,2,10,12,06,220,25,26,80,156,34,15,55,209,41,29,35,306,15*74
$GPGSV,3,3,10,04,16,112,,08,14,076,*75
$GPRMC,163547.000,A,2233.2052,N,11413.8083,E,0.0,105.6,040191,,,A*63
$GPGGA,163547.000,2233.2052,N,11413.8083,E,1,07,1.4,49.4,M,14.2,M,,0000*62
$GPVTG,105.6,T,,M,0.0,N,0.0,K,A*0F
$GPGLL,2233.2052,N,11413.8083,E,163547.00,A,A*6B
$GPGSA,A,3,02,05,10,12,15,26,27,,,,,,1.9,1.4,1.3*3D
$GPRMC,163548.000,A,2233.2052,N,11413.8083,E,0.0,105.6,040191,,,A*6C
$GPGGA,163548.000,2233.2052,N,11413.8083,E,1,07,1.4,49.4,M,14.2,M,,0000*6D
$GPVTG,105.6,T,,M,0.0,N,0.0,K,A*0F
$GPGLL,2233.2052,N,11413.8083,E,163548.00,A,A*64
$GPGSA,A,3,02,05,10,12,15,26,27,,,,,,1.9,1.4,1.3*3D
$GPRMC,163549.000,A,2233.2052,N,11413.8083,E,0.0,105.6,040191,,,A*6D
$GPGGA,163549.000,2233.2052,N,11413.8083,E,1,07,1.4,49.4,M,14.2,M,,0000*6C
$GPVTG,105.6,T,,M,0.0,N,0.0,K,A*0F
$GPGLL,2233.2052,N,11413.8083,E,163549.00,A,A*65
$GPGSA,A,3,02,05,10,12,15,26,27,,,,,,1.9,1.4,1.3*3D
$GPRMC,163550.000,A,2233.2052,N,11413.8083,E,0.0,105.6,040191,,,A*65
$GPGGA,163550.000,2233.2052,N,11413.8083,E,1,07,1.4,49.4,M,14.2,M,,0000*64
$GPVTG,105.6,T,,M,0.0,N,0.0,K,A*0F
$GPGLL,2233.2052,N,11413.8083,E,163550.00,A,A*6D
$GPGSA,A,3,02,05,10,12,15,26,27,,,,,,1.9,1.4,1.3*3D
$GPRMC,163551.000,A,2233.2052,N,11413.8083,E,0.0,105.6,040191,,,A*64
$GPGGA,163551.000,2233.2052,N,11413.8083,E,1,07,1.4,49.4,M,14.2,M,,0000*65
$GPVTG,105.6,T,,M,0.0,N,0.0,K,A*0F
$GPGLL,2233.2052,N,11413.8083,E,163551.00,A,A*6C
$GPGSA,A,3,02,05,10,12,15,26,27,,,,,,1.9,1.4,1.3*3D
$GPGSV,3,1,10,10,22,047,23,05,48,007,19,02,50,089,16,27,09,175,35*77
$GPGSV,3,2,10,12,06,220,25,26,80,156,35,15,55,209,41,29,35,306,16*76
$GPGSV,3,3,10,04,16,112,,08,14,076,*75
$GPRMC,163552.000,A,2233.2052,N,11413.8083,E,0.0,105.6,040191,,,A*67
$GPGGA,163552.000,2233.2052,N,11413.8083,E,1,07,1.4,49.4,M,14.2,M,,0000*66
$GPVTG,105.6,T,,M,0.0,N,0.0,K,A*0F
$GPGLL,2233.2052,N,11413.8083,E,163552.00,A,A*6F
$GPGSA,A,3,02,05,10,12,15,26,27,,,,,,1.9,1.4,1.3*3D
$GPRMC,163553.000,A,2233.2052,N,11413.8083,E,0.0,105.6,040191,,,A*66
$GPGGA,163553.000,2233.2052,N,11413.8083,E,1,07,1.4,49.4,M,14.2,M,,0000*67
$GPVTG,105.6,T,,M,0.0,N,0.0,K,A*0F
$GPGLL,2233.2052,N,11413.8083,E,163553.00,A,A*6E
$GPGSA,A,3,02,05,10,12,15,26,27,,,,,,1.9,1.4,1.3*3D
$GPRMC,163554.000,A,2233.2052,N,11413.8083,E,0.0,105.6,040191,,,A*61
$GPGGA,163554.000,2233.2052,N,11413.8083,E,1,07,1.4,49.4,M,14.2,M,,0000*60
$GPVTG,105.6,T,,M,0.0,N,0.0,K,A*0F
$GPGLL,2233.2052,N,11413.8083,E,163554.00,A,A*69
$GPGSA,A,3,02,05,10,12,15,26,27,,,,,,1.9,1.4,1.3*3D
$GPRMC,163555.000,A,2233.2052,N,11413.8083,E,0.0,105.6,040191,,,A*60
$GPGGA,163555.000,2233.2052,N,11413.8083,E,1,07,1.4,49.4,M,14.2,M,,0000*61
$GPVTG,105.6,T,,M,0.0,N,0.0,K,A*0F
$GPGLL,2233.2052,N,11413.8083,E,163555.00,A,A*68
$GPGSA,A,3,02,05,10,12,15,26,27,,,,,,1.9,1.4,1.3*3D
$GPRMC,163556.000,A,2233.2052,N,11413.8083,E,0.0,105.6,040191,,,A*63
$GPGGA,163556.000,2233.2052,N,11413.8083,E,1,07,1.4,49.4,M,14.2,M,,0000*62
$GPVTG,105.6,T,,M,0.0,N,0.0,K,A*0F
$GPGLL,2233.2052,N,11413.8083,E,163556.00,A,A*6B
$GPGSA,A,3,02,05,10,12,15,26,27,,,,,,1.9,1.4,1.3*3D
$GPGSV,3,1,10,10,22,047,23,05,48,007,18,02,50,089,16,27,09,175,36*75
$GPGSV,3,2,10,12,06,220,25,26,80,155,35,15,55,209,40,29,35,306,16*74
$GPGSV,3,3,10,04,16,112,,08,14,076,*75
$GPRMC,163557.000,A,2233.2052,N,11413.8083,E,0.0,105.6,040191,,,A*62
$GPGGA,163557.000,2233.2052,N,11413.8083,E,1,07,1.4,49.4,M,14.2,M,,0000*63
$GPVTG,105.6,T,,M,0.0,N,0.0,K,A*0F
$GPGLL,2233.2052,N,11413.8083,E,163557.00,A,A*6A
$GPGSA,A,3,02,05,10,12,15,26,27,,,,,,1.9,1.4,1.3*3D
$GPRMC,163558.000,A,2233.2052,N,11413.8083,E,0.0,105.6,040191,,,A*6D
$GPGGA,163558.000,2233.2052,N,11413.8083,E,1,07,1.4,49.4,M,14.2,M,,0000*6C
$GPVTG,105.6,T,,M,0.0,N,0.0,K,A*0F
$GPGLL,2233.2052,N,11413.8083,E,163558.00,A,A*65
$GPGSA,A,3,02,05,10,12,15,26,27,,,,,,1.9,1.4,1.3*3D
$GPRMC,163559.000,A,2233.2052,N,11413.8083,E,0.0,105.6,040191,,,A*6C
$GPGGA,163559.000,2233.2052,N,11413.8083,E,1,07,1.4,49.4,M,14.2,M,,0000*6D
$GPVTG,105.6,T,,M,0.0,N,0.0,K,A*0F
$GPGLL,2233.2052,N,11413.8083,E,163559.00,A,A*64
$GPGSA,A,3,02,05,10,12,15,26,27,,,,,,1.9,1.4,1.3*3D
$GPRMC,163600.000,A,2233.2052,N,11413.8083,E,0.0,105.6,040191,,,A*63
$GPGGA,163600.000,2233.2052,N,11413.8083,E,1,07,1.4,49.4,M,14.2,M,,0000*62
$GPVTG,105.6,T,,M,0.0,N,0.0,K,A*0F
$GPGLL,2233.2052,N,11413.8083,E,163600.00,A,A*6B
$GPGSA,A,3,02,05,10,12,15,26,27,,,,,,1.9,1.4,1.3*3D
$GPRMC,163601.000,A,2233.2052,N,11413.8083,E,0.0,105.6,040191,,,A*62
$GPGGA,163601.000,2233.2052,N,11413.8083,E,1,07,1.4,49.4,M,14.2,M,,0000*63
$GPVTG,105.6,T,,M,0.0,N,0.0,K,A*0F
$GPGLL,2233.2052,N,11413.8083,E,163601.00,A,A*6A
$GPGSA,A,3,02,05,10,12,15,26,27,,,,,,1.9,1.4,1.3*3D
$GPGSV,3,1,10,10,22,048,23,05,48,007,18,02,50,089,15,27,09,175,36*79
$GPGSV,3,2,10,12,06,220,25,26,80,155,35,15,56,210,41,29,35,306,14*7C
$GPGSV,3,3,10,04,16,112,,08,14,076,*75
$GPRMC,163602.000,A,2233.2052,N,11413.8083,E,0.0,105.6,040191,,,A*61
$GPGGA,163602.000,2233.2052,N,11413.8083,E,1,07,1.4,49.4,M,14.2,M,,0000*60
$GPVTG,105.6,T,,M,0.0,N,0.0,K,A*0F
$GPGLL,2233.2052,N,11413.8083,E,163602.00,A,A*69
$GPGSA,A,3,02,05,10,12,15,26,27,,,,,,1.9,1.4,1.3*3D
$GPRMC,163603.000,A,2233.2052,N,11413.8083,E,0.0,105.6,040191,,,A*60
$GPGGA,163603.000,2233.2052,N,11413.8083,E,1,06,1.8,49.4,M,14.2,M,,0000*6C
$GPVTG,105.6,T,,M,0.0,N,0.0,K,A*0F
$GPGLL,2233.2052,N,11413.8083,E,163603.00,A,A*68
$GPGSA,A,3,02,10,12,15,26,27,,,,,,,2.2,1.8,1.3*3C
$GPRMC,163604.000,A,2233.2052,N,11413.8083,E,0.0,105.6,040191,,,A*67
$GPGGA,163604.000,2233.2052,N,11413.8083,E,1,06,1.8,49.4,M,14.2,M,,0000*6B
$GPVTG,105.6,T,,M,0.0,N,0.0,K,A*0F
$GPGLL,2233.2052,N,11413.8083,E,163604.00,A,A*6F
$GPGSA,A,3,02,10,12,15,26,27,,,,,,,2.2,1.8,1.3*3C
$GPRMC,163605.000,A,2233.2052,N,11413.8083,E,0.0,105.6,040191,,,A*66
$GPGGA,163605.000,2233.2052,N,11413.8083,E,1,06,1.8,49.4,M,14.2,M,,0000*6A
$GPVTG,105.6,T,,M,0.0,N,0.0,K,A*0F
$GPGLL,2233.2052,N,11413.8083,E,163605.00,A,A*6E
$GPGSA,A,3,02,10,12,15,26,27,,,,,,,2.2,1.8,1.3*3C
$GPRMC,163606.000,A,2233.2052,N,11413.8083,E,0.0,105.6,040191,,,A*65
$GPGGA,163606.000,2233.2052,N,11413.8083,E,1,06,1.8,49.4,M,14.2,M,,0000*69
$GPVTG,105.6,T,,M,0.0,N,0.0,K,A*0F
$GPGLL,2233.2052,N,11413.8083,E,163606.00,A,A*6D
$GPGSA,A,3,02,10,12,15,26,27,,,,,,,2.2,1.8,1.3*3C
$GPGSV,3,1,10,10,22,048,24,02,50,089,13,27,09,175,36,12,06,220,26*7E
$GPGSV,3,2,10,26,80,155,35,15,56,210,41,29,35,306,,05,48,007,*75
$GPGSV,3,3,10,04,16,112,,08,14,075,*76
$GPRMC,163607.000,A,2233.2052,N,11413.8083,E,0.0,105.6,040191,,,A*64
$GPGGA,163607.000,2233.2052,N,11413.8083,E,1,06,1.8,49.4,M,14.2,M,,0000*68
$GPVTG,105.6,T,,M,0.0,N,0.0,K,A*0F
$GPGLL,2233.2052,N,11413.8083,E,163607.00,A,A*6C
$GPGSA,A,3,02,10,12,15,26,27,,,,,,,2.2,1.8,1.3*3C
$GPRMC,163608.000,A,2233.2052,N,11413.8083,E,0.0,105.6,040191,,,A*6B
$GPGGA,163608.000,2233.2052,N,11413.8083,E,1,06,1.8,49.4,M,14.2,M,,0000*67
$GPVTG,105.6,T,,M,0.0,N,0.0,K,A*0F
$GPGLL,2233.2052,N,11413.8083,E,163608.00,A,A*63
$GPGSA,A,3,02,10,12,15,26,27,,,,,,,2.2,1.8,1.3*3C
$GPRMC,163609.000,A,2233.2052,N,11413.8083,E,0.0,105.6,040191,,,A*6A
$GPGGA,163609.000,2233.2052,N,11413.8083,E,1,05,2.0,49.4,M,14.2,M,,0000*6E
$GPVTG,105.6,T,,M,0.0,N,0.0,K,A*0F
$GPGLL,2233.2052,N,11413.8083,E,163609.00,A,A*62
$GPGSA,A,3,10,12,15,26,27,,,,,,,,2.4,2.0,1.3*33
$GPRMC,163610.000,A,2233.2052,N,11413.8083,E,0.0,105.6,040191,,,A*62
$GPGGA,163610.000,2233.2052,N,11413.8083,E,1,05,2.0,49.4,M,14.2,M,,0000*66
$GPVTG,105.6,T,,M,0.0,N,0.0,K,A*0F
$GPGLL,2233.2052,N,11413.8083,E,163610.00,A,A*6A
$GPGSA,A,3,10,12,15,26,27,,,,,,,,2.4,2.0,1.3*33
$GPRMC,163611.000,A,2233.2052,N,11413.8083,E,0.0,105.6,040191,,,A*63
$GPGGA,163611.000,2233.2052,N,11413.8083,E,1,05,2.0,49.4,M,14.2,M,,0000*67
$GPVTG,105.6,T,,M,0.0,N,0.0,K,A*0F
$GPGLL,2233.2052,N,11413.8083,E,163611.00,A,A*6B
$GPGSA,A,3,10,12,15,26,27,,,,,,,,2.4,2.0,1.3*33
$GPGSV,3,1,10,10,22,048,24,27,09,175,35,12,06,220,26,26,80,155,35*72
$GPGSV,3,2,10,15,56,210,41,02,50,089,,05,48,007,,29,35,306,*78
$GPGSV,3,3,10,04,16,112,,08,14,075,*76
$GPRMC,163612.000,A,2233.2052,N,11413.8083,E,0.0,105.6,040191,,,A*60
$GPGGA,163612.000,2233.2052,N,11413.8083,E,1,05,2.0,49.4,M,14.2,M,,0000*64
$GPVTG,105.6,T,,M,0.0,N,0.0,K,A*0F
$GPGLL,2233.2052,N,11413.8083,E,163612.00,A,A*68
$GPGSA,A,3,10,12,15,26,27,,,,,,,,2.4,2.0,1.3*33
$GPRMC,163613.000,A,2233.2052,N,11413.8083,E,0.0,105.6,040191,,,A*61
$GPGGA,163613.000,2233.2052,N,11413.8083,E,1,05,2.0,49.4,M,14.2,M,,0000*65
$GPVTG,105.6,T,,M,0.0,N,0.0,K,A*0F
$GPGLL,2233.2052,N,11413.8083,E,163613.00,A,A*69
$GPGSA,A,3,10,12,15,26,27,,,,,,,,2.4,2.0,1.3*33
$GPRMC,163614.000,A,2233.2052,N,11413.8083,E,0.0,105.6,040191,,,A*66
$GPGGA,163614.000,2233.2052,N,11413.8083,E,1,05,2.0,49.4,M,14.2,M,,0000*62
$GPVTG,105.6,T,,M,0.0,N,0.0,K,A*0F
$GPGLL,2233.2052,N,11413.8083,E,163614.00,A,A*6E
$GPGSA,A,3,10,12,15,26,27,,,,,,,,2.4,2.0,1.3*33
$GPRMC,163615.000,A,2233.2052,N,11413.8083,E,0.0,105.6,040191,,,A*67
$GPGGA,163615.000,2233.2052,N,11413.8083,E,1,05,2.0,49.4,M,14.2,M,,0000*63
$GPVTG,105.6,T,,M,0.0,N,0.0,K,A*0F
$GPGLL,2233.2052,N,11413.8083,E,163615.00,A,A*6F
$GPGSA,A,3,10,12,15,26,27,,,,,,,,2.4,2.0,1.3*33
$GPRMC,163616.000,A,2233.2052,N,11413.8083,E,0.0,105.6,040191,,,A*64
$GPGGA,163616.000,2233.2052,N,11413.8083,E,1,05,2.0,49.4,M,14.2,M,,0000*60
$GPVTG,105.6,T,,M,0.0,N,0.0,K,A*0F
$GPGLL,2233.2052,N,11413.8083,E,163616.00,A,A*6C
$GPGSA,A,3,10,12,15,26,27,,,,,,,,2.4,2.0,1.3*33
$GPGSV,3,1,10,10,22,048,22,27,09,175,35,12,06,220,28,26,80,155,35*7A
$GPGSV,3,2,10,15,56,210,41,29,35,306,17,02,50,089,,05,48,007,*7E
$GPGSV,3,3,10,04,16,112,,08,14,075,*76
$GPRMC,163617.000,A,2233.2052,N,11413.8083,E,0.0,105.6,040191,,,A*65
$GPGGA,163617.000,2233.2052,N,11413.8083,E,1,05,2.0,49.4,M,14.2,M,,0000*61
$GPVTG,105.6,T,,M,0.0,N,0.0,K,A*0F
$GPGLL,2233.2052,N,11413.8083,E,163617.00,A,A*6D
$GPGSA,A,3,10,12,15,26,27,,,,,,,,2.4,2.0,1.3*33
$GPRMC,163618.000,A,2233.2052,N,11413.8083,E,0.0,105.6,040191,,,A*6A
$GPGGA,163618.000,2233.2052,N,11413.8083,E,1,05,2.0,49.4,M,14.2,M,,0000*6E
$GPVTG,105.6,T,,M,0.0,N,0.0,K,A*0F
$GPGLL,2233.2052,N,11413.8083,E,163618.00,A,A*62
$GPGSA,A,3,10,12,15,26,27,,,,,,,,2.4,2.0,1.3*33
$GPRMC,163619.000,A,2233.2052,N,11413.8083,E,0.0,105.6,040191,,,A*6B
$GPGGA,163619.000,2233.2052,N,11413.8083,E,1,05,2.0,49.4,M,14.2,M,,0000*6F
$GPVTG,105.6,T,,M,0.0,N,0.0,K,A*0F
$GPGLL,2233.2052,N,11413.8083,E,163619.00,A,A*63
$GPGSA,A,3,10,12,15,26,27,,,,,,,,2.4,2.0,1.3*33
$GPRMC,163620.000,A,2233.2052,N,11413.8083,E,0.0,105.6,040191,,,A*61
$GPGGA,163620.000,2233.2052,N,11413.8083,E,1,05,2.0,49.4,M,14.2,M,,0000*65
$GPVTG,105.6,T,,M,0.0,N,0.0,K,A*0F
$GPGLL,2233.2052,N,11413.8083,E,163620.00,A,A*69
$GPGSA,A,3,10,12,15,26,27,,,,,,,,2.4,2.0,1.3*33
$GPRMC,163621.000,A,2233.2052,N,11413.8083,E,0.0,105.6,040191,,,A*60
$GPGGA,163621.000,2233.2052,N,11413.8083,E,1,05,2.0,49.4,M,14.2,M,,0000*64
$GPVTG,105.6,T,,M,0.0,N,0.0,K,A*0F
$GPGLL,2233.2052,N,11413.8083,E,163621.00,A,A*68
$GPGSA,A,3,10,12,15,26,27,,,,,,,,2.4,2.0,1.3*33
$GPGSV,3,1,10,10,22,048,18,27,09,175,35,12,06,220,27,26,80,155,34*7D
$GPGSV,3,2,10,15,56,210,41,29,35,306,20,02,50,089,,05,48,007,*7A
$GPGSV,3,3,10,04,16,112,,08,14,075,*76
$GPRMC,163622.000,A,2233.2052,N,11413.8083,E,0.0,105.6,040191,,,A*63
$GPGGA,163622.000,2233.2052,N,11413.8083,E,1,05,2.0,49.4,M,14.2,M,,0000*67
$GPVTG,105.6,T,,M,0.0,N,0.0,K,A*0F
$GPGLL,2233.2052,N,11413.8083,E,163622.00,A,A*6B
$GPGSA,A,3,10,12,15,26,27,,,,,,,,2.4,2.0,1.3*33
$GPRMC,163623.000,A,2233.2052,N,11413.8083,E,0.0,105.6,040191,,,A*62
$GPGGA,163623.000,2233.2052,N,11413.8083,E,1,06,1.4,49.4,M,14.2,M,,0000*62
$GPVTG,105.6,T,,M,0.0,N,0.0,K,A*0F
$GPGLL,2233.2052,N,11413.8083,E,163623.00,A,A*6A
$GPGSA,A,3,04,10,12,15,26,27,,,,,,,1.9,1.4,1.3*3E
$GPRMC,163624.000,A,2233.2052,N,11413.8083,E,0.0,105.6,040191,,,A*65
$GPGGA,163624.000,2233.2052,N,11413.8083,E,1,06,1.4,49.4,M,14.2,M,,0000*65
$GPVTG,105.6,T,,M,0.0,N,0.0,K,A*0F
$GPGLL,2233.2052,N,11413.8083,E,163624.00,A,A*6D
$GPGSA,A,3,04,10,12,15,26,27,,,,,,,1.9,1.4,1.3*3E
$GPRMC,163625.000,A,2233.2052,N,11413.8083,E,0.0,105.6,040191,,,A*64
$GPGGA,163625.000,2233.2052,N,11413.8083,E,1,05,2.0,49.4,M,14.2,M,,0000*60
$GPVTG,105.6,T,,M,0.0,N,0.0,K,A*0F
$GPGLL,2233.2052,N,11413.8083,E,163625.00,A,A*6C
$GPGSA,A,3,10,12,15,26,27,,,,,,,,2.4,2.0,1.3*33
$GPRMC,163626.000,A,2233.2052,N,11413.8083,E,0.0,105.6,040191,,,A*67
$GPGGA,163626.000,2233.2052,N,11413.8083,E,1,07,1.4,49.4,M,14.2,M,,0000*66
$GPVTG,105.6,T,,M,0.0,N,0.0,K,A*0F
$GPGLL,2233.2052,N,11413.8083,E,163626.00,A,A*6F
$GPGSA,A,3,02,04,10,12,15,26,27,,,,,,1.8,1.4,1.2*3C
$GPGSV,3,1,10,10,22,048,15,02,50,089,12,04,16,112,12,27,09,175,35*7D
$GPGSV,3,2,10,12,06,220,26,26,80,155,35,15,56,210,41,29,35,306,19*72
$GPGSV,3,3,10,05,48,007,,08,14,075,*79
$GPRMC,163627.000,A,2233.2052,N,11413.8083,E,0.0,105.6,040191,,,A*66
$GPGGA,163627.000,2233.2052,N,11413.8083,E,1,07,1.4,49.4,M,14.2,M,,0000*67
$GPVTG,105.6,T,,M,0.0,N,0.0,K,A*0F
$GPGLL,2233.2052,N,11413.8083,E,163627.00,A,A*6E
$GPGSA,A,3,02,04,10,12,15,26,27,,,,,,1.8,1.4,1.2*3C
$GPRMC,163628.000,A,2233.2052,N,11413.8083,E,0.0,105.6,040191,,,A*69
$GPGGA,163628.000,2233.2052,N,11413.8083,E,1,07,1.4,49.4,M,14.2,M,,0000*68
$GPVTG,105.6,T,,M,0.0,N,0.0,K,A*0F
$GPGLL,2233.2052,N,11413.8083,E,163628.00,A,A*61
$GPGSA,A,3,02,04,10,12,15,26,27,,,,,,1.8,1.4,1.2*3C
$GPRMC,163629.000,A,2233.2052,N,11413.8083,E,0.0,105.6,040191,,,A*68
$GPGGA,163629.000,2233.2052,N,11413.8083,E,1,07,1.4,49.4,M,14.2,M,,0000*69
$GPVTG,105.6,T,,M,0.0,N,0.0,K,A*0F
$GPGLL,2233.2052,N,11413.8083,E,163629.00,A,A*60
$GPGSA,A,3,02,04,10,12,15,26,27,,,,,,1.8,1.4,1.2*3C
$GPRMC,163630.000,A,2233.2052,N,11413.8083,E,0.0,105.6,040191,,,A*60
$GPGGA,163630.000,2233.2052,N,11413.8083,E,1,06,2.8,49.4,M,14.2,M,,0000*6F
$GPVTG,105.6,T,,M,0.0,N,0.0,K,A*0F
$GPGLL,2233.2052,N,11413.8083,E,163630.00,A,A*68
$GPGSA,A,3,02,04,12,15,26,27,,,,,,,3.5,2.8,2.1*3D
$GPRMC,163631.000,A,2233.2052,N,11413.8083,E,0.0,105.6,040191,,,A*61
$GPGGA,163631.000,2233.2052,N,11413.8083,E,1,06,2.8,49.4,M,14.2,M,,0000*6E
$GPVTG,105.6,T,,M,0.0,N,0.0,K,A*0F
$GPGLL,2233.2052,N,11413.8083,E,163631.00,A,A*69
$GPGSA,A,3,02,04,12,15,26,27,,,,,,,3.5,2.8,2.1*3D
$GPGSV,3,1,10,10,22,048,20,05,48,007,12,02,50,089,14,04,16,112,11*7A
$GPGSV,3,2,10,27,09,175,35,12,06,220,22,26,80,154,35,15,56,210,41*7E
$GPGSV,3,3,10,29,35,306,18,08,14,075,*76
$GPRMC,163632.000,A,2233.2052,N,11413.8083,E,0.0,105.6,040191,,,A*62
$GPGGA,163632.000,2233.2052,N,11413.8083,E,1,06,1.6,49.4,M,14.2,M,,0000*60
$GPVTG,105.6,T,,M,0.0,N,0.0,K,A*0F
$GPGLL,2233.2052,N,11413.8083,E,163632.00,A,A*6A
$GPGSA,A,3,02,05,12,15,26,27,,,,,,,2.3,1.6,1.6*32
$GPRMC,163633.000,A,2233.2052,N,11413.8083,E,0.0,105.6,040191,,,A*63
$GPGGA,163633.000,2233.2052,N,11413.8083,E,1,06,1.6,49.4,M,14.2,M,,0000*61
$GPVTG,105.6,T,,M,0.0,N,0.0,K,A*0F
$GPGLL,2233.2052,N,11413.8083,E,163633.00,A,A*6B
$GPGSA,A,3,02,05,12,15,26,27,,,,,,,2.3,1.6,1.6*32
$GPRMC,163634.000,A,2233.2052,N,11413.8083,E,0.0,105.6,040191,,,A*64
$GPGGA,163634.000,2233.2052,N,11413.8083,E,1,05,2.9,49.4,M,14.2,M,,0000*69
$GPVTG,105.6,T,,M,0.0,N,0.0,K,A*0F
$GPGLL,2233.2052,N,11413.8083,E,163634.00,A,A*6C
$GPGSA,A,3,02,12,15,26,27,,,,,,,,3.7,2.9,2.3*38
$GPRMC,163635.000,A,2233.2052,N,11413.8083,E,0.0,105.6,040191,,,A*65
$GPGGA,163635.000,2233.2052,N,11413.8083,E,1,05,2.9,49.4,M,14.2,M,,0000*68
$GPVTG,105.6,T,,M,0.0,N,0.0,K,A*0F
$GPGLL,2233.2052,N,11413.8083,E,163635.00,A,A*6D
$GPGSA,A,3,02,12,15,26,27,,,,,,,,3.7,2.9,2.3*38
$GPRMC,163636.000,A,2233.2052,N,11413.8083,E,0.0,105.6,040191,,,A*66
$GPGGA,163636.000,2233.2052,N,11413.8083,E,1,06,1.8,49.4,M,14.2,M,,0000*6A
$GPVTG,105.6,T,,M,0.0,N,0.0,K,A*0F
$GPGLL,2233.2052,N,11413.8083,E,163636.00,A,A*6E
$GPGSA,A,3,02,10,12,15,26,27,,,,,,,2.2,1.8,1.3*3C
$GPGSV,3,1,10,10,22,048,15,02,50,090,14,27,09,175,36,12,06,220,20*75
$GPGSV,3,2,10,26,80,154,36,15,56,210,42,29,35,306,18,05,48,007,*7D
$GPGSV,3,3,10,04,16,112,,08,14,075,*76
$GPRMC,163637.000,A,2233.2052,N,11413.8083,E,0.0,105.6,040191,,,A*67
$GPGGA,163637.000,2233.2052,N,11413.8083,E,1,06,1.8,49.4,M,14.2,M,,0000*6B
$GPVTG,105.6,T,,M,0.0,N,0.0,K,A*0F
$GPGLL,2233.2052,N,11413.8083,E,163637.00,A,A*6F
$GPGSA,A,3,02,10,12,15,26,27,,,,,,,2.2,1.8,1.3*3C
$GPRMC,163638.000,A,2233.2052,N,11413.8083,E,0.0,105.6,040191,,,A*68
$GPGGA,163638.000,2233.2052,N,11413.8083,E,1,06,1.8,49.4,M,14.2,M,,0000*64
$GPVTG,105.6,T,,M,0.0,N,0.0,K,A*0F
$GPGLL,2233.2052,N,11413.8083,E,163638.00,A,A*60
$GPGSA,A,3,02,10,12,15,26,27,,,,,,,2.2,1.8,1.3*3C
$GPRMC,163639.000,A,2233.2052,N,11413.8083,E,0.0,105.6,040191,,,A*69
$GPGGA,163639.000,2233.2052,N,11413.8083,E,1,06,1.8,49.4,M,14.2,M,,0000*65
$GPVTG,105.6,T,,M,0.0,N,0.0,K,A*0F
$GPGLL,2233.2052,N,11413.8083,E,163639.00,A,A*61
$GPGSA,A,3,02,10,12,15,26,27,,,,,,,2.2,1.8,1.3*3C
$GPRMC,163640.000,A,2233.2052,N,11413.8083,E,0.0,105.6,040191,,,A*67
$GPGGA,163640.000,2233.2052,N,11413.8083,E,1,06,1.8,49.4,M,14.2,M,,0000*6B
$GPVTG,105.6,T,,M,0.0,N,0.0,K,A*0F
$GPGLL,2233.2052,N,11413.8083,E,163640.00,A,A*6F
$GPGSA,A,3,02,10,12,15,26,27,,,,,,,2.2,1.8,1.3*3C
$GPRMC,163641.000,A,2233.2052,N,11413.8083,E,0.0,105.6,040191,,,A*66
$GPGGA,163641.000,2233.2052,N,11413.8083,E,1,06,1.8,49.4,M,14.2,M,,0000*6A
$GPVTG,105.6,T,,M,0.0,N,0.0,K,A*0F
$GPGLL,2233.2052,N,11413.8083,E,163641.00,A,A*6E
$GPGSA,A,3,02,10,12,15,26,27,,,,,,,2.2,1.8,1.3*3C
$GPGSV,3,1,10,10,22,048,15,02,50,090,16,27,09,175,36,12,06,220,23*74
$GPGSV,3,2,10,26,80,154,36,15,56,210,41,29,36,306,17,05,48,007,*72
$GPGSV,3,3,10,04,16,113,,08,14,075,*77
$GPRMC,163642.000,A,2233.2052,N,11413.8083,E,0.0,105.6,040191,,,A*65
$GPGGA,163642.000,2233.2052,N,11413.8083,E,1,06,1.8,49.4,M,14.2,M,,0000*69
$GPVTG,105.6,T,,M,0.0,N,0.0,K,A*0F
$GPGLL,2233.2052,N,11413.8083,E,163642.00,A,A*6D
$GPGSA,A,3,02,10,12,15,26,27,,,,,,,2.2,1.8,1.3*3C
$GPRMC,163643.000,A,2233.2052,N,11413.8083,E,0.0,105.6,040191,,,A*64
$GPGGA,163643.000,2233.2052,N,11413.8083,E,1,07,1.4,49.4,M,14.2,M,,0000*65
$GPVTG,105.6,T,,M,0.0,N,0.0,K,A*0F
$GPGLL,2233.2052,N,11413.8083,E,163643.00,A,A*6C
$GPGSA,A,3,02,05,10,12,15,26,27,,,,,,1.9,1.4,1.3*3D
$GPRMC,163644.000,A,2233.2052,N,11413.8083,E,0.0,105.6,040191,,,A*63
$GPGGA,163644.000,2233.2052,N,11413.8083,E,1,07,1.4,49.4,M,14.2,M,,0000*62
$GPVTG,105.6,T,,M,0.0,N,0.0,K,A*0F
$GPGLL,2233.2052,N,11413.8083,E,163644.00,A,A*6B
$GPGSA,A,3,02,05,10,12,15,26,27,,,,,,1.9,1.4,1.3*3D
$GPRMC,163645.000,A,2233.2052,N,11413.8083,E,0.0,105.6,040191,,,A*62
$GPGGA,163645.000,2233.2052,N,11413.8083,E,1,06,1.8,49.4,M,14.2,M,,0000*6E
$GPVTG,105.6,T,,M,0.0,N,0.0,K,A*0F
$GPGLL,2233.2052,N,11413.8083,E,163645.00,A,A*6A
$GPGSA,A,3,02,10,12,15,26,27,,,,,,,2.2,1.8,1.3*3C
$GPRMC,163646.000,A,2233.2052,N,11413.8083,E,0.0,105.6,040191,,,A*61
$GPGGA,163646.000,2233.2052,N,11413.8083,E,1,06,1.8,49.4,M,14.2,M,,0000*6D
$GPVTG,105.6,T,,M,0.0,N,0.0,K,A*0F
$GPGLL,2233.2052,N,11413.8083,E,163646.00,A,A*69
$GPGSA,A,3,02,10,12,15,26,27,,,,,,,2.2,1.8,1.3*3C
$GPGSV,3,1,10,10,22,048,16,05,48,007,14,02,50,090,14,27,09,175,36*7A
$GPGSV,3,2,10,12,06,220,27,26,80,154,36,15,56,210,41,29,36,305,17*7F
$GPGSV,3,3,10,04,16,113,,08,14,075,*77
$GPRMC,163647.000,A,2233.2052,N,11413.8083,E,0.0,105.6,040191,,,A*60
$GPGGA,163647.000,2233.2052,N,11413.8083,E,1,06,1.8,49.4,M,14.2,M,,0000*6C
$GPVTG,105.6,T,,M,0.0,N,0.0,K,A*0F
$GPGLL,2233.2052,N,11413.8083,E,163647.00,A,A*68
$GPGSA,A,3,02,10,12,15,26,27,,,,,,,2.2,1.8,1.3*3C
$GPRMC,163648.000,A,2233.2052,N,11413.8083,E,0.0,105.6,040191,,,A*6F
$GPGGA,163648.000,2233.2052,N,11413.8083,E,1,06,1.8,49.4,M,14.2,M,,0000*63
$GPVTG,105.6,T,,M,0.0,N,0.0,K,A*0F
$GPGLL,2233.2052,N,11413.8083,E,163648.00,A,A*67
$GPGSA,A,3,02,10,12,15,26,27,,,,,,,2.2,1.8,1.3*3C
$GPRMC,163649.000,A,2233.2052,N,11413.8083,E,0.0,105.6,040191,,,A*6E
$GPGGA,163649.000,2233.2052,N,11413.8083,E,1,06,1.8,49.4,M,14.2,M,,0000*62
$GPVTG,105.6,T,,M,0.0,N,0.0,K,A*0F
$GPGLL,2233.2052,N,11413.8083,E,163649.00,A,A*66
$GPGSA,A,3,02,10,12,15,26,27,,,,,,,2.2,1.8,1.3*3C
$GPRMC,163650.000,A,2233.2052,N,11413.8083,E,0.0,105.6,040191,,,A*66
$GPGGA,163650.000,2233.2052,N,11413.8083,E,1,06,1.8,49.4,M,14.2,M,,0000*6A
$GPVTG,105.6,T,,M,0.0,N,0.0,K,A*0F
$GPGLL,2233.2052,N,11413.8083,E,163650.00,A,A*6E
$GPGSA,A,3,02,10,12,15,26,27,,,,,,,2.2,1.8,1.3*3C
$GPRMC,163651.000,A,2233.2052,N,11413.8083,E,0.0,105.6,040191,,,A*67
$GPGGA,163651.000,2233.2052,N,11413.8083,E,1,07,1.4,49.4,M,14.2,M,,0000*66
$GPVTG,105.6,T,,M,0.0,N,0.0,K,A*0F
$GPGLL,2233.2052,N,11413.8083,E,163651.00,A,A*6F
$GPGSA,A,3,02,05,10,12,15,26,27,,,,,,1.9,1.4,1.3*3D
$GPGSV,3,1,10,10,22,048,16,05,48,007,16,02,50,090,14,27,09,175,36*78
$GPGSV,3,2,10,12,06,220,28,26,80,154,36,15,56,210,41,29,36,305,17*70
$GPGSV,3,3,10,04,16,113,,08,14,075,*77
$GPRMC,163652.000,A,2233.2052,N,11413.8083,E,0.0,105.6,040191,,,A*64
$GPGGA,163652.000,2233.2052,N,11413.8083,E,1,07,1.4,49.4,M,14.2,M,,0000*65
$GPVTG,105.6,T,,M,0.0,N,0.0,K,A*0F
$GPGLL,2233.2052,N,11413.8083,E,163652.00,A,A*6C
$GPGSA,A,3,02,05,10,12,15,26,27,,,,,,1.9,1.4,1.3*3D
$GPRMC,163653.000,A,2233.2052,N,11413.8083,E,0.0,105.6,040191,,,A*65
$GPGGA,163653.000,2233.2052,N,11413.8083,E,1,07,1.4,49.4,M,14.2,M,,0000*64
$GPVTG,105.6,T,,M,0.0,N,0.0,K,A*0F
$GPGLL,2233.2052,N,11413.8083,E,163653.00,A,A*6D
$GPGSA,A,3,02,05,10,12,15,26,27,,,,,,1.9,1.4,1.3*3D
$GPRMC,163654.000,A,2233.2052,N,11413.8083,E,0.0,105.6,040191,,,A*62
$GPGGA,163654.000,2233.2052,N,11413.8083,E,1,07,1.4,49.4,M,14.2,M,,0000*63
$GPVTG,105.6,T,,M,0.0,N,0.0,K,A*0F
$GPGLL,2233.2052,N,11413.8083,E,163654.00,A,A*6A
$GPGSA,A,3,02,05,10,12,15,26,27,,,,,,1.9,1.4,1.3*3D
$GPRMC,163655.000,A,2233.2052,N,11413.8083,E,0.0,105.6,040191,,,A*63
$GPGGA,163655.000,2233.2052,N,11413.8083,E,1,07,1.4,49.4,M,14.2,M,,0000*62
$GPVTG,105.6,T,,M,0.0,N,0.0,K,A*0F
$GPGLL,2233.2052,N,11413.8083,E,163655.00,A,A*6B
$GPGSA,A,3,02,05,10,12,15,26,27,,,,,,1.9,1.4,1.3*3D
$GPRMC,163656.000,A,2233.2052,N,11413.8083,E,0.0,105.6,040191,,,A*60
$GPGGA,163656.000,2233.2052,N,11413.8083,E,1,07,1.4,49.4,M,14.2,M,,0000*61
$GPVTG,105.6,T,,M,0.0,N,0.0,K,A*0F
$GPGLL,2233.2052,N,11413.8083,E,163656.00,A,A*68
$GPGSA,A,3,02,05,10,12,15,26,27,,,,,,1.9,1.4,1.3*3D
$GPGSV,3,1,10,10,22,048,19,05,48,007,18,02,50,090,12,27,09,175,36*7F
$GPGSV,3,2,10,12,06,220,27,26,80,154,37,15,56,210,41,29,36,305,*78
$GPGSV,3,3,10,04,16,113,,08,14,075,*77
$GPRMC,163657.000,A,2233.2052,N,11413.8083,E,0.0,105.6,040191,,,A*61
$GPGGA,163657.000,2233.2052,N,11413.8083,E,1,07,1.4,49.4,M,14.2,M,,0000*60
$GPVTG,105.6,T,,M,0.0,N,0.0,K,A*0F
$GPGLL,2233.2052,N,11413.8083,E,163657.00,A,A*69
$GPGSA,A,3,02,05,10,12,15,26,27,,,,,,1.9,1.4,1.3*3D
$GPRMC,163658.000,A,2233.2052,N,11413.8083,E,0.0,105.6,040191,,,A*6E
$GPGGA,163658.000,2233.2052,N,11413.8083,E,1,07,1.4,49.4,M,14.2,M,,0000*6F
$GPVTG,105.6,T,,M,0.0,N,0.0,K,A*0F
$GPGLL,2233.2052,N,11413.8083,E,163658.00,A,A*66
$GPGSA,A,3,02,05,10,12,15,26,27,,,,,,1.9,1.4,1.3*3D
$GPRMC,163659.000,A,2233.2052,N,11413.8083,E,0.0,105.6,040191,,,A*6F
$GPGGA,163659.000,2233.2052,N,11413.8083,E,1,07,1.4,49.4,M,14.2,M,,0000*6E
$GPVTG,105.6,T,,M,0.0,N,0.0,K,A*0F
$GPGLL,2233.2052,N,11413.8083,E,163659.00,A,A*67
$GPGSA,A,3,02,05,10,12,15,26,27,,,,,,1.9,1.4,1.3*3D
$GPRMC,163700.000,A,2233.2052,N,11413.8083,E,0.0,105.6,040191,,,A*62
$GPGGA,163700.000,2233.2052,N,11413.8083,E,1,07,1.4,49.4,M,14.2,M,,0000*63
$GPVTG,105.6,T,,M,0.0,N,0.0,K,A*0F
$GPGLL,2233.2052,N,11413.8083,E,163700.00,A,A*6A
$GPGSA,A,3,02,05,10,12,15,26,27,,,,,,1.9,1.4,1.3*3D
$GPRMC,163701.000,A,2233.2052,N,11413.8083,E,0.0,105.6,040191,,,A*63
$GPGGA,163701.000,2233.2052,N,11413.8083,E,1,07,1.4,49.4,M,14.2,M,,0000*62
$GPVTG,105.6,T,,M,0.0,N,0.0,K,A*0F
$GPGLL,2233.2052,N,11413.8083,E,163701.00,A,A*6B
$GPGSA,A,3,02,05,10,12,15,26,27,,,,,,1.9,1.4,1.3*3D
$GPGSV,3,1,10,10,22,048,23,05,48,007,18,02,50,090,12,27,09,175,35*75
$GPGSV,3,2,10,12,06,220,29,26,80,154,36,15,56,210,42,29,36,305,*74
$GPGSV,3,3,10,04,16,113,,08,14,075,*77
$GPRMC,163702.000,A,2233.2052,N,11413.8083,E,0.0,105.6,040191,,,A*60
$GPGGA,163702.000,2233.2052,N,11413.8083,E,1,07,1.4,49.4,M,14.2,M,,0000*61
$GPVTG,105.6,T,,M,0.0,N,0.0,K,A*0F
$GPGLL,2233.2052,N,11413.8083,E,163702.00,A,A*68
$GPGSA,A,3,02,05,10,12,15,26,27,,,,,,1.9,1.4,1.3*3D
$GPRMC,163703.000,A,2233.2052,N,11413.8083,E,0.0,105.6,040191,,,A*61
$GPGGA,163703.000,2233.2052,N,11413.8083,E,1,07,1.4,49.4,M,14.2,M,,0000*60
$GPVTG,105.6,T,,M,0.0,N,0.0,K,A*0F
$GPGLL,2233.2052,N,11413.8083,E,163703.00,A,A*69
$GPGSA,A,3,02,05,10,12,15,26,27,,,,,,1.9,1.4,1.3*3D
$GPRMC,163704.000,A,2233.2052,N,11413.8083,E,0.0,105.6,040191,,,A*66
$GPGGA,163704.000,2233.2052,N,11413.8083,E,1,07,1.4,49.4,M,14.2,M,,0000*67
$GPVTG,105.6,T,,M,0.0,N,0.0,K,A*0F
$GPGLL,2233.2052,N,11413.8083,E,163704.00,A,A*6E
$GPGSA,A,3,02,05,10,12,15,26,27,,,,,,1.9,1.4,1.3*3D
$GPRMC,163705.000,A,2233.2052,N,11413.8083,E,0.0,105.6,040191,,,A*67
$GPGGA,163705.000,2233.2052,N,11413.8083,E,1,07,1.4,49.4,M,14.2,M,,0000*66
$GPVTG,105.6,T,,M,0.0,N,0.0,K,A*0F
$GPGLL,2233.2052,N,11413.8083,E,163705.00,A,A*6F
$GPGSA,A,3,02,05,10,12,15,26,27,,,,,,1.9,1.4,1.3*3D
$GPRMC,163706.000,A,2233.2052,N,11413.8083,E,0.0,105.6,040191,,,A*64
$GPGGA,163706.000,2233.2052,N,11413.8083,E,1,06,1.6,49.4,M,14.2,M,,0000*66
$GPVTG,105.6,T,,M,0.0,N,0.0,K,A*0F
$GPGLL,2233.2052,N,11413.8083,E,163706.00,A,A*6C
$GPGSA,A,3,05,10,12,15,26,27,,,,,,,2.1,1.6,1.3*36
$GPGSV,3,1,10,10,22,048,24,05,48,007,17,02,50,090,11,27,09,175,35*7E
$GPGSV,3,2,10,12,06,220,28,26,80,153,35,15,56,210,41,29,36,305,*72
$GPGSV,3,3,10,04,16,113,,08,14,075,*77
$GPRMC,163707.000,A,2233.2052,N,11413.8083,E,0.0,105.6,040191,,,A*65
$GPGGA,163707.000,2233.2052,N,11413.8083,E,1,06,1.6,49.4,M,14.2,M,,0000*67
$GPVTG,105.6,T,,M,0.0,N,0.0,K,A*0F
$GPGLL,2233.2052,N,11413.8083,E,163707.00,A,A*6D
$GPGSA,A,3,05,10,12,15,26,27,,,,,,,2.1,1.6,1.3*36
$GPRMC,163708.000,A,2233.2052,N,11413.8083,E,0.0,105.6,040191,,,A*6A
$GPGGA,163708.000,2233.2052,N,11413.8083,E,1,06,1.6,49.4,M,14.2,M,,0000*68
$GPVTG,105.6,T,,M,0.0,N,0.0,K,A*0F
$GPGLL,2233.2052,N,11413.8083,E,163708.00,A,A*62
$GPGSA,A,3,05,10,12,15,26,27,,,,,,,2.1,1.6,1.3*36
$GPRMC,163709.000,A,2233.2052,N,11413.8083,E,0.0,105.6,040191,,,A*6B
$GPGGA,163709.000,2233.2052,N,11413.8083,E,1,06,1.6,49.4,M,14.2,M,,0000*69
$GPVTG,105.6,T,,M,0.0,N,0.0,K,A*0F
$GPGLL,2233.2052,N,11413.8083,E,163709.00,A,A*63
$GPGSA,A,3,05,10,12,15,26,27,,,,,,,2.1,1.6,1.3*36
$GPRMC,163710.000,A,2233.2052,N,11413.8083,E,0.0,105.6,040191,,,A*63
$GPGGA,163710.000,2233.2052,N,11413.8083,E,1,06,1.6,49.4,M,14.2,M,,0000*61
$GPVTG,105.6,T,,M,0.0,N,0.0,K,A*0F
$GPGLL,2233.2052,N,11413.8083,E,163710.00,A,A*6B
$GPGSA,A,3,05,10,12,15,26,27,,,,,,,2.1,1.6,1.3*36
$GPRMC,163711.000,A,2233.2052,N,11413.8083,E,0.0,105.6,040191,,,A*62
$GPGGA,163711.000,2233.2052,N,11413.8083,E,1,07,1.4,49.4,M,14.2,M,,0000*63
$GPVTG,105.6,T,,M,0.0,N,0.0,K,A*0F
$GPGLL,2233.2052,N,11413.8083,E,163711.00,A,A*6A
$GPGSA,A,3,02,05,10,12,15,26,27,,,,,,1.9,1.4,1.3*3D
$GPGSV,3,1,10,10,22,048,23,05,48,008,18,02,50,090,17,27,09,175,33*79
$GPGSV,3,2,10,12,06,220,27,26,80,153,35,15,56,210,42,29,36,305,*7E
$GPGSV,3,3,10,04,16,113,,08,14,075,*77
$GPRMC,163712.000,A,2233.2052,N,11413.8083,E,0.0,105.6,040191,,,A*61
$GPGGA,163712.000,2233.2052,N,11413.8083,E,1,07,1.4,49.4,M,14.2,M,,0000*60
$GPVTG,105.6,T,,M,0.0,N,0.0,K,A*0F
$GPGLL,2233.2052,N,11413.8083,E,163712.00,A,A*69
$GPGSA,A,3,02,05,10,12,15,26,27,,,,,,1.9,1.4,1.3*3D
$GPRMC,163713.000,A,2233.2052,N,11413.8083,E,0.0,105.6,040191,,,A*60
$GPGGA,163713.000,2233.2052,N,11413.8083,E,1,07,1.4,49.4,M,14.2,M,,0000*61
$GPVTG,105.6,T,,M,0.0,N,0.0,K,A*0F
$GPGLL,2233.2052,N,11413.8083,E,163713.00,A,A*68
$GPGSA,A,3,02,05,10,12,15,26,27,,,,,,1.9,1.4,1.3*3D
$GPRMC,163714.000,A,2233.2052,N,11413.8083,E,0.0,105.6,040191,,,A*67
$GPGGA,163714.000,2233.2052,N,11413.8083,E,1,07,1.4,49.4,M,14.2,M,,0000*66
$GPVTG,105.6,T,,M,0.0,N,0.0,K,A*0F
$GPGLL,2233.2052,N,11413.8083,E,163714.00,A,A*6F
$GPGSA,A,3,02,05,10,12,15,26,27,,,,,,1.9,1.4,1.3*3D
$GPRMC,163715.000,A,2233.2052,N,11413.8083,E,0.0,105.6,040191,,,A*66
$GPGGA,163715.000,2233.2052,N,11413.8083,E,1,07,1.4,49.4,M,14.2,M,,0000*67
$GPVTG,105.6,T,,M,0.0,N,0.0,K,A*0F
$GPGLL,2233.2052,N,11413.8083,E,163715.00,A,A*6E
$GPGSA,A,3,02,05,10,12,15,26,27,,,,,,1.9,1.4,1.3*3D
$GPRMC,163716.000,A,2233.2052,N,11413.8083,E,0.0,105.6,040191,,,A*65
$GPGGA,163716.000,2233.2052,N,11413.8083,E,1,07,1.4,49.4,M,14.2,M,,0000*64
$GPVTG,105.6,T,,M,0.0,N,0.0,K,A*0F
$GPGLL,2233.2052,N,11413.8083,E,163716.00,A,A*6D
$GPGSA,A,3,02,05,10,12,15,26,27,,,,,,1.9,1.4,1.3*3D
$GPGSV,3,1,10,10,22,048,20,05,48,008,18,02,50,090,16,27,09,175,34*7C
$GPGSV,3,2,10,12,06,219,24,26,80,153,35,15,56,210,42,29,36,305,*77
$GPGSV,3,3,10,04,16,113,,08,14,075,*77
$GPRMC,163717.000,A,2233.2052,N,11413.8083,E,0.0,105.6,040191,,,A*64
$GPGGA,163717.000,2233.2052,N,11413.8083,E,1,07,1.4,49.4,M,14.2,M,,0000*65
$GPVTG,105.6,T,,M,0.0,N,0.0,K,A*0F
$GPGLL,2233.2052,N,11413.8083,E,163717.00,A,A*6C
$GPGSA,A,3,02,05,10,12,15,26,27,,,,,,1.9,1.4,1.3*3D
$GPRMC,163718.000,A,2233.2052,N,11413.8083,E,0.0,105.6,040191,,,A*6B
$GPGGA,163718.000,2233.2052,N,11413.8083,E,1,07,1.4,49.4,M,14.2,M,,0000*6A
$GPVTG,105.6,T,,M,0.0,N,0.0,K,A*0F
$GPGLL,2233.2052,N,11413.8083,E,163718.00,A,A*63
$GPGSA,A,3,02,05,10,12,15,26,27,,,,,,1.9,1.4,1.3*3D
$GPRMC,163719.000,A,2233.2052,N,11413.8083,E,0.0,105.6,040191,,,A*6A
$GPGGA,163719.000,2233.2052,N,11413.8083,E,1,07,1.4,49.4,M,14.2,M,,0000*6B
$GPVTG,105.6,T,,M,0.0,N,0.0,K,A*0F
$GPGLL,2233.2052,N,11413.8083,E,163719.00,A,A*62
$GPGSA,A,3,02,05,10,12,15,26,27,,,,,,1.9,1.4,1.3*3D
$GPRMC,163720.000,A,2233.2052,N,11413.8083,E,0.0,105.6,040191,,,A*60
$GPGGA,163720.000,2233.2052,N,11413.8083,E,1,07,1.4,49.4,M,14.2,M,,0000*61
$GPVTG,105.6,T,,M,0.0,N,0.0,K,A*0F
$GPGLL,2233.2052,N,11413.8083,E,163720.00,A,A*68
$GPGSA,A,3,02,05,10,12,15,26,27,,,,,,1.9,1.4,1.3*3D
$GPRMC,163721.000,A,2233.2052,N,11413.8083,E,0.0,105.6,040191,,,A*61
$GPGGA,163721.000,2233.2052,N,11413.8083,E,1,07,1.4,49.4,M,14.2,M,,0000*60
$GPVTG,105.6,T,,M,0.0,N,0.0,K,A*0F
$GPGLL,2233.2052,N,11413.8083,E,163721.00,A,A*69
$GPGSA,A,3,02,05,10,12,15,26,27,,,,,,1.9,1.4,1.3*3D
$GPGSV,3,1,10,10,22,048,20,05,48,008,19,02,50,090,16,27,09,175,33*7A
$GPGSV,3,2,10,12,06,219,26,26,80,153,33,15,56,210,42,29,36,305,16*74
$GPGSV,3,3,10,04,16,113,,08,14,075,*77
$GPRMC,163722.000,A,2233.2052,N,11413.8083,E,0.0,105.6,040191,,,A*62
$GPGGA,163722.000,2233.2052,N,11413.8083,E,1,07,1.4,49.4,M,14.2,M,,0000*63
$GPVTG,105.6,T,,M,0.0,N,0.0,K,A*0F
$GPGLL,2233.2052,N,11413.8083,E,163722.00,A,A*6A
$GPGSA,A,3,02,05,10,12,15,26,27,,,,,,1.9,1.4,1.3*3D
$GPRMC,163723.000,A,2233.2052,N,11413.8083,E,0.0,105.6,040191,,,A*63
$GPGGA,163723.000,2233.2052,N,11413.8083,E,1,07,1.4,49.4,M,14.2,M,,0000*62
$GPVTG,105.6,T,,M,0.0,N,0.0,K,A*0F
$GPGLL,2233.2052,N,11413.8083,E,163723.00,A,A*6B
$GPGSA,A,3,02,05,10,12,15,26,27,,,,,,1.9,1.4,1.3*3D
$GPRMC,163724.000,A,2233.2052,N,11413.8083,E,0.0,105.6,040191,,,A*64
$GPGGA,163724.000,2233.2052,N,11413.8083,E,1,07,1.4,49.4,M,14.2,M,,0000*65
$GPVTG,105.6,T,,M,0.0,N,0.0,K,A*0F
$GPGLL,2233.2052,N,11413.8083,E,163724.00,A,A*6C
$GPGSA,A,3,02,05,10,12,15,26,27,,,,,,1.8,1.4,1.2*3D
$GPRMC,163725.000,A,2233.2052,N,11413.8083,E,0.0,105.6,040191,,,A*65
$GPGGA,163725.000,2233.2052,N,11413.8083,E,1,07,1.4,49.4,M,14.2,M,,0000*64
$GPVTG,105.6,T,,M,0.0,N,0.0,K,A*0F
$GPGLL,2233.2052,N,11413.8083,E,163725.00,A,A*6D
$GPGSA,A,3,02,05,10,12,15,26,27,,,,,,1.8,1.4,1.2*3D
$GPRMC,163726.000,A,2233.2052,N,11413.8083,E,0.0,105.6,040191,,,A*66
$GPGGA,163726.000,2233.2052,N,11413.8083,E,1,07,1.4,49.4,M,14.2,M,,0000*67
$GPVTG,105.6,T,,M,0.0,N,0.0,K,A*0F
$GPGLL,2233.2052,N,11413.8083,E,163726.00,A,A*6E
$GPGSA,A,3,02,05,10,12,15,26,27,,,,,,1.8,1.4,1.2*3D
$GPGSV,3,1,10,10,22,048,23,05,48,008,18,02,50,090,15,27,09,175,34*7C
$GPGSV,3,2,10,12,06,219,26,26,80,153,33,15,56,210,41,29,36,305,*70
$GPGSV,3,3,10,04,16,113,,08,14,075,*77
$GPRMC,163727.000,A,2233.2052,N,11413.8083,E,0.0,105.6,040191,,,A*67
$GPGGA,163727.000,2233.2052,N,11413.8083,E,1,07,1.4,49.4,M,14.2,M,,0000*66
$GPVTG,105.6,T,,M,0.0,N,0.0,K,A*0F
$GPGLL,2233.2052,N,11413.8083,E,163727.00,A,A*6F
$GPGSA,A,3,02,05,10,12,15,26,27,,,,,,1.8,1.4,1.2*3D
$GPRMC,163728.000,A,2233.2052,N,11413.8083,E,0.0,105.6,040191,,,A*68
$GPGGA,163728.000,2233.2052,N,11413.8083,E,1,07,1.4,49.4,M,14.2,M,,0000*69
$GPVTG,105.6,T,,M,0.0,N,0.0,K,A*0F
$GPGLL,2233.2052,N,11413.8083,E,163728.00,A,A*60
$GPGSA,A,3,02,05,10,12,15,26,27,,,,,,1.8,1.4,1.2*3D
$GPRMC,163729.000,A,2233.2052,N,11413.8083,E,0.0,105.6,040191,,,A*69
$GPGGA,163729.000,2233.2052,N,11413.8083,E,1,07,1.4,49.4,M,14.2,M,,0000*68
$GPVTG,105.6,T,,M,0.0,N,0.0,K,A*0F
$GPGLL,2233.2052,N,11413.8083,E,163729.00,A,A*61
$GPGSA,A,3,02,05,10,12,15,26,27,,,,,,1.8,1.4,1.2*3D
$GPRMC,163730.000,A,2233.2052,N,11413.8083,E,0.0,105.6,040191,,,A*61
$GPGGA,163730.000,2233.2052,N,11413.8083,E,1,07,1.4,49.4,M,14.2,M,,0000*60
$GPVTG,105.6,T,,M,0.0,N,0.0,K,A*0F
$GPGLL,2233.2052,N,11413.8083,E,163730.00,A,A*69
$GPGSA,A,3,02,05,10,12,15,26,27,,,,,,1.8,1.4,1.2*3D
$GPRMC,163731.000,A,2233.2052,N,11413.8083,E,0.0,105.6,040191,,,A*60
$GPGGA,163731.000,2233.2052,N,11413.8083,E,1,07,1.4,49.4,M,14.2,M,,0000*61
$GPVTG,105.6,T,,M,0.0,N,0.0,K,A*0F
$GPGLL,2233.2052,N,11413.8083,E,163731.00,A,A*68
$GPGSA,A,3,02,05,10,12,15,26,27,,,,,,1.8,1.4,1.2*3D
$GPGSV,3,1,10,10,22,048,24,05,48,008,17,02,50,090,12,27,09,175,34*73
$GPGSV,3,2,10,12,06,219,27,26,80,153,32,15,56,210,40,29,36,305,19*79
$GPGSV,3,3,10,04,15,113,,08,14,075,*74
$GPRMC,163732.000,A,2233.2052,N,11413.8083,E,0.0,105.6,040191,,,A*63
$GPGGA,163732.000,2233.2052,N,11413.8083,E,1,07,1.4,49.4,M,14.2,M,,0000*62
$GPVTG,105.6,T,,M,0.0,N,0.0,K,A*0F
$GPGLL,2233.2052,N,11413.8083,E,163732.00,A,A*6B
$GPGSA,A,3,02,05,10,12,15,26,27,,,,,,1.8,1.4,1.2*3D
$GPRMC,163733.000,A,2233.2052,N,11413.8083,E,0.0,105.6,040191,,,A*62
$GPGGA,163733.000,2233.2052,N,11413.8083,E,1,07,1.4,49.4,M,14.2,M,,0000*63
$GPVTG,105.6,T,,M,0.0,N,0.0,K,A*0F
$GPGLL,2233.2052,N,11413.8083,E,163733.00,A,A*6A
$GPGSA,A,3,02,05,10,12,15,26,27,,,,,,1.8,1.4,1.2*3D
$GPRMC,163734.000,A,2233.2052,N,11413.8083,E,0.0,105.6,040191,,,A*65
$GPGGA,163734.000,2233.2052,N,11413.8083,E,1,07,1.4,49.4,M,14.2,M,,0000*64
$GPVTG,105.6,T,,M,0.0,N,0.0,K,A*0F
$GPGLL,2233.2052,N,11413.8083,E,163734.00,A,A*6D
$GPGSA,A,3,02,05,10,12,15,26,27,,,,,,1.8,1.4,1.2*3D
$GPRMC,163735.000,A,2233.2052,N,11413.8083,E,0.0,105.6,040191,,,A*64
$GPGGA,163735.000,2233.2052,N,11413.8083,E,1,07,1.4,49.4,M,14.2,M,,0000*65
$GPVTG,105.6,T,,M,0.0,N,0.0,K,A*0F
$GPGLL,2233.2052,N,11413.8083,E,163735.00,A,A*6C
$GPGSA,A,3,02,05,10,12,15,26,27,,,,,,1.8,1.4,1.2*3D
$GPRMC,163736.000,A,2233.2052,N,11413.8083,E,0.0,105.6,040191,,,A*67
$GPGGA,163736.000,2233.2052,N,11413.8083,E,1,07,1.4,49.4,M,14.2,M,,0000*66
$GPVTG,105.6,T,,M,0.0,N,0.0,K,A*0F
$GPGLL,2233.2052,N,11413.8083,E,163736.00,A,A*6F
$GPGSA,A,3,02,05,10,12,15,26,27,,,,,,1.8,1.4,1.2*3D
$GPGSV,3,1,10,10,22,048,22,05,48,008,19,02,50,090,11,27,09,175,35*79
$GPGSV,3,2,10,12,06,219,25,26,80,152,31,15,56,210,40,29,36,305,16*76
$GPGSV,3,3,10,04,15,113,,08,14,075,*74
$GPRMC,163737.000,A,2233.2052,N,11413.8083,E,0.0,105.6,040191,,,A*66
$GPGGA,163737.000,2233.2052,N,11413.8083,E,1,07,1.4,49.4,M,14.2,M,,0000*67
$GPVTG,105.6,T,,M,0.0,N,0.0,K,A*0F
$GPGLL,2233.2052,N,11413.8083,E,163737.00,A,A*6E
$GPGSA,A,3,02,05,10,12,15,26,27,,,,,,1.8,1.4,1.2*3D
$GPRMC,163738.000,A,2233.2052,N,11413.8083,E,0.0,105.6,040191,,,A*69
$GPGGA,163738.000,2233.2052,N,11413.8083,E,1,07,1.4,49.4,M,14.2,M,,0000*68
$GPVTG,105.6,T,,M,0.0,N,0.0,K,A*0F
$GPGLL,2233.2052,N,11413.8083,E,163738.00,A,A*61
$GPGSA,A,3,02,05,10,12,15,26,27,,,,,,1.8,1.4,1.2*3D
$GPRMC,163739.000,A,2233.2052,N,11413.8083,E,0.0,105.6,040191,,,A*68
$GPGGA,163739.000,2233.2052,N,11413.8083,E,1,07,1.4,49.4,M,14.2,M,,0000*69
$GPVTG,105.6,T,,M,0.0,N,0.0,K,A*0F
$GPGLL,2233.2052,N,11413.8083,E,163739.00,A,A*60
$GPGSA,A,3,02,05,10,12,15,26,27,,,,,,1.8,1.4,1.2*3D
$GPRMC,163740.000,A,2233.2052,N,11413.8083,E,0.0,105.6,040191,,,A*66
$GPGGA,163740.000,2233.2052,N,11413.8083,E,1,07,1.4,49.4,M,14.2,M,,0000*67
$GPVTG,105.6,T,,M,0.0,N,0.0,K,A*0F
$GPGLL,2233.2052,N,11413.8083,E,163740.00,A,A*6E
$GPGSA,A,3,02,05,10,12,15,26,27,,,,,,1.8,1.4,1.2*3D
$GPRMC,163741.000,A,2233.2052,N,11413.8083,E,0.0,105.6,040191,,,A*67
$GPGGA,163741.000,2233.2052,N,11413.8083,E,1,07,1.4,49.4,M,14.2,M,,0000*66
$GPVTG,105.6,T,,M,0.0,N,0.0,K,A*0F
$GPGLL,2233.2052,N,11413.8083,E,163741.00,A,A*6F
$GPGSA,A,3,02,05,10,12,15,26,27,,,,,,1.8,1.4,1.2*3D
$GPGSV,3,1,10,10,22,048,19,05,48,008,21,02,50,090,11,27,09,175,35*7A
$GPGSV,3,2,10,12,06,219,24,26,80,152,30,15,56,210,40,29,36,305,22*71
$GPGSV,3,3,10,04,15,113,,08,14,075,*74
$GPRMC,163742.000,A,2233.2052,N,11413.8083,E,0.0,105.6,040191,,,A*64
$GPGGA,163742.000,2233.2052,N,11413.8083,E,1,06,1.6,49.4,M,14.2,M,,0000*66
$GPVTG,105.6,T,,M,0.0,N,0.0,K,A*0F
$GPGLL,2233.2052,N,11413.8083,E,163742.00,A,A*6C
$GPGSA,A,3,05,10,12,15,26,27,,,,,,,2.1,1.6,1.3*36
$GPRMC,163743.000,A,2233.2052,N,11413.8083,E,0.0,105.6,040191,,,A*65
$GPGGA,163743.000,2233.2052,N,11413.8083,E,1,06,1.6,49.4,M,14.2,M,,0000*67
$GPVTG,105.6,T,,M,0.0,N,0.0,K,A*0F
$GPGLL,2233.2052,N,11413.8083,E,163743.00,A,A*6D
$GPGSA,A,3,05,10,12,15,26,27,,,,,,,2.1,1.6,1.3*36
$GPRMC,163744.000,A,2233.2052,N,11413.8083,E,0.0,105.6,040191,,,A*62
$GPGGA,163744.000,2233.2052,N,11413.8083,E,1,06,1.6,49.4,M,14.2,M,,0000*60
$GPVTG,105.6,T,,M,0.0,N,0.0,K,A*0F
$GPGLL,2233.2052,N,11413.8083,E,163744.00,A,A*6A
$GPGSA,A,3,05,10,12,15,26,27,,,,,,,2.1,1.6,1.3*36
$GPRMC,163745.000,A,2233.2052,N,11413.8083,E,0.0,105.6,040191,,,A*63
$GPGGA,163745.000,2233.2052,N,11413.8083,E,1,06,1.6,49.4,M,14.2,M,,0000*61
$GPVTG,105.6,T,,M,0.0,N,0.0,K,A*0F
$GPGLL,2233.2052,N,11413.8083,E,163745.00,A,A*6B
$GPGSA,A,3,05,10,12,15,26,27,,,,,,,2.1,1.6,1.3*36
$GPRMC,163746.000,A,2233.2052,N,11413.8083,E,0.0,105.6,040191,,,A*60
$GPGGA,163746.000,2233.2052,N,11413.8083,E,1,06,1.6,49.4,M,14.2,M,,0000*62
$GPVTG,105.6,T,,M,0.0,N,0.0,K,A*0F
$GPGLL,2233.2052,N,11413.8083,E,163746.00,A,A*68
$GPGSA,A,3,05,10,12,15,26,27,,,,,,,2.1,1.6,1.3*36
$GPGSV,3,1,10,10,22,048,16,05,48,008,18,27,09,175,35,12,06,219,21*7D
$GPGSV,3,2,10,26,81,152,29,15,56,210,40,29,36,305,24,02,50,090,*79
$GPGSV,3,3,10,04,15,113,,08,14,075,*74
$GPRMC,163747.000,A,2233.2052,N,11413.8083,E,0.0,105.6,040191,,,A*61
$GPGGA,163747.000,2233.2052,N,11413.8083,E,1,06,1.6,49.4,M,14.2,M,,0000*63
$GPVTG,105.6,T,,M,0.0,N,0.0,K,A*0F
$GPGLL,2233.2052,N,11413.8083,E,163747.00,A,A*69
$GPGSA,A,3,05,10,12,15,26,27,,,,,,,2.1,1.6,1.3*36
$GPRMC,163748.000,A,2233.2052,N,11413.8083,E,0.0,105.6,040191,,,A*6E
$GPGGA,163748.000,2233.2052,N,11413.8083,E,1,06,1.6,49.4,M,14.2,M,,0000*6C
$GPVTG,105.6,T,,M,0.0,N,0.0,K,A*0F
$GPGLL,2233.2052,N,11413.8083,E,163748.00,A,A*66
$GPGSA,A,3,05,10,12,15,26,27,,,,,,,2.1,1.6,1.3*36
$GPRMC,163749.000,A,2233.2052,N,11413.8083,E,0.0,105.6,040191,,,A*6F
$GPGGA,163749.000,2233.2052,N,11413.8083,E,1,06,1.6,49.4,M,14.2,M,,0000*6D
$GPVTG,105.6,T,,M,0.0,N,0.0,K,A*0F
$GPGLL,2233.2052,N,11413.8083,E,163749.00,A,A*67
$GPGSA,A,3,05,10,12,15,26,27,,,,,,,2.1,1.6,1.3*36
$GPRMC,163750.000,A,2233.2052,N,11413.8083,E,0.0,105.6,040191,,,A*67
$GPGGA,163750.000,2233.2052,N,11413.8083,E,1,06,1.6,49.4,M,14.2,M,,0000*65
$GPVTG,105.6,T,,M,0.0,N,0.0,K,A*0F
$GPGLL,2233.2052,N,11413.8083,E,163750.00,A,A*6F
$GPGSA,A,3,05,10,12,15,26,27,,,,,,,2.1,1.6,1.3*36
$GPRMC,163751.000,A,2233.2052,N,11413.8083,E,0.0,105.6,040191,,,A*66
$GPGGA,163751.000,2233.2052,N,11413.8083,E,1,06,1.6,49.4,M,14.2,M,,0000*64
$GPVTG,105.6,T,,M,0.0,N,0.0,K,A*0F
$GPGLL,2233.2052,N,11413.8083,E,163751.00,A,A*6E
$GPGSA,A,3,05,10,12,15,26,27,,,,,,,2.1,1.6,1.3*36
$GPGSV,3,1,10,10,22,048,15,05,48,008,16,27,09,175,36,12,06,219,16*77
$GPGSV,3,2,10,26,81,152,28,15,56,210,41,29,36,305,23,02,50,090,*7E
$GPGSV,3,3,10,04,15,113,,08,14,075,*74
$GPRMC,163752.000,A,2233.2052,N,11413.8083,E,0.0,105.6,040191,,,A*65
$GPGGA,163752.000,2233.2052,N,11413.8083,E,1,06,1.6,49.4,M,14.2,M,,0000*67
$GPVTG,105.6,T,,M,0.0,N,0.0,K,A*0F
$GPGLL,2233.2052,N,11413.8083,E,163752.00,A,A*6D
$GPGSA,A,3,05,10,12,15,26,27,,,,,,,2.1,1.6,1.3*36
$GPRMC,163753.000,A,2233.2052,N,11413.8083,E,0.0,105.6,040191,,,A*64
$GPGGA,163753.000,2233.2052,N,11413.8083,E,1,06,1.6,49.4,M,14.2,M,,0000*66
$GPVTG,105.6,T,,M,0.0,N,0.0,K,A*0F
$GPGLL,2233.2052,N,11413.8083,E,163753.00,A,A*6C
$GPGSA,A,3,05,10,12,15,26,27,,,,,,,2.1,1.6,1.3*36
$GPRMC,163754.000,A,2233.2052,N,11413.8083,E,0.0,105.6,040191,,,A*63
$GPGGA,163754.000,2233.2052,N,11413.8083,E,1,06,1.6,49.4,M,14.2,M,,0000*61
$GPVTG,105.6,T,,M,0.0,N,0.0,K,A*0F
$GPGLL,2233.2052,N,11413.8083,E,163754.00,A,A*6B
$GPGSA,A,3,05,10,12,15,26,27,,,,,,,2.1,1.6,1.3*36
$GPRMC,163755.000,A,2233.2052,N,11413.8083,E,0.0,105.6,040191,,,A*62
$GPGGA,163755.000,2233.2052,N,11413.8083,E,1,06,1.6,49.4,M,14.2,M,,0000*60
$GPVTG,105.6,T,,M,0.0,N,0.0,K,A*0F
$GPGLL,2233.2052,N,11413.8083,E,163755.00,A,A*6A
$GPGSA,A,3,05,10,12,15,26,27,,,,,,,2.1,1.6,1.3*36
$GPRMC,163756.000,A,2233.2052,N,11413.8083,E,0.0,105.6,040191,,,A*61
$GPGGA,163756.000,2233.2052,N,11413.8083,E,1,06,1.6,49.4,M,14.2,M,,0000*63
$GPVTG,105.6,T,,M,0.0,N,0.0,K,A*0F
$GPGLL,2233.2052,N,11413.8083,E,163756.00,A,A*69
$GPGSA,A,3,05,10,12,15,26,27,,,,,,,2.1,1.6,1.3*36
$GPGSV,3,1,10,10,22,048,18,05,48,008,18,27,09,175,36,12,06,219,20*71
$GPGSV,3,2,10,26,81,152,29,15,56,210,42,29,36,305,19,02,50,090,*75
$GPGSV,3,3,10,04,15,113,,08,14,075,*74
$GPRMC,163757.000,A,2233.2052,N,11413.8083,E,0.0,105.6,040191,,,A*60
$GPGGA,163757.000,2233.2052,N,11413.8083,E,1,05,2.0,49.4,M,14.2,M,,0000*64
$GPVTG,105.6,T,,M,0.0,N,0.0,K,A*0F
$GPGLL,2233.2052,N,11413.8083,E,163757.00,A,A*68
$GPGSA,A,3,10,12,15,26,27,,,,,,,,2.4,2.0,1.3*33
$GPRMC,163758.000,A,2233.2052,N,11413.8083,E,0.0,105.6,040191,,,A*6F
$GPGGA,163758.000,2233.2052,N,11413.8083,E,1,05,2.0,49.4,M,14.2,M,,0000*6B
$GPVTG,105.6,T,,M,0.0,N,0.0,K,A*0F
$GPGLL,2233.2052,N,11413.8083,E,163758.00,A,A*67
$GPGSA,A,3,10,12,15,26,27,,,,,,,,2.4,2.0,1.3*33
$GPRMC,163759.000,A,2233.2052,N,11413.8083,E,0.0,105.6,040191,,,A*6E
$GPGGA,163759.000,2233.2052,N,11413.8083,E,1,05,2.0,49.4,M,14.2,M,,0000*6A
$GPVTG,105.6,T,,M,0.0,N,0.0,K,A*0F
$GPGLL,2233.2052,N,11413.8083,E,163759.00,A,A*66
$GPGSA,A,3,10,12,15,26,27,,,,,,,,2.4,2.0,1.3*33
$GPRMC,163800.000,A,2233.2052,N,11413.8083,E,0.0,105.6,040191,,,A*6D
$GPGGA,163800.000,2233.2052,N,11413.8083,E,1,05,2.0,49.4,M,14.2,M,,0000*69
$GPVTG,105.6,T,,M,0.0,N,0.0,K,A*0F
$GPGLL,2233.2052,N,11413.8083,E,163800.00,A,A*65
$GPGSA,A,3,10,12,15,26,27,,,,,,,,2.4,2.0,1.3*33
$GPRMC,163801.000,A,2233.2052,N,11413.8083,E,0.0,105.6,040191,,,A*6C
$GPGGA,163801.000,2233.2052,N,11413.8083,E,1,05,2.0,49.4,M,14.2,M,,0000*68
$GPVTG,105.6,T,,M,0.0,N,0.0,K,A*0F
$GPGLL,2233.2052,N,11413.8083,E,163801.00,A,A*64
$GPGSA,A,3,10,12,15,26,27,,,,,,,,2.4,2.0,1.3*33
$GPGSV,3,1,10,10,22,048,22,27,10,175,35,12,06,219,22,26,81,152,29*79
$GPGSV,3,2,10,15,56,210,42,29,36,305,17,02,50,091,,05,48,008,*7B
$GPGSV,3,3,10,04,15,113,,08,14,075,*74
$GPRMC,163802.000,A,2233.2052,N,11413.8083,E,0.0,105.6,040191,,,A*6F
$GPGGA,163802.000,2233.2052,N,11413.8083,E,1,05,2.0,49.4,M,14.2,M,,0000*6B
$GPVTG,105.6,T,,M,0.0,N,0.0,K,A*0F
$GPGLL,2233.2052,N,11413.8083,E,163802.00,A,A*67
$GPGSA,A,3,10,12,15,26,27,,,,,,,,2.4,2.0,1.3*33
$GPRMC,163803.000,A,2233.2052,N,11413.8083,E,0.0,105.6,040191,,,A*6E
$GPGGA,163803.000,2233.2052,N,11413.8083,E,1,05,2.0,49.4,M,14.2,M,,0000*6A
$GPVTG,105.6,T,,M,0.0,N,0.0,K,A*0F
$GPGLL,2233.2052,N,11413.8083,E,163803.00,A,A*66
$GPGSA,A,3,10,12,15,26,27,,,,,,,,2.4,2.0,1.3*33
$GPRMC,163804.000,A,2233.2052,N,11413.8083,E,0.0,105.6,040191,,,A*69
$GPGGA,163804.000,2233.2052,N,11413.8083,E,1,06,1.4,49.4,M,14.2,M,,0000*69
$GPVTG,105.6,T,,M,0.0,N,0.0,K,A*0F
$GPGLL,2233.2052,N,11413.8083,E,163804.00,A,A*61
$GPGSA,A,3,04,10,12,15,26,27,,,,,,,1.9,1.4,1.3*3E
$GPRMC,163805.000,A,2233.2052,N,11413.8083,E,0.0,105.6,040191,,,A*68
$GPGGA,163805.000,2233.2052,N,11413.8083,E,1,06,1.4,49.4,M,14.2,M,,0000*68
$GPVTG,105.6,T,,M,0.0,N,0.0,K,A*0F
$GPGLL,2233.2052,N,11413.8083,E,163805.00,A,A*60
$GPGSA,A,3,04,10,12,15,26,27,,,,,,,1.9,1.4,1.3*3E
$GPRMC,163806.000,A,2233.2052,N,11413.8083,E,0.0,105.6,040191,,,A*6B
$GPGGA,163806.000,2233.2052,N,11413.8083,E,1,06,1.4,49.4,M,14.2,M,,0000*6B
$GPVTG,105.6,T,,M,0.0,N,0.0,K,A*0F
$GPGLL,2233.2052,N,11413.8083,E,163806.00,A,A*63
$GPGSA,A,3,04,10,12,15,26,27,,,,,,,1.9,1.4,1.3*3E
$GPGSV,3,1,10,10,22,048,22,04,15,113,14,27,10,175,35,12,06,219,25*78
$GPGSV,3,2,10,26,81,151,30,15,56,210,42,29,36,305,19,02,50,091,*7F
$GPGSV,3,3,10,05,48,008,,08,14,075,*76
$GPRMC,163807.000,A,2233.2052,N,11413.8083,E,0.0,105.6,040191,,,A*6A
$GPGGA,163807.000,2233.2052,N,11413.8083,E,1,06,1.4,49.4,M,14.2,M,,0000*6A
$GPVTG,105.6,T,,M,0.0,N,0.0,K,A*0F
$GPGLL,2233.2052,N,11413.8083,E,163807.00,A,A*62
$GPGSA,A,3,04,10,12,15,26,27,,,,,,,1.9,1.4,1.3*3E
$GPRMC,163808.000,A,2233.2052,N,11413.8083,E,0.0,105.6,040191,,,A*65
$GPGGA,163808.000,2233.2052,N,11413.8083,E,1,06,1.4,49.4,M,14.2,M,,0000*65
$GPVTG,105.6,T,,M,0.0,N,0.0,K,A*0F
$GPGLL,2233.2052,N,11413.8083,E,163808.00,A,A*6D
$GPGSA,A,3,04,10,12,15,26,27,,,,,,,1.9,1.4,1.3*3E
$GPRMC,163809.000,A,2233.2052,N,11413.8083,E,0.0,105.6,040191,,,A*64
$GPGGA,163809.000,2233.2052,N,11413.8083,E,1,06,1.4,49.4,M,14.2,M,,0000*64
$GPVTG,105.6,T,,M,0.0,N,0.0,K,A*0F
$GPGLL,2233.2052,N,11413.8083,E,163809.00,A,A*6C
$GPGSA,A,3,04,10,12,15,26,27,,,,,,,1.9,1.4,1.3*3E
$GPRMC,163810.000,A,2233.2052,N,11413.8083,E,0.0,105.6,040191,,,A*6C
$GPGGA,163810.000,2233.2052,N,11413.8083,E,1,06,1.4,49.4,M,14.2,M,,0000*6C
$GPVTG,105.6,T,,M,0.0,N,0.0,K,A*0F
$GPGLL,2233.2052,N,11413.8083,E,163810.00,A,A*64
$GPGSA,A,3,04,10,12,15,26,27,,,,,,,1.9,1.4,1.3*3E
$GPRMC,163811.000,A,2233.2052,N,11413.8083,E,0.0,105.6,040191,,,A*6D
$GPGGA,163811.000,2233.2052,N,11413.8083,E,1,06,1.4,49.4,M,14.2,M,,0000*6D
$GPVTG,105.6,T,,M,0.0,N,0.0,K,A*0F
$GPGLL,2233.2052,N,11413.8083,E,163811.00,A,A*65
$GPGSA,A,3,04,10,12,15,26,27,,,,,,,1.9,1.4,1.3*3E
$GPGSV,3,1,10,10,22,048,21,04,15,113,13,27,10,175,33,12,06,219,27*78
$GPGSV,3,2,10,26,81,151,30,15,57,210,43,02,50,091,,05,48,008,*7E
$GPGSV,3,3,10,29,36,305,,08,14,075,*7F
$GPRMC,163812.000,A,2233.2052,N,11413.8083,E,0.0,105.6,040191,,,A*6E
$GPGGA,163812.000,2233.2052,N,11413.8083,E,1,06,1.4,49.4,M,14.2,M,,0000*6E
$GPVTG,105.6,T,,M,0.0,N,0.0,K,A*0F
$GPGLL,2233.2052,N,11413.8083,E,163812.00,A,A*66
$GPGSA,A,3,04,10,12,15,26,27,,,,,,,1.9,1.4,1.3*3E
$GPRMC,163813.000,A,2233.2052,N,11413.8083,E,0.0,105.6,040191,,,A*6F
$GPGGA,163813.000,2233.2052,N,11413.8083,E,1,06,1.4,49.4,M,14.2,M,,0000*6F
$GPVTG,105.6,T,,M,0.0,N,0.0,K,A*0F
$GPGLL,2233.2052,N,11413.8083,E,163813.00,A,A*67
$GPGSA,A,3,04,10,12,15,26,27,,,,,,,1.9,1.4,1.3*3E
$GPRMC,163814.000,A,2233.2052,N,11413.8083,E,0.0,105.6,040191,,,A*68
$GPGGA,163814.000,2233.2052,N,11413.8083,E,1,06,1.4,49.4,M,14.2,M,,0000*68
$GPVTG,105.6,T,,M,0.0,N,0.0,K,A*0F
$GPGLL,2233.2052,N,11413.8083,E,163814.00,A,A*60
$GPGSA,A,3,04,10,12,15,26,27,,,,,,,1.9,1.4,1.3*3E
$GPRMC,163815.000,A,2233.2052,N,11413.8083,E,0.0,105.6,040191,,,A*69
$GPGGA,163815.000,2233.2052,N,11413.8083,E,1,06,1.4,49.4,M,14.2,M,,0000*69
$GPVTG,105.6,T,,M,0.0,N,0.0,K,A*0F
$GPGLL,2233.2052,N,11413.8083,E,163815.00,A,A*61
$GPGSA,A,3,04,10,12,15,26,27,,,,,,,1.9,1.4,1.3*3E
$GPRMC,163816.000,A,2233.2052,N,11413.8083,E,0.0,105.6,040191,,,A*6A
$GPGGA,163816.000,2233.2052,N,11413.8083,E,1,06,1.4,49.4,M,14.2,M,,0000*6A
$GPVTG,105.6,T,,M,0.0,N,0.0,K,A*0F
$GPGLL,2233.2052,N,11413.8083,E,163816.00,A,A*62
$GPGSA,A,3,04,10,12,15,26,27,,,,,,,1.9,1.4,1.3*3E
$GPGSV,3,1,10,10,22,048,19,04,15,113,12,27,10,175,34,12,06,219,27*75
$GPGSV,3,2,10,26,81,151,30,15,57,210,42,29,36,305,18,02,49,091,*77
$GPGSV,3,3,10,05,48,008,,08,14,074,*77
$GPRMC,163817.000,A,2233.2052,N,11413.8083,E,0.0,105.6,040191,,,A*6B
$GPGGA,163817.000,2233.2052,N,11413.8083,E,1,06,1.4,49.4,M,14.2,M,,0000*6B
$GPVTG,105.6,T,,M,0.0,N,0.0,K,A*0F
$GPGLL,2233.2052,N,11413.8083,E,163817.00,A,A*63
$GPGSA,A,3,04,10,12,15,26,27,,,,,,,1.9,1.4,1.3*3E
$GPRMC,163818.000,A,2233.2052,N,11413.8083,E,0.0,105.6,040191,,,A*64
$GPGGA,163818.000,2233.2052,N,11413.8083,E,1,06,1.4,49.4,M,14.2,M,,0000*64
$GPVTG,105.6,T,,M,0.0,N,0.0,K,A*0F
$GPGLL,2233.2052,N,11413.8083,E,163818.00,A,A*6C
$GPGSA,A,3,04,10,12,15,26,27,,,,,,,1.9,1.4,1.3*3E
$GPRMC,163819.000,A,2233.2052,N,11413.8083,E,0.0,105.6,040191,,,A*65
$GPGGA,163819.000,2233.2052,N,11413.8083,E,1,06,1.4,49.4,M,14.2,M,,0000*65
$GPVTG,105.6,T,,M,0.0,N,0.0,K,A*0F
$GPGLL,2233.2052,N,11413.8083,E,163819.00,A,A*6D
$GPGSA,A,3,04,10,12,15,26,27,,,,,,,1.9,1.4,1.3*3E
$GPRMC,163820.000,A,2233.2052,N,11413.8083,E,0.0,105.6,040191,,,A*6F
$GPGGA,163820.000,2233.2052,N,11413.8083,E,1,06,1.4,49.4,M,14.2,M,,0000*6F
$GPVTG,105.6,T,,M,0.0,N,0.0,K,A*0F
$GPGLL,2233.2052,N,11413.8083,E,163820.00,A,A*67
$GPGSA,A,3,04,10,12,15,26,27,,,,,,,1.9,1.4,1.3*3E
$GPRMC,163821.000,A,2233.2052,N,11413.8083,E,0.0,105.6,040191,,,A*6E
$GPGGA,163821.000,2233.2052,N,11413.8083,E,1,06,1.4,49.4,M,14.2,M,,0000*6E
$GPVTG,105.6,T,,M,0.0,N,0.0,K,A*0F
$GPGLL,2233.2052,N,11413.8083,E,163821.00,A,A*66
$GPGSA,A,3,04,10,12,15,26,27,,,,,,,1.9,1.4,1.3*3E
$GPGSV,3,1,10,10,22,048,19,04,15,113,11,27,10,175,34,12,06,219,27*76
$GPGSV,3,2,10,26,81,151,32,15,57,210,41,29,36,305,,02,49,091,*7F
$GPGSV,3,3,10,05,48,008,,08,14,074,*77
$GPRMC,163822.000,A,2233.2052,N,11413.8083,E,0.0,105.6,040191,,,A*6D
$GPGGA,163822.000,2233.2052,N,11413.8083,E,1,05,2.0,49.4,M,14.2,M,,0000*69
$GPVTG,105.6,T,,M,0.0,N,0.0,K,A*0F
$GPGLL,2233.2052,N,11413.8083,E,163822.00,A,A*65
$GPGSA,A,3,10,12,15,26,27,,,,,,,,2.4,2.0,1.3*33
$GPRMC,163823.000,A,2233.2052,N,11413.8083,E,0.0,105.6,040191,,,A*6C
$GPGGA,163823.000,2233.2052,N,11413.8083,E,1,05,2.0,49.4,M,14.2,M,,0000*68
$GPVTG,105.6,T,,M,0.0,N,0.0,K,A*0F
$GPGLL,2233.2052,N,11413.8083,E,163823.00,A,A*64
$GPGSA,A,3,10,12,15,26,27,,,,,,,,2.4,2.0,1.3*33
$GPRMC,163824.000,A,2233.2052,N,11413.8083,E,0.0,105.6,040191,,,A*6B
$GPGGA,163824.000,2233.2052,N,11413.8083,E,1,05,2.0,49.4,M,14.2,M,,0000*6F
$GPVTG,105.6,T,,M,0.0,N,0.0,K,A*0F
$GPGLL,2233.2052,N,11413.8083,E,163824.00,A,A*63
$GPGSA,A,3,10,12,15,26,27,,,,,,,,2.4,2.0,1.3*33
$GPRMC,163825.000,A,2233.2052,N,11413.8083,E,0.0,105.6,040191,,,A*6A
$GPGGA,163825.000,2233.2052,N,11413.8083,E,1,05,2.0,49.4,M,14.2,M,,0000*6E
$GPVTG,105.6,T,,M,0.0,N,0.0,K,A*0F
$GPGLL,2233.2052,N,11413.8083,E,163825.00,A,A*62
$GPGSA,A,3,10,12,15,26,27,,,,,,,,2.4,2.0,1.3*33
$GPRMC,163826.000,A,2233.2052,N,11413.8083,E,0.0,105.6,040191,,,A*69
$GPGGA,163826.000,2233.2052,N,11413.8083,E,1,05,2.0,49.4,M,14.2,M,,0000*6D
$GPVTG,105.6,T,,M,0.0,N,0.0,K,A*0F
$GPGLL,2233.2052,N,11413.8083,E,163826.00,A,A*61
$GPGSA,A,3,10,12,15,26,27,,,,,,,,2.4,2.0,1.3*33
$GPGSV,3,1,10,10,22,048,19,27,10,175,34,12,06,219,28,26,81,151,32*73
$GPGSV,3,2,10,15,57,210,41,02,49,091,,05,48,008,,29,36,305,*77
$GPGSV,3,3,10,04,15,113,,08,14,074,*75
$GPRMC,163827.000,A,2233.2052,N,11413.8083,E,0.0,105.6,040191,,,A*68
$GPGGA,163827.000,2233.2052,N,11413.8083,E,1,05,2.0,49.4,M,14.2,M,,0000*6C
$GPVTG,105.6,T,,M,0.0,N,0.0,K,A*0F
$GPGLL,2233.2052,N,11413.8083,E,163827.00,A,A*60
$GPGSA,A,3,10,12,15,26,27,,,,,,,,2.4,2.0,1.3*33
$GPRMC,163828.000,A,2233.2052,N,11413.8083,E,0.0,105.6,040191,,,A*67
$GPGGA,163828.000,2233.2052,N,11413.8083,E,1,05,2.0,49.4,M,14.2,M,,0000*63
$GPVTG,105.6,T,,M,0.0,N,0.0,K,A*0F
$GPGLL,2233.2052,N,11413.8083,E,163828.00,A,A*6F
$GPGSA,A,3,10,12,15,26,27,,,,,,,,2.4,2.0,1.3*33
$GPRMC,163829.000,A,2233.2052,N,11413.8083,E,0.0,105.6,040191,,,A*66
$GPGGA,163829.000,2233.2052,N,11413.8083,E,1,06,1.6,49.4,M,14.2,M,,0000*64
$GPVTG,105.6,T,,M,0.0,N,0.0,K,A*0F
$GPGLL,2233.2052,N,11413.8083,E,163829.00,A,A*6E
$GPGSA,A,3,05,10,12,15,26,27,,,,,,,2.1,1.6,1.3*36
$GPRMC,163830.000,A,2233.2052,N,11413.8083,E,0.0,105.6,040191,,,A*6E
$GPGGA,163830.000,2233.2052,N,11413.8083,E,1,06,1.6,49.4,M,14.2,M,,0000*6C
$GPVTG,105.6,T,,M,0.0,N,0.0,K,A*0F
$GPGLL,2233.2052,N,11413.8083,E,163830.00,A,A*66
$GPGSA,A,3,05,10,12,15,26,27,,,,,,,2.1,1.6,1.3*36
$GPRMC,163831.000,A,2233.2052,N,11413.8083,E,0.0,105.6,040191,,,A*6F
$GPGGA,163831.000,2233.2052,N,11413.8083,E,1,06,1.6,49.4,M,14.2,M,,0000*6D
$GPVTG,105.6,T,,M,0.0,N,0.0,K,A*0F
$GPGLL,2233.2052,N,11413.8083,E,163831.00,A,A*67
$GPGSA,A,3,05,10,12,15,26,27,,,,,,,2.1,1.6,1.3*36
$GPGSV,3,1,10,10,22,048,18,05,48,008,12,27,10,175,33,12,06,219,27*71
$GPGSV,3,2,10,26,81,150,32,15,57,210,41,29,36,305,,02,49,091,*7E
$GPGSV,3,3,10,04,15,113,,08,14,074,*75
$GPRMC,163832.000,A,2233.2052,N,11413.8083,E,0.0,105.6,040191,,,A*6C
$GPGGA,163832.000,2233.2052,N,11413.8083,E,1,06,1.6,49.4,M,14.2,M,,0000*6E
$GPVTG,105.6,T,,M,0.0,N,0.0,K,A*0F
$GPGLL,2233.2052,N,11413.8083,E,163832.00,A,A*64
$GPGSA,A,3,05,10,12,15,26,27,,,,,,,2.1,1.6,1.3*36
$GPRMC,163833.000,A,2233.2052,N,11413.8083,E,0.0,105.6,040191,,,A*6D
$GPGGA,163833.000,2233.2052,N,11413.8083,E,1,06,1.6,49.4,M,14.2,M,,0000*6F
$GPVTG,105.6,T,,M,0.0,N,0.0,K,A*0F
$GPGLL,2233.2052,N,11413.8083,E,163833.00,A,A*65
$GPGSA,A,3,05,10,12,15,26,27,,,,,,,2.1,1.6,1.3*36
$GPRMC,163834.000,A,2233.2052,N,11413.8083,E,0.0,105.6,040191,,,A*6A
$GPGGA,163834.000,2233.2052,N,11413.8083,E,1,06,1.6,49.4,M,14.2,M,,0000*68
$GPVTG,105.6,T,,M,0.0,N,0.0,K,A*0F
$GPGLL,2233.2052,N,11413.8083,E,163834.00,A,A*62
$GPGSA,A,3,05,10,12,15,26,27,,,,,,,2.1,1.6,1.3*36
$GPRMC,163835.000,A,2233.2052,N,11413.8083,E,0.0,105.6,040191,,,A*6B
$GPGGA,163835.000,2233.2052,N,11413.8083,E,1,06,1.6,49.4,M,14.2,M,,0000*69
$GPVTG,105.6,T,,M,0.0,N,0.0,K,A*0F
$GPGLL,2233.2052,N,11413.8083,E,163835.00,A,A*63
$GPGSA,A,3,05,10,12,15,26,27,,,,,,,2.1,1.6,1.3*36
$GPRMC,163836.000,A,2233.2052,N,11413.8083,E,0.0,105.6,040191,,,A*68
$GPGGA,163836.000,2233.2052,N,11413.8083,E,1,06,1.6,49.4,M,14.2,M,,0000*6A
$GPVTG,105.6,T,,M,0.0,N,0.0,K,A*0F
$GPGLL,2233.2052,N,11413.8083,E,163836.00,A,A*60
$GPGSA,A,3,05,10,12,15,26,27,,,,,,,2.1,1.6,1.3*36
$GPGSV,3,1,10,10,22,048,19,05,48,008,13,27,10,175,33,12,06,219,26*70
$GPGSV,3,2,10,26,81,150,33,15,57,210,41,29,36,305,17,02,49,091,*79
$GPGSV,3,3,10,04,15,113,,08,14,074,*75
$GPRMC,163837.000,A,2233.2052,N,11413.8083,E,0.0,105.6,040191,,,A*69
$GPGGA,163837.000,2233.2052,N,11413.8083,E,1,06,1.6,49.4,M,14.2,M,,0000*6B
$GPVTG,105.6,T,,M,0.0,N,0.0,K,A*0F
$GPGLL,2233.2052,N,11413.8083,E,163837.00,A,A*61
$GPGSA,A,3,05,10,12,15,26,27,,,,,,,2.1,1.6,1.3*36
$GPRMC,163838.000,A,2233.2052,N,11413.8083,E,0.0,105.6,040191,,,A*66
$GPGGA,163838.000,2233.2052,N,11413.8083,E,1,06,1.6,49.4,M,14.2,M,,0000*64
$GPVTG,105.6,T,,M,0.0,N,0.0,K,A*0F
$GPGLL,2233.2052,N,11413.8083,E,163838.00,A,A*6E
$GPGSA,A,3,05,10,12,15,26,27,,,,,,,2.1,1.6,1.3*36
$GPRMC,163839.000,A,2233.2052,N,11413.8083,E,0.0,105.6,040191,,,A*67
$GPGGA,163839.000,2233.2052,N,11413.8083,E,1,06,1.6,49.4,M,14.2,M,,0000*65
$GPVTG,105.6,T,,M,0.0,N,0.0,K,A*0F
$GPGLL,2233.2052,N,11413.8083,E,163839.00,A,A*6F
$GPGSA,A,3,05,10,12,15,26,27,,,,,,,2.1,1.6,1.3*36
$GPRMC,163840.000,A,2233.2052,N,11413.8083,E,0.0,105.6,040191,,,A*69
$GPGGA,163840.000,2233.2052,N,11413.8083,E,1,06,1.6,49.4,M,14.2,M,,0000*6B
$GPVTG,105.6,T,,M,0.0,N,0.0,K,A*0F
$GPGLL,2233.2052,N,11413.8083,E,163840.00,A,A*61
$GPGSA,A,3,05,10,12,15,26,27,,,,,,,2.1,1.6,1.3*36
$GPRMC,163841.000,A,2233.2052,N,11413.8083,E,0.0,105.6,040191,,,A*68
$GPGGA,163841.000,2233.2052,N,11413.8083,E,1,06,1.6,49.4,M,14.2,M,,0000*6A
$GPVTG,105.6,T,,M,0.0,N,0.0,K,A*0F
$GPGLL,2233.2052,N,11413.8083,E,163841.00,A,A*60
$GPGSA,A,3,05,10,12,15,26,27,,,,,,,2.1,1.6,1.3*36
$GPGSV,3,1,10,10,22,048,21,05,48,008,12,27,10,175,33,12,05,219,25*7A
$GPGSV,3,2,10,26,81,150,34,15,57,210,42,29,36,305,22,02,49,091,*7B
$GPGSV,3,3,10,04,15,113,,08,14,074,*75
$GPRMC,163842.000,A,2233.2052,N,11413.8083,E,0.0,105.6,040191,,,A*6B
$GPGGA,163842.000,2233.2052,N,11413.8083,E,1,06,1.6,49.4,M,14.2,M,,0000*69
$GPVTG,105.6,T,,M,0.0,N,0.0,K,A*0F
$GPGLL,2233.2052,N,11413.8083,E,163842.00,A,A*63
$GPGSA,A,3,05,10,12,15,26,27,,,,,,,2.1,1.6,1.3*36
$GPRMC,163843.000,A,2233.2052,N,11413.8083,E,0.0,105.6,040191,,,A*6A
$GPGGA,163843.000,2233.2052,N,11413.8083,E,1,06,1.6,49.4,M,14.2,M,,0000*68
$GPVTG,105.6,T,,M,0.0,N,0.0,K,A*0F
$GPGLL,2233.2052,N,11413.8083,E,163843.00,A,A*62
$GPGSA,A,3,05,10,12,15,26,27,,,,,,,2.1,1.6,1.3*36
$GPRMC,163844.000,A,2233.2052,N,11413.8083,E,0.0,105.6,040191,,,A*6D
$GPGGA,163844.000,2233.2052,N,11413.8083,E,1,06,1.6,49.4,M,14.2,M,,0000*6F
$GPVTG,105.6,T,,M,0.0,N,0.0,K,A*0F
$GPGLL,2233.2052,N,11413.8083,E,163844.00,A,A*65
$GPGSA,A,3,05,10,12,15,26,27,,,,,,,2.1,1.6,1.3*36
$GPRMC,163845.000,A,2233.2052,N,11413.8083,E,0.0,105.6,040191,,,A*6C
$GPGGA,163845.000,2233.2052,N,11413.8083,E,1,06,1.6,49.4,M,14.2,M,,0000*6E
$GPVTG,105.6,T,,M,0.0,N,0.0,K,A*0F
$GPGLL,2233.2052,N,11413.8083,E,163845.00,A,A*64
$GPGSA,A,3,05,10,12,15,26,27,,,,,,,2.1,1.6,1.3*36
$GPRMC,163846.000,A,2233.2052,N,11413.8083,E,0.0,105.6,040191,,,A*6F
$GPGGA,163846.000,2233.2052,N,11413.8083,E,1,06,1.6,49.4,M,14.2,M,,0000*6D
$GPVTG,105.6,T,,M,0.0,N,0.0,K,A*0F
$GPGLL,2233.2052,N,11413.8083,E,163846.00,A,A*67
$GPGSA,A,3,05,10,12,15,26,27,,,,,,,2.1,1.6,1.3*36
$GPGSV,3,1,10,10,22,048,21,05,48,009,13,27,10,175,33,12,05,219,24*7B
$GPGSV,3,2,10,26,81,150,33,15,57,211,42,29,36,305,24,02,49,091,*7B
$GPGSV,3,3,10,04,15,113,,08,14,074,*75
$GPRMC,163847.000,A,2233.2052,N,11413.8083,E,0.0,105.6,040191,,,A*6E
$GPGGA,163847.000,2233.2052,N,11413.8083,E,1,06,1.6,49.4,M,14.2,M,,0000*6C
$GPVTG,105.6,T,,M,0.0,N,0.0,K,A*0F
$GPGLL,2233.2052,N,11413.8083,E,163847.00,A,A*66
$GPGSA,A,3,05,10,12,15,26,27,,,,,,,2.1,1.6,1.3*36
$GPRMC,163848.000,A,2233.2052,N,11413.8083,E,0.0,105.6,040191,,,A*61
$GPGGA,163848.000,2233.2052,N,11413.8083,E,1,06,1.6,49.4,M,14.2,M,,0000*63
$GPVTG,105.6,T,,M,0.0,N,0.0,K,A*0F
$GPGLL,2233.2052,N,11413.8083,E,163848.00,A,A*69
$GPGSA,A,3,05,10,12,15,26,27,,,,,,,2.1,1.6,1.3*36
$GPRMC,163849.000,A,2233.2052,N,11413.8083,E,0.0,105.6,040191,,,A*60
$GPGGA,163849.000,2233.2052,N,11413.8083,E,1,06,1.6,49.4,M,14.2,M,,0000*62
$GPVTG,105.6,T,,M,0.0,N,0.0,K,A*0F
$GPGLL,2233.2052,N,11413.8083,E,163849.00,A,A*68
$GPGSA,A,3,05,10,12,15,26,27,,,,,,,2.1,1.6,1.3*36
$GPRMC,163850.000,A,2233.2052,N,11413.8083,E,0.0,105.6,040191,,,A*68
$GPGGA,163850.000,2233.2052,N,11413.8083,E,1,06,1.6,49.4,M,14.2,M,,0000*6A
$GPVTG,105.6,T,,M,0.0,N,0.0,K,A*0F
$GPGLL,2233.2052,N,11413.8083,E,163850.00,A,A*60
$GPGSA,A,3,05,10,12,15,26,27,,,,,,,2.1,1.6,1.3*36
$GPRMC,163851.000,A,2233.2052,N,11413.8083,E,0.0,105.6,040191,,,A*69
$GPGGA,163851.000,2233.2052,N,11413.8083,E,1,06,1.6,49.4,M,14.2,M,,0000*6B
$GPVTG,105.6,T,,M,0.0,N,0.0,K,A*0F
$GPGLL,2233.2052,N,11413.8083,E,163851.00,A,A*61
$GPGSA,A,3,05,10,12,15,26,27,,,,,,,2.1,1.6,1.3*36
$GPGSV,3,1,10,10,22,049,20,05,48,009,14,27,10,175,33,12,05,219,25*7D
$GPGSV,3,2,10,26,81,150,33,15,57,211,42,29,36,305,21,02,49,091,*7E
$GPGSV,3,3,10,04,15,113,,08,14,074,*75
$GPRMC,163852.000,A,2233.2052,N,11413.8083,E,0.0,105.6,040191,,,A*6A
$GPGGA,163852.000,2233.2052,N,11413.8083,E,1,06,1.6,49.4,M,14.2,M,,0000*68
$GPVTG,105.6,T,,M,0.0,N,0.0,K,A*0F
$GPGLL,2233.2052,N,11413.8083,E,163852.00,A,A*62
$GPGSA,A,3,05,10,12,15,26,27,,,,,,,2.1,1.6,1.3*36
$GPRMC,163853.000,A,2233.2052,N,11413.8083,E,0.0,105.6,040191,,,A*6B
$GPGGA,163853.000,2233.2052,N,11413.8083,E,1,06,1.6,49.4,M,14.2,M,,0000*69
$GPVTG,105.6,T,,M,0.0,N,0.0,K,A*0F
$GPGLL,2233.2052,N,11413.8083,E,163853.00,A,A*63
$GPGSA,A,3,05,10,12,15,26,27,,,,,,,2.1,1.6,1.3*36
$GPRMC,163854.000,A,2233.2052,N,11413.8083,E,0.0,105.6,040191,,,A*6C
$GPGGA,163854.000,2233.2052,N,11413.8083,E,1,06,1.6,49.4,M,14.2,M,,0000*6E
$GPVTG,105.6,T,,M,0.0,N,0.0,K,A*0F
$GPGLL,2233.2052,N,11413.8083,E,163854.00,A,A*64
$GPGSA,A,3,05,10,12,15,26,27,,,,,,,2.1,1.6,1.3*36
$GPRMC,163855.000,A,2233.2052,N,11413.8083,E,0.0,105.6,040191,,,A*6D
$GPGGA,163855.000,2233.2052,N,11413.8083,E,1,06,1.6,49.4,M,14.2,M,,0000*6F
$GPVTG,105.6,T,,M,0.0,N,0.0,K,A*0F
$GPGLL,2233.2052,N,11413.8083,E,163855.00,A,A*65
$GPGSA,A,3,05,10,12,15,26,27,,,,,,,2.1,1.6,1.3*36
$GPRMC,163856.000,A,2233.2052,N,11413.8083,E,0.0,105.6,040191,,,A*6E
$GPGGA,163856.000,2233.2052,N,11413.8083,E,1,06,1.6,49.4,M,14.2,M,,0000*6C
$GPVTG,105.6,T,,M,0.0,N,0.0,K,A*0F
$GPGLL,2233.2052,N,11413.8083,E,163856.00,A,A*66
$GPGSA,A,3,05,10,12,15,26,27,,,,,,,2.1,1.6,1.3*36
$GPGSV,3,1,10,10,22,049,19,05,48,009,16,27,10,175,33,12,05,219,27*77
$GPGSV,3,2,10,26,81,150,34,15,57,211,42,29,36,305,19,02,49,091,*72
$GPGSV,3,3,10,04,15,113,,08,14,074,*75
$GPRMC,163857.000,A,2233.2052,N,11413.8083,E,0.0,105.6,040191,,,A*6F
$GPGGA,163857.000,2233.2052,N,11413.8083,E,1,06,1.6,49.4,M,14.2,M,,0000*6D
$GPVTG,105.6,T,,M,0.0,N,0.0,K,A*0F
$GPGLL,2233.2052,N,11413.8083,E,163857.00,A,A*67
$GPGSA,A,3,05,10,12,15,26,27,,,,,,,2.1,1.6,1.3*36
$GPRMC,163858.000,A,2233.2052,N,11413.8083,E,0.0,105.6,040191,,,A*60
$GPGGA,163858.000,2233.2052,N,11413.8083,E,1,06,1.6,49.4,M,14.2,M,,0000*62
$GPVTG,105.6,T,,M,0.0,N,0.0,K,A*0F
$GPGLL,2233.2052,N,11413.8083,E,163858.00,A,A*68
$GPGSA,A,3,05,10,12,15,26,27,,,,,,,2.1,1.6,1.3*36
$GPRMC,163859.000,A,2233.2052,N,11413.8083,E,0.0,105.6,040191,,,A*61
$GPGGA,163859.000,2233.2052,N,11413.8083,E,1,06,1.6,49.4,M,14.2,M,,0000*63
$GPVTG,105.6,T,,M,0.0,N,0.0,K,A*0F
$GPGLL,2233.2052,N,11413.8083,E,163859.00,A,A*69
$GPGSA,A,3,05,10,12,15,26,27,,,,,,,2.1,1.6,1.3*36
$GPRMC,163900.000,A,2233.2052,N,11413.8083,E,0.0,105.6,040191,,,A*6C
$GPGGA,163900.000,2233.2052,N,11413.8083,E,1,06,1.6,49.4,M,14.2,M,,0000*6E
$GPVTG,105.6,T,,M,0.0,N,0.0,K,A*0F
$GPGLL,2233.2052,N,11413.8083,E,163900.00,A,A*64
$GPGSA,A,3,05,10,12,15,26,27,,,,,,,2.1,1.6,1.3*36
$GPRMC,163901.000,A,2233.2052,N,11413.8083,E,0.0,105.6,040191,,,A*6D
$GPGGA,163901.000,2233.2052,N,11413.8083,E,1,06,1.6,49.4,M,14.2,M,,0000*6F
$GPVTG,105.6,T,,M,0.0,N,0.0,K,A*0F
$GPGLL,2233.2052,N,11413.8083,E,163901.00,A,A*65
$GPGSA,A,3,05,10,12,15,26,27,,,,,,,2.1,1.6,1.3*36
$GPGSV,3,1,10,10,22,049,19,05,48,009,16,27,10,174,33,12,05,219,26*77
$GPGSV,3,2,10,26,81,149,34,15,57,211,41,29,36,305,,02,49,091,*71
$GPGSV,3,3,10,04,15,113,,08,14,074,*75
$GPRMC,163902.000,A,2233.2052,N,11413.8083,E,0.0,105.6,040191,,,A*6E
$GPGGA,163902.000,2233.2052,N,11413.8083,E,1,06,1.6,49.4,M,14.2,M,,0000*6C
$GPVTG,105.6,T,,M,0.0,N,0.0,K,A*0F
$GPGLL,2233.2052,N,11413.8083,E,163902.00,A,A*66
$GPGSA,A,3,05,10,12,15,26,27,,,,,,,2.1,1.6,1.3*36
$GPRMC,163903.000,A,2233.2052,N,11413.8083,E,0.0,105.6,040191,,,A*6F
$GPGGA,163903.000,2233.2052,N,11413.8083,E,1,06,1.6,49.4,M,14.2,M,,0000*6D
$GPVTG,105.6,T,,M,0.0,N,0.0,K,A*0F
$GPGLL,2233.2052,N,11413.8083,E,163903.00,A,A*67
$GPGSA,A,3,05,10,12,15,26,27,,,,,,,2.1,1.6,1.3*36
$GPRMC,163904.000,A,2233.2052,N,11413.8083,E,0.0,105.6,040191,,,A*68
$GPGGA,163904.000,2233.2052,N,11413.8083,E,1,06,1.6,49.4,M,14.2,M,,0000*6A
$GPVTG,105.6,T,,M,0.0,N,0.0,K,A*0F
$GPGLL,2233.2052,N,11413.8083,E,163904.00,A,A*60
$GPGSA,A,3,05,10,12,15,26,27,,,,,,,2.1,1.6,1.3*36
$GPRMC,163905.000,A,2233.2052,N,11413.8083,E,0.0,105.6,040191,,,A*69
$GPGGA,163905.000,2233.2052,N,11413.8083,E,1,06,1.6,49.4,M,14.2,M,,0000*6B
$GPVTG,105.6,T,,M,0.0,N,0.0,K,A*0F
$GPGLL,2233.2052,N,11413.8083,E,163905.00,A,A*61
$GPGSA,A,3,05,10,12,15,26,27,,,,,,,2.1,1.6,1.3*36
$GPRMC,163906.000,A,2233.2052,N,11413.8083,E,0.0,105.6,040191,,,A*6A
$GPGGA,163906.000,2233.2052,N,11413.8083,E,1,06,1.6,49.4,M,14.2,M,,0000*68
$GPVTG,105.6,T,,M,0.0,N,0.0,K,A*0F
$GPGLL,2233.2052,N,11413.8083,E,163906.00,A,A*62
$GPGSA,A,3,05,10,12,15,26,27,,,,,,,2.1,1.6,1.3*36
$GPGSV,3,1,10,10,22,049,21,05,48,009,15,27,10,174,32,12,05,219,28*70
$GPGSV,3,2,10,26,81,149,34,15,57,211,41,02,49,091,,29,36,304,*70
$GPGSV,3,3,10,04,15,113,,08,14,074,*75
$GPRMC,163907.000,A,2233.2052,N,11413.8083,E,0.0,105.6,040191,,,A*6B
$GPGGA,163907.000,2233.2052,N,11413.8083,E,1,06,1.6,49.4,M,14.2,M,,0000*69
$GPVTG,105.6,T,,M,0.0,N,0.0,K,A*0F
$GPGLL,2233.2052,N,11413.8083,E,163907.00,A,A*63
$GPGSA,A,3,05,10,12,15,26,27,,,,,,,2.1,1.6,1.3*36
$GPRMC,163908.000,A,2233.2052,N,11413.8083,E,0.0,105.6,040191,,,A*64
$GPGGA,163908.000,2233.2052,N,11413.8083,E,1,06,1.6,49.4,M,14.2,M,,0000*66
$GPVTG,105.6,T,,M,0.0,N,0.0,K,A*0F
$GPGLL,2233.2052,N,11413.8083,E,163908.00,A,A*6C
$GPGSA,A,3,05,10,12,15,26,27,,,,,,,2.1,1.6,1.3*36
$GPRMC,163909.000,A,2233.2052,N,11413.8083,E,0.0,105.6,040191,,,A*65
$GPGGA,163909.000,2233.2052,N,11413.8083,E,1,06,1.6,49.4,M,14.2,M,,0000*67
$GPVTG,105.6,T,,M,0.0,N,0.0,K,A*0F
$GPGLL,2233.2052,N,11413.8083,E,163909.00,A,A*6D
$GPGSA,A,3,05,10,12,15,26,27,,,,,,,2.1,1.6,1.3*36
$GPRMC,163910.000,A,2233.2052,N,11413.8083,E,0.0,105.6,040191,,,A*6D
$GPGGA,163910.000,2233.2052,N,11413.8083,E,1,06,1.6,49.4,M,14.2,M,,0000*6F
$GPVTG,105.6,T,,M,0.0,N,0.0,K,A*0F
$GPGLL,2233.2052,N,11413.8083,E,163910.00,A,A*65
$GPGSA,A,3,05,10,12,15,26,27,,,,,,,2.1,1.6,1.3*36
$GPRMC,163911.000,A,2233.2052,N,11413.8083,E,0.0,105.6,040191,,,A*6C
$GPGGA,163911.000,2233.2052,N,11413.8083,E,1,06,1.6,49.4,M,14.2,M,,0000*6E
$GPVTG,105.6,T,,M,0.0,N,0.0,K,A*0F
$GPGLL,2233.2052,N,11413.8083,E,163911.00,A,A*64
$GPGSA,A,3,05,10,12,15,26,27,,,,,,,2.1,1.6,1.3*36
$GPGSV,3,1,10,10,22,049,20,05,48,009,17,27,10,174,33,12,05,219,29*73
$GPGSV,3,2,10,26,81,149,33,15,57,211,40,02,49,091,,29,36,304,*76
$GPGSV,3,3,10,04,15,113,,08,14,074,*75
$GPRMC,163912.000,A,2233.2052,N,11413.8083,E,0.0,105.6,040191,,,A*6F
$GPGGA,163912.000,2233.2052,N,11413.8083,E,1,06,1.6,49.4,M,14.2,M,,0000*6D
$GPVTG,105.6,T,,M,0.0,N,0.0,K,A*0F
$GPGLL,2233.2052,N,11413.8083,E,163912.00,A,A*67
$GPGSA,A,3,05,10,12,15,26,27,,,,,,,2.1,1.6,1.3*36
$GPRMC,163913.000,A,2233.2052,N,11413.8083,E,0.0,105.6,040191,,,A*6E
$GPGGA,163913.000,2233.2052,N,11413.8083,E,1,07,1.4,49.4,M,14.2,M,,0000*6F
$GPVTG,105.6,T,,M,0.0,N,0.0,K,A*0F
$GPGLL,2233.2052,N,11413.8083,E,163913.00,A,A*66
$GPGSA,A,3,02,05,10,12,15,26,27,,,,,,1.8,1.4,1.2*3D
$GPRMC,163914.000,A,2233.2052,N,11413.8083,E,0.0,105.6,040191,,,A*69
$GPGGA,163914.000,2233.2052,N,11413.8083,E,1,07,1.4,49.4,M,14.2,M,,0000*68
$GPVTG,105.6,T,,M,0.0,N,0.0,K,A*0F
$GPGLL,2233.2052,N,11413.8083,E,163914.00,A,A*61
$GPGSA,A,3,02,05,10,12,15,26,27,,,,,,1.8,1.4,1.2*3D
$GPRMC,163915.000,A,2233.2052,N,11413.8083,E,0.0,105.6,040191,,,A*68
$GPGGA,163915.000,2233.2052,N,11413.8083,E,1,07,1.4,49.4,M,14.2,M,,0000*69
$GPVTG,105.6,T,,M,0.0,N,0.0,K,A*0F
$GPGLL,2233.2052,N,11413.8083,E,163915.00,A,A*60
$GPGSA,A,3,02,05,10,12,15,26,27,,,,,,1.8,1.4,1.2*3D
$GPRMC,163916.000,A,2233.2052,N,11413.8083,E,0.0,105.6,040191,,,A*6B
$GPGGA,163916.000,2233.2052,N,11413.8083,E,1,07,1.4,49.4,M,14.2,M,,0000*6A
$GPVTG,105.6,T,,M,0.0,N,0.0,K,A*0F
$GPGLL,2233.2052,N,11413.8083,E,163916.00,A,A*63
$GPGSA,A,3,02,05,10,12,15,26,27,,,,,,1.8,1.4,1.2*3D
$GPGSV,3,1,10,10,22,049,20,05,48,009,16,02,49,091,14,27,10,174,33*77
$GPGSV,3,2,10,12,05,219,29,26,81,149,34,15,57,211,40,29,36,304,*71
$GPGSV,3,3,10,04,15,113,,08,14,074,*75
$GPRMC,163917.000,A,2233.2052,N,11413.8083,E,0.0,105.6,040191,,,A*6A
$GPGGA,163917.000,2233.2052,N,11413.8083,E,1,07,1.4,49.4,M,14.2,M,,0000*6B
$GPVTG,105.6,T,,M,0.0,N,0.0,K,A*0F
$GPGLL,2233.2052,N,11413.8083,E,163917.00,A,A*62
$GPGSA,A,3,02,05,10,12,15,26,27,,,,,,1.8,1.4,1.2*3D
$GPRMC,163918.000,A,2233.2052,N,11413.8083,E,0.0,105.6,040191,,,A*65
$GPGGA,163918.000,2233.2052,N,11413.8083,E,1,07,1.4,49.4,M,14.2,M,,0000*64
$GPVTG,105.6,T,,M,0.0,N,0.0,K,A*0F
$GPGLL,2233.2052,N,11413.8083,E,163918.00,A,A*6D
$GPGSA,A,3,02,05,10,12,15,26,27,,,,,,1.8,1.4,1.2*3D
$GPRMC,163919.000,A,2233.2052,N,11413.8083,E,0.0,105.6,040191,,,A*64
$GPGGA,163919.000,2233.2052,N,11413.8083,E,1,07,1.4,49.4,M,14.2,M,,0000*65
$GPVTG,105.6,T,,M,0.0,N,0.0,K,A*0F
$GPGLL,2233.2052,N,11413.8083,E,163919.00,A,A*6C
$GPGSA,A,3,02,05,10,12,15,26,27,,,,,,1.8,1.4,1.2*3D
$GPRMC,163920.000,A,2233.2052,N,11413.8083,E,0.0,105.6,040191,,,A*6E
$GPGGA,163920.000,2233.2052,N,11413.8083,E,1,07,1.4,49.4,M,14.2,M,,0000*6F
$GPVTG,105.6,T,,M,0.0,N,0.0,K,A*0F
$GPGLL,2233.2052,N,11413.8083,E,163920.00,A,A*66
$GPGSA,A,3,02,05,10,12,15,26,27,,,,,,1.8,1.4,1.2*3D
$GPRMC,163921.000,A,2233.2052,N,11413.8083,E,0.0,105.6,040191,,,A*6F
$GPGGA,163921.000,2233.2052,N,11413.8083,E,1,07,1.4,49.4,M,14.2,M,,0000*6E
$GPVTG,105.6,T,,M,0.0,N,0.0,K,A*0F
$GPGLL,2233.2052,N,11413.8083,E,163921.00,A,A*67
$GPGSA,A,3,02,05,10,12,15,26,27,,,,,,1.8,1.4,1.2*3D
$GPGSV,3,1,10,10,22,049,17,05,48,009,16,02,49,092,14,27,10,174,33*70
$GPGSV,3,2,10,12,05,219,26,26,81,149,34,15,57,211,41,29,36,304,*7F
$GPGSV,3,3,10,04,15,113,,08,14,074,*75
$GPRMC,163922.000,A,2233.2052,N,11413.8083,E,0.0,105.6,040191,,,A*6C
$GPGGA,163922.000,2233.2052,N,11413.8083,E,1,07,1.4,49.4,M,14.2,M,,0000*6D
$GPVTG,105.6,T,,M,0.0,N,0.0,K,A*0F
$GPGLL,2233.2052,N,11413.8083,E,163922.00,A,A*64
$GPGSA,A,3,02,05,10,12,15,26,27,,,,,,1.8,1.4,1.2*3D
$GPRMC,163923.000,A,2233.2052,N,11413.8083,E,0.0,105.6,040191,,,A*6D
$GPGGA,163923.000,2233.2052,N,11413.8083,E,1,07,1.4,49.4,M,14.2,M,,0000*6C
$GPVTG,105.6,T,,M,0.0,N,0.0,K,A*0F
$GPGLL,2233.2052,N,11413.8083,E,163923.00,A,A*65
$GPGSA,A,3,02,05,10,12,15,26,27,,,,,,1.8,1.4,1.2*3D
$GPRMC,163924.000,A,2233.2052,N,11413.8083,E,0.0,105.6,040191,,,A*6A
$GPGGA,163924.000,2233.2052,N,11413.8083,E,1,07,1.4,49.4,M,14.2,M,,0000*6B
$GPVTG,105.6,T,,M,0.0,N,0.0,K,A*0F
$GPGLL,2233.2052,N,11413.8083,E,163924.00,A,A*62
$GPGSA,A,3,02,05,10,12,15,26,27,,,,,,1.8,1.4,1.2*3D
$GPRMC,163925.000,A,2233.2052,N,11413.8083,E,0.0,105.6,040191,,,A*6B
$GPGGA,163925.000,2233.2052,N,11413.8083,E,1,07,1.4,49.4,M,14.2,M,,0000*6A
$GPVTG,105.6,T,,M,0.0,N,0.0,K,A*0F
$GPGLL,2233.2052,N,11413.8083,E,163925.00,A,A*63
$GPGSA,A,3,02,05,10,12,15,26,27,,,,,,1.8,1.4,1.2*3D
$GPRMC,163926.000,A,2233.2052,N,11413.8083,E,0.0,105.6,040191,,,A*68
$GPGGA,163926.000,2233.2052,N,11413.8083,E,1,07,1.4,49.4,M,14.2,M,,0000*69
$GPVTG,105.6,T,,M,0.0,N,0.0,K,A*0F
$GPGLL,2233.2052,N,11413.8083,E,163926.00,A,A*60
$GPGSA,A,3,02,05,10,12,15,26,27,,,,,,1.8,1.4,1.2*3D
$GPGSV,3,1,10,10,22,049,18,05,48,009,14,02,49,092,15,27,10,174,33*7C
$GPGSV,3,2,10,12,05,219,24,26,81,148,34,15,57,211,42,29,36,304,*7F
$GPGSV,3,3,10,04,15,114,,08,14,074,*72
$GPRMC,163927.000,A,2233.2052,N,11413.8083,E,0.0,105.6,040191,,,A*69
$GPGGA,163927.000,2233.2052,N,11413.8083,E,1,07,1.4,49.4,M,14.2,M,,0000*68
$GPVTG,105.6,T,,M,0.0,N,0.0,K,A*0F
$GPGLL,2233.2052,N,11413.8083,E,163927.00,A,A*61
$GPGSA,A,3,02,05,10,12,15,26,27,,,,,,1.8,1.4,1.2*3D
$GPRMC,163928.000,A,2233.2052,N,11413.8083,E,0.0,105.6,040191,,,A*66
$GPGGA,163928.000,2233.2052,N,11413.8083,E,1,07,1.4,49.4,M,14.2,M,,0000*67
$GPVTG,105.6,T,,M,0.0,N,0.0,K,A*0F
$GPGLL,2233.2052,N,11413.8083,E,163928.00,A,A*6E
$GPGSA,A,3,02,05,10,12,15,26,27,,,,,,1.8,1.4,1.2*3D
$GPRMC,163929.000,A,2233.2052,N,11413.8083,E,0.0,105.6,040191,,,A*67
$GPGGA,163929.000,2233.2052,N,11413.8083,E,1,06,1.6,49.4,M,14.2,M,,0000*65
$GPVTG,105.6,T,,M,0.0,N,0.0,K,A*0F
$GPGLL,2233.2052,N,11413.8083,E,163929.00,A,A*6F
$GPGSA,A,3,02,05,12,15,26,27,,,,,,,2.3,1.6,1.6*32
$GPRMC,163930.000,A,2233.2052,N,11413.8083,E,0.0,105.6,040191,,,A*6F
$GPGGA,163930.000,2233.2052,N,11413.8083,E,1,07,1.4,49.4,M,14.2,M,,0000*6E
$GPVTG,105.6,T,,M,0.0,N,0.0,K,A*0F
$GPGLL,2233.2052,N,11413.8083,E,163930.00,A,A*67
$GPGSA,A,3,02,05,10,12,15,26,27,,,,,,1.8,1.4,1.2*3D
$GPRMC,163931.000,A,2233.2052,N,11413.8083,E,0.0,105.6,040191,,,A*6E
$GPGGA,163931.000,2233.2052,N,11413.8083,E,1,07,1.4,49.4,M,14.2,M,,0000*6F
$GPVTG,105.6,T,,M,0.0,N,0.0,K,A*0F
$GPGLL,2233.2052,N,11413.8083,E,163931.00,A,A*66
$GPGSA,A,3,02,05,10,12,15,26,27,,,,,,1.8,1.4,1.2*3D
$GPGSV,3,1,10,10,21,049,15,05,48,009,13,02,49,092,17,27,10,174,34*70
$GPGSV,3,2,10,12,05,219,28,26,81,148,34,15,57,211,43,29,36,304,*72
$GPGSV,3,3,10,04,15,114,,08,14,074,*72
$GPRMC,163932.000,A,2233.2052,N,11413.8083,E,0.0,105.6,040191,,,A*6D
$GPGGA,163932.000,2233.2052,N,11413.8083,E,1,07,1.4,49.4,M,14.2,M,,0000*6C
$GPVTG,105.6,T,,M,0.0,N,0.0,K,A*0F
$GPGLL,2233.2052,N,11413.8083,E,163932.00,A,A*65
$GPGSA,A,3,02,05,10,12,15,26,27,,,,,,1.8,1.4,1.2*3D
$GPRMC,163933.000,A,2233.2052,N,11413.8083,E,0.0,105.6,040191,,,A*6C
$GPGGA,163933.000,2233.2052,N,11413.8083,E,1,07,1.4,49.4,M,14.2,M,,0000*6D
$GPVTG,105.6,T,,M,0.0,N,0.0,K,A*0F
$GPGLL,2233.2052,N,11413.8083,E,163933.00,A,A*64
$GPGSA,A,3,02,05,10,12,15,26,27,,,,,,1.8,1.4,1.2*3D
$GPRMC,163934.000,A,2233.2052,N,11413.8083,E,0.0,105.6,040191,,,A*6B
$GPGGA,163934.000,2233.2052,N,11413.8083,E,1,07,1.4,49.4,M,14.2,M,,0000*6A
$GPVTG,105.6,T,,M,0.0,N,0.0,K,A*0F
$GPGLL,2233.2052,N,11413.8083,E,163934.00,A,A*63
$GPGSA,A,3,02,05,10,12,15,26,27,,,,,,1.8,1.4,1.2*3D
$GPRMC,163935.000,A,2233.2052,N,11413.8083,E,0.0,105.6,040191,,,A*6A
$GPGGA,163935.000,2233.2052,N,11413.8083,E,1,06,1.7,49.4,M,14.2,M,,0000*69
$GPVTG,105.6,T,,M,0.0,N,0.0,K,A*0F
$GPGLL,2233.2052,N,11413.8083,E,163935.00,A,A*62
$GPGSA,A,3,02,10,12,15,26,27,,,,,,,2.1,1.7,1.2*31
$GPRMC,163936.000,A,2233.2052,N,11413.8083,E,0.0,105.6,040191,,,A*69
$GPGGA,163936.000,2233.2052,N,11413.8083,E,1,06,1.7,49.4,M,14.2,M,,0000*6A
$GPVTG,105.6,T,,M,0.0,N,0.0,K,A*0F
$GPGLL,2233.2052,N,11413.8083,E,163936.00,A,A*61
$GPGSA,A,3,02,10,12,15,26,27,,,,,,,2.1,1.7,1.2*31
$GPGSV,3,1,10,10,21,049,20,05,48,009,12,02,49,092,16,27,10,174,34*76
$GPGSV,3,2,10,12,05,219,29,26,81,148,34,15,57,211,43,29,36,304,*73
$GPGSV,3,3,10,04,15,114,,08,14,074,*72
$GPRMC,163937.000,A,2233.2052,N,11413.8083,E,0.0,105.6,040191,,,A*68
$GPGGA,163937.000,2233.2052,N,11413.8083,E,1,06,1.7,49.4,M,14.2,M,,0000*6B
$GPVTG,105.6,T,,M,0.0,N,0.0,K,A*0F
$GPGLL,2233.2052,N,11413.8083,E,163937.00,A,A*60
$GPGSA,A,3,02,10,12,15,26,27,,,,,,,2.1,1.7,1.2*31
$GPRMC,163938.000,A,2233.2052,N,11413.8083,E,0.0,105.6,040191,,,A*67
$GPGGA,163938.000,2233.2052,N,11413.8083,E,1,06,1.7,49.4,M,14.2,M,,0000*64
$GPVTG,105.6,T,,M,0.0,N,0.0,K,A*0F
$GPGLL,2233.2052,N,11413.8083,E,163938.00,A,A*6F
$GPGSA,A,3,02,10,12,15,26,27,,,,,,,2.1,1.7,1.2*31
$GPRMC,163939.000,A,2233.2052,N,11413.8083,E,0.0,105.6,040191,,,A*66
$GPGGA,163939.000,2233.2052,N,11413.8083,E,1,06,1.7,49.4,M,14.2,M,,0000*65
$GPVTG,105.6,T,,M,0.0,N,0.0,K,A*0F
$GPGLL,2233.2052,N,11413.8083,E,163939.00,A,A*6E
$GPGSA,A,3,02,10,12,15,26,27,,,,,,,2.1,1.7,1.2*31
$GPRMC,163940.000,A,2233.2052,N,11413.8083,E,0.0,105.6,040191,,,A*68
$GPGGA,163940.000,2233.2052,N,11413.8083,E,1,06,1.7,49.4,M,14.2,M,,0000*6B
$GPVTG,105.6,T,,M,0.0,N,0.0,K,A*0F
$GPGLL,2233.2052,N,11413.8083,E,163940.00,A,A*60
$GPGSA,A,3,02,10,12,15,26,27,,,,,,,2.1,1.7,1.2*31
$GPRMC,163941.000,A,2233.2052,N,11413.8083,E,0.0,105.6,040191,,,A*69
$GPGGA,163941.000,2233.2052,N,11413.8083,E,1,07,1.4,49.4,M,14.2,M,,0000*68
$GPVTG,105.6,T,,M,0.0,N,0.0,K,A*0F
$GPGLL,2233.2052,N,11413.8083,E,163941.00,A,A*61
$GPGSA,A,3,02,04,10,12,15,26,27,,,,,,1.8,1.4,1.2*3C
$GPGSV,3,1,10,10,21,049,20,02,49,092,14,04,15,114,12,27,10,174,34*70
$GPGSV,3,2,10,12,05,219,30,26,81,148,35,15,57,211,44,29,36,304,*7D
$GPGSV,3,3,10,05,48,009,,08,14,074,*76
$GPRMC,163942.000,A,2233.2052,N,11413.8083,E,0.0,105.6,040191,,,A*6A
$GPGGA,163942.000,2233.2052,N,11413.8083,E,1,07,1.4,49.4,M,14.2,M,,0000*6B
$GPVTG,105.6,T,,M,0.0,N,0.0,K,A*0F
$GPGLL,2233.2052,N,11413.8083,E,163942.00,A,A*62
$GPGSA,A,3,02,04,10,12,15,26,27,,,,,,1.8,1.4,1.2*3C
$GPRMC,163943.000,A,2233.2052,N,11413.8083,E,0.0,105.6,040191,,,A*6B
$GPGGA,163943.000,2233.2052,N,11413.8083,E,1,06,1.7,49.4,M,14.2,M,,0000*68
$GPVTG,105.6,T,,M,0.0,N,0.0,K,A*0F
$GPGLL,2233.2052,N,11413.8083,E,163943.00,A,A*63
$GPGSA,A,3,02,10,12,15,26,27,,,,,,,2.1,1.7,1.2*31
$GPRMC,163944.000,A,2233.2052,N,11413.8083,E,0.0,105.6,040191,,,A*6C
$GPGGA,163944.000,2233.2052,N,11413.8083,E,1,05,2.0,49.4,M,14.2,M,,0000*68
$GPVTG,105.6,T,,M,0.0,N,0.0,K,A*0F
$GPGLL,2233.2052,N,11413.8083,E,163944.00,A,A*64
$GPGSA,A,3,10,12,15,26,27,,,,,,,,2.4,2.0,1.3*33
$GPRMC,163945.000,A,2233.2052,N,11413.8083,E,0.0,105.6,040191,,,A*6D
$GPGGA,163945.000,2233.2052,N,11413.8083,E,1,06,1.7,49.4,M,14.2,M,,0000*6E
$GPVTG,105.6,T,,M,0.0,N,0.0,K,A*0F
$GPGLL,2233.2052,N,11413.8083,E,163945.00,A,A*65
$GPGSA,A,3,02,10,12,15,26,27,,,,,,,2.1,1.7,1.2*31
$GPRMC,163946.000,A,2233.2052,N,11413.8083,E,0.0,105.6,040191,,,A*6E
$GPGGA,163946.000,2233.2052,N,11413.8083,E,1,05,2.0,49.4,M,14.2,M,,0000*6A
$GPVTG,105.6,T,,M,0.0,N,0.0,K,A*0F
$GPGLL,2233.2052,N,11413.8083,E,163946.00,A,A*66
$GPGSA,A,3,10,12,15,26,27,,,,,,,,2.4,2.0,1.3*33
$GPGSV,3,1,10,10,21,049,19,02,49,092,11,27,10,174,32,12,05,219,28*78
$GPGSV,3,2,10,26,81,148,35,15,57,211,42,05,48,009,,29,36,304,*74
$GPGSV,3,3,10,04,15,114,,08,14,074,*72
$GPRMC,163947.000,A,2233.2052,N,11413.8083,E,0.0,105.6,040191,,,A*6F
$GPGGA,163947.000,2233.2052,N,11413.8083,E,1,05,2.0,49.4,M,14.2,M,,0000*6B
$GPVTG,105.6,T,,M,0.0,N,0.0,K,A*0F
$GPGLL,2233.2052,N,11413.8083,E,163947.00,A,A*67
$GPGSA,A,3,10,12,15,26,27,,,,,,,,2.4,2.0,1.3*33
$GPRMC,163948.000,A,2233.2052,N,11413.8083,E,0.0,105.6,040191,,,A*60
$GPGGA,163948.000,2233.2052,N,11413.8083,E,1,05,2.0,49.4,M,14.2,M,,0000*64
$GPVTG,105.6,T,,M,0.0,N,0.0,K,A*0F
$GPGLL,2233.2052,N,11413.8083,E,163948.00,A,A*68
$GPGSA,A,3,10,12,15,26,27,,,,,,,,2.4,2.0,1.3*33
$GPRMC,163949.000,A,2233.2052,N,11413.8083,E,0.0,105.6,040191,,,A*61
$GPGGA,163949.000,2233.2052,N,11413.8083,E,1,06,1.6,49.4,M,14.2,M,,0000*63
$GPVTG,105.6,T,,M,0.0,N,0.0,K,A*0F
$GPGLL,2233.2052,N,11413.8083,E,163949.00,A,A*69
$GPGSA,A,3,05,10,12,15,26,27,,,,,,,2.1,1.6,1.3*36
$GPRMC,163950.000,A,2233.2052,N,11413.8083,E,0.0,105.6,040191,,,A*69
$GPGGA,163950.000,2233.2052,N,11413.8083,E,1,06,1.6,49.4,M,14.2,M,,0000*6B
$GPVTG,105.6,T,,M,0.0,N,0.0,K,A*0F
$GPGLL,2233.2052,N,11413.8083,E,163950.00,A,A*61
$GPGSA,A,3,05,10,12,15,26,27,,,,,,,2.1,1.6,1.3*36
$GPRMC,163951.000,A,2233.2052,N,11413.8083,E,0.0,105.6,040191,,,A*68
$GPGGA,163951.000,2233.2052,N,11413.8083,E,1,05,2.0,49.4,M,14.2,M,,0000*6C
$GPVTG,105.6,T,,M,0.0,N,0.0,K,A*0F
$GPGLL,2233.2052,N,11413.8083,E,163951.00,A,A*60
$GPGSA,A,3,10,12,15,26,27,,,,,,,,2.4,2.0,1.3*33
$GPGSV,3,1,10,10,21,049,18,05,48,009,12,27,10,174,33,12,05,219,29*7E
$GPGSV,3,2,10,26,81,147,34,15,57,211,42,29,36,304,,02,49,092,*7E
$GPGSV,3,3,10,04,15,114,,08,14,074,*72
$GPRMC,163952.000,A,2233.2052,N,11413.8083,E,0.0,105.6,040191,,,A*6B
$GPGGA,163952.000,2233.2052,N,11413.8083,E,1,05,2.0,49.4,M,14.2,M,,0000*6F
$GPVTG,105.6,T,,M,0.0,N,0.0,K,A*0F
$GPGLL,2233.2052,N,11413.8083,E,163952.00,A,A*63
$GPGSA,A,3,10,12,15,26,27,,,,,,,,2.4,2.0,1.3*33
$GPRMC,163953.000,A,2233.2052,N,11413.8083,E,0.0,105.6,040191,,,A*6A
$GPGGA,163953.000,2233.2052,N,11413.8083,E,1,05,2.0,49.4,M,14.2,M,,0000*6E
$GPVTG,105.6,T,,M,0.0,N,0.0,K,A*0F
$GPGLL,2233.2052,N,11413.8083,E,163953.00,A,A*62
$GPGSA,A,3,10,12,15,26,27,,,,,,,,2.4,2.0,1.3*33
$GPRMC,163954.000,A,2233.2052,N,11413.8083,E,0.0,105.6,040191,,,A*6D
$GPGGA,163954.000,2233.2052,N,11413.8083,E,1,05,2.0,49.4,M,14.2,M,,0000*69
$GPVTG,105.6,T,,M,0.0,N,0.0,K,A*0F
$GPGLL,2233.2052,N,11413.8083,E,163954.00,A,A*65
$GPGSA,A,3,10,12,15,26,27,,,,,,,,2.4,2.0,1.3*33
$GPRMC,163955.000,A,2233.2052,N,11413.8083,E,0.0,105.6,040191,,,A*6C
$GPGGA,163955.000,2233.2052,N,11413.8083,E,1,05,2.0,49.4,M,14.2,M,,0000*68
$GPVTG,105.6,T,,M,0.0,N,0.0,K,A*0F
$GPGLL,2233.2052,N,11413.8083,E,163955.00,A,A*64
$GPGSA,A,3,10,12,15,26,27,,,,,,,,2.4,2.0,1.3*33
$GPRMC,163956.000,A,2233.2052,N,11413.8083,E,0.0,105.6,040191,,,A*6F
$GPGGA,163956.000,2233.2052,N,11413.8083,E,1,05,2.0,49.4,M,14.2,M,,0000*6B
$GPVTG,105.6,T,,M,0.0,N,0.0,K,A*0F
$GPGLL,2233.2052,N,11413.8083,E,163956.00,A,A*67
$GPGSA,A,3,10,12,15,26,27,,,,,,,,2.4,2.0,1.3*33
$GPGSV,3,1,10,10,21,049,16,27,10,174,32,12,05,218,26,26,82,147,32*71
$GPGSV,3,2,10,15,57,211,41,02,49,092,,05,48,009,,29,36,304,*75
$GPGSV,3,3,10,04,15,114,,08,14,074,*72
$GPRMC,163957.000,A,2233.2052,N,11413.8083,E,0.0,105.6,040191,,,A*6E
$GPGGA,163957.000,2233.2052,N,11413.8083,E,1,05,2.0,49.4,M,14.2,M,,0000*6A
$GPVTG,105.6,T,,M,0.0,N,0.0,K,A*0F
$GPGLL,2233.2052,N,11413.8083,E,163957.00,A,A*66
$GPGSA,A,3,10,12,15,26,27,,,,,,,,2.4,2.0,1.3*33
$GPRMC,163958.000,A,2233.2052,N,11413.8083,E,0.0,105.6,040191,,,A*61
$GPGGA,163958.000,2233.2052,N,11413.8083,E,1,05,2.0,49.4,M,14.2,M,,0000*65
$GPVTG,105.6,T,,M,0.0,N,0.0,K,A*0F
$GPGLL,2233.2052,N,11413.8083,E,163958.00,A,A*69
$GPGSA,A,3,10,12,15,26,27,,,,,,,,2.4,2.0,1.3*33
$GPRMC,163959.000,A,2233.2052,N,11413.8083,E,0.0,105.6,040191,,,A*60
$GPGGA,163959.000,2233.2052,N,11413.8083,E,1,05,2.0,49.4,M,14.2,M,,0000*64
$GPVTG,105.6,T,,M,0.0,N,0.0,K,A*0F
$GPGLL,2233.2052,N,11413.8083,E,163959.00,A,A*68
$GPGSA,A,3,10,12,15,26,27,,,,,,,,2.4,2.0,1.3*33
$GPRMC,164000.000,A,2233.2052,N,11413.8083,E,0.0,105.6,040191,,,A*62
$GPGGA,164000.000,2233.2052,N,11413.8083,E,1,06,1.7,49.4,M,14.2,M,,0000*61
$GPVTG,105.6,T,,M,0.0,N,0.0,K,A*0F
$GPGLL,2233.2052,N,11413.8083,E,164000.00,A,A*6A
$GPGSA,A,3,02,10,12,15,26,27,,,,,,,2.1,1.7,1.2*31
$GPRMC,164001.000,A,2233.2052,N,11413.8083,E,0.0,105.6,040191,,,A*63
$GPGGA,164001.000,2233.2052,N,11413.8083,E,1,06,1.7,49.4,M,14.2,M,,0000*60
$GPVTG,105.6,T,,M,0.0,N,0.0,K,A*0F
$GPGLL,2233.2052,N,11413.8083,E,164001.00,A,A*6B
$GPGSA,A,3,02,10,12,15,26,27,,,,,,,2.1,1.7,1.2*31
$GPGSV,3,1,10,10,21,049,22,05,48,009,13,02,49,092,12,27,10,174,32*77
$GPGSV,3,2,10,12,05,218,26,26,82,147,32,15,57,211,41,29,36,304,21*76
$GPGSV,3,3,10,04,15,114,,08,14,074,*72
$GPRMC,164002.000,A,2233.2052,N,11413.8083,E,0.0,105.6,040191,,,A*60
$GPGGA,164002.000,2233.2052,N,11413.8083,E,1,07,1.4,49.4,M,14.2,M,,0000*61
$GPVTG,105.6,T,,M,0.0,N,0.0,K,A*0F
$GPGLL,2233.2052,N,11413.8083,E,164002.00,A,A*68
$GPGSA,A,3,02,05,10,12,15,26,27,,,,,,1.8,1.4,1.2*3D
$GPRMC,164003.000,A,2233.2052,N,11413.8083,E,0.0,105.6,040191,,,A*61
$GPGGA,164003.000,2233.2052,N,11413.8083,E,1,07,1.4,49.4,M,14.2,M,,0000*60
$GPVTG,105.6,T,,M,0.0,N,0.0,K,A*0F
$GPGLL,2233.2052,N,11413.8083,E,164003.00,A,A*69
$GPGSA,A,3,02,05,10,12,15,26,27,,,,,,1.8,1.4,1.2*3D
$GPRMC,164004.000,A,2233.2052,N,11413.8083,E,0.0,105.6,040191,,,A*66
$GPGGA,164004.000,2233.2052,N,11413.8083,E,1,06,1.7,49.4,M,14.2,M,,0000*65
$GPVTG,105.6,T,,M,0.0,N,0.0,K,A*0F
$GPGLL,2233.2052,N,11413.8083,E,164004.00,A,A*6E
$GPGSA,A,3,02,10,12,15,26,27,,,,,,,2.1,1.7,1.2*31
$GPRMC,164005.000,A,2233.2052,N,11413.8083,E,0.0,105.6,040191,,,A*67
$GPGGA,164005.000,2233.2052,N,11413.8083,E,1,06,1.7,49.4,M,14.2,M,,0000*64
$GPVTG,105.6,T,,M,0.0,N,0.0,K,A*0F
$GPGLL,2233.2052,N,11413.8083,E,164005.00,A,A*6F
$GPGSA,A,3,02,10,12,15,26,27,,,,,,,2.1,1.7,1.2*31
$GPRMC,164006.000,A,2233.2052,N,11413.8083,E,0.0,105.6,040191,,,A*64
$GPGGA,164006.000,2233.2052,N,11413.8083,E,1,06,1.7,49.4,M,14.2,M,,0000*67
$GPVTG,105.6,T,,M,0.0,N,0.0,K,A*0F
$GPGLL,2233.2052,N,11413.8083,E,164006.00,A,A*6C
$GPGSA,A,3,02,10,12,15,26,27,,,,,,,2.1,1.7,1.2*31
$GPGSV,3,1,10,10,21,049,23,02,49,092,18,27,10,174,31,12,05,218,21*73
$GPGSV,3,2,10,26,82,147,31,15,57,211,40,29,36,304,24,05,48,009,*78
$GPGSV,3,3,10,04,15,114,,08,14,074,*72
$GPRMC,164007.000,A,2233.2052,N,11413.8083,E,0.0,105.6,040191,,,A*65
$GPGGA,164007.000,2233.2052,N,11413.8083,E,1,06,1.7,49.4,M,14.2,M,,0000*66
$GPVTG,105.6,T,,M,0.0,N,0.0,K,A*0F
$GPGLL,2233.2052,N,11413.8083,E,164007.00,A,A*6D
$GPGSA,A,3,02,10,12,15,26,27,,,,,,,2.1,1.7,1.2*31
$GPRMC,164008.000,A,2233.2052,N,11413.8083,E,0.0,105.6,040191,,,A*6A
$GPGGA,164008.000,2233.2052,N,11413.8083,E,1,06,1.7,49.4,M,14.2,M,,0000*69
$GPVTG,105.6,T,,M,0.0,N,0.0,K,A*0F
$GPGLL,2233.2052,N,11413.8083,E,164008.00,A,A*62
$GPGSA,A,3,02,10,12,15,26,27,,,,,,,2.1,1.7,1.2*31
$GPRMC,164009.000,A,2233.2052,N,11413.8083,E,0.0,105.6,040191,,,A*6B
$GPGGA,164009.000,2233.2052,N,11413.8083,E,1,06,1.7,49.4,M,14.2,M,,0000*68
$GPVTG,105.6,T,,M,0.0,N,0.0,K,A*0F
$GPGLL,2233.2052,N,11413.8083,E,164009.00,A,A*63
$GPGSA,A,3,02,10,12,15,26,27,,,,,,,2.1,1.7,1.2*31
$GPRMC,164010.000,A,2233.2052,N,11413.8083,E,0.0,105.6,040191,,,A*63
$GPGGA,164010.000,2233.2052,N,11413.8083,E,1,06,1.7,49.4,M,14.2,M,,0000*60
$GPVTG,105.6,T,,M,0.0,N,0.0,K,A*0F
$GPGLL,2233.2052,N,11413.8083,E,164010.00,A,A*6B
$GPGSA,A,3,02,10,12,15,26,27,,,,,,,2.1,1.7,1.2*31
$GPRMC,164011.000,A,2233.2052,N,11413.8083,E,0.0,105.6,040191,,,A*62
$GPGGA,164011.000,2233.2052,N,11413.8083,E,1,06,1.7,49.4,M,14.2,M,,0000*61
$GPVTG,105.6,T,,M,0.0,N,0.0,K,A*0F
$GPGLL,2233.2052,N,11413.8083,E,164011.00,A,A*6A
$GPGSA,A,3,02,10,12,15,26,27,,,,,,,2.1,1.7,1.2*31
$GPGSV,3,1,10,10,21,049,20,02,49,092,17,27,10,174,31,12,05,218,20*7E
$GPGSV,3,2,10,26,82,147,30,15,57,211,41,29,36,304,20,05,47,009,*73
$GPGSV,3,3,10,04,15,114,,08,14,074,*72
$GPRMC,164012.000,A,2233.2052,N,11413.8083,E,0.0,105.6,040191,,,A*61
$GPGGA,164012.000,2233.2052,N,11413.8083,E,1,06,1.7,49.4,M,14.2,M,,0000*62
$GPVTG,105.6,T,,M,0.0,N,0.0,K,A*0F
$GPGLL,2233.2052,N,11413.8083,E,164012.00,A,A*69
$GPGSA,A,3,02,10,12,15,26,27,,,,,,,2.1,1.7,1.2*31
$GPRMC,164013.000,A,2233.2052,N,11413.8083,E,0.0,105.6,040191,,,A*60
$GPGGA,164013.000,2233.2052,N,11413.8083,E,1,06,1.7,49.4,M,14.2,M,,0000*63
$GPVTG,105.6,T,,M,0.0,N,0.0,K,A*0F
$GPGLL,2233.2052,N,11413.8083,E,164013.00,A,A*68
$GPGSA,A,3,02,10,12,15,26,27,,,,,,,2.1,1.7,1.2*31
$GPRMC,164014.000,A,2233.2052,N,11413.8083,E,0.0,105.6,040191,,,A*67
$GPGGA,164014.000,2233.2052,N,11413.8083,E,1,06,1.7,49.4,M,14.2,M,,0000*64
$GPVTG,105.6,T,,M,0.0,N,0.0,K,A*0F
$GPGLL,2233.2052,N,11413.8083,E,164014.00,A,A*6F
$GPGSA,A,3,02,10,12,15,26,27,,,,,,,2.1,1.7,1.2*31
$GPRMC,164015.000,A,2233.2052,N,11413.8083,E,0.0,105.6,040191,,,A*66
$GPGGA,164015.000,2233.2052,N,11413.8083,E,1,07,1.4,49.4,M,14.2,M,,0000*67
$GPVTG,105.6,T,,M,0.0,N,0.0,K,A*0F
$GPGLL,2233.2052,N,11413.8083,E,164015.00,A,A*6E
$GPGSA,A,3,02,05,10,12,15,26,27,,,,,,1.8,1.4,1.2*3D
$GPRMC,164016.000,A,2233.2052,N,11413.8083,E,0.0,105.6,040191,,,A*65
$GPGGA,164016.000,2233.2052,N,11413.8083,E,1,07,1.4,49.4,M,14.2,M,,0000*64
$GPVTG,105.6,T,,M,0.0,N,0.0,K,A*0F
$GPGLL,2233.2052,N,11413.8083,E,164016.00,A,A*6D
$GPGSA,A,3,02,05,10,12,15,26,27,,,,,,1.8,1.4,1.2*3D
$GPGSV,3,1,10,10,21,049,19,05,47,009,12,02,49,092,16,27,10,174,31*76
$GPGSV,3,2,10,12,05,218,20,26,82,146,31,15,58,211,42,29,36,304,22*7D
$GPGSV,3,3,10,04,15,114,,08,14,074,*72
$GPRMC,164017.000,A,2233.2052,N,11413.8083,E,0.0,105.6,040191,,,A*64
$GPGGA,164017.000,2233.2052,N,11413.8083,E,1,06,1.7,49.4,M,14.2,M,,0000*67
$GPVTG,105.6,T,,M,0.0,N,0.0,K,A*0F
$GPGLL,2233.2052,N,11413.8083,E,164017.00,A,A*6C
$GPGSA,A,3,02,10,12,15,26,27,,,,,,,2.1,1.7,1.2*31
$GPRMC,164018.000,A,2233.2052,N,11413.8083,E,0.0,105.6,040191,,,A*6B
$GPGGA,164018.000,2233.2052,N,11413.8083,E,1,06,1.7,49.4,M,14.2,M,,0000*68
$GPVTG,105.6,T,,M,0.0,N,0.0,K,A*0F
$GPGLL,2233.2052,N,11413.8083,E,164018.00,A,A*63
$GPGSA,A,3,02,10,12,15,26,27,,,,,,,2.1,1.7,1.2*31
$GPRMC,164019.000,A,2233.2052,N,11413.8083,E,0.0,105.6,040191,,,A*6A
$GPGGA,164019.000,2233.2052,N,11413.8083,E,1,06,1.7,49.4,M,14.2,M,,0000*69
$GPVTG,105.6,T,,M,0.0,N,0.0,K,A*0F
$GPGLL,2233.2052,N,11413.8083,E,164019.00,A,A*62
$GPGSA,A,3,02,10,12,15,26,27,,,,,,,2.1,1.7,1.2*31
$GPRMC,164020.000,A,2233.2052,N,11413.8083,E,0.0,105.6,040191,,,A*60
$GPGGA,164020.000,2233.2052,N,11413.8083,E,1,06,1.7,49.4,M,14.2,M,,0000*63
$GPVTG,105.6,T,,M,0.0,N,0.0,K,A*0F
$GPGLL,2233.2052,N,11413.8083,E,164020.00,A,A*68
$GPGSA,A,3,02,10,12,15,26,27,,,,,,,2.1,1.7,1.2*31
$GPRMC,164021.000,A,2233.2052,N,11413.8083,E,0.0,105.6,040191,,,A*61
$GPGGA,164021.000,2233.2052,N,11413.8083,E,1,06,1.7,49.4,M,14.2,M,,0000*62
$GPVTG,105.6,T,,M,0.0,N,0.0,K,A*0F
$GPGLL,2233.2052,N,11413.8083,E,164021.00,A,A*69
$GPGSA,A,3,02,10,12,15,26,27,,,,,,,2.1,1.7,1.2*31
$GPGSV,3,1,10,10,21,049,20,02,49,092,17,27,10,174,30,12,05,218,22*7D
$GPGSV,3,2,10,26,82,146,30,15,58,211,43,29,37,304,21,05,47,009,*7F
$GPGSV,3,3,10,04,15,114,,08,14,074,*72
$GPRMC,164022.000,A,2233.2052,N,11413.8083,E,0.0,105.6,040191,,,A*62
$GPGGA,164022.000,2233.2052,N,11413.8083,E,1,06,1.7,49.4,M,14.2,M,,0000*61
$GPVTG,105.6,T,,M,0.0,N,0.0,K,A*0F
$GPGLL,2233.2052,N,11413.8083,E,164022.00,A,A*6A
$GPGSA,A,3,02,10,12,15,26,27,,,,,,,2.1,1.7,1.2*31
$GPRMC,164023.000,A,2233.2052,N,11413.8083,E,0.0,105.6,040191,,,A*63
$GPGGA,164023.000,2233.2052,N,11413.8083,E,1,05,3.0,49.4,M,14.2,M,,0000*66
$GPVTG,105.6,T,,M,0.0,N,0.0,K,A*0F
$GPGLL,2233.2052,N,11413.8083,E,164023.00,A,A*6B
$GPGSA,A,3,02,12,15,26,27,,,,,,,,3.9,3.0,2.5*38
$GPRMC,164024.000,A,2233.2052,N,11413.8083,E,0.0,105.6,040191,,,A*64
$GPGGA,164024.000,2233.2052,N,11413.8083,E,1,05,3.0,49.4,M,14.2,M,,0000*61
$GPVTG,105.6,T,,M,0.0,N,0.0,K,A*0F
$GPGLL,2233.2052,N,11413.8083,E,164024.00,A,A*6C
$GPGSA,A,3,02,12,15,26,27,,,,,,,,3.9,3.0,2.5*38
$GPRMC,164025.000,A,2233.2052,N,11413.8083,E,0.0,105.6,040191,,,A*65
$GPGGA,164025.000,2233.2052,N,11413.8083,E,1,05,3.0,49.4,M,14.2,M,,0000*60
$GPVTG,105.6,T,,M,0.0,N,0.0,K,A*0F
$GPGLL,2233.2052,N,11413.8083,E,164025.00,A,A*6D
$GPGSA,A,3,02,12,15,26,27,,,,,,,,3.9,3.0,2.5*38
$GPRMC,164026.000,A,2233.2052,N,11413.8083,E,0.0,105.6,040191,,,A*66
$GPGGA,164026.000,2233.2052,N,11413.8083,E,1,06,1.6,49.4,M,14.2,M,,0000*64
$GPVTG,105.6,T,,M,0.0,N,0.0,K,A*0F
$GPGLL,2233.2052,N,11413.8083,E,164026.00,A,A*6E
$GPGSA,A,3,02,05,12,15,26,27,,,,,,,2.3,1.6,1.6*32
$GPGSV,3,1,10,05,47,010,16,02,49,092,16,27,10,174,31,12,05,218,20*72
$GPGSV,3,2,10,26,82,146,30,15,58,211,43,29,37,304,18,10,21,049,*75
$GPGSV,3,3,10,04,15,114,,08,14,074,*72
$GPRMC,164027.000,A,2233.2052,N,11413.8083,E,0.0,105.6,040191,,,A*67
$GPGGA,164027.000,2233.2052,N,11413.8083,E,1,06,1.6,49.4,M,14.2,M,,0000*65
$GPVTG,105.6,T,,M,0.0,N,0.0,K,A*0F
$GPGLL,2233.2052,N,11413.8083,E,164027.00,A,A*6F
$GPGSA,A,3,02,05,12,15,26,27,,,,,,,2.3,1.6,1.6*32
$GPRMC,164028.000,A,2233.2052,N,11413.8083,E,0.0,105.6,040191,,,A*68
$GPGGA,164028.000,2233.2052,N,11413.8083,E,1,06,1.6,49.4,M,14.2,M,,0000*6A
$GPVTG,105.6,T,,M,0.0,N,0.0,K,A*0F
$GPGLL,2233.2052,N,11413.8083,E,164028.00,A,A*60
$GPGSA,A,3,02,05,12,15,26,27,,,,,,,2.3,1.6,1.6*32
$GPRMC,164029.000,A,2233.2052,N,11413.8083,E,0.0,105.6,040191,,,A*69
$GPGGA,164029.000,2233.2052,N,11413.8083,E,1,07,1.4,49.4,M,14.2,M,,0000*68
$GPVTG,105.6,T,,M,0.0,N,0.0,K,A*0F
$GPGLL,2233.2052,N,11413.8083,E,164029.00,A,A*61
$GPGSA,A,3,02,05,10,12,15,26,27,,,,,,1.8,1.4,1.2*3D
$GPRMC,164030.000,A,2233.2052,N,11413.8083,E,0.0,105.6,040191,,,A*61
$GPGGA,164030.000,2233.2052,N,11413.8083,E,1,07,1.4,49.4,M,14.2,M,,0000*60
$GPVTG,105.6,T,,M,0.0,N,0.0,K,A*0F
$GPGLL,2233.2052,N,11413.8083,E,164030.00,A,A*69
$GPGSA,A,3,02,05,10,12,15,26,27,,,,,,1.8,1.4,1.2*3D
$GPRMC,164031.000,A,2233.2052,N,11413.8083,E,0.0,105.6,040191,,,A*60
$GPGGA,164031.000,2233.2052,N,11413.8083,E,1,07,1.4,49.4,M,14.2,M,,0000*61
$GPVTG,105.6,T,,M,0.0,N,0.0,K,A*0F
$GPGLL,2233.2052,N,11413.8083,E,164031.00,A,A*68
$GPGSA,A,3,02,05,10,12,15,26,27,,,,,,1.8,1.4,1.2*3D
$GPGSV,3,1,10,10,21,049,17,05,47,010,19,02,49,092,15,27,10,174,31*78
$GPGSV,3,2,10,12,05,218,22,26,82,146,28,15,58,211,43,29,37,304,19*7F
$GPGSV,3,3,10,04,15,114,,08,14,073,*75
$GPRMC,164032.000,A,2233.2052,N,11413.8083,E,0.0,105.6,040191,,,A*63
$GPGGA,164032.000,2233.2052,N,11413.8083,E,1,07,1.4,49.4,M,14.2,M,,0000*62
$GPVTG,105.6,T,,M,0.0,N,0.0,K,A*0F
$GPGLL,2233.2052,N,11413.8083,E,164032.00,A,A*6B
$GPGSA,A,3,02,05,10,12,15,26,27,,,,,,1.8,1.4,1.2*3D
$GPRMC,164033.000,A,2233.2052,N,11413.8083,E,0.0,105.6,040191,,,A*62
$GPGGA,164033.000,2233.2052,N,11413.8083,E,1,07,1.4,49.4,M,14.2,M,,0000*63
$GPVTG,105.6,T,,M,0.0,N,0.0,K,A*0F
$GPGLL,2233.2052,N,11413.8083,E,164033.00,A,A*6A
$GPGSA,A,3,02,05,10,12,15,26,27,,,,,,1.8,1.4,1.2*3D
$GPRMC,164034.000,A,2233.2052,N,11413.8083,E,0.0,105.6,040191,,,A*65
$GPGGA,164034.000,2233.2052,N,11413.8083,E,1,07,1.4,49.4,M,14.2,M,,0000*64
$GPVTG,105.6,T,,M,0.0,N,0.0,K,A*0F
$GPGLL,2233.2052,N,11413.8083,E,164034.00,A,A*6D
$GPGSA,A,3,02,05,10,12,15,26,27,,,,,,1.8,1.4,1.2*3D
$GPRMC,164035.000,A,2233.2052,N,11413.8083,E,0.0,105.6,040191,,,A*64
$GPGGA,164035.000,2233.2052,N,11413.8083,E,1,07,1.4,49.4,M,14.2,M,,0000*65
$GPVTG,105.6,T,,M,0.0,N,0.0,K,A*0F
$GPGLL,2233.2052,N,11413.8083,E,164035.00,A,A*6C
$GPGSA,A,3,02,05,10,12,15,26,27,,,,,,1.8,1.4,1.2*3D
$GPRMC,164036.000,A,2233.2052,N,11413.8083,E,0.0,105.6,040191,,,A*67
$GPGGA,164036.000,2233.2052,N,11413.8083,E,1,07,1.4,49.4,M,14.2,M,,0000*66
$GPVTG,105.6,T,,M,0.0,N,0.0,K,A*0F
$GPGLL,2233.2052,N,11413.8083,E,164036.00,A,A*6F
$GPGSA,A,3,02,05,10,12,15,26,27,,,,,,1.8,1.4,1.2*3D
$GPGSV,3,1,10,10,21,049,22,05,47,010,20,02,49,092,15,27,10,174,31*74
$GPGSV,3,2,10,12,05,218,21,26,82,145,25,15,58,211,42,29,37,304,19*73
$GPGSV,3,3,10,04,15,114,,08,14,073,*75
$GPRMC,164037.000,A,2233.2052,N,11413.8083,E,0.0,105.6,040191,,,A*66
$GPGGA,164037.000,2233.2052,N,11413.8083,E,1,07,1.4,49.4,M,14.2,M,,0000*67
$GPVTG,105.6,T,,M,0.0,N,0.0,K,A*0F
$GPGLL,2233.2052,N,11413.8083,E,164037.00,A,A*6E
$GPGSA,A,3,02,05,10,12,15,26,27,,,,,,1.8,1.4,1.2*3D
$GPRMC,164038.000,A,2233.2052,N,11413.8083,E,0.0,105.6,040191,,,A*69
$GPGGA,164038.000,2233.2052,N,11413.8083,E,1,07,1.4,49.4,M,14.2,M,,0000*68
$GPVTG,105.6,T,,M,0.0,N,0.0,K,A*0F
$GPGLL,2233.2052,N,11413.8083,E,164038.00,A,A*61
$GPGSA,A,3,02,05,10,12,15,26,27,,,,,,1.8,1.4,1.2*3D
$GPRMC,164039.000,A,2233.2052,N,11413.8083,E,0.0,105.6,040191,,,A*68
$GPGGA,164039.000,2233.2052,N,11413.8083,E,1,07,1.4,49.4,M,14.2,M,,0000*69
$GPVTG,105.6,T,,M,0.0,N,0.0,K,A*0F
$GPGLL,2233.2052,N,11413.8083,E,164039.00,A,A*60
$GPGSA,A,3,02,05,10,12,15,26,27,,,,,,1.8,1.4,1.2*3D
$GPRMC,164040.000,A,2233.2052,N,11413.8083,E,0.0,105.6,040191,,,A*66
$GPGGA,164040.000,2233.2052,N,11413.8083,E,1,07,1.4,49.4,M,14.2,M,,0000*67
$GPVTG,105.6,T,,M,0.0,N,0.0,K,A*0F
$GPGLL,2233.2052,N,11413.8083,E,164040.00,A,A*6E
$GPGSA,A,3,02,05,10,12,15,26,27,,,,,,1.8,1.4,1.2*3D
$GPRMC,164041.000,A,2233.2052,N,11413.8083,E,0.0,105.6,040191,,,A*67
$GPGGA,164041.000,2233.2052,N,11413.8083,E,1,08,1.1,49.4,M,14.2,M,,0000*6C
$GPVTG,105.6,T,,M,0.0,N,0.0,K,A*0F
$GPGLL,2233.2052,N,11413.8083,E,164041.00,A,A*6F
$GPGSA,A,3,02,04,05,10,12,15,26,27,,,,,1.6,1.1,1.2*32
$GPGSV,3,1,10,10,21,049,20,05,47,010,18,02,49,092,15,04,15,114,12*7E
$GPGSV,3,2,10,27,10,174,31,12,05,218,21,26,82,145,26,15,58,211,42*74
$GPGSV,3,3,10,29,37,304,,08,14,073,*79
$GPRMC,164042.000,A,2233.2052,N,11413.8083,E,0.0,105.6,040191,,,A*64
$GPGGA,164042.000,2233.2052,N,11413.8083,E,1,08,1.1,49.4,M,14.2,M,,0000*6F
$GPVTG,105.6,T,,M,0.0,N,0.0,K,A*0F
$GPGLL,2233.2052,N,11413.8083,E,164042.00,A,A*6C
$GPGSA,A,3,02,04,05,10,12,15,26,27,,,,,1.6,1.1,1.2*32
$GPRMC,164043.000,A,2233.2052,N,11413.8083,E,0.0,105.6,040191,,,A*65
$GPGGA,164043.000,2233.2052,N,11413.8083,E,1,07,1.4,49.4,M,14.2,M,,0000*64
$GPVTG,105.6,T,,M,0.0,N,0.0,K,A*0F
$GPGLL,2233.2052,N,11413.8083,E,164043.00,A,A*6D
$GPGSA,A,3,02,05,10,12,15,26,27,,,,,,1.8,1.4,1.2*3D
$GPRMC,164044.000,A,2233.2052,N,11413.8083,E,0.0,105.6,040191,,,A*62
$GPGGA,164044.000,2233.2052,N,11413.8083,E,1,08,1.1,49.4,M,14.2,M,,0000*69
$GPVTG,105.6,T,,M,0.0,N,0.0,K,A*0F
$GPGLL,2233.2052,N,11413.8083,E,164044.00,A,A*6A
$GPGSA,A,3,02,04,05,10,12,15,26,27,,,,,1.6,1.1,1.2*32
$GPRMC,164045.000,A,2233.2052,N,11413.8083,E,0.0,105.6,040191,,,A*63
$GPGGA,164045.000,2233.2052,N,11413.8083,E,1,08,1.1,49.4,M,14.2,M,,0000*68
$GPVTG,105.6,T,,M,0.0,N,0.0,K,A*0F
$GPGLL,2233.2052,N,11413.8083,E,164045.00,A,A*6B
$GPGSA,A,3,02,04,05,10,12,15,26,27,,,,,1.6,1.1,1.2*32
$GPRMC,164046.000,A,2233.2052,N,11413.8083,E,0.0,105.6,040191,,,A*60
$GPGGA,164046.000,2233.2052,N,11413.8083,E,1,08,1.1,49.4,M,14.2,M,,0000*6B
$GPVTG,105.6,T,,M,0.0,N,0.0,K,A*0F
$GPGLL,2233.2052,N,11413.8083,E,164046.00,A,A*68
$GPGSA,A,3,02,04,05,10,12,15,26,27,,,,,1.6,1.1,1.2*32
$GPGSV,3,1,10,10,21,049,18,05,47,010,17,02,49,093,14,04,15,114,11*79
$GPGSV,3,2,10,27,10,174,30,12,05,218,20,26,82,145,27,15,58,211,40*77
$GPGSV,3,3,10,29,37,304,,08,14,073,*79
$GPRMC,164047.000,A,2233.2052,N,11413.8083,E,0.0,105.6,040191,,,A*61
$GPGGA,164047.000,2233.2052,N,11413.8083,E,1,08,1.1,49.4,M,14.2,M,,0000*6A
$GPVTG,105.6,T,,M,0.0,N,0.0,K,A*0F
$GPGLL,2233.2052,N,11413.8083,E,164047.00,A,A*69
$GPGSA,A,3,02,04,05,10,12,15,26,27,,,,,1.6,1.1,1.2*32
$GPRMC,164048.000,A,2233.2052,N,11413.8083,E,0.0,105.6,040191,,,A*6E
$GPGGA,164048.000,2233.2052,N,11413.8083,E,1,08,1.1,49.4,M,14.2,M,,0000*65
$GPVTG,105.6,T,,M,0.0,N,0.0,K,A*0F
$GPGLL,2233.2052,N,11413.8083,E,164048.00,A,A*66
$GPGSA,A,3,02,04,05,10,12,15,26,27,,,,,1.6,1.1,1.2*32
$GPRMC,164049.000,A,2233.2052,N,11413.8083,E,0.0,105.6,040191,,,A*6F
$GPGGA,164049.000,2233.2052,N,11413.8083,E,1,07,1.4,49.4,M,14.2,M,,0000*6E
$GPVTG,105.6,T,,M,0.0,N,0.0,K,A*0F
$GPGLL,2233.2052,N,11413.8083,E,164049.00,A,A*67
$GPGSA,A,3,02,05,10,12,15,26,27,,,,,,1.8,1.4,1.2*3D
$GPRMC,164050.000,A,2233.2052,N,11413.8083,E,0.0,105.6,040191,,,A*67
$GPGGA,164050.000,2233.2052,N,11413.8083,E,1,07,1.4,49.4,M,14.2,M,,0000*66
$GPVTG,105.6,T,,M,0.0,N,0.0,K,A*0F
$GPGLL,2233.2052,N,11413.8083,E,164050.00,A,A*6F
$GPGSA,A,3,02,05,10,12,15,26,27,,,,,,1.8,1.4,1.2*3D
$GPRMC,164051.000,A,2233.2052,N,11413.8083,E,0.0,105.6,040191,,,A*66
$GPGGA,164051.000,2233.2052,N,11413.8083,E,1,07,1.4,49.4,M,14.2,M,,0000*67
$GPVTG,105.6,T,,M,0.0,N,0.0,K,A*0F
$GPGLL,2233.2052,N,11413.8083,E,164051.00,A,A*6E
$GPGSA,A,3,02,05,10,12,15,26,27,,,,,,1.8,1.4,1.2*3D
$GPGSV,3,1,10,10,21,049,17,05,47,010,16,02,49,093,12,27,10,174,31*71
$GPGSV,3,2,10,12,05,218,18,26,82,145,26,15,58,211,40,29,37,304,*70
$GPGSV,3,3,10,04,15,114,,08,14,073,*75
$GPRMC,164052.000,A,2233.2052,N,11413.8083,E,0.0,105.6,040191,,,A*65
$GPGGA,164052.000,2233.2052,N,11413.8083,E,1,07,1.4,49.4,M,14.2,M,,0000*64
$GPVTG,105.6,T,,M,0.0,N,0.0,K,A*0F
$GPGLL,2233.2052,N,11413.8083,E,164052.00,A,A*6D
$GPGSA,A,3,02,05,10,12,15,26,27,,,,,,1.8,1.4,1.2*3D
$GPRMC,164053.000,A,2233.2052,N,11413.8083,E,0.0,105.6,040191,,,A*64
$GPGGA,164053.000,2233.2052,N,11413.8083,E,1,06,1.7,49.4,M,14.2,M,,0000*67
$GPVTG,105.6,T,,M,0.0,N,0.0,K,A*0F
$GPGLL,2233.2052,N,11413.8083,E,164053.00,A,A*6C
$GPGSA,A,3,02,10,12,15,26,27,,,,,,,2.1,1.7,1.2*31
$GPRMC,164054.000,A,2233.2052,N,11413.8083,E,0.0,105.6,040191,,,A*63
$GPGGA,164054.000,2233.2052,N,11413.8083,E,1,06,1.7,49.4,M,14.2,M,,0000*60
$GPVTG,105.6,T,,M,0.0,N,0.0,K,A*0F
$GPGLL,2233.2052,N,11413.8083,E,164054.00,A,A*6B
$GPGSA,A,3,02,10,12,15,26,27,,,,,,,2.1,1.7,1.2*31
$GPRMC,164055.000,A,2233.2052,N,11413.8083,E,0.0,105.6,040191,,,A*62
$GPGGA,164055.000,2233.2052,N,11413.8083,E,1,05,1.8,49.4,M,14.2,M,,0000*6D
$GPVTG,105.6,T,,M,0.0,N,0.0,K,A*0F
$GPGLL,2233.2052,N,11413.8083,E,164055.00,A,A*6A
$GPGSA,A,3,02,10,12,26,27,,,,,,,,2.3,1.8,1.4*3E
$GPRMC,164056.000,A,2233.2052,N,11413.8083,E,0.0,105.6,040191,,,A*61
$GPGGA,164056.000,2233.2052,N,11413.8083,E,1,05,1.8,49.4,M,14.2,M,,0000*6E
$GPVTG,105.6,T,,M,0.0,N,0.0,K,A*0F
$GPGLL,2233.2052,N,11413.8083,E,164056.00,A,A*69
$GPGSA,A,3,02,10,12,26,27,,,,,,,,2.3,1.8,1.4*3E
$GPGSV,3,1,10,10,21,049,18,02,49,093,13,27,10,174,31,12,05,218,16*75
$GPGSV,3,2,10,26,82,144,26,15,58,211,41,05,47,010,,29,37,304,*73
$GPGSV,3,3,10,04,15,114,,08,14,073,*75
$GPRMC,164057.000,A,2233.2052,N,11413.8083,E,0.0,105.6,040191,,,A*60
$GPGGA,164057.000,2233.2052,N,11413.8083,E,1,06,1.7,49.4,M,14.2,M,,0000*63
$GPVTG,105.6,T,,M,0.0,N,0.0,K,A*0F
$GPGLL,2233.2052,N,11413.8083,E,164057.00,A,A*68
$GPGSA,A,3,02,10,12,15,26,27,,,,,,,2.1,1.7,1.2*31
$GPRMC,164058.000,A,2233.2052,N,11413.8083,E,0.0,105.6,040191,,,A*6F
$GPGGA,164058.000,2233.2052,N,11413.8083,E,1,05,1.8,49.4,M,14.2,M,,0000*60
$GPVTG,105.6,T,,M,0.0,N,0.0,K,A*0F
$GPGLL,2233.2052,N,11413.8083,E,164058.00,A,A*67
$GPGSA,A,3,02,10,12,26,27,,,,,,,,2.3,1.8,1.4*3E
$GPRMC,164059.000,A,2233.2052,N,11413.8083,E,0.0,105.6,040191,,,A*6E
$GPGGA,164059.000,2233.2052,N,11413.8083,E,1,06,1.7,49.4,M,14.2,M,,0000*6D
$GPVTG,105.6,T,,M,0.0,N,0.0,K,A*0F
$GPGLL,2233.2052,N,11413.8083,E,164059.00,A,A*66
$GPGSA,A,3,02,10,12,15,26,27,,,,,,,2.1,1.7,1.2*31
$GPRMC,164100.000,A,2233.2052,N,11413.8083,E,0.0,105.6,040191,,,A*63
$GPGGA,164100.000,2233.2052,N,11413.8083,E,1,05,1.8,49.4,M,14.2,M,,0000*6C
$GPVTG,105.6,T,,M,0.0,N,0.0,K,A*0F
$GPGLL,2233.2052,N,11413.8083,E,164100.00,A,A*6B
$GPGSA,A,3,02,10,12,26,27,,,,,,,,2.3,1.8,1.4*3E
$GPRMC,164101.000,A,2233.2052,N,11413.8083,E,0.0,105.6,040191,,,A*62
$GPGGA,164101.000,2233.2052,N,11413.8083,E,1,04,2.1,49.4,M,14.2,M,,0000*66
$GPVTG,105.6,T,,M,0.0,N,0.0,K,A*0F
$GPGLL,2233.2052,N,11413.8083,E,164101.00,A,A*6A
$GPGSA,A,3,10,12,26,27,,,,,,,,,2.6,2.1,1.5*32
$GPGSV,3,1,10,10,21,049,18,02,49,093,12,27,11,174,32,12,05,218,17*77
$GPGSV,3,2,10,26,82,144,27,15,58,211,42,29,37,304,,05,47,010,*71
$GPGSV,3,3,10,04,15,114,,08,14,073,*75
$GPRMC,164102.000,A,2233.2052,N,11413.8083,E,0.0,105.6,040191,,,A*61
$GPGGA,164102.000,2233.2052,N,11413.8083,E,1,04,2.1,49.4,M,14.2,M,,0000*65
$GPVTG,105.6,T,,M,0.0,N,0.0,K,A*0F
$GPGLL,2233.2052,N,11413.8083,E,164102.00,A,A*69
$GPGSA,A,3,10,12,26,27,,,,,,,,,2.6,2.1,1.5*32
$GPRMC,164103.000,A,2233.2052,N,11413.8083,E,0.0,105.6,040191,,,A*60
$GPGGA,164103.000,2233.2052,N,11413.8083,E,1,05,2.0,49.4,M,14.2,M,,0000*64
$GPVTG,105.6,T,,M,0.0,N,0.0,K,A*0F
$GPGLL,2233.2052,N,11413.8083,E,164103.00,A,A*68
$GPGSA,A,3,10,12,15,26,27,,,,,,,,2.4,2.0,1.3*33
$GPRMC,164104.000,A,2233.2052,N,11413.8083,E,0.0,105.6,040191,,,A*67
$GPGGA,164104.000,2233.2052,N,11413.8083,E,1,05,2.0,49.4,M,14.2,M,,0000*63
$GPVTG,105.6,T,,M,0.0,N,0.0,K,A*0F
$GPGLL,2233.2052,N,11413.8083,E,164104.00,A,A*6F
$GPGSA,A,3,10,12,15,26,27,,,,,,,,2.4,2.0,1.3*33
$GPRMC,164105.000,A,2233.2052,N,11413.8083,E,0.0,105.6,040191,,,A*66
$GPGGA,164105.000,2233.2052,N,11413.8083,E,1,05,2.0,49.4,M,14.2,M,,0000*62
$GPVTG,105.6,T,,M,0.0,N,0.0,K,A*0F
$GPGLL,2233.2052,N,11413.8083,E,164105.00,A,A*6E
$GPGSA,A,3,10,12,15,26,27,,,,,,,,2.4,2.0,1.3*33
$GPRMC,164106.000,A,2233.2052,N,11413.8083,E,0.0,105.6,040191,,,A*65
$GPGGA,164106.000,2233.2052,N,11413.8083,E,1,05,2.0,49.4,M,14.2,M,,0000*61
$GPVTG,105.6,T,,M,0.0,N,0.0,K,A*0F
$GPGLL,2233.2052,N,11413.8083,E,164106.00,A,A*6D
$GPGSA,A,3,10,12,15,26,27,,,,,,,,2.4,2.0,1.3*33
$GPGSV,3,1,10,10,21,049,16,27,11,174,31,12,05,218,19,26,82,144,25*7A
$GPGSV,3,2,10,15,58,211,41,29,37,304,18,02,49,093,,05,47,010,*74
$GPGSV,3,3,10,04,15,114,,08,14,073,*75
$GPRMC,164107.000,A,2233.2052,N,11413.8083,E,0.0,105.6,040191,,,A*64
$GPGGA,164107.000,2233.2052,N,11413.8083,E,1,05,2.0,49.4,M,14.2,M,,0000*60
$GPVTG,105.6,T,,M,0.0,N,0.0,K,A*0F
$GPGLL,2233.2052,N,11413.8083,E,164107.00,A,A*6C
$GPGSA,A,3,10,12,15,26,27,,,,,,,,2.4,2.0,1.3*33
$GPRMC,164108.000,A,2233.2052,N,11413.8083,E,0.0,105.6,040191,,,A*6B
$GPGGA,164108.000,2233.2052,N,11413.8083,E,1,05,2.0,49.4,M,14.2,M,,0000*6F
$GPVTG,105.6,T,,M,0.0,N,0.0,K,A*0F
$GPGLL,2233.2052,N,11413.8083,E,164108.00,A,A*63
$GPGSA,A,3,10,12,15,26,27,,,,,,,,2.4,2.0,1.3*33
$GPRMC,164109.000,A,2233.2052,N,11413.8083,E,0.0,105.6,040191,,,A*6A
$GPGGA,164109.000,2233.2052,N,11413.8083,E,1,05,2.0,49.4,M,14.2,M,,0000*6E
$GPVTG,105.6,T,,M,0.0,N,0.0,K,A*0F
$GPGLL,2233.2052,N,11413.8083,E,164109.00,A,A*62
$GPGSA,A,3,10,12,15,26,27,,,,,,,,2.4,2.0,1.3*33
$GPRMC,164110.000,A,2233.2052,N,11413.8083,E,0.0,105.6,040191,,,A*62
$GPGGA,164110.000,2233.2052,N,11413.8083,E,1,05,2.0,49.4,M,14.2,M,,0000*66
$GPVTG,105.6,T,,M,0.0,N,0.0,K,A*0F
$GPGLL,2233.2052,N,11413.8083,E,164110.00,A,A*6A
$GPGSA,A,3,10,12,15,26,27,,,,,,,,2.4,2.0,1.3*33
$GPRMC,164111.000,A,2233.2052,N,11413.8083,E,0.0,105.6,040191,,,A*63
$GPGGA,164111.000,2233.2052,N,11413.8083,E,1,05,2.0,49.4,M,14.2,M,,0000*67
$GPVTG,105.6,T,,M,0.0,N,0.0,K,A*0F
$GPGLL,2233.2052,N,11413.8083,E,164111.00,A,A*6B
$GPGSA,A,3,10,12,15,26,27,,,,,,,,2.4,2.0,1.3*33
$GPGSV,3,1,10,10,21,049,16,27,11,174,32,12,05,218,24,26,82,144,26*74
$GPGSV,3,2,10,15,58,211,43,29,37,304,18,02,49,093,,05,47,010,*76
$GPGSV,3,3,10,04,15,114,,08,14,073,*75
$GPRMC,164112.000,A,2233.2052,N,11413.8083,E,0.0,105.6,040191,,,A*60
$GPGGA,164112.000,2233.2052,N,11413.8083,E,1,05,2.0,49.4,M,14.2,M,,0000*64
$GPVTG,105.6,T,,M,0.0,N,0.0,K,A*0F
$GPGLL,2233.2052,N,11413.8083,E,164112.00,A,A*68
$GPGSA,A,3,10,12,15,26,27,,,,,,,,2.4,2.0,1.3*33
$GPRMC,164113.000,A,2233.2052,N,11413.8083,E,0.0,105.6,040191,,,A*61
$GPGGA,164113.000,2233.2052,N,11413.8083,E,1,05,2.0,49.4,M,14.2,M,,0000*65
$GPVTG,105.6,T,,M,0.0,N,0.0,K,A*0F
$GPGLL,2233.2052,N,11413.8083,E,164113.00,A,A*69
$GPGSA,A,3,10,12,15,26,27,,,,,,,,2.4,2.0,1.3*33
$GPRMC,164114.000,A,2233.2052,N,11413.8083,E,0.0,105.6,040191,,,A*66
$GPGGA,164114.000,2233.2052,N,11413.8083,E,1,05,2.0,49.4,M,14.2,M,,0000*62
$GPVTG,105.6,T,,M,0.0,N,0.0,K,A*0F
$GPGLL,2233.2052,N,11413.8083,E,164114.00,A,A*6E
$GPGSA,A,3,10,12,15,26,27,,,,,,,,2.4,2.0,1.3*33
$GPRMC,164115.000,A,2233.2052,N,11413.8083,E,0.0,105.6,040191,,,A*67
$GPGGA,164115.000,2233.2052,N,11413.8083,E,1,05,2.0,49.4,M,14.2,M,,0000*63
$GPVTG,105.6,T,,M,0.0,N,0.0,K,A*0F
$GPGLL,2233.2052,N,11413.8083,E,164115.00,A,A*6F
$GPGSA,A,3,10,12,15,26,27,,,,,,,,2.4,2.0,1.3*33
$GPRMC,164116.000,A,2233.2052,N,11413.8083,E,0.0,105.6,040191,,,A*64
$GPGGA,164116.000,2233.2052,N,11413.8083,E,1,05,2.0,49.4,M,14.2,M,,0000*60
$GPVTG,105.6,T,,M,0.0,N,0.0,K,A*0F
$GPGLL,2233.2052,N,11413.8083,E,164116.00,A,A*6C
$GPGSA,A,3,10,12,15,26,27,,,,,,,,2.4,2.0,1.3*33
$GPGSV,3,1,10,10,21,049,18,27,11,174,31,12,05,218,21,26,82,144,29*73
$GPGSV,3,2,10,15,58,211,43,29,37,304,,02,49,093,,05,47,010,*7F
$GPGSV,3,3,10,04,15,114,,08,14,073,*75
$GPRMC,164117.000,A,2233.2052,N,11413.8083,E,0.0,105.6,040191,,,A*65
$GPGGA,164117.000,2233.2052,N,11413.8083,E,1,05,2.0,49.4,M,14.2,M,,0000*61
$GPVTG,105.6,T,,M,0.0,N,0.0,K,A*0F
$GPGLL,2233.2052,N,11413.8083,E,164117.00,A,A*6D
$GPGSA,A,3,10,12,15,26,27,,,,,,,,2.4,2.0,1.3*33
$GPRMC,164118.000,A,2233.2052,N,11413.8083,E,0.0,105.6,040191,,,A*6A
$GPGGA,164118.000,2233.2052,N,11413.8083,E,1,05,2.0,49.4,M,14.2,M,,0000*6E
$GPVTG,105.6,T,,M,0.0,N,0.0,K,A*0F
$GPGLL,2233.2052,N,11413.8083,E,164118.00,A,A*62
$GPGSA,A,3,10,12,15,26,27,,,,,,,,2.4,2.0,1.3*33
$GPRMC,164119.000,A,2233.2052,N,11413.8083,E,0.0,105.6,040191,,,A*6B
$GPGGA,164119.000,2233.2052,N,11413.8083,E,1,05,2.0,49.4,M,14.2,M,,0000*6F
$GPVTG,105.6,T,,M,0.0,N,0.0,K,A*0F
$GPGLL,2233.2052,N,11413.8083,E,164119.00,A,A*63
$GPGSA,A,3,10,12,15,26,27,,,,,,,,2.4,2.0,1.3*33
$GPRMC,164120.000,A,2233.2052,N,11413.8083,E,0.0,105.6,040191,,,A*61
$GPGGA,164120.000,2233.2052,N,11413.8083,E,1,05,2.0,49.4,M,14.2,M,,0000*65
$GPVTG,105.6,T,,M,0.0,N,0.0,K,A*0F
$GPGLL,2233.2052,N,11413.8083,E,164120.00,A,A*69
$GPGSA,A,3,10,12,15,26,27,,,,,,,,2.4,2.0,1.3*33
$GPRMC,164121.000,A,2233.2052,N,11413.8083,E,0.0,105.6,040191,,,A*60
$GPGGA,164121.000,2233.2052,N,11413.8083,E,1,05,2.0,49.4,M,14.2,M,,0000*64
$GPVTG,105.6,T,,M,0.0,N,0.0,K,A*0F
$GPGLL,2233.2052,N,11413.8083,E,164121.00,A,A*68
$GPGSA,A,3,10,12,15,26,27,,,,,,,,2.4,2.0,1.3*33
$GPGSV,3,1,10,10,21,049,18,27,11,174,31,12,05,218,20,26,82,143,30*7D
$GPGSV,3,2,10,15,58,212,43,02,49,093,,05,47,010,,29,37,303,*7B
$GPGSV,3,3,10,04,14,114,,08,14,073,*74
$GPRMC,164122.000,A,2233.2052,N,11413.8083,E,0.0,105.6,040191,,,A*63
$GPGGA,164122.000,2233.2052,N,11413.8083,E,1,05,2.0,49.4,M,14.2,M,,0000*67
$GPVTG,105.6,T,,M,0.0,N,0.0,K,A*0F
$GPGLL,2233.2052,N,11413.8083,E,164122.00,A,A*6B
$GPGSA,A,3,10,12,15,26,27,,,,,,,,2.4,2.0,1.3*33
$GPRMC,164123.000,A,2233.2052,N,11413.8083,E,0.0,105.6,040191,,,A*62
$GPGGA,164123.000,2233.2052,N,11413.8083,E,1,06,1.7,49.4,M,14.2,M,,0000*61
$GPVTG,105.6,T,,M,0.0,N,0.0,K,A*0F
$GPGLL,2233.2052,N,11413.8083,E,164123.00,A,A*6A
$GPGSA,A,3,05,10,12,15,26,27,,,,,,,2.1,1.7,1.3*37
$GPRMC,164124.000,A,2233.2052,N,11413.8083,E,0.0,105.6,040191,,,A*65
$GPGGA,164124.000,2233.2052,N,11413.8083,E,1,06,1.7,49.4,M,14.2,M,,0000*66
$GPVTG,105.6,T,,M,0.0,N,0.0,K,A*0F
$GPGLL,2233.2052,N,11413.8083,E,164124.00,A,A*6D
$GPGSA,A,3,05,10,12,15,26,27,,,,,,,2.1,1.7,1.3*37
$GPRMC,164125.000,A,2233.2052,N,11413.8083,E,0.0,105.6,040191,,,A*64
$GPGGA,164125.000,2233.2052,N,11413.8083,E,1,07,1.4,49.4,M,14.2,M,,0000*65
$GPVTG,105.6,T,,M,0.0,N,0.0,K,A*0F
$GPGLL,2233.2052,N,11413.8083,E,164125.00,A,A*6C
$GPGSA,A,3,02,05,10,12,15,26,27,,,,,,1.8,1.4,1.2*3D
$GPRMC,164126.000,A,2233.2052,N,11413.8083,E,0.0,105.6,040191,,,A*67
$GPGGA,164126.000,2233.2052,N,11413.8083,E,1,06,1.7,49.4,M,14.2,M,,0000*64
$GPVTG,105.6,T,,M,0.0,N,0.0,K,A*0F
$GPGLL,2233.2052,N,11413.8083,E,164126.00,A,A*6F
$GPGSA,A,3,05,10,12,15,26,27,,,,,,,2.1,1.7,1.3*37
$GPGSV,3,1,10,10,21,049,18,05,47,010,12,02,49,093,15,27,11,174,32*7F
$GPGSV,3,2,10,12,05,218,18,26,82,143,31,15,58,212,43,29,37,303,*77
$GPGSV,3,3,10,04,14,114,,08,14,073,*74
$GPRMC,164127.000,A,2233.2052,N,11413.8083,E,0.0,105.6,040191,,,A*66
$GPGGA,164127.000,2233.2052,N,11413.8083,E,1,07,1.4,49.4,M,14.2,M,,0000*67
$GPVTG,105.6,T,,M,0.0,N,0.0,K,A*0F
$GPGLL,2233.2052,N,11413.8083,E,164127.00,A,A*6E
$GPGSA,A,3,02,05,10,12,15,26,27,,,,,,1.8,1.4,1.2*3D
$GPRMC,164128.000,A,2233.2052,N,11413.8083,E,0.0,105.6,040191,,,A*69
$GPGGA,164128.000,2233.2052,N,11413.8083,E,1,07,1.4,49.4,M,14.2,M,,0000*68
$GPVTG,105.6,T,,M,0.0,N,0.0,K,A*0F
$GPGLL,2233.2052,N,11413.8083,E,164128.00,A,A*61
$GPGSA,A,3,02,05,10,12,15,26,27,,,,,,1.8,1.4,1.2*3D
$GPRMC,164129.000,A,2233.2052,N,11413.8083,E,0.0,105.6,040191,,,A*68
$GPGGA,164129.000,2233.2052,N,11413.8083,E,1,06,1.7,49.4,M,14.2,M,,0000*6B
$GPVTG,105.6,T,,M,0.0,N,0.0,K,A*0F
$GPGLL,2233.2052,N,11413.8083,E,164129.00,A,A*60
$GPGSA,A,3,05,10,12,15,26,27,,,,,,,2.1,1.7,1.3*37
$GPRMC,164130.000,A,2233.2052,N,11413.8083,E,0.0,105.6,040191,,,A*60
$GPGGA,164130.000,2233.2052,N,11413.8083,E,1,06,1.7,49.4,M,14.2,M,,0000*63
$GPVTG,105.6,T,,M,0.0,N,0.0,K,A*0F
$GPGLL,2233.2052,N,11413.8083,E,164130.00,A,A*68
$GPGSA,A,3,05,10,12,15,26,27,,,,,,,2.1,1.7,1.3*37
$GPRMC,164131.000,A,2233.2052,N,11413.8083,E,0.0,105.6,040191,,,A*61
$GPGGA,164131.000,2233.2052,N,11413.8083,E,1,06,1.7,49.4,M,14.2,M,,0000*62
$GPVTG,105.6,T,,M,0.0,N,0.0,K,A*0F
$GPGLL,2233.2052,N,11413.8083,E,164131.00,A,A*69
$GPGSA,A,3,05,10,12,15,26,27,,,,,,,2.1,1.7,1.3*37
$GPGSV,3,1,10,10,21,049,19,05,47,010,13,27,11,174,31,12,05,218,19*78
$GPGSV,3,2,10,26,82,143,32,15,58,212,41,29,37,303,,02,49,093,*77
$GPGSV,3,3,10,04,14,114,,08,14,073,*74
$GPRMC,164132.000,A,2233.2052,N,11413.8083,E,0.0,105.6,040191,,,A*62
$GPGGA,164132.000,2233.2052,N,11413.8083,E,1,06,1.7,49.4,M,14.2,M,,0000*61
$GPVTG,105.6,T,,M,0.0,N,0.0,K,A*0F
$GPGLL,2233.2052,N,11413.8083,E,164132.00,A,A*6A
$GPGSA,A,3,05,10,12,15,26,27,,,,,,,2.1,1.7,1.3*37
$GPRMC,164133.000,A,2233.2052,N,11413.8083,E,0.0,105.6,040191,,,A*63
$GPGGA,164133.000,2233.2052,N,11413.8083,E,1,07,1.2,49.4,M,14.2,M,,0000*64
$GPVTG,105.6,T,,M,0.0,N,0.0,K,A*0F
$GPGLL,2233.2052,N,11413.8083,E,164133.00,A,A*6B
$GPGSA,A,3,04,05,10,12,15,26,27,,,,,,1.8,1.2,1.3*3C
$GPRMC,164134.000,A,2233.2052,N,11413.8083,E,0.0,105.6,040191,,,A*64
$GPGGA,164134.000,2233.2052,N,11413.8083,E,1,07,1.2,49.4,M,14.2,M,,0000*63
$GPVTG,105.6,T,,M,0.0,N,0.0,K,A*0F
$GPGLL,2233.2052,N,11413.8083,E,164134.00,A,A*6C
$GPGSA,A,3,04,05,10,12,15,26,27,,,,,,1.8,1.2,1.3*3C
$GPRMC,164135.000,A,2233.2052,N,11413.8083,E,0.0,105.6,040191,,,A*65
$GPGGA,164135.000,2233.2052,N,11413.8083,E,1,07,1.2,49.4,M,14.2,M,,0000*62
$GPVTG,105.6,T,,M,0.0,N,0.0,K,A*0F
$GPGLL,2233.2052,N,11413.8083,E,164135.00,A,A*6D
$GPGSA,A,3,04,05,10,12,15,26,27,,,,,,1.8,1.2,1.3*3C
$GPRMC,164136.000,A,2233.2052,N,11413.8083,E,0.0,105.6,040191,,,A*66
$GPGGA,164136.000,2233.2052,N,11413.8083,E,1,07,1.2,49.4,M,14.2,M,,0000*61
$GPVTG,105.6,T,,M,0.0,N,0.0,K,A*0F
$GPGLL,2233.2052,N,11413.8083,E,164136.00,A,A*6E
$GPGSA,A,3,04,05,10,12,15,26,27,,,,,,1.8,1.2,1.3*3C
$GPGSV,3,1,10,10,21,050,21,05,47,010,14,04,14,114,12,27,11,174,30*7E
$GPGSV,3,2,10,12,05,218,18,26,82,142,31,15,58,212,41,29,37,303,19*7C
$GPGSV,3,3,10,02,49,093,,08,14,073,*74
$GPRMC,164137.000,A,2233.2052,N,11413.8083,E,0.0,105.6,040191,,,A*67
$GPGGA,164137.000,2233.2052,N,11413.8083,E,1,07,1.2,49.4,M,14.2,M,,0000*60
$GPVTG,105.6,T,,M,0.0,N,0.0,K,A*0F
$GPGLL,2233.2052,N,11413.8083,E,164137.00,A,A*6F
$GPGSA,A,3,04,05,10,12,15,26,27,,,,,,1.8,1.2,1.3*3C
$GPRMC,164138.000,A,2233.2052,N,11413.8083,E,0.0,105.6,040191,,,A*68
$GPGGA,164138.000,2233.2052,N,11413.8083,E,1,07,1.2,49.4,M,14.2,M,,0000*6F
$GPVTG,105.6,T,,M,0.0,N,0.0,K,A*0F
$GPGLL,2233.2052,N,11413.8083,E,164138.00,A,A*60
$GPGSA,A,3,04,05,10,12,15,26,27,,,,,,1.8,1.2,1.3*3C
$GPRMC,164139.000,A,2233.2052,N,11413.8083,E,0.0,105.6,040191,,,A*69
$GPGGA,164139.000,2233.2052,N,11413.8083,E,1,07,1.2,49.4,M,14.2,M,,0000*6E
$GPVTG,105.6,T,,M,0.0,N,0.0,K,A*0F
$GPGLL,2233.2052,N,11413.8083,E,164139.00,A,A*61
$GPGSA,A,3,04,05,10,12,15,26,27,,,,,,1.8,1.2,1.3*3C
$GPRMC,164140.000,A,2233.2052,N,11413.8083,E,0.0,105.6,040191,,,A*67
$GPGGA,164140.000,2233.2052,N,11413.8083,E,1,07,1.2,49.4,M,14.2,M,,0000*60
$GPVTG,105.6,T,,M,0.0,N,0.0,K,A*0F
$GPGLL,2233.2052,N,11413.8083,E,164140.00,A,A*6F
$GPGSA,A,3,04,05,10,12,15,26,27,,,,,,1.8,1.2,1.3*3C
$GPRMC,164141.000,A,2233.2052,N,11413.8083,E,0.0,105.6,040191,,,A*66
$GPGGA,164141.000,2233.2052,N,11413.8083,E,1,08,1.1,49.4,M,14.2,M,,0000*6D
$GPVTG,105.6,T,,M,0.0,N,0.0,K,A*0F
$GPGLL,2233.2052,N,11413.8083,E,164141.00,A,A*6E
$GPGSA,A,3,02,04,05,10,12,15,26,27,,,,,1.6,1.1,1.2*32
$GPGSV,3,1,10,10,21,050,23,05,47,010,15,02,49,093,,04,14,114,11*7F
$GPGSV,3,2,10,27,11,174,31,12,05,218,16,26,82,142,32,15,58,212,41*73
$GPGSV,3,3,10,29,37,303,19,08,14,073,*76
$GPRMC,164142.000,A,2233.2052,N,11413.8083,E,0.0,105.6,040191,,,A*65
$GPGGA,164142.000,2233.2052,N,11413.8083,E,1,07,1.2,49.4,M,14.2,M,,0000*62
$GPVTG,105.6,T,,M,0.0,N,0.0,K,A*0F
$GPGLL,2233.2052,N,11413.8083,E,164142.00,A,A*6D
$GPGSA,A,3,04,05,10,12,15,26,27,,,,,,1.8,1.2,1.3*3C
$GPRMC,164143.000,A,2233.2052,N,11413.8083,E,0.0,105.6,040191,,,A*64
$GPGGA,164143.000,2233.2052,N,11413.8083,E,1,08,1.1,49.4,M,14.2,M,,0000*6F
$GPVTG,105.6,T,,M,0.0,N,0.0,K,A*0F
$GPGLL,2233.2052,N,11413.8083,E,164143.00,A,A*6C
$GPGSA,A,3,02,04,05,10,12,15,26,27,,,,,1.6,1.1,1.2*32
$GPRMC,164144.000,A,2233.2052,N,11413.8083,E,0.0,105.6,040191,,,A*63
$GPGGA,164144.000,2233.2052,N,11413.8083,E,1,08,1.1,49.4,M,14.2,M,,0000*68
$GPVTG,105.6,T,,M,0.0,N,0.0,K,A*0F
$GPGLL,2233.2052,N,11413.8083,E,164144.00,A,A*6B
$GPGSA,A,3,02,04,05,10,12,15,26,27,,,,,1.6,1.1,1.2*32
$GPRMC,164145.000,A,2233.2052,N,11413.8083,E,0.0,105.6,040191,,,A*62
$GPGGA,164145.000,2233.2052,N,11413.8083,E,1,07,1.2,49.4,M,14.2,M,,0000*65
$GPVTG,105.6,T,,M,0.0,N,0.0,K,A*0F
$GPGLL,2233.2052,N,11413.8083,E,164145.00,A,A*6A
$GPGSA,A,3,04,05,10,12,15,26,27,,,,,,1.8,1.2,1.3*3C
$GPRMC,164146.000,A,2233.2052,N,11413.8083,E,0.0,105.6,040191,,,A*61
$GPGGA,164146.000,2233.2052,N,11413.8083,E,1,06,1.7,49.4,M,14.2,M,,0000*62
$GPVTG,105.6,T,,M,0.0,N,0.0,K,A*0F
$GPGLL,2233.2052,N,11413.8083,E,164146.00,A,A*69
$GPGSA,A,3,05,10,12,15,26,27,,,,,,,2.1,1.7,1.3*37
$GPGSV,3,1,10,10,21,050,20,05,47,010,15,02,49,093,12,04,14,114,11*7F
$GPGSV,3,2,10,27,11,174,31,12,05,218,16,26,82,142,33,15,58,212,41*72
$GPGSV,3,3,10,29,37,303,,08,14,073,*7E
$GPRMC,164147.000,A,2233.2052,N,11413.8083,E,0.0,105.6,040191,,,A*60
$GPGGA,164147.000,2233.2052,N,11413.8083,E,1,06,1.7,49.4,M,14.2,M,,0000*63
$GPVTG,105.6,T,,M,0.0,N,0.0,K,A*0F
$GPGLL,2233.2052,N,11413.8083,E,164147.00,A,A*68
$GPGSA,A,3,05,10,12,15,26,27,,,,,,,2.1,1.7,1.3*37
$GPRMC,164148.000,A,2233.2052,N,11413.8083,E,0.0,105.6,040191,,,A*6F
$GPGGA,164148.000,2233.2052,N,11413.8083,E,1,06,1.7,49.4,M,14.2,M,,0000*6C
$GPVTG,105.6,T,,M,0.0,N,0.0,K,A*0F
$GPGLL,2233.2052,N,11413.8083,E,164148.00,A,A*67
$GPGSA,A,3,05,10,12,15,26,27,,,,,,,2.1,1.7,1.3*37
$GPRMC,164149.000,A,2233.2052,N,11413.8083,E,0.0,105.6,040191,,,A*6E
$GPGGA,164149.000,2233.2052,N,11413.8083,E,1,06,1.7,49.4,M,14.2,M,,0000*6D
$GPVTG,105.6,T,,M,0.0,N,0.0,K,A*0F
$GPGLL,2233.2052,N,11413.8083,E,164149.00,A,A*66
$GPGSA,A,3,05,10,12,15,26,27,,,,,,,2.1,1.7,1.3*37
$GPRMC,164150.000,A,2233.2052,N,11413.8083,E,0.0,105.6,040191,,,A*66
$GPGGA,164150.000,2233.2052,N,11413.8083,E,1,06,1.7,49.4,M,14.2,M,,0000*65
$GPVTG,105.6,T,,M,0.0,N,0.0,K,A*0F
$GPGLL,2233.2052,N,11413.8083,E,164150.00,A,A*6E
$GPGSA,A,3,05,10,12,15,26,27,,,,,,,2.1,1.7,1.3*37
$GPRMC,164151.000,A,2233.2052,N,11413.8083,E,0.0,105.6,040191,,,A*67
$GPGGA,164151.000,2233.2052,N,11413.8083,E,1,06,1.7,49.4,M,14.2,M,,0000*64
$GPVTG,105.6,T,,M,0.0,N,0.0,K,A*0F
$GPGLL,2233.2052,N,11413.8083,E,164151.00,A,A*6F
$GPGSA,A,3,05,10,12,15,26,27,,,,,,,2.1,1.7,1.3*37
$GPGSV,3,1,10,10,21,050,17,05,47,010,14,27,11,174,30,12,05,218,20*72
$GPGSV,3,2,10,26,82,142,33,15,58,212,42,29,37,303,,02,49,093,*74
$GPGSV,3,3,10,04,14,114,,08,14,073,*74
$GPRMC,164152.000,A,2233.2052,N,11413.8083,E,0.0,105.6,040191,,,A*64
$GPGGA,164152.000,2233.2052,N,11413.8083,E,1,06,1.7,49.4,M,14.2,M,,0000*67
$GPVTG,105.6,T,,M,0.0,N,0.0,K,A*0F
$GPGLL,2233.2052,N,11413.8083,E,164152.00,A,A*6C
$GPGSA,A,3,05,10,12,15,26,27,,,,,,,2.1,1.7,1.3*37
$GPRMC,164153.000,A,2233.2052,N,11413.8083,E,0.0,105.6,040191,,,A*65
$GPGGA,164153.000,2233.2052,N,11413.8083,E,1,06,1.7,49.4,M,14.2,M,,0000*66
$GPVTG,105.6,T,,M,0.0,N,0.0,K,A*0F
$GPGLL,2233.2052,N,11413.8083,E,164153.00,A,A*6D
$GPGSA,A,3,05,10,12,15,26,27,,,,,,,2.1,1.7,1.3*37
$GPRMC,164154.000,A,2233.2052,N,11413.8083,E,0.0,105.6,040191,,,A*62
$GPGGA,164154.000,2233.2052,N,11413.8083,E,1,06,1.7,49.4,M,14.2,M,,0000*61
$GPVTG,105.6,T,,M,0.0,N,0.0,K,A*0F
$GPGLL,2233.2052,N,11413.8083,E,164154.00,A,A*6A
$GPGSA,A,3,05,10,12,15,26,27,,,,,,,2.1,1.7,1.3*37
$GPRMC,164155.000,A,2233.2052,N,11413.8083,E,0.0,105.6,040191,,,A*63
$GPGGA,164155.000,2233.2052,N,11413.8083,E,1,06,1.7,49.4,M,14.2,M,,0000*60
$GPVTG,105.6,T,,M,0.0,N,0.0,K,A*0F
$GPGLL,2233.2052,N,11413.8083,E,164155.00,A,A*6B
$GPGSA,A,3,05,10,12,15,26,27,,,,,,,2.1,1.7,1.3*37
$GPRMC,164156.000,A,2233.2052,N,11413.8083,E,0.0,105.6,040191,,,A*60
$GPGGA,164156.000,2233.2052,N,11413.8083,E,1,06,1.7,49.4,M,14.2,M,,0000*63
$GPVTG,105.6,T,,M,0.0,N,0.0,K,A*0F
$GPGLL,2233.2052,N,11413.8083,E,164156.00,A,A*68
$GPGSA,A,3,05,10,12,15,26,27,,,,,,,2.1,1.7,1.3*37
$GPGSV,3,1,10,10,21,050,18,05,47,010,14,27,11,174,30,12,05,218,21*7C
$GPGSV,3,2,10,26,82,141,32,15,58,212,42,29,37,303,,02,49,093,*76
$GPGSV,3,3,10,04,14,114,,08,14,073,*74
$GPRMC,164157.000,A,2233.2052,N,11413.8083,E,0.0,105.6,040191,,,A*61
$GPGGA,164157.000,2233.2052,N,11413.8083,E,1,06,1.7,49.4,M,14.2,M,,0000*62
$GPVTG,105.6,T,,M,0.0,N,0.0,K,A*0F
$GPGLL,2233.2052,N,11413.8083,E,164157.00,A,A*69
$GPGSA,A,3,05,10,12,15,26,27,,,,,,,2.1,1.7,1.3*37
$GPRMC,164158.000,A,2233.2052,N,11413.8083,E,0.0,105.6,040191,,,A*6E
$GPGGA,164158.000,2233.2052,N,11413.8083,E,1,06,1.7,49.4,M,14.2,M,,0000*6D
$GPVTG,105.6,T,,M,0.0,N,0.0,K,A*0F
$GPGLL,2233.2052,N,11413.8083,E,164158.00,A,A*66
$GPGSA,A,3,05,10,12,15,26,27,,,,,,,2.1,1.7,1.3*37
$GPRMC,164159.000,A,2233.2052,N,11413.8083,E,0.0,105.6,040191,,,A*6F
$GPGGA,164159.000,2233.2052,N,11413.8083,E,1,06,1.7,49.4,M,14.2,M,,0000*6C
$GPVTG,105.6,T,,M,0.0,N,0.0,K,A*0F
$GPGLL,2233.2052,N,11413.8083,E,164159.00,A,A*67
$GPGSA,A,3,05,10,12,15,26,27,,,,,,,2.1,1.7,1.3*37
$GPRMC,164200.000,A,2233.2052,N,11413.8083,E,0.0,105.6,040191,,,A*60
$GPGGA,164200.000,2233.2052,N,11413.8083,E,1,06,1.7,49.4,M,14.2,M,,0000*63
$GPVTG,105.6,T,,M,0.0,N,0.0,K,A*0F
$GPGLL,2233.2052,N,11413.8083,E,164200.00,A,A*68
$GPGSA,A,3,05,10,12,15,26,27,,,,,,,2.1,1.7,1.3*37
$GPRMC,164201.000,A,2233.2052,N,11413.8083,E,0.0,105.6,040191,,,A*61
$GPGGA,164201.000,2233.2052,N,11413.8083,E,1,06,1.7,49.4,M,14.2,M,,0000*62
$GPVTG,105.6,T,,M,0.0,N,0.0,K,A*0F
$GPGLL,2233.2052,N,11413.8083,E,164201.00,A,A*69
$GPGSA,A,3,05,10,12,15,26,27,,,,,,,2.1,1.7,1.3*37
$GPGSV,3,1,10,10,21,050,20,05,47,010,14,27,11,174,30,12,05,218,20*76
$GPGSV,3,2,10,26,82,141,32,15,58,212,42,29,37,303,,02,49,093,*76
$GPGSV,3,3,10,04,14,114,,08,14,073,*74
$GPRMC,164202.000,A,2233.2052,N,11413.8083,E,0.0,105.6,040191,,,A*62
$GPGGA,164202.000,2233.2052,N,11413.8083,E,1,06,1.7,49.4,M,14.2,M,,0000*61
$GPVTG,105.6,T,,M,0.0,N,0.0,K,A*0F
$GPGLL,2233.2052,N,11413.8083,E,164202.00,A,A*6A
$GPGSA,A,3,05,10,12,15,26,27,,,,,,,2.1,1.7,1.3*37
$GPRMC,164203.000,A,2233.2052,N,11413.8083,E,0.0,105.6,040191,,,A*63
$GPGGA,164203.000,2233.2052,N,11413.8083,E,1,06,1.7,49.4,M,14.2,M,,0000*60
$GPVTG,105.6,T,,M,0.0,N,0.0,K,A*0F
$GPGLL,2233.2052,N,11413.8083,E,164203.00,A,A*6B
$GPGSA,A,3,05,10,12,15,26,27,,,,,,,2.1,1.7,1.3*37
$GPRMC,164204.000,A,2233.2052,N,11413.8083,E,0.0,105.6,040191,,,A*64
$GPGGA,164204.000,2233.2052,N,11413.8083,E,1,06,1.7,49.4,M,14.2,M,,0000*67
$GPVTG,105.6,T,,M,0.0,N,0.0,K,A*0F
$GPGLL,2233.2052,N,11413.8083,E,164204.00,A,A*6C
$GPGSA,A,3,05,10,12,15,26,27,,,,,,,2.1,1.7,1.3*37
$GPRMC,164205.000,A,2233.2052,N,11413.8083,E,0.0,105.6,040191,,,A*65
$GPGGA,164205.000,2233.2052,N,11413.8083,E,1,06,1.7,49.4,M,14.2,M,,0000*66
$GPVTG,105.6,T,,M,0.0,N,0.0,K,A*0F
$GPGLL,2233.2052,N,11413.8083,E,164205.00,A,A*6D
$GPGSA,A,3,05,10,12,15,26,27,,,,,,,2.1,1.7,1.3*37
$GPRMC,164206.000,A,2233.2052,N,11413.8083,E,0.0,105.6,040191,,,A*66
$GPGGA,164206.000,2233.2052,N,11413.8083,E,1,06,1.7,49.4,M,14.2,M,,0000*65
$GPVTG,105.6,T,,M,0.0,N,0.0,K,A*0F
$GPGLL,2233.2052,N,11413.8083,E,164206.00,A,A*6E
$GPGSA,A,3,05,10,12,15,26,27,,,,,,,2.1,1.7,1.3*37
$GPGSV,3,1,10,10,21,050,19,05,47,011,14,27,11,174,28,12,05,218,18*7F
$GPGSV,3,2,10,26,82,141,33,15,58,212,42,02,49,093,,29,37,303,*77
$GPGSV,3,3,10,04,14,114,,08,14,073,*74
$GPRMC,164207.000,A,2233.2052,N,11413.8083,E,0.0,105.6,040191,,,A*67
$GPGGA,164207.000,2233.2052,N,11413.8083,E,1,06,1.7,49.4,M,14.2,M,,0000*64
$GPVTG,105.6,T,,M,0.0,N,0.0,K,A*0F
$GPGLL,2233.2052,N,11413.8083,E,164207.00,A,A*6F
$GPGSA,A,3,05,10,12,15,26,27,,,,,,,2.1,1.7,1.3*37
$GPRMC,164208.000,A,2233.2052,N,11413.8083,E,0.0,105.6,040191,,,A*68
$GPGGA,164208.000,2233.2052,N,11413.8083,E,1,06,1.7,49.4,M,14.2,M,,0000*6B
$GPVTG,105.6,T,,M,0.0,N,0.0,K,A*0F
$GPGLL,2233.2052,N,11413.8083,E,164208.00,A,A*60
$GPGSA,A,3,05,10,12,15,26,27,,,,,,,2.1,1.7,1.3*37
$GPRMC,164209.000,A,2233.2052,N,11413.8083,E,0.0,105.6,040191,,,A*69
$GPGGA,164209.000,2233.2052,N,11413.8083,E,1,06,1.7,49.4,M,14.2,M,,0000*6A
$GPVTG,105.6,T,,M,0.0,N,0.0,K,A*0F
$GPGLL,2233.2052,N,11413.8083,E,164209.00,A,A*61
$GPGSA,A,3,05,10,12,15,26,27,,,,,,,2.1,1.7,1.3*37
$GPRMC,164210.000,A,2233.2052,N,11413.8083,E,0.0,105.6,040191,,,A*61
$GPGGA,164210.000,2233.2052,N,11413.8083,E,1,06,1.7,49.4,M,14.2,M,,0000*62
$GPVTG,105.6,T,,M,0.0,N,0.0,K,A*0F
$GPGLL,2233.2052,N,11413.8083,E,164210.00,A,A*69
$GPGSA,A,3,05,10,12,15,26,27,,,,,,,2.1,1.7,1.3*37
$GPRMC,164211.000,A,2233.2052,N,11413.8083,E,0.0,105.6,040191,,,A*60
$GPGGA,164211.000,2233.2052,N,11413.8083,E,1,06,1.7,49.4,M,14.2,M,,0000*63
$GPVTG,105.6,T,,M,0.0,N,0.0,K,A*0F
$GPGLL,2233.2052,N,11413.8083,E,164211.00,A,A*68
$GPGSA,A,3,05,10,12,15,26,27,,,,,,,2.1,1.7,1.3*37
$GPGSV,3,1,10,10,21,050,18,05,47,011,14,27,11,174,31,12,05,218,17*79
$GPGSV,3,2,10,26,82,141,33,15,58,212,42,29,37,303,20,02,49,094,*72
$GPGSV,3,3,10,04,14,114,,08,14,073,*74
$GPRMC,164212.000,A,2233.2052,N,11413.8083,E,0.0,105.6,040191,,,A*63
$GPGGA,164212.000,2233.2052,N,11413.8083,E,1,06,1.7,49.4,M,14.2,M,,0000*60
$GPVTG,105.6,T,,M,0.0,N,0.0,K,A*0F
$GPGLL,2233.2052,N,11413.8083,E,164212.00,A,A*6B
$GPGSA,A,3,05,10,12,15,26,27,,,,,,,2.1,1.7,1.3*37
$GPRMC,164213.000,A,2233.2052,N,11413.8083,E,0.0,105.6,040191,,,A*62
$GPGGA,164213.000,2233.2052,N,11413.8083,E,1,06,1.7,49.4,M,14.2,M,,0000*61
$GPVTG,105.6,T,,M,0.0,N,0.0,K,A*0F
$GPGLL,2233.2052,N,11413.8083,E,164213.00,A,A*6A
$GPGSA,A,3,05,10,12,15,26,27,,,,,,,2.1,1.7,1.3*37
$GPRMC,164214.000,A,2233.2052,N,11413.8083,E,0.0,105.6,040191,,,A*65
$GPGGA,164214.000,2233.2052,N,11413.8083,E,1,06,1.7,49.4,M,14.2,M,,0000*66
$GPVTG,105.6,T,,M,0.0,N,0.0,K,A*0F
$GPGLL,2233.2052,N,11413.8083,E,164214.00,A,A*6D
$GPGSA,A,3,05,10,12,15,26,27,,,,,,,2.1,1.7,1.3*37
$GPRMC,164215.000,A,2233.2052,N,11413.8083,E,0.0,105.6,040191,,,A*64
$GPGGA,164215.000,2233.2052,N,11413.8083,E,1,06,1.7,49.4,M,14.2,M,,0000*67
$GPVTG,105.6,T,,M,0.0,N,0.0,K,A*0F
$GPGLL,2233.2052,N,11413.8083,E,164215.00,A,A*6C
$GPGSA,A,3,05,10,12,15,26,27,,,,,,,2.1,1.7,1.3*37
$GPRMC,164216.000,A,2233.2052,N,11413.8083,E,0.0,105.6,040191,,,A*67
$GPGGA,164216.000,2233.2052,N,11413.8083,E,1,06,1.7,49.4,M,14.2,M,,0000*64
$GPVTG,105.6,T,,M,0.0,N,0.0,K,A*0F
$GPGLL,2233.2052,N,11413.8083,E,164216.00,A,A*6F
$GPGSA,A,3,05,10,12,15,26,27,,,,,,,2.1,1.7,1.3*37
$GPGSV,3,1,10,10,21,050,15,05,47,011,14,27,11,174,30,12,05,218,19*7B
$GPGSV,3,2,10,08,14,073,20,26,82,140,33,15,58,212,40,29,37,303,18*73
$GPGSV,3,3,10,02,49,094,,04,14,115,*7E
$GPRMC,164217.000,A,2233.2052,N,11413.8083,E,0.0,105.6,040191,,,A*66
$GPGGA,164217.000,2233.2052,N,11413.8083,E,1,06,1.7,49.4,M,14.2,M,,0000*65
$GPVTG,105.6,T,,M,0.0,N,0.0,K,A*0F
$GPGLL,2233.2052,N,11413.8083,E,164217.00,A,A*6E
$GPGSA,A,3,05,10,12,15,26,27,,,,,,,2.1,1.7,1.3*37
$GPRMC,164218.000,A,2233.2052,N,11413.8083,E,0.0,105.6,040191,,,A*69
$GPGGA,164218.000,2233.2052,N,11413.8083,E,1,06,1.7,49.4,M,14.2,M,,0000*6A
$GPVTG,105.6,T,,M,0.0,N,0.0,K,A*0F
$GPGLL,2233.2052,N,11413.8083,E,164218.00,A,A*61
$GPGSA,A,3,05,10,12,15,26,27,,,,,,,2.1,1.7,1.3*37
$GPRMC,164219.000,A,2233.2052,N,11413.8083,E,0.0,105.6,040191,,,A*68
$GPGGA,164219.000,2233.2052,N,11413.8083,E,1,06,1.7,49.4,M,14.2,M,,0000*6B
$GPVTG,105.6,T,,M,0.0,N,0.0,K,A*0F
$GPGLL,2233.2052,N,11413.8083,E,164219.00,A,A*60
$GPGSA,A,3,05,10,12,15,26,27,,,,,,,2.1,1.7,1.3*37
$GPRMC,164220.000,A,2233.2052,N,11413.8083,E,0.0,105.6,040191,,,A*62
$GPGGA,164220.000,2233.2052,N,11413.8083,E,1,07,1.4,49.4,M,14.2,M,,0000*63
$GPVTG,105.6,T,,M,0.0,N,0.0,K,A*0F
$GPGLL,2233.2052,N,11413.8083,E,164220.00,A,A*6A
$GPGSA,A,3,02,05,10,12,15,26,27,,,,,,1.8,1.4,1.2*3D
$GPRMC,164221.000,A,2233.2052,N,11413.8083,E,0.0,105.6,040191,,,A*63
$GPGGA,164221.000,2233.2052,N,11413.8083,E,1,07,1.4,49.4,M,14.2,M,,0000*62
$GPVTG,105.6,T,,M,0.0,N,0.0,K,A*0F
$GPGLL,2233.2052,N,11413.8083,E,164221.00,A,A*6B
$GPGSA,A,3,02,05,10,12,15,26,27,,,,,,1.8,1.4,1.2*3D
$GPGSV,3,1,10,10,21,050,17,05,47,011,15,02,49,094,14,27,11,174,29*72
$GPGSV,3,2,10,12,05,218,20,26,83,140,34,15,59,212,40,29,37,303,17*7F
$GPGSV,3,3,10,04,14,115,,08,14,073,*75
$GPRMC,164222.000,A,2233.2052,N,11413.8083,E,0.0,105.6,040191,,,A*60
$GPGGA,164222.000,2233.2052,N,11413.8083,E,1,07,1.4,49.4,M,14.2,M,,0000*61
$GPVTG,105.6,T,,M,0.0,N,0.0,K,A*0F
$GPGLL,2233.2052,N,11413.8083,E,164222.00,A,A*68
$GPGSA,A,3,02,05,10,12,15,26,27,,,,,,1.8,1.4,1.2*3D
$GPRMC,164223.000,A,2233.2052,N,11413.8083,E,0.0,105.6,040191,,,A*61
$GPGGA,164223.000,2233.2052,N,11413.8083,E,1,07,1.4,49.4,M,14.2,M,,0000*60
$GPVTG,105.6,T,,M,0.0,N,0.0,K,A*0F
$GPGLL,2233.2052,N,11413.8083,E,164223.00,A,A*69
$GPGSA,A,3,02,05,10,12,15,26,27,,,,,,1.8,1.4,1.2*3D
$GPRMC,164224.000,A,2233.2052,N,11413.8083,E,0.0,105.6,040191,,,A*66
$GPGGA,164224.000,2233.2052,N,11413.8083,E,1,07,1.4,49.4,M,14.2,M,,0000*67
$GPVTG,105.6,T,,M,0.0,N,0.0,K,A*0F
$GPGLL,2233.2052,N,11413.8083,E,164224.00,A,A*6E
$GPGSA,A,3,02,05,10,12,15,26,27,,,,,,1.8,1.4,1.2*3D
$GPRMC,164225.000,A,2233.2052,N,11413.8083,E,0.0,105.6,040191,,,A*67
$GPGGA,164225.000,2233.2052,N,11413.8083,E,1,07,1.4,49.4,M,14.2,M,,0000*66
$GPVTG,105.6,T,,M,0.0,N,0.0,K,A*0F
$GPGLL,2233.2052,N,11413.8083,E,164225.00,A,A*6F
$GPGSA,A,3,02,05,10,12,15,26,27,,,,,,1.8,1.4,1.2*3D
$GPRMC,164226.000,A,2233.2052,N,11413.8083,E,0.0,105.6,040191,,,A*64
$GPGGA,164226.000,2233.2052,N,11413.8083,E,1,07,1.4,49.4,M,14.2,M,,0000*65
$GPVTG,105.6,T,,M,0.0,N,0.0,K,A*0F
$GPGLL,2233.2052,N,11413.8083,E,164226.00,A,A*6C
$GPGSA,A,3,02,05,10,12,15,26,27,,,,,,1.8,1.4,1.2*3D
$GPGSV,3,1,10,10,21,050,21,05,47,011,17,02,49,094,15,27,11,174,30*7C
$GPGSV,3,2,10,12,05,218,17,26,83,140,34,15,59,212,40,29,37,303,*7D
$GPGSV,3,3,10,04,14,115,,08,14,073,*75
$GPRMC,164227.000,A,2233.2052,N,11413.8083,E,0.0,105.6,040191,,,A*65
$GPGGA,164227.000,2233.2052,N,11413.8083,E,1,07,1.4,49.4,M,14.2,M,,0000*64
$GPVTG,105.6,T,,M,0.0,N,0.0,K,A*0F
$GPGLL,2233.2052,N,11413.8083,E,164227.00,A,A*6D
$GPGSA,A,3,02,05,10,12,15,26,27,,,,,,1.8,1.4,1.2*3D
$GPRMC,164228.000,A,2233.2052,N,11413.8083,E,0.0,105.6,040191,,,A*6A
$GPGGA,164228.000,2233.2052,N,11413.8083,E,1,07,1.4,49.4,M,14.2,M,,0000*6B
$GPVTG,105.6,T,,M,0.0,N,0.0,K,A*0F
$GPGLL,2233.2052,N,11413.8083,E,164228.00,A,A*62
$GPGSA,A,3,02,05,10,12,15,26,27,,,,,,1.8,1.4,1.2*3D
$GPRMC,164229.000,A,2233.2052,N,11413.8083,E,0.0,105.6,040191,,,A*6B
$GPGGA,164229.000,2233.2052,N,11413.8083,E,1,07,1.4,49.4,M,14.2,M,,0000*6A
$GPVTG,105.6,T,,M,0.0,N,0.0,K,A*0F
$GPGLL,2233.2052,N,11413.8083,E,164229.00,A,A*63
$GPGSA,A,3,02,05,10,12,15,26,27,,,,,,1.8,1.4,1.2*3D
$GPRMC,164230.000,A,2233.2052,N,11413.8083,E,0.0,105.6,040191,,,A*63
$GPGGA,164230.000,2233.2052,N,11413.8083,E,1,07,1.4,49.4,M,14.2,M,,0000*62
$GPVTG,105.6,T,,M,0.0,N,0.0,K,A*0F
$GPGLL,2233.2052,N,11413.8083,E,164230.00,A,A*6B
$GPGSA,A,3,02,05,10,12,15,26,27,,,,,,1.8,1.4,1.2*3D
$GPRMC,164231.000,A,2233.2052,N,11413.8083,E,0.0,105.6,040191,,,A*62
$GPGGA,164231.000,2233.2052,N,11413.8083,E,1,07,1.4,49.4,M,14.2,M,,0000*63
$GPVTG,105.6,T,,M,0.0,N,0.0,K,A*0F
$GPGLL,2233.2052,N,11413.8083,E,164231.00,A,A*6A
$GPGSA,A,3,02,05,10,12,15,26,27,,,,,,1.8,1.4,1.2*3D
$GPGSV,3,1,10,10,21,050,21,05,47,011,18,02,49,094,18,27,11,174,31*7F
$GPGSV,3,2,10,12,05,218,15,26,83,140,33,15,59,212,40,29,37,303,*78
$GPGSV,3,3,10,04,14,115,,08,14,073,*75
$GPRMC,164232.000,A,2233.2052,N,11413.8083,E,0.0,105.6,040191,,,A*61
$GPGGA,164232.000,2233.2052,N,11413.8083,E,1,07,1.4,49.4,M,14.2,M,,0000*60
$GPVTG,105.6,T,,M,0.0,N,0.0,K,A*0F
$GPGLL,2233.2052,N,11413.8083,E,164232.00,A,A*69
$GPGSA,A,3,02,05,10,12,15,26,27,,,,,,1.8,1.4,1.2*3D
$GPRMC,164233.000,A,2233.2052,N,11413.8083,E,0.0,105.6,040191,,,A*60
$GPGGA,164233.000,2233.2052,N,11413.8083,E,1,07,1.4,49.4,M,14.2,M,,0000*61
$GPVTG,105.6,T,,M,0.0,N,0.0,K,A*0F
$GPGLL,2233.2052,N,11413.8083,E,164233.00,A,A*68
$GPGSA,A,3,02,05,10,12,15,26,27,,,,,,1.8,1.4,1.2*3D
$GPRMC,164234.000,A,2233.2052,N,11413.8083,E,0.0,105.6,040191,,,A*67
$GPGGA,164234.000,2233.2052,N,11413.8083,E,1,07,1.4,49.4,M,14.2,M,,0000*66
$GPVTG,105.6,T,,M,0.0,N,0.0,K,A*0F
$GPGLL,2233.2052,N,11413.8083,E,164234.00,A,A*6F
$GPGSA,A,3,02,05,10,12,15,26,27,,,,,,1.8,1.4,1.2*3D
$GPRMC,164235.000,A,2233.2052,N,11413.8083,E,0.0,105.6,040191,,,A*66
$GPGGA,164235.000,2233.2052,N,11413.8083,E,1,07,1.4,49.4,M,14.2,M,,0000*67
$GPVTG,105.6,T,,M,0.0,N,0.0,K,A*0F
$GPGLL,2233.2052,N,11413.8083,E,164235.00,A,A*6E
$GPGSA,A,3,02,05,10,12,15,26,27,,,,,,1.8,1.4,1.2*3D
$GPRMC,164236.000,A,2233.2052,N,11413.8083,E,0.0,105.6,040191,,,A*65
$GPGGA,164236.000,2233.2052,N,11413.8083,E,1,07,1.4,49.4,M,14.2,M,,0000*64
$GPVTG,105.6,T,,M,0.0,N,0.0,K,A*0F
$GPGLL,2233.2052,N,11413.8083,E,164236.00,A,A*6D
$GPGSA,A,3,02,05,10,12,15,26,27,,,,,,1.8,1.4,1.2*3D
$GPGSV,3,1,10,10,21,050,19,05,47,011,16,02,49,094,18,27,11,174,30*7B
$GPGSV,3,2,10,12,05,218,16,26,83,139,33,15,59,212,40,29,37,303,*75
$GPGSV,3,3,10,04,14,115,,08,14,073,*75
$GPRMC,164237.000,A,2233.2052,N,11413.8083,E,0.0,105.6,040191,,,A*64
$GPGGA,164237.000,2233.2052,N,11413.8083,E,1,07,1.4,49.4,M,14.2,M,,0000*65
$GPVTG,105.6,T,,M,0.0,N,0.0,K,A*0F
$GPGLL,2233.2052,N,11413.8083,E,164237.00,A,A*6C
$GPGSA,A,3,02,05,10,12,15,26,27,,,,,,1.8,1.4,1.2*3D
$GPRMC,164238.000,A,2233.2052,N,11413.8083,E,0.0,105.6,040191,,,A*6B
$GPGGA,164238.000,2233.2052,N,11413.8083,E,1,07,1.4,49.4,M,14.2,M,,0000*6A
$GPVTG,105.6,T,,M,0.0,N,0.0,K,A*0F
$GPGLL,2233.2052,N,11413.8083,E,164238.00,A,A*63
$GPGSA,A,3,02,05,10,12,15,26,27,,,,,,1.8,1.4,1.2*3D
$GPRMC,164239.000,A,2233.2052,N,11413.8083,E,0.0,105.6,040191,,,A*6A
$GPGGA,164239.000,2233.2052,N,11413.8083,E,1,07,1.4,49.4,M,14.2,M,,0000*6B
$GPVTG,105.6,T,,M,0.0,N,0.0,K,A*0F
$GPGLL,2233.2052,N,11413.8083,E,164239.00,A,A*62
$GPGSA,A,3,02,05,10,12,15,26,27,,,,,,1.8,1.4,1.2*3D
$GPRMC,164240.000,A,2233.2052,N,11413.8083,E,0.0,105.6,040191,,,A*64
$GPGGA,164240.000,2233.2052,N,11413.8083,E,1,07,1.4,49.4,M,14.2,M,,0000*65
$GPVTG,105.6,T,,M,0.0,N,0.0,K,A*0F
$GPGLL,2233.2052,N,11413.8083,E,164240.00,A,A*6C
$GPGSA,A,3,02,05,10,12,15,26,27,,,,,,1.8,1.4,1.2*3D
$GPRMC,164241.000,A,2233.2052,N,11413.8083,E,0.0,105.6,040191,,,A*65
$GPGGA,164241.000,2233.2052,N,11413.8083,E,1,07,1.4,49.4,M,14.2,M,,0000*64
$GPVTG,105.6,T,,M,0.0,N,0.0,K,A*0F
$GPGLL,2233.2052,N,11413.8083,E,164241.00,A,A*6D
$GPGSA,A,3,02,05,10,12,15,26,27,,,,,,1.8,1.4,1.2*3D
$GPGSV,3,1,10,10,21,050,18,05,47,011,16,02,49,094,15,27,11,173,29*78
$GPGSV,3,2,10,12,05,217,21,26,83,139,33,15,59,212,41,29,37,303,21*7C
$GPGSV,3,3,10,04,14,115,,08,14,073,*75
$GPRMC,164242.000,A,2233.2052,N,11413.8083,E,0.0,105.6,040191,,,A*66
$GPGGA,164242.000,2233.2052,N,11413.8083,E,1,07,1.4,49.4,M,14.2,M,,0000*67
$GPVTG,105.6,T,,M,0.0,N,0.0,K,A*0F
$GPGLL,2233.2052,N,11413.8083,E,164242.00,A,A*6E
$GPGSA,A,3,02,05,10,12,15,26,27,,,,,,1.8,1.4,1.2*3D
$GPRMC,164243.000,A,2233.2052,N,11413.8083,E,0.0,105.6,040191,,,A*67
$GPGGA,164243.000,2233.2052,N,11413.8083,E,1,07,1.4,49.4,M,14.2,M,,0000*66
$GPVTG,105.6,T,,M,0.0,N,0.0,K,A*0F
$GPGLL,2233.2052,N,11413.8083,E,164243.00,A,A*6F
$GPGSA,A,3,02,05,10,12,15,26,27,,,,,,1.8,1.4,1.2*3D
$GPRMC,164244.000,A,2233.2052,N,11413.8083,E,0.0,105.6,040191,,,A*60
$GPGGA,164244.000,2233.2052,N,11413.8083,E,1,07,1.4,49.4,M,14.2,M,,0000*61
$GPVTG,105.6,T,,M,0.0,N,0.0,K,A*0F
$GPGLL,2233.2052,N,11413.8083,E,164244.00,A,A*68
$GPGSA,A,3,02,05,10,12,15,26,27,,,,,,1.8,1.4,1.2*3D
$GPRMC,164245.000,A,2233.2052,N,11413.8083,E,0.0,105.6,040191,,,A*61
$GPGGA,164245.000,2233.2052,N,11413.8083,E,1,07,1.4,49.4,M,14.2,M,,0000*60
$GPVTG,105.6,T,,M,0.0,N,0.0,K,A*0F
$GPGLL,2233.2052,N,11413.8083,E,164245.00,A,A*69
$GPGSA,A,3,02,05,10,12,15,26,27,,,,,,1.8,1.4,1.2*3D
$GPRMC,164246.000,A,2233.2052,N,11413.8083,E,0.0,105.6,040191,,,A*62
$GPGGA,164246.000,2233.2052,N,11413.8083,E,1,07,1.4,49.4,M,14.2,M,,0000*63
$GPVTG,105.6,T,,M,0.0,N,0.0,K,A*0F
$GPGLL,2233.2052,N,11413.8083,E,164246.00,A,A*6A
$GPGSA,A,3,02,05,10,12,15,26,27,,,,,,1.8,1.4,1.2*3D
$GPGSV,3,1,10,10,21,050,20,05,47,011,14,02,49,094,14,27,11,173,31*79
$GPGSV,3,2,10,12,05,217,21,26,83,139,32,15,59,212,42,29,37,303,20*7F
$GPGSV,3,3,10,04,14,115,,08,14,072,*74
$GPRMC,164247.000,A,2233.2052,N,11413.8083,E,0.0,105.6,040191,,,A*63
$GPGGA,164247.000,2233.2052,N,11413.8083,E,1,07,1.4,49.4,M,14.2,M,,0000*62
$GPVTG,105.6,T,,M,0.0,N,0.0,K,A*0F
$GPGLL,2233.2052,N,11413.8083,E,164247.00,A,A*6B
$GPGSA,A,3,02,05,10,12,15,26,27,,,,,,1.8,1.4,1.2*3D
$GPRMC,164248.000,A,2233.2052,N,11413.8083,E,0.0,105.6,040191,,,A*6C
$GPGGA,164248.000,2233.2052,N,11413.8083,E,1,07,1.4,49.4,M,14.2,M,,0000*6D
$GPVTG,105.6,T,,M,0.0,N,0.0,K,A*0F
$GPGLL,2233.2052,N,11413.8083,E,164248.00,A,A*64
$GPGSA,A,3,02,05,10,12,15,26,27,,,,,,1.8,1.4,1.2*3D
$GPRMC,164249.000,A,2233.2052,N,11413.8083,E,0.0,105.6,040191,,,A*6D
$GPGGA,164249.000,2233.2052,N,11413.8083,E,1,07,1.4,49.4,M,14.2,M,,0000*6C
$GPVTG,105.6,T,,M,0.0,N,0.0,K,A*0F
$GPGLL,2233.2052,N,11413.8083,E,164249.00,A,A*65
$GPGSA,A,3,02,05,10,12,15,26,27,,,,,,1.8,1.4,1.2*3D
$GPRMC,164250.000,A,2233.2052,N,11413.8083,E,0.0,105.6,040191,,,A*65
$GPGGA,164250.000,2233.2052,N,11413.8083,E,1,07,1.4,49.4,M,14.2,M,,0000*64
$GPVTG,105.6,T,,M,0.0,N,0.0,K,A*0F
$GPGLL,2233.2052,N,11413.8083,E,164250.00,A,A*6D
$GPGSA,A,3,02,05,10,12,15,26,27,,,,,,1.8,1.4,1.2*3D
$GPRMC,164251.000,A,2233.2052,N,11413.8083,E,0.0,105.6,040191,,,A*64
$GPGGA,164251.000,2233.2052,N,11413.8083,E,1,07,1.4,49.4,M,14.2,M,,0000*65
$GPVTG,105.6,T,,M,0.0,N,0.0,K,A*0F
$GPGLL,2233.2052,N,11413.8083,E,164251.00,A,A*6C
$GPGSA,A,3,02,05,10,12,15,26,27,,,,,,1.8,1.4,1.2*3D
$GPGSV,3,1,10,10,21,050,23,05,47,011,12,02,49,094,11,27,11,173,31*79
$GPGSV,3,2,10,12,05,217,19,26,83,138,33,15,59,212,41,29,37,303,19*7D
$GPGSV,3,3,10,04,14,115,,08,14,072,*74
$GPRMC,164252.000,A,2233.2052,N,11413.8083,E,0.0,105.6,040191,,,A*67
$GPGGA,164252.000,2233.2052,N,11413.8083,E,1,07,1.4,49.4,M,14.2,M,,0000*66
$GPVTG,105.6,T,,M,0.0,N,0.0,K,A*0F
$GPGLL,2233.2052,N,11413.8083,E,164252.00,A,A*6F
$GPGSA,A,3,02,05,10,12,15,26,27,,,,,,1.8,1.4,1.2*3D
$GPRMC,164253.000,A,2233.2052,N,11413.8083,E,0.0,105.6,040191,,,A*66
$GPGGA,164253.000,2233.2052,N,11413.8083,E,1,06,1.7,49.4,M,14.2,M,,0000*65
$GPVTG,105.6,T,,M,0.0,N,0.0,K,A*0F
$GPGLL,2233.2052,N,11413.8083,E,164253.00,A,A*6E
$GPGSA,A,3,05,10,12,15,26,27,,,,,,,2.1,1.7,1.3*37
$GPRMC,164254.000,A,2233.2052,N,11413.8083,E,0.0,105.6,040191,,,A*61
$GPGGA,164254.000,2233.2052,N,11413.8083,E,1,05,2.0,49.4,M,14.2,M,,0000*65
$GPVTG,105.6,T,,M,0.0,N,0.0,K,A*0F
$GPGLL,2233.2052,N,11413.8083,E,164254.00,A,A*69
$GPGSA,A,3,10,12,15,26,27,,,,,,,,2.4,2.0,1.3*33
$GPRMC,164255.000,A,2233.2052,N,11413.8083,E,0.0,105.6,040191,,,A*60
$GPGGA,164255.000,2233.2052,N,11413.8083,E,1,05,2.0,49.4,M,14.2,M,,0000*64
$GPVTG,105.6,T,,M,0.0,N,0.0,K,A*0F
$GPGLL,2233.2052,N,11413.8083,E,164255.00,A,A*68
$GPGSA,A,3,10,12,15,26,27,,,,,,,,2.4,2.0,1.3*33
$GPRMC,164256.000,A,2233.2052,N,11413.8083,E,0.0,105.6,040191,,,A*63
$GPGGA,164256.000,2233.2052,N,11413.8083,E,1,05,2.0,49.4,M,14.2,M,,0000*67
$GPVTG,105.6,T,,M,0.0,N,0.0,K,A*0F
$GPGLL,2233.2052,N,11413.8083,E,164256.00,A,A*6B
$GPGSA,A,3,10,12,15,26,27,,,,,,,,2.4,2.0,1.3*33
$GPGSV,3,1,10,10,21,050,21,27,11,173,32,12,05,217,20,26,83,138,33*7A
$GPGSV,3,2,10,15,59,212,42,29,37,303,,02,48,094,,05,47,011,*7C
$GPGSV,3,3,10,04,14,115,,08,14,072,*74
$GPRMC,164257.000,A,2233.2052,N,11413.8083,E,0.0,105.6,040191,,,A*62
$GPGGA,164257.000,2233.2052,N,11413.8083,E,1,05,2.0,49.4,M,14.2,M,,0000*66
$GPVTG,105.6,T,,M,0.0,N,0.0,K,A*0F
$GPGLL,2233.2052,N,11413.8083,E,164257.00,A,A*6A
$GPGSA,A,3,10,12,15,26,27,,,,,,,,2.4,2.0,1.3*33
$GPRMC,164258.000,A,2233.2052,N,11413.8083,E,0.0,105.6,040191,,,A*6D
$GPGGA,164258.000,2233.2052,N,11413.8083,E,1,05,2.0,49.4,M,14.2,M,,0000*69
$GPVTG,105.6,T,,M,0.0,N,0.0,K,A*0F
$GPGLL,2233.2052,N,11413.8083,E,164258.00,A,A*65
$GPGSA,A,3,10,12,15,26,27,,,,,,,,2.4,2.0,1.3*33
$GPRMC,164259.000,A,2233.2052,N,11413.8083,E,0.0,105.6,040191,,,A*6C
$GPGGA,164259.000,2233.2052,N,11413.8083,E,1,05,2.0,49.4,M,14.2,M,,0000*68
$GPVTG,105.6,T,,M,0.0,N,0.0,K,A*0F
$GPGLL,2233.2052,N,11413.8083,E,164259.00,A,A*64
$GPGSA,A,3,10,12,15,26,27,,,,,,,,2.4,2.0,1.3*33
$GPRMC,164300.000,A,2233.2052,N,11413.8083,E,0.0,105.6,040191,,,A*61
$GPGGA,164300.000,2233.2052,N,11413.8083,E,1,06,1.7,49.4,M,14.2,M,,0000*62
$GPVTG,105.6,T,,M,0.0,N,0.0,K,A*0F
$GPGLL,2233.2052,N,11413.8083,E,164300.00,A,A*69
$GPGSA,A,3,05,10,12,15,26,27,,,,,,,2.1,1.7,1.3*37
$GPRMC,164301.000,A,2233.2052,N,11413.8083,E,0.0,105.6,040191,,,A*60
$GPGGA,164301.000,2233.2052,N,11413.8083,E,1,06,1.7,49.4,M,14.2,M,,0000*63
$GPVTG,105.6,T,,M,0.0,N,0.0,K,A*0F
$GPGLL,2233.2052,N,11413.8083,E,164301.00,A,A*68
$GPGSA,A,3,05,10,12,15,26,27,,,,,,,2.1,1.7,1.3*37
$GPGSV,3,1,10,10,21,050,18,05,47,011,15,27,11,173,30,12,05,217,23*76
$GPGSV,3,2,10,26,83,138,32,15,59,212,41,02,48,094,,29,37,303,*7D
$GPGSV,3,3,10,04,14,115,,08,14,072,*74
$GPRMC,164302.000,A,2233.2052,N,11413.8083,E,0.0,105.6,040191,,,A*63
$GPGGA,164302.000,2233.2052,N,11413.8083,E,1,05,2.0,49.4,M,14.2,M,,0000*67
$GPVTG,105.6,T,,M,0.0,N,0.0,K,A*0F
$GPGLL,2233.2052,N,11413.8083,E,164302.00,A,A*6B
$GPGSA,A,3,10,12,15,26,27,,,,,,,,2.4,2.0,1.3*33
$GPRMC,164303.000,A,2233.2052,N,11413.8083,E,0.0,105.6,040191,,,A*62
$GPGGA,164303.000,2233.2052,N,11413.8083,E,1,05,2.0,49.4,M,14.2,M,,0000*66
$GPVTG,105.6,T,,M,0.0,N,0.0,K,A*0F
$GPGLL,2233.2052,N,11413.8083,E,164303.00,A,A*6A
$GPGSA,A,3,10,12,15,26,27,,,,,,,,2.4,2.0,1.3*33
$GPRMC,164304.000,A,2233.2052,N,11413.8083,E,0.0,105.6,040191,,,A*65
$GPGGA,164304.000,2233.2052,N,11413.8083,E,1,05,2.0,49.4,M,14.2,M,,0000*61
$GPVTG,105.6,T,,M,0.0,N,0.0,K,A*0F
$GPGLL,2233.2052,N,11413.8083,E,164304.00,A,A*6D
$GPGSA,A,3,10,12,15,26,27,,,,,,,,2.4,2.0,1.3*33
$GPRMC,164305.000,A,2233.2052,N,11413.8083,E,0.0,105.6,040191,,,A*64
$GPGGA,164305.000,2233.2052,N,11413.8083,E,1,05,2.0,49.4,M,14.2,M,,0000*60
$GPVTG,105.6,T,,M,0.0,N,0.0,K,A*0F
$GPGLL,2233.2052,N,11413.8083,E,164305.00,A,A*6C
$GPGSA,A,3,10,12,15,26,27,,,,,,,,2.4,2.0,1.3*33
$GPRMC,164306.000,A,2233.2052,N,11413.8083,E,0.0,105.6,040191,,,A*67
$GPGGA,164306.000,2233.2052,N,11413.8083,E,1,05,2.0,49.4,M,14.2,M,,0000*63
$GPVTG,105.6,T,,M,0.0,N,0.0,K,A*0F
$GPGLL,2233.2052,N,11413.8083,E,164306.00,A,A*6F
$GPGSA,A,3,10,12,15,26,27,,,,,,,,2.4,2.0,1.3*33
$GPGSV,3,1,10,10,21,050,18,27,11,173,30,12,05,217,20,26,83,137,32*7C
$GPGSV,3,2,10,15,59,212,40,02,48,094,,05,47,011,,29,37,303,*7E
$GPGSV,3,3,10,08,14,072,,04,14,115,*74
$GPRMC,164307.000,A,2233.2052,N,11413.8083,E,0.0,105.6,040191,,,A*66
$GPGGA,164307.000,2233.2052,N,11413.8083,E,1,05,2.0,49.4,M,14.2,M,,0000*62
$GPVTG,105.6,T,,M,0.0,N,0.0,K,A*0F
$GPGLL,2233.2052,N,11413.8083,E,164307.00,A,A*6E
$GPGSA,A,3,10,12,15,26,27,,,,,,,,2.4,2.0,1.3*33
$GPRMC,164308.000,A,2233.2052,N,11413.8083,E,0.0,105.6,040191,,,A*69
$GPGGA,164308.000,2233.2052,N,11413.8083,E,1,05,2.0,49.4,M,14.2,M,,0000*6D
$GPVTG,105.6,T,,M,0.0,N,0.0,K,A*0F
$GPGLL,2233.2052,N,11413.8083,E,164308.00,A,A*61
$GPGSA,A,3,10,12,15,26,27,,,,,,,,2.4,2.0,1.3*33
$GPRMC,164309.000,A,2233.2052,N,11413.8083,E,0.0,105.6,040191,,,A*68
$GPGGA,164309.000,2233.2052,N,11413.8083,E,1,05,2.0,49.4,M,14.2,M,,0000*6C
$GPVTG,105.6,T,,M,0.0,N,0.0,K,A*0F
$GPGLL,2233.2052,N,11413.8083,E,164309.00,A,A*60
$GPGSA,A,3,10,12,15,26,27,,,,,,,,2.4,2.0,1.3*33
$GPRMC,164310.000,A,2233.2052,N,11413.8083,E,0.0,105.6,040191,,,A*60
$GPGGA,164310.000,2233.2052,N,11413.8083,E,1,05,2.0,49.4,M,14.2,M,,0000*64
$GPVTG,105.6,T,,M,0.0,N,0.0,K,A*0F
$GPGLL,2233.2052,N,11413.8083,E,164310.00,A,A*68
$GPGSA,A,3,10,12,15,26,27,,,,,,,,2.4,2.0,1.3*33
$GPRMC,164311.000,A,2233.2052,N,11413.8083,E,0.0,105.6,040191,,,A*61
$GPGGA,164311.000,2233.2052,N,11413.8083,E,1,06,1.7,49.4,M,14.2,M,,0000*62
$GPVTG,105.6,T,,M,0.0,N,0.0,K,A*0F
$GPGLL,2233.2052,N,11413.8083,E,164311.00,A,A*69
$GPGSA,A,3,05,10,12,15,26,27,,,,,,,2.1,1.7,1.3*37
$GPGSV,3,1,10,10,21,050,20,05,47,011,13,27,11,173,31,12,05,217,21*78
$GPGSV,3,2,10,26,83,137,31,15,59,212,40,29,37,303,15,02,48,094,*74
$GPGSV,3,3,10,08,14,072,,04,14,115,*74
$GPRMC,164312.000,A,2233.2052,N,11413.8083,E,0.0,105.6,040191,,,A*62
$GPGGA,164312.000,2233.2052,N,11413.8083,E,1,06,1.7,49.4,M,14.2,M,,0000*61
$GPVTG,105.6,T,,M,0.0,N,0.0,K,A*0F
$GPGLL,2233.2052,N,11413.8083,E,164312.00,A,A*6A
$GPGSA,A,3,05,10,12,15,26,27,,,,,,,2.1,1.7,1.3*37
$GPRMC,164313.000,A,2233.2052,N,11413.8083,E,0.0,105.6,040191,,,A*63
$GPGGA,164313.000,2233.2052,N,11413.8083,E,1,05,2.0,49.4,M,14.2,M,,0000*67
$GPVTG,105.6,T,,M,0.0,N,0.0,K,A*0F
$GPGLL,2233.2052,N,11413.8083,E,164313.00,A,A*6B
$GPGSA,A,3,10,12,15,26,27,,,,,,,,2.4,2.0,1.3*33
$GPRMC,164314.000,A,2233.2052,N,11413.8083,E,0.0,105.6,040191,,,A*64
$GPGGA,164314.000,2233.2052,N,11413.8083,E,1,05,2.0,49.4,M,14.2,M,,0000*60
$GPVTG,105.6,T,,M,0.0,N,0.0,K,A*0F
$GPGLL,2233.2052,N,11413.8083,E,164314.00,A,A*6C
$GPGSA,A,3,10,12,15,26,27,,,,,,,,2.4,2.0,1.3*33
$GPRMC,164315.000,A,2233.2052,N,11413.8083,E,0.0,105.6,040191,,,A*65
$GPGGA,164315.000,2233.2052,N,11413.8083,E,1,05,2.0,49.4,M,14.2,M,,0000*61
$GPVTG,105.6,T,,M,0.0,N,0.0,K,A*0F
$GPGLL,2233.2052,N,11413.8083,E,164315.00,A,A*6D
$GPGSA,A,3,10,12,15,26,27,,,,,,,,2.4,2.0,1.3*33
$GPRMC,164316.000,A,2233.2052,N,11413.8083,E,0.0,105.6,040191,,,A*66
$GPGGA,164316.000,2233.2052,N,11413.8083,E,1,05,2.0,49.4,M,14.2,M,,0000*62
$GPVTG,105.6,T,,M,0.0,N,0.0,K,A*0F
$GPGLL,2233.2052,N,11413.8083,E,164316.00,A,A*6E
$GPGSA,A,3,10,12,15,26,27,,,,,,,,2.4,2.0,1.3*33
$GPGSV,3,1,10,10,21,050,22,02,48,094,14,27,11,173,32,12,05,217,19*70
$GPGSV,3,2,10,26,83,137,32,15,59,212,41,29,37,303,18,05,47,011,*7E
$GPGSV,3,3,10,08,14,072,,04,14,115,*74
$GPRMC,164317.000,A,2233.2052,N,11413.8083,E,0.0,105.6,040191,,,A*67
$GPGGA,164317.000,2233.2052,N,11413.8083,E,1,06,1.7,49.4,M,14.2,M,,0000*64
$GPVTG,105.6,T,,M,0.0,N,0.0,K,A*0F
$GPGLL,2233.2052,N,11413.8083,E,164317.00,A,A*6F
$GPGSA,A,3,02,10,12,15,26,27,,,,,,,2.1,1.7,1.2*31
$GPRMC,164318.000,A,2233.2052,N,11413.8083,E,0.0,105.6,040191,,,A*68
$GPGGA,164318.000,2233.2052,N,11413.8083,E,1,05,2.0,49.4,M,14.2,M,,0000*6C
$GPVTG,105.6,T,,M,0.0,N,0.0,K,A*0F
$GPGLL,2233.2052,N,11413.8083,E,164318.00,A,A*60
$GPGSA,A,3,10,12,15,26,27,,,,,,,,2.4,2.0,1.3*33
$GPRMC,164319.000,A,2233.2052,N,11413.8083,E,0.0,105.6,040191,,,A*69
$GPGGA,164319.000,2233.2052,N,11413.8083,E,1,06,1.7,49.4,M,14.2,M,,0000*6A
$GPVTG,105.6,T,,M,0.0,N,0.0,K,A*0F
$GPGLL,2233.2052,N,11413.8083,E,164319.00,A,A*61
$GPGSA,A,3,02,10,12,15,26,27,,,,,,,2.1,1.7,1.2*31
$GPRMC,164320.000,A,2233.2052,N,11413.8083,E,0.0,105.6,040191,,,A*63
$GPGGA,164320.000,2233.2052,N,11413.8083,E,1,07,1.4,49.4,M,14.2,M,,0000*62
$GPVTG,105.6,T,,M,0.0,N,0.0,K,A*0F
$GPGLL,2233.2052,N,11413.8083,E,164320.00,A,A*6B
$GPGSA,A,3,02,05,10,12,15,26,27,,,,,,1.8,1.4,1.2*3D
$GPRMC,164321.000,A,2233.2052,N,11413.8083,E,0.0,105.6,040191,,,A*62
$GPGGA,164321.000,2233.2052,N,11413.8083,E,1,06,1.7,49.4,M,14.2,M,,0000*61
$GPVTG,105.6,T,,M,0.0,N,0.0,K,A*0F
$GPGLL,2233.2052,N,11413.8083,E,164321.00,A,A*6A
$GPGSA,A,3,05,10,12,15,26,27,,,,,,,2.1,1.7,1.3*37
$GPGSV,3,1,10,10,21,050,22,05,47,011,14,02,48,094,14,27,11,173,32*79
$GPGSV,3,2,10,12,05,217,19,26,83,137,31,15,59,212,42,29,37,303,17*7D
$GPGSV,3,3,10,08,14,072,,04,14,115,*74
$GPRMC,164322.000,A,2233.2052,N,11413.8083,E,0.0,105.6,040191,,,A*61
$GPGGA,164322.000,2233.2052,N,11413.8083,E,1,06,1.7,49.4,M,14.2,M,,0000*62
$GPVTG,105.6,T,,M,0.0,N,0.0,K,A*0F
$GPGLL,2233.2052,N,11413.8083,E,164322.00,A,A*69
$GPGSA,A,3,05,10,12,15,26,27,,,,,,,2.1,1.7,1.3*37
$GPRMC,164323.000,A,2233.2052,N,11413.8083,E,0.0,105.6,040191,,,A*60
$GPGGA,164323.000,2233.2052,N,11413.8083,E,1,06,1.7,49.4,M,14.2,M,,0000*63
$GPVTG,105.6,T,,M,0.0,N,0.0,K,A*0F
$GPGLL,2233.2052,N,11413.8083,E,164323.00,A,A*68
$GPGSA,A,3,05,10,12,15,26,27,,,,,,,2.1,1.7,1.3*37
$GPRMC,164324.000,A,2233.2052,N,11413.8083,E,0.0,105.6,040191,,,A*67
$GPGGA,164324.000,2233.2052,N,11413.8083,E,1,07,1.4,49.4,M,14.2,M,,0000*66
$GPVTG,105.6,T,,M,0.0,N,0.0,K,A*0F
$GPGLL,2233.2052,N,11413.8083,E,164324.00,A,A*6F
$GPGSA,A,3,02,05,10,12,15,26,27,,,,,,1.8,1.4,1.2*3D
$GPRMC,164325.000,A,2233.2052,N,11413.8083,E,0.0,105.6,040191,,,A*66
$GPGGA,164325.000,2233.2052,N,11413.8083,E,1,07,1.4,49.4,M,14.2,M,,0000*67
$GPVTG,105.6,T,,M,0.0,N,0.0,K,A*0F
$GPGLL,2233.2052,N,11413.8083,E,164325.00,A,A*6E
$GPGSA,A,3,02,05,10,12,15,26,27,,,,,,1.8,1.4,1.2*3D
$GPRMC,164326.000,A,2233.2052,N,11413.8083,E,0.0,105.6,040191,,,A*65
$GPGGA,164326.000,2233.2052,N,11413.8083,E,1,07,1.4,49.4,M,14.2,M,,0000*64
$GPVTG,105.6,T,,M,0.0,N,0.0,K,A*0F
$GPGLL,2233.2052,N,11413.8083,E,164326.00,A,A*6D
$GPGSA,A,3,02,05,10,12,15,26,27,,,,,,1.8,1.4,1.2*3D
$GPGSV,3,1,10,10,21,050,22,05,47,011,14,02,48,094,15,27,11,173,32*78
$GPGSV,3,2,10,12,05,217,20,26,83,136,32,15,59,212,42,29,37,303,*73
$GPGSV,3,3,10,08,14,072,,04,14,115,*74
$GPRMC,164327.000,A,2233.2052,N,11413.8083,E,0.0,105.6,040191,,,A*64
$GPGGA,164327.000,2233.2052,N,11413.8083,E,1,07,1.4,49.4,M,14.2,M,,0000*65
$GPVTG,105.6,T,,M,0.0,N,0.0,K,A*0F
$GPGLL,2233.2052,N,11413.8083,E,164327.00,A,A*6C
$GPGSA,A,3,02,05,10,12,15,26,27,,,,,,1.8,1.4,1.2*3D
$GPRMC,164328.000,A,2233.2052,N,11413.8083,E,0.0,105.6,040191,,,A*6B
$GPGGA,164328.000,2233.2052,N,11413.8083,E,1,07,1.4,49.4,M,14.2,M,,0000*6A
$GPVTG,105.6,T,,M,0.0,N,0.0,K,A*0F
$GPGLL,2233.2052,N,11413.8083,E,164328.00,A,A*63
$GPGSA,A,3,02,05,10,12,15,26,27,,,,,,1.8,1.4,1.2*3D
$GPRMC,164329.000,A,2233.2052,N,11413.8083,E,0.0,105.6,040191,,,A*6A
$GPGGA,164329.000,2233.2052,N,11413.8083,E,1,07,1.4,49.4,M,14.2,M,,0000*6B
$GPVTG,105.6,T,,M,0.0,N,0.0,K,A*0F
$GPGLL,2233.2052,N,11413.8083,E,164329.00,A,A*62
$GPGSA,A,3,02,05,10,12,15,26,27,,,,,,1.8,1.4,1.2*3D
$GPRMC,164330.000,A,2233.2052,N,11413.8083,E,0.0,105.6,040191,,,A*62
$GPGGA,164330.000,2233.2052,N,11413.8083,E,1,07,1.4,49.4,M,14.2,M,,0000*63
$GPVTG,105.6,T,,M,0.0,N,0.0,K,A*0F
$GPGLL,2233.2052,N,11413.8083,E,164330.00,A,A*6A
$GPGSA,A,3,02,05,10,12,15,26,27,,,,,,1.8,1.4,1.2*3D
$GPRMC,164331.000,A,2233.2052,N,11413.8083,E,0.0,105.6,040191,,,A*63
$GPGGA,164331.000,2233.2052,N,11413.8083,E,1,07,1.4,49.4,M,14.2,M,,0000*62
$GPVTG,105.6,T,,M,0.0,N,0.0,K,A*0F
$GPGLL,2233.2052,N,11413.8083,E,164331.00,A,A*6B
$GPGSA,A,3,02,05,10,12,15,26,27,,,,,,1.8,1.4,1.2*3D
$GPGSV,3,1,10,10,20,050,22,05,47,011,12,02,48,094,15,27,11,173,32*7F
$GPGSV,3,2,10,12,05,217,17,26,83,136,32,15,59,212,42,29,37,302,*76
$GPGSV,3,3,10,08,14,072,,04,14,115,*74
$GPRMC,164332.000,A,2233.2052,N,11413.8083,E,0.0,105.6,040191,,,A*60
$GPGGA,164332.000,2233.2052,N,11413.8083,E,1,07,1.4,49.4,M,14.2,M,,0000*61
$GPVTG,105.6,T,,M,0.0,N,0.0,K,A*0F
$GPGLL,2233.2052,N,11413.8083,E,164332.00,A,A*68
$GPGSA,A,3,02,05,10,12,15,26,27,,,,,,1.8,1.4,1.2*3D
$GPRMC,164333.000,A,2233.2052,N,11413.8083,E,0.0,105.6,040191,,,A*61
$GPGGA,164333.000,2233.2052,N,11413.8083,E,1,07,1.4,49.4,M,14.2,M,,0000*60
$GPVTG,105.6,T,,M,0.0,N,0.0,K,A*0F
$GPGLL,2233.2052,N,11413.8083,E,164333.00,A,A*69
$GPGSA,A,3,02,05,10,12,15,26,27,,,,,,1.8,1.4,1.2*3D
$GPRMC,164334.000,A,2233.2052,N,11413.8083,E,0.0,105.6,040191,,,A*66
$GPGGA,164334.000,2233.2052,N,11413.8083,E,1,07,1.4,49.4,M,14.2,M,,0000*67
$GPVTG,105.6,T,,M,0.0,N,0.0,K,A*0F
$GPGLL,2233.2052,N,11413.8083,E,164334.00,A,A*6E
$GPGSA,A,3,02,05,10,12,15,26,27,,,,,,1.8,1.4,1.2*3D
$GPRMC,164335.000,A,2233.2052,N,11413.8083,E,0.0,105.6,040191,,,A*67
$GPGGA,164335.000,2233.2052,N,11413.8083,E,1,07,1.4,49.4,M,14.2,M,,0000*66
$GPVTG,105.6,T,,M,0.0,N,0.0,K,A*0F
$GPGLL,2233.2052,N,11413.8083,E,164335.00,A,A*6F
$GPGSA,A,3,02,05,10,12,15,26,27,,,,,,1.8,1.4,1.2*3D
$GPRMC,164336.000,A,2233.2052,N,11413.8083,E,0.0,105.6,040191,,,A*64
$GPGGA,164336.000,2233.2052,N,11413.8083,E,1,07,1.4,49.4,M,14.2,M,,0000*65
$GPVTG,105.6,T,,M,0.0,N,0.0,K,A*0F
$GPGLL,2233.2052,N,11413.8083,E,164336.00,A,A*6C
$GPGSA,A,3,02,05,10,12,15,26,27,,,,,,1.8,1.4,1.2*3D
$GPGSV,3,1,10,10,20,050,21,05,47,011,12,02,48,094,14,04,14,115,12*7B
$GPGSV,3,2,10,27,11,173,31,12,05,217,13,26,83,136,32,15,59,212,42*7E
$GPGSV,3,3,10,29,37,302,,08,14,072,*7E
$GPRMC,164337.000,A,2233.2052,N,11413.8083,E,0.0,105.6,040191,,,A*65
$GPGGA,164337.000,2233.2052,N,11413.8083,E,1,08,1.1,49.4,M,14.2,M,,0000*6E
$GPVTG,105.6,T,,M,0.0,N,0.0,K,A*0F
$GPGLL,2233.2052,N,11413.8083,E,164337.00,A,A*6D
$GPGSA,A,3,02,04,05,10,12,15,26,27,,,,,1.6,1.1,1.2*32
$GPRMC,164338.000,A,2233.2052,N,11413.8083,E,0.0,105.6,040191,,,A*6A
$GPGGA,164338.000,2233.2052,N,11413.8083,E,1,08,1.1,49.4,M,14.2,M,,0000*61
$GPVTG,105.6,T,,M,0.0,N,0.0,K,A*0F
$GPGLL,2233.2052,N,11413.8083,E,164338.00,A,A*62
$GPGSA,A,3,02,04,05,10,12,15,26,27,,,,,1.6,1.1,1.2*32
$GPRMC,164339.000,A,2233.2052,N,11413.8083,E,0.0,105.6,040191,,,A*6B
$GPGGA,164339.000,2233.2052,N,11413.8083,E,1,08,1.1,49.4,M,14.2,M,,0000*60
$GPVTG,105.6,T,,M,0.0,N,0.0,K,A*0F
$GPGLL,2233.2052,N,11413.8083,E,164339.00,A,A*63
$GPGSA,A,3,02,04,05,10,12,15,26,27,,,,,1.6,1.1,1.2*32
$GPRMC,164340.000,A,2233.2052,N,11413.8083,E,0.0,105.6,040191,,,A*65
$GPGGA,164340.000,2233.2052,N,11413.8083,E,1,08,1.1,49.4,M,14.2,M,,0000*6E
$GPVTG,105.6,T,,M,0.0,N,0.0,K,A*0F
$GPGLL,2233.2052,N,11413.8083,E,164340.00,A,A*6D
$GPGSA,A,3,02,04,05,10,12,15,26,27,,,,,1.6,1.1,1.2*32
$GPRMC,164341.000,A,2233.2052,N,11413.8083,E,0.0,105.6,040191,,,A*64
$GPGGA,164341.000,2233.2052,N,11413.8083,E,1,08,1.1,49.4,M,14.2,M,,0000*6F
$GPVTG,105.6,T,,M,0.0,N,0.0,K,A*0F
$GPGLL,2233.2052,N,11413.8083,E,164341.00,A,A*6C
$GPGSA,A,3,02,04,05,10,12,15,26,27,,,,,1.6,1.1,1.2*32
$GPGSV,3,1,10,10,20,050,23,05,47,011,13,02,48,095,13,04,14,115,13*7F
$GPGSV,3,2,10,27,11,173,30,12,05,217,21,26,83,135,32,15,59,212,41*7E
$GPGSV,3,3,10,29,37,302,,08,14,072,*7E
$GPRMC,164342.000,A,2233.2052,N,11413.8083,E,0.0,105.6,040191,,,A*67
$GPGGA,164342.000,2233.2052,N,11413.8083,E,1,08,1.1,49.4,M,14.2,M,,0000*6C
$GPVTG,105.6,T,,M,0.0,N,0.0,K,A*0F
$GPGLL,2233.2052,N,11413.8083,E,164342.00,A,A*6F
$GPGSA,A,3,02,04,05,10,12,15,26,27,,,,,1.6,1.1,1.2*32
$GPRMC,164343.000,A,2233.2052,N,11413.8083,E,0.0,105.6,040191,,,A*66
$GPGGA,164343.000,2233.2052,N,11413.8083,E,1,08,1.1,49.4,M,14.2,M,,0000*6D
$GPVTG,105.6,T,,M,0.0,N,0.0,K,A*0F
$GPGLL,2233.2052,N,11413.8083,E,164343.00,A,A*6E
$GPGSA,A,3,02,04,05,10,12,15,26,27,,,,,1.6,1.1,1.2*32
$GPRMC,164344.000,A,2233.2052,N,11413.8083,E,0.0,105.6,040191,,,A*61
$GPGGA,164344.000,2233.2052,N,11413.8083,E,1,08,1.1,49.4,M,14.2,M,,0000*6A
$GPVTG,105.6,T,,M,0.0,N,0.0,K,A*0F
$GPGLL,2233.2052,N,11413.8083,E,164344.00,A,A*69
$GPGSA,A,3,02,04,05,10,12,15,26,27,,,,,1.6,1.1,1.2*32
$GPRMC,164345.000,A,2233.2052,N,11413.8083,E,0.0,105.6,040191,,,A*60
$GPGGA,164345.000,2233.2052,N,11413.8083,E,1,08,1.1,49.4,M,14.2,M,,0000*6B
$GPVTG,105.6,T,,M,0.0,N,0.0,K,A*0F
$GPGLL,2233.2052,N,11413.8083,E,164345.00,A,A*68
$GPGSA,A,3,02,04,05,10,12,15,26,27,,,,,1.6,1.1,1.2*32
$GPRMC,164346.000,A,2233.2052,N,11413.8083,E,0.0,105.6,040191,,,A*63
$GPGGA,164346.000,2233.2052,N,11413.8083,E,1,08,1.1,49.4,M,14.2,M,,0000*68
$GPVTG,105.6,T,,M,0.0,N,0.0,K,A*0F
$GPGLL,2233.2052,N,11413.8083,E,164346.00,A,A*6B
$GPGSA,A,3,02,04,05,10,12,15,26,27,,,,,1.6,1.1,1.2*32
$GPGSV,3,1,10,10,20,050,24,05,47,011,15,02,48,095,12,04,14,115,12*7E
$GPGSV,3,2,10,27,11,173,31,12,05,217,22,26,83,135,32,15,59,213,42*7E
$GPGSV,3,3,10,29,37,302,20,08,14,072,*7C
$GPRMC,164347.000,A,2233.2052,N,11413.8083,E,0.0,105.6,040191,,,A*62
$GPGGA,164347.000,2233.2052,N,11413.8083,E,1,08,1.1,49.4,M,14.2,M,,0000*69
$GPVTG,105.6,T,,M,0.0,N,0.0,K,A*0F
$GPGLL,2233.2052,N,11413.8083,E,164347.00,A,A*6A
$GPGSA,A,3,02,04,05,10,12,15,26,27,,,,,1.6,1.1,1.2*32
$GPRMC,164348.000,A,2233.2052,N,11413.8083,E,0.0,105.6,040191,,,A*6D
$GPGGA,164348.000,2233.2052,N,11413.8083,E,1,08,1.1,49.4,M,14.2,M,,0000*66
$GPVTG,105.6,T,,M,0.0,N,0.0,K,A*0F
$GPGLL,2233.2052,N,11413.8083,E,164348.00,A,A*65
$GPGSA,A,3,02,04,05,10,12,15,26,27,,,,,1.6,1.1,1.2*32
$GPRMC,164349.000,A,2233.2052,N,11413.8083,E,0.0,105.6,040191,,,A*6C
$GPGGA,164349.000,2233.2052,N,11413.8083,E,1,08,1.1,49.4,M,14.2,M,,0000*67
$GPVTG,105.6,T,,M,0.0,N,0.0,K,A*0F
$GPGLL,2233.2052,N,11413.8083,E,164349.00,A,A*64
$GPGSA,A,3,02,04,05,10,12,15,26,27,,,,,1.6,1.1,1.2*32
$GPRMC,164350.000,A,2233.2052,N,11413.8083,E,0.0,105.6,040191,,,A*64
$GPGGA,164350.000,2233.2052,N,11413.8083,E,1,08,1.1,49.4,M,14.2,M,,0000*6F
$GPVTG,105.6,T,,M,0.0,N,0.0,K,A*0F
$GPGLL,2233.2052,N,11413.8083,E,164350.00,A,A*6C
$GPGSA,A,3,02,04,05,10,12,15,26,27,,,,,1.6,1.1,1.2*32
$GPRMC,164351.000,A,2233.2052,N,11413.8083,E,0.0,105.6,040191,,,A*65
$GPGGA,164351.000,2233.2052,N,11413.8083,E,1,08,1.1,49.4,M,14.2,M,,0000*6E
$GPVTG,105.6,T,,M,0.0,N,0.0,K,A*0F
$GPGLL,2233.2052,N,11413.8083,E,164351.00,A,A*6D
$GPGSA,A,3,02,04,05,10,12,15,26,27,,,,,1.6,1.1,1.2*32
$GPGSV,3,1,10,10,20,050,22,05,47,012,14,02,48,095,11,04,14,115,11*7A
$GPGSV,3,2,10,27,11,173,31,12,05,217,21,26,83,135,32,15,59,213,42*7D
$GPGSV,3,3,10,29,37,302,,08,14,072,*7E
$GPRMC,164352.000,A,2233.2052,N,11413.8083,E,0.0,105.6,040191,,,A*66
$GPGGA,164352.000,2233.2052,N,11413.8083,E,1,08,1.1,49.4,M,14.2,M,,0000*6D
$GPVTG,105.6,T,,M,0.0,N,0.0,K,A*0F
$GPGLL,2233.2052,N,11413.8083,E,164352.00,A,A*6E
$GPGSA,A,3,02,04,05,10,12,15,26,27,,,,,1.6,1.1,1.2*32
$GPRMC,164353.000,A,2233.2052,N,11413.8083,E,0.0,105.6,040191,,,A*67
$GPGGA,164353.000,2233.2052,N,11413.8083,E,1,08,1.1,49.4,M,14.2,M,,0000*6C
$GPVTG,105.6,T,,M,0.0,N,0.0,K,A*0F
$GPGLL,2233.2052,N,11413.8083,E,164353.00,A,A*6F
$GPGSA,A,3,02,04,05,10,12,15,26,27,,,,,1.6,1.1,1.2*32
$GPRMC,164354.000,A,2233.2052,N,11413.8083,E,0.0,105.6,040191,,,A*60
$GPGGA,164354.000,2233.2052,N,11413.8083,E,1,08,1.1,49.4,M,14.2,M,,0000*6B
$GPVTG,105.6,T,,M,0.0,N,0.0,K,A*0F
$GPGLL,2233.2052,N,11413.8083,E,164354.00,A,A*68
$GPGSA,A,3,02,04,05,10,12,15,26,27,,,,,1.6,1.1,1.2*32
$GPRMC,164355.000,A,2233.2052,N,11413.8083,E,0.0,105.6,040191,,,A*61
$GPGGA,164355.000,2233.2052,N,11413.8083,E,1,07,1.4,49.4,M,14.2,M,,0000*60
$GPVTG,105.6,T,,M,0.0,N,0.0,K,A*0F
$GPGLL,2233.2052,N,11413.8083,E,164355.00,A,A*69
$GPGSA,A,3,02,05,10,12,15,26,27,,,,,,1.8,1.4,1.2*3D
$GPRMC,164356.000,A,2233.2052,N,11413.8083,E,0.0,105.6,040191,,,A*62
$GPGGA,164356.000,2233.2052,N,11413.8083,E,1,07,1.4,49.4,M,14.2,M,,0000*63
$GPVTG,105.6,T,,M,0.0,N,0.0,K,A*0F
$GPGLL,2233.2052,N,11413.8083,E,164356.00,A,A*6A
$GPGSA,A,3,02,05,10,12,15,26,27,,,,,,1.8,1.4,1.2*3D
$GPGSV,3,1,10,10,20,050,23,05,47,012,13,02,48,095,11,04,14,115,11*7C
$GPGSV,3,2,10,27,11,173,32,12,05,217,25,26,83,134,32,15,59,213,41*78
$GPGSV,3,3,10,29,37,302,,08,14,072,*7E
$GPRMC,164357.000,A,2233.2052,N,11413.8083,E,0.0,105.6,040191,,,A*63
$GPGGA,164357.000,2233.2052,N,11413.8083,E,1,07,1.4,49.4,M,14.2,M,,0000*62
$GPVTG,105.6,T,,M,0.0,N,0.0,K,A*0F
$GPGLL,2233.2052,N,11413.8083,E,164357.00,A,A*6B
$GPGSA,A,3,02,05,10,12,15,26,27,,,,,,1.8,1.4,1.2*3D
$GPRMC,164358.000,A,2233.2052,N,11413.8083,E,0.0,105.6,040191,,,A*6C
$GPGGA,164358.000,2233.2052,N,11413.8083,E,1,07,1.4,49.4,M,14.2,M,,0000*6D
$GPVTG,105.6,T,,M,0.0,N,0.0,K,A*0F
$GPGLL,2233.2052,N,11413.8083,E,164358.00,A,A*64
$GPGSA,A,3,02,05,10,12,15,26,27,,,,,,1.8,1.4,1.2*3D
$GPRMC,164359.000,A,2233.2052,N,11413.8083,E,0.0,105.6,040191,,,A*6D
$GPGGA,164359.000,2233.2052,N,11413.8083,E,1,07,1.4,49.4,M,14.2,M,,0000*6C
$GPVTG,105.6,T,,M,0.0,N,0.0,K,A*0F
$GPGLL,2233.2052,N,11413.8083,E,164359.00,A,A*65
$GPGSA,A,3,02,05,10,12,15,26,27,,,,,,1.8,1.4,1.2*3D
$GPRMC,164400.000,A,2233.2052,N,11413.8083,E,0.0,105.6,040191,,,A*66
$GPGGA,164400.000,2233.2052,N,11413.8083,E,1,07,1.4,49.4,M,14.2,M,,0000*67
$GPVTG,105.6,T,,M,0.0,N,0.0,K,A*0F
$GPGLL,2233.2052,N,11413.8083,E,164400.00,A,A*6E
$GPGSA,A,3,02,05,10,12,15,26,27,,,,,,1.8,1.4,1.2*3D
$GPRMC,164401.000,A,2233.2052,N,11413.8083,E,0.0,105.6,040191,,,A*67
$GPGGA,164401.000,2233.2052,N,11413.8083,E,1,07,1.4,49.4,M,14.2,M,,0000*66
$GPVTG,105.6,T,,M,0.0,N,0.0,K,A*0F
$GPGLL,2233.2052,N,11413.8083,E,164401.00,A,A*6F
$GPGSA,A,3,02,05,10,12,15,26,27,,,,,,1.8,1.4,1.2*3D
$GPGSV,3,1,10,10,20,050,25,02,48,095,11,27,12,173,33,12,05,217,28*72
$GPGSV,3,2,10,26,83,134,30,15,59,213,41,05,47,012,,29,37,302,*75
$GPGSV,3,3,10,08,14,072,,04,14,115,*74
$GPRMC,164402.000,A,2233.2052,N,11413.8083,E,0.0,105.6,040191,,,A*64
$GPGGA,164402.000,2233.2052,N,11413.8083,E,1,06,1.7,49.4,M,14.2,M,,0000*67
$GPVTG,105.6,T,,M,0.0,N,0.0,K,A*0F
$GPGLL,2233.2052,N,11413.8083,E,164402.00,A,A*6C
$GPGSA,A,3,02,10,12,15,26,27,,,,,,,2.1,1.7,1.2*31
$GPRMC,164403.000,A,2233.2052,N,11413.8083,E,0.0,105.6,040191,,,A*65
$GPGGA,164403.000,2233.2052,N,11413.8083,E,1,06,1.7,49.4,M,14.2,M,,0000*66
$GPVTG,105.6,T,,M,0.0,N,0.0,K,A*0F
$GPGLL,2233.2052,N,11413.8083,E,164403.00,A,A*6D
$GPGSA,A,3,02,10,12,15,26,27,,,,,,,2.1,1.7,1.2*31
$GPRMC,164404.000,A,2233.2052,N,11413.8083,E,0.0,105.6,040191,,,A*62
$GPGGA,164404.000,2233.2052,N,11413.8083,E,1,06,1.7,49.4,M,14.2,M,,0000*61
$GPVTG,105.6,T,,M,0.0,N,0.0,K,A*0F
$GPGLL,2233.2052,N,11413.8083,E,164404.00,A,A*6A
$GPGSA,A,3,02,10,12,15,26,27,,,,,,,2.1,1.7,1.2*31
$GPRMC,164405.000,A,2233.2052,N,11413.8083,E,0.0,105.6,040191,,,A*63
$GPGGA,164405.000,2233.2052,N,11413.8083,E,1,06,1.7,49.4,M,14.2,M,,0000*60
$GPVTG,105.6,T,,M,0.0,N,0.0,K,A*0F
$GPGLL,2233.2052,N,11413.8083,E,164405.00,A,A*6B
$GPGSA,A,3,02,10,12,15,26,27,,,,,,,2.1,1.7,1.2*31
$GPRMC,164406.000,A,2233.2052,N,11413.8083,E,0.0,105.6,040191,,,A*60
$GPGGA,164406.000,2233.2052,N,11413.8083,E,1,06,1.7,49.4,M,14.2,M,,0000*63
$GPVTG,105.6,T,,M,0.0,N,0.0,K,A*0F
$GPGLL,2233.2052,N,11413.8083,E,164406.00,A,A*68
$GPGSA,A,3,02,10,12,15,26,27,,,,,,,2.1,1.7,1.2*31
$GPGSV,3,1,10,10,20,050,25,02,48,095,12,27,12,173,32,12,05,217,23*7B
$GPGSV,3,2,10,26,83,134,31,15,59,213,41,05,47,012,,29,37,302,*74
$GPGSV,3,3,10,08,14,072,,04,14,115,*74
$GPRMC,164407.000,A,2233.2052,N,11413.8083,E,0.0,105.6,040191,,,A*61
$GPGGA,164407.000,2233.2052,N,11413.8083,E,1,06,1.7,49.4,M,14.2,M,,0000*62
$GPVTG,105.6,T,,M,0.0,N,0.0,K,A*0F
$GPGLL,2233.2052,N,11413.8083,E,164407.00,A,A*69
$GPGSA,A,3,02,10,12,15,26,27,,,,,,,2.1,1.7,1.2*31
$GPRMC,164408.000,A,2233.2052,N,11413.8083,E,0.0,105.6,040191,,,A*6E
$GPGGA,164408.000,2233.2052,N,11413.8083,E,1,07,1.4,49.4,M,14.2,M,,0000*6F
$GPVTG,105.6,T,,M,0.0,N,0.0,K,A*0F
$GPGLL,2233.2052,N,11413.8083,E,164408.00,A,A*66
$GPGSA,A,3,02,05,10,12,15,26,27,,,,,,1.8,1.4,1.2*3D
$GPRMC,164409.000,A,2233.2052,N,11413.8083,E,0.0,105.6,040191,,,A*6F
$GPGGA,164409.000,2233.2052,N,11413.8083,E,1,07,1.4,49.4,M,14.2,M,,0000*6E
$GPVTG,105.6,T,,M,0.0,N,0.0,K,A*0F
$GPGLL,2233.2052,N,11413.8083,E,164409.00,A,A*67
$GPGSA,A,3,02,05,10,12,15,26,27,,,,,,1.8,1.4,1.2*3D
$GPRMC,164410.000,A,2233.2052,N,11413.8083,E,0.0,105.6,040191,,,A*67
$GPGGA,164410.000,2233.2052,N,11413.8083,E,1,07,1.4,49.4,M,14.2,M,,0000*66
$GPVTG,105.6,T,,M,0.0,N,0.0,K,A*0F
$GPGLL,2233.2052,N,11413.8083,E,164410.00,A,A*6F
$GPGSA,A,3,02,05,10,12,15,26,27,,,,,,1.8,1.4,1.2*3D
$GPRMC,164411.000,A,2233.2052,N,11413.8083,E,0.0,105.6,040191,,,A*66
$GPGGA,164411.000,2233.2052,N,11413.8083,E,1,07,1.4,49.4,M,14.2,M,,0000*67
$GPVTG,105.6,T,,M,0.0,N,0.0,K,A*0F
$GPGLL,2233.2052,N,11413.8083,E,164411.00,A,A*6E
$GPGSA,A,3,02,05,10,12,15,26,27,,,,,,1.8,1.4,1.2*3D
$GPGSV,3,1,10,10,20,050,25,05,47,012,17,02,48,095,15,27,12,173,32*7C
$GPGSV,3,2,10,12,05,217,23,26,83,133,31,15,59,213,41,29,38,302,*7A
$GPGSV,3,3,10,08,14,072,,04,14,115,*74
$GPRMC,164412.000,A,2233.2052,N,11413.8083,E,0.0,105.6,040191,,,A*65
$GPGGA,164412.000,2233.2052,N,11413.8083,E,1,07,1.4,49.4,M,14.2,M,,0000*64
$GPVTG,105.6,T,,M,0.0,N,0.0,K,A*0F
$GPGLL,2233.2052,N,11413.8083,E,164412.00,A,A*6D
$GPGSA,A,3,02,05,10,12,15,26,27,,,,,,1.8,1.4,1.2*3D
$GPRMC,164413.000,A,2233.2052,N,11413.8083,E,0.0,105.6,040191,,,A*64
$GPGGA,164413.000,2233.2052,N,11413.8083,E,1,06,1.8,49.4,M,14.2,M,,0000*68
$GPVTG,105.6,T,,M,0.0,N,0.0,K,A*0F
$GPGLL,2233.2052,N,11413.8083,E,164413.00,A,A*6C
$GPGSA,A,3,02,05,10,15,26,27,,,,,,,2.5,1.8,1.7*39
$GPRMC,164414.000,A,2233.2052,N,11413.8083,E,0.0,105.6,040191,,,A*63
$GPGGA,164414.000,2233.2052,N,11413.8083,E,1,06,1.8,49.4,M,14.2,M,,0000*6F
$GPVTG,105.6,T,,M,0.0,N,0.0,K,A*0F
$GPGLL,2233.2052,N,11413.8083,E,164414.00,A,A*6B
$GPGSA,A,3,02,05,10,15,26,27,,,,,,,2.5,1.8,1.7*39
$GPRMC,164415.000,A,2233.2052,N,11413.8083,E,0.0,105.6,040191,,,A*62
$GPGGA,164415.000,2233.2052,N,11413.8083,E,1,06,1.8,49.4,M,14.2,M,,0000*6E
$GPVTG,105.6,T,,M,0.0,N,0.0,K,A*0F
$GPGLL,2233.2052,N,11413.8083,E,164415.00,A,A*6A
$GPGSA,A,3,02,05,10,15,26,27,,,,,,,2.5,1.8,1.7*39
$GPRMC,164416.000,A,2233.2052,N,11413.8083,E,0.0,105.6,040191,,,A*61
$GPGGA,164416.000,2233.2052,N,11413.8083,E,1,06,1.8,49.4,M,14.2,M,,0000*6D
$GPVTG,105.6,T,,M,0.0,N,0.0,K,A*0F
$GPGLL,2233.2052,N,11413.8083,E,164416.00,A,A*69
$GPGSA,A,3,02,05,10,15,26,27,,,,,,,2.5,1.8,1.7*39
$GPGSV,3,1,10,10,20,050,24,05,47,012,17,02,48,095,19,27,12,173,32*71
$GPGSV,3,2,10,12,04,217,20,26,83,133,31,15,59,213,41,29,38,302,*78
$GPGSV,3,3,10,08,14,072,,04,14,115,*74
$GPRMC,164417.000,A,2233.2052,N,11413.8083,E,0.0,105.6,040191,,,A*60
$GPGGA,164417.000,2233.2052,N,11413.8083,E,1,06,1.8,49.4,M,14.2,M,,0000*6C
$GPVTG,105.6,T,,M,0.0,N,0.0,K,A*0F
$GPGLL,2233.2052,N,11413.8083,E,164417.00,A,A*68
$GPGSA,A,3,02,05,10,15,26,27,,,,,,,2.5,1.8,1.7*39
$GPRMC,164418.000,A,2233.2052,N,11413.8083,E,0.0,105.6,040191,,,A*6F
$GPGGA,164418.000,2233.2052,N,11413.8083,E,1,06,1.8,49.4,M,14.2,M,,0000*63
$GPVTG,105.6,T,,M,0.0,N,0.0,K,A*0F
$GPGLL,2233.2052,N,11413.8083,E,164418.00,A,A*67
$GPGSA,A,3,02,05,10,15,26,27,,,,,,,2.5,1.8,1.7*39
$GPRMC,164419.000,A,2233.2052,N,11413.8083,E,0.0,105.6,040191,,,A*6E
$GPGGA,164419.000,2233.2052,N,11413.8083,E,1,06,1.8,49.4,M,14.2,M,,0000*62
$GPVTG,105.6,T,,M,0.0,N,0.0,K,A*0F
$GPGLL,2233.2052,N,11413.8083,E,164419.00,A,A*66
$GPGSA,A,3,02,05,10,15,26,27,,,,,,,2.5,1.8,1.7*39
$GPRMC,164420.000,A,2233.2052,N,11413.8083,E,0.0,105.6,040191,,,A*64
$GPGGA,164420.000,2233.2052,N,11413.8083,E,1,06,1.8,49.4,M,14.2,M,,0000*68
$GPVTG,105.6,T,,M,0.0,N,0.0,K,A*0F
$GPGLL,2233.2052,N,11413.8083,E,164420.00,A,A*6C
$GPGSA,A,3,02,05,10,15,26,27,,,,,,,2.5,1.8,1.7*39
$GPRMC,164421.000,A,2233.2052,N,11413.8083,E,0.0,105.6,040191,,,A*65
$GPGGA,164421.000,2233.2052,N,11413.8083,E,1,06,1.8,49.4,M,14.2,M,,0000*69
$GPVTG,105.6,T,,M,0.0,N,0.0,K,A*0F
$GPGLL,2233.2052,N,11413.8083,E,164421.00,A,A*6D
$GPGSA,A,3,02,05,10,15,26,27,,,,,,,2.5,1.8,1.7*39
$GPGSV,3,1,10,10,20,050,23,05,47,012,17,02,48,095,18,27,12,173,32*77
$GPGSV,3,2,10,12,04,217,15,26,83,133,31,15,59,213,41,29,38,302,*7E
$GPGSV,3,3,10,08,14,072,,04,14,115,*74
$GPRMC,164422.000,A,2233.2052,N,11413.8083,E,0.0,105.6,040191,,,A*66
$GPGGA,164422.000,2233.2052,N,11413.8083,E,1,06,1.8,49.4,M,14.2,M,,0000*6A
$GPVTG,105.6,T,,M,0.0,N,0.0,K,A*0F
$GPGLL,2233.2052,N,11413.8083,E,164422.00,A,A*6E
$GPGSA,A,3,02,05,10,15,26,27,,,,,,,2.5,1.8,1.7*39
$GPRMC,164423.000,A,2233.2052,N,11413.8083,E,0.0,105.6,040191,,,A*67
$GPGGA,164423.000,2233.2052,N,11413.8083,E,1,06,1.8,49.4,M,14.2,M,,0000*6B
$GPVTG,105.6,T,,M,0.0,N,0.0,K,A*0F
$GPGLL,2233.2052,N,11413.8083,E,164423.00,A,A*6F
$GPGSA,A,3,02,05,10,15,26,27,,,,,,,2.5,1.8,1.7*39
$GPRMC,164424.000,A,2233.2052,N,11413.8083,E,0.0,105.6,040191,,,A*60
$GPGGA,164424.000,2233.2052,N,11413.8083,E,1,06,1.8,49.4,M,14.2,M,,0000*6C
$GPVTG,105.6,T,,M,0.0,N,0.0,K,A*0F
$GPGLL,2233.2052,N,11413.8083,E,164424.00,A,A*68
$GPGSA,A,3,02,05,10,15,26,27,,,,,,,2.5,1.8,1.7*39
$GPRMC,164425.000,A,2233.2052,N,11413.8083,E,0.0,105.6,040191,,,A*61
$GPGGA,164425.000,2233.2052,N,11413.8083,E,1,06,1.8,49.4,M,14.2,M,,0000*6D
$GPVTG,105.6,T,,M,0.0,N,0.0,K,A*0F
$GPGLL,2233.2052,N,11413.8083,E,164425.00,A,A*69
$GPGSA,A,3,02,05,10,15,26,27,,,,,,,2.5,1.8,1.7*39
$GPRMC,164426.000,A,2233.2052,N,11413.8083,E,0.0,105.6,040191,,,A*62
$GPGGA,164426.000,2233.2052,N,11413.8083,E,1,06,1.8,49.4,M,14.2,M,,0000*6E
$GPVTG,105.6,T,,M,0.0,N,0.0,K,A*0F
$GPGLL,2233.2052,N,11413.8083,E,164426.00,A,A*6A
$GPGSA,A,3,02,05,10,15,26,27,,,,,,,2.5,1.8,1.7*39
$GPGSV,3,1,10,10,20,051,25,05,47,012,16,02,48,095,15,27,12,173,33*7D
$GPGSV,3,2,10,12,04,217,19,26,83,132,31,15,60,213,41,29,38,302,*79
$GPGSV,3,3,10,08,14,072,,04,14,115,*74
$GPRMC,164427.000,A,2233.2052,N,11413.8083,E,0.0,105.6,040191,,,A*63
$GPGGA,164427.000,2233.2052,N,11413.8083,E,1,06,1.8,49.4,M,14.2,M,,0000*6F
$GPVTG,105.6,T,,M,0.0,N,0.0,K,A*0F
$GPGLL,2233.2052,N,11413.8083,E,164427.00,A,A*6B
$GPGSA,A,3,02,05,10,15,26,27,,,,,,,2.5,1.8,1.7*39
$GPRMC,164428.000,A,2233.2052,N,11413.8083,E,0.0,105.6,040191,,,A*6C
$GPGGA,164428.000,2233.2052,N,11413.8083,E,1,06,1.8,49.4,M,14.2,M,,0000*60
$GPVTG,105.6,T,,M,0.0,N,0.0,K,A*0F
$GPGLL,2233.2052,N,11413.8083,E,164428.00,A,A*64
$GPGSA,A,3,02,05,10,15,26,27,,,,,,,2.5,1.8,1.7*39
$GPRMC,164429.000,A,2233.2052,N,11413.8083,E,0.0,105.6,040191,,,A*6D
$GPGGA,164429.000,2233.2052,N,11413.8083,E,1,06,1.8,49.4,M,14.2,M,,0000*61
$GPVTG,105.6,T,,M,0.0,N,0.0,K,A*0F
$GPGLL,2233.2052,N,11413.8083,E,164429.00,A,A*65
$GPGSA,A,3,02,05,10,15,26,27,,,,,,,2.5,1.8,1.7*39
$GPRMC,164430.000,A,2233.2052,N,11413.8083,E,0.0,105.6,040191,,,A*65
$GPGGA,164430.000,2233.2052,N,11413.8083,E,1,06,1.8,49.4,M,14.2,M,,0000*69
$GPVTG,105.6,T,,M,0.0,N,0.0,K,A*0F
$GPGLL,2233.2052,N,11413.8083,E,164430.00,A,A*6D
$GPGSA,A,3,02,05,10,15,26,27,,,,,,,2.5,1.8,1.7*39
$GPRMC,164431.000,A,2233.2052,N,11413.8083,E,0.0,105.6,040191,,,A*64
$GPGGA,164431.000,2233.2052,N,11413.8083,E,1,06,1.8,49.4,M,14.2,M,,0000*68
$GPVTG,105.6,T,,M,0.0,N,0.0,K,A*0F
$GPGLL,2233.2052,N,11413.8083,E,164431.00,A,A*6C
$GPGSA,A,3,02,05,10,15,26,27,,,,,,,2.5,1.8,1.7*39
$GPGSV,3,1,10,10,20,051,25,05,47,012,15,02,48,095,18,27,12,173,33*73
$GPGSV,3,2,10,26,83,132,30,15,60,213,40,29,38,302,,08,14,072,*7A
$GPGSV,3,3,10,04,14,115,,12,04,217,*7F
$GPRMC,164432.000,A,2233.2052,N,11413.8083,E,0.0,105.6,040191,,,A*67
$GPGGA,164432.000,2233.2052,N,11413.8083,E,1,06,1.8,49.4,M,14.2,M,,0000*6B
$GPVTG,105.6,T,,M,0.0,N,0.0,K,A*0F
$GPGLL,2233.2052,N,11413.8083,E,164432.00,A,A*6F
$GPGSA,A,3,02,05,10,15,26,27,,,,,,,2.5,1.8,1.7*39
$GPRMC,164433.000,A,2233.2052,N,11413.8083,E,0.0,105.6,040191,,,A*66
$GPGGA,164433.000,2233.2052,N,11413.8083,E,1,06,1.8,49.4,M,14.2,M,,0000*6A
$GPVTG,105.6,T,,M,0.0,N,0.0,K,A*0F
$GPGLL,2233.2052,N,11413.8083,E,164433.00,A,A*6E
$GPGSA,A,3,02,05,10,15,26,27,,,,,,,2.5,1.8,1.7*39
$GPRMC,164434.000,A,2233.2052,N,11413.8083,E,0.0,105.6,040191,,,A*61
$GPGGA,164434.000,2233.2052,N,11413.8083,E,1,06,1.8,49.4,M,14.2,M,,0000*6D
$GPVTG,105.6,T,,M,0.0,N,0.0,K,A*0F
$GPGLL,2233.2052,N,11413.8083,E,164434.00,A,A*69
$GPGSA,A,3,02,05,10,15,26,27,,,,,,,2.5,1.8,1.7*39
$GPRMC,164435.000,A,2233.2052,N,11413.8083,E,0.0,105.6,040191,,,A*60
$GPGGA,164435.000,2233.2052,N,11413.8083,E,1,06,1.8,49.4,M,14.2,M,,0000*6C
$GPVTG,105.6,T,,M,0.0,N,0.0,K,A*0F
$GPGLL,2233.2052,N,11413.8083,E,164435.00,A,A*68
$GPGSA,A,3,02,05,10,15,26,27,,,,,,,2.5,1.8,1.7*39
$GPRMC,164436.000,A,2233.2052,N,11413.8083,E,0.0,105.6,040191,,,A*63
$GPGGA,164436.000,2233.2052,N,11413.8083,E,1,06,1.8,49.4,M,14.2,M,,0000*6F
$GPVTG,105.6,T,,M,0.0,N,0.0,K,A*0F
$GPGLL,2233.2052,N,11413.8083,E,164436.00,A,A*6B
$GPGSA,A,3,02,05,10,15,26,27,,,,,,,2.5,1.8,1.7*39
$GPGSV,3,1,10,10,20,051,24,05,47,012,15,02,48,095,20,27,12,173,33*79
$GPGSV,3,2,10,12,04,217,13,26,83,132,29,15,60,213,41,29,38,302,18*73
$GPGSV,3,3,10,08,14,072,,04,14,115,*74
$GPRMC,164437.000,A,2233.2052,N,11413.8083,E,0.0,105.6,040191,,,A*62
$GPGGA,164437.000,2233.2052,N,11413.8083,E,1,06,1.8,49.4,M,14.2,M,,0000*6E
$GPVTG,105.6,T,,M,0.0,N,0.0,K,A*0F
$GPGLL,2233.2052,N,11413.8083,E,164437.00,A,A*6A
$GPGSA,A,3,02,05,10,15,26,27,,,,,,,2.5,1.8,1.7*39
$GPRMC,164438.000,A,2233.2052,N,11413.8083,E,0.0,105.6,040191,,,A*6D
$GPGGA,164438.000,2233.2052,N,11413.8083,E,1,07,1.5,49.4,M,14.2,M,,0000*6D
$GPVTG,105.6,T,,M,0.0,N,0.0,K,A*0F
$GPGLL,2233.2052,N,11413.8083,E,164438.00,A,A*65
$GPGSA,A,3,02,04,05,10,15,26,27,,,,,,2.3,1.5,1.7*36
$GPRMC,164439.000,A,2233.2052,N,11413.8083,E,0.0,105.6,040191,,,A*6C
$GPGGA,164439.000,2233.2052,N,11413.8083,E,1,06,1.8,49.4,M,14.2,M,,0000*60
$GPVTG,105.6,T,,M,0.0,N,0.0,K,A*0F
$GPGLL,2233.2052,N,11413.8083,E,164439.00,A,A*64
$GPGSA,A,3,02,05,10,15,26,27,,,,,,,2.5,1.8,1.7*39
$GPRMC,164440.000,A,2233.2052,N,11413.8083,E,0.0,105.6,040191,,,A*62
$GPGGA,164440.000,2233.2052,N,11413.8083,E,1,07,1.5,49.4,M,14.2,M,,0000*62
$GPVTG,105.6,T,,M,0.0,N,0.0,K,A*0F
$GPGLL,2233.2052,N,11413.8083,E,164440.00,A,A*6A
$GPGSA,A,3,02,04,05,10,15,26,27,,,,,,2.3,1.5,1.7*36
$GPRMC,164441.000,A,2233.2052,N,11413.8083,E,0.0,105.6,040191,,,A*63
$GPGGA,164441.000,2233.2052,N,11413.8083,E,1,07,1.5,49.4,M,14.2,M,,0000*63
$GPVTG,105.6,T,,M,0.0,N,0.0,K,A*0F
$GPGLL,2233.2052,N,11413.8083,E,164441.00,A,A*6B
$GPGSA,A,3,02,04,05,10,15,26,27,,,,,,2.3,1.5,1.7*36
$GPGSV,3,1,10,10,20,051,23,05,47,012,16,02,48,095,18,04,14,115,12*72
$GPGSV,3,2,10,27,12,173,33,12,04,217,15,26,83,131,29,15,60,213,41*7D
$GPGSV,3,3,10,29,38,302,18,08,14,072,*78
$GPRMC,164442.000,A,2233.2052,N,11413.8083,E,0.0,105.6,040191,,,A*60
$GPGGA,164442.000,2233.2052,N,11413.8083,E,1,06,1.8,49.4,M,14.2,M,,0000*6C
$GPVTG,105.6,T,,M,0.0,N,0.0,K,A*0F
$GPGLL,2233.2052,N,11413.8083,E,164442.00,A,A*68
$GPGSA,A,3,02,05,10,15,26,27,,,,,,,2.5,1.8,1.7*39
$GPRMC,164443.000,A,2233.2052,N,11413.8083,E,0.0,105.6,040191,,,A*61
$GPGGA,164443.000,2233.2052,N,11413.8083,E,1,06,1.8,49.4,M,14.2,M,,0000*6D
$GPVTG,105.6,T,,M,0.0,N,0.0,K,A*0F
$GPGLL,2233.2052,N,11413.8083,E,164443.00,A,A*69
$GPGSA,A,3,02,05,10,15,26,27,,,,,,,2.5,1.8,1.7*39
$GPRMC,164444.000,A,2233.2052,N,11413.8083,E,0.0,105.6,040191,,,A*66
$GPGGA,164444.000,2233.2052,N,11413.8083,E,1,06,1.8,49.4,M,14.2,M,,0000*6A
$GPVTG,105.6,T,,M,0.0,N,0.0,K,A*0F
$GPGLL,2233.2052,N,11413.8083,E,164444.00,A,A*6E
$GPGSA,A,3,02,05,10,15,26,27,,,,,,,2.5,1.8,1.7*39
$GPRMC,164445.000,A,2233.2052,N,11413.8083,E,0.0,105.6,040191,,,A*67
$GPGGA,164445.000,2233.2052,N,11413.8083,E,1,06,1.8,49.4,M,14.2,M,,0000*6B
$GPVTG,105.6,T,,M,0.0,N,0.0,K,A*0F
$GPGLL,2233.2052,N,11413.8083,E,164445.00,A,A*6F
$GPGSA,A,3,02,05,10,15,26,27,,,,,,,2.5,1.8,1.7*39
$GPRMC,164446.000,A,2233.2052,N,11413.8083,E,0.0,105.6,040191,,,A*64
$GPGGA,164446.000,2233.2052,N,11413.8083,E,1,06,1.8,49.4,M,14.2,M,,0000*68
$GPVTG,105.6,T,,M,0.0,N,0.0,K,A*0F
$GPGLL,2233.2052,N,11413.8083,E,164446.00,A,A*6C
$GPGSA,A,3,02,05,10,15,26,27,,,,,,,2.5,1.8,1.7*39
$GPGSV,3,1,10,10,20,051,23,05,47,012,18,02,48,095,15,27,12,173,32*74
$GPGSV,3,2,10,12,04,217,,26,83,131,30,15,60,213,41,29,38,302,*73
$GPGSV,3,3,10,08,14,072,,04,14,115,*74
$GPRMC,164447.000,A,2233.2052,N,11413.8083,E,0.0,105.6,040191,,,A*65
$GPGGA,164447.000,2233.2052,N,11413.8083,E,1,06,1.8,49.4,M,14.2,M,,0000*69
$GPVTG,105.6,T,,M,0.0,N,0.0,K,A*0F
$GPGLL,2233.2052,N,11413.8083,E,164447.00,A,A*6D
$GPGSA,A,3,02,05,10,15,26,27,,,,,,,2.5,1.8,1.7*39
$GPRMC,164448.000,A,2233.2052,N,11413.8083,E,0.0,105.6,040191,,,A*6A
$GPGGA,164448.000,2233.2052,N,11413.8083,E,1,06,1.8,49.4,M,14.2,M,,0000*66
$GPVTG,105.6,T,,M,0.0,N,0.0,K,A*0F
$GPGLL,2233.2052,N,11413.8083,E,164448.00,A,A*62
$GPGSA,A,3,02,05,10,15,26,27,,,,,,,2.5,1.8,1.7*39
$GPRMC,164449.000,A,2233.2052,N,11413.8083,E,0.0,105.6,040191,,,A*6B
$GPGGA,164449.000,2233.2052,N,11413.8083,E,1,06,1.8,49.4,M,14.2,M,,0000*67
$GPVTG,105.6,T,,M,0.0,N,0.0,K,A*0F
$GPGLL,2233.2052,N,11413.8083,E,164449.00,A,A*63
$GPGSA,A,3,02,05,10,15,26,27,,,,,,,2.5,1.8,1.7*39
$GPRMC,164450.000,A,2233.2052,N,11413.8083,E,0.0,105.6,040191,,,A*63
$GPGGA,164450.000,2233.2052,N,11413.8083,E,1,06,1.8,49.4,M,14.2,M,,0000*6F
$GPVTG,105.6,T,,M,0.0,N,0.0,K,A*0F
$GPGLL,2233.2052,N,11413.8083,E,164450.00,A,A*6B
$GPGSA,A,3,02,05,10,15,26,27,,,,,,,2.5,1.8,1.7*39
$GPRMC,164451.000,A,2233.2052,N,11413.8083,E,0.0,105.6,040191,,,A*62
$GPGGA,164451.000,2233.2052,N,11413.8083,E,1,06,1.8,49.4,M,14.2,M,,0000*6E
$GPVTG,105.6,T,,M,0.0,N,0.0,K,A*0F
$GPGLL,2233.2052,N,11413.8083,E,164451.00,A,A*6A
$GPGSA,A,3,02,05,10,15,26,27,,,,,,,2.5,1.8,1.7*39
$GPGSV,3,1,10,10,20,051,23,05,47,012,20,02,48,095,16,27,12,173,32*7C
$GPGSV,3,2,10,12,04,217,,26,83,130,31,15,60,213,41,29,38,302,*73
$GPGSV,3,3,10,08,14,072,,04,14,115,*74
$GPRMC,164452.000,A,2233.2052,N,11413.8083,E,0.0,105.6,040191,,,A*61
$GPGGA,164452.000,2233.2052,N,11413.8083,E,1,06,1.8,49.4,M,14.2,M,,0000*6D
$GPVTG,105.6,T,,M,0.0,N,0.0,K,A*0F
$GPGLL,2233.2052,N,11413.8083,E,164452.00,A,A*69
$GPGSA,A,3,02,05,10,15,26,27,,,,,,,2.5,1.8,1.7*39
$GPRMC,164453.000,A,2233.2052,N,11413.8083,E,0.0,105.6,040191,,,A*60
$GPGGA,164453.000,2233.2052,N,11413.8083,E,1,05,3.2,49.4,M,14.2,M,,0000*67
$GPVTG,105.6,T,,M,0.0,N,0.0,K,A*0F
$GPGLL,2233.2052,N,11413.8083,E,164453.00,A,A*68
$GPGSA,A,3,05,10,15,26,27,,,,,,,,4.2,3.2,2.7*31
$GPRMC,164454.000,A,2233.2052,N,11413.8083,E,0.0,105.6,040191,,,A*67
$GPGGA,164454.000,2233.2052,N,11413.8083,E,1,05,3.2,49.4,M,14.2,M,,0000*60
$GPVTG,105.6,T,,M,0.0,N,0.0,K,A*0F
$GPGLL,2233.2052,N,11413.8083,E,164454.00,A,A*6F
$GPGSA,A,3,05,10,15,26,27,,,,,,,,4.2,3.2,2.7*31
$GPRMC,164455.000,A,2233.2052,N,11413.8083,E,0.0,105.6,040191,,,A*66
$GPGGA,164455.000,2233.2052,N,11413.8083,E,1,05,3.2,49.4,M,14.2,M,,0000*61
$GPVTG,105.6,T,,M,0.0,N,0.0,K,A*0F
$GPGLL,2233.2052,N,11413.8083,E,164455.00,A,A*6E
$GPGSA,A,3,05,10,15,26,27,,,,,,,,4.2,3.2,2.7*31
$GPRMC,164456.000,A,2233.2052,N,11413.8083,E,0.0,105.6,040191,,,A*65
$GPGGA,164456.000,2233.2052,N,11413.8083,E,1,05,3.2,49.4,M,14.2,M,,0000*62
$GPVTG,105.6,T,,M,0.0,N,0.0,K,A*0F
$GPGLL,2233.2052,N,11413.8083,E,164456.00,A,A*6D
$GPGSA,A,3,05,10,15,26,27,,,,,,,,4.2,3.2,2.7*31
$GPGSV,3,1,10,10,20,051,22,05,47,012,19,27,12,173,32,12,04,217,18*78
$GPGSV,3,2,10,26,83,130,30,15,60,213,41,02,48,095,,29,38,302,*73
$GPGSV,3,3,10,08,14,071,,04,14,115,*77
$GPRMC,164457.000,A,2233.2052,N,11413.8083,E,0.0,105.6,040191,,,A*64
$GPGGA,164457.000,2233.2052,N,11413.8083,E,1,05,3.2,49.4,M,14.2,M,,0000*63
$GPVTG,105.6,T,,M,0.0,N,0.0,K,A*0F
$GPGLL,2233.2052,N,11413.8083,E,164457.00,A,A*6C
$GPGSA,A,3,05,10,15,26,27,,,,,,,,4.2,3.2,2.7*31
$GPRMC,164458.000,A,2233.2052,N,11413.8083,E,0.0,105.6,040191,,,A*6B
$GPGGA,164458.000,2233.2052,N,11413.8083,E,1,05,3.2,49.4,M,14.2,M,,0000*6C
$GPVTG,105.6,T,,M,0.0,N,0.0,K,A*0F
$GPGLL,2233.2052,N,11413.8083,E,164458.00,A,A*63
$GPGSA,A,3,05,10,15,26,27,,,,,,,,4.2,3.2,2.7*31
$GPRMC,164459.000,A,2233.2052,N,11413.8083,E,0.0,105.6,040191,,,A*6A
$GPGGA,164459.000,2233.2052,N,11413.8083,E,1,05,3.2,49.4,M,14.2,M,,0000*6D
$GPVTG,105.6,T,,M,0.0,N,0.0,K,A*0F
$GPGLL,2233.2052,N,11413.8083,E,164459.00,A,A*62
$GPGSA,A,3,05,10,15,26,27,,,,,,,,4.2,3.2,2.7*31
$GPRMC,164500.000,A,2233.2052,N,11413.8083,E,0.0,105.6,040191,,,A*67
$GPGGA,164500.000,2233.2052,N,11413.8083,E,1,05,3.2,49.4,M,14.2,M,,0000*60
$GPVTG,105.6,T,,M,0.0,N,0.0,K,A*0F
$GPGLL,2233.2052,N,11413.8083,E,164500.00,A,A*6F
$GPGSA,A,3,05,10,15,26,27,,,,,,,,4.2,3.2,2.7*31
$GPRMC,164501.000,A,2233.2052,N,11413.8083,E,0.0,105.6,040191,,,A*66
$GPGGA,164501.000,2233.2052,N,11413.8083,E,1,05,3.2,49.4,M,14.2,M,,0000*61
$GPVTG,105.6,T,,M,0.0,N,0.0,K,A*0F
$GPGLL,2233.2052,N,11413.8083,E,164501.00,A,A*6E
$GPGSA,A,3,05,10,15,26,27,,,,,,,,4.2,3.2,2.7*31
$GPGSV,3,1,10,10,20,051,22,05,47,012,19,27,12,173,33,12,04,217,19*78
$GPGSV,3,2,10,26,83,130,30,15,60,213,40,29,38,302,18,02,48,095,*7B
$GPGSV,3,3,10,08,14,071,,04,14,115,*77
$GPRMC,164502.000,A,2233.2052,N,11413.8083,E,0.0,105.6,040191,,,A*65
$GPGGA,164502.000,2233.2052,N,11413.8083,E,1,05,3.2,49.4,M,14.2,M,,0000*62
$GPVTG,105.6,T,,M,0.0,N,0.0,K,A*0F
$GPGLL,2233.2052,N,11413.8083,E,164502.00,A,A*6D
$GPGSA,A,3,05,10,15,26,27,,,,,,,,4.2,3.2,2.7*31
$GPRMC,164503.000,A,2233.2052,N,11413.8083,E,0.0,105.6,040191,,,A*64
$GPGGA,164503.000,2233.2052,N,11413.8083,E,1,05,3.2,49.4,M,14.2,M,,0000*63
$GPVTG,105.6,T,,M,0.0,N,0.0,K,A*0F
$GPGLL,2233.2052,N,11413.8083,E,164503.00,A,A*6C
$GPGSA,A,3,05,10,15,26,27,,,,,,,,4.2,3.2,2.7*31
$GPRMC,164504.000,A,2233.2052,N,11413.8083,E,0.0,105.6,040191,,,A*63
$GPGGA,164504.000,2233.2052,N,11413.8083,E,1,05,3.3,49.4,M,14.2,M,,0000*65
$GPVTG,105.6,T,,M,0.0,N,0.0,K,A*0F
$GPGLL,2233.2052,N,11413.8083,E,164504.00,A,A*6B
$GPGSA,A,3,05,10,15,26,27,,,,,,,,4.3,3.3,2.7*31
$GPRMC,164505.000,A,2233.2052,N,11413.8083,E,0.0,105.6,040191,,,A*62
$GPGGA,164505.000,2233.2052,N,11413.8083,E,1,05,3.3,49.4,M,14.2,M,,0000*64
$GPVTG,105.6,T,,M,0.0,N,0.0,K,A*0F
$GPGLL,2233.2052,N,11413.8083,E,164505.00,A,A*6A
$GPGSA,A,3,05,10,15,26,27,,,,,,,,4.3,3.3,2.7*31
$GPRMC,164506.000,A,2233.2052,N,11413.8083,E,0.0,105.6,040191,,,A*61
$GPGGA,164506.000,2233.2052,N,11413.8083,E,1,05,3.3,49.4,M,14.2,M,,0000*67
$GPVTG,105.6,T,,M,0.0,N,0.0,K,A*0F
$GPGLL,2233.2052,N,11413.8083,E,164506.00,A,A*69
$GPGSA,A,3,05,10,15,26,27,,,,,,,,4.3,3.3,2.7*31
$GPGSV,3,1,10,10,20,051,22,05,47,012,18,02,48,096,12,27,12,173,32*71
$GPGSV,3,2,10,12,04,217,19,26,83,129,29,15,60,213,38,29,38,302,*74
$GPGSV,3,3,10,08,14,071,,04,13,115,*70
$GPRMC,164507.000,A,2233.2052,N,11413.8083,E,0.0,105.6,040191,,,A*60
$GPGGA,164507.000,2233.2052,N,11413.8083,E,1,06,1.8,49.4,M,14.2,M,,0000*6C
$GPVTG,105.6,T,,M,0.0,N,0.0,K,A*0F
$GPGLL,2233.2052,N,11413.8083,E,164507.00,A,A*68
$GPGSA,A,3,02,05,10,15,26,27,,,,,,,2.5,1.8,1.7*39
$GPRMC,164508.000,A,2233.2052,N,11413.8083,E,0.0,105.6,040191,,,A*6F
$GPGGA,164508.000,2233.2052,N,11413.8083,E,1,06,1.8,49.4,M,14.2,M,,0000*63
$GPVTG,105.6,T,,M,0.0,N,0.0,K,A*0F
$GPGLL,2233.2052,N,11413.8083,E,164508.00,A,A*67
$GPGSA,A,3,02,05,10,15,26,27,,,,,,,2.5,1.8,1.7*39
$GPRMC,164509.000,A,2233.2052,N,11413.8083,E,0.0,105.6,040191,,,A*6E
$GPGGA,164509.000,2233.2052,N,11413.8083,E,1,06,1.8,49.4,M,14.2,M,,0000*62
$GPVTG,105.6,T,,M,0.0,N,0.0,K,A*0F
$GPGLL,2233.2052,N,11413.8083,E,164509.00,A,A*66
$GPGSA,A,3,02,05,10,15,26,27,,,,,,,2.5,1.8,1.7*39
$GPRMC,164510.000,A,2233.2052,N,11413.8083,E,0.0,105.6,040191,,,A*66
$GPGGA,164510.000,2233.2052,N,11413.8083,E,1,06,1.8,49.4,M,14.2,M,,0000*6A
$GPVTG,105.6,T,,M,0.0,N,0.0,K,A*0F
$GPGLL,2233.2052,N,11413.8083,E,164510.00,A,A*6E
$GPGSA,A,3,02,05,10,15,26,27,,,,,,,2.5,1.8,1.7*39
$GPRMC,164511.000,A,2233.2052,N,11413.8083,E,0.0,105.6,040191,,,A*67
$GPGGA,164511.000,2233.2052,N,11413.8083,E,1,06,1.8,49.4,M,14.2,M,,0000*6B
$GPVTG,105.6,T,,M,0.0,N,0.0,K,A*0F
$GPGLL,2233.2052,N,11413.8083,E,164511.00,A,A*6F
$GPGSA,A,3,02,05,10,15,26,27,,,,,,,2.5,1.8,1.7*39
$GPGSV,3,1,10,10,20,051,23,05,47,012,15,02,48,096,13,27,12,173,33*7D
$GPGSV,3,2,10,12,04,217,17,26,83,129,30,15,60,213,39,29,38,302,*73
$GPGSV,3,3,10,08,14,071,,04,13,116,*73
$GPRMC,164512.000,A,2233.2052,N,11413.8083,E,0.0,105.6,040191,,,A*64
$GPGGA,164512.000,2233.2052,N,11413.8083,E,1,06,1.8,49.4,M,14.2,M,,0000*68
$GPVTG,105.6,T,,M,0.0,N,0.0,K,A*0F
$GPGLL,2233.2052,N,11413.8083,E,164512.00,A,A*6C
$GPGSA,A,3,02,05,10,15,26,27,,,,,,,2.5,1.8,1.7*39
$GPRMC,164513.000,A,2233.2052,N,11413.8083,E,0.0,105.6,040191,,,A*65
$GPGGA,164513.000,2233.2052,N,11413.8083,E,1,06,1.8,49.4,M,14.2,M,,0000*69
$GPVTG,105.6,T,,M,0.0,N,0.0,K,A*0F
$GPGLL,2233.2052,N,11413.8083,E,164513.00,A,A*6D
$GPGSA,A,3,02,05,10,15,26,27,,,,,,,2.5,1.8,1.7*39
$GPRMC,164514.000,A,2233.2052,N,11413.8083,E,0.0,105.6,040191,,,A*62
$GPGGA,164514.000,2233.2052,N,11413.8083,E,1,06,1.8,49.4,M,14.2,M,,0000*6E
$GPVTG,105.6,T,,M,0.0,N,0.0,K,A*0F
$GPGLL,2233.2052,N,11413.8083,E,164514.00,A,A*6A
$GPGSA,A,3,02,05,10,15,26,27,,,,,,,2.5,1.8,1.7*39
$GPRMC,164515.000,A,2233.2052,N,11413.8083,E,0.0,105.6,040191,,,A*63
$GPGGA,164515.000,2233.2052,N,11413.8083,E,1,06,1.8,49.4,M,14.2,M,,0000*6F
$GPVTG,105.6,T,,M,0.0,N,0.0,K,A*0F
$GPGLL,2233.2052,N,11413.8083,E,164515.00,A,A*6B
$GPGSA,A,3,02,05,10,15,26,27,,,,,,,2.5,1.8,1.7*39
$GPRMC,164516.000,A,2233.2052,N,11413.8083,E,0.0,105.6,040191,,,A*60
$GPGGA,164516.000,2233.2052,N,11413.8083,E,1,06,1.8,49.4,M,14.2,M,,0000*6C
$GPVTG,105.6,T,,M,0.0,N,0.0,K,A*0F
$GPGLL,2233.2052,N,11413.8083,E,164516.00,A,A*68
$GPGSA,A,3,02,05,10,15,26,27,,,,,,,2.5,1.8,1.7*39
$GPGSV,3,1,10,10,20,051,24,05,47,012,15,02,48,096,13,27,12,173,34*7D
$GPGSV,3,2,10,12,04,217,16,26,84,129,28,15,60,213,40,29,38,302,20*70
$GPGSV,3,3,10,08,14,071,,04,13,116,*73
$GPRMC,164517.000,A,2233.2052,N,11413.8083,E,0.0,105.6,040191,,,A*61
$GPGGA,164517.000,2233.2052,N,11413.8083,E,1,06,1.8,49.4,M,14.2,M,,0000*6D
$GPVTG,105.6,T,,M,0.0,N,0.0,K,A*0F
$GPGLL,2233.2052,N,11413.8083,E,164517.00,A,A*69
$GPGSA,A,3,02,05,10,15,26,27,,,,,,,2.5,1.8,1.7*39
$GPRMC,164518.000,A,2233.2052,N,11413.8083,E,0.0,105.6,040191,,,A*6E
$GPGGA,164518.000,2233.2052,N,11413.8083,E,1,06,1.8,49.4,M,14.2,M,,0000*62
$GPVTG,105.6,T,,M,0.0,N,0.0,K,A*0F
$GPGLL,2233.2052,N,11413.8083,E,164518.00,A,A*66
$GPGSA,A,3,02,05,10,15,26,27,,,,,,,2.5,1.8,1.7*39
$GPRMC,164519.000,A,2233.2052,N,11413.8083,E,0.0,105.6,040191,,,A*6F
$GPGGA,164519.000,2233.2052,N,11413.8083,E,1,06,1.8,49.4,M,14.2,M,,0000*63
$GPVTG,105.6,T,,M,0.0,N,0.0,K,A*0F
$GPGLL,2233.2052,N,11413.8083,E,164519.00,A,A*67
$GPGSA,A,3,02,05,10,15,26,27,,,,,,,2.5,1.8,1.7*39
$GPRMC,164520.000,A,2233.2052,N,11413.8083,E,0.0,105.6,040191,,,A*65
$GPGGA,164520.000,2233.2052,N,11413.8083,E,1,06,1.8,49.4,M,14.2,M,,0000*69
$GPVTG,105.6,T,,M,0.0,N,0.0,K,A*0F
$GPGLL,2233.2052,N,11413.8083,E,164520.00,A,A*6D
$GPGSA,A,3,02,05,10,15,26,27,,,,,,,2.5,1.8,1.7*39
$GPRMC,164521.000,A,2233.2052,N,11413.8083,E,0.0,105.6,040191,,,A*64
$GPGGA,164521.000,2233.2052,N,11413.8083,E,1,06,1.8,49.4,M,14.2,M,,0000*68
$GPVTG,105.6,T,,M,0.0,N,0.0,K,A*0F
$GPGLL,2233.2052,N,11413.8083,E,164521.00,A,A*6C
$GPGSA,A,3,02,05,10,15,26,27,,,,,,,2.5,1.8,1.7*39
$GPGSV,3,1,10,10,20,051,22,05,47,012,12,02,48,096,16,27,12,173,32*7F
$GPGSV,3,2,10,12,04,216,18,26,84,128,27,15,60,213,40,29,38,302,22*73
$GPGSV,3,3,10,08,14,071,,04,13,116,*73
$GPRMC,164522.000,A,2233.2052,N,11413.8083,E,0.0,105.6,040191,,,A*67
$GPGGA,164522.000,2233.2052,N,11413.8083,E,1,06,1.8,49.4,M,14.2,M,,0000*6B
$GPVTG,105.6,T,,M,0.0,N,0.0,K,A*0F
$GPGLL,2233.2052,N,11413.8083,E,164522.00,A,A*6F
$GPGSA,A,3,02,05,10,15,26,27,,,,,,,2.5,1.8,1.7*39
$GPRMC,164523.000,A,2233.2052,N,11413.8083,E,0.0,105.6,040191,,,A*66
$GPGGA,164523.000,2233.2052,N,11413.8083,E,1,06,1.8,49.4,M,14.2,M,,0000*6A
$GPVTG,105.6,T,,M,0.0,N,0.0,K,A*0F
$GPGLL,2233.2052,N,11413.8083,E,164523.00,A,A*6E
$GPGSA,A,3,02,05,10,15,26,27,,,,,,,2.5,1.8,1.7*39
$GPRMC,164524.000,A,2233.2052,N,11413.8083,E,0.0,105.6,040191,,,A*61
$GPGGA,164524.000,2233.2052,N,11413.8083,E,1,06,1.8,49.4,M,14.2,M,,0000*6D
$GPVTG,105.6,T,,M,0.0,N,0.0,K,A*0F
$GPGLL,2233.2052,N,11413.8083,E,164524.00,A,A*69
$GPGSA,A,3,02,05,10,15,26,27,,,,,,,2.5,1.8,1.7*39
$GPRMC,164525.000,A,2233.2052,N,11413.8083,E,0.0,105.6,040191,,,A*60
$GPGGA,164525.000,2233.2052,N,11413.8083,E,1,06,1.8,49.4,M,14.2,M,,0000*6C
$GPVTG,105.6,T,,M,0.0,N,0.0,K,A*0F
$GPGLL,2233.2052,N,11413.8083,E,164525.00,A,A*68
$GPGSA,A,3,02,05,10,15,26,27,,,,,,,2.5,1.8,1.7*39
$GPRMC,164526.000,A,2233.2052,N,11413.8083,E,0.0,105.6,040191,,,A*63
$GPGGA,164526.000,2233.2052,N,11413.8083,E,1,06,1.8,49.4,M,14.2,M,,0000*6F
$GPVTG,105.6,T,,M,0.0,N,0.0,K,A*0F
$GPGLL,2233.2052,N,11413.8083,E,164526.00,A,A*6B
$GPGSA,A,3,02,05,10,15,26,27,,,,,,,2.5,1.8,1.7*39
$GPGSV,3,1,10,10,20,051,21,05,47,012,12,02,48,096,18,27,12,173,32*72
$GPGSV,3,2,10,12,04,216,22,26,84,128,28,15,60,213,40,29,38,302,19*7D
$GPGSV,3,3,10,08,14,071,,04,13,116,*73
$GPRMC,164527.000,A,2233.2052,N,11413.8083,E,0.0,105.6,040191,,,A*62
$GPGGA,164527.000,2233.2052,N,11413.8083,E,1,06,1.8,49.4,M,14.2,M,,0000*6E
$GPVTG,105.6,T,,M,0.0,N,0.0,K,A*0F
$GPGLL,2233.2052,N,11413.8083,E,164527.00,A,A*6A
$GPGSA,A,3,02,05,10,15,26,27,,,,,,,2.5,1.8,1.8*36
$GPRMC,164528.000,A,2233.2052,N,11413.8083,E,0.0,105.6,040191,,,A*6D
$GPGGA,164528.000,2233.2052,N,11413.8083,E,1,06,1.8,49.4,M,14.2,M,,0000*61
$GPVTG,105.6,T,,M,0.0,N,0.0,K,A*0F
$GPGLL,2233.2052,N,11413.8083,E,164528.00,A,A*65
$GPGSA,A,3,02,05,10,15,26,27,,,,,,,2.5,1.8,1.8*36
$GPRMC,164529.000,A,2233.2052,N,11413.8083,E,0.0,105.6,040191,,,A*6C
$GPGGA,164529.000,2233.2052,N,11413.8083,E,1,06,1.8,49.4,M,14.2,M,,0000*60
$GPVTG,105.6,T,,M,0.0,N,0.0,K,A*0F
$GPGLL,2233.2052,N,11413.8083,E,164529.00,A,A*64
$GPGSA,A,3,02,05,10,15,26,27,,,,,,,2.5,1.8,1.8*36
$GPRMC,164530.000,A,2233.2052,N,11413.8083,E,0.0,105.6,040191,,,A*64
$GPGGA,164530.000,2233.2052,N,11413.8083,E,1,06,1.8,49.4,M,14.2,M,,0000*68
$GPVTG,105.6,T,,M,0.0,N,0.0,K,A*0F
$GPGLL,2233.2052,N,11413.8083,E,164530.00,A,A*6C
$GPGSA,A,3,02,05,10,15,26,27,,,,,,,2.5,1.8,1.8*36
$GPRMC,164531.000,A,2233.2052,N,11413.8083,E,0.0,105.6,040191,,,A*65
$GPGGA,164531.000,2233.2052,N,11413.8083,E,1,06,1.8,49.4,M,14.2,M,,0000*69
$GPVTG,105.6,T,,M,0.0,N,0.0,K,A*0F
$GPGLL,2233.2052,N,11413.8083,E,164531.00,A,A*6D
$GPGSA,A,3,02,05,10,15,26,27,,,,,,,2.5,1.8,1.8*36
$GPGSV,3,1,10,10,20,051,22,05,46,013,13,02,48,096,16,27,12,173,33*7F
$GPGSV,3,2,10,12,04,216,23,26,84,127,28,15,60,213,41,29,38,302,*7A
$GPGSV,3,3,10,08,14,071,,04,13,116,*73
$GPRMC,164532.000,A,2233.2052,N,11413.8083,E,0.0,105.6,040191,,,A*66
$GPGGA,164532.000,2233.2052,N,11413.8083,E,1,06,1.8,49.4,M,14.2,M,,0000*6A
$GPVTG,105.6,T,,M,0.0,N,0.0,K,A*0F
$GPGLL,2233.2052,N,11413.8083,E,164532.00,A,A*6E
$GPGSA,A,3,02,05,10,15,26,27,,,,,,,2.5,1.8,1.8*36
$GPRMC,164533.000,A,2233.2052,N,11413.8083,E,0.0,105.6,040191,,,A*67
$GPGGA,164533.000,2233.2052,N,11413.8083,E,1,06,1.8,49.4,M,14.2,M,,0000*6B
$GPVTG,105.6,T,,M,0.0,N,0.0,K,A*0F
$GPGLL,2233.2052,N,11413.8083,E,164533.00,A,A*6F
$GPGSA,A,3,02,05,10,15,26,27,,,,,,,2.5,1.8,1.8*36
$GPRMC,164534.000,A,2233.2052,N,11413.8083,E,0.0,105.6,040191,,,A*60
$GPGGA,164534.000,2233.2052,N,11413.8083,E,1,06,1.8,49.4,M,14.2,M,,0000*6C
$GPVTG,105.6,T,,M,0.0,N,0.0,K,A*0F
$GPGLL,2233.2052,N,11413.8083,E,164534.00,A,A*68
$GPGSA,A,3,02,05,10,15,26,27,,,,,,,2.5,1.8,1.8*36
$GPRMC,164535.000,A,2233.2052,N,11413.8083,E,0.0,105.6,040191,,,A*61
$GPGGA,164535.000,2233.2052,N,11413.8083,E,1,06,1.8,49.4,M,14.2,M,,0000*6D
$GPVTG,105.6,T,,M,0.0,N,0.0,K,A*0F
$GPGLL,2233.2052,N,11413.8083,E,164535.00,A,A*69
$GPGSA,A,3,02,05,10,15,26,27,,,,,,,2.5,1.8,1.8*36
$GPRMC,164536.000,A,2233.2052,N,11413.8083,E,0.0,105.6,040191,,,A*62
$GPGGA,164536.000,2233.2052,N,11413.8083,E,1,06,1.8,49.4,M,14.2,M,,0000*6E
$GPVTG,105.6,T,,M,0.0,N,0.0,K,A*0F
$GPGLL,2233.2052,N,11413.8083,E,164536.00,A,A*6A
$GPGSA,A,3,02,05,10,15,26,27,,,,,,,2.5,1.8,1.8*36
$GPGSV,3,1,10,10,20,051,23,05,46,013,14,02,48,096,16,27,12,173,33*79
$GPGSV,3,2,10,12,04,216,21,26,84,127,27,15,60,213,40,29,38,301,*75
$GPGSV,3,3,10,08,14,071,,04,13,116,*73
$GPRMC,164537.000,A,2233.2052,N,11413.8083,E,0.0,105.6,040191,,,A*63
$GPGGA,164537.000,2233.2052,N,11413.8083,E,1,06,1.8,49.4,M,14.2,M,,0000*6F
$GPVTG,105.6,T,,M,0.0,N,0.0,K,A*0F
$GPGLL,2233.2052,N,11413.8083,E,164537.00,A,A*6B
$GPGSA,A,3,02,05,10,15,26,27,,,,,,,2.5,1.8,1.8*36
$GPRMC,164538.000,A,2233.2052,N,11413.8083,E,0.0,105.6,040191,,,A*6C
$GPGGA,164538.000,2233.2052,N,11413.8083,E,1,06,1.8,49.4,M,14.2,M,,0000*60
$GPVTG,105.6,T,,M,0.0,N,0.0,K,A*0F
$GPGLL,2233.2052,N,11413.8083,E,164538.00,A,A*64
$GPGSA,A,3,02,05,10,15,26,27,,,,,,,2.5,1.8,1.8*36
$GPRMC,164539.000,A,2233.2052,N,11413.8083,E,0.0,105.6,040191,,,A*6D
$GPGGA,164539.000,2233.2052,N,11413.8083,E,1,06,1.8,49.4,M,14.2,M,,0000*61
$GPVTG,105.6,T,,M,0.0,N,0.0,K,A*0F
$GPGLL,2233.2052,N,11413.8083,E,164539.00,A,A*65
$GPGSA,A,3,02,05,10,15,26,27,,,,,,,2.5,1.8,1.8*36
$GPRMC,164540.000,A,2233.2052,N,11413.8083,E,0.0,105.6,040191,,,A*63
$GPGGA,164540.000,2233.2052,N,11413.8083,E,1,06,1.8,49.4,M,14.2,M,,0000*6F
$GPVTG,105.6,T,,M,0.0,N,0.0,K,A*0F
$GPGLL,2233.2052,N,11413.8083,E,164540.00,A,A*6B
$GPGSA,A,3,02,05,10,15,26,27,,,,,,,2.5,1.8,1.8*36
$GPRMC,164541.000,A,2233.2052,N,11413.8083,E,0.0,105.6,040191,,,A*62
$GPGGA,164541.000,2233.2052,N,11413.8083,E,1,06,1.8,49.4,M,14.2,M,,0000*6E
$GPVTG,105.6,T,,M,0.0,N,0.0,K,A*0F
$GPGLL,2233.2052,N,11413.8083,E,164541.00,A,A*6A
$GPGSA,A,3,02,05,10,15,26,27,,,,,,,2.5,1.8,1.8*36
$GPGSV,3,1,10,10,20,051,24,05,46,013,13,02,48,096,13,27,12,173,34*7B
$GPGSV,3,2,10,12,04,216,20,26,84,127,26,15,60,213,40,29,38,301,20*77
$GPGSV,3,3,10,08,14,071,,04,13,116,*73
$GPRMC,164542.000,A,2233.2052,N,11413.8083,E,0.0,105.6,040191,,,A*61
$GPGGA,164542.000,2233.2052,N,11413.8083,E,1,06,1.8,49.4,M,14.2,M,,0000*6D
$GPVTG,105.6,T,,M,0.0,N,0.0,K,A*0F
$GPGLL,2233.2052,N,11413.8083,E,164542.00,A,A*69
$GPGSA,A,3,02,05,10,15,26,27,,,,,,,2.5,1.8,1.8*36
$GPRMC,164543.000,A,2233.2052,N,11413.8083,E,0.0,105.6,040191,,,A*60
$GPGGA,164543.000,2233.2052,N,11413.8083,E,1,06,1.8,49.4,M,14.2,M,,0000*6C
$GPVTG,105.6,T,,M,0.0,N,0.0,K,A*0F
$GPGLL,2233.2052,N,11413.8083,E,164543.00,A,A*68
$GPGSA,A,3,02,05,10,15,26,27,,,,,,,2.5,1.8,1.8*36
$GPRMC,164544.000,A,2233.2052,N,11413.8083,E,0.0,105.6,040191,,,A*67
$GPGGA,164544.000,2233.2052,N,11413.8083,E,1,06,1.8,49.4,M,14.2,M,,0000*6B
$GPVTG,105.6,T,,M,0.0,N,0.0,K,A*0F
$GPGLL,2233.2052,N,11413.8083,E,164544.00,A,A*6F
$GPGSA,A,3,02,05,10,15,26,27,,,,,,,2.5,1.8,1.8*36
$GPRMC,164545.000,A,2233.2052,N,11413.8083,E,0.0,105.6,040191,,,A*66
$GPGGA,164545.000,2233.2052,N,11413.8083,E,1,06,1.8,49.4,M,14.2,M,,0000*6A
$GPVTG,105.6,T,,M,0.0,N,0.0,K,A*0F
$GPGLL,2233.2052,N,11413.8083,E,164545.00,A,A*6E
$GPGSA,A,3,02,05,10,15,26,27,,,,,,,2.5,1.8,1.8*36
$GPRMC,164546.000,A,2233.2052,N,11413.8083,E,0.0,105.6,040191,,,A*65
$GPGGA,164546.000,2233.2052,N,11413.8083,E,1,06,1.8,49.4,M,14.2,M,,0000*69
$GPVTG,105.6,T,,M,0.0,N,0.0,K,A*0F
$GPGLL,2233.2052,N,11413.8083,E,164546.00,A,A*6D
$GPGSA,A,3,02,05,10,15,26,27,,,,,,,2.5,1.8,1.8*36
$GPGSV,3,1,10,10,20,051,23,05,46,013,11,02,48,096,12,27,12,173,33*78
$GPGSV,3,2,10,12,04,216,18,26,84,126,27,15,60,213,39,29,38,301,19*78
$GPGSV,3,3,10,08,14,071,,04,13,116,*73
$GPRMC,164547.000,A,2233.2052,N,11413.8083,E,0.0,105.6,040191,,,A*64
$GPGGA,164547.000,2233.2052,N,11413.8083,E,1,05,2.4,49.4,M,14.2,M,,0000*64
$GPVTG,105.6,T,,M,0.0,N,0.0,K,A*0F
$GPGLL,2233.2052,N,11413.8083,E,164547.00,A,A*6C
$GPGSA,A,3,02,10,15,26,27,,,,,,,,3.1,2.4,1.9*38
$GPRMC,164548.000,A,2233.2052,N,11413.8083,E,0.0,105.6,040191,,,A*6B
$GPGGA,164548.000,2233.2052,N,11413.8083,E,1,05,2.4,49.4,M,14.2,M,,0000*6B
$GPVTG,105.6,T,,M,0.0,N,0.0,K,A*0F
$GPGLL,2233.2052,N,11413.8083,E,164548.00,A,A*63
$GPGSA,A,3,02,10,15,26,27,,,,,,,,3.1,2.4,1.9*38
$GPRMC,164549.000,A,2233.2052,N,11413.8083,E,0.0,105.6,040191,,,A*6A
$GPGGA,164549.000,2233.2052,N,11413.8083,E,1,05,2.4,49.4,M,14.2,M,,0000*6A
$GPVTG,105.6,T,,M,0.0,N,0.0,K,A*0F
$GPGLL,2233.2052,N,11413.8083,E,164549.00,A,A*62
$GPGSA,A,3,02,10,15,26,27,,,,,,,,3.1,2.4,1.9*38
$GPRMC,164550.000,A,2233.2052,N,11413.8083,E,0.0,105.6,040191,,,A*62
$GPGGA,164550.000,2233.2052,N,11413.8083,E,1,05,2.4,49.4,M,14.2,M,,0000*62
$GPVTG,105.6,T,,M,0.0,N,0.0,K,A*0F
$GPGLL,2233.2052,N,11413.8083,E,164550.00,A,A*6A
$GPGSA,A,3,02,10,15,26,27,,,,,,,,3.1,2.4,1.9*38
$GPRMC,164551.000,A,2233.2052,N,11413.8083,E,0.0,105.6,040191,,,A*63
$GPGGA,164551.000,2233.2052,N,11413.8083,E,1,06,1.8,49.4,M,14.2,M,,0000*6F
$GPVTG,105.6,T,,M,0.0,N,0.0,K,A*0F
$GPGLL,2233.2052,N,11413.8083,E,164551.00,A,A*6B
$GPGSA,A,3,02,05,10,15,26,27,,,,,,,2.5,1.8,1.8*36
$GPGSV,3,1,10,10,20,051,22,05,46,013,19,02,48,096,11,27,12,173,33*72
$GPGSV,3,2,10,12,04,216,18,26,84,126,27,15,60,213,38,29,38,301,19*79
$GPGSV,3,3,10,08,14,071,,04,13,116,*73
$GPRMC,164552.000,A,2233.2052,N,11413.8083,E,0.0,105.6,040191,,,A*60
$GPGGA,164552.000,2233.2052,N,11413.8083,E,1,06,1.8,49.4,M,14.2,M,,0000*6C
$GPVTG,105.6,T,,M,0.0,N,0.0,K,A*0F
$GPGLL,2233.2052,N,11413.8083,E,164552.00,A,A*68
$GPGSA,A,3,02,05,10,15,26,27,,,,,,,2.5,1.8,1.8*36
$GPRMC,164553.000,A,2233.2052,N,11413.8083,E,0.0,105.6,040191,,,A*61
$GPGGA,164553.000,2233.2052,N,11413.8083,E,1,06,1.8,49.4,M,14.2,M,,0000*6D
$GPVTG,105.6,T,,M,0.0,N,0.0,K,A*0F
$GPGLL,2233.2052,N,11413.8083,E,164553.00,A,A*69
$GPGSA,A,3,02,05,10,15,26,27,,,,,,,2.5,1.8,1.8*36
$GPRMC,164554.000,A,2233.2052,N,11413.8083,E,0.0,105.6,040191,,,A*66
$GPGGA,164554.000,2233.2052,N,11413.8083,E,1,06,1.8,49.4,M,14.2,M,,0000*6A
$GPVTG,105.6,T,,M,0.0,N,0.0,K,A*0F
$GPGLL,2233.2052,N,11413.8083,E,164554.00,A,A*6E
$GPGSA,A,3,02,05,10,15,26,27,,,,,,,2.5,1.8,1.8*36
$GPRMC,164555.000,A,2233.2052,N,11413.8083,E,0.0,105.6,040191,,,A*67
$GPGGA,164555.000,2233.2052,N,11413.8083,E,1,06,1.8,49.4,M,14.2,M,,0000*6B
$GPVTG,105.6,T,,M,0.0,N,0.0,K,A*0F
$GPGLL,2233.2052,N,11413.8083,E,164555.00,A,A*6F
$GPGSA,A,3,02,05,10,15,26,27,,,,,,,2.5,1.8,1.8*36
$GPRMC,164556.000,A,2233.2052,N,11413.8083,E,0.0,105.6,040191,,,A*64
$GPGGA,164556.000,2233.2052,N,11413.8083,E,1,05,3.3,49.4,M,14.2,M,,0000*62
$GPVTG,105.6,T,,M,0.0,N,0.0,K,A*0F
$GPGLL,2233.2052,N,11413.8083,E,164556.00,A,A*6C
$GPGSA,A,3,05,10,15,26,27,,,,,,,,4.3,3.3,2.7*31
$GPGSV,3,1,10,10,20,051,23,05,46,013,21,02,48,096,11,27,12,173,33*78
$GPGSV,3,2,10,26,84,125,28,15,60,213,39,29,38,301,,08,14,071,*7C
$GPGSV,3,3,10,04,13,116,,12,04,216,*7A
$GPRMC,164557.000,A,2233.2052,N,11413.8083,E,0.0,105.6,040191,,,A*65
$GPGGA,164557.000,2233.2052,N,11413.8083,E,1,06,1.8,49.4,M,14.2,M,,0000*69
$GPVTG,105.6,T,,M,0.0,N,0.0,K,A*0F
$GPGLL,2233.2052,N,11413.8083,E,164557.00,A,A*6D
$GPGSA,A,3,02,05,10,15,26,27,,,,,,,2.5,1.8,1.8*36
$GPRMC,164558.000,A,2233.2052,N,11413.8083,E,0.0,105.6,040191,,,A*6A
$GPGGA,164558.000,2233.2052,N,11413.8083,E,1,06,1.8,49.4,M,14.2,M,,0000*66
$GPVTG,105.6,T,,M,0.0,N,0.0,K,A*0F
$GPGLL,2233.2052,N,11413.8083,E,164558.00,A,A*62
$GPGSA,A,3,02,05,10,15,26,27,,,,,,,2.5,1.8,1.8*36
$GPRMC,164559.000,A,2233.2052,N,11413.8083,E,0.0,105.6,040191,,,A*6B
$GPGGA,164559.000,2233.2052,N,11413.8083,E,1,06,1.8,49.4,M,14.2,M,,0000*67
$GPVTG,105.6,T,,M,0.0,N,0.0,K,A*0F
$GPGLL,2233.2052,N,11413.8083,E,164559.00,A,A*63
$GPGSA,A,3,02,05,10,15,26,27,,,,,,,2.5,1.8,1.8*36
$GPRMC,164600.000,A,2233.2052,N,11413.8083,E,0.0,105.6,040191,,,A*64
$GPGGA,164600.000,2233.2052,N,11413.8083,E,1,06,1.8,49.4,M,14.2,M,,0000*68
$GPVTG,105.6,T,,M,0.0,N,0.0,K,A*0F
$GPGLL,2233.2052,N,11413.8083,E,164600.00,A,A*6C
$GPGSA,A,3,02,05,10,15,26,27,,,,,,,2.5,1.8,1.8*36
$GPRMC,164601.000,A,2233.2052,N,11413.8083,E,0.0,105.6,040191,,,A*65
$GPGGA,164601.000,2233.2052,N,11413.8083,E,1,06,1.8,49.4,M,14.2,M,,0000*69
$GPVTG,105.6,T,,M,0.0,N,0.0,K,A*0F
$GPGLL,2233.2052,N,11413.8083,E,164601.00,A,A*6D
$GPGSA,A,3,02,05,10,15,26,27,,,,,,,2.5,1.8,1.8*36
$GPGSV,3,1,10,10,20,051,23,05,46,013,21,02,48,096,12,04,13,116,11*78
$GPGSV,3,2,10,27,12,173,33,26,84,125,28,15,60,214,40,29,38,301,*7D
$GPGSV,3,3,10,08,14,071,,12,04,216,*71
$GPRMC,164602.000,A,2233.2052,N,11413.8083,E,0.0,105.6,040191,,,A*66
$GPGGA,164602.000,2233.2052,N,11413.8083,E,1,07,1.5,49.4,M,14.2,M,,0000*66
$GPVTG,105.6,T,,M,0.0,N,0.0,K,A*0F
$GPGLL,2233.2052,N,11413.8083,E,164602.00,A,A*6E
$GPGSA,A,3,02,04,05,10,15,26,27,,,,,,2.3,1.5,1.8*39
$GPRMC,164603.000,A,2233.2052,N,11413.8083,E,0.0,105.6,040191,,,A*67
$GPGGA,164603.000,2233.2052,N,11413.8083,E,1,07,1.5,49.4,M,14.2,M,,0000*67
$GPVTG,105.6,T,,M,0.0,N,0.0,K,A*0F
$GPGLL,2233.2052,N,11413.8083,E,164603.00,A,A*6F
$GPGSA,A,3,02,04,05,10,15,26,27,,,,,,2.3,1.5,1.8*39
$GPRMC,164604.000,A,2233.2052,N,11413.8083,E,0.0,105.6,040191,,,A*60
$GPGGA,164604.000,2233.2052,N,11413.8083,E,1,06,2.0,49.4,M,14.2,M,,0000*67
$GPVTG,105.6,T,,M,0.0,N,0.0,K,A*0F
$GPGLL,2233.2052,N,11413.8083,E,164604.00,A,A*68
$GPGSA,A,3,04,05,10,15,26,27,,,,,,,3.0,2.0,2.3*37
$GPRMC,164605.000,A,2233.2052,N,11413.8083,E,0.0,105.6,040191,,,A*61
$GPGGA,164605.000,2233.2052,N,11413.8083,E,1,06,2.0,49.4,M,14.2,M,,0000*66
$GPVTG,105.6,T,,M,0.0,N,0.0,K,A*0F
$GPGLL,2233.2052,N,11413.8083,E,164605.00,A,A*69
$GPGSA,A,3,04,05,10,15,26,27,,,,,,,3.0,2.0,2.3*37
$GPRMC,164606.000,A,2233.2052,N,11413.8083,E,0.0,105.6,040191,,,A*62
$GPGGA,164606.000,2233.2052,N,11413.8083,E,1,06,2.0,49.4,M,14.2,M,,0000*65
$GPVTG,105.6,T,,M,0.0,N,0.0,K,A*0F
$GPGLL,2233.2052,N,11413.8083,E,164606.00,A,A*6A
$GPGSA,A,3,04,05,10,15,26,27,,,,,,,3.0,2.0,2.3*37
$GPGSV,3,1,10,10,20,051,24,05,46,013,21,04,13,116,11,27,12,173,34*79
$GPGSV,3,2,10,26,84,125,28,15,60,214,40,02,48,096,,29,38,301,*7F
$GPGSV,3,3,10,08,14,071,,12,04,216,*71
$GPRMC,164607.000,A,2233.2052,N,11413.8083,E,0.0,105.6,040191,,,A*63
$GPGGA,164607.000,2233.2052,N,11413.8083,E,1,06,2.0,49.4,M,14.2,M,,0000*64
$GPVTG,105.6,T,,M,0.0,N,0.0,K,A*0F
$GPGLL,2233.2052,N,11413.8083,E,164607.00,A,A*6B
$GPGSA,A,3,04,05,10,15,26,27,,,,,,,3.0,2.0,2.3*37
$GPRMC,164608.000,A,2233.2052,N,11413.8083,E,0.0,105.6,040191,,,A*6C
$GPGGA,164608.000,2233.2052,N,11413.8083,E,1,06,2.0,49.4,M,14.2,M,,0000*6B
$GPVTG,105.6,T,,M,0.0,N,0.0,K,A*0F
$GPGLL,2233.2052,N,11413.8083,E,164608.00,A,A*64
$GPGSA,A,3,04,05,10,15,26,27,,,,,,,3.0,2.0,2.3*37
$GPRMC,164609.000,A,2233.2052,N,11413.8083,E,0.0,105.6,040191,,,A*6D
$GPGGA,164609.000,2233.2052,N,11413.8083,E,1,07,1.5,49.4,M,14.2,M,,0000*6D
$GPVTG,105.6,T,,M,0.0,N,0.0,K,A*0F
$GPGLL,2233.2052,N,11413.8083,E,164609.00,A,A*65
$GPGSA,A,3,02,04,05,10,15,26,27,,,,,,2.3,1.5,1.8*39
$GPRMC,164610.000,A,2233.2052,N,11413.8083,E,0.0,105.6,040191,,,A*65
$GPGGA,164610.000,2233.2052,N,11413.8083,E,1,06,2.0,49.4,M,14.2,M,,0000*62
$GPVTG,105.6,T,,M,0.0,N,0.0,K,A*0F
$GPGLL,2233.2052,N,11413.8083,E,164610.00,A,A*6D
$GPGSA,A,3,04,05,10,15,26,27,,,,,,,3.0,2.0,2.3*37
$GPRMC,164611.000,A,2233.2052,N,11413.8083,E,0.0,105.6,040191,,,A*64
$GPGGA,164611.000,2233.2052,N,11413.8083,E,1,07,1.5,49.4,M,14.2,M,,0000*64
$GPVTG,105.6,T,,M,0.0,N,0.0,K,A*0F
$GPGLL,2233.2052,N,11413.8083,E,164611.00,A,A*6C
$GPGSA,A,3,02,04,05,10,15,26,27,,,,,,2.3,1.5,1.8*39
$GPGSV,3,1,10,10,20,051,23,05,46,013,19,02,48,096,17,04,13,116,12*75
$GPGSV,3,2,10,27,12,173,34,26,84,124,29,15,60,214,40,29,38,301,16*7D
$GPGSV,3,3,10,08,14,071,,12,04,216,*71
$GPRMC,164612.000,A,2233.2052,N,11413.8083,E,0.0,105.6,040191,,,A*67
$GPGGA,164612.000,2233.2052,N,11413.8083,E,1,07,1.5,49.4,M,14.2,M,,0000*67
$GPVTG,105.6,T,,M,0.0,N,0.0,K,A*0F
$GPGLL,2233.2052,N,11413.8083,E,164612.00,A,A*6F
$GPGSA,A,3,02,04,05,10,15,26,27,,,,,,2.3,1.5,1.8*39
$GPRMC,164613.000,A,2233.2052,N,11413.8083,E,0.0,105.6,040191,,,A*66
$GPGGA,164613.000,2233.2052,N,11413.8083,E,1,06,2.0,49.4,M,14.2,M,,0000*61
$GPVTG,105.6,T,,M,0.0,N,0.0,K,A*0F
$GPGLL,2233.2052,N,11413.8083,E,164613.00,A,A*6E
$GPGSA,A,3,04,05,10,15,26,27,,,,,,,3.0,2.0,2.3*37
$GPRMC,164614.000,A,2233.2052,N,11413.8083,E,0.0,105.6,040191,,,A*61
$GPGGA,164614.000,2233.2052,N,11413.8083,E,1,06,2.0,49.4,M,14.2,M,,0000*66
$GPVTG,105.6,T,,M,0.0,N,0.0,K,A*0F
$GPGLL,2233.2052,N,11413.8083,E,164614.00,A,A*69
$GPGSA,A,3,04,05,10,15,26,27,,,,,,,3.0,2.0,2.3*37
$GPRMC,164615.000,A,2233.2052,N,11413.8083,E,0.0,105.6,040191,,,A*60
$GPGGA,164615.000,2233.2052,N,11413.8083,E,1,06,2.0,49.4,M,14.2,M,,0000*67
$GPVTG,105.6,T,,M,0.0,N,0.0,K,A*0F
$GPGLL,2233.2052,N,11413.8083,E,164615.00,A,A*68
$GPGSA,A,3,04,05,10,15,26,27,,,,,,,3.0,2.0,2.3*37
$GPRMC,164616.000,A,2233.2052,N,11413.8083,E,0.0,105.6,040191,,,A*63
$GPGGA,164616.000,2233.2052,N,11413.8083,E,1,06,2.0,49.4,M,14.2,M,,0000*64
$GPVTG,105.6,T,,M,0.0,N,0.0,K,A*0F
$GPGLL,2233.2052,N,11413.8083,E,164616.00,A,A*6B
$GPGSA,A,3,04,05,10,15,26,27,,,,,,,3.0,2.0,2.3*37
$GPGSV,3,1,10,10,20,051,23,05,46,013,16,02,48,096,15,04,13,116,11*7B
$GPGSV,3,2,10,27,12,173,34,12,04,216,,26,84,124,28,15,60,214,40*7B
$GPGSV,3,3,10,29,38,301,,08,14,071,*71
$GPRMC,164617.000,A,2233.2052,N,11413.8083,E,0.0,105.6,040191,,,A*62
$GPGGA,164617.000,2233.2052,N,11413.8083,E,1,07,1.5,49.4,M,14.2,M,,0000*62
$GPVTG,105.6,T,,M,0.0,N,0.0,K,A*0F
$GPGLL,2233.2052,N,11413.8083,E,164617.00,A,A*6A
$GPGSA,A,3,02,04,05,10,15,26,27,,,,,,2.3,1.5,1.8*39
$GPRMC,164618.000,A,2233.2052,N,11413.8083,E,0.0,105.6,040191,,,A*6D
$GPGGA,164618.000,2233.2052,N,11413.8083,E,1,07,1.5,49.4,M,14.2,M,,0000*6D
$GPVTG,105.6,T,,M,0.0,N,0.0,K,A*0F
$GPGLL,2233.2052,N,11413.8083,E,164618.00,A,A*65
$GPGSA,A,3,02,04,05,10,15,26,27,,,,,,2.3,1.5,1.8*39
$GPRMC,164619.000,A,2233.2052,N,11413.8083,E,0.0,105.6,040191,,,A*6C
$GPGGA,164619.000,2233.2052,N,11413.8083,E,1,06,2.0,49.4,M,14.2,M,,0000*6B
$GPVTG,105.6,T,,M,0.0,N,0.0,K,A*0F
$GPGLL,2233.2052,N,11413.8083,E,164619.00,A,A*64
$GPGSA,A,3,04,05,10,15,26,27,,,,,,,3.0,2.0,2.3*37
$GPRMC,164620.000,A,2233.2052,N,11413.8083,E,0.0,105.6,040191,,,A*66
$GPGGA,164620.000,2233.2052,N,11413.8083,E,1,05,3.3,49.4,M,14.2,M,,0000*60
$GPVTG,105.6,T,,M,0.0,N,0.0,K,A*0F
$GPGLL,2233.2052,N,11413.8083,E,164620.00,A,A*6E
$GPGSA,A,3,05,10,15,26,27,,,,,,,,4.3,3.3,2.8*3E
$GPRMC,164621.000,A,2233.2052,N,11413.8083,E,0.0,105.6,040191,,,A*67
$GPGGA,164621.000,2233.2052,N,11413.8083,E,1,04,5.6,49.4,M,14.2,M,,0000*63
$GPVTG,105.6,T,,M,0.0,N,0.0,K,A*0F
$GPGLL,2233.2052,N,11413.8083,E,164621.00,A,A*6F
$GPGSA,A,3,10,15,26,27,,,,,,,,,6.9,5.6,4.0*3E
$GPGSV,3,1,10,10,20,051,23,05,46,013,19,04,13,116,11,27,12,172,35*75
$GPGSV,3,2,10,12,04,216,17,26,84,123,27,15,60,214,40,02,48,096,*70
$GPGSV,3,3,10,29,38,301,,08,14,071,*71
$GPRMC,164622.000,A,2233.2052,N,11413.8083,E,0.0,105.6,040191,,,A*64
$GPGGA,164622.000,2233.2052,N,11413.8083,E,1,04,5.6,49.4,M,14.2,M,,0000*60
$GPVTG,105.6,T,,M,0.0,N,0.0,K,A*0F
$GPGLL,2233.2052,N,11413.8083,E,164622.00,A,A*6C
$GPGSA,A,3,10,15,26,27,,,,,,,,,6.9,5.6,4.0*3E
$GPRMC,164623.000,A,2233.2052,N,11413.8083,E,0.0,105.6,040191,,,A*65
$GPGGA,164623.000,2233.2052,N,11413.8083,E,1,04,5.6,49.4,M,14.2,M,,0000*61
$GPVTG,105.6,T,,M,0.0,N,0.0,K,A*0F
$GPGLL,2233.2052,N,11413.8083,E,164623.00,A,A*6D
$GPGSA,A,3,10,15,26,27,,,,,,,,,6.9,5.6,4.0*3E
$GPRMC,164624.000,A,2233.2052,N,11413.8083,E,0.0,105.6,040191,,,A*62
$GPGGA,164624.000,2233.2052,N,11413.8083,E,1,04,5.6,49.4,M,14.2,M,,0000*66
$GPVTG,105.6,T,,M,0.0,N,0.0,K,A*0F
$GPGLL,2233.2052,N,11413.8083,E,164624.00,A,A*6A
$GPGSA,A,3,10,15,26,27,,,,,,,,,6.9,5.6,4.0*3E
$GPRMC,164625.000,A,2233.2052,N,11413.8083,E,0.0,105.6,040191,,,A*63
$GPGGA,164625.000,2233.2052,N,11413.8083,E,1,04,5.6,49.4,M,14.2,M,,0000*67
$GPVTG,105.6,T,,M,0.0,N,0.0,K,A*0F
$GPGLL,2233.2052,N,11413.8083,E,164625.00,A,A*6B
$GPGSA,A,3,10,15,26,27,,,,,,,,,6.9,5.6,4.0*3E
$GPRMC,164626.000,A,2233.2052,N,11413.8083,E,0.0,105.6,040191,,,A*60
$GPGGA,164626.000,2233.2052,N,11413.8083,E,1,04,5.6,49.4,M,14.2,M,,0000*64
$GPVTG,105.6,T,,M,0.0,N,0.0,K,A*0F
$GPGLL,2233.2052,N,11413.8083,E,164626.00,A,A*68
$GPGSA,A,3,10,15,26,27,,,,,,,,,6.9,5.6,4.0*3E
$GPGSV,3,1,10,10,20,051,24,27,12,172,35,12,04,216,16,26,84,123,28*78
$GPGSV,3,2,10,15,60,214,40,29,38,301,18,02,48,096,,05,46,013,*77
$GPGSV,3,3,10,08,14,071,,04,13,116,*73
$GPRMC,164627.000,A,2233.2052,N,11413.8083,E,0.0,105.6,040191,,,A*61
$GPGGA,164627.000,2233.2052,N,11413.8083,E,1,04,5.6,49.4,M,14.2,M,,0000*65
$GPVTG,105.6,T,,M,0.0,N,0.0,K,A*0F
$GPGLL,2233.2052,N,11413.8083,E,164627.00,A,A*69
$GPGSA,A,3,10,15,26,27,,,,,,,,,6.9,5.6,4.0*3E
$GPRMC,164628.000,A,2233.2052,N,11413.8083,E,0.0,105.6,040191,,,A*6E
$GPGGA,164628.000,2233.2052,N,11413.8083,E,1,04,5.6,49.4,M,14.2,M,,0000*6A
$GPVTG,105.6,T,,M,0.0,N,0.0,K,A*0F
$GPGLL,2233.2052,N,11413.8083,E,164628.00,A,A*66
$GPGSA,A,3,10,15,26,27,,,,,,,,,6.9,5.6,4.0*3E
$GPRMC,164629.000,A,2233.2052,N,11413.8083,E,0.0,105.6,040191,,,A*6F
$GPGGA,164629.000,2233.2052,N,11413.8083,E,1,04,5.6,49.4,M,14.2,M,,0000*6B
$GPVTG,105.6,T,,M,0.0,N,0.0,K,A*0F
$GPGLL,2233.2052,N,11413.8083,E,164629.00,A,A*67
$GPGSA,A,3,10,15,26,27,,,,,,,,,6.9,5.6,4.0*3E
$GPRMC,164630.000,A,2233.2052,N,11413.8083,E,0.0,105.6,040191,,,A*67
$GPGGA,164630.000,2233.2052,N,11413.8083,E,1,04,5.6,49.4,M,14.2,M,,0000*63
$GPVTG,105.6,T,,M,0.0,N,0.0,K,A*0F
$GPGLL,2233.2052,N,11413.8083,E,164630.00,A,A*6F
$GPGSA,A,3,10,15,26,27,,,,,,,,,6.9,5.6,4.0*3E
$GPRMC,164631.000,A,2233.2052,N,11413.8083,E,0.0,105.6,040191,,,A*66
$GPGGA,164631.000,2233.2052,N,11413.8083,E,1,04,5.6,49.4,M,14.2,M,,0000*62
$GPVTG,105.6,T,,M,0.0,N,0.0,K,A*0F
$GPGLL,2233.2052,N,11413.8083,E,164631.00,A,A*6E
$GPGSA,A,3,10,15,26,27,,,,,,,,,6.9,5.6,4.0*3E
$GPGSV,3,1,10,10,20,051,24,27,12,172,33,12,04,216,16,26,84,122,26*71
$GPGSV,3,2,10,15,61,214,40,29,38,301,19,02,48,096,,05,46,013,*77
$GPGSV,3,3,10,08,14,071,,04,13,116,*73
$GPRMC,164632.000,A,2233.2052,N,11413.8083,E,0.0,105.6,040191,,,A*65
$GPGGA,164632.000,2233.2052,N,11413.8083,E,1,04,5.6,49.4,M,14.2,M,,0000*61
$GPVTG,105.6,T,,M,0.0,N,0.0,K,A*0F
$GPGLL,2233.2052,N,11413.8083,E,164632.00,A,A*6D
$GPGSA,A,3,10,15,26,27,,,,,,,,,6.9,5.6,4.0*3E
$GPRMC,164633.000,A,2233.2052,N,11413.8083,E,0.0,105.6,040191,,,A*64
$GPGGA,164633.000,2233.2052,N,11413.8083,E,1,04,5.6,49.4,M,14.2,M,,0000*60
$GPVTG,105.6,T,,M,0.0,N,0.0,K,A*0F
$GPGLL,2233.2052,N,11413.8083,E,164633.00,A,A*6C
$GPGSA,A,3,10,15,26,27,,,,,,,,,6.9,5.6,4.0*3E
$GPRMC,164634.000,A,2233.2052,N,11413.8083,E,0.0,105.6,040191,,,A*63
$GPGGA,164634.000,2233.2052,N,11413.8083,E,1,04,5.6,49.4,M,14.2,M,,0000*67
$GPVTG,105.6,T,,M,0.0,N,0.0,K,A*0F
$GPGLL,2233.2052,N,11413.8083,E,164634.00,A,A*6B
$GPGSA,A,3,10,15,26,27,,,,,,,,,6.9,5.6,4.0*3E
$GPRMC,164635.000,A,2233.2052,N,11413.8083,E,0.0,105.6,040191,,,A*62
$GPGGA,164635.000,2233.2052,N,11413.8083,E,1,04,5.6,49.4,M,14.2,M,,0000*66
$GPVTG,105.6,T,,M,0.0,N,0.0,K,A*0F
$GPGLL,2233.2052,N,11413.8083,E,164635.00,A,A*6A
$GPGSA,A,3,10,15,26,27,,,,,,,,,6.9,5.6,4.0*3E
$GPRMC,164636.000,A,2233.2052,N,11413.8083,E,0.0,105.6,040191,,,A*61
$GPGGA,164636.000,2233.2052,N,11413.8083,E,1,04,5.6,49.4,M,14.2,M,,0000*65
$GPVTG,105.6,T,,M,0.0,N,0.0,K,A*0F
$GPGLL,2233.2052,N,11413.8083,E,164636.00,A,A*69
$GPGSA,A,3,10,15,26,27,,,,,,,,,6.9,5.6,4.0*3E
$GPGSV,3,1,10,10,20,051,24,27,12,172,33,12,04,216,14,26,84,122,26*73
$GPGSV,3,2,10,15,61,214,39,29,38,301,17,02,48,097,,05,46,013,*76
$GPGSV,3,3,10,08,14,071,,04,13,116,*73
$GPRMC,164637.000,A,2233.2052,N,11413.8083,E,0.0,105.6,040191,,,A*60
$GPGGA,164637.000,2233.2052,N,11413.8083,E,1,04,5.6,49.4,M,14.2,M,,0000*64
$GPVTG,105.6,T,,M,0.0,N,0.0,K,A*0F
$GPGLL,2233.2052,N,11413.8083,E,164637.00,A,A*68
$GPGSA,A,3,10,15,26,27,,,,,,,,,6.9,5.6,4.0*3E
$GPRMC,164638.000,A,2233.2052,N,11413.8083,E,0.0,105.6,040191,,,A*6F
$GPGGA,164638.000,2233.2052,N,11413.8083,E,1,04,5.6,49.4,M,14.2,M,,0000*6B
$GPVTG,105.6,T,,M,0.0,N,0.0,K,A*0F
$GPGLL,2233.2052,N,11413.8083,E,164638.00,A,A*67
$GPGSA,A,3,10,15,26,27,,,,,,,,,6.9,5.6,4.0*3E
$GPRMC,164639.000,A,2233.2052,N,11413.8083,E,0.0,105.6,040191,,,A*6E
$GPGGA,164639.000,2233.2052,N,11413.8083,E,1,04,5.6,49.4,M,14.2,M,,0000*6A
$GPVTG,105.6,T,,M,0.0,N,0.0,K,A*0F
$GPGLL,2233.2052,N,11413.8083,E,164639.00,A,A*66
$GPGSA,A,3,10,15,26,27,,,,,,,,,6.9,5.6,4.0*3E
$GPRMC,164640.000,A,2233.2052,N,11413.8083,E,0.0,105.6,040191,,,A*60
$GPGGA,164640.000,2233.2052,N,11413.8083,E,1,04,5.6,49.4,M,14.2,M,,0000*64
$GPVTG,105.6,T,,M,0.0,N,0.0,K,A*0F
$GPGLL,2233.2052,N,11413.8083,E,164640.00,A,A*68
$GPGSA,A,3,10,15,26,27,,,,,,,,,6.9,5.6,4.0*3E
$GPRMC,164641.000,A,2233.2052,N,11413.8083,E,0.0,105.6,040191,,,A*61
$GPGGA,164641.000,2233.2052,N,11413.8083,E,1,04,5.6,49.4,M,14.2,M,,0000*65
$GPVTG,105.6,T,,M,0.0,N,0.0,K,A*0F
$GPGLL,2233.2052,N,11413.8083,E,164641.00,A,A*69
$GPGSA,A,3,10,15,26,27,,,,,,,,,6.9,5.6,4.0*3E
$GPGSV,3,1,11,10,20,051,25,27,12,172,33,12,04,216,14,26,84,122,26*73
$GPGSV,3,2,11,15,61,214,38,29,38,301,15,02,48,097,,05,46,013,*74
$GPGSV,3,3,11,08,14,071,,04,13,116,,09,04,184,*42
$GPRMC,164642.000,A,2233.2052,N,11413.8083,E,0.0,105.6,040191,,,A*62
$GPGGA,164642.000,2233.2052,N,11413.8083,E,1,04,5.7,49.4,M,14.2,M,,0000*67
$GPVTG,105.6,T,,M,0.0,N,0.0,K,A*0F
$GPGLL,2233.2052,N,11413.8083,E,164642.00,A,A*6A
$GPGSA,A,3,10,15,26,27,,,,,,,,,7.0,5.7,4.0*37
$GPRMC,164643.000,A,2233.2052,N,11413.8083,E,0.0,105.6,040191,,,A*63
$GPGGA,164643.000,2233.2052,N,11413.8083,E,1,05,2.4,49.4,M,14.2,M,,0000*63
$GPVTG,105.6,T,,M,0.0,N,0.0,K,A*0F
$GPGLL,2233.2052,N,11413.8083,E,164643.00,A,A*6B
$GPGSA,A,3,02,10,15,26,27,,,,,,,,3.1,2.4,1.9*38
$GPRMC,164644.000,A,2233.2052,N,11413.8083,E,0.0,105.6,040191,,,A*64
$GPGGA,164644.000,2233.2052,N,11413.8083,E,1,05,2.4,49.4,M,14.2,M,,0000*64
$GPVTG,105.6,T,,M,0.0,N,0.0,K,A*0F
$GPGLL,2233.2052,N,11413.8083,E,164644.00,A,A*6C
$GPGSA,A,3,02,10,15,26,27,,,,,,,,3.1,2.4,1.9*38
$GPRMC,164645.000,A,2233.2052,N,11413.8083,E,0.0,105.6,040191,,,A*65
$GPGGA,164645.000,2233.2052,N,11413.8083,E,1,05,2.4,49.4,M,14.2,M,,0000*65
$GPVTG,105.6,T,,M,0.0,N,0.0,K,A*0F
$GPGLL,2233.2052,N,11413.8083,E,164645.00,A,A*6D
$GPGSA,A,3,02,10,15,26,27,,,,,,,,3.1,2.4,1.9*38
$GPRMC,164646.000,A,2233.2052,N,11413.8083,E,0.0,105.6,040191,,,A*66
$GPGGA,164646.000,2233.2052,N,11413.8083,E,1,05,2.3,49.4,M,14.2,M,,0000*61
$GPVTG,105.6,T,,M,0.0,N,0.0,K,A*0F
$GPGLL,2233.2052,N,11413.8083,E,164646.00,A,A*6E
$GPGSA,A,3,02,10,15,26,27,,,,,,,,3.0,2.3,1.9*3E
$GPGSV,3,1,11,10,20,051,25,02,48,097,17,27,12,172,33,12,04,216,14*78
$GPGSV,3,2,11,26,84,121,26,15,61,214,37,09,04,184,33,29,38,301,14*71
$GPGSV,3,3,11,05,46,013,,08,14,071,,04,13,116,*47
$GPRMC,164647.000,A,2233.2052,N,11413.8083,E,0.0,105.6,040191,,,A*67
$GPGGA,164647.000,2233.2052,N,11413.8083,E,1,05,2.3,49.4,M,14.2,M,,0000*60
$GPVTG,105.6,T,,M,0.0,N,0.0,K,A*0F
$GPGLL,2233.2052,N,11413.8083,E,164647.00,A,A*6F
$GPGSA,A,3,02,10,15,26,27,,,,,,,,3.0,2.3,1.9*3E
$GPRMC,164648.000,A,2233.2052,N,11413.8083,E,0.0,105.6,040191,,,A*68
$GPGGA,164648.000,2233.2052,N,11413.8083,E,1,06,1.8,49.4,M,14.2,M,,0000*64
$GPVTG,105.6,T,,M,0.0,N,0.0,K,A*0F
$GPGLL,2233.2052,N,11413.8083,E,164648.00,A,A*60
$GPGSA,A,3,02,05,10,15,26,27,,,,,,,2.5,1.8,1.8*36
$GPRMC,164649.000,A,2233.2052,N,11413.8083,E,0.0,105.6,040191,,,A*69
$GPGGA,164649.000,2233.2052,N,11413.8083,E,1,06,1.8,49.4,M,14.2,M,,0000*65
$GPVTG,105.6,T,,M,0.0,N,0.0,K,A*0F
$GPGLL,2233.2052,N,11413.8083,E,164649.00,A,A*61
$GPGSA,A,3,02,05,10,15,26,27,,,,,,,2.5,1.8,1.8*36
$GPRMC,164650.000,A,2233.2052,N,11413.8083,E,0.0,105.6,040191,,,A*61
$GPGGA,164650.000,2233.2052,N,11413.8083,E,1,06,1.8,49.4,M,14.2,M,,0000*6D
$GPVTG,105.6,T,,M,0.0,N,0.0,K,A*0F
$GPGLL,2233.2052,N,11413.8083,E,164650.00,A,A*69
$GPGSA,A,3,02,05,10,15,26,27,,,,,,,2.5,1.8,1.8*36
$GPRMC,164651.000,A,2233.2052,N,11413.8083,E,0.0,105.6,040191,,,A*60
$GPGGA,164651.000,2233.2052,N,11413.8083,E,1,06,1.8,49.4,M,14.2,M,,0000*6C
$GPVTG,105.6,T,,M,0.0,N,0.0,K,A*0F
$GPGLL,2233.2052,N,11413.8083,E,164651.00,A,A*68
$GPGSA,A,3,02,05,10,15,26,27,,,,,,,2.5,1.8,1.8*36
$GPGSV,3,1,11,10,20,051,25,05,46,013,12,02,48,097,16,27,12,172,34*7F
$GPGSV,3,2,11,12,04,216,14,26,84,121,26,15,61,214,36,09,04,184,33*70
$GPGSV,3,3,11,29,38,301,14,08,14,071,,04,13,116,*45
$GPRMC,164652.000,A,2233.2052,N,11413.8083,E,0.0,105.6,040191,,,A*63
$GPGGA,164652.000,2233.2052,N,11413.8083,E,1,06,1.8,49.4,M,14.2,M,,0000*6F
$GPVTG,105.6,T,,M,0.0,N,0.0,K,A*0F
$GPGLL,2233.2052,N,11413.8083,E,164652.00,A,A*6B
$GPGSA,A,3,02,05,10,15,26,27,,,,,,,2.5,1.8,1.8*36
$GPRMC,164653.000,A,2233.2052,N,11413.8083,E,0.0,105.6,040191,,,A*62
$GPGGA,164653.000,2233.2052,N,11413.8083,E,1,06,1.8,49.4,M,14.2,M,,0000*6E
$GPVTG,105.6,T,,M,0.0,N,0.0,K,A*0F
$GPGLL,2233.2052,N,11413.8083,E,164653.00,A,A*6A
$GPGSA,A,3,02,05,10,15,26,27,,,,,,,2.5,1.8,1.8*36
$GPRMC,164654.000,A,2233.2052,N,11413.8083,E,0.0,105.6,040191,,,A*65
$GPGGA,164654.000,2233.2052,N,11413.8083,E,1,06,1.8,49.4,M,14.2,M,,0000*69
$GPVTG,105.6,T,,M,0.0,N,0.0,K,A*0F
$GPGLL,2233.2052,N,11413.8083,E,164654.00,A,A*6D
$GPGSA,A,3,02,05,10,15,26,27,,,,,,,2.5,1.8,1.8*36
$GPRMC,164655.000,A,2233.2052,N,11413.8083,E,0.0,105.6,040191,,,A*64
$GPGGA,164655.000,2233.2052,N,11413.8083,E,1,06,1.8,49.4,M,14.2,M,,0000*68
$GPVTG,105.6,T,,M,0.0,N,0.0,K,A*0F
$GPGLL,2233.2052,N,11413.8083,E,164655.00,A,A*6C
$GPGSA,A,3,02,05,10,15,26,27,,,,,,,2.5,1.8,1.8*36
$GPRMC,164656.000,A,2233.2052,N,11413.8083,E,0.0,105.6,040191,,,A*67
$GPGGA,164656.000,2233.2052,N,11413.8083,E,1,06,1.8,49.4,M,14.2,M,,0000*6B
$GPVTG,105.6,T,,M,0.0,N,0.0,K,A*0F
$GPGLL,2233.2052,N,11413.8083,E,164656.00,A,A*6F
$GPGSA,A,3,02,05,10,15,26,27,,,,,,,2.5,1.8,1.8*36
$GPGSV,3,1,11,10,20,051,25,05,46,013,14,02,48,097,15,27,13,172,34*7B
$GPGSV,3,2,11,12,04,216,14,26,84,120,26,15,61,214,37,09,04,184,33*70
$GPGSV,3,3,11,29,38,301,14,08,14,071,,04,13,116,*45
$GPRMC,164657.000,A,2233.2052,N,11413.8083,E,0.0,105.6,040191,,,A*66
$GPGGA,164657.000,2233.2052,N,11413.8083,E,1,06,1.8,49.4,M,14.2,M,,0000*6A
$GPVTG,105.6,T,,M,0.0,N,0.0,K,A*0F
$GPGLL,2233.2052,N,11413.8083,E,164657.00,A,A*6E
$GPGSA,A,3,02,05,10,15,26,27,,,,,,,2.5,1.8,1.8*36
$GPRMC,164658.000,A,2233.2052,N,11413.8083,E,0.0,105.6,040191,,,A*69
$GPGGA,164658.000,2233.2052,N,11413.8083,E,1,06,1.8,49.4,M,14.2,M,,0000*65
$GPVTG,105.6,T,,M,0.0,N,0.0,K,A*0F
$GPGLL,2233.2052,N,11413.8083,E,164658.00,A,A*61
$GPGSA,A,3,02,05,10,15,26,27,,,,,,,2.5,1.8,1.8*36
$GPRMC,164659.000,A,2233.2052,N,11413.8083,E,0.0,105.6,040191,,,A*68
$GPGGA,164659.000,2233.2052,N,11413.8083,E,1,06,1.8,49.4,M,14.2,M,,0000*64
$GPVTG,105.6,T,,M,0.0,N,0.0,K,A*0F
$GPGLL,2233.2052,N,11413.8083,E,164659.00,A,A*60
$GPGSA,A,3,02,05,10,15,26,27,,,,,,,2.5,1.8,1.8*36
$GPRMC,164700.000,A,2233.2052,N,11413.8083,E,0.0,105.6,040191,,,A*65
$GPGGA,164700.000,2233.2052,N,11413.8083,E,1,06,1.8,49.4,M,14.2,M,,0000*69
$GPVTG,105.6,T,,M,0.0,N,0.0,K,A*0F
$GPGLL,2233.2052,N,11413.8083,E,164700.00,A,A*6D
$GPGSA,A,3,02,05,10,15,26,27,,,,,,,2.5,1.8,1.8*36
$GPRMC,164701.000,A,2233.2052,N,11413.8083,E,0.0,105.6,040191,,,A*64
$GPGGA,164701.000,2233.2052,N,11413.8083,E,1,06,1.8,49.4,M,14.2,M,,0000*68
$GPVTG,105.6,T,,M,0.0,N,0.0,K,A*0F
$GPGLL,2233.2052,N,11413.8083,E,164701.00,A,A*6C
$GPGSA,A,3,02,05,10,15,26,27,,,,,,,2.5,1.8,1.8*36
$GPGSV,3,1,11,10,20,051,24,05,46,013,15,02,48,097,14,27,13,172,35*7B
$GPGSV,3,2,11,12,04,216,15,26,84,120,24,15,61,214,39,09,04,184,35*7B
$GPGSV,3,3,11,29,38,301,14,08,14,071,,04,13,116,*45
$GPRMC,164702.000,A,2233.2052,N,11413.8083,E,0.0,105.6,040191,,,A*67
$GPGGA,164702.000,2233.2052,N,11413.8083,E,1,06,1.8,49.4,M,14.2,M,,0000*6B
$GPVTG,105.6,T,,M,0.0,N,0.0,K,A*0F
$GPGLL,2233.2052,N,11413.8083,E,164702.00,A,A*6F
$GPGSA,A,3,02,05,10,15,26,27,,,,,,,2.5,1.8,1.8*36
$GPRMC,164703.000,A,2233.2052,N,11413.8083,E,0.0,105.6,040191,,,A*66
$GPGGA,164703.000,2233.2052,N,11413.8083,E,1,06,1.8,49.4,M,14.2,M,,0000*6A
$GPVTG,105.6,T,,M,0.0,N,0.0,K,A*0F
$GPGLL,2233.2052,N,11413.8083,E,164703.00,A,A*6E
$GPGSA,A,3,02,05,10,15,26,27,,,,,,,2.5,1.8,1.8*36
$GPRMC,164704.000,A,2233.2052,N,11413.8083,E,0.0,105.6,040191,,,A*61
$GPGGA,164704.000,2233.2052,N,11413.8083,E,1,06,1.8,49.4,M,14.2,M,,0000*6D
$GPVTG,105.6,T,,M,0.0,N,0.0,K,A*0F
$GPGLL,2233.2052,N,11413.8083,E,164704.00,A,A*69
$GPGSA,A,3,02,05,10,15,26,27,,,,,,,2.5,1.8,1.8*36
$GPRMC,164705.000,A,2233.2052,N,11413.8083,E,0.0,105.6,040191,,,A*60
$GPGGA,164705.000,2233.2052,N,11413.8083,E,1,06,1.8,49.4,M,14.2,M,,0000*6C
$GPVTG,105.6,T,,M,0.0,N,0.0,K,A*0F
$GPGLL,2233.2052,N,11413.8083,E,164705.00,A,A*68
$GPGSA,A,3,02,05,10,15,26,27,,,,,,,2.5,1.8,1.8*36
$GPRMC,164706.000,A,2233.2052,N,11413.8083,E,0.0,105.6,040191,,,A*63
$GPGGA,164706.000,2233.2052,N,11413.8083,E,1,06,1.8,49.4,M,14.2,M,,0000*6F
$GPVTG,105.6,T,,M,0.0,N,0.0,K,A*0F
$GPGLL,2233.2052,N,11413.8083,E,164706.00,A,A*6B
$GPGSA,A,3,02,05,10,15,26,27,,,,,,,2.5,1.8,1.8*36
$GPGSV,3,1,11,10,20,051,22,05,46,013,17,02,48,097,13,27,13,172,34*79
$GPGSV,3,2,11,12,04,216,19,26,84,119,22,15,61,214,40,09,04,184,36*76
$GPGSV,3,3,11,29,38,301,14,08,14,071,,04,13,116,*45
$GPRMC,164707.000,A,2233.2052,N,11413.8083,E,0.0,105.6,040191,,,A*62
$GPGGA,164707.000,2233.2052,N,11413.8083,E,1,06,1.8,49.4,M,14.2,M,,0000*6E
$GPVTG,105.6,T,,M,0.0,N,0.0,K,A*0F
$GPGLL,2233.2052,N,11413.8083,E,164707.00,A,A*6A
$GPGSA,A,3,02,05,10,15,26,27,,,,,,,2.5,1.8,1.8*36
$GPRMC,164708.000,A,2233.2052,N,11413.8083,E,0.0,105.6,040191,,,A*6D
$GPGGA,164708.000,2233.2052,N,11413.8083,E,1,07,1.5,49.4,M,14.2,M,,0000*6D
$GPVTG,105.6,T,,M,0.0,N,0.0,K,A*0F
$GPGLL,2233.2052,N,11413.8083,E,164708.00,A,A*65
$GPGSA,A,3,02,04,05,10,15,26,27,,,,,,2.3,1.5,1.8*39
$GPRMC,164709.000,A,2233.2052,N,11413.8083,E,0.0,105.6,040191,,,A*6C
$GPGGA,164709.000,2233.2052,N,11413.8083,E,1,07,1.5,49.4,M,14.2,M,,0000*6C
$GPVTG,105.6,T,,M,0.0,N,0.0,K,A*0F
$GPGLL,2233.2052,N,11413.8083,E,164709.00,A,A*64
$GPGSA,A,3,02,04,05,10,15,26,27,,,,,,2.3,1.5,1.8*39
$GPRMC,164710.000,A,2233.2052,N,11413.8083,E,0.0,105.6,040191,,,A*64
$GPGGA,164710.000,2233.2052,N,11413.8083,E,1,07,1.5,49.4,M,14.2,M,,0000*64
$GPVTG,105.6,T,,M,0.0,N,0.0,K,A*0F
$GPGLL,2233.2052,N,11413.8083,E,164710.00,A,A*6C
$GPGSA,A,3,02,04,05,10,15,26,27,,,,,,2.3,1.5,1.8*39
$GPRMC,164711.000,A,2233.2052,N,11413.8083,E,0.0,105.6,040191,,,A*65
$GPGGA,164711.000,2233.2052,N,11413.8083,E,1,07,1.5,49.4,M,14.2,M,,0000*65
$GPVTG,105.6,T,,M,0.0,N,0.0,K,A*0F
$GPGLL,2233.2052,N,11413.8083,E,164711.00,A,A*6D
$GPGSA,A,3,02,04,05,10,15,26,27,,,,,,2.3,1.5,1.8*39
$GPGSV,3,1,11,10,20,052,23,05,46,013,18,02,48,097,12,04,13,116,11*71
$GPGSV,3,2,11,27,13,172,35,12,04,216,19,26,84,119,25,15,61,214,41*70
$GPGSV,3,3,11,09,04,184,37,29,38,301,,08,14,070,*45
$GPRMC,164712.000,A,2233.2052,N,11413.8083,E,0.0,105.6,040191,,,A*66
$GPGGA,164712.000,2233.2052,N,11413.8083,E,1,07,1.5,49.4,M,14.2,M,,0000*66
$GPVTG,105.6,T,,M,0.0,N,0.0,K,A*0F
$GPGLL,2233.2052,N,11413.8083,E,164712.00,A,A*6E
$GPGSA,A,3,02,04,05,10,15,26,27,,,,,,2.3,1.5,1.8*39
$GPRMC,164713.000,A,2233.2052,N,11413.8083,E,0.0,105.6,040191,,,A*67
$GPGGA,164713.000,2233.2052,N,11413.8083,E,1,07,1.5,49.4,M,14.2,M,,0000*67
$GPVTG,105.6,T,,M,0.0,N,0.0,K,A*0F
$GPGLL,2233.2052,N,11413.8083,E,164713.00,A,A*6F
$GPGSA,A,3,02,04,05,10,15,26,27,,,,,,2.3,1.5,1.8*39
$GPRMC,164714.000,A,2233.2052,N,11413.8083,E,0.0,105.6,040191,,,A*60
$GPGGA,164714.000,2233.2052,N,11413.8083,E,1,07,1.5,49.4,M,14.2,M,,0000*60
$GPVTG,105.6,T,,M,0.0,N,0.0,K,A*0F
$GPGLL,2233.2052,N,11413.8083,E,164714.00,A,A*68
$GPGSA,A,3,02,04,05,10,15,26,27,,,,,,2.3,1.5,1.8*39
$GPRMC,164715.000,A,2233.2052,N,11413.8083,E,0.0,105.6,040191,,,A*61
$GPGGA,164715.000,2233.2052,N,11413.8083,E,1,07,1.5,49.4,M,14.2,M,,0000*61
$GPVTG,105.6,T,,M,0.0,N,0.0,K,A*0F
$GPGLL,2233.2052,N,11413.8083,E,164715.00,A,A*69
$GPGSA,A,3,02,04,05,10,15,26,27,,,,,,2.3,1.5,1.8*39
$GPRMC,164716.000,A,2233.2052,N,11413.8083,E,0.0,105.6,040191,,,A*62
$GPGGA,164716.000,2233.2052,N,11413.8083,E,1,07,1.5,49.4,M,14.2,M,,0000*62
$GPVTG,105.6,T,,M,0.0,N,0.0,K,A*0F
$GPGLL,2233.2052,N,11413.8083,E,164716.00,A,A*6A
$GPGSA,A,3,02,04,05,10,15,26,27,,,,,,2.3,1.5,1.8*39
$GPGSV,3,1,11,10,20,052,23,05,46,014,17,02,47,097,12,04,13,116,12*75
$GPGSV,3,2,11,27,13,172,35,12,04,216,16,26,84,118,24,15,61,214,41*7F
$GPGSV,3,3,11,09,04,184,38,29,38,301,,08,14,070,*4A
$GPRMC,164717.000,A,2233.2052,N,11413.8083,E,0.0,105.6,040191,,,A*63
$GPGGA,164717.000,2233.2052,N,11413.8083,E,1,07,1.5,49.4,M,14.2,M,,0000*63
$GPVTG,105.6,T,,M,0.0,N,0.0,K,A*0F
$GPGLL,2233.2052,N,11413.8083,E,164717.00,A,A*6B
$GPGSA,A,3,02,04,05,10,15,26,27,,,,,,2.3,1.5,1.8*39
$GPRMC,164718.000,A,2233.2052,N,11413.8083,E,0.0,105.6,040191,,,A*6C
$GPGGA,164718.000,2233.2052,N,11413.8083,E,1,06,2.1,49.4,M,14.2,M,,0000*6A
$GPVTG,105.6,T,,M,0.0,N,0.0,K,A*0F
$GPGLL,2233.2052,N,11413.8083,E,164718.00,A,A*64
$GPGSA,A,3,04,05,10,15,26,27,,,,,,,3.2,2.1,2.4*33
$GPRMC,164719.000,A,2233.2052,N,11413.8083,E,0.0,105.6,040191,,,A*6D
$GPGGA,164719.000,2233.2052,N,11413.8083,E,1,06,2.1,49.4,M,14.2,M,,0000*6B
$GPVTG,105.6,T,,M,0.0,N,0.0,K,A*0F
$GPGLL,2233.2052,N,11413.8083,E,164719.00,A,A*65
$GPGSA,A,3,04,05,10,15,26,27,,,,,,,3.2,2.1,2.4*33
$GPRMC,164720.000,A,2233.2052,N,11413.8083,E,0.0,105.6,040191,,,A*67
$GPGGA,164720.000,2233.2052,N,11413.8083,E,1,06,2.1,49.4,M,14.2,M,,0000*61
$GPVTG,105.6,T,,M,0.0,N,0.0,K,A*0F
$GPGLL,2233.2052,N,11413.8083,E,164720.00,A,A*6F
$GPGSA,A,3,04,05,10,15,26,27,,,,,,,3.2,2.1,2.4*33
$GPRMC,164721.000,A,2233.2052,N,11413.8083,E,0.0,105.6,040191,,,A*66
$GPGGA,164721.000,2233.2052,N,11413.8083,E,1,06,2.1,49.4,M,14.2,M,,0000*60
$GPVTG,105.6,T,,M,0.0,N,0.0,K,A*0F
$GPGLL,2233.2052,N,11413.8083,E,164721.00,A,A*6E
$GPGSA,A,3,04,05,10,15,26,27,,,,,,,3.2,2.1,2.4*33
$GPGSV,3,1,11,10,20,052,22,05,46,014,16,04,13,116,14,27,13,172,35*7A
$GPGSV,3,2,11,12,04,216,15,26,84,118,22,15,61,214,40,09,04,184,37*7A
$GPGSV,3,3,11,29,38,301,,02,47,097,,08,14,070,*4E
$GPRMC,164722.000,A,2233.2052,N,11413.8083,E,0.0,105.6,040191,,,A*65
$GPGGA,164722.000,2233.2052,N,11413.8083,E,1,06,2.1,49.4,M,14.2,M,,0000*63
$GPVTG,105.6,T,,M,0.0,N,0.0,K,A*0F
$GPGLL,2233.2052,N,11413.8083,E,164722.00,A,A*6D
$GPGSA,A,3,04,05,10,15,26,27,,,,,,,3.2,2.1,2.4*33
$GPRMC,164723.000,A,2233.2052,N,11413.8083,E,0.0,105.6,040191,,,A*64
$GPGGA,164723.000,2233.2052,N,11413.8083,E,1,06,2.1,49.4,M,14.2,M,,0000*62
$GPVTG,105.6,T,,M,0.0,N,0.0,K,A*0F
$GPGLL,2233.2052,N,11413.8083,E,164723.00,A,A*6C
$GPGSA,A,3,04,05,10,15,26,27,,,,,,,3.2,2.1,2.4*33
$GPRMC,164724.000,A,2233.2052,N,11413.8083,E,0.0,105.6,040191,,,A*63
$GPGGA,164724.000,2233.2052,N,11413.8083,E,1,06,2.1,49.4,M,14.2,M,,0000*65
$GPVTG,105.6,T,,M,0.0,N,0.0,K,A*0F
$GPGLL,2233.2052,N,11413.8083,E,164724.00,A,A*6B
$GPGSA,A,3,04,05,10,15,26,27,,,,,,,3.2,2.1,2.4*33
$GPRMC,164725.000,A,2233.2052,N,11413.8083,E,0.0,105.6,040191,,,A*62
$GPGGA,164725.000,2233.2052,N,11413.8083,E,1,06,2.1,49.4,M,14.2,M,,0000*64
$GPVTG,105.6,T,,M,0.0,N,0.0,K,A*0F
$GPGLL,2233.2052,N,11413.8083,E,164725.00,A,A*6A
$GPGSA,A,3,04,05,10,15,26,27,,,,,,,3.2,2.1,2.4*33
$GPRMC,164726.000,A,2233.2052,N,11413.8083,E,0.0,105.6,040191,,,A*61
$GPGGA,164726.000,2233.2052,N,11413.8083,E,1,06,2.1,49.4,M,14.2,M,,0000*67
$GPVTG,105.6,T,,M,0.0,N,0.0,K,A*0F
$GPGLL,2233.2052,N,11413.8083,E,164726.00,A,A*69
$GPGSA,A,3,04,05,10,15,26,27,,,,,,,3.2,2.1,2.4*33
$GPGSV,3,1,11,10,20,052,24,05,46,014,16,04,13,116,14,27,13,172,36*7F
$GPGSV,3,2,11,12,04,216,20,26,84,118,26,15,61,214,40,09,04,184,38*77
$GPGSV,3,3,11,29,38,301,16,02,47,097,,08,14,070,*49
$GPRMC,164727.000,A,2233.2052,N,11413.8083,E,0.0,105.6,040191,,,A*60
$GPGGA,164727.000,2233.2052,N,11413.8083,E,1,06,2.1,49.4,M,14.2,M,,0000*66
$GPVTG,105.6,T,,M,0.0,N,0.0,K,A*0F
$GPGLL,2233.2052,N,11413.8083,E,164727.00,A,A*68
$GPGSA,A,3,04,05,10,15,26,27,,,,,,,3.2,2.1,2.4*33
$GPRMC,164728.000,A,2233.2052,N,11413.8083,E,0.0,105.6,040191,,,A*6F
$GPGGA,164728.000,2233.2052,N,11413.8083,E,1,06,2.1,49.4,M,14.2,M,,0000*69
$GPVTG,105.6,T,,M,0.0,N,0.0,K,A*0F
$GPGLL,2233.2052,N,11413.8083,E,164728.00,A,A*67
$GPGSA,A,3,04,05,10,15,26,27,,,,,,,3.2,2.1,2.4*33
$GPRMC,164729.000,A,2233.2052,N,11413.8083,E,0.0,105.6,040191,,,A*6E
$GPGGA,164729.000,2233.2052,N,11413.8083,E,1,06,2.1,49.4,M,14.2,M,,0000*68
$GPVTG,105.6,T,,M,0.0,N,0.0,K,A*0F
$GPGLL,2233.2052,N,11413.8083,E,164729.00,A,A*66
$GPGSA,A,3,04,05,10,15,26,27,,,,,,,3.2,2.1,2.4*33
$GPRMC,164730.000,A,2233.2052,N,11413.8083,E,0.0,105.6,040191,,,A*66
$GPGGA,164730.000,2233.2052,N,11413.8083,E,1,06,2.1,49.4,M,14.2,M,,0000*60
$GPVTG,105.6,T,,M,0.0,N,0.0,K,A*0F
$GPGLL,2233.2052,N,11413.8083,E,164730.00,A,A*6E
$GPGSA,A,3,04,05,10,15,26,27,,,,,,,3.2,2.1,2.4*33
$GPRMC,164731.000,A,2233.2052,N,11413.8083,E,0.0,105.6,040191,,,A*67
$GPGGA,164731.000,2233.2052,N,11413.8083,E,1,06,2.1,49.4,M,14.2,M,,0000*61
$GPVTG,105.6,T,,M,0.0,N,0.0,K,A*0F
$GPGLL,2233.2052,N,11413.8083,E,164731.00,A,A*6F
$GPGSA,A,3,04,05,10,15,26,27,,,,,,,3.2,2.1,2.4*33
$GPGSV,3,1,11,10,20,052,22,05,46,014,17,04,13,116,13,27,13,172,35*7C
$GPGSV,3,2,11,12,04,216,22,26,84,117,26,15,61,214,38,09,04,184,37*7A
$GPGSV,3,3,11,29,38,301,,02,47,097,,08,14,070,*4E
$GPRMC,164732.000,A,2233.2052,N,11413.8083,E,0.0,105.6,040191,,,A*64
$GPGGA,164732.000,2233.2052,N,11413.8083,E,1,06,2.1,49.4,M,14.2,M,,0000*62
$GPVTG,105.6,T,,M,0.0,N,0.0,K,A*0F
$GPGLL,2233.2052,N,11413.8083,E,164732.00,A,A*6C
$GPGSA,A,3,04,05,10,15,26,27,,,,,,,3.2,2.1,2.4*33
$GPRMC,164733.000,A,2233.2052,N,11413.8083,E,0.0,105.6,040191,,,A*65
$GPGGA,164733.000,2233.2052,N,11413.8083,E,1,06,2.1,49.4,M,14.2,M,,0000*63
$GPVTG,105.6,T,,M,0.0,N,0.0,K,A*0F
$GPGLL,2233.2052,N,11413.8083,E,164733.00,A,A*6D
$GPGSA,A,3,04,05,10,15,26,27,,,,,,,3.2,2.1,2.4*33
$GPRMC,164734.000,A,2233.2052,N,11413.8083,E,0.0,105.6,040191,,,A*62
$GPGGA,164734.000,2233.2052,N,11413.8083,E,1,06,2.1,49.4,M,14.2,M,,0000*64
$GPVTG,105.6,T,,M,0.0,N,0.0,K,A*0F
$GPGLL,2233.2052,N,11413.8083,E,164734.00,A,A*6A
$GPGSA,A,3,04,05,10,15,26,27,,,,,,,3.2,2.1,2.4*33
$GPRMC,164735.000,A,2233.2052,N,11413.8083,E,0.0,105.6,040191,,,A*63
$GPGGA,164735.000,2233.2052,N,11413.8083,E,1,06,2.1,49.4,M,14.2,M,,0000*65
$GPVTG,105.6,T,,M,0.0,N,0.0,K,A*0F
$GPGLL,2233.2052,N,11413.8083,E,164735.00,A,A*6B
$GPGSA,A,3,04,05,10,15,26,27,,,,,,,3.2,2.1,2.4*33
$GPRMC,164736.000,A,2233.2052,N,11413.8083,E,0.0,105.6,040191,,,A*60
$GPGGA,164736.000,2233.2052,N,11413.8083,E,1,06,2.1,49.4,M,14.2,M,,0000*66
$GPVTG,105.6,T,,M,0.0,N,0.0,K,A*0F
$GPGLL,2233.2052,N,11413.8083,E,164736.00,A,A*68
$GPGSA,A,3,04,05,10,15,26,27,,,,,,,3.2,2.1,2.4*33
$GPGSV,3,1,11,10,19,052,21,05,46,014,18,04,13,116,11,27,13,172,36*7B
$GPGSV,3,2,11,12,04,216,21,26,84,117,27,15,61,214,39,09,04,184,38*76
$GPGSV,3,3,11,02,47,097,,29,38,300,,08,14,070,*4F
$GPRMC,164737.000,A,2233.2052,N,11413.8083,E,0.0,105.6,040191,,,A*61
$GPGGA,164737.000,2233.2052,N,11413.8083,E,1,06,2.1,49.4,M,14.2,M,,0000*67
$GPVTG,105.6,T,,M,0.0,N,0.0,K,A*0F
$GPGLL,2233.2052,N,11413.8083,E,164737.00,A,A*69
$GPGSA,A,3,04,05,10,15,26,27,,,,,,,3.2,2.1,2.4*33
$GPRMC,164738.000,A,2233.2052,N,11413.8083,E,0.0,105.6,040191,,,A*6E
$GPGGA,164738.000,2233.2052,N,11413.8083,E,1,06,2.1,49.4,M,14.2,M,,0000*68
$GPVTG,105.6,T,,M,0.0,N,0.0,K,A*0F
$GPGLL,2233.2052,N,11413.8083,E,164738.00,A,A*66
$GPGSA,A,3,04,05,10,15,26,27,,,,,,,3.2,2.1,2.4*33
$GPRMC,164739.000,A,2233.2052,N,11413.8083,E,0.0,105.6,040191,,,A*6F
$GPGGA,164739.000,2233.2052,N,11413.8083,E,1,05,3.4,49.4,M,14.2,M,,0000*6E
$GPVTG,105.6,T,,M,0.0,N,0.0,K,A*0F
$GPGLL,2233.2052,N,11413.8083,E,164739.00,A,A*67
$GPGSA,A,3,05,10,15,26,27,,,,,,,,4.4,3.4,2.8*3E
$GPRMC,164740.000,A,2233.2052,N,11413.8083,E,0.0,105.6,040191,,,A*61
$GPGGA,164740.000,2233.2052,N,11413.8083,E,1,06,2.1,49.4,M,14.2,M,,0000*67
$GPVTG,105.6,T,,M,0.0,N,0.0,K,A*0F
$GPGLL,2233.2052,N,11413.8083,E,164740.00,A,A*69
$GPGSA,A,3,04,05,10,15,26,27,,,,,,,3.2,2.1,2.4*33
$GPRMC,164741.000,A,2233.2052,N,11413.8083,E,0.0,105.6,040191,,,A*60
$GPGGA,164741.000,2233.2052,N,11413.8083,E,1,06,2.1,49.4,M,14.2,M,,0000*66
$GPVTG,105.6,T,,M,0.0,N,0.0,K,A*0F
$GPGLL,2233.2052,N,11413.8083,E,164741.00,A,A*68
$GPGSA,A,3,04,05,10,15,26,27,,,,,,,3.2,2.1,2.4*33
$GPGSV,3,1,11,10,19,052,23,05,46,014,13,04,13,116,11,27,13,172,35*71
$GPGSV,3,2,11,12,04,216,21,26,84,116,25,15,61,214,39,09,04,184,36*7B
$GPGSV,3,3,11,29,38,300,19,02,47,097,,08,14,070,*47
$GPRMC,164742.000,A,2233.2052,N,11413.8083,E,0.0,105.6,040191,,,A*63
$GPGGA,164742.000,2233.2052,N,11413.8083,E,1,05,3.4,49.4,M,14.2,M,,0000*62
$GPVTG,105.6,T,,M,0.0,N,0.0,K,A*0F
$GPGLL,2233.2052,N,11413.8083,E,164742.00,A,A*6B
$GPGSA,A,3,05,10,15,26,27,,,,,,,,4.4,3.4,2.8*3E
$GPRMC,164743.000,A,2233.2052,N,11413.8083,E,0.0,105.6,040191,,,A*62
$GPGGA,164743.000,2233.2052,N,11413.8083,E,1,05,3.4,49.4,M,14.2,M,,0000*63
$GPVTG,105.6,T,,M,0.0,N,0.0,K,A*0F
$GPGLL,2233.2052,N,11413.8083,E,164743.00,A,A*6A
$GPGSA,A,3,05,10,15,26,27,,,,,,,,4.4,3.4,2.8*3E
$GPRMC,164744.000,A,2233.2052,N,11413.8083,E,0.0,105.6,040191,,,A*65
$GPGGA,164744.000,2233.2052,N,11413.8083,E,1,05,3.4,49.4,M,14.2,M,,0000*64
$GPVTG,105.6,T,,M,0.0,N,0.0,K,A*0F
$GPGLL,2233.2052,N,11413.8083,E,164744.00,A,A*6D
$GPGSA,A,3,05,10,15,26,27,,,,,,,,4.4,3.4,2.8*3E
$GPRMC,164745.000,A,2233.2052,N,11413.8083,E,0.0,105.6,040191,,,A*64
$GPGGA,164745.000,2233.2052,N,11413.8083,E,1,04,5.7,49.4,M,14.2,M,,0000*61
$GPVTG,105.6,T,,M,0.0,N,0.0,K,A*0F
$GPGLL,2233.2052,N,11413.8083,E,164745.00,A,A*6C
$GPGSA,A,3,10,15,26,27,,,,,,,,,7.0,5.7,4.1*36
$GPRMC,164746.000,A,2233.2052,N,11413.8083,E,0.0,105.6,040191,,,A*67
$GPGGA,164746.000,2233.2052,N,11413.8083,E,1,04,5.7,49.4,M,14.2,M,,0000*62
$GPVTG,105.6,T,,M,0.0,N,0.0,K,A*0F
$GPGLL,2233.2052,N,11413.8083,E,164746.00,A,A*6F
$GPGSA,A,3,10,15,26,27,,,,,,,,,7.0,5.7,4.1*36
$GPGSV,3,1,11,10,19,052,25,05,46,014,16,27,13,172,36,12,04,216,20*71
$GPGSV,3,2,11,26,84,116,26,15,61,214,39,09,04,184,36,29,38,300,19*72
$GPGSV,3,3,11,02,47,097,,08,14,070,,04,13,116,*4C
$GPRMC,164747.000,A,2233.2052,N,11413.8083,E,0.0,105.6,040191,,,A*66
$GPGGA,164747.000,2233.2052,N,11413.8083,E,1,04,5.7,49.4,M,14.2,M,,0000*63
$GPVTG,105.6,T,,M,0.0,N,0.0,K,A*0F
$GPGLL,2233.2052,N,11413.8083,E,164747.00,A,A*6E
$GPGSA,A,3,10,15,26,27,,,,,,,,,7.0,5.7,4.1*36
$GPRMC,164748.000,A,2233.2052,N,11413.8083,E,0.0,105.6,040191,,,A*69
$GPGGA,164748.000,2233.2052,N,11413.8083,E,1,04,5.7,49.4,M,14.2,M,,0000*6C
$GPVTG,105.6,T,,M,0.0,N,0.0,K,A*0F
$GPGLL,2233.2052,N,11413.8083,E,164748.00,A,A*61
$GPGSA,A,3,10,15,26,27,,,,,,,,,7.0,5.7,4.1*36
$GPRMC,164749.000,A,2233.2052,N,11413.8083,E,0.0,105.6,040191,,,A*68
$GPGGA,164749.000,2233.2052,N,11413.8083,E,1,05,2.3,49.4,M,14.2,M,,0000*6F
$GPVTG,105.6,T,,M,0.0,N,0.0,K,A*0F
$GPGLL,2233.2052,N,11413.8083,E,164749.00,A,A*60
$GPGSA,A,3,02,10,15,26,27,,,,,,,,3.0,2.3,1.9*3E
$GPRMC,164750.000,A,2233.2052,N,11413.8083,E,0.0,105.6,040191,,,A*60
$GPGGA,164750.000,2233.2052,N,11413.8083,E,1,05,2.3,49.4,M,14.2,M,,0000*67
$GPVTG,105.6,T,,M,0.0,N,0.0,K,A*0F
$GPGLL,2233.2052,N,11413.8083,E,164750.00,A,A*68
$GPGSA,A,3,02,10,15,26,27,,,,,,,,3.0,2.3,1.9*3E
$GPRMC,164751.000,A,2233.2052,N,11413.8083,E,0.0,105.6,040191,,,A*61
$GPGGA,164751.000,2233.2052,N,11413.8083,E,1,04,5.7,49.4,M,14.2,M,,0000*64
$GPVTG,105.6,T,,M,0.0,N,0.0,K,A*0F
$GPGLL,2233.2052,N,11413.8083,E,164751.00,A,A*69
$GPGSA,A,3,10,15,26,27,,,,,,,,,7.0,5.7,4.1*36
$GPGSV,3,1,11,10,19,052,23,02,47,097,11,27,13,172,35,12,04,216,22*7C
$GPGSV,3,2,11,26,84,115,27,15,61,214,40,09,04,184,36,29,38,300,16*71
$GPGSV,3,3,11,05,46,014,,08,14,070,,04,13,116,*41
$GPRMC,164752.000,A,2233.2052,N,11413.8083,E,0.0,105.6,040191,,,A*62
$GPGGA,164752.000,2233.2052,N,11413.8083,E,1,05,2.3,49.4,M,14.2,M,,0000*65
$GPVTG,105.6,T,,M,0.0,N,0.0,K,A*0F
$GPGLL,2233.2052,N,11413.8083,E,164752.00,A,A*6A
$GPGSA,A,3,02,10,15,26,27,,,,,,,,3.0,2.3,1.9*3E
$GPRMC,164753.000,A,2233.2052,N,11413.8083,E,0.0,105.6,040191,,,A*63
$GPGGA,164753.000,2233.2052,N,11413.8083,E,1,05,2.3,49.4,M,14.2,M,,0000*64
$GPVTG,105.6,T,,M,0.0,N,0.0,K,A*0F
$GPGLL,2233.2052,N,11413.8083,E,164753.00,A,A*6B
$GPGSA,A,3,02,10,15,26,27,,,,,,,,3.0,2.3,1.9*3E
$GPRMC,164754.000,A,2233.2052,N,11413.8083,E,0.0,105.6,040191,,,A*64
$GPGGA,164754.000,2233.2052,N,11413.8083,E,1,05,2.3,49.4,M,14.2,M,,0000*63
$GPVTG,105.6,T,,M,0.0,N,0.0,K,A*0F
$GPGLL,2233.2052,N,11413.8083,E,164754.00,A,A*6C
$GPGSA,A,3,02,10,15,26,27,,,,,,,,3.0,2.3,1.9*3E
$GPRMC,164755.000,A,2233.2052,N,11413.8083,E,0.0,105.6,040191,,,A*65
$GPGGA,164755.000,2233.2052,N,11413.8083,E,1,05,2.3,49.4,M,14.2,M,,0000*62
$GPVTG,105.6,T,,M,0.0,N,0.0,K,A*0F
$GPGLL,2233.2052,N,11413.8083,E,164755.00,A,A*6D
$GPGSA,A,3,02,10,15,26,27,,,,,,,,3.0,2.3,1.9*3E
$GPRMC,164756.000,A,2233.2052,N,11413.8083,E,0.0,105.6,040191,,,A*66
$GPGGA,164756.000,2233.2052,N,11413.8083,E,1,05,2.3,49.4,M,14.2,M,,0000*61
$GPVTG,105.6,T,,M,0.0,N,0.0,K,A*0F
$GPGLL,2233.2052,N,11413.8083,E,164756.00,A,A*6E
$GPGSA,A,3,02,10,15,26,27,,,,,,,,3.0,2.3,1.9*3E
$GPGSV,3,1,11,10,19,052,21,02,47,097,12,27,13,172,36,12,04,216,21*7D
$GPGSV,3,2,11,26,84,115,28,15,61,214,40,09,04,184,36,29,38,300,15*7D
$GPGSV,3,3,11,05,46,014,,08,14,070,,04,13,116,*41
$GPRMC,164757.000,A,2233.2052,N,11413.8083,E,0.0,105.6,040191,,,A*67
$GPGGA,164757.000,2233.2052,N,11413.8083,E,1,05,2.3,49.4,M,14.2,M,,0000*60
$GPVTG,105.6,T,,M,0.0,N,0.0,K,A*0F
$GPGLL,2233.2052,N,11413.8083,E,164757.00,A,A*6F
$GPGSA,A,3,02,10,15,26,27,,,,,,,,3.0,2.3,1.9*3E
$GPRMC,164758.000,A,2233.2052,N,11413.8083,E,0.0,105.6,040191,,,A*68
$GPGGA,164758.000,2233.2052,N,11413.8083,E,1,05,2.3,49.4,M,14.2,M,,0000*6F
$GPVTG,105.6,T,,M,0.0,N,0.0,K,A*0F
$GPGLL,2233.2052,N,11413.8083,E,164758.00,A,A*60
$GPGSA,A,3,02,10,15,26,27,,,,,,,,3.0,2.3,1.9*3E
$GPRMC,164759.000,A,2233.2052,N,11413.8083,E,0.0,105.6,040191,,,A*69
$GPGGA,164759.000,2233.2052,N,11413.8083,E,1,06,1.8,49.4,M,14.2,M,,0000*65
$GPVTG,105.6,T,,M,0.0,N,0.0,K,A*0F
$GPGLL,2233.2052,N,11413.8083,E,164759.00,A,A*61
$GPGSA,A,3,02,05,10,15,26,27,,,,,,,2.5,1.8,1.8*36
$GPRMC,164800.000,A,2233.2052,N,11413.8083,E,0.0,105.6,040191,,,A*6A
$GPGGA,164800.000,2233.2052,N,11413.8083,E,1,05,2.3,49.4,M,14.2,M,,0000*6D
$GPVTG,105.6,T,,M,0.0,N,0.0,K,A*0F
$GPGLL,2233.2052,N,11413.8083,E,164800.00,A,A*62
$GPGSA,A,3,02,10,15,26,27,,,,,,,,3.0,2.3,1.9*3E
$GPRMC,164801.000,A,2233.2052,N,11413.8083,E,0.0,105.6,040191,,,A*6B
$GPGGA,164801.000,2233.2052,N,11413.8083,E,1,06,1.8,49.4,M,14.2,M,,0000*67
$GPVTG,105.6,T,,M,0.0,N,0.0,K,A*0F
$GPGLL,2233.2052,N,11413.8083,E,164801.00,A,A*63
$GPGSA,A,3,02,05,10,15,26,27,,,,,,,2.5,1.8,1.8*36
$GPGSV,3,1,11,10,19,052,21,05,46,014,12,02,47,097,13,27,13,172,36*7C
$GPGSV,3,2,11,12,04,216,22,26,84,114,26,15,61,214,40,09,04,184,36*77
$GPGSV,3,3,11,29,38,300,,08,14,070,,04,13,116,*40
$GPRMC,164802.000,A,2233.2052,N,11413.8083,E,0.0,105.6,040191,,,A*68
$GPGGA,164802.000,2233.2052,N,11413.8083,E,1,06,1.8,49.4,M,14.2,M,,0000*64
$GPVTG,105.6,T,,M,0.0,N,0.0,K,A*0F
$GPGLL,2233.2052,N,11413.8083,E,164802.00,A,A*60
$GPGSA,A,3,02,05,10,15,26,27,,,,,,,2.5,1.8,1.8*36
$GPRMC,164803.000,A,2233.2052,N,11413.8083,E,0.0,105.6,040191,,,A*69
$GPGGA,164803.000,2233.2052,N,11413.8083,E,1,05,2.3,49.4,M,14.2,M,,0000*6E
$GPVTG,105.6,T,,M,0.0,N,0.0,K,A*0F
$GPGLL,2233.2052,N,11413.8083,E,164803.00,A,A*61
$GPGSA,A,3,02,10,15,26,27,,,,,,,,3.0,2.3,1.9*3E
$GPRMC,164804.000,A,2233.2052,N,11413.8083,E,0.0,105.6,040191,,,A*6E
$GPGGA,164804.000,2233.2052,N,11413.8083,E,1,05,2.3,49.4,M,14.2,M,,0000*69
$GPVTG,105.6,T,,M,0.0,N,0.0,K,A*0F
$GPGLL,2233.2052,N,11413.8083,E,164804.00,A,A*66
$GPGSA,A,3,02,10,15,26,27,,,,,,,,3.0,2.3,1.9*3E
$GPRMC,164805.000,A,2233.2052,N,11413.8083,E,0.0,105.6,040191,,,A*6F
$GPGGA,164805.000,2233.2052,N,11413.8083,E,1,05,2.3,49.4,M,14.2,M,,0000*68
$GPVTG,105.6,T,,M,0.0,N,0.0,K,A*0F
$GPGLL,2233.2052,N,11413.8083,E,164805.00,A,A*67
$GPGSA,A,3,02,10,15,26,27,,,,,,,,3.0,2.3,1.9*3E
$GPRMC,164806.000,A,2233.2052,N,11413.8083,E,0.0,105.6,040191,,,A*6C
$GPGGA,164806.000,2233.2052,N,11413.8083,E,1,05,2.3,49.4,M,14.2,M,,0000*6B
$GPVTG,105.6,T,,M,0.0,N,0.0,K,A*0F
$GPGLL,2233.2052,N,11413.8083,E,164806.00,A,A*64
$GPGSA,A,3,02,10,15,26,27,,,,,,,,3.0,2.3,1.9*3E
$GPGSV,3,1,11,10,19,052,25,02,47,098,15,27,13,172,36,12,04,215,23*70
$GPGSV,3,2,11,26,84,114,25,15,61,215,39,09,04,184,36,29,38,300,15*7E
$GPGSV,3,3,11,05,46,014,,08,14,070,,04,13,117,*40
$GPRMC,164807.000,A,2233.2052,N,11413.8083,E,0.0,105.6,040191,,,A*6D
$GPGGA,164807.000,2233.2052,N,11413.8083,E,1,05,2.3,49.4,M,14.2,M,,0000*6A
$GPVTG,105.6,T,,M,0.0,N,0.0,K,A*0F
$GPGLL,2233.2052,N,11413.8083,E,164807.00,A,A*65
$GPGSA,A,3,02,10,15,26,27,,,,,,,,3.0,2.3,1.9*3E
$GPRMC,164808.000,A,2233.2052,N,11413.8083,E,0.0,105.6,040191,,,A*62
$GPGGA,164808.000,2233.2052,N,11413.8083,E,1,05,2.3,49.4,M,14.2,M,,0000*65
$GPVTG,105.6,T,,M,0.0,N,0.0,K,A*0F
$GPGLL,2233.2052,N,11413.8083,E,164808.00,A,A*6A
$GPGSA,A,3,02,10,15,26,27,,,,,,,,3.0,2.3,1.9*3E
$GPRMC,164809.000,A,2233.2052,N,11413.8083,E,0.0,105.6,040191,,,A*63
$GPGGA,164809.000,2233.2052,N,11413.8083,E,1,05,2.3,49.4,M,14.2,M,,0000*64
$GPVTG,105.6,T,,M,0.0,N,0.0,K,A*0F
$GPGLL,2233.2052,N,11413.8083,E,164809.00,A,A*6B
$GPGSA,A,3,02,10,15,26,27,,,,,,,,3.0,2.3,1.9*3E
$GPRMC,164810.000,A,2233.2052,N,11413.8083,E,0.0,105.6,040191,,,A*6B
$GPGGA,164810.000,2233.2052,N,11413.8083,E,1,05,2.3,49.4,M,14.2,M,,0000*6C
$GPVTG,105.6,T,,M,0.0,N,0.0,K,A*0F
$GPGLL,2233.2052,N,11413.8083,E,164810.00,A,A*63
$GPGSA,A,3,02,10,15,26,27,,,,,,,,3.0,2.3,1.9*3E
$GPRMC,164811.000,A,2233.2052,N,11413.8083,E,0.0,105.6,040191,,,A*6A
$GPGGA,164811.000,2233.2052,N,11413.8083,E,1,06,1.8,49.4,M,14.2,M,,0000*66
$GPVTG,105.6,T,,M,0.0,N,0.0,K,A*0F
$GPGLL,2233.2052,N,11413.8083,E,164811.00,A,A*62
$GPGSA,A,3,02,05,10,15,26,27,,,,,,,2.5,1.8,1.8*36
$GPGSV,3,1,11,10,19,052,26,05,46,014,,02,47,098,16,27,13,172,36*72
$GPGSV,3,2,11,12,04,215,24,26,84,113,25,15,61,215,38,09,04,184,37*79
$GPGSV,3,3,11,29,39,300,,08,14,070,,04,13,117,*40
$GPRMC,164812.000,A,2233.2052,N,11413.8083,E,0.0,105.6,040191,,,A*69
$GPGGA,164812.000,2233.2052,N,11413.8083,E,1,05,2.3,49.4,M,14.2,M,,0000*6E
$GPVTG,105.6,T,,M,0.0,N,0.0,K,A*0F
$GPGLL,2233.2052,N,11413.8083,E,164812.00,A,A*61
$GPGSA,A,3,02,10,15,26,27,,,,,,,,3.0,2.3,1.9*3E
$GPRMC,164813.000,A,2233.2052,N,11413.8083,E,0.0,105.6,040191,,,A*68
$GPGGA,164813.000,2233.2052,N,11413.8083,E,1,06,1.8,49.4,M,14.2,M,,0000*64
$GPVTG,105.6,T,,M,0.0,N,0.0,K,A*0F
$GPGLL,2233.2052,N,11413.8083,E,164813.00,A,A*60
$GPGSA,A,3,02,05,10,15,26,27,,,,,,,2.5,1.8,1.8*36
$GPRMC,164814.000,A,2233.2052,N,11413.8083,E,0.0,105.6,040191,,,A*6F
$GPGGA,164814.000,2233.2052,N,11413.8083,E,1,06,1.8,49.4,M,14.2,M,,0000*63
$GPVTG,105.6,T,,M,0.0,N,0.0,K,A*0F
$GPGLL,2233.2052,N,11413.8083,E,164814.00,A,A*67
$GPGSA,A,3,02,05,10,15,26,27,,,,,,,2.5,1.8,1.8*36
$GPRMC,164815.000,A,2233.2052,N,11413.8083,E,0.0,105.6,040191,,,A*6E
$GPGGA,164815.000,2233.2052,N,11413.8083,E,1,05,2.3,49.4,M,14.2,M,,0000*69
$GPVTG,105.6,T,,M,0.0,N,0.0,K,A*0F
$GPGLL,2233.2052,N,11413.8083,E,164815.00,A,A*66
$GPGSA,A,3,02,10,15,26,27,,,,,,,,3.0,2.3,1.9*3E
$GPRMC,164816.000,A,2233.2052,N,11413.8083,E,0.0,105.6,040191,,,A*6D
$GPGGA,164816.000,2233.2052,N,11413.8083,E,1,05,2.3,49.4,M,14.2,M,,0000*6A
$GPVTG,105.6,T,,M,0.0,N,0.0,K,A*0F
$GPGLL,2233.2052,N,11413.8083,E,164816.00,A,A*65
$GPGSA,A,3,02,10,15,26,27,,,,,,,,3.0,2.3,1.9*3E
$GPGSV,3,1,11,10,19,052,26,05,46,014,16,02,47,098,17,27,13,172,36*74
$GPGSV,3,2,11,12,04,215,26,26,84,113,26,15,61,215,38,09,04,184,37*78
$GPGSV,3,3,11,29,39,300,15,08,14,070,,04,13,117,*44
$GPRMC,164817.000,A,2233.2052,N,11413.8083,E,0.0,105.6,040191,,,A*6C
$GPGGA,164817.000,2233.2052,N,11413.8083,E,1,05,2.3,49.4,M,14.2,M,,0000*6B
$GPVTG,105.6,T,,M,0.0,N,0.0,K,A*0F
$GPGLL,2233.2052,N,11413.8083,E,164817.00,A,A*64
$GPGSA,A,3,02,10,15,26,27,,,,,,,,3.0,2.3,1.9*3E
$GPRMC,164818.000,A,2233.2052,N,11413.8083,E,0.0,105.6,040191,,,A*63
$GPGGA,164818.000,2233.2052,N,11413.8083,E,1,05,2.3,49.4,M,14.2,M,,0000*64
$GPVTG,105.6,T,,M,0.0,N,0.0,K,A*0F
$GPGLL,2233.2052,N,11413.8083,E,164818.00,A,A*6B
$GPGSA,A,3,02,10,15,26,27,,,,,,,,3.0,2.3,1.9*3E
$GPRMC,164819.000,A,2233.2052,N,11413.8083,E,0.0,105.6,040191,,,A*62
$GPGGA,164819.000,2233.2052,N,11413.8083,E,1,06,1.8,49.4,M,14.2,M,,0000*6E
$GPVTG,105.6,T,,M,0.0,N,0.0,K,A*0F
$GPGLL,2233.2052,N,11413.8083,E,164819.00,A,A*6A
$GPGSA,A,3,02,05,10,15,26,27,,,,,,,2.5,1.8,1.8*36
$GPRMC,164820.000,A,2233.2052,N,11413.8083,E,0.0,105.6,040191,,,A*68
$GPGGA,164820.000,2233.2052,N,11413.8083,E,1,06,1.8,49.4,M,14.2,M,,0000*64
$GPVTG,105.6,T,,M,0.0,N,0.0,K,A*0F
$GPGLL,2233.2052,N,11413.8083,E,164820.00,A,A*60
$GPGSA,A,3,02,05,10,15,26,27,,,,,,,2.5,1.8,1.8*36
$GPRMC,164821.000,A,2233.2052,N,11413.8083,E,0.0,105.6,040191,,,A*69
$GPGGA,164821.000,2233.2052,N,11413.8083,E,1,06,1.8,49.4,M,14.2,M,,0000*65
$GPVTG,105.6,T,,M,0.0,N,0.0,K,A*0F
$GPGLL,2233.2052,N,11413.8083,E,164821.00,A,A*61
$GPGSA,A,3,02,05,10,15,26,27,,,,,,,2.5,1.8,1.8*36
$GPGSV,3,1,11,10,19,052,23,05,46,014,21,02,47,098,18,27,13,172,37*7B
$GPGSV,3,2,11,12,04,215,23,26,84,112,27,15,61,215,39,09,04,184,38*73
$GPGSV,3,3,11,29,39,300,23,08,14,070,,04,13,117,*41
$GPRMC,164822.000,A,2233.2052,N,11413.8083,E,0.0,105.6,040191,,,A*6A
$GPGGA,164822.000,2233.2052,N,11413.8083,E,1,06,1.8,49.4,M,14.2,M,,0000*66
$GPVTG,105.6,T,,M,0.0,N,0.0,K,A*0F
$GPGLL,2233.2052,N,11413.8083,E,164822.00,A,A*62
$GPGSA,A,3,02,05,10,15,26,27,,,,,,,2.5,1.8,1.8*36
$GPRMC,164823.000,A,2233.2052,N,11413.8083,E,0.0,105.6,040191,,,A*6B
$GPGGA,164823.000,2233.2052,N,11413.8083,E,1,06,1.8,49.4,M,14.2,M,,0000*67
$GPVTG,105.6,T,,M,0.0,N,0.0,K,A*0F
$GPGLL,2233.2052,N,11413.8083,E,164823.00,A,A*63
$GPGSA,A,3,02,05,10,15,26,27,,,,,,,2.5,1.8,1.8*36
$GPRMC,164824.000,A,2233.2052,N,11413.8083,E,0.0,105.6,040191,,,A*6C
$GPGGA,164824.000,2233.2052,N,11413.8083,E,1,07,1.6,49.4,M,14.2,M,,0000*6F
$GPVTG,105.6,T,,M,0.0,N,0.0,K,A*0F
$GPGLL,2233.2052,N,11413.8083,E,164824.00,A,A*64
$GPGSA,A,3,02,04,05,10,15,26,27,,,,,,2.4,1.6,1.8*3D
$GPRMC,164825.000,A,2233.2052,N,11413.8083,E,0.0,105.6,040191,,,A*6D
$GPGGA,164825.000,2233.2052,N,11413.8083,E,1,07,1.6,49.4,M,14.2,M,,0000*6E
$GPVTG,105.6,T,,M,0.0,N,0.0,K,A*0F
$GPGLL,2233.2052,N,11413.8083,E,164825.00,A,A*65
$GPGSA,A,3,02,04,05,10,15,26,27,,,,,,2.4,1.6,1.8*3D
$GPRMC,164826.000,A,2233.2052,N,11413.8083,E,0.0,105.6,040191,,,A*6E
$GPGGA,164826.000,2233.2052,N,11413.8083,E,1,07,1.6,49.4,M,14.2,M,,0000*6D
$GPVTG,105.6,T,,M,0.0,N,0.0,K,A*0F
$GPGLL,2233.2052,N,11413.8083,E,164826.00,A,A*66
$GPGSA,A,3,02,04,05,10,15,26,27,,,,,,2.4,1.6,1.8*3D
$GPGSV,3,1,11,10,19,052,23,05,46,014,23,02,47,098,19,04,13,117,13*7C
$GPGSV,3,2,11,27,13,172,37,12,04,215,23,26,84,112,27,15,61,215,39*7F
$GPGSV,3,3,11,09,04,184,38,29,39,300,22,08,14,070,*4A
$GPRMC,164827.000,A,2233.2052,N,11413.8083,E,0.0,105.6,040191,,,A*6F
$GPGGA,164827.000,2233.2052,N,11413.8083,E,1,07,1.6,49.4,M,14.2,M,,0000*6C
$GPVTG,105.6,T,,M,0.0,N,0.0,K,A*0F
$GPGLL,2233.2052,N,11413.8083,E,164827.00,A,A*67
$GPGSA,A,3,02,04,05,10,15,26,27,,,,,,2.4,1.6,1.8*3D
$GPRMC,164828.000,A,2233.2052,N,11413.8083,E,0.0,105.6,040191,,,A*60
$GPGGA,164828.000,2233.2052,N,11413.8083,E,1,07,1.6,49.4,M,14.2,M,,0000*63
$GPVTG,105.6,T,,M,0.0,N,0.0,K,A*0F
$GPGLL,2233.2052,N,11413.8083,E,164828.00,A,A*68
$GPGSA,A,3,02,04,05,10,15,26,27,,,,,,2.4,1.6,1.8*3D
$GPRMC,164829.000,A,2233.2052,N,11413.8083,E,0.0,105.6,040191,,,A*61
$GPGGA,164829.000,2233.2052,N,11413.8083,E,1,07,1.6,49.4,M,14.2,M,,0000*62
$GPVTG,105.6,T,,M,0.0,N,0.0,K,A*0F
$GPGLL,2233.2052,N,11413.8083,E,164829.00,A,A*69
$GPGSA,A,3,02,04,05,10,15,26,27,,,,,,2.4,1.6,1.8*3D
$GPRMC,164830.000,A,2233.2052,N,11413.8083,E,0.0,105.6,040191,,,A*69
$GPGGA,164830.000,2233.2052,N,11413.8083,E,1,07,1.6,49.4,M,14.2,M,,0000*6A
$GPVTG,105.6,T,,M,0.0,N,0.0,K,A*0F
$GPGLL,2233.2052,N,11413.8083,E,164830.00,A,A*61
$GPGSA,A,3,02,04,05,10,15,26,27,,,,,,2.4,1.6,1.8*3D
$GPRMC,164831.000,A,2233.2052,N,11413.8083,E,0.0,105.6,040191,,,A*68
$GPGGA,164831.000,2233.2052,N,11413.8083,E,1,07,1.6,49.4,M,14.2,M,,0000*6B
$GPVTG,105.6,T,,M,0.0,N,0.0,K,A*0F
$GPGLL,2233.2052,N,11413.8083,E,164831.00,A,A*60
$GPGSA,A,3,02,04,05,10,15,26,27,,,,,,2.4,1.6,1.8*3D
$GPGSV,3,1,11,10,19,052,26,05,46,014,23,02,47,098,18,04,13,117,12*79
$GPGSV,3,2,11,27,13,172,37,12,04,215,27,26,84,111,28,15,61,215,39*77
$GPGSV,3,3,11,09,04,184,37,29,39,300,18,08,14,070,*4C
$GPRMC,164832.000,A,2233.2052,N,11413.8083,E,0.0,105.6,040191,,,A*6B
$GPGGA,164832.000,2233.2052,N,11413.8083,E,1,07,1.6,49.4,M,14.2,M,,0000*68
$GPVTG,105.6,T,,M,0.0,N,0.0,K,A*0F
$GPGLL,2233.2052,N,11413.8083,E,164832.00,A,A*63
$GPGSA,A,3,02,04,05,10,15,26,27,,,,,,2.4,1.6,1.8*3D
$GPRMC,164833.000,A,2233.2052,N,11413.8083,E,0.0,105.6,040191,,,A*6A
$GPGGA,164833.000,2233.2052,N,11413.8083,E,1,07,1.6,49.4,M,14.2,M,,0000*69
$GPVTG,105.6,T,,M,0.0,N,0.0,K,A*0F
$GPGLL,2233.2052,N,11413.8083,E,164833.00,A,A*62
$GPGSA,A,3,02,04,05,10,15,26,27,,,,,,2.4,1.6,1.8*3D
$GPRMC,164834.000,A,2233.2052,N,11413.8083,E,0.0,105.6,040191,,,A*6D
$GPGGA,164834.000,2233.2052,N,11413.8083,E,1,07,1.6,49.4,M,14.2,M,,0000*6E
$GPVTG,105.6,T,,M,0.0,N,0.0,K,A*0F
$GPGLL,2233.2052,N,11413.8083,E,164834.00,A,A*65
$GPGSA,A,3,02,04,05,10,15,26,27,,,,,,2.4,1.6,1.8*3D
$GPRMC,164835.000,A,2233.2052,N,11413.8083,E,0.0,105.6,040191,,,A*6C
$GPGGA,164835.000,2233.2052,N,11413.8083,E,1,07,1.6,49.4,M,14.2,M,,0000*6F
$GPVTG,105.6,T,,M,0.0,N,0.0,K,A*0F
$GPGLL,2233.2052,N,11413.8083,E,164835.00,A,A*64
$GPGSA,A,3,02,04,05,10,15,26,27,,,,,,2.4,1.6,1.8*3D
$GPRMC,164836.000,A,2233.2052,N,11413.8083,E,0.0,105.6,040191,,,A*6F
$GPGGA,164836.000,2233.2052,N,11413.8083,E,1,07,1.6,49.4,M,14.2,M,,0000*6C
$GPVTG,105.6,T,,M,0.0,N,0.0,K,A*0F
$GPGLL,2233.2052,N,11413.8083,E,164836.00,A,A*67
$GPGSA,A,3,02,04,05,10,15,26,27,,,,,,2.4,1.6,1.8*3D
$GPGSV,3,1,11,10,19,052,26,05,46,014,22,02,47,098,14,04,13,117,11*77
$GPGSV,3,2,11,27,13,172,36,12,04,215,26,26,84,111,26,15,61,215,38*78
$GPGSV,3,3,11,09,04,184,36,29,39,300,19,08,14,070,*4C
$GPRMC,164837.000,A,2233.2052,N,11413.8083,E,0.0,105.6,040191,,,A*6E
$GPGGA,164837.000,2233.2052,N,11413.8083,E,1,07,1.6,49.4,M,14.2,M,,0000*6D
$GPVTG,105.6,T,,M,0.0,N,0.0,K,A*0F
$GPGLL,2233.2052,N,11413.8083,E,164837.00,A,A*66
$GPGSA,A,3,02,04,05,10,15,26,27,,,,,,2.4,1.6,1.8*3D
$GPRMC,164838.000,A,2233.2052,N,11413.8083,E,0.0,105.6,040191,,,A*61
$GPGGA,164838.000,2233.2052,N,11413.8083,E,1,07,1.6,49.4,M,14.2,M,,0000*62
$GPVTG,105.6,T,,M,0.0,N,0.0,K,A*0F
$GPGLL,2233.2052,N,11413.8083,E,164838.00,A,A*69
$GPGSA,A,3,02,04,05,10,15,26,27,,,,,,2.4,1.6,1.8*3D
$GPRMC,164839.000,A,2233.2052,N,11413.8083,E,0.0,105.6,040191,,,A*60
$GPGGA,164839.000,2233.2052,N,11413.8083,E,1,07,1.6,49.4,M,14.2,M,,0000*63
$GPVTG,105.6,T,,M,0.0,N,0.0,K,A*0F
$GPGLL,2233.2052,N,11413.8083,E,164839.00,A,A*68
$GPGSA,A,3,02,04,05,10,15,26,27,,,,,,2.4,1.6,1.8*3D
$GPRMC,164840.000,A,2233.2052,N,11413.8083,E,0.0,105.6,040191,,,A*6E
$GPGGA,164840.000,2233.2052,N,11413.8083,E,1,07,1.6,49.4,M,14.2,M,,0000*6D
$GPVTG,105.6,T,,M,0.0,N,0.0,K,A*0F
$GPGLL,2233.2052,N,11413.8083,E,164840.00,A,A*66
$GPGSA,A,3,02,04,05,10,15,26,27,,,,,,2.4,1.6,1.8*3D
$GPRMC,164841.000,A,2233.2052,N,11413.8083,E,0.0,105.6,040191,,,A*6F
$GPGGA,164841.000,2233.2052,N,11413.8083,E,1,06,1.8,49.4,M,14.2,M,,0000*63
$GPVTG,105.6,T,,M,0.0,N,0.0,K,A*0F
$GPGLL,2233.2052,N,11413.8083,E,164841.00,A,A*67
$GPGSA,A,3,02,05,10,15,26,27,,,,,,,2.5,1.8,1.8*36
$GPGSV,3,1,11,10,19,052,23,05,46,014,19,02,47,098,15,04,13,117,11*7B
$GPGSV,3,2,11,27,13,172,36,12,04,215,24,26,84,110,26,15,62,215,38*78
$GPGSV,3,3,11,09,04,184,34,29,39,300,19,08,14,070,*4E
$GPRMC,164842.000,A,2233.2052,N,11413.8083,E,0.0,105.6,040191,,,A*6C
$GPGGA,164842.000,2233.2052,N,11413.8083,E,1,06,1.8,49.4,M,14.2,M,,0000*60
$GPVTG,105.6,T,,M,0.0,N,0.0,K,A*0F
$GPGLL,2233.2052,N,11413.8083,E,164842.00,A,A*64
$GPGSA,A,3,02,05,10,15,26,27,,,,,,,2.5,1.8,1.8*36
$GPRMC,164843.000,A,2233.2052,N,11413.8083,E,0.0,105.6,040191,,,A*6D
$GPGGA,164843.000,2233.2052,N,11413.8083,E,1,06,1.8,49.4,M,14.2,M,,0000*61
$GPVTG,105.6,T,,M,0.0,N,0.0,K,A*0F
$GPGLL,2233.2052,N,11413.8083,E,164843.00,A,A*65
$GPGSA,A,3,02,05,10,15,26,27,,,,,,,2.5,1.8,1.8*36
$GPRMC,164844.000,A,2233.2052,N,11413.8083,E,0.0,105.6,040191,,,A*6A
$GPGGA,164844.000,2233.2052,N,11413.8083,E,1,06,1.8,49.4,M,14.2,M,,0000*66
$GPVTG,105.6,T,,M,0.0,N,0.0,K,A*0F
$GPGLL,2233.2052,N,11413.8083,E,164844.00,A,A*62
$GPGSA,A,3,02,05,10,15,26,27,,,,,,,2.5,1.8,1.8*36
$GPRMC,164845.000,A,2233.2052,N,11413.8083,E,0.0,105.6,040191,,,A*6B
$GPGGA,164845.000,2233.2052,N,11413.8083,E,1,06,1.8,49.4,M,14.2,M,,0000*67
$GPVTG,105.6,T,,M,0.0,N,0.0,K,A*0F
$GPGLL,2233.2052,N,11413.8083,E,164845.00,A,A*63
$GPGSA,A,3,02,05,10,15,26,27,,,,,,,2.5,1.8,1.8*36
$GPRMC,164846.000,A,2233.2052,N,11413.8083,E,0.0,105.6,040191,,,A*68
$GPGGA,164846.000,2233.2052,N,11413.8083,E,1,06,1.8,49.4,M,14.2,M,,0000*64
$GPVTG,105.6,T,,M,0.0,N,0.0,K,A*0F
$GPGLL,2233.2052,N,11413.8083,E,164846.00,A,A*60
$GPGSA,A,3,02,05,10,15,26,27,,,,,,,2.5,1.8,1.8*36
$GPGSV,3,1,11,10,19,052,22,05,46,014,18,02,47,098,15,27,13,172,37*7D
$GPGSV,3,2,11,12,04,215,22,26,84,110,27,15,62,215,39,09,04,184,36*7D
$GPGSV,3,3,11,29,39,300,19,08,14,070,,04,12,117,*49
$GPRMC,164847.000,A,2233.2052,N,11413.8083,E,0.0,105.6,040191,,,A*69
$GPGGA,164847.000,2233.2052,N,11413.8083,E,1,06,1.8,49.4,M,14.2,M,,0000*65
$GPVTG,105.6,T,,M,0.0,N,0.0,K,A*0F
$GPGLL,2233.2052,N,11413.8083,E,164847.00,A,A*61
$GPGSA,A,3,02,05,10,15,26,27,,,,,,,2.5,1.8,1.8*36
$GPRMC,164848.000,A,2233.2052,N,11413.8083,E,0.0,105.6,040191,,,A*66
$GPGGA,164848.000,2233.2052,N,11413.8083,E,1,06,1.8,49.4,M,14.2,M,,0000*6A
$GPVTG,105.6,T,,M,0.0,N,0.0,K,A*0F
$GPGLL,2233.2052,N,11413.8083,E,164848.00,A,A*6E
$GPGSA,A,3,02,05,10,15,26,27,,,,,,,2.5,1.8,1.8*36
$GPRMC,164849.000,A,2233.2052,N,11413.8083,E,0.0,105.6,040191,,,A*67
$GPGGA,164849.000,2233.2052,N,11413.8083,E,1,06,1.8,49.4,M,14.2,M,,0000*6B
$GPVTG,105.6,T,,M,0.0,N,0.0,K,A*0F
$GPGLL,2233.2052,N,11413.8083,E,164849.00,A,A*6F
$GPGSA,A,3,02,05,10,15,26,27,,,,,,,2.5,1.8,1.8*36
$GPRMC,164850.000,A,2233.2052,N,11413.8083,E,0.0,105.6,040191,,,A*6F
$GPGGA,164850.000,2233.2052,N,11413.8083,E,1,06,1.8,49.4,M,14.2,M,,0000*63
$GPVTG,105.6,T,,M,0.0,N,0.0,K,A*0F
$GPGLL,2233.2052,N,11413.8083,E,164850.00,A,A*67
$GPGSA,A,3,02,05,10,15,26,27,,,,,,,2.5,1.8,1.8*36
$GPRMC,164851.000,A,2233.2052,N,11413.8083,E,0.0,105.6,040191,,,A*6E
$GPGGA,164851.000,2233.2052,N,11413.8083,E,1,06,1.8,49.4,M,14.2,M,,0000*62
$GPVTG,105.6,T,,M,0.0,N,0.0,K,A*0F
$GPGLL,2233.2052,N,11413.8083,E,164851.00,A,A*66
$GPGSA,A,3,02,05,10,15,26,27,,,,,,,2.5,1.8,1.8*36
$GPGSV,3,1,11,10,19,052,21,05,46,014,21,02,47,098,15,27,13,172,36*75
$GPGSV,3,2,11,12,04,215,22,26,84,109,27,15,62,215,39,09,04,184,37*74
$GPGSV,3,3,11,29,39,300,,08,14,070,,04,12,117,*41
$GPRMC,164852.000,A,2233.2052,N,11413.8083,E,0.0,105.6,040191,,,A*6D
$GPGGA,164852.000,2233.2052,N,11413.8083,E,1,06,1.8,49.4,M,14.2,M,,0000*61
$GPVTG,105.6,T,,M,0.0,N,0.0,K,A*0F
$GPGLL,2233.2052,N,11413.8083,E,164852.00,A,A*65
$GPGSA,A,3,02,05,10,15,26,27,,,,,,,2.5,1.8,1.8*36
$GPRMC,164853.000,A,2233.2052,N,11413.8083,E,0.0,105.6,040191,,,A*6C
$GPGGA,164853.000,2233.2052,N,11413.8083,E,1,06,1.8,49.4,M,14.2,M,,0000*60
$GPVTG,105.6,T,,M,0.0,N,0.0,K,A*0F
$GPGLL,2233.2052,N,11413.8083,E,164853.00,A,A*64
$GPGSA,A,3,02,05,10,15,26,27,,,,,,,2.5,1.8,1.8*36
$GPRMC,164854.000,A,2233.2052,N,11413.8083,E,0.0,105.6,040191,,,A*6B
$GPGGA,164854.000,2233.2052,N,11413.8083,E,1,06,1.8,49.4,M,14.2,M,,0000*67
$GPVTG,105.6,T,,M,0.0,N,0.0,K,A*0F
$GPGLL,2233.2052,N,11413.8083,E,164854.00,A,A*63
$GPGSA,A,3,02,05,10,15,26,27,,,,,,,2.5,1.8,1.8*36
$GPRMC,164855.000,A,2233.2052,N,11413.8083,E,0.0,105.6,040191,,,A*6A
$GPGGA,164855.000,2233.2052,N,11413.8083,E,1,06,1.8,49.4,M,14.2,M,,0000*66
$GPVTG,105.6,T,,M,0.0,N,0.0,K,A*0F
$GPGLL,2233.2052,N,11413.8083,E,164855.00,A,A*62
$GPGSA,A,3,02,05,10,15,26,27,,,,,,,2.5,1.8,1.8*36
$GPRMC,164856.000,A,2233.2052,N,11413.8083,E,0.0,105.6,040191,,,A*69
$GPGGA,164856.000,2233.2052,N,11413.8083,E,1,06,1.8,49.4,M,14.2,M,,0000*65
$GPVTG,105.6,T,,M,0.0,N,0.0,K,A*0F
$GPGLL,2233.2052,N,11413.8083,E,164856.00,A,A*61
$GPGSA,A,3,02,05,10,15,26,27,,,,,,,2.5,1.8,1.8*36
$GPGSV,3,1,11,10,19,052,21,05,46,014,21,02,47,098,14,04,12,117,11*72
$GPGSV,3,2,11,27,13,172,37,12,04,215,25,26,84,109,27,15,62,215,40*7E
$GPGSV,3,3,11,09,04,184,37,29,39,300,19,08,14,070,*4D
$GPRMC,164857.000,A,2233.2052,N,11413.8083,E,0.0,105.6,040191,,,A*68
$GPGGA,164857.000,2233.2052,N,11413.8083,E,1,07,1.6,49.4,M,14.2,M,,0000*6B
$GPVTG,105.6,T,,M,0.0,N,0.0,K,A*0F
$GPGLL,2233.2052,N,11413.8083,E,164857.00,A,A*60
$GPGSA,A,3,02,04,05,10,15,26,27,,,,,,2.4,1.6,1.8*3D
$GPRMC,164858.000,A,2233.2052,N,11413.8083,E,0.0,105.6,040191,,,A*67
$GPGGA,164858.000,2233.2052,N,11413.8083,E,1,07,1.6,49.4,M,14.2,M,,0000*64
$GPVTG,105.6,T,,M,0.0,N,0.0,K,A*0F
$GPGLL,2233.2052,N,11413.8083,E,164858.00,A,A*6F
$GPGSA,A,3,02,04,05,10,15,26,27,,,,,,2.4,1.6,1.8*3D
$GPRMC,164859.000,A,2233.2052,N,11413.8083,E,0.0,105.6,040191,,,A*66
$GPGGA,164859.000,2233.2052,N,11413.8083,E,1,07,1.6,49.4,M,14.2,M,,0000*65
$GPVTG,105.6,T,,M,0.0,N,0.0,K,A*0F
$GPGLL,2233.2052,N,11413.8083,E,164859.00,A,A*6E
$GPGSA,A,3,02,04,05,10,15,26,27,,,,,,2.4,1.6,1.8*3D
$GPRMC,164900.000,A,2233.2052,N,11413.8083,E,0.0,105.6,040191,,,A*6B
$GPGGA,164900.000,2233.2052,N,11413.8083,E,1,07,1.6,49.4,M,14.2,M,,0000*68
$GPVTG,105.6,T,,M,0.0,N,0.0,K,A*0F
$GPGLL,2233.2052,N,11413.8083,E,164900.00,A,A*63
$GPGSA,A,3,02,04,05,10,15,26,27,,,,,,2.4,1.6,1.8*3D
$GPRMC,164901.000,A,2233.2052,N,11413.8083,E,0.0,105.6,040191,,,A*6A
$GPGGA,164901.000,2233.2052,N,11413.8083,E,1,07,1.6,49.4,M,14.2,M,,0000*69
$GPVTG,105.6,T,,M,0.0,N,0.0,K,A*0F
$GPGLL,2233.2052,N,11413.8083,E,164901.00,A,A*62
$GPGSA,A,3,02,04,05,10,15,26,27,,,,,,2.4,1.6,1.8*3D
$GPGSV,3,1,11,10,19,052,22,05,46,015,22,02,47,098,12,04,12,117,13*77
$GPGSV,3,2,11,27,13,172,38,12,04,215,26,26,84,108,28,15,62,215,41*7D
$GPGSV,3,3,11,09,04,184,37,29,39,300,20,08,14,070,*47
$GPRMC,164902.000,A,2233.2052,N,11413.8083,E,0.0,105.6,040191,,,A*69
$GPGGA,164902.000,2233.2052,N,11413.8083,E,1,06,2.1,49.4,M,14.2,M,,0000*6F
$GPVTG,105.6,T,,M,0.0,N,0.0,K,A*0F
$GPGLL,2233.2052,N,11413.8083,E,164902.00,A,A*61
$GPGSA,A,3,04,05,10,15,26,27,,,,,,,3.2,2.1,2.4*33
$GPRMC,164903.000,A,2233.2052,N,11413.8083,E,0.0,105.6,040191,,,A*68
$GPGGA,164903.000,2233.2052,N,11413.8083,E,1,06,2.1,49.4,M,14.2,M,,0000*6E
$GPVTG,105.6,T,,M,0.0,N,0.0,K,A*0F
$GPGLL,2233.2052,N,11413.8083,E,164903.00,A,A*60
$GPGSA,A,3,04,05,10,15,26,27,,,,,,,3.2,2.1,2.4*33
$GPRMC,164904.000,A,2233.2052,N,11413.8083,E,0.0,105.6,040191,,,A*6F
$GPGGA,164904.000,2233.2052,N,11413.8083,E,1,06,2.1,49.4,M,14.2,M,,0000*69
$GPVTG,105.6,T,,M,0.0,N,0.0,K,A*0F
$GPGLL,2233.2052,N,11413.8083,E,164904.00,A,A*67
$GPGSA,A,3,04,05,10,15,26,27,,,,,,,3.2,2.1,2.4*33
$GPRMC,164905.000,A,2233.2052,N,11413.8083,E,0.0,105.6,040191,,,A*6E
$GPGGA,164905.000,2233.2052,N,11413.8083,E,1,06,2.1,49.4,M,14.2,M,,0000*68
$GPVTG,105.6,T,,M,0.0,N,0.0,K,A*0F
$GPGLL,2233.2052,N,11413.8083,E,164905.00,A,A*66
$GPGSA,A,3,04,05,10,15,26,27,,,,,,,3.2,2.1,2.4*33
$GPRMC,164906.000,A,2233.2052,N,11413.8083,E,0.0,105.6,040191,,,A*6D
$GPGGA,164906.000,2233.2052,N,11413.8083,E,1,06,2.1,49.4,M,14.2,M,,0000*6B
$GPVTG,105.6,T,,M,0.0,N,0.0,K,A*0F
$GPGLL,2233.2052,N,11413.8083,E,164906.00,A,A*65
$GPGSA,A,3,04,05,10,15,26,27,,,,,,,3.2,2.1,2.4*33
$GPGSV,3,1,11,10,19,052,24,05,46,015,22,04,12,117,15,27,13,172,38*7C
$GPGSV,3,2,11,12,04,215,23,26,84,108,28,15,62,215,40,09,04,184,37*75
$GPGSV,3,3,11,29,39,300,20,02,47,098,,08,14,070,*43
$GPRMC,164907.000,A,2233.2052,N,11413.8083,E,0.0,105.6,040191,,,A*6C
$GPGGA,164907.000,2233.2052,N,11413.8083,E,1,06,2.1,49.4,M,14.2,M,,0000*6A
$GPVTG,105.6,T,,M,0.0,N,0.0,K,A*0F
$GPGLL,2233.2052,N,11413.8083,E,164907.00,A,A*64
$GPGSA,A,3,04,05,10,15,26,27,,,,,,,3.2,2.1,2.4*33
$GPRMC,164908.000,A,2233.2052,N,11413.8083,E,0.0,105.6,040191,,,A*63
$GPGGA,164908.000,2233.2052,N,11413.8083,E,1,06,2.1,49.4,M,14.2,M,,0000*65
$GPVTG,105.6,T,,M,0.0,N,0.0,K,A*0F
$GPGLL,2233.2052,N,11413.8083,E,164908.00,A,A*6B
$GPGSA,A,3,04,05,10,15,26,27,,,,,,,3.2,2.1,2.4*33
$GPRMC,164909.000,A,2233.2052,N,11413.8083,E,0.0,105.6,040191,,,A*62
$GPGGA,164909.000,2233.2052,N,11413.8083,E,1,06,2.1,49.4,M,14.2,M,,0000*64
$GPVTG,105.6,T,,M,0.0,N,0.0,K,A*0F
$GPGLL,2233.2052,N,11413.8083,E,164909.00,A,A*6A
$GPGSA,A,3,04,05,10,15,26,27,,,,,,,3.2,2.1,2.4*33
$GPRMC,164910.000,A,2233.2052,N,11413.8083,E,0.0,105.6,040191,,,A*6A
$GPGGA,164910.000,2233.2052,N,11413.8083,E,1,06,2.1,49.4,M,14.2,M,,0000*6C
$GPVTG,105.6,T,,M,0.0,N,0.0,K,A*0F
$GPGLL,2233.2052,N,11413.8083,E,164910.00,A,A*62
$GPGSA,A,3,04,05,10,15,26,27,,,,,,,3.3,2.1,2.5*33
$GPRMC,164911.000,A,2233.2052,N,11413.8083,E,0.0,105.6,040191,,,A*6B
$GPGGA,164911.000,2233.2052,N,11413.8083,E,1,06,2.1,49.4,M,14.2,M,,0000*6D
$GPVTG,105.6,T,,M,0.0,N,0.0,K,A*0F
$GPGLL,2233.2052,N,11413.8083,E,164911.00,A,A*63
$GPGSA,A,3,04,05,10,15,26,27,,,,,,,3.3,2.1,2.5*33
$GPGSV,3,1,11,10,19,052,22,05,46,015,20,04,12,117,16,27,13,172,37*74
$GPGSV,3,2,11,12,04,215,23,26,84,107,28,15,62,215,39,09,04,184,37*74
$GPGSV,3,3,11,29,39,300,22,02,47,098,,08,14,070,*41
$GPRMC,164912.000,A,2233.2052,N,11413.8083,E,0.0,105.6,040191,,,A*68
$GPGGA,164912.000,2233.2052,N,11413.8083,E,1,06,2.1,49.4,M,14.2,M,,0000*6E
$GPVTG,105.6,T,,M,0.0,N,0.0,K,A*0F
$GPGLL,2233.2052,N,11413.8083,E,164912.00,A,A*60
$GPGSA,A,3,04,05,10,15,26,27,,,,,,,3.3,2.1,2.5*33
$GPRMC,164913.000,A,2233.2052,N,11413.8083,E,0.0,105.6,040191,,,A*69
$GPGGA,164913.000,2233.2052,N,11413.8083,E,1,07,1.6,49.4,M,14.2,M,,0000*6A
$GPVTG,105.6,T,,M,0.0,N,0.0,K,A*0F
$GPGLL,2233.2052,N,11413.8083,E,164913.00,A,A*61
$GPGSA,A,3,02,04,05,10,15,26,27,,,,,,2.4,1.6,1.8*3D
$GPRMC,164914.000,A,2233.2052,N,11413.8083,E,0.0,105.6,040191,,,A*6E
$GPGGA,164914.000,2233.2052,N,11413.8083,E,1,06,2.1,49.4,M,14.2,M,,0000*68
$GPVTG,105.6,T,,M,0.0,N,0.0,K,A*0F
$GPGLL,2233.2052,N,11413.8083,E,164914.00,A,A*66
$GPGSA,A,3,04,05,10,15,26,27,,,,,,,3.3,2.1,2.5*33
$GPRMC,164915.000,A,2233.2052,N,11413.8083,E,0.0,105.6,040191,,,A*6F
$GPGGA,164915.000,2233.2052,N,11413.8083,E,1,07,1.6,49.4,M,14.2,M,,0000*6C
$GPVTG,105.6,T,,M,0.0,N,0.0,K,A*0F
$GPGLL,2233.2052,N,11413.8083,E,164915.00,A,A*67
$GPGSA,A,3,02,04,05,10,15,26,27,,,,,,2.4,1.6,1.8*3D
$GPRMC,164916.000,A,2233.2052,N,11413.8083,E,0.0,105.6,040191,,,A*6C
$GPGGA,164916.000,2233.2052,N,11413.8083,E,1,07,1.6,49.4,M,14.2,M,,0000*6F
$GPVTG,105.6,T,,M,0.0,N,0.0,K,A*0F
$GPGLL,2233.2052,N,11413.8083,E,164916.00,A,A*64
$GPGSA,A,3,02,04,05,10,15,26,27,,,,,,2.4,1.6,1.8*3D
$GPGSV,3,1,11,10,19,052,22,05,46,015,18,02,47,098,14,04,12,117,16*7D
$GPGSV,3,2,11,27,13,172,37,12,04,215,25,26,84,107,27,15,62,215,37*70
$GPGSV,3,3,11,09,04,184,37,29,39,300,20,08,14,070,*47
$GPRMC,164917.000,A,2233.2052,N,11413.8083,E,0.0,105.6,040191,,,A*6D
$GPGGA,164917.000,2233.2052,N,11413.8083,E,1,06,2.1,49.4,M,14.2,M,,0000*6B
$GPVTG,105.6,T,,M,0.0,N,0.0,K,A*0F
$GPGLL,2233.2052,N,11413.8083,E,164917.00,A,A*65
$GPGSA,A,3,04,05,10,15,26,27,,,,,,,3.3,2.1,2.5*33
$GPRMC,164918.000,A,2233.2052,N,11413.8083,E,0.0,105.6,040191,,,A*62
$GPGGA,164918.000,2233.2052,N,11413.8083,E,1,06,2.1,49.4,M,14.2,M,,0000*64
$GPVTG,105.6,T,,M,0.0,N,0.0,K,A*0F
$GPGLL,2233.2052,N,11413.8083,E,164918.00,A,A*6A
$GPGSA,A,3,04,05,10,15,26,27,,,,,,,3.3,2.1,2.5*33
$GPRMC,164919.000,A,2233.2052,N,11413.8083,E,0.0,105.6,040191,,,A*63
$GPGGA,164919.000,2233.2052,N,11413.8083,E,1,06,2.1,49.4,M,14.2,M,,0000*65
$GPVTG,105.6,T,,M,0.0,N,0.0,K,A*0F
$GPGLL,2233.2052,N,11413.8083,E,164919.00,A,A*6B
$GPGSA,A,3,04,05,10,15,26,27,,,,,,,3.3,2.1,2.5*33
$GPRMC,164920.000,A,2233.2052,N,11413.8083,E,0.0,105.6,040191,,,A*69
$GPGGA,164920.000,2233.2052,N,11413.8083,E,1,06,2.1,49.4,M,14.2,M,,0000*6F
$GPVTG,105.6,T,,M,0.0,N,0.0,K,A*0F
$GPGLL,2233.2052,N,11413.8083,E,164920.00,A,A*61
$GPGSA,A,3,04,05,10,15,26,27,,,,,,,3.3,2.1,2.5*33
$GPRMC,164921.000,A,2233.2052,N,11413.8083,E,0.0,105.6,040191,,,A*68
$GPGGA,164921.000,2233.2052,N,11413.8083,E,1,06,2.1,49.4,M,14.2,M,,0000*6E
$GPVTG,105.6,T,,M,0.0,N,0.0,K,A*0F
$GPGLL,2233.2052,N,11413.8083,E,164921.00,A,A*60
$GPGSA,A,3,04,05,10,15,26,27,,,,,,,3.3,2.1,2.5*33
$GPGSV,3,1,11,10,19,052,21,05,46,015,18,04,12,117,16,27,13,172,36*7D
$GPGSV,3,2,11,12,04,215,26,26,84,106,26,15,62,215,36,09,04,184,36*70
$GPGSV,3,3,11,29,39,300,19,02,47,098,,08,14,070,*49
$GPRMC,164922.000,A,2233.2052,N,11413.8083,E,0.0,105.6,040191,,,A*6B
$GPGGA,164922.000,2233.2052,N,11413.8083,E,1,06,2.1,49.4,M,14.2,M,,0000*6D
$GPVTG,105.6,T,,M,0.0,N,0.0,K,A*0F
$GPGLL,2233.2052,N,11413.8083,E,164922.00,A,A*63
$GPGSA,A,3,04,05,10,15,26,27,,,,,,,3.3,2.1,2.5*33
$GPRMC,164923.000,A,2233.2052,N,11413.8083,E,0.0,105.6,040191,,,A*6A
$GPGGA,164923.000,2233.2052,N,11413.8083,E,1,06,2.1,49.4,M,14.2,M,,0000*6C
$GPVTG,105.6,T,,M,0.0,N,0.0,K,A*0F
$GPGLL,2233.2052,N,11413.8083,E,164923.00,A,A*62
$GPGSA,A,3,04,05,10,15,26,27,,,,,,,3.3,2.1,2.5*33
$GPRMC,164924.000,A,2233.2052,N,11413.8083,E,0.0,105.6,040191,,,A*6D
$GPGGA,164924.000,2233.2052,N,11413.8083,E,1,07,1.6,49.4,M,14.2,M,,0000*6E
$GPVTG,105.6,T,,M,0.0,N,0.0,K,A*0F
$GPGLL,2233.2052,N,11413.8083,E,164924.00,A,A*65
$GPGSA,A,3,02,04,05,10,15,26,27,,,,,,2.4,1.6,1.8*3D
$GPRMC,164925.000,A,2233.2052,N,11413.8083,E,0.0,105.6,040191,,,A*6C
$GPGGA,164925.000,2233.2052,N,11413.8083,E,1,07,1.6,49.4,M,14.2,M,,0000*6F
$GPVTG,105.6,T,,M,0.0,N,0.0,K,A*0F
$GPGLL,2233.2052,N,11413.8083,E,164925.00,A,A*64
$GPGSA,A,3,02,04,05,10,15,26,27,,,,,,2.4,1.6,1.8*3D
$GPRMC,164926.000,A,2233.2052,N,11413.8083,E,0.0,105.6,040191,,,A*6F
$GPGGA,164926.000,2233.2052,N,11413.8083,E,1,07,1.6,49.4,M,14.2,M,,0000*6C
$GPVTG,105.6,T,,M,0.0,N,0.0,K,A*0F
$GPGLL,2233.2052,N,11413.8083,E,164926.00,A,A*67
$GPGSA,A,3,02,04,05,10,15,26,27,,,,,,2.4,1.6,1.8*3D
$GPGSV,3,1,11,10,19,052,21,05,46,015,15,02,47,098,15,04,12,117,15*71
$GPGSV,3,2,11,27,13,172,36,12,04,215,23,26,84,106,25,15,62,215,37*74
$GPGSV,3,3,11,09,04,184,35,29,39,300,19,08,14,069,*47
$GPRMC,164927.000,A,2233.2052,N,11413.8083,E,0.0,105.6,040191,,,A*6E
$GPGGA,164927.000,2233.2052,N,11413.8083,E,1,07,1.6,49.4,M,14.2,M,,0000*6D
$GPVTG,105.6,T,,M,0.0,N,0.0,K,A*0F
$GPGLL,2233.2052,N,11413.8083,E,164927.00,A,A*66
$GPGSA,A,3,02,04,05,10,15,26,27,,,,,,2.4,1.6,1.8*3D
$GPRMC,164928.000,A,2233.2052,N,11413.8083,E,0.0,105.6,040191,,,A*61
$GPGGA,164928.000,2233.2052,N,11413.8083,E,1,07,1.6,49.4,M,14.2,M,,0000*62
$GPVTG,105.6,T,,M,0.0,N,0.0,K,A*0F
$GPGLL,2233.2052,N,11413.8083,E,164928.00,A,A*69
$GPGSA,A,3,02,04,05,10,15,26,27,,,,,,2.4,1.6,1.8*3D
$GPRMC,164929.000,A,2233.2052,N,11413.8083,E,0.0,105.6,040191,,,A*60
$GPGGA,164929.000,2233.2052,N,11413.8083,E,1,07,1.6,49.4,M,14.2,M,,0000*63
$GPVTG,105.6,T,,M,0.0,N,0.0,K,A*0F
$GPGLL,2233.2052,N,11413.8083,E,164929.00,A,A*68
$GPGSA,A,3,02,04,05,10,15,26,27,,,,,,2.4,1.6,1.8*3D
$GPRMC,164930.000,A,2233.2052,N,11413.8083,E,0.0,105.6,040191,,,A*68
$GPGGA,164930.000,2233.2052,N,11413.8083,E,1,07,1.6,49.4,M,14.2,M,,0000*6B
$GPVTG,105.6,T,,M,0.0,N,0.0,K,A*0F
$GPGLL,2233.2052,N,11413.8083,E,164930.00,A,A*60
$GPGSA,A,3,02,04,05,10,15,26,27,,,,,,2.4,1.6,1.8*3D
$GPRMC,164931.000,A,2233.2052,N,11413.8083,E,0.0,105.6,040191,,,A*69
$GPGGA,164931.000,2233.2052,N,11413.8083,E,1,07,1.6,49.4,M,14.2,M,,0000*6A
$GPVTG,105.6,T,,M,0.0,N,0.0,K,A*0F
$GPGLL,2233.2052,N,11413.8083,E,164931.00,A,A*61
$GPGSA,A,3,02,04,05,10,15,26,27,,,,,,2.4,1.6,1.8*3D
$GPGSV,3,1,11,10,19,052,21,05,46,015,13,02,47,098,16,04,12,117,12*73
$GPGSV,3,2,11,27,13,172,36,12,04,215,23,26,84,105,25,15,62,215,37*77
$GPGSV,3,3,11,09,04,184,33,29,39,300,19,08,14,069,*41
$GPRMC,164932.000,A,2233.2052,N,11413.8083,E,0.0,105.6,040191,,,A*6A
$GPGGA,164932.000,2233.2052,N,11413.8083,E,1,07,1.6,49.4,M,14.2,M,,0000*69
$GPVTG,105.6,T,,M,0.0,N,0.0,K,A*0F
$GPGLL,2233.2052,N,11413.8083,E,164932.00,A,A*62
$GPGSA,A,3,02,04,05,10,15,26,27,,,,,,2.4,1.6,1.8*3D
$GPRMC,164933.000,A,2233.2052,N,11413.8083,E,0.0,105.6,040191,,,A*6B
$GPGGA,164933.000,2233.2052,N,11413.8083,E,1,07,1.6,49.4,M,14.2,M,,0000*68
$GPVTG,105.6,T,,M,0.0,N,0.0,K,A*0F
$GPGLL,2233.2052,N,11413.8083,E,164933.00,A,A*63
$GPGSA,A,3,02,04,05,10,15,26,27,,,,,,2.4,1.6,1.8*3D
$GPRMC,164934.000,A,2233.2052,N,11413.8083,E,0.0,105.6,040191,,,A*6C
$GPGGA,164934.000,2233.2052,N,11413.8083,E,1,07,1.6,49.4,M,14.2,M,,0000*6F
$GPVTG,105.6,T,,M,0.0,N,0.0,K,A*0F
$GPGLL,2233.2052,N,11413.8083,E,164934.00,A,A*64
$GPGSA,A,3,02,04,05,10,15,26,27,,,,,,2.4,1.6,1.8*3D
$GPRMC,164935.000,A,2233.2052,N,11413.8083,E,0.0,105.6,040191,,,A*6D
$GPGGA,164935.000,2233.2052,N,11413.8083,E,1,07,1.6,49.4,M,14.2,M,,0000*6E
$GPVTG,105.6,T,,M,0.0,N,0.0,K,A*0F
$GPGLL,2233.2052,N,11413.8083,E,164935.00,A,A*65
$GPGSA,A,3,02,04,05,10,15,26,27,,,,,,2.4,1.6,1.8*3D
$GPRMC,164936.000,A,2233.2052,N,11413.8083,E,0.0,105.6,040191,,,A*6E
$GPGGA,164936.000,2233.2052,N,11413.8083,E,1,07,1.6,49.4,M,14.2,M,,0000*6D
$GPVTG,105.6,T,,M,0.0,N,0.0,K,A*0F
$GPGLL,2233.2052,N,11413.8083,E,164936.00,A,A*66
$GPGSA,A,3,02,04,05,10,15,26,27,,,,,,2.4,1.6,1.8*3D
$GPGSV,3,1,11,10,19,052,19,05,46,015,12,02,47,099,16,04,12,117,11*7B
$GPGSV,3,2,11,27,13,172,35,12,04,215,24,26,84,105,25,15,62,215,37*73
$GPGSV,3,3,11,09,04,184,33,29,39,299,19,08,14,069,*40
$GPRMC,164937.000,A,2233.2052,N,11413.8083,E,0.0,105.6,040191,,,A*6F
$GPGGA,164937.000,2233.2052,N,11413.8083,E,1,07,1.6,49.4,M,14.2,M,,0000*6C
$GPVTG,105.6,T,,M,0.0,N,0.0,K,A*0F
$GPGLL,2233.2052,N,11413.8083,E,164937.00,A,A*67
$GPGSA,A,3,02,04,05,10,15,26,27,,,,,,2.4,1.6,1.8*3D
$GPRMC,164938.000,A,2233.2052,N,11413.8083,E,0.0,105.6,040191,,,A*60
$GPGGA,164938.000,2233.2052,N,11413.8083,E,1,07,1.6,49.4,M,14.2,M,,0000*63
$GPVTG,105.6,T,,M,0.0,N,0.0,K,A*0F
$GPGLL,2233.2052,N,11413.8083,E,164938.00,A,A*68
$GPGSA,A,3,02,04,05,10,15,26,27,,,,,,2.4,1.6,1.8*3D
$GPRMC,164939.000,A,2233.2052,N,11413.8083,E,0.0,105.6,040191,,,A*61
$GPGGA,164939.000,2233.2052,N,11413.8083,E,1,07,1.6,49.4,M,14.2,M,,0000*62
$GPVTG,105.6,T,,M,0.0,N,0.0,K,A*0F
$GPGLL,2233.2052,N,11413.8083,E,164939.00,A,A*69
$GPGSA,A,3,02,04,05,10,15,26,27,,,,,,2.4,1.6,1.8*3D
$GPRMC,164940.000,A,2233.2052,N,11413.8083,E,0.0,105.6,040191,,,A*6F
$GPGGA,164940.000,2233.2052,N,11413.8083,E,1,07,1.6,49.4,M,14.2,M,,0000*6C
$GPVTG,105.6,T,,M,0.0,N,0.0,K,A*0F
$GPGLL,2233.2052,N,11413.8083,E,164940.00,A,A*67
$GPGSA,A,3,02,04,05,10,15,26,27,,,,,,2.4,1.6,1.8*3D
$GPRMC,164941.000,A,2233.2052,N,11413.8083,E,0.0,105.6,040191,,,A*6E
$GPGGA,164941.000,2233.2052,N,11413.8083,E,1,06,1.9,49.4,M,14.2,M,,0000*63
$GPVTG,105.6,T,,M,0.0,N,0.0,K,A*0F
$GPGLL,2233.2052,N,11413.8083,E,164941.00,A,A*66
$GPGSA,A,3,02,04,10,15,26,27,,,,,,,2.7,1.9,1.9*35
$GPGSV,3,1,11,10,19,052,20,05,46,015,11,02,47,099,15,04,12,117,12*72
$GPGSV,3,2,11,27,13,172,37,12,04,215,26,26,84,104,26,15,62,215,37*71
$GPGSV,3,3,11,09,04,184,35,29,39,299,15,08,14,069,*4A
$GPRMC,164942.000,A,2233.2052,N,11413.8083,E,0.0,105.6,040191,,,A*6D
$GPGGA,164942.000,2233.2052,N,11413.8083,E,1,06,1.9,49.4,M,14.2,M,,0000*60
$GPVTG,105.6,T,,M,0.0,N,0.0,K,A*0F
$GPGLL,2233.2052,N,11413.8083,E,164942.00,A,A*65
$GPGSA,A,3,02,04,10,15,26,27,,,,,,,2.7,1.9,1.9*35
$GPRMC,164943.000,A,2233.2052,N,11413.8083,E,0.0,105.6,040191,,,A*6C
$GPGGA,164943.000,2233.2052,N,11413.8083,E,1,06,1.9,49.4,M,14.2,M,,0000*61
$GPVTG,105.6,T,,M,0.0,N,0.0,K,A*0F
$GPGLL,2233.2052,N,11413.8083,E,164943.00,A,A*64
$GPGSA,A,3,02,04,10,15,26,27,,,,,,,2.7,1.9,1.9*35
$GPRMC,164944.000,A,2233.2052,N,11413.8083,E,0.0,105.6,040191,,,A*6B
$GPGGA,164944.000,2233.2052,N,11413.8083,E,1,06,1.9,49.4,M,14.2,M,,0000*66
$GPVTG,105.6,T,,M,0.0,N,0.0,K,A*0F
$GPGLL,2233.2052,N,11413.8083,E,164944.00,A,A*63
$GPGSA,A,3,02,04,10,15,26,27,,,,,,,2.7,1.9,1.9*35
$GPRMC,164945.000,A,2233.2052,N,11413.8083,E,0.0,105.6,040191,,,A*6A
$GPGGA,164945.000,2233.2052,N,11413.8083,E,1,06,1.9,49.4,M,14.2,M,,0000*67
$GPVTG,105.6,T,,M,0.0,N,0.0,K,A*0F
$GPGLL,2233.2052,N,11413.8083,E,164945.00,A,A*62
$GPGSA,A,3,02,04,10,15,26,27,,,,,,,2.7,1.9,1.9*35
$GPRMC,164946.000,A,2233.2052,N,11413.8083,E,0.0,105.6,040191,,,A*69
$GPGGA,164946.000,2233.2052,N,11413.8083,E,1,06,1.9,49.4,M,14.2,M,,0000*64
$GPVTG,105.6,T,,M,0.0,N,0.0,K,A*0F
$GPGLL,2233.2052,N,11413.8083,E,164946.00,A,A*61
$GPGSA,A,3,02,04,10,15,26,27,,,,,,,2.7,1.9,1.9*35
$GPGSV,3,1,11,10,19,052,21,02,47,099,13,04,12,117,12,27,13,172,37*71
$GPGSV,3,2,11,12,04,215,26,26,84,104,29,15,62,215,36,09,04,184,37*7C
$GPGSV,3,3,11,29,39,299,20,05,46,015,,08,14,069,*49
$GPRMC,164947.000,A,2233.2052,N,11413.8083,E,0.0,105.6,040191,,,A*68
$GPGGA,164947.000,2233.2052,N,11413.8083,E,1,06,1.9,49.4,M,14.2,M,,0000*65
$GPVTG,105.6,T,,M,0.0,N,0.0,K,A*0F
$GPGLL,2233.2052,N,11413.8083,E,164947.00,A,A*60
$GPGSA,A,3,02,04,10,15,26,27,,,,,,,2.7,1.9,1.9*35
$GPRMC,164948.000,A,2233.2071,N,11413.8053,E,3.8,105.6,040191,,,A*60
$GPGGA,164948.000,2233.2071,N,11413.8053,E,1,07,1.6,43.6,M,14.2,M,,0000*60
$GPVTG,105.6,T,,M,3.8,N,7.1,K,A*02
$GPGLL,2233.2071,N,11413.8053,E,164948.00,A,A*63
$GPGSA,A,3,02,04,05,10,15,26,27,,,,,,2.4,1.6,1.8*3D
$GPRMC,164949.000,A,2233.2092,N,11413.8021,E,4.2,303.1,040191,,,A*67
$GPGGA,164949.000,2233.2092,N,11413.8021,E,1,06,1.9,37.2,M,14.2,M,,0000*60
$GPVTG,303.1,T,,M,4.2,N,7.8,K,A*05
$GPGLL,2233.2092,N,11413.8021,E,164949.00,A,A*6A
$GPGSA,A,3,02,04,10,15,26,27,,,,,,,2.7,1.9,1.9*35
$GPRMC,164950.000,A,2233.2105,N,11413.7999,E,4.4,299.6,040191,,,A*66
$GPGGA,164950.000,2233.2105,N,11413.7999,E,1,07,1.6,33.3,M,14.2,M,,0000*69
$GPVTG,299.6,T,,M,4.4,N,8.1,K,A*00
$GPGLL,2233.2105,N,11413.7999,E,164950.00,A,A*68
$GPGSA,A,3,02,04,05,10,15,26,27,,,,,,2.4,1.6,1.8*3D
$GPRMC,164951.000,A,2233.2105,N,11413.7999,E,0.0,299.6,040191,,,A*67
$GPGGA,164951.000,2233.2105,N,11413.7999,E,1,07,1.6,33.3,M,14.2,M,,0000*68
$GPVTG,299.6,T,,M,0.0,N,0.0,K,A*09
$GPGLL,2233.2105,N,11413.7999,E,164951.00,A,A*69
$GPGSA,A,3,02,04,05,10,15,26,27,,,,,,2.4,1.6,1.8*3D
$GPGSV,3,1,11,10,19,052,22,05,46,015,15,02,47,099,12,27,14,172,38*7F
$GPGSV,3,2,11,12,04,215,24,26,84,103,28,15,62,215,36,09,04,184,38*77
$GPGSV,3,3,11,29,39,299,19,08,14,069,,04,12,117,*40
$GPRMC,164952.000,A,2233.2122,N,11413.7973,E,4.1,299.6,040191,,,A*60
$GPGGA,164952.000,2233.2122,N,11413.7973,E,1,05,2.3,28.2,M,14.2,M,,0000*65
$GPVTG,299.6,T,,M,4.1,N,7.6,K,A*0D
$GPGLL,2233.2122,N,11413.7973,E,164952.00,A,A*6B
$GPGSA,A,3,02,10,15,26,27,,,,,,,,3.0,2.3,1.9*3E
$GPRMC,164953.000,A,2233.2122,N,11413.7973,E,0.0,299.6,040191,,,A*64
$GPGGA,164953.000,2233.2122,N,11413.7973,E,1,05,2.3,28.2,M,14.2,M,,0000*64
$GPVTG,299.6,T,,M,0.0,N,0.0,K,A*09
$GPGLL,2233.2122,N,11413.7973,E,164953.00,A,A*6A
$GPGSA,A,3,02,10,15,26,27,,,,,,,,3.0,2.3,1.9*3E
$GPRMC,164954.000,A,2233.2140,N,11413.7945,E,4.1,299.6,040191,,,A*67
$GPGGA,164954.000,2233.2140,N,11413.7945,E,1,05,2.3,22.4,M,14.2,M,,0000*6E
$GPVTG,299.6,T,,M,4.1,N,7.6,K,A*0D
$GPGLL,2233.2140,N,11413.7945,E,164954.00,A,A*6C
$GPGSA,A,3,02,10,15,26,27,,,,,,,,3.0,2.3,1.9*3E
$GPRMC,164955.000,A,2233.2140,N,11413.7945,E,0.0,299.6,040191,,,A*63
$GPGGA,164955.000,2233.2140,N,11413.7945,E,1,06,1.8,22.4,M,14.2,M,,0000*64
$GPVTG,299.6,T,,M,0.0,N,0.0,K,A*09
$GPGLL,2233.2140,N,11413.7945,E,164955.00,A,A*6D
$GPGSA,A,3,02,05,10,15,26,27,,,,,,,2.5,1.8,1.8*36
$GPRMC,164956.000,A,2233.2140,N,11413.7945,E,0.0,299.6,040191,,,A*60
$GPGGA,164956.000,2233.2140,N,11413.7945,E,1,05,2.3,22.4,M,14.2,M,,0000*6C
$GPVTG,299.6,T,,M,0.0,N,0.0,K,A*09
$GPGLL,2233.2140,N,11413.7945,E,164956.00,A,A*6E
$GPGSA,A,3,02,10,15,26,27,,,,,,,,3.0,2.3,1.9*3E
$GPGSV,3,1,11,10,19,052,20,05,46,015,16,02,47,099,11,27,14,172,37*72
$GPGSV,3,2,11,12,04,215,26,26,84,103,28,15,62,215,36,09,04,184,36*7B
$GPGSV,3,3,11,29,39,299,18,08,14,069,,04,12,117,*41
$GPRMC,164957.000,A,2233.2140,N,11413.7945,E,0.0,299.6,040191,,,A*61
$GPGGA,164957.000,2233.2140,N,11413.7945,E,1,06,1.8,22.4,M,14.2,M,,0000*66
$GPVTG,299.6,T,,M,0.0,N,0.0,K,A*09
$GPGLL,2233.2140,N,11413.7945,E,164957.00,A,A*6F
$GPGSA,A,3,02,05,10,15,26,27,,,,,,,2.5,1.8,1.8*36
$GPRMC,164958.000,A,2233.2140,N,11413.7945,E,0.0,299.6,040191,,,A*6E
$GPGGA,164958.000,2233.2140,N,11413.7945,E,1,05,2.3,22.4,M,14.2,M,,0000*62
$GPVTG,299.6,T,,M,0.0,N,0.0,K,A*09
$GPGLL,2233.2140,N,11413.7945,E,164958.00,A,A*60
$GPGSA,A,3,02,05,10,15,26,,,,,,,,4.2,2.3,3.5*35
$GPRMC,164959.000,A,2233.2140,N,11413.7945,E,0.0,299.6,040191,,,A*6F
$GPGGA,164959.000,2233.2140,N,11413.7945,E,1,04,5.7,22.4,M,14.2,M,,0000*61
$GPVTG,299.6,T,,M,0.0,N,0.0,K,A*09
$GPGLL,2233.2140,N,11413.7945,E,164959.00,A,A*61
$GPGSA,A,3,10,15,26,27,,,,,,,,,7.1,5.7,4.3*35
$GPRMC,165000.000,A,2233.2140,N,11413.7945,E,0.0,299.6,040191,,,A*6B
$GPGGA,165000.000,2233.2140,N,11413.7945,E,1,04,5.7,22.4,M,14.2,M,,0000*65
$GPVTG,299.6,T,,M,0.0,N,0.0,K,A*09
$GPGLL,2233.2140,N,11413.7945,E,165000.00,A,A*65
$GPGSA,A,3,10,15,26,27,,,,,,,,,7.1,5.7,4.3*35
$GPRMC,165001.000,A,2233.2140,N,11413.7945,E,0.0,299.6,040191,,,A*6A
$GPGGA,165001.000,2233.2140,N,11413.7945,E,1,04,5.7,22.4,M,14.2,M,,0000*64
$GPVTG,299.6,T,,M,0.0,N,0.0,K,A*09
$GPGLL,2233.2140,N,11413.7945,E,165001.00,A,A*64
$GPGSA,A,3,10,15,26,27,,,,,,,,,7.1,5.7,4.3*35
$GPGSV,3,1,11,10,19,053,20,05,46,015,15,27,14,172,39,12,,,27*49
$GPGSV,3,2,11,26,84,102,29,15,62,215,38,09,04,184,37,29,39,299,16*75
$GPGSV,3,3,11,02,47,099,,08,14,069,,04,12,117,*4A
$GPRMC,165002.000,A,2233.2140,N,11413.7945,E,0.0,299.6,040191,,,A*69
$GPGGA,165002.000,2233.2140,N,11413.7945,E,1,05,3.5,22.4,M,14.2,M,,0000*62
$GPVTG,299.6,T,,M,0.0,N,0.0,K,A*09
$GPGLL,2233.2140,N,11413.7945,E,165002.00,A,A*67
$GPGSA,A,3,05,10,15,26,27,,,,,,,,4.6,3.5,3.0*34
$GPRMC,165003.000,A,2233.2140,N,11413.7945,E,0.0,299.6,040191,,,A*68
$GPGGA,165003.000,2233.2140,N,11413.7945,E,1,05,3.5,22.4,M,14.2,M,,0000*63
$GPVTG,299.6,T,,M,0.0,N,0.0,K,A*09
$GPGLL,2233.2140,N,11413.7945,E,165003.00,A,A*66
$GPGSA,A,3,05,10,15,26,27,,,,,,,,4.6,3.5,3.0*34
$GPRMC,165004.000,A,2233.2140,N,11413.7945,E,0.0,299.6,040191,,,A*6F
$GPGGA,165004.000,2233.2140,N,11413.7945,E,1,04,5.7,22.4,M,14.2,M,,0000*61
$GPVTG,299.6,T,,M,0.0,N,0.0,K,A*09
$GPGLL,2233.2140,N,11413.7945,E,165004.00,A,A*61
$GPGSA,A,3,10,15,26,27,,,,,,,,,7.1,5.7,4.3*35
$GPRMC,165005.000,A,2233.2140,N,11413.7945,E,0.0,299.6,040191,,,A*6E
$GPGGA,165005.000,2233.2140,N,11413.7945,E,1,04,5.7,22.4,M,14.2,M,,0000*60
$GPVTG,299.6,T,,M,0.0,N,0.0,K,A*09
$GPGLL,2233.2140,N,11413.7945,E,165005.00,A,A*60
$GPGSA,A,3,10,15,26,27,,,,,,,,,7.1,5.7,4.3*35
$GPRMC,165006.000,A,2233.2153,N,11413.7942,E,4.5,299.6,040191,,,A*69
$GPGGA,165006.000,2233.2153,N,11413.7942,E,1,04,5.7,20.7,M,14.2,M,,0000*67
$GPVTG,299.6,T,,M,4.5,N,8.4,K,A*04
$GPGLL,2233.2153,N,11413.7942,E,165006.00,A,A*66
$GPGSA,A,3,10,15,26,27,,,,,,,,,7.1,5.7,4.3*35
$GPGSV,3,1,10,10,19,053,21,27,14,171,38,08,14,069,15,26,84,102,27*72
$GPGSV,3,2,10,15,62,216,38,09,04,184,38,29,39,299,16,02,47,099,*79
$GPGSV,3,3,10,05,46,015,,04,12,117,*7B
$GPRMC,165007.000,A,2233.2166,N,11413.7930,E,5.0,303.6,040191,,,A*6D
$GPGGA,165007.000,2233.2166,N,11413.7930,E,1,04,5.7,17.5,M,14.2,M,,0000*63
$GPVTG,303.6,T,,M,5.0,N,9.3,K,A*04
$GPGLL,2233.2166,N,11413.7930,E,165007.00,A,A*64
$GPGSA,A,3,10,15,26,27,,,,,,,,,7.1,5.7,4.3*35
$GPRMC,165008.000,A,2233.2165,N,11413.7938,E,3.6,303.6,040191,,,A*69
$GPGGA,165008.000,2233.2165,N,11413.7938,E,1,06,2.2,19.1,M,14.2,M,,0000*6D
$GPVTG,303.6,T,,M,3.6,N,6.7,K,A*0F
$GPGLL,2233.2165,N,11413.7938,E,165008.00,A,A*60
$GPGSA,A,3,02,09,10,15,26,27,,,,,,,2.7,2.2,1.6*3F
$GPRMC,165009.000,A,2233.2173,N,11413.7937,E,3.4,303.6,040191,,,A*62
$GPGGA,165009.000,2233.2173,N,11413.7937,E,1,06,2.2,18.1,M,14.2,M,,0000*65
$GPVTG,303.6,T,,M,3.4,N,6.2,K,A*08
$GPGLL,2233.2173,N,11413.7937,E,165009.00,A,A*69
$GPGSA,A,3,02,09,10,15,26,27,,,,,,,2.7,2.2,1.6*3F
$GPRMC,165010.000,A,2233.2176,N,11413.7926,E,2.5,303.6,040191,,,A*6F
$GPGGA,165010.000,2233.2176,N,11413.7926,E,1,07,1.7,16.9,M,14.2,M,,0000*69
$GPVTG,303.6,T,,M,2.5,N,4.7,K,A*0F
$GPGLL,2233.2176,N,11413.7926,E,165010.00,A,A*64
$GPGSA,A,3,02,04,09,10,15,26,27,,,,,,2.3,1.7,1.5*3A
$GPRMC,165011.000,A,2233.2177,N,11413.7924,E,2.3,303.6,040191,,,A*6B
$GPGGA,165011.000,2233.2177,N,11413.7924,E,1,08,1.4,17.0,M,14.2,M,,0000*6F
$GPVTG,303.6,T,,M,2.3,N,4.3,K,A*0D
$GPGLL,2233.2177,N,11413.7924,E,165011.00,A,A*66
$GPGSA,A,3,02,04,05,09,10,15,26,27,,,,,2.0,1.4,1.4*3E
$GPGSV,3,1,10,10,19,053,23,05,46,015,15,02,47,099,13,04,12,117,12*73
$GPGSV,3,2,10,27,14,171,39,26,84,101,29,15,62,216,39,09,05,184,38*72
$GPGSV,3,3,10,29,39,299,17,08,14,069,*7F
$GPRMC,165012.000,A,2233.2177,N,11413.7924,E,0.0,303.6,040191,,,A*69
$GPGGA,165012.000,2233.2177,N,11413.7924,E,1,08,1.4,17.0,M,14.2,M,,0000*6C
$GPVTG,303.6,T,,M,0.0,N,0.0,K,A*0B
$GPGLL,2233.2177,N,11413.7924,E,165012.00,A,A*65
$GPGSA,A,3,02,04,05,09,10,15,26,27,,,,,2.0,1.4,1.4*3E
$GPRMC,165013.000,A,2233.2177,N,11413.7924,E,0.0,303.6,040191,,,A*68
$GPGGA,165013.000,2233.2177,N,11413.7924,E,1,07,1.7,17.0,M,14.2,M,,0000*61
$GPVTG,303.6,T,,M,0.0,N,0.0,K,A*0B
$GPGLL,2233.2177,N,11413.7924,E,165013.00,A,A*64
$GPGSA,A,3,02,04,09,10,15,26,27,,,,,,2.3,1.7,1.6*39
$GPRMC,165014.000,A,2233.2177,N,11413.7924,E,0.0,303.6,040191,,,A*6F
$GPGGA,165014.000,2233.2177,N,11413.7924,E,1,07,1.7,17.0,M,14.2,M,,0000*66
$GPVTG,303.6,T,,M,0.0,N,0.0,K,A*0B
$GPGLL,2233.2177,N,11413.7924,E,165014.00,A,A*63
$GPGSA,A,3,02,04,09,10,15,26,27,,,,,,2.3,1.7,1.6*39
$GPRMC,165015.000,A,2233.2177,N,11413.7924,E,0.0,303.6,040191,,,A*6E
$GPGGA,165015.000,2233.2177,N,11413.7924,E,1,07,1.7,17.0,M,14.2,M,,0000*67
$GPVTG,303.6,T,,M,0.0,N,0.0,K,A*0B
$GPGLL,2233.2177,N,11413.7924,E,165015.00,A,A*62
$GPGSA,A,3,02,04,09,10,15,26,27,,,,,,2.3,1.7,1.6*39
$GPRMC,165016.000,A,2233.2177,N,11413.7924,E,0.0,303.6,040191,,,A*6D
$GPGGA,165016.000,2233.2177,N,11413.7924,E,1,07,1.7,17.0,M,14.2,M,,0000*64
$GPVTG,303.6,T,,M,0.0,N,0.0,K,A*0B
$GPGLL,2233.2177,N,11413.7924,E,165016.00,A,A*61
$GPGSA,A,3,02,04,09,10,15,26,27,,,,,,2.3,1.7,1.6*39
$GPGSV,3,1,10,10,19,053,25,05,46,015,17,02,47,099,15,04,12,117,13*70
$GPGSV,3,2,10,27,14,171,38,26,84,101,26,15,62,216,38,09,05,184,36*73
$GPGSV,3,3,10,29,39,299,16,08,14,069,*7E
$GPRMC,165017.000,A,2233.2177,N,11413.7924,E,0.0,303.6,040191,,,A*6C
$GPGGA,165017.000,2233.2177,N,11413.7924,E,1,08,1.4,17.0,M,14.2,M,,0000*69
$GPVTG,303.6,T,,M,0.0,N,0.0,K,A*0B
$GPGLL,2233.2177,N,11413.7924,E,165017.00,A,A*60
$GPGSA,A,3,02,04,05,09,10,15,26,27,,,,,2.0,1.4,1.4*3E
$GPRMC,165018.000,A,2233.2177,N,11413.7924,E,0.0,303.6,040191,,,A*63
$GPGGA,165018.000,2233.2177,N,11413.7924,E,1,07,1.7,17.0,M,14.2,M,,0000*6A
$GPVTG,303.6,T,,M,0.0,N,0.0,K,A*0B
$GPGLL,2233.2177,N,11413.7924,E,165018.00,A,A*6F
$GPGSA,A,3,02,04,09,10,15,26,27,,,,,,2.3,1.7,1.6*39
$GPRMC,165019.000,A,2233.2177,N,11413.7924,E,0.0,303.6,040191,,,A*62
$GPGGA,165019.000,2233.2177,N,11413.7924,E,1,08,1.4,17.0,M,14.2,M,,0000*67
$GPVTG,303.6,T,,M,0.0,N,0.0,K,A*0B
$GPGLL,2233.2177,N,11413.7924,E,165019.00,A,A*6E
$GPGSA,A,3,02,04,05,09,10,15,26,27,,,,,2.0,1.4,1.4*3E
$GPRMC,165020.000,A,2233.2177,N,11413.7924,E,0.0,303.6,040191,,,A*68
$GPGGA,165020.000,2233.2177,N,11413.7924,E,1,08,1.4,17.0,M,14.2,M,,0000*6D
$GPVTG,303.6,T,,M,0.0,N,0.0,K,A*0B
$GPGLL,2233.2177,N,11413.7924,E,165020.00,A,A*64
$GPGSA,A,3,02,04,05,09,10,15,26,27,,,,,2.0,1.4,1.4*3E
$GPRMC,165021.000,A,2233.2177,N,11413.7924,E,0.0,303.6,040191,,,A*69
$GPGGA,165021.000,2233.2177,N,11413.7924,E,1,07,1.7,17.0,M,14.2,M,,0000*60
$GPVTG,303.6,T,,M,0.0,N,0.0,K,A*0B
$GPGLL,2233.2177,N,11413.7924,E,165021.00,A,A*65
$GPGSA,A,3,02,04,09,10,15,26,27,,,,,,2.3,1.7,1.6*39
$GPGSV,3,1,10,10,19,053,23,05,46,015,17,02,47,099,15,04,12,117,12*77
$GPGSV,3,2,10,27,14,171,38,26,84,100,28,15,62,216,38,09,05,184,37*7D
$GPGSV,3,3,10,29,39,299,17,08,14,069,*7F
$GPRMC,165022.000,A,2233.2177,N,11413.7924,E,0.0,303.6,040191,,,A*6A
$GPGGA,165022.000,2233.2177,N,11413.7924,E,1,07,1.7,17.0,M,14.2,M,,0000*63
$GPVTG,303.6,T,,M,0.0,N,0.0,K,A*0B
$GPGLL,2233.2177,N,11413.7924,E,165022.00,A,A*66
$GPGSA,A,3,02,04,09,10,15,26,27,,,,,,2.3,1.7,1.6*39
$GPRMC,165023.000,A,2233.2177,N,11413.7924,E,0.0,303.6,040191,,,A*6B
$GPGGA,165023.000,2233.2177,N,11413.7924,E,1,08,1.4,17.0,M,14.2,M,,0000*6E
$GPVTG,303.6,T,,M,0.0,N,0.0,K,A*0B
$GPGLL,2233.2177,N,11413.7924,E,165023.00,A,A*67
$GPGSA,A,3,02,04,05,09,10,15,26,27,,,,,2.0,1.4,1.4*3E
$GPRMC,165024.000,A,2233.2177,N,11413.7924,E,0.0,303.6,040191,,,A*6C
$GPGGA,165024.000,2233.2177,N,11413.7924,E,1,08,1.4,17.0,M,14.2,M,,0000*69
$GPVTG,303.6,T,,M,0.0,N,0.0,K,A*0B
$GPGLL,2233.2177,N,11413.7924,E,165024.00,A,A*60
$GPGSA,A,3,02,04,05,09,10,15,26,27,,,,,2.0,1.4,1.4*3E
$GPRMC,165025.000,A,2233.2177,N,11413.7924,E,0.0,303.6,040191,,,A*6D
$GPGGA,165025.000,2233.2177,N,11413.7924,E,1,08,1.4,17.0,M,14.2,M,,0000*68
$GPVTG,303.6,T,,M,0.0,N,0.0,K,A*0B
$GPGLL,2233.2177,N,11413.7924,E,165025.00,A,A*61
$GPGSA,A,3,02,04,05,09,10,15,26,27,,,,,2.0,1.4,1.4*3E
$GPRMC,165026.000,A,2233.2177,N,11413.7924,E,0.0,303.6,040191,,,A*6E
$GPGGA,165026.000,2233.2177,N,11413.7924,E,1,08,1.4,17.0,M,14.2,M,,0000*6B
$GPVTG,303.6,T,,M,0.0,N,0.0,K,A*0B
$GPGLL,2233.2177,N,11413.7924,E,165026.00,A,A*62
$GPGSA,A,3,02,04,05,09,10,15,26,27,,,,,2.0,1.4,1.4*3E
$GPGSV,3,1,10,10,19,053,21,05,46,015,19,02,47,099,14,27,14,171,37*7A
$GPGSV,3,2,10,26,84,100,26,15,62,216,37,09,05,184,36,29,39,299,17*74
$GPGSV,3,3,10,08,14,069,,04,12,117,*7A
$GPRMC,165027.000,A,2233.2177,N,11413.7924,E,0.0,303.6,040191,,,A*6F
$GPGGA,165027.000,2233.2177,N,11413.7924,E,1,07,1.7,17.0,M,14.2,M,,0000*66
$GPVTG,303.6,T,,M,0.0,N,0.0,K,A*0B
$GPGLL,2233.2177,N,11413.7924,E,165027.00,A,A*63
$GPGSA,A,3,02,05,09,10,15,26,27,,,,,,2.2,1.7,1.4*3B
$GPRMC,165028.000,A,2233.2177,N,11413.7924,E,0.0,303.6,040191,,,A*60
$GPGGA,165028.000,2233.2177,N,11413.7924,E,1,07,1.7,17.0,M,14.2,M,,0000*69
$GPVTG,303.6,T,,M,0.0,N,0.0,K,A*0B
$GPGLL,2233.2177,N,11413.7924,E,165028.00,A,A*6C
$GPGSA,A,3,02,05,09,10,15,26,27,,,,,,2.2,1.7,1.4*3B
$GPRMC,165029.000,A,2233.2177,N,11413.7924,E,0.0,303.6,040191,,,A*61
$GPGGA,165029.000,2233.2177,N,11413.7924,E,1,07,1.7,17.0,M,14.2,M,,0000*68
$GPVTG,303.6,T,,M,0.0,N,0.0,K,A*0B
$GPGLL,2233.2177,N,11413.7924,E,165029.00,A,A*6D
$GPGSA,A,3,02,05,09,10,15,26,27,,,,,,2.2,1.7,1.4*3B
$GPRMC,165030.000,A,2233.2177,N,11413.7924,E,0.0,303.6,040191,,,A*69
$GPGGA,165030.000,2233.2177,N,11413.7924,E,1,07,1.7,17.0,M,14.2,M,,0000*60
$GPVTG,303.6,T,,M,0.0,N,0.0,K,A*0B
$GPGLL,2233.2177,N,11413.7924,E,165030.00,A,A*65
$GPGSA,A,3,02,05,09,10,15,26,27,,,,,,2.2,1.7,1.4*3B
$GPRMC,165031.000,A,2233.2177,N,11413.7924,E,0.0,303.6,040191,,,A*68
$GPGGA,165031.000,2233.2177,N,11413.7924,E,1,07,1.7,17.0,M,14.2,M,,0000*61
$GPVTG,303.6,T,,M,0.0,N,0.0,K,A*0B
$GPGLL,2233.2177,N,11413.7924,E,165031.00,A,A*64
$GPGSA,A,3,02,05,09,10,15,26,27,,,,,,2.2,1.7,1.4*3B
$GPGSV,3,1,10,10,19,053,24,05,46,015,21,02,47,099,12,27,14,171,38*7D
$GPGSV,3,2,10,26,84,099,26,15,62,216,37,09,05,183,36,29,39,299,17*72
$GPGSV,3,3,10,08,14,069,,04,12,117,*7A
$GPRMC,165032.000,A,2233.2177,N,11413.7924,E,0.0,303.6,040191,,,A*6B
$GPGGA,165032.000,2233.2177,N,11413.7924,E,1,07,1.7,17.0,M,14.2,M,,0000*62
$GPVTG,303.6,T,,M,0.0,N,0.0,K,A*0B
$GPGLL,2233.2177,N,11413.7924,E,165032.00,A,A*67
$GPGSA,A,3,02,05,09,10,15,26,27,,,,,,2.2,1.7,1.4*3B
$GPRMC,165033.000,A,2233.2177,N,11413.7924,E,0.0,303.6,040191,,,A*6A
$GPGGA,165033.000,2233.2177,N,11413.7924,E,1,07,1.7,17.0,M,14.2,M,,0000*63
$GPVTG,303.6,T,,M,0.0,N,0.0,K,A*0B
$GPGLL,2233.2177,N,11413.7924,E,165033.00,A,A*66
$GPGSA,A,3,02,05,09,10,15,26,27,,,,,,2.2,1.7,1.4*3B
$GPRMC,165034.000,A,2233.2177,N,11413.7924,E,0.0,303.6,040191,,,A*6D
$GPGGA,165034.000,2233.2177,N,11413.7924,E,1,07,1.7,17.0,M,14.2,M,,0000*64
$GPVTG,303.6,T,,M,0.0,N,0.0,K,A*0B
$GPGLL,2233.2177,N,11413.7924,E,165034.00,A,A*61
$GPGSA,A,3,02,05,09,10,15,26,27,,,,,,2.2,1.7,1.4*3B
$GPRMC,165035.000,A,2233.2177,N,11413.7924,E,0.0,303.6,040191,,,A*6C
$GPGGA,165035.000,2233.2177,N,11413.7924,E,1,07,1.7,17.0,M,14.2,M,,0000*65
$GPVTG,303.6,T,,M,0.0,N,0.0,K,A*0B
$GPGLL,2233.2177,N,11413.7924,E,165035.00,A,A*60
$GPGSA,A,3,02,05,09,10,15,26,27,,,,,,2.2,1.7,1.4*3B
$GPRMC,165036.000,A,2233.2177,N,11413.7924,E,0.0,303.6,040191,,,A*6F
$GPGGA,165036.000,2233.2177,N,11413.7924,E,1,07,1.7,17.0,M,14.2,M,,0000*66
$GPVTG,303.6,T,,M,0.0,N,0.0,K,A*0B
$GPGLL,2233.2177,N,11413.7924,E,165036.00,A,A*63
$GPGSA,A,3,02,05,09,10,15,26,27,,,,,,2.2,1.7,1.4*3B
$GPGSV,3,1,10,10,19,053,26,05,46,015,20,02,47,099,11,27,14,171,38*7D
$GPGSV,3,2,10,26,84,099,27,15,62,216,38,09,05,183,36,29,39,299,20*78
$GPGSV,3,3,10,08,14,069,,04,12,117,*7A
$GPRMC,165037.000,A,2233.2177,N,11413.7924,E,0.0,303.6,040191,,,A*6E
$GPGGA,165037.000,2233.2177,N,11413.7924,E,1,06,2.9,17.0,M,14.2,M,,0000*6B
$GPVTG,303.6,T,,M,0.0,N,0.0,K,A*0B
$GPGLL,2233.2177,N,11413.7924,E,165037.00,A,A*62
$GPGSA,A,3,05,09,10,15,26,27,,,,,,,3.6,2.9,2.1*37
$GPRMC,165038.000,A,2233.2177,N,11413.7924,E,0.0,303.6,040191,,,A*61
$GPGGA,165038.000,2233.2177,N,11413.7924,E,1,06,2.9,17.0,M,14.2,M,,0000*64
$GPVTG,303.6,T,,M,0.0,N,0.0,K,A*0B
$GPGLL,2233.2177,N,11413.7924,E,165038.00,A,A*6D
$GPGSA,A,3,05,09,10,15,26,27,,,,,,,3.6,2.9,2.1*37
$GPRMC,165039.000,A,2233.2177,N,11413.7924,E,0.0,303.6,040191,,,A*60
$GPGGA,165039.000,2233.2177,N,11413.7924,E,1,06,2.9,17.0,M,14.2,M,,0000*65
$GPVTG,303.6,T,,M,0.0,N,0.0,K,A*0B
$GPGLL,2233.2177,N,11413.7924,E,165039.00,A,A*6C
$GPGSA,A,3,05,09,10,15,26,27,,,,,,,3.6,2.9,2.1*37
$GPRMC,165040.000,A,2233.2177,N,11413.7924,E,0.0,303.6,040191,,,A*6E
$GPGGA,165040.000,2233.2177,N,11413.7924,E,1,06,2.9,17.0,M,14.2,M,,0000*6B
$GPVTG,303.6,T,,M,0.0,N,0.0,K,A*0B
$GPGLL,2233.2177,N,11413.7924,E,165040.00,A,A*62
$GPGSA,A,3,05,09,10,15,26,27,,,,,,,3.6,2.9,2.1*37
$GPRMC,165041.000,A,2233.2177,N,11413.7924,E,0.0,303.6,040191,,,A*6F
$GPGGA,165041.000,2233.2177,N,11413.7924,E,1,06,2.9,17.0,M,14.2,M,,0000*6A
$GPVTG,303.6,T,,M,0.0,N,0.0,K,A*0B
$GPGLL,2233.2177,N,11413.7924,E,165041.00,A,A*63
$GPGSA,A,3,05,09,10,15,26,27,,,,,,,3.6,2.9,2.1*37
$GPGSV,3,1,10,10,19,053,24,05,46,015,17,27,14,171,37,26,84,098,25*7B
$GPGSV,3,2,10,15,62,216,38,09,05,183,35,29,39,299,19,02,47,099,*7D
$GPGSV,3,3,10,08,14,069,,04,12,117,*7A
$GPRMC,165042.000,A,2233.2177,N,11413.7924,E,0.0,303.6,040191,,,A*6C
$GPGGA,165042.000,2233.2177,N,11413.7924,E,1,06,2.9,17.0,M,14.2,M,,0000*69
$GPVTG,303.6,T,,M,0.0,N,0.0,K,A*0B
$GPGLL,2233.2177,N,11413.7924,E,165042.00,A,A*60
$GPGSA,A,3,05,09,10,15,26,27,,,,,,,3.6,2.9,2.1*37
$GPRMC,165043.000,A,2233.2177,N,11413.7924,E,0.0,303.6,040191,,,A*6D
$GPGGA,165043.000,2233.2177,N,11413.7924,E,1,06,2.9,17.0,M,14.2,M,,0000*68
$GPVTG,303.6,T,,M,0.0,N,0.0,K,A*0B
$GPGLL,2233.2177,N,11413.7924,E,165043.00,A,A*61
$GPGSA,A,3,05,09,10,15,26,27,,,,,,,3.6,2.9,2.1*37
$GPRMC,165044.000,A,2233.2177,N,11413.7924,E,0.0,303.6,040191,,,A*6A
$GPGGA,165044.000,2233.2177,N,11413.7924,E,1,06,2.9,17.0,M,14.2,M,,0000*6F
$GPVTG,303.6,T,,M,0.0,N,0.0,K,A*0B
$GPGLL,2233.2177,N,11413.7924,E,165044.00,A,A*66
$GPGSA,A,3,05,09,10,15,26,27,,,,,,,3.6,2.9,2.1*37
$GPRMC,165045.000,A,2233.2177,N,11413.7924,E,0.0,303.6,040191,,,A*6B
$GPGGA,165045.000,2233.2177,N,11413.7924,E,1,06,2.9,17.0,M,14.2,M,,0000*6E
$GPVTG,303.6,T,,M,0.0,N,0.0,K,A*0B
$GPGLL,2233.2177,N,11413.7924,E,165045.00,A,A*67
$GPGSA,A,3,05,09,10,15,26,27,,,,,,,3.6,2.9,2.1*37
$GPRMC,165046.000,A,2233.2177,N,11413.7924,E,0.0,303.6,040191,,,A*68
$GPGGA,165046.000,2233.2177,N,11413.7924,E,1,06,2.9,17.0,M,14.2,M,,0000*6D
$GPVTG,303.6,T,,M,0.0,N,0.0,K,A*0B
$GPGLL,2233.2177,N,11413.7924,E,165046.00,A,A*64
$GPGSA,A,3,05,09,10,15,26,27,,,,,,,3.6,2.9,2.1*37
$GPGSV,3,1,10,10,19,053,23,05,46,016,15,27,14,171,37,26,84,097,26*71
$GPGSV,3,2,10,15,63,216,37,09,05,183,36,29,39,299,17,02,47,099,*7E
$GPGSV,3,3,10,08,14,069,,04,12,117,*7A
$GPRMC,165047.000,A,2233.2177,N,11413.7924,E,0.0,303.6,040191,,,A*69
$GPGGA,165047.000,2233.2177,N,11413.7924,E,1,06,2.9,17.0,M,14.2,M,,0000*6C
$GPVTG,303.6,T,,M,0.0,N,0.0,K,A*0B
$GPGLL,2233.2177,N,11413.7924,E,165047.00,A,A*65
$GPGSA,A,3,05,09,10,15,26,27,,,,,,,3.6,2.9,2.1*37
$GPRMC,165048.000,A,2233.2177,N,11413.7924,E,0.0,303.6,040191,,,A*66
$GPGGA,165048.000,2233.2177,N,11413.7924,E,1,06,2.9,17.0,M,14.2,M,,0000*63
$GPVTG,303.6,T,,M,0.0,N,0.0,K,A*0B
$GPGLL,2233.2177,N,11413.7924,E,165048.00,A,A*6A
$GPGSA,A,3,05,09,10,15,26,27,,,,,,,3.6,2.9,2.1*37
$GPRMC,165049.000,A,2233.2177,N,11413.7924,E,0.0,303.6,040191,,,A*67
$GPGGA,165049.000,2233.2177,N,11413.7924,E,1,06,2.9,17.0,M,14.2,M,,0000*62
$GPVTG,303.6,T,,M,0.0,N,0.0,K,A*0B
$GPGLL,2233.2177,N,11413.7924,E,165049.00,A,A*6B
$GPGSA,A,3,05,09,10,15,26,27,,,,,,,3.6,2.9,2.1*37
$GPRMC,165050.000,A,2233.2177,N,11413.7924,E,0.0,303.6,040191,,,A*6F
$GPGGA,165050.000,2233.2177,N,11413.7924,E,1,06,2.9,17.0,M,14.2,M,,0000*6A
$GPVTG,303.6,T,,M,0.0,N,0.0,K,A*0B
$GPGLL,2233.2177,N,11413.7924,E,165050.00,A,A*63
$GPGSA,A,3,05,09,10,15,26,27,,,,,,,3.6,2.9,2.1*37
$GPRMC,165051.000,A,2233.2177,N,11413.7924,E,0.0,303.6,040191,,,A*6E
$GPGGA,165051.000,2233.2177,N,11413.7924,E,1,06,2.9,17.0,M,14.2,M,,0000*6B
$GPVTG,303.6,T,,M,0.0,N,0.0,K,A*0B
$GPGLL,2233.2177,N,11413.7924,E,165051.00,A,A*62
$GPGSA,A,3,05,09,10,15,26,27,,,,,,,3.6,2.9,2.1*37
$GPGSV,3,1,10,10,19,053,21,05,46,016,15,27,14,171,37,26,84,097,26*73
$GPGSV,3,2,10,15,63,216,37,09,05,183,36,29,39,299,18,02,47,099,*71
$GPGSV,3,3,10,08,14,069,,04,12,117,*7A
$GPRMC,165052.000,A,2233.2177,N,11413.7924,E,0.0,303.6,040191,,,A*6D
$GPGGA,165052.000,2233.2177,N,11413.7924,E,1,06,2.9,17.0,M,14.2,M,,0000*68
$GPVTG,303.6,T,,M,0.0,N,0.0,K,A*0B
$GPGLL,2233.2177,N,11413.7924,E,165052.00,A,A*61
$GPGSA,A,3,05,09,10,15,26,27,,,,,,,3.6,2.9,2.1*37
$GPRMC,165053.000,A,2233.2177,N,11413.7924,E,0.0,303.6,040191,,,A*6C
$GPGGA,165053.000,2233.2177,N,11413.7924,E,1,06,2.9,17.0,M,14.2,M,,0000*69
$GPVTG,303.6,T,,M,0.0,N,0.0,K,A*0B
$GPGLL,2233.2177,N,11413.7924,E,165053.00,A,A*60
$GPGSA,A,3,05,09,10,15,26,27,,,,,,,3.6,2.9,2.1*37
$GPRMC,165054.000,A,2233.2177,N,11413.7924,E,0.0,303.6,040191,,,A*6B
$GPGGA,165054.000,2233.2177,N,11413.7924,E,1,06,2.9,17.0,M,14.2,M,,0000*6E
$GPVTG,303.6,T,,M,0.0,N,0.0,K,A*0B
$GPGLL,2233.2177,N,11413.7924,E,165054.00,A,A*67
$GPGSA,A,3,05,09,10,15,26,27,,,,,,,3.6,2.9,2.1*37
$GPRMC,165055.000,A,2233.2177,N,11413.7924,E,0.0,303.6,040191,,,A*6A
$GPGGA,165055.000,2233.2177,N,11413.7924,E,1,06,2.9,17.0,M,14.2,M,,0000*6F
$GPVTG,303.6,T,,M,0.0,N,0.0,K,A*0B
$GPGLL,2233.2177,N,11413.7924,E,165055.00,A,A*66
$GPGSA,A,3,05,09,10,15,26,27,,,,,,,3.6,2.9,2.1*37
$GPRMC,165056.000,A,2233.2177,N,11413.7924,E,0.0,303.6,040191,,,A*69
$GPGGA,165056.000,2233.2177,N,11413.7924,E,1,06,2.9,17.0,M,14.2,M,,0000*6C
$GPVTG,303.6,T,,M,0.0,N,0.0,K,A*0B
$GPGLL,2233.2177,N,11413.7924,E,165056.00,A,A*65
$GPGSA,A,3,05,09,10,15,26,27,,,,,,,3.6,2.9,2.1*37
$GPGSV,3,1,10,10,19,053,21,05,45,016,12,27,14,171,37,26,84,096,29*79
$GPGSV,3,2,10,15,63,216,37,09,05,183,38,29,39,299,18,02,47,099,*7F
$GPGSV,3,3,10,08,14,069,,04,12,117,*7A
$GPRMC,165057.000,A,2233.2177,N,11413.7924,E,0.0,303.6,040191,,,A*68
$GPGGA,165057.000,2233.2177,N,11413.7924,E,1,06,2.9,17.0,M,14.2,M,,0000*6D
$GPVTG,303.6,T,,M,0.0,N,0.0,K,A*0B
$GPGLL,2233.2177,N,11413.7924,E,165057.00,A,A*64
$GPGSA,A,3,05,09,10,15,26,27,,,,,,,3.6,2.9,2.1*37
$GPRMC,165058.000,A,2233.2177,N,11413.7924,E,0.0,303.6,040191,,,A*67
$GPGGA,165058.000,2233.2177,N,11413.7924,E,1,05,4.3,17.0,M,14.2,M,,0000*6D
$GPVTG,303.6,T,,M,0.0,N,0.0,K,A*0B
$GPGLL,2233.2177,N,11413.7924,E,165058.00,A,A*6B
$GPGSA,A,3,09,10,15,26,27,,,,,,,,5.1,4.3,2.8*36
$GPRMC,165059.000,A,2233.2177,N,11413.7924,E,0.0,303.6,040191,,,A*66
$GPGGA,165059.000,2233.2177,N,11413.7924,E,1,05,4.3,17.0,M,14.2,M,,0000*6C
$GPVTG,303.6,T,,M,0.0,N,0.0,K,A*0B
$GPGLL,2233.2177,N,11413.7924,E,165059.00,A,A*6A
$GPGSA,A,3,09,10,15,26,27,,,,,,,,5.1,4.3,2.8*36
$GPRMC,165100.000,A,2233.2177,N,11413.7924,E,0.0,303.6,040191,,,A*6B
$GPGGA,165100.000,2233.2177,N,11413.7924,E,1,07,1.7,17.0,M,14.2,M,,0000*62
$GPVTG,303.6,T,,M,0.0,N,0.0,K,A*0B
$GPGLL,2233.2177,N,11413.7924,E,165100.00,A,A*67
$GPGSA,A,3,02,05,09,10,15,26,27,,,,,,2.3,1.7,1.5*3B
$GPRMC,165101.000,A,2233.2177,N,11413.7924,E,0.0,303.6,040191,,,A*6A
$GPGGA,165101.000,2233.2177,N,11413.7924,E,1,07,1.7,17.0,M,14.2,M,,0000*63
$GPVTG,303.6,T,,M,0.0,N,0.0,K,A*0B
$GPGLL,2233.2177,N,11413.7924,E,165101.00,A,A*66
$GPGSA,A,3,02,05,09,10,15,26,27,,,,,,2.3,1.7,1.5*3B
$GPGSV,3,1,10,10,19,053,24,05,45,016,12,02,47,099,14,27,14,171,37*74
$GPGSV,3,2,10,26,84,096,26,15,63,216,37,09,05,183,37,29,39,299,18*72
$GPGSV,3,3,10,08,14,069,,04,12,117,*7A
$GPRMC,165102.000,A,2233.2177,N,11413.7924,E,0.0,303.6,040191,,,A*69
$GPGGA,165102.000,2233.2177,N,11413.7924,E,1,05,4.3,17.0,M,14.2,M,,0000*63
$GPVTG,303.6,T,,M,0.0,N,0.0,K,A*0B
$GPGLL,2233.2177,N,11413.7924,E,165102.00,A,A*65
$GPGSA,A,3,09,10,15,26,27,,,,,,,,5.1,4.3,2.8*36
$GPRMC,165103.000,A,2233.2177,N,11413.7924,E,0.0,303.6,040191,,,A*68
$GPGGA,165103.000,2233.2177,N,11413.7924,E,1,05,4.3,17.0,M,14.2,M,,0000*62
$GPVTG,303.6,T,,M,0.0,N,0.0,K,A*0B
$GPGLL,2233.2177,N,11413.7924,E,165103.00,A,A*64
$GPGSA,A,3,09,10,15,26,27,,,,,,,,5.1,4.3,2.8*36
$GPRMC,165104.000,A,2233.2177,N,11413.7924,E,0.0,303.6,040191,,,A*6F
$GPGGA,165104.000,2233.2177,N,11413.7924,E,1,06,2.9,17.0,M,14.2,M,,0000*6A
$GPVTG,303.6,T,,M,0.0,N,0.0,K,A*0B
$GPGLL,2233.2177,N,11413.7924,E,165104.00,A,A*63
$GPGSA,A,3,05,09,10,15,26,27,,,,,,,3.6,2.9,2.1*37
$GPRMC,165105.000,A,2233.2177,N,11413.7924,E,0.0,303.6,040191,,,A*6E
$GPGGA,165105.000,2233.2177,N,11413.7924,E,1,05,4.3,17.0,M,14.2,M,,0000*64
$GPVTG,303.6,T,,M,0.0,N,0.0,K,A*0B
$GPGLL,2233.2177,N,11413.7924,E,165105.00,A,A*62
$GPGSA,A,3,09,10,15,26,27,,,,,,,,5.1,4.3,2.8*36
$GPRMC,165106.000,A,2233.2177,N,11413.7924,E,0.0,303.6,040191,,,A*6D
$GPGGA,165106.000,2233.2177,N,11413.7924,E,1,06,2.9,17.0,M,14.2,M,,0000*68
$GPVTG,303.6,T,,M,0.0,N,0.0,K,A*0B
$GPGLL,2233.2177,N,11413.7924,E,165106.00,A,A*61
$GPGSA,A,3,05,09,10,15,26,27,,,,,,,3.6,2.9,2.1*37
$GPGSV,3,1,10,10,19,053,25,05,45,016,17,27,14,171,37,26,84,095,26*74
$GPGSV,3,2,10,15,63,216,37,09,05,183,36,29,39,299,14,02,47,100,*7C
$GPGSV,3,3,10,08,14,069,,04,12,118,*75
$GPRMC,165107.000,A,2233.2177,N,11413.7924,E,0.0,303.6,040191,,,A*6C
$GPGGA,165107.000,2233.2177,N,11413.7924,E,1,06,2.9,17.0,M,14.2,M,,0000*69
$GPVTG,303.6,T,,M,0.0,N,0.0,K,A*0B
$GPGLL,2233.2177,N,11413.7924,E,165107.00,A,A*60
$GPGSA,A,3,05,09,10,15,26,27,,,,,,,3.6,2.9,2.1*37
$GPRMC,165108.000,A,2233.2177,N,11413.7924,E,0.0,303.6,040191,,,A*63
$GPGGA,165108.000,2233.2177,N,11413.7924,E,1,06,2.2,17.0,M,14.2,M,,0000*6D
$GPVTG,303.6,T,,M,0.0,N,0.0,K,A*0B
$GPGLL,2233.2177,N,11413.7924,E,165108.00,A,A*6F
$GPGSA,A,3,02,09,10,15,26,27,,,,,,,2.7,2.2,1.6*3F
$GPRMC,165109.000,A,2233.2177,N,11413.7924,E,0.0,303.6,040191,,,A*62
$GPGGA,165109.000,2233.2177,N,11413.7924,E,1,06,2.2,17.0,M,14.2,M,,0000*6C
$GPVTG,303.6,T,,M,0.0,N,0.0,K,A*0B
$GPGLL,2233.2177,N,11413.7924,E,165109.00,A,A*6E
$GPGSA,A,3,02,09,10,15,26,27,,,,,,,2.7,2.2,1.6*3F
$GPRMC,165110.000,A,2233.2177,N,11413.7924,E,0.0,303.6,040191,,,A*6A
$GPGGA,165110.000,2233.2177,N,11413.7924,E,1,05,4.3,17.0,M,14.2,M,,0000*60
$GPVTG,303.6,T,,M,0.0,N,0.0,K,A*0B
$GPGLL,2233.2177,N,11413.7924,E,165110.00,A,A*66
$GPGSA,A,3,09,10,15,26,27,,,,,,,,5.1,4.3,2.8*36
$GPRMC,165111.000,A,2233.2177,N,11413.7924,E,0.0,303.6,040191,,,A*6B
$GPGGA,165111.000,2233.2177,N,11413.7924,E,1,06,2.2,17.0,M,14.2,M,,0000*65
$GPVTG,303.6,T,,M,0.0,N,0.0,K,A*0B
$GPGLL,2233.2177,N,11413.7924,E,165111.00,A,A*67
$GPGSA,A,3,02,09,10,15,26,27,,,,,,,2.7,2.2,1.6*3F
$GPGSV,3,1,10,10,19,053,26,02,47,100,15,27,14,171,38,26,84,095,26*79
$GPGSV,3,2,10,15,63,216,37,09,05,183,36,29,39,299,15,05,45,016,*7E
$GPGSV,3,3,10,08,14,069,,04,12,118,*75
$GPRMC,165112.000,A,2233.2177,N,11413.7924,E,0.0,303.6,040191,,,A*68
$GPGGA,165112.000,2233.2177,N,11413.7924,E,1,06,2.2,17.0,M,14.2,M,,0000*66
$GPVTG,303.6,T,,M,0.0,N,0.0,K,A*0B
$GPGLL,2233.2177,N,11413.7924,E,165112.00,A,A*64
$GPGSA,A,3,02,09,10,15,26,27,,,,,,,2.7,2.2,1.6*3F
$GPRMC,165113.000,A,2233.2177,N,11413.7924,E,0.0,303.6,040191,,,A*69
$GPGGA,165113.000,2233.2177,N,11413.7924,E,1,05,4.3,17.0,M,14.2,M,,0000*63
$GPVTG,303.6,T,,M,0.0,N,0.0,K,A*0B
$GPGLL,2233.2177,N,11413.7924,E,165113.00,A,A*65
$GPGSA,A,3,09,10,15,26,27,,,,,,,,5.1,4.3,2.8*36
$GPRMC,165114.000,A,2233.2177,N,11413.7924,E,0.0,303.6,040191,,,A*6E
$GPGGA,165114.000,2233.2177,N,11413.7924,E,1,06,2.9,17.0,M,14.2,M,,0000*6B
$GPVTG,303.6,T,,M,0.0,N,0.0,K,A*0B
$GPGLL,2233.2177,N,11413.7924,E,165114.00,A,A*62
$GPGSA,A,3,05,09,10,15,26,27,,,,,,,3.6,2.9,2.1*37
$GPRMC,165115.000,A,2233.2177,N,11413.7924,E,0.0,303.6,040191,,,A*6F
$GPGGA,165115.000,2233.2177,N,11413.7924,E,1,06,2.9,17.0,M,14.2,M,,0000*6A
$GPVTG,303.6,T,,M,0.0,N,0.0,K,A*0B
$GPGLL,2233.2177,N,11413.7924,E,165115.00,A,A*63
$GPGSA,A,3,05,09,10,15,26,27,,,,,,,3.6,2.9,2.1*37
$GPRMC,165116.000,A,2233.2177,N,11413.7924,E,0.0,303.6,040191,,,A*6C
$GPGGA,165116.000,2233.2177,N,11413.7924,E,1,05,4.3,17.0,M,14.2,M,,0000*66
$GPVTG,303.6,T,,M,0.0,N,0.0,K,A*0B
$GPGLL,2233.2177,N,11413.7924,E,165116.00,A,A*60
$GPGSA,A,3,09,10,15,26,27,,,,,,,,5.1,4.3,2.8*36
$GPGSV,3,1,10,10,19,053,23,05,45,016,14,27,14,171,37,26,84,094,24*72
$GPGSV,3,2,10,15,63,216,36,09,05,183,34,29,39,299,15,02,46,100,*7F
$GPGSV,3,3,10,08,14,069,,04,12,118,*75
$GPRMC,165117.000,A,2233.2177,N,11413.7924,E,0.0,303.6,040191,,,A*6D
$GPGGA,165117.000,2233.2177,N,11413.7924,E,1,05,4.3,17.0,M,14.2,M,,0000*67
$GPVTG,303.6,T,,M,0.0,N,0.0,K,A*0B
$GPGLL,2233.2177,N,11413.7924,E,165117.00,A,A*61
$GPGSA,A,3,09,10,15,26,27,,,,,,,,5.1,4.3,2.8*36
$GPRMC,165118.000,A,2233.2177,N,11413.7924,E,0.0,303.6,040191,,,A*62
$GPGGA,165118.000,2233.2177,N,11413.7924,E,1,05,4.3,17.0,M,14.2,M,,0000*68
$GPVTG,303.6,T,,M,0.0,N,0.0,K,A*0B
$GPGLL,2233.2177,N,11413.7924,E,165118.00,A,A*6E
$GPGSA,A,3,09,10,15,26,27,,,,,,,,5.1,4.3,2.8*36
$GPRMC,165119.000,A,2233.2177,N,11413.7924,E,0.0,303.6,040191,,,A*63
$GPGGA,165119.000,2233.2177,N,11413.7924,E,1,05,4.3,17.0,M,14.2,M,,0000*69
$GPVTG,303.6,T,,M,0.0,N,0.0,K,A*0B
$GPGLL,2233.2177,N,11413.7924,E,165119.00,A,A*6F
$GPGSA,A,3,09,10,15,26,27,,,,,,,,5.1,4.3,2.8*36
$GPRMC,165120.000,A,2233.2177,N,11413.7924,E,0.0,303.6,040191,,,A*69
$GPGGA,165120.000,2233.2177,N,11413.7924,E,1,05,4.3,17.0,M,14.2,M,,0000*63
$GPVTG,303.6,T,,M,0.0,N,0.0,K,A*0B
$GPGLL,2233.2177,N,11413.7924,E,165120.00,A,A*65
$GPGSA,A,3,09,10,15,26,27,,,,,,,,5.1,4.3,2.8*36
$GPRMC,165121.000,A,2233.2177,N,11413.7924,E,0.0,303.6,040191,,,A*68
$GPGGA,165121.000,2233.2177,N,11413.7924,E,1,06,2.2,17.0,M,14.2,M,,0000*66
$GPVTG,303.6,T,,M,0.0,N,0.0,K,A*0B
$GPGLL,2233.2177,N,11413.7924,E,165121.00,A,A*64
$GPGSA,A,3,02,09,10,15,26,27,,,,,,,2.7,2.2,1.6*3F
$GPGSV,3,1,10,10,19,053,23,02,46,100,15,27,14,171,38,26,84,094,25*7F
$GPGSV,3,2,10,15,63,216,36,09,05,183,35,29,39,299,16,05,45,016,*7F
$GPGSV,3,3,10,08,14,069,,04,12,118,*75
$GPRMC,165122.000,A,2233.2177,N,11413.7924,E,0.0,303.6,040191,,,A*6B
$GPGGA,165122.000,2233.2177,N,11413.7924,E,1,06,2.2,17.0,M,14.2,M,,0000*65
$GPVTG,303.6,T,,M,0.0,N,0.0,K,A*0B
$GPGLL,2233.2177,N,11413.7924,E,165122.00,A,A*67
$GPGSA,A,3,02,09,10,15,26,27,,,,,,,2.7,2.2,1.6*3F
$GPRMC,165123.000,A,2233.2177,N,11413.7924,E,0.0,303.6,040191,,,A*6A
$GPGGA,165123.000,2233.2177,N,11413.7924,E,1,06,2.2,17.0,M,14.2,M,,0000*64
$GPVTG,303.6,T,,M,0.0,N,0.0,K,A*0B
$GPGLL,2233.2177,N,11413.7924,E,165123.00,A,A*66
$GPGSA,A,3,02,09,10,15,26,27,,,,,,,2.7,2.2,1.6*3F
$GPRMC,165124.000,A,2233.2177,N,11413.7924,E,0.0,303.6,040191,,,A*6D
$GPGGA,165124.000,2233.2177,N,11413.7924,E,1,06,2.2,17.0,M,14.2,M,,0000*63
$GPVTG,303.6,T,,M,0.0,N,0.0,K,A*0B
$GPGLL,2233.2177,N,11413.7924,E,165124.00,A,A*61
$GPGSA,A,3,02,09,10,15,26,27,,,,,,,2.7,2.2,1.6*3F
$GPRMC,165125.000,A,2233.2177,N,11413.7924,E,0.0,303.6,040191,,,A*6C
$GPGGA,165125.000,2233.2177,N,11413.7924,E,1,06,2.2,17.0,M,14.2,M,,0000*62
$GPVTG,303.6,T,,M,0.0,N,0.0,K,A*0B
$GPGLL,2233.2177,N,11413.7924,E,165125.00,A,A*60
$GPGSA,A,3,02,09,10,15,26,27,,,,,,,2.7,2.2,1.6*3F
$GPRMC,165126.000,A,2233.2177,N,11413.7924,E,0.0,303.6,040191,,,A*6F
$GPGGA,165126.000,2233.2177,N,11413.7924,E,1,06,2.2,17.0,M,14.2,M,,0000*61
$GPVTG,303.6,T,,M,0.0,N,0.0,K,A*0B
$GPGLL,2233.2177,N,11413.7924,E,165126.00,A,A*63
$GPGSA,A,3,02,09,10,15,26,27,,,,,,,2.7,2.2,1.6*3F
$GPGSV,3,1,10,10,19,053,26,02,46,100,17,27,14,171,38,26,84,093,25*7F
$GPGSV,3,2,10,15,63,216,37,09,05,183,36,29,39,299,15,05,45,016,*7E
$GPGSV,3,3,10,08,14,069,,04,12,118,*75
$GPRMC,165127.000,A,2233.2177,N,11413.7924,E,0.0,303.6,040191,,,A*6E
$GPGGA,165127.000,2233.2177,N,11413.7924,E,1,06,2.2,17.0,M,14.2,M,,0000*60
$GPVTG,303.6,T,,M,0.0,N,0.0,K,A*0B
$GPGLL,2233.2177,N,11413.7924,E,165127.00,A,A*62
$GPGSA,A,3,02,09,10,15,26,27,,,,,,,2.7,2.2,1.6*3F
$GPRMC,165128.000,A,2233.2177,N,11413.7924,E,0.0,303.6,040191,,,A*61
$GPGGA,165128.000,2233.2177,N,11413.7924,E,1,06,2.2,17.0,M,14.2,M,,0000*6F
$GPVTG,303.6,T,,M,0.0,N,0.0,K,A*0B
$GPGLL,2233.2177,N,11413.7924,E,165128.00,A,A*6D
$GPGSA,A,3,02,09,10,15,26,27,,,,,,,2.7,2.2,1.6*3F
$GPRMC,165129.000,A,2233.2177,N,11413.7924,E,0.0,303.6,040191,,,A*60
$GPGGA,165129.000,2233.2177,N,11413.7924,E,1,06,2.2,17.0,M,14.2,M,,0000*6E
$GPVTG,303.6,T,,M,0.0,N,0.0,K,A*0B
$GPGLL,2233.2177,N,11413.7924,E,165129.00,A,A*6C
$GPGSA,A,3,02,09,10,15,26,27,,,,,,,2.7,2.2,1.6*3F
$GPRMC,165130.000,A,2233.2177,N,11413.7924,E,0.0,303.6,040191,,,A*68
$GPGGA,165130.000,2233.2177,N,11413.7924,E,1,07,1.7,17.0,M,14.2,M,,0000*61
$GPVTG,303.6,T,,M,0.0,N,0.0,K,A*0B
$GPGLL,2233.2177,N,11413.7924,E,165130.00,A,A*64
$GPGSA,A,3,02,05,09,10,15,26,27,,,,,,2.3,1.7,1.5*3B
$GPRMC,165131.000,A,2233.2177,N,11413.7924,E,0.0,303.6,040191,,,A*69
$GPGGA,165131.000,2233.2177,N,11413.7924,E,1,07,1.7,17.0,M,14.2,M,,0000*60
$GPVTG,303.6,T,,M,0.0,N,0.0,K,A*0B
$GPGLL,2233.2177,N,11413.7924,E,165131.00,A,A*65
$GPGSA,A,3,02,05,09,10,15,26,27,,,,,,2.3,1.7,1.5*3B
$GPGSV,3,1,10,10,19,053,25,05,45,016,,02,46,100,17,27,14,171,37*75
$GPGSV,3,2,10,26,84,093,25,15,63,216,36,09,05,183,36,29,39,298,14*79
$GPGSV,3,3,10,08,14,069,,04,12,118,*75
$GPRMC,165132.000,A,2233.2177,N,11413.7924,E,0.0,303.6,040191,,,A*6A
$GPGGA,165132.000,2233.2177,N,11413.7924,E,1,06,2.2,17.0,M,14.2,M,,0000*64
$GPVTG,303.6,T,,M,0.0,N,0.0,K,A*0B
$GPGLL,2233.2177,N,11413.7924,E,165132.00,A,A*66
$GPGSA,A,3,02,09,10,15,26,27,,,,,,,2.7,2.2,1.6*3F
$GPRMC,165133.000,A,2233.2177,N,11413.7924,E,0.0,303.6,040191,,,A*6B
$GPGGA,165133.000,2233.2177,N,11413.7924,E,1,07,1.7,17.0,M,14.2,M,,0000*62
$GPVTG,303.6,T,,M,0.0,N,0.0,K,A*0B
$GPGLL,2233.2177,N,11413.7924,E,165133.00,A,A*67
$GPGSA,A,3,02,05,09,10,15,26,27,,,,,,2.3,1.7,1.5*3B
$GPRMC,165134.000,A,2233.2177,N,11413.7924,E,0.0,303.6,040191,,,A*6C
$GPGGA,165134.000,2233.2177,N,11413.7924,E,1,07,1.7,17.0,M,14.2,M,,0000*65
$GPVTG,303.6,T,,M,0.0,N,0.0,K,A*0B
$GPGLL,2233.2177,N,11413.7924,E,165134.00,A,A*60
$GPGSA,A,3,02,05,09,10,15,26,27,,,,,,2.3,1.7,1.5*3B
$GPRMC,165135.000,A,2233.2177,N,11413.7924,E,0.0,303.6,040191,,,A*6D
$GPGGA,165135.000,2233.2177,N,11413.7924,E,1,06,2.2,17.0,M,14.2,M,,0000*63
$GPVTG,303.6,T,,M,0.0,N,0.0,K,A*0B
$GPGLL,2233.2177,N,11413.7924,E,165135.00,A,A*61
$GPGSA,A,3,02,09,10,15,26,27,,,,,,,2.7,2.2,1.6*3F
$GPRMC,165136.000,A,2233.2177,N,11413.7924,E,0.0,303.6,040191,,,A*6E
$GPGGA,165136.000,2233.2177,N,11413.7924,E,1,06,2.2,17.0,M,14.2,M,,0000*60
$GPVTG,303.6,T,,M,0.0,N,0.0,K,A*0B
$GPGLL,2233.2177,N,11413.7924,E,165136.00,A,A*62
$GPGSA,A,3,02,09,10,15,26,27,,,,,,,2.7,2.2,1.6*3F
$GPGSV,3,1,10,10,19,053,26,05,45,016,11,02,46,100,16,27,14,171,38*78
$GPGSV,3,2,10,26,84,092,28,15,63,216,37,09,05,183,37,29,39,298,14*75
$GPGSV,3,3,10,08,14,069,,04,12,118,*75
$GPRMC,165137.000,A,2233.2177,N,11413.7924,E,0.0,303.6,040191,,,A*6F
$GPGGA,165137.000,2233.2177,N,11413.7924,E,1,06,2.2,17.0,M,14.2,M,,0000*61
$GPVTG,303.6,T,,M,0.0,N,0.0,K,A*0B
$GPGLL,2233.2177,N,11413.7924,E,165137.00,A,A*63
$GPGSA,A,3,02,09,10,15,26,27,,,,,,,2.7,2.2,1.6*3F
$GPRMC,165138.000,A,2233.2177,N,11413.7924,E,0.0,303.6,040191,,,A*60
$GPGGA,165138.000,2233.2177,N,11413.7924,E,1,06,2.2,17.0,M,14.2,M,,0000*6E
$GPVTG,303.6,T,,M,0.0,N,0.0,K,A*0B
$GPGLL,2233.2177,N,11413.7924,E,165138.00,A,A*6C
$GPGSA,A,3,02,09,10,15,26,27,,,,,,,2.7,2.2,1.6*3F
$GPRMC,165139.000,A,2233.2177,N,11413.7924,E,0.0,303.6,040191,,,A*61
$GPGGA,165139.000,2233.2177,N,11413.7924,E,1,06,2.2,17.0,M,14.2,M,,0000*6F
$GPVTG,303.6,T,,M,0.0,N,0.0,K,A*0B
$GPGLL,2233.2177,N,11413.7924,E,165139.00,A,A*6D
$GPGSA,A,3,02,09,10,15,26,27,,,,,,,2.7,2.2,1.6*3F
$GPRMC,165140.000,A,2233.2177,N,11413.7924,E,0.0,303.6,040191,,,A*6F
$GPGGA,165140.000,2233.2177,N,11413.7924,E,1,06,2.2,17.0,M,14.2,M,,0000*61
$GPVTG,303.6,T,,M,0.0,N,0.0,K,A*0B
$GPGLL,2233.2177,N,11413.7924,E,165140.00,A,A*63
$GPGSA,A,3,02,09,10,15,26,27,,,,,,,2.7,2.2,1.6*3F
$GPRMC,165141.000,A,2233.2177,N,11413.7924,E,0.0,303.6,040191,,,A*6E
$GPGGA,165141.000,2233.2177,N,11413.7924,E,1,06,2.2,17.0,M,14.2,M,,0000*60
$GPVTG,303.6,T,,M,0.0,N,0.0,K,A*0B
$GPGLL,2233.2177,N,11413.7924,E,165141.00,A,A*62
$GPGSA,A,3,02,09,10,15,26,27,,,,,,,2.7,2.2,1.6*3F
$GPGSV,3,1,10,10,19,053,24,02,46,100,17,27,14,171,38,26,84,092,26*7F
$GPGSV,3,2,10,15,63,216,37,09,05,183,37,29,39,298,14,05,45,016,*7F
$GPGSV,3,3,10,08,14,068,,04,12,118,*74
$GPRMC,165142.000,A,2233.2177,N,11413.7924,E,0.0,303.6,040191,,,A*6D
$GPGGA,165142.000,2233.2177,N,11413.7924,E,1,06,2.2,17.0,M,14.2,M,,0000*63
$GPVTG,303.6,T,,M,0.0,N,0.0,K,A*0B
$GPGLL,2233.2177,N,11413.7924,E,165142.00,A,A*61
$GPGSA,A,3,02,09,10,15,26,27,,,,,,,2.7,2.2,1.6*3F
$GPRMC,165143.000,A,2233.2177,N,11413.7924,E,0.0,303.6,040191,,,A*6C
$GPGGA,165143.000,2233.2177,N,11413.7924,E,1,06,2.2,17.0,M,14.2,M,,0000*62
$GPVTG,303.6,T,,M,0.0,N,0.0,K,A*0B
$GPGLL,2233.2177,N,11413.7924,E,165143.00,A,A*60
$GPGSA,A,3,02,09,10,15,26,27,,,,,,,2.7,2.2,1.6*3F
$GPRMC,165144.000,A,2233.2177,N,11413.7924,E,0.0,303.6,040191,,,A*6B
$GPGGA,165144.000,2233.2177,N,11413.7924,E,1,06,2.2,17.0,M,14.2,M,,0000*65
$GPVTG,303.6,T,,M,0.0,N,0.0,K,A*0B
$GPGLL,2233.2177,N,11413.7924,E,165144.00,A,A*67
$GPGSA,A,3,02,09,10,15,26,27,,,,,,,2.7,2.2,1.6*3F
$GPRMC,165145.000,A,2233.2177,N,11413.7924,E,0.0,303.6,040191,,,A*6A
$GPGGA,165145.000,2233.2177,N,11413.7924,E,1,07,1.7,17.0,M,14.2,M,,0000*63
$GPVTG,303.6,T,,M,0.0,N,0.0,K,A*0B
$GPGLL,2233.2177,N,11413.7924,E,165145.00,A,A*66
$GPGSA,A,3,02,04,09,10,15,26,27,,,,,,2.3,1.7,1.6*39
$GPRMC,165146.000,A,2233.2177,N,11413.7924,E,0.0,303.6,040191,,,A*69
$GPGGA,165146.000,2233.2177,N,11413.7924,E,1,08,1.4,17.0,M,14.2,M,,0000*6C
$GPVTG,303.6,T,,M,0.0,N,0.0,K,A*0B
$GPGLL,2233.2177,N,11413.7924,E,165146.00,A,A*65
$GPGSA,A,3,02,04,05,09,10,15,26,27,,,,,2.1,1.4,1.5*3E
$GPGSV,3,1,10,10,19,053,23,05,45,016,12,02,46,100,20,04,12,118,12*7B
$GPGSV,3,2,10,27,14,171,37,26,84,091,23,15,63,216,36,09,05,183,36*79
$GPGSV,3,3,10,29,39,298,14,08,14,068,*7C
$GPRMC,165147.000,A,2233.2177,N,11413.7924,E,0.0,303.6,040191,,,A*68
$GPGGA,165147.000,2233.2177,N,11413.7924,E,1,07,1.7,17.0,M,14.2,M,,0000*61
$GPVTG,303.6,T,,M,0.0,N,0.0,K,A*0B
$GPGLL,2233.2177,N,11413.7924,E,165147.00,A,A*64
$GPGSA,A,3,02,05,09,10,15,26,27,,,,,,2.3,1.7,1.5*3B
$GPRMC,165148.000,A,2233.2177,N,11413.7924,E,0.0,303.6,040191,,,A*67
$GPGGA,165148.000,2233.2177,N,11413.7924,E,1,07,1.7,17.0,M,14.2,M,,0000*6E
$GPVTG,303.6,T,,M,0.0,N,0.0,K,A*0B
$GPGLL,2233.2177,N,11413.7924,E,165148.00,A,A*6B
$GPGSA,A,3,02,05,09,10,15,26,27,,,,,,2.3,1.7,1.5*3B
$GPRMC,165149.000,A,2233.2177,N,11413.7924,E,0.0,303.6,040191,,,A*66
$GPGGA,165149.000,2233.2177,N,11413.7924,E,1,07,1.7,17.0,M,14.2,M,,0000*6F
$GPVTG,303.6,T,,M,0.0,N,0.0,K,A*0B
$GPGLL,2233.2177,N,11413.7924,E,165149.00,A,A*6A
$GPGSA,A,3,02,05,09,10,15,26,27,,,,,,2.3,1.7,1.5*3B
$GPRMC,165150.000,A,2233.2177,N,11413.7924,E,0.0,303.6,040191,,,A*6E
$GPGGA,165150.000,2233.2177,N,11413.7924,E,1,07,1.7,17.0,M,14.2,M,,0000*67
$GPVTG,303.6,T,,M,0.0,N,0.0,K,A*0B
$GPGLL,2233.2177,N,11413.7924,E,165150.00,A,A*62
$GPGSA,A,3,02,05,09,10,15,26,27,,,,,,2.3,1.7,1.5*3B
$GPRMC,165151.000,A,2233.2177,N,11413.7924,E,0.0,303.6,040191,,,A*6F
$GPGGA,165151.000,2233.2177,N,11413.7924,E,1,07,1.7,17.0,M,14.2,M,,0000*66
$GPVTG,303.6,T,,M,0.0,N,0.0,K,A*0B
$GPGLL,2233.2177,N,11413.7924,E,165151.00,A,A*63
$GPGSA,A,3,02,05,09,10,15,26,27,,,,,,2.3,1.7,1.5*3B
$GPGSV,3,1,10,10,18,053,25,05,45,016,13,02,46,100,19,27,14,171,38*77
$GPGSV,3,2,10,26,84,091,24,15,63,216,37,09,05,183,37,29,39,298,14*7A
$GPGSV,3,3,10,08,14,068,,04,12,118,*74
$GPRMC,165152.000,A,2233.2177,N,11413.7924,E,0.0,303.6,040191,,,A*6C
$GPGGA,165152.000,2233.2177,N,11413.7924,E,1,07,1.7,17.0,M,14.2,M,,0000*65
$GPVTG,303.6,T,,M,0.0,N,0.0,K,A*0B
$GPGLL,2233.2177,N,11413.7924,E,165152.00,A,A*60
$GPGSA,A,3,02,05,09,10,15,26,27,,,,,,2.3,1.7,1.5*3B
$GPRMC,165153.000,A,2233.2177,N,11413.7924,E,0.0,303.6,040191,,,A*6D
$GPGGA,165153.000,2233.2177,N,11413.7924,E,1,07,1.7,17.0,M,14.2,M,,0000*64
$GPVTG,303.6,T,,M,0.0,N,0.0,K,A*0B
$GPGLL,2233.2177,N,11413.7924,E,165153.00,A,A*61
$GPGSA,A,3,02,05,09,10,15,26,27,,,,,,2.3,1.7,1.5*3B
$GPRMC,165154.000,A,2233.2177,N,11413.7924,E,0.0,303.6,040191,,,A*6A
$GPGGA,165154.000,2233.2177,N,11413.7924,E,1,07,1.7,17.0,M,14.2,M,,0000*63
$GPVTG,303.6,T,,M,0.0,N,0.0,K,A*0B
$GPGLL,2233.2177,N,11413.7924,E,165154.00,A,A*66
$GPGSA,A,3,02,05,09,10,15,26,27,,,,,,2.3,1.7,1.5*3B
$GPRMC,165155.000,A,2233.2177,N,11413.7924,E,0.0,303.6,040191,,,A*6B
$GPGGA,165155.000,2233.2177,N,11413.7924,E,1,07,1.7,17.0,M,14.2,M,,0000*62
$GPVTG,303.6,T,,M,0.0,N,0.0,K,A*0B
$GPGLL,2233.2177,N,11413.7924,E,165155.00,A,A*67
$GPGSA,A,3,02,05,09,10,15,26,27,,,,,,2.3,1.7,1.5*3B
$GPRMC,165156.000,A,2233.2177,N,11413.7924,E,0.0,303.6,040191,,,A*68
$GPGGA,165156.000,2233.2177,N,11413.7924,E,1,07,1.7,17.0,M,14.2,M,,0000*61
$GPVTG,303.6,T,,M,0.0,N,0.0,K,A*0B
$GPGLL,2233.2177,N,11413.7924,E,165156.00,A,A*64
$GPGSA,A,3,02,05,09,10,15,26,27,,,,,,2.3,1.7,1.5*3B
$GPGSV,3,1,10,10,18,053,27,05,45,016,15,02,46,100,17,27,14,171,39*7C
$GPGSV,3,2,10,26,84,090,27,15,63,217,37,09,05,183,36,29,39,298,*7D
$GPGSV,3,3,10,08,14,068,,04,12,118,*74
$GPRMC,165157.000,A,2233.2177,N,11413.7924,E,0.0,303.6,040191,,,A*69
$GPGGA,165157.000,2233.2177,N,11413.7924,E,1,07,1.7,17.0,M,14.2,M,,0000*60
$GPVTG,303.6,T,,M,0.0,N,0.0,K,A*0B
$GPGLL,2233.2177,N,11413.7924,E,165157.00,A,A*65
$GPGSA,A,3,02,05,09,10,15,26,27,,,,,,2.3,1.7,1.5*3B
$GPRMC,165158.000,A,2233.2177,N,11413.7924,E,0.0,303.6,040191,,,A*66
$GPGGA,165158.000,2233.2177,N,11413.7924,E,1,07,1.7,17.0,M,14.2,M,,0000*6F
$GPVTG,303.6,T,,M,0.0,N,0.0,K,A*0B
$GPGLL,2233.2177,N,11413.7924,E,165158.00,A,A*6A
$GPGSA,A,3,02,05,09,10,15,26,27,,,,,,2.3,1.7,1.5*3B
$GPRMC,165159.000,A,2233.2177,N,11413.7924,E,0.0,303.6,040191,,,A*67
$GPGGA,165159.000,2233.2177,N,11413.7924,E,1,07,1.7,17.0,M,14.2,M,,0000*6E
$GPVTG,303.6,T,,M,0.0,N,0.0,K,A*0B
$GPGLL,2233.2177,N,11413.7924,E,165159.00,A,A*6B
$GPGSA,A,3,02,05,09,10,15,26,27,,,,,,2.3,1.7,1.5*3B
$GPRMC,165200.000,A,2233.2177,N,11413.7924,E,0.0,303.6,040191,,,A*68
$GPGGA,165200.000,2233.2177,N,11413.7924,E,1,07,1.7,17.0,M,14.2,M,,0000*61
$GPVTG,303.6,T,,M,0.0,N,0.0,K,A*0B
$GPGLL,2233.2177,N,11413.7924,E,165200.00,A,A*64
$GPGSA,A,3,02,05,09,10,15,26,27,,,,,,2.3,1.7,1.5*3B
$GPRMC,165201.000,A,2233.2177,N,11413.7924,E,0.0,303.6,040191,,,A*69
$GPGGA,165201.000,2233.2177,N,11413.7924,E,1,07,1.7,17.0,M,14.2,M,,0000*60
$GPVTG,303.6,T,,M,0.0,N,0.0,K,A*0B
$GPGLL,2233.2177,N,11413.7924,E,165201.00,A,A*65
$GPGSA,A,3,02,05,09,10,15,26,27,,,,,,2.3,1.7,1.5*3B
$GPGSV,3,1,10,10,18,053,26,05,45,016,18,02,46,100,14,27,14,171,39*73
$GPGSV,3,2,10,26,84,090,29,15,63,217,37,09,05,183,37,29,39,298,15*76
$GPGSV,3,3,10,08,14,068,,04,12,118,*74
$GPRMC,165202.000,A,2233.2177,N,11413.7924,E,0.0,303.6,040191,,,A*6A
$GPGGA,165202.000,2233.2177,N,11413.7924,E,1,07,1.7,17.0,M,14.2,M,,0000*63
$GPVTG,303.6,T,,M,0.0,N,0.0,K,A*0B
$GPGLL,2233.2177,N,11413.7924,E,165202.00,A,A*66
$GPGSA,A,3,02,05,09,10,15,26,27,,,,,,2.3,1.7,1.5*3B
$GPRMC,165203.000,A,2233.2177,N,11413.7924,E,0.0,303.6,040191,,,A*6B
$GPGGA,165203.000,2233.2177,N,11413.7924,E,1,08,1.4,17.0,M,14.2,M,,0000*6E
$GPVTG,303.6,T,,M,0.0,N,0.0,K,A*0B
$GPGLL,2233.2177,N,11413.7924,E,165203.00,A,A*67
$GPGSA,A,3,02,04,05,09,10,15,26,27,,,,,2.1,1.4,1.5*3E
$GPRMC,165204.000,A,2233.2177,N,11413.7924,E,0.0,303.6,040191,,,A*6C
$GPGGA,165204.000,2233.2177,N,11413.7924,E,1,08,1.4,17.0,M,14.2,M,,0000*69
$GPVTG,303.6,T,,M,0.0,N,0.0,K,A*0B
$GPGLL,2233.2177,N,11413.7924,E,165204.00,A,A*60
$GPGSA,A,3,02,04,05,09,10,15,26,27,,,,,2.1,1.4,1.5*3E
$GPRMC,165205.000,A,2233.2177,N,11413.7924,E,0.0,303.6,040191,,,A*6D
$GPGGA,165205.000,2233.2177,N,11413.7924,E,1,08,1.4,17.0,M,14.2,M,,0000*68
$GPVTG,303.6,T,,M,0.0,N,0.0,K,A*0B
$GPGLL,2233.2177,N,11413.7924,E,165205.00,A,A*61
$GPGSA,A,3,02,04,05,09,10,15,26,27,,,,,2.1,1.4,1.5*3E
$GPRMC,165206.000,A,2233.2177,N,11413.7924,E,0.0,303.6,040191,,,A*6E
$GPGGA,165206.000,2233.2177,N,11413.7924,E,1,08,1.4,17.0,M,14.2,M,,0000*6B
$GPVTG,303.6,T,,M,0.0,N,0.0,K,A*0B
$GPGLL,2233.2177,N,11413.7924,E,165206.00,A,A*62
$GPGSA,A,3,02,04,05,09,10,15,26,27,,,,,2.1,1.4,1.5*3E
$GPGSV,3,1,10,10,18,053,24,05,45,016,18,02,46,100,16,04,12,118,12*72
$GPGSV,3,2,10,27,14,171,37,26,84,089,29,15,63,217,36,09,05,183,36*7B
$GPGSV,3,3,10,29,39,298,15,08,14,068,*7D
$GPRMC,165207.000,A,2233.2177,N,11413.7924,E,0.0,303.6,040191,,,A*6F
$GPGGA,165207.000,2233.2177,N,11413.7924,E,1,08,1.4,17.0,M,14.2,M,,0000*6A
$GPVTG,303.6,T,,M,0.0,N,0.0,K,A*0B
$GPGLL,2233.2177,N,11413.7924,E,165207.00,A,A*63
$GPGSA,A,3,02,04,05,09,10,15,26,27,,,,,2.1,1.4,1.5*3E
$GPRMC,165208.000,A,2233.2177,N,11413.7924,E,0.0,303.6,040191,,,A*60
$GPGGA,165208.000,2233.2177,N,11413.7924,E,1,08,1.4,17.0,M,14.2,M,,0000*65
$GPVTG,303.6,T,,M,0.0,N,0.0,K,A*0B
$GPGLL,2233.2177,N,11413.7924,E,165208.00,A,A*6C
$GPGSA,A,3,02,04,05,09,10,15,26,27,,,,,2.1,1.4,1.5*3E
$GPRMC,165209.000,A,2233.2177,N,11413.7924,E,0.0,303.6,040191,,,A*61
$GPGGA,165209.000,2233.2177,N,11413.7924,E,1,08,1.4,17.0,M,14.2,M,,0000*64
$GPVTG,303.6,T,,M,0.0,N,0.0,K,A*0B
$GPGLL,2233.2177,N,11413.7924,E,165209.00,A,A*6D
$GPGSA,A,3,02,04,05,09,10,15,26,27,,,,,2.1,1.4,1.5*3E
$GPRMC,165210.000,A,2233.2177,N,11413.7924,E,0.0,303.6,040191,,,A*69
$GPGGA,165210.000,2233.2177,N,11413.7924,E,1,08,1.4,17.0,M,14.2,M,,0000*6C
$GPVTG,303.6,T,,M,0.0,N,0.0,K,A*0B
$GPGLL,2233.2177,N,11413.7924,E,165210.00,A,A*65
$GPGSA,A,3,02,04,05,09,10,15,26,27,,,,,2.1,1.4,1.5*3E
$GPRMC,165211.000,A,2233.2177,N,11413.7924,E,0.0,303.6,040191,,,A*68
$GPGGA,165211.000,2233.2177,N,11413.7924,E,1,08,1.4,17.0,M,14.2,M,,0000*6D
$GPVTG,303.6,T,,M,0.0,N,0.0,K,A*0B
$GPGLL,2233.2177,N,11413.7924,E,165211.00,A,A*64
$GPGSA,A,3,02,04,05,09,10,15,26,27,,,,,2.1,1.4,1.5*3E
$GPGSV,3,1,10,10,18,053,24,05,45,016,17,02,46,100,15,04,12,118,13*7F
$GPGSV,3,2,10,27,14,171,38,26,84,089,28,15,63,217,37,09,05,183,35*77
$GPGSV,3,3,10,29,39,298,,08,14,068,*79
$GPRMC,165212.000,A,2233.2177,N,11413.7924,E,0.0,303.6,040191,,,A*6B
$GPGGA,165212.000,2233.2177,N,11413.7924,E,1,08,1.4,17.0,M,14.2,M,,0000*6E
$GPVTG,303.6,T,,M,0.0,N,0.0,K,A*0B
$GPGLL,2233.2177,N,11413.7924,E,165212.00,A,A*67
$GPGSA,A,3,02,04,05,09,10,15,26,27,,,,,2.1,1.4,1.5*3E
$GPRMC,165213.000,A,2233.2177,N,11413.7924,E,0.0,303.6,040191,,,A*6A
$GPGGA,165213.000,2233.2177,N,11413.7924,E,1,08,1.4,17.0,M,14.2,M,,0000*6F
$GPVTG,303.6,T,,M,0.0,N,0.0,K,A*0B
$GPGLL,2233.2177,N,11413.7924,E,165213.00,A,A*66
$GPGSA,A,3,02,04,05,09,10,15,26,27,,,,,2.1,1.4,1.5*3E
$GPRMC,165214.000,A,2233.2177,N,11413.7924,E,0.0,303.6,040191,,,A*6D
$GPGGA,165214.000,2233.2177,N,11413.7924,E,1,08,1.4,17.0,M,14.2,M,,0000*68
$GPVTG,303.6,T,,M,0.0,N,0.0,K,A*0B
$GPGLL,2233.2177,N,11413.7924,E,165214.00,A,A*61
$GPGSA,A,3,02,04,05,09,10,15,26,27,,,,,2.1,1.4,1.5*3E
$GPRMC,165215.000,A,2233.2177,N,11413.7924,E,0.0,303.6,040191,,,A*6C
$GPGGA,165215.000,2233.2177,N,11413.7924,E,1,08,1.4,17.0,M,14.2,M,,0000*69
$GPVTG,303.6,T,,M,0.0,N,0.0,K,A*0B
$GPGLL,2233.2177,N,11413.7924,E,165215.00,A,A*60
$GPGSA,A,3,02,04,05,09,10,15,26,27,,,,,2.1,1.4,1.5*3E
$GPRMC,165216.000,A,2233.2177,N,11413.7924,E,0.0,303.6,040191,,,A*6F
$GPGGA,165216.000,2233.2177,N,11413.7924,E,1,08,1.4,17.0,M,14.2,M,,0000*6A
$GPVTG,303.6,T,,M,0.0,N,0.0,K,A*0B
$GPGLL,2233.2177,N,11413.7924,E,165216.00,A,A*63
$GPGSA,A,3,02,04,05,09,10,15,26,27,,,,,2.1,1.4,1.5*3E
$GPGSV,3,1,10,10,18,053,25,05,45,016,16,02,46,100,15,04,12,118,15*79
$GPGSV,3,2,10,27,14,171,39,26,84,088,28,15,63,217,37,09,05,183,37*75
$GPGSV,3,3,10,29,39,298,15,08,14,068,*7D
$GPRMC,165217.000,A,2233.2177,N,11413.7924,E,0.0,303.6,040191,,,A*6E
$GPGGA,165217.000,2233.2177,N,11413.7924,E,1,08,1.4,17.0,M,14.2,M,,0000*6B
$GPVTG,303.6,T,,M,0.0,N,0.0,K,A*0B
$GPGLL,2233.2177,N,11413.7924,E,165217.00,A,A*62
$GPGSA,A,3,02,04,05,09,10,15,26,27,,,,,2.1,1.4,1.5*3E
$GPRMC,165218.000,A,2233.2177,N,11413.7924,E,0.0,303.6,040191,,,A*61
$GPGGA,165218.000,2233.2177,N,11413.7924,E,1,08,1.4,17.0,M,14.2,M,,0000*64
$GPVTG,303.6,T,,M,0.0,N,0.0,K,A*0B
$GPGLL,2233.2177,N,11413.7924,E,165218.00,A,A*6D
$GPGSA,A,3,02,04,05,09,10,15,26,27,,,,,2.1,1.4,1.5*3E
$GPRMC,165219.000,A,2233.2177,N,11413.7924,E,0.0,303.6,040191,,,A*60
$GPGGA,165219.000,2233.2177,N,11413.7924,E,1,08,1.4,17.0,M,14.2,M,,0000*65
$GPVTG,303.6,T,,M,0.0,N,0.0,K,A*0B
$GPGLL,2233.2177,N,11413.7924,E,165219.00,A,A*6C
$GPGSA,A,3,02,04,05,09,10,15,26,27,,,,,2.1,1.4,1.5*3E
$GPRMC,165220.000,A,2233.2177,N,11413.7924,E,0.0,303.6,040191,,,A*6A
$GPGGA,165220.000,2233.2177,N,11413.7924,E,1,08,1.4,17.0,M,14.2,M,,0000*6F
$GPVTG,303.6,T,,M,0.0,N,0.0,K,A*0B
$GPGLL,2233.2177,N,11413.7924,E,165220.00,A,A*66
$GPGSA,A,3,02,04,05,09,10,15,26,27,,,,,2.1,1.4,1.5*3E
$GPRMC,165221.000,A,2233.2177,N,11413.7924,E,0.0,303.6,040191,,,A*6B
$GPGGA,165221.000,2233.2177,N,11413.7924,E,1,08,1.4,17.0,M,14.2,M,,0000*6E
$GPVTG,303.6,T,,M,0.0,N,0.0,K,A*0B
$GPGLL,2233.2177,N,11413.7924,E,165221.00,A,A*67
$GPGSA,A,3,02,04,05,09,10,15,26,27,,,,,2.1,1.4,1.5*3E
$GPGSV,3,1,10,10,18,053,26,05,45,016,15,02,46,100,13,04,12,118,14*7E
$GPGSV,3,2,10,27,14,171,39,26,84,088,27,15,63,217,36,09,05,183,37*7B
$GPGSV,3,3,10,29,39,298,15,08,14,068,*7D
$GPRMC,165222.000,A,2233.2177,N,11413.7924,E,0.0,303.6,040191,,,A*68
$GPGGA,165222.000,2233.2177,N,11413.7924,E,1,08,1.4,17.0,M,14.2,M,,0000*6D
$GPVTG,303.6,T,,M,0.0,N,0.0,K,A*0B
$GPGLL,2233.2177,N,11413.7924,E,165222.00,A,A*64
$GPGSA,A,3,02,04,05,09,10,15,26,27,,,,,2.1,1.4,1.5*3E
$GPRMC,165223.000,A,2233.2177,N,11413.7924,E,0.0,303.6,040191,,,A*69
$GPGGA,165223.000,2233.2177,N,11413.7924,E,1,08,1.4,17.0,M,14.2,M,,0000*6C
$GPVTG,303.6,T,,M,0.0,N,0.0,K,A*0B
$GPGLL,2233.2177,N,11413.7924,E,165223.00,A,A*65
$GPGSA,A,3,02,04,05,09,10,15,26,27,,,,,2.1,1.4,1.5*3E
$GPRMC,165224.000,A,2233.2177,N,11413.7924,E,0.0,303.6,040191,,,A*6E
$GPGGA,165224.000,2233.2177,N,11413.7924,E,1,08,1.4,17.0,M,14.2,M,,0000*6B
$GPVTG,303.6,T,,M,0.0,N,0.0,K,A*0B
$GPGLL,2233.2177,N,11413.7924,E,165224.00,A,A*62
$GPGSA,A,3,02,04,05,09,10,15,26,27,,,,,2.1,1.4,1.5*3E
$GPRMC,165225.000,A,2233.2177,N,11413.7924,E,0.0,303.6,040191,,,A*6F
$GPGGA,165225.000,2233.2177,N,11413.7924,E,1,08,1.4,17.0,M,14.2,M,,0000*6A
$GPVTG,303.6,T,,M,0.0,N,0.0,K,A*0B
$GPGLL,2233.2177,N,11413.7924,E,165225.00,A,A*63
$GPGSA,A,3,02,04,05,09,10,15,26,27,,,,,2.1,1.4,1.5*3E
$GPRMC,165226.000,A,2233.2177,N,11413.7924,E,0.0,303.6,040191,,,A*6C
$GPGGA,165226.000,2233.2177,N,11413.7924,E,1,07,1.8,17.0,M,14.2,M,,0000*6A
$GPVTG,303.6,T,,M,0.0,N,0.0,K,A*0B
$GPGLL,2233.2177,N,11413.7924,E,165226.00,A,A*60
$GPGSA,A,3,04,05,09,10,15,26,27,,,,,,2.5,1.8,1.8*39
$GPGSV,3,1,10,10,18,053,26,05,45,016,14,04,11,118,14,27,14,171,38*73
$GPGSV,3,2,10,26,84,087,27,15,63,217,35,09,05,183,38,29,39,298,15*73
$GPGSV,3,3,10,02,46,100,,08,14,068,*7A
$GPRMC,165227.000,A,2233.2177,N,11413.7924,E,0.0,303.6,040191,,,A*6D
$GPGGA,165227.000,2233.2177,N,11413.7924,E,1,07,1.8,17.0,M,14.2,M,,0000*6B
$GPVTG,303.6,T,,M,0.0,N,0.0,K,A*0B
$GPGLL,2233.2177,N,11413.7924,E,165227.00,A,A*61
$GPGSA,A,3,04,05,09,10,15,26,27,,,,,,2.5,1.8,1.8*39
$GPRMC,165228.000,A,2233.2177,N,11413.7924,E,0.0,303.6,040191,,,A*62
$GPGGA,165228.000,2233.2177,N,11413.7924,E,1,08,1.4,17.0,M,14.2,M,,0000*67
$GPVTG,303.6,T,,M,0.0,N,0.0,K,A*0B
$GPGLL,2233.2177,N,11413.7924,E,165228.00,A,A*6E
$GPGSA,A,3,02,04,05,09,10,15,26,27,,,,,2.1,1.4,1.5*3E
$GPRMC,165229.000,A,2233.2177,N,11413.7924,E,0.0,303.6,040191,,,A*63
$GPGGA,165229.000,2233.2177,N,11413.7924,E,1,08,1.4,17.0,M,14.2,M,,0000*66
$GPVTG,303.6,T,,M,0.0,N,0.0,K,A*0B
$GPGLL,2233.2177,N,11413.7924,E,165229.00,A,A*6F
$GPGSA,A,3,02,04,05,09,10,15,26,27,,,,,2.1,1.4,1.5*3E
$GPRMC,165230.000,A,2233.2177,N,11413.7924,E,0.0,303.6,040191,,,A*6B
$GPGGA,165230.000,2233.2177,N,11413.7924,E,1,07,1.8,17.0,M,14.2,M,,0000*6D
$GPVTG,303.6,T,,M,0.0,N,0.0,K,A*0B
$GPGLL,2233.2177,N,11413.7924,E,165230.00,A,A*67
$GPGSA,A,3,04,05,09,10,15,26,27,,,,,,2.5,1.8,1.8*39
$GPRMC,165231.000,A,2233.2177,N,11413.7924,E,0.0,303.6,040191,,,A*6A
$GPGGA,165231.000,2233.2177,N,11413.7924,E,1,07,1.8,17.0,M,14.2,M,,0000*6C
$GPVTG,303.6,T,,M,0.0,N,0.0,K,A*0B
$GPGLL,2233.2177,N,11413.7924,E,165231.00,A,A*66
$GPGSA,A,3,04,05,09,10,15,26,27,,,,,,2.5,1.8,1.8*39
$GPGSV,3,1,10,10,18,053,25,05,45,017,13,02,46,100,12,04,11,118,12*7E
$GPGSV,3,2,10,27,14,171,39,26,84,087,28,15,63,217,36,09,05,183,38*74
$GPGSV,3,3,10,29,40,298,15,08,14,068,*73
$GPRMC,165232.000,A,2233.2177,N,11413.7924,E,0.0,303.6,040191,,,A*69
$GPGGA,165232.000,2233.2177,N,11413.7924,E,1,07,1.8,17.0,M,14.2,M,,0000*6F
$GPVTG,303.6,T,,M,0.0,N,0.0,K,A*0B
$GPGLL,2233.2177,N,11413.7924,E,165232.00,A,A*65
$GPGSA,A,3,04,05,09,10,15,26,27,,,,,,2.5,1.8,1.8*39
$GPRMC,165233.000,A,2233.2177,N,11413.7924,E,0.0,303.6,040191,,,A*68
$GPGGA,165233.000,2233.2177,N,11413.7924,E,1,07,1.8,17.0,M,14.2,M,,0000*6E
$GPVTG,303.6,T,,M,0.0,N,0.0,K,A*0B
$GPGLL,2233.2177,N,11413.7924,E,165233.00,A,A*64
$GPGSA,A,3,04,05,09,10,15,26,27,,,,,,2.5,1.8,1.8*39
$GPRMC,165234.000,A,2233.2177,N,11413.7924,E,0.0,303.6,040191,,,A*6F
$GPGGA,165234.000,2233.2177,N,11413.7924,E,1,08,1.4,17.0,M,14.2,M,,0000*6A
$GPVTG,303.6,T,,M,0.0,N,0.0,K,A*0B
$GPGLL,2233.2177,N,11413.7924,E,165234.00,A,A*63
$GPGSA,A,3,02,04,05,09,10,15,26,27,,,,,2.1,1.4,1.5*3E
$GPRMC,165235.000,A,2233.2177,N,11413.7924,E,0.0,303.6,040191,,,A*6E
$GPGGA,165235.000,2233.2177,N,11413.7924,E,1,08,1.4,17.0,M,14.2,M,,0000*6B
$GPVTG,303.6,T,,M,0.0,N,0.0,K,A*0B
$GPGLL,2233.2177,N,11413.7924,E,165235.00,A,A*62
$GPGSA,A,3,02,04,05,09,10,15,26,27,,,,,2.1,1.4,1.5*3E
$GPRMC,165236.000,A,2233.2177,N,11413.7924,E,0.0,303.6,040191,,,A*6D
$GPGGA,165236.000,2233.2177,N,11413.7924,E,1,08,1.4,17.0,M,14.2,M,,0000*68
$GPVTG,303.6,T,,M,0.0,N,0.0,K,A*0B
$GPGLL,2233.2177,N,11413.7924,E,165236.00,A,A*61
$GPGSA,A,3,02,04,05,09,10,15,26,27,,,,,2.1,1.4,1.5*3E
$GPGSV,3,1,10,10,18,053,24,05,45,017,13,02,46,100,14,27,14,171,38*7A
$GPGSV,3,2,10,26,84,086,28,15,63,217,36,09,05,183,37,29,40,298,*7B
$GPGSV,3,3,10,08,14,068,,04,11,118,*77
$GPRMC,165237.000,A,2233.2177,N,11413.7924,E,0.0,303.6,040191,,,A*6C
$GPGGA,165237.000,2233.2177,N,11413.7924,E,1,07,1.7,17.0,M,14.2,M,,0000*65
$GPVTG,303.6,T,,M,0.0,N,0.0,K,A*0B
$GPGLL,2233.2177,N,11413.7924,E,165237.00,A,A*60
$GPGSA,A,3,02,05,09,10,15,26,27,,,,,,2.3,1.7,1.5*3B
$GPRMC,165238.000,A,2233.2177,N,11413.7924,E,0.0,303.6,040191,,,A*63
$GPGGA,165238.000,2233.2177,N,11413.7924,E,1,07,1.7,17.0,M,14.2,M,,0000*6A
$GPVTG,303.6,T,,M,0.0,N,0.0,K,A*0B
$GPGLL,2233.2177,N,11413.7924,E,165238.00,A,A*6F
$GPGSA,A,3,02,05,09,10,15,26,27,,,,,,2.3,1.7,1.5*3B
$GPRMC,165239.000,A,2233.2177,N,11413.7924,E,0.0,303.6,040191,,,A*62
$GPGGA,165239.000,2233.2177,N,11413.7924,E,1,07,1.7,17.0,M,14.2,M,,0000*6B
$GPVTG,303.6,T,,M,0.0,N,0.0,K,A*0B
$GPGLL,2233.2177,N,11413.7924,E,165239.00,A,A*6E
$GPGSA,A,3,02,05,09,10,15,26,27,,,,,,2.3,1.7,1.5*3B
$GPRMC,165240.000,A,2233.2177,N,11413.7924,E,0.0,303.6,040191,,,A*6C
$GPGGA,165240.000,2233.2177,N,11413.7924,E,1,07,1.7,17.0,M,14.2,M,,0000*65
$GPVTG,303.6,T,,M,0.0,N,0.0,K,A*0B
$GPGLL,2233.2177,N,11413.7924,E,165240.00,A,A*60
$GPGSA,A,3,02,05,09,10,15,26,27,,,,,,2.3,1.7,1.5*3B
$GPRMC,165241.000,A,2233.2177,N,11413.7924,E,0.0,303.6,040191,,,A*6D
$GPGGA,165241.000,2233.2177,N,11413.7924,E,1,07,1.7,17.0,M,14.2,M,,0000*64
$GPVTG,303.6,T,,M,0.0,N,0.0,K,A*0B
$GPGLL,2233.2177,N,11413.7924,E,165241.00,A,A*61
$GPGSA,A,3,02,05,09,10,15,26,27,,,,,,2.3,1.7,1.5*3B
$GPGSV,3,1,10,10,18,053,24,05,45,017,15,02,46,101,15,27,15,171,38*7D
$GPGSV,3,2,10,26,84,086,26,15,63,217,36,09,05,183,36,29,40,298,*74
$GPGSV,3,3,10,08,14,068,,04,11,118,*77
$GPRMC,165242.000,A,2233.2177,N,11413.7924,E,0.0,303.6,040191,,,A*6E
$GPGGA,165242.000,2233.2177,N,11413.7924,E,1,07,1.7,17.0,M,14.2,M,,0000*67
$GPVTG,303.6,T,,M,0.0,N,0.0,K,A*0B
$GPGLL,2233.2177,N,11413.7924,E,165242.00,A,A*62
$GPGSA,A,3,02,05,09,10,15,26,27,,,,,,2.3,1.7,1.5*3B
$GPRMC,165243.000,A,2233.2177,N,11413.7924,E,0.0,303.6,040191,,,A*6F
$GPGGA,165243.000,2233.2177,N,11413.7924,E,1,07,1.7,17.0,M,14.2,M,,0000*66
$GPVTG,303.6,T,,M,0.0,N,0.0,K,A*0B
$GPGLL,2233.2177,N,11413.7924,E,165243.00,A,A*63
$GPGSA,A,3,02,05,09,10,15,26,27,,,,,,2.3,1.7,1.5*3B
$GPRMC,165244.000,A,2233.2177,N,11413.7924,E,0.0,303.6,040191,,,A*68
$GPGGA,165244.000,2233.2177,N,11413.7924,E,1,07,1.7,17.0,M,14.2,M,,0000*61
$GPVTG,303.6,T,,M,0.0,N,0.0,K,A*0B
$GPGLL,2233.2177,N,11413.7924,E,165244.00,A,A*64
$GPGSA,A,3,02,05,09,10,15,26,27,,,,,,2.3,1.7,1.5*3B
$GPRMC,165245.000,A,2233.2177,N,11413.7924,E,0.0,303.6,040191,,,A*69
$GPGGA,165245.000,2233.2177,N,11413.7924,E,1,07,1.7,17.0,M,14.2,M,,0000*60
$GPVTG,303.6,T,,M,0.0,N,0.0,K,A*0B
$GPGLL,2233.2177,N,11413.7924,E,165245.00,A,A*65
$GPGSA,A,3,02,05,09,10,15,26,27,,,,,,2.3,1.7,1.5*3B
$GPRMC,165246.000,A,2233.2177,N,11413.7924,E,0.0,303.6,040191,,,A*6A
$GPGGA,165246.000,2233.2177,N,11413.7924,E,1,07,1.7,17.0,M,14.2,M,,0000*63
$GPVTG,303.6,T,,M,0.0,N,0.0,K,A*0B
$GPGLL,2233.2177,N,11413.7924,E,165246.00,A,A*66
$GPGSA,A,3,02,05,09,10,15,26,27,,,,,,2.3,1.7,1.5*3B
$GPGSV,3,1,10,10,18,054,25,05,45,017,20,02,46,101,18,04,11,118,13*73
$GPGSV,3,2,10,27,15,171,39,26,84,085,26,15,63,217,37,09,05,183,37*77
$GPGSV,3,3,10,29,40,298,,08,14,068,*77
$GPRMC,165247.000,A,2233.2177,N,11413.7924,E,0.0,303.6,040191,,,A*6B
$GPGGA,165247.000,2233.2177,N,11413.7924,E,1,08,1.4,17.0,M,14.2,M,,0000*6E
$GPVTG,303.6,T,,M,0.0,N,0.0,K,A*0B
$GPGLL,2233.2177,N,11413.7924,E,165247.00,A,A*67
$GPGSA,A,3,02,04,05,09,10,15,26,27,,,,,2.1,1.4,1.5*3E
$GPRMC,165248.000,A,2233.2177,N,11413.7924,E,0.0,303.6,040191,,,A*64
$GPGGA,165248.000,2233.2177,N,11413.7924,E,1,08,1.4,17.0,M,14.2,M,,0000*61
$GPVTG,303.6,T,,M,0.0,N,0.0,K,A*0B
$GPGLL,2233.2177,N,11413.7924,E,165248.00,A,A*68
$GPGSA,A,3,02,04,05,09,10,15,26,27,,,,,2.1,1.4,1.5*3E
$GPRMC,165249.000,A,2233.2177,N,11413.7924,E,0.0,303.6,040191,,,A*65
$GPGGA,165249.000,2233.2177,N,11413.7924,E,1,08,1.4,17.0,M,14.2,M,,0000*60
$GPVTG,303.6,T,,M,0.0,N,0.0,K,A*0B
$GPGLL,2233.2177,N,11413.7924,E,165249.00,A,A*69
$GPGSA,A,3,02,04,05,09,10,15,26,27,,,,,2.1,1.4,1.5*3E
$GPRMC,165250.000,A,2233.2177,N,11413.7924,E,0.0,303.6,040191,,,A*6D
$GPGGA,165250.000,2233.2177,N,11413.7924,E,1,08,1.4,17.0,M,14.2,M,,0000*68
$GPVTG,303.6,T,,M,0.0,N,0.0,K,A*0B
$GPGLL,2233.2177,N,11413.7924,E,165250.00,A,A*61
$GPGSA,A,3,02,04,05,09,10,15,26,27,,,,,2.1,1.4,1.5*3E
$GPRMC,165251.000,A,2233.2177,N,11413.7924,E,0.0,303.6,040191,,,A*6C
$GPGGA,165251.000,2233.2177,N,11413.7924,E,1,08,1.4,17.0,M,14.2,M,,0000*69
$GPVTG,303.6,T,,M,0.0,N,0.0,K,A*0B
$GPGLL,2233.2177,N,11413.7924,E,165251.00,A,A*60
$GPGSA,A,3,02,04,05,09,10,15,26,27,,,,,2.1,1.4,1.5*3E
$GPGSV,3,1,10,10,18,054,25,05,45,017,20,02,46,101,22,04,11,118,13*7A
$GPGSV,3,2,10,27,15,171,38,26,84,085,25,15,63,217,36,09,05,183,37*74
$GPGSV,3,3,10,29,40,298,,08,14,068,*77
$GPRMC,165252.000,A,2233.2177,N,11413.7924,E,0.0,303.6,040191,,,A*6F
$GPGGA,165252.000,2233.2177,N,11413.7924,E,1,08,1.4,17.0,M,14.2,M,,0000*6A
$GPVTG,303.6,T,,M,0.0,N,0.0,K,A*0B
$GPGLL,2233.2177,N,11413.7924,E,165252.00,A,A*63
$GPGSA,A,3,02,04,05,09,10,15,26,27,,,,,2.1,1.4,1.5*3E
$GPRMC,165253.000,A,2233.2177,N,11413.7924,E,0.0,303.6,040191,,,A*6E
$GPGGA,165253.000,2233.2177,N,11413.7924,E,1,08,1.4,17.0,M,14.2,M,,0000*6B
$GPVTG,303.6,T,,M,0.0,N,0.0,K,A*0B
$GPGLL,2233.2177,N,11413.7924,E,165253.00,A,A*62
$GPGSA,A,3,02,04,05,09,10,15,26,27,,,,,2.1,1.4,1.5*3E
$GPRMC,165254.000,A,2233.2177,N,11413.7924,E,0.0,303.6,040191,,,A*69
$GPGGA,165254.000,2233.2177,N,11413.7924,E,1,08,1.4,17.0,M,14.2,M,,0000*6C
$GPVTG,303.6,T,,M,0.0,N,0.0,K,A*0B
$GPGLL,2233.2177,N,11413.7924,E,165254.00,A,A*65
$GPGSA,A,3,02,04,05,09,10,15,26,27,,,,,2.1,1.4,1.5*3E
$GPRMC,165255.000,A,2233.2177,N,11413.7924,E,0.0,303.6,040191,,,A*68
$GPGGA,165255.000,2233.2177,N,11413.7924,E,1,08,1.4,17.0,M,14.2,M,,0000*6D
$GPVTG,303.6,T,,M,0.0,N,0.0,K,A*0B
$GPGLL,2233.2177,N,11413.7924,E,165255.00,A,A*64
$GPGSA,A,3,02,04,05,09,10,15,26,27,,,,,2.1,1.4,1.5*3E
$GPRMC,165256.000,A,2233.2177,N,11413.7924,E,0.0,303.6,040191,,,A*6B
$GPGGA,165256.000,2233.2177,N,11413.7924,E,1,08,1.4,17.0,M,14.2,M,,0000*6E
$GPVTG,303.6,T,,M,0.0,N,0.0,K,A*0B
$GPGLL,2233.2177,N,11413.7924,E,165256.00,A,A*67
$GPGSA,A,3,02,04,05,09,10,15,26,27,,,,,2.1,1.4,1.5*3E
$GPGSV,3,1,10,10,18,054,24,05,45,017,18,02,46,101,24,04,11,118,13*76
$GPGSV,3,2,10,27,15,171,38,26,84,084,26,15,64,217,36,09,05,183,38*7E
$GPGSV,3,3,10,29,40,298,,08,14,068,*77
$GPRMC,165257.000,A,2233.2177,N,11413.7924,E,0.0,303.6,040191,,,A*6A
$GPGGA,165257.000,2233.2177,N,11413.7924,E,1,08,1.4,17.0,M,14.2,M,,0000*6F
$GPVTG,303.6,T,,M,0.0,N,0.0,K,A*0B
$GPGLL,2233.2177,N,11413.7924,E,165257.00,A,A*66
$GPGSA,A,3,02,04,05,09,10,15,26,27,,,,,2.1,1.4,1.5*3E
$GPRMC,165258.000,A,2233.2177,N,11413.7924,E,0.0,303.6,040191,,,A*65
$GPGGA,165258.000,2233.2177,N,11413.7924,E,1,08,1.4,17.0,M,14.2,M,,0000*60
$GPVTG,303.6,T,,M,0.0,N,0.0,K,A*0B
$GPGLL,2233.2177,N,11413.7924,E,165258.00,A,A*69
$GPGSA,A,3,02,04,05,09,10,15,26,27,,,,,2.1,1.4,1.5*3E
$GPRMC,165259.000,A,2233.2177,N,11413.7924,E,0.0,303.6,040191,,,A*64
$GPGGA,165259.000,2233.2177,N,11413.7924,E,1,08,1.4,17.0,M,14.2,M,,0000*61
$GPVTG,303.6,T,,M,0.0,N,0.0,K,A*0B
$GPGLL,2233.2177,N,11413.7924,E,165259.00,A,A*68
$GPGSA,A,3,02,04,05,09,10,15,26,27,,,,,2.1,1.4,1.5*3E
$GPRMC,165300.000,A,2233.2177,N,11413.7924,E,0.0,303.6,040191,,,A*69
$GPGGA,165300.000,2233.2177,N,11413.7924,E,1,08,1.4,17.0,M,14.2,M,,0000*6C
$GPVTG,303.6,T,,M,0.0,N,0.0,K,A*0B
$GPGLL,2233.2177,N,11413.7924,E,165300.00,A,A*65
$GPGSA,A,3,02,04,05,09,10,15,26,27,,,,,2.1,1.4,1.5*3E
$GPRMC,165301.000,A,2233.2177,N,11413.7924,E,0.0,303.6,040191,,,A*68
$GPGGA,165301.000,2233.2177,N,11413.7924,E,1,08,1.4,17.0,M,14.2,M,,0000*6D
$GPVTG,303.6,T,,M,0.0,N,0.0,K,A*0B
$GPGLL,2233.2177,N,11413.7924,E,165301.00,A,A*64
$GPGSA,A,3,02,04,05,09,10,15,26,27,,,,,2.1,1.4,1.5*3E
$GPGSV,3,1,10,10,18,054,25,05,45,017,16,02,46,101,22,04,11,118,14*78
$GPGSV,3,2,10,27,15,171,37,26,84,084,25,15,64,217,36,09,05,183,37*7D
$GPGSV,3,3,10,29,40,298,14,08,14,068,*72
$GPRMC,165302.000,A,2233.2177,N,11413.7924,E,0.0,303.6,040191,,,A*6B
$GPGGA,165302.000,2233.2177,N,11413.7924,E,1,08,1.4,17.0,M,14.2,M,,0000*6E
$GPVTG,303.6,T,,M,0.0,N,0.0,K,A*0B
$GPGLL,2233.2177,N,11413.7924,E,165302.00,A,A*67
$GPGSA,A,3,02,04,05,09,10,15,26,27,,,,,2.1,1.4,1.5*3E
$GPRMC,165303.000,A,2233.2177,N,11413.7924,E,0.0,303.6,040191,,,A*6A
$GPGGA,165303.000,2233.2177,N,11413.7924,E,1,08,1.4,17.0,M,14.2,M,,0000*6F
$GPVTG,303.6,T,,M,0.0,N,0.0,K,A*0B
$GPGLL,2233.2177,N,11413.7924,E,165303.00,A,A*66
$GPGSA,A,3,02,04,05,09,10,15,26,27,,,,,2.1,1.4,1.5*3E
$GPRMC,165304.000,A,2233.2177,N,11413.7924,E,0.0,303.6,040191,,,A*6D
$GPGGA,165304.000,2233.2177,N,11413.7924,E,1,08,1.4,17.0,M,14.2,M,,0000*68
$GPVTG,303.6,T,,M,0.0,N,0.0,K,A*0B
$GPGLL,2233.2177,N,11413.7924,E,165304.00,A,A*61
$GPGSA,A,3,02,04,05,09,10,15,26,27,,,,,2.1,1.4,1.5*3E
$GPRMC,165305.000,A,2233.2177,N,11413.7924,E,0.0,303.6,040191,,,A*6C
$GPGGA,165305.000,2233.2177,N,11413.7924,E,1,08,1.4,17.0,M,14.2,M,,0000*69
$GPVTG,303.6,T,,M,0.0,N,0.0,K,A*0B
$GPGLL,2233.2177,N,11413.7924,E,165305.00,A,A*60
$GPGSA,A,3,02,04,05,09,10,15,26,27,,,,,2.1,1.4,1.5*3E
$GPRMC,165306.000,A,2233.2177,N,11413.7924,E,0.0,303.6,040191,,,A*6F
$GPGGA,165306.000,2233.2177,N,11413.7924,E,1,08,1.4,17.0,M,14.2,M,,0000*6A
$GPVTG,303.6,T,,M,0.0,N,0.0,K,A*0B
$GPGLL,2233.2177,N,11413.7924,E,165306.00,A,A*63
$GPGSA,A,3,02,04,05,09,10,15,26,27,,,,,2.1,1.4,1.5*3E
$GPGSV,3,1,10,10,18,054,24,05,45,017,16,02,46,101,19,04,11,118,14*71
$GPGSV,3,2,10,27,15,171,38,26,84,083,26,15,64,217,35,09,05,183,37*75
$GPGSV,3,3,10,29,40,298,18,08,14,068,*7E
$GPRMC,165307.000,A,2233.2177,N,11413.7924,E,0.0,303.6,040191,,,A*6E
$GPGGA,165307.000,2233.2177,N,11413.7924,E,1,08,1.4,17.0,M,14.2,M,,0000*6B
$GPVTG,303.6,T,,M,0.0,N,0.0,K,A*0B
$GPGLL,2233.2177,N,11413.7924,E,165307.00,A,A*62
$GPGSA,A,3,02,04,05,09,10,15,26,27,,,,,2.1,1.4,1.5*3E
$GPRMC,165308.000,A,2233.2177,N,11413.7924,E,0.0,303.6,040191,,,A*61
$GPGGA,165308.000,2233.2177,N,11413.7924,E,1,08,1.4,17.0,M,14.2,M,,0000*64
$GPVTG,303.6,T,,M,0.0,N,0.0,K,A*0B
$GPGLL,2233.2177,N,11413.7924,E,165308.00,A,A*6D
$GPGSA,A,3,02,04,05,09,10,15,26,27,,,,,2.1,1.4,1.5*3E
$GPRMC,165309.000,A,2233.2177,N,11413.7924,E,0.0,303.6,040191,,,A*60
$GPGGA,165309.000,2233.2177,N,11413.7924,E,1,07,1.8,17.0,M,14.2,M,,0000*66
$GPVTG,303.6,T,,M,0.0,N,0.0,K,A*0B
$GPGLL,2233.2177,N,11413.7924,E,165309.00,A,A*6C
$GPGSA,A,3,04,05,09,10,15,26,27,,,,,,2.6,1.8,1.9*3B
$GPRMC,165310.000,A,2233.2177,N,11413.7924,E,0.0,303.6,040191,,,A*68
$GPGGA,165310.000,2233.2177,N,11413.7924,E,1,07,1.8,17.0,M,14.2,M,,0000*6E
$GPVTG,303.6,T,,M,0.0,N,0.0,K,A*0B
$GPGLL,2233.2177,N,11413.7924,E,165310.00,A,A*64
$GPGSA,A,3,04,05,09,10,15,26,27,,,,,,2.6,1.8,1.9*3B
$GPRMC,165311.000,A,2233.2177,N,11413.7924,E,0.0,303.6,040191,,,A*69
$GPGGA,165311.000,2233.2177,N,11413.7924,E,1,07,1.8,17.0,M,14.2,M,,0000*6F
$GPVTG,303.6,T,,M,0.0,N,0.0,K,A*0B
$GPGLL,2233.2177,N,11413.7924,E,165311.00,A,A*65
$GPGSA,A,3,04,05,09,10,15,26,27,,,,,,2.6,1.8,1.9*3B
$GPGSV,3,1,10,10,18,054,25,05,45,017,12,04,11,118,14,27,15,171,38*71
$GPGSV,3,2,10,26,84,083,28,15,64,217,37,09,05,183,36,29,40,298,23*78
$GPGSV,3,3,10,02,46,101,,08,14,068,*7B
$GPRMC,165312.000,A,2233.2177,N,11413.7924,E,0.0,303.6,040191,,,A*6A
$GPGGA,165312.000,2233.2177,N,11413.7924,E,1,07,1.8,17.0,M,14.2,M,,0000*6C
$GPVTG,303.6,T,,M,0.0,N,0.0,K,A*0B
$GPGLL,2233.2177,N,11413.7924,E,165312.00,A,A*66
$GPGSA,A,3,04,05,09,10,15,26,27,,,,,,2.6,1.8,1.9*3B
$GPRMC,165313.000,A,2233.2177,N,11413.7924,E,0.0,303.6,040191,,,A*6B
$GPGGA,165313.000,2233.2177,N,11413.7924,E,1,07,1.8,17.0,M,14.2,M,,0000*6D
$GPVTG,303.6,T,,M,0.0,N,0.0,K,A*0B
$GPGLL,2233.2177,N,11413.7924,E,165313.00,A,A*67
$GPGSA,A,3,04,05,09,10,15,26,27,,,,,,2.6,1.8,1.9*3B
$GPRMC,165314.000,A,2233.2177,N,11413.7924,E,0.0,303.6,040191,,,A*6C
$GPGGA,165314.000,2233.2177,N,11413.7924,E,1,07,1.8,17.0,M,14.2,M,,0000*6A
$GPVTG,303.6,T,,M,0.0,N,0.0,K,A*0B
$GPGLL,2233.2177,N,11413.7924,E,165314.00,A,A*60
$GPGSA,A,3,04,05,09,10,15,26,27,,,,,,2.6,1.8,1.9*3B
$GPRMC,165315.000,A,2233.2177,N,11413.7924,E,0.0,303.6,040191,,,A*6D
$GPGGA,165315.000,2233.2177,N,11413.7924,E,1,07,1.8,17.0,M,14.2,M,,0000*6B
$GPVTG,303.6,T,,M,0.0,N,0.0,K,A*0B
$GPGLL,2233.2177,N,11413.7924,E,165315.00,A,A*61
$GPGSA,A,3,04,05,09,10,15,26,27,,,,,,2.6,1.8,1.9*3B
$GPRMC,165316.000,A,2233.2177,N,11413.7924,E,0.0,303.6,040191,,,A*6E
$GPGGA,165316.000,2233.2177,N,11413.7924,E,1,07,1.8,17.0,M,14.2,M,,0000*68
$GPVTG,303.6,T,,M,0.0,N,0.0,K,A*0B
$GPGLL,2233.2177,N,11413.7924,E,165316.00,A,A*62
$GPGSA,A,3,04,05,09,10,15,26,27,,,,,,2.6,1.8,1.9*3B
$GPGSV,3,1,10,10,18,054,25,05,45,017,13,04,11,118,12,27,15,171,38*76
$GPGSV,3,2,10,26,84,082,29,15,64,217,36,09,05,183,36,29,40,298,20*7A
$GPGSV,3,3,10,02,46,101,,08,14,068,*7B
$GPRMC,165317.000,A,2233.2177,N,11413.7924,E,0.0,303.6,040191,,,A*6F
$GPGGA,165317.000,2233.2177,N,11413.7924,E,1,07,1.8,17.0,M,14.2,M,,0000*69
$GPVTG,303.6,T,,M,0.0,N,0.0,K,A*0B
$GPGLL,2233.2177,N,11413.7924,E,165317.00,A,A*63
$GPGSA,A,3,04,05,09,10,15,26,27,,,,,,2.6,1.8,1.9*3B
$GPRMC,165318.000,A,2233.2177,N,11413.7924,E,0.0,303.6,040191,,,A*60
$GPGGA,165318.000,2233.2177,N,11413.7924,E,1,07,1.8,17.0,M,14.2,M,,0000*66
$GPVTG,303.6,T,,M,0.0,N,0.0,K,A*0B
$GPGLL,2233.2177,N,11413.7924,E,165318.00,A,A*6C
$GPGSA,A,3,04,05,09,10,15,26,27,,,,,,2.6,1.8,1.9*3B
$GPRMC,165319.000,A,2233.2177,N,11413.7924,E,0.0,303.6,040191,,,A*61
$GPGGA,165319.000,2233.2177,N,11413.7924,E,1,07,1.8,17.0,M,14.2,M,,0000*67
$GPVTG,303.6,T,,M,0.0,N,0.0,K,A*0B
$GPGLL,2233.2177,N,11413.7924,E,165319.00,A,A*6D
$GPGSA,A,3,04,05,09,10,15,26,27,,,,,,2.6,1.8,1.9*3B
$GPRMC,165320.000,A,2233.2177,N,11413.7924,E,0.0,303.6,040191,,,A*6B
$GPGGA,165320.000,2233.2177,N,11413.7924,E,1,07,1.8,17.0,M,14.2,M,,0000*6D
$GPVTG,303.6,T,,M,0.0,N,0.0,K,A*0B
$GPGLL,2233.2177,N,11413.7924,E,165320.00,A,A*67
$GPGSA,A,3,04,05,09,10,15,26,27,,,,,,2.6,1.8,1.9*3B
$GPRMC,165321.000,A,2233.2177,N,11413.7924,E,0.0,303.6,040191,,,A*6A
$GPGGA,165321.000,2233.2177,N,11413.7924,E,1,08,1.4,17.0,M,14.2,M,,0000*6F
$GPVTG,303.6,T,,M,0.0,N,0.0,K,A*0B
$GPGLL,2233.2177,N,11413.7924,E,165321.00,A,A*66
$GPGSA,A,3,02,04,05,09,10,15,26,27,,,,,2.1,1.4,1.5*3E
$GPGSV,3,1,10,10,18,054,23,05,45,017,17,02,46,101,13,04,11,118,12*7B
$GPGSV,3,2,10,27,15,171,38,26,84,082,26,15,64,217,35,09,05,183,36*75
$GPGSV,3,3,10,29,40,298,18,08,14,068,*7E
$GPRMC,165322.000,A,2233.2177,N,11413.7924,E,0.0,303.6,040191,,,A*69
$GPGGA,165322.000,2233.2177,N,11413.7924,E,1,08,1.4,17.0,M,14.2,M,,0000*6C
$GPVTG,303.6,T,,M,0.0,N,0.0,K,A*0B
$GPGLL,2233.2177,N,11413.7924,E,165322.00,A,A*65
$GPGSA,A,3,02,04,05,09,10,15,26,27,,,,,2.1,1.4,1.5*3E
$GPRMC,165323.000,A,2233.2177,N,11413.7924,E,0.0,303.6,040191,,,A*68
$GPGGA,165323.000,2233.2177,N,11413.7924,E,1,08,1.4,17.0,M,14.2,M,,0000*6D
$GPVTG,303.6,T,,M,0.0,N,0.0,K,A*0B
$GPGLL,2233.2177,N,11413.7924,E,165323.00,A,A*64
$GPGSA,A,3,02,04,05,09,10,15,26,27,,,,,2.1,1.4,1.5*3E
$GPRMC,165324.000,A,2233.2177,N,11413.7924,E,0.0,303.6,040191,,,A*6F
$GPGGA,165324.000,2233.2177,N,11413.7924,E,1,08,1.4,17.0,M,14.2,M,,0000*6A
$GPVTG,303.6,T,,M,0.0,N,0.0,K,A*0B
$GPGLL,2233.2177,N,11413.7924,E,165324.00,A,A*63
$GPGSA,A,3,02,04,05,09,10,15,26,27,,,,,2.1,1.4,1.5*3E
$GPRMC,165325.000,A,2233.2177,N,11413.7924,E,0.0,303.6,040191,,,A*6E
$GPGGA,165325.000,2233.2177,N,11413.7924,E,1,08,1.4,17.0,M,14.2,M,,0000*6B
$GPVTG,303.6,T,,M,0.0,N,0.0,K,A*0B
$GPGLL,2233.2177,N,11413.7924,E,165325.00,A,A*62
$GPGSA,A,3,02,04,05,09,10,15,26,27,,,,,2.1,1.4,1.5*3E
$GPRMC,165326.000,A,2233.2177,N,11413.7924,E,0.0,303.6,040191,,,A*6D
$GPGGA,165326.000,2233.2177,N,11413.7924,E,1,08,1.4,17.0,M,14.2,M,,0000*68
$GPVTG,303.6,T,,M,0.0,N,0.0,K,A*0B
$GPGLL,2233.2177,N,11413.7924,E,165326.00,A,A*61
$GPGSA,A,3,02,04,05,09,10,15,26,27,,,,,2.1,1.4,1.5*3E
$GPGSV,3,1,10,10,18,054,23,05,45,017,19,02,46,101,15,04,11,118,12*73
$GPGSV,3,2,10,27,15,171,38,26,84,081,28,15,64,217,36,09,05,183,37*7A
$GPGSV,3,3,10,29,40,297,20,08,14,068,*7A
$GPRMC,165327.000,A,2233.2177,N,11413.7924,E,0.0,303.6,040191,,,A*6C
$GPGGA,165327.000,2233.2177,N,11413.7924,E,1,08,1.4,17.0,M,14.2,M,,0000*69
$GPVTG,303.6,T,,M,0.0,N,0.0,K,A*0B
$GPGLL,2233.2177,N,11413.7924,E,165327.00,A,A*60
$GPGSA,A,3,02,04,05,09,10,15,26,27,,,,,2.1,1.4,1.5*3E
$GPRMC,165328.000,A,2233.2177,N,11413.7924,E,0.0,303.6,040191,,,A*63
$GPGGA,165328.000,2233.2177,N,11413.7924,E,1,08,1.4,17.0,M,14.2,M,,0000*66
$GPVTG,303.6,T,,M,0.0,N,0.0,K,A*0B
$GPGLL,2233.2177,N,11413.7924,E,165328.00,A,A*6F
$GPGSA,A,3,02,04,05,09,10,15,26,27,,,,,2.1,1.4,1.5*3E
$GPRMC,165329.000,A,2233.2177,N,11413.7924,E,0.0,303.6,040191,,,A*62
$GPGGA,165329.000,2233.2177,N,11413.7924,E,1,08,1.4,17.0,M,14.2,M,,0000*67
$GPVTG,303.6,T,,M,0.0,N,0.0,K,A*0B
$GPGLL,2233.2177,N,11413.7924,E,165329.00,A,A*6E
$GPGSA,A,3,02,04,05,09,10,15,26,27,,,,,2.1,1.4,1.5*3E
$GPRMC,165330.000,A,2233.2177,N,11413.7924,E,0.0,303.6,040191,,,A*6A
$GPGGA,165330.000,2233.2177,N,11413.7924,E,1,08,1.4,17.0,M,14.2,M,,0000*6F
$GPVTG,303.6,T,,M,0.0,N,0.0,K,A*0B
$GPGLL,2233.2177,N,11413.7924,E,165330.00,A,A*66
$GPGSA,A,3,02,04,05,09,10,15,26,27,,,,,2.1,1.4,1.5*3E
$GPRMC,165331.000,A,2233.2177,N,11413.7924,E,0.0,303.6,040191,,,A*6B
$GPGGA,165331.000,2233.2177,N,11413.7924,E,1,08,1.4,17.0,M,14.2,M,,0000*6E
$GPVTG,303.6,T,,M,0.0,N,0.0,K,A*0B
$GPGLL,2233.2177,N,11413.7924,E,165331.00,A,A*67
$GPGSA,A,3,02,04,05,09,10,15,26,27,,,,,2.1,1.4,1.5*3E
$GPGSV,3,1,10,10,18,054,22,05,45,017,18,02,46,101,18,04,11,118,12*7E
$GPGSV,3,2,10,27,15,171,38,26,84,081,27,15,64,217,35,09,05,183,36*77
$GPGSV,3,3,10,29,40,297,19,08,14,068,*70
$GPRMC,165332.000,A,2233.2177,N,11413.7924,E,0.0,303.6,040191,,,A*68
$GPGGA,165332.000,2233.2177,N,11413.7924,E,1,08,1.4,17.0,M,14.2,M,,0000*6D
$GPVTG,303.6,T,,M,0.0,N,0.0,K,A*0B
$GPGLL,2233.2177,N,11413.7924,E,165332.00,A,A*64
$GPGSA,A,3,02,04,05,09,10,15,26,27,,,,,2.1,1.4,1.5*3E
$GPRMC,165333.000,A,2233.2177,N,11413.7924,E,0.0,303.6,040191,,,A*69
$GPGGA,165333.000,2233.2177,N,11413.7924,E,1,08,1.4,17.0,M,14.2,M,,0000*6C
$GPVTG,303.6,T,,M,0.0,N,0.0,K,A*0B
$GPGLL,2233.2177,N,11413.7924,E,165333.00,A,A*65
$GPGSA,A,3,02,04,05,09,10,15,26,27,,,,,2.1,1.4,1.5*3E
$GPRMC,165334.000,A,2233.2177,N,11413.7924,E,0.0,303.6,040191,,,A*6E
$GPGGA,165334.000,2233.2177,N,11413.7924,E,1,08,1.4,17.0,M,14.2,M,,0000*6B
$GPVTG,303.6,T,,M,0.0,N,0.0,K,A*0B
$GPGLL,2233.2177,N,11413.7924,E,165334.00,A,A*62
$GPGSA,A,3,02,04,05,09,10,15,26,27,,,,,2.1,1.4,1.5*3E
$GPRMC,165335.000,A,2233.2177,N,11413.7924,E,0.0,303.6,040191,,,A*6F
$GPGGA,165335.000,2233.2177,N,11413.7924,E,1,08,1.4,17.0,M,14.2,M,,0000*6A
$GPVTG,303.6,T,,M,0.0,N,0.0,K,A*0B
$GPGLL,2233.2177,N,11413.7924,E,165335.00,A,A*63
$GPGSA,A,3,02,04,05,09,10,15,26,27,,,,,2.1,1.4,1.5*3E
$GPRMC,165336.000,A,2233.2177,N,11413.7924,E,0.0,303.6,040191,,,A*6C
$GPGGA,165336.000,2233.2177,N,11413.7924,E,1,08,1.4,17.0,M,14.2,M,,0000*69
$GPVTG,303.6,T,,M,0.0,N,0.0,K,A*0B
$GPGLL,2233.2177,N,11413.7924,E,165336.00,A,A*60
$GPGSA,A,3,02,04,05,09,10,15,26,27,,,,,2.1,1.4,1.5*3E
$GPGSV,3,1,10,10,18,054,22,05,45,017,15,02,46,101,15,04,11,118,12*7E
$GPGSV,3,2,10,27,15,171,38,26,84,080,25,15,64,217,35,09,06,183,37*76
$GPGSV,3,3,10,29,40,297,18,08,14,068,*71
$GPRMC,165337.000,A,2233.2177,N,11413.7924,E,0.0,303.6,040191,,,A*6D
$GPGGA,165337.000,2233.2177,N,11413.7924,E,1,08,1.4,17.0,M,14.2,M,,0000*68
$GPVTG,303.6,T,,M,0.0,N,0.0,K,A*0B
$GPGLL,2233.2177,N,11413.7924,E,165337.00,A,A*61
$GPGSA,A,3,02,04,05,09,10,15,26,27,,,,,2.1,1.4,1.5*3E
$GPRMC,165338.000,A,2233.2177,N,11413.7924,E,0.0,303.6,040191,,,A*62
$GPGGA,165338.000,2233.2177,N,11413.7924,E,1,08,1.4,17.0,M,14.2,M,,0000*67
$GPVTG,303.6,T,,M,0.0,N,0.0,K,A*0B
$GPGLL,2233.2177,N,11413.7924,E,165338.00,A,A*6E
$GPGSA,A,3,02,04,05,09,10,15,26,27,,,,,2.1,1.4,1.5*3E
$GPRMC,165339.000,A,2233.2177,N,11413.7924,E,0.0,303.6,040191,,,A*63
$GPGGA,165339.000,2233.2177,N,11413.7924,E,1,08,1.4,17.0,M,14.2,M,,0000*66
$GPVTG,303.6,T,,M,0.0,N,0.0,K,A*0B
$GPGLL,2233.2177,N,11413.7924,E,165339.00,A,A*6F
$GPGSA,A,3,02,04,05,09,10,15,26,27,,,,,2.1,1.4,1.5*3E
$GPRMC,165340.000,A,2233.2177,N,11413.7924,E,0.0,303.6,040191,,,A*6D
$GPGGA,165340.000,2233.2177,N,11413.7924,E,1,08,1.4,17.0,M,14.2,M,,0000*68
$GPVTG,303.6,T,,M,0.0,N,0.0,K,A*0B
$GPGLL,2233.2177,N,11413.7924,E,165340.00,A,A*61
$GPGSA,A,3,02,04,05,09,10,15,26,27,,,,,2.1,1.4,1.5*3E
$GPRMC,165341.000,A,2233.2177,N,11413.7924,E,0.0,303.6,040191,,,A*6C
$GPGGA,165341.000,2233.2177,N,11413.7924,E,1,08,1.4,17.0,M,14.2,M,,0000*69
$GPVTG,303.6,T,,M,0.0,N,0.0,K,A*0B
$GPGLL,2233.2177,N,11413.7924,E,165341.00,A,A*60
$GPGSA,A,3,02,04,05,09,10,15,26,27,,,,,2.1,1.4,1.5*3E
$GPGSV,3,1,10,10,18,054,23,05,45,017,16,02,46,101,15,04,11,118,15*7B
$GPGSV,3,2,10,27,15,171,39,26,84,080,26,15,64,218,36,09,06,183,37*78
$GPGSV,3,3,10,29,40,297,17,08,14,068,*7E
$GPRMC,165342.000,A,2233.2177,N,11413.7924,E,0.0,303.6,040191,,,A*6F
$GPGGA,165342.000,2233.2177,N,11413.7924,E,1,08,1.4,17.0,M,14.2,M,,0000*6A
$GPVTG,303.6,T,,M,0.0,N,0.0,K,A*0B
$GPGLL,2233.2177,N,11413.7924,E,165342.00,A,A*63
$GPGSA,A,3,02,04,05,09,10,15,26,27,,,,,2.1,1.4,1.5*3E
$GPRMC,165343.000,A,2233.2177,N,11413.7924,E,0.0,303.6,040191,,,A*6E
$GPGGA,165343.000,2233.2177,N,11413.7924,E,1,08,1.4,17.0,M,14.2,M,,0000*6B
$GPVTG,303.6,T,,M,0.0,N,0.0,K,A*0B
$GPGLL,2233.2177,N,11413.7924,E,165343.00,A,A*62
$GPGSA,A,3,02,04,05,09,10,15,26,27,,,,,2.1,1.4,1.5*3E
$GPRMC,165344.000,A,2233.2177,N,11413.7924,E,0.0,303.6,040191,,,A*69
$GPGGA,165344.000,2233.2177,N,11413.7924,E,1,08,1.4,17.0,M,14.2,M,,0000*6C
$GPVTG,303.6,T,,M,0.0,N,0.0,K,A*0B
$GPGLL,2233.2177,N,11413.7924,E,165344.00,A,A*65
$GPGSA,A,3,02,04,05,09,10,15,26,27,,,,,2.1,1.4,1.5*3E
$GPRMC,165345.000,A,2233.2177,N,11413.7924,E,0.0,303.6,040191,,,A*68
$GPGGA,165345.000,2233.2177,N,11413.7924,E,1,08,1.4,17.0,M,14.2,M,,0000*6D
$GPVTG,303.6,T,,M,0.0,N,0.0,K,A*0B
$GPGLL,2233.2177,N,11413.7924,E,165345.00,A,A*64
$GPGSA,A,3,02,04,05,09,10,15,26,27,,,,,2.1,1.4,1.5*3E
$GPRMC,165346.000,A,2233.2177,N,11413.7924,E,0.0,303.6,040191,,,A*6B
$GPGGA,165346.000,2233.2177,N,11413.7924,E,1,08,1.4,17.0,M,14.2,M,,0000*6E
$GPVTG,303.6,T,,M,0.0,N,0.0,K,A*0B
$GPGLL,2233.2177,N,11413.7924,E,165346.00,A,A*67
$GPGSA,A,3,02,04,05,09,10,15,26,27,,,,,2.1,1.4,1.5*3E
$GPGSV,3,1,10,10,18,054,21,05,45,017,16,02,46,101,13,04,11,118,19*73
$GPGSV,3,2,10,27,15,171,38,26,84,079,24,15,64,218,36,09,06,183,37*7D
$GPGSV,3,3,10,29,40,297,16,08,14,068,*7F
$GPRMC,165347.000,A,2233.2177,N,11413.7924,E,0.0,303.6,040191,,,A*6A
$GPGGA,165347.000,2233.2177,N,11413.7924,E,1,08,1.4,17.0,M,14.2,M,,0000*6F
$GPVTG,303.6,T,,M,0.0,N,0.0,K,A*0B
$GPGLL,2233.2177,N,11413.7924,E,165347.00,A,A*66
$GPGSA,A,3,02,04,05,09,10,15,26,27,,,,,2.1,1.4,1.5*3E
$GPRMC,165348.000,A,2233.2177,N,11413.7924,E,0.0,303.6,040191,,,A*65
$GPGGA,165348.000,2233.2177,N,11413.7924,E,1,08,1.4,17.0,M,14.2,M,,0000*60
$GPVTG,303.6,T,,M,0.0,N,0.0,K,A*0B
$GPGLL,2233.2177,N,11413.7924,E,165348.00,A,A*69
$GPGSA,A,3,02,04,05,09,10,15,26,27,,,,,2.1,1.4,1.5*3E
$GPRMC,165349.000,A,2233.2177,N,11413.7924,E,0.0,303.6,040191,,,A*64
$GPGGA,165349.000,2233.2177,N,11413.7924,E,1,08,1.4,17.0,M,14.2,M,,0000*61
$GPVTG,303.6,T,,M,0.0,N,0.0,K,A*0B
$GPGLL,2233.2177,N,11413.7924,E,165349.00,A,A*68
$GPGSA,A,3,02,04,05,09,10,15,26,27,,,,,2.1,1.4,1.5*3E
$GPRMC,165350.000,A,2233.2177,N,11413.7924,E,0.0,303.6,040191,,,A*6C
$GPGGA,165350.000,2233.2177,N,11413.7924,E,1,08,1.4,17.0,M,14.2,M,,0000*69
$GPVTG,303.6,T,,M,0.0,N,0.0,K,A*0B
$GPGLL,2233.2177,N,11413.7924,E,165350.00,A,A*60
$GPGSA,A,3,02,04,05,09,10,15,26,27,,,,,2.1,1.4,1.5*3E
$GPRMC,165351.000,A,2233.2177,N,11413.7924,E,0.0,303.6,040191,,,A*6D
$GPGGA,165351.000,2233.2177,N,11413.7924,E,1,08,1.4,17.0,M,14.2,M,,0000*68
$GPVTG,303.6,T,,M,0.0,N,0.0,K,A*0B
$GPGLL,2233.2177,N,11413.7924,E,165351.00,A,A*61
$GPGSA,A,3,02,04,05,09,10,15,26,27,,,,,2.1,1.4,1.5*3E
$GPGSV,3,1,10,10,18,054,22,05,45,017,20,02,46,101,12,04,11,118,19*74
$GPGSV,3,2,10,27,15,170,37,26,84,079,24,15,64,218,37,09,06,183,37*72
$GPGSV,3,3,10,29,40,297,16,08,14,067,*70
$GPRMC,165352.000,A,2233.2177,N,11413.7924,E,0.0,303.6,040191,,,A*6E
$GPGGA,165352.000,2233.2177,N,11413.7924,E,1,08,1.4,17.0,M,14.2,M,,0000*6B
$GPVTG,303.6,T,,M,0.0,N,0.0,K,A*0B
$GPGLL,2233.2177,N,11413.7924,E,165352.00,A,A*62
$GPGSA,A,3,02,04,05,09,10,15,26,27,,,,,2.1,1.4,1.5*3E
$GPRMC,165353.000,A,2233.2177,N,11413.7924,E,0.0,303.6,040191,,,A*6F
$GPGGA,165353.000,2233.2177,N,11413.7924,E,1,08,1.4,17.0,M,14.2,M,,0000*6A
$GPVTG,303.6,T,,M,0.0,N,0.0,K,A*0B
$GPGLL,2233.2177,N,11413.7924,E,165353.00,A,A*63
$GPGSA,A,3,02,04,05,09,10,15,26,27,,,,,2.1,1.4,1.5*3E
$GPRMC,165354.000,A,2233.2177,N,11413.7924,E,0.0,303.6,040191,,,A*68
$GPGGA,165354.000,2233.2177,N,11413.7924,E,1,08,1.4,17.0,M,14.2,M,,0000*6D
$GPVTG,303.6,T,,M,0.0,N,0.0,K,A*0B
$GPGLL,2233.2177,N,11413.7924,E,165354.00,A,A*64
$GPGSA,A,3,02,04,05,09,10,15,26,27,,,,,2.1,1.4,1.5*3E
$GPRMC,165355.000,A,2233.2177,N,11413.7924,E,0.0,303.6,040191,,,A*69
$GPGGA,165355.000,2233.2177,N,11413.7924,E,1,08,1.4,17.0,M,14.2,M,,0000*6C
$GPVTG,303.6,T,,M,0.0,N,0.0,K,A*0B
$GPGLL,2233.2177,N,11413.7924,E,165355.00,A,A*65
$GPGSA,A,3,02,04,05,09,10,15,26,27,,,,,2.1,1.4,1.5*3E
$GPRMC,165356.000,A,2233.2177,N,11413.7924,E,0.0,303.6,040191,,,A*6A
$GPGGA,165356.000,2233.2177,N,11413.7924,E,1,07,1.8,17.0,M,14.2,M,,0000*6C
$GPVTG,303.6,T,,M,0.0,N,0.0,K,A*0B
$GPGLL,2233.2177,N,11413.7924,E,165356.00,A,A*66
$GPGSA,A,3,04,05,09,10,15,26,27,,,,,,2.6,1.8,1.9*3B
$GPGSV,3,1,10,10,18,054,25,05,45,017,20,02,46,101,11,04,11,118,20*7A
$GPGSV,3,2,10,27,15,170,37,26,84,078,21,15,64,218,37,09,06,183,37*76
$GPGSV,3,3,10,29,40,297,16,08,14,067,*70
$GPRMC,165357.000,A,2233.2177,N,11413.7924,E,0.0,303.6,040191,,,A*6B
$GPGGA,165357.000,2233.2177,N,11413.7924,E,1,07,1.8,17.0,M,14.2,M,,0000*6D
$GPVTG,303.6,T,,M,0.0,N,0.0,K,A*0B
$GPGLL,2233.2177,N,11413.7924,E,165357.00,A,A*67
$GPGSA,A,3,04,05,09,10,15,26,27,,,,,,2.6,1.8,1.9*3B
$GPRMC,165358.000,A,2233.2177,N,11413.7924,E,0.0,303.6,040191,,,A*64
$GPGGA,165358.000,2233.2177,N,11413.7924,E,1,07,1.8,17.0,M,14.2,M,,0000*62
$GPVTG,303.6,T,,M,0.0,N,0.0,K,A*0B
$GPGLL,2233.2177,N,11413.7924,E,165358.00,A,A*68
$GPGSA,A,3,04,05,09,10,15,26,27,,,,,,2.6,1.8,1.9*3B
$GPRMC,165359.000,A,2233.2177,N,11413.7924,E,0.0,303.6,040191,,,A*65
$GPGGA,165359.000,2233.2177,N,11413.7924,E,1,07,1.8,17.0,M,14.2,M,,0000*63
$GPVTG,303.6,T,,M,0.0,N,0.0,K,A*0B
$GPGLL,2233.2177,N,11413.7924,E,165359.00,A,A*69
$GPGSA,A,3,04,05,09,10,15,26,27,,,,,,2.6,1.8,1.9*3B
$GPRMC,165400.000,A,2233.2177,N,11413.7924,E,0.0,303.6,040191,,,A*6E
$GPGGA,165400.000,2233.2177,N,11413.7924,E,1,07,1.8,17.0,M,14.2,M,,0000*68
$GPVTG,303.6,T,,M,0.0,N,0.0,K,A*0B
$GPGLL,2233.2177,N,11413.7924,E,165400.00,A,A*62
$GPGSA,A,3,04,05,09,10,15,26,27,,,,,,2.6,1.8,1.9*3B
$GPRMC,165401.000,A,2233.2177,N,11413.7924,E,0.0,303.6,040191,,,A*6F
$GPGGA,165401.000,2233.2177,N,11413.7924,E,1,07,1.8,17.0,M,14.2,M,,0000*69
$GPVTG,303.6,T,,M,0.0,N,0.0,K,A*0B
$GPGLL,2233.2177,N,11413.7924,E,165401.00,A,A*63
$GPGSA,A,3,04,05,09,10,15,26,27,,,,,,2.6,1.8,1.9*3B
$GPGSV,3,1,10,10,18,054,24,05,45,017,20,04,11,118,22,27,15,170,37*7A
$GPGSV,3,2,10,26,84,078,21,15,64,218,37,09,06,183,38,29,40,297,19*71
$GPGSV,3,3,10,02,46,101,,08,14,067,*74
$GPRMC,165402.000,A,2233.2177,N,11413.7924,E,0.0,303.6,040191,,,A*6C
$GPGGA,165402.000,2233.2177,N,11413.7924,E,1,07,1.8,17.0,M,14.2,M,,0000*6A
$GPVTG,303.6,T,,M,0.0,N,0.0,K,A*0B
$GPGLL,2233.2177,N,11413.7924,E,165402.00,A,A*60
$GPGSA,A,3,04,05,09,10,15,26,27,,,,,,2.6,1.8,1.9*3B
$GPRMC,165403.000,A,2233.2177,N,11413.7924,E,0.0,303.6,040191,,,A*6D
$GPGGA,165403.000,2233.2177,N,11413.7924,E,1,08,1.4,17.0,M,14.2,M,,0000*68
$GPVTG,303.6,T,,M,0.0,N,0.0,K,A*0B
$GPGLL,2233.2177,N,11413.7924,E,165403.00,A,A*61
$GPGSA,A,3,02,04,05,09,10,15,26,27,,,,,2.1,1.4,1.5*3E
$GPRMC,165404.000,A,2233.2177,N,11413.7924,E,0.0,303.6,040191,,,A*6A
$GPGGA,165404.000,2233.2177,N,11413.7924,E,1,07,1.8,17.0,M,14.2,M,,0000*6C
$GPVTG,303.6,T,,M,0.0,N,0.0,K,A*0B
$GPGLL,2233.2177,N,11413.7924,E,165404.00,A,A*66
$GPGSA,A,3,04,05,09,10,15,26,27,,,,,,2.6,1.8,1.9*3B
$GPRMC,165405.000,A,2233.2177,N,11413.7924,E,0.0,303.6,040191,,,A*6B
$GPGGA,165405.000,2233.2177,N,11413.7924,E,1,08,1.4,17.0,M,14.2,M,,0000*6E
$GPVTG,303.6,T,,M,0.0,N,0.0,K,A*0B
$GPGLL,2233.2177,N,11413.7924,E,165405.00,A,A*67
$GPGSA,A,3,02,04,05,09,10,15,26,27,,,,,2.1,1.4,1.5*3E
$GPRMC,165406.000,A,2233.2177,N,11413.7924,E,0.0,303.6,040191,,,A*68
$GPGGA,165406.000,2233.2177,N,11413.7924,E,1,08,1.4,17.0,M,14.2,M,,0000*6D
$GPVTG,303.6,T,,M,0.0,N,0.0,K,A*0B
$GPGLL,2233.2177,N,11413.7924,E,165406.00,A,A*64
$GPGSA,A,3,02,04,05,09,10,15,26,27,,,,,2.1,1.4,1.5*3E
$GPGSV,3,1,10,10,18,054,21,05,45,017,18,02,46,101,15,04,11,118,22*73
$GPGSV,3,2,10,27,15,170,37,26,84,078,23,15,64,218,35,09,06,183,37*76
$GPGSV,3,3,10,29,40,297,21,08,14,067,*74
$GPRMC,165407.000,A,2233.2177,N,11413.7924,E,0.0,303.6,040191,,,A*69
$GPGGA,165407.000,2233.2177,N,11413.7924,E,1,07,1.8,17.0,M,14.2,M,,0000*6F
$GPVTG,303.6,T,,M,0.0,N,0.0,K,A*0B
$GPGLL,2233.2177,N,11413.7924,E,165407.00,A,A*65
$GPGSA,A,3,04,05,09,10,15,26,27,,,,,,2.6,1.8,1.9*3B
$GPRMC,165408.000,A,2233.2177,N,11413.7924,E,0.0,303.6,040191,,,A*66
$GPGGA,165408.000,2233.2177,N,11413.7924,E,1,07,1.8,17.0,M,14.2,M,,0000*60
$GPVTG,303.6,T,,M,0.0,N,0.0,K,A*0B
$GPGLL,2233.2177,N,11413.7924,E,165408.00,A,A*6A
$GPGSA,A,3,04,05,09,10,15,26,27,,,,,,2.6,1.8,1.9*3B
$GPRMC,165409.000,A,2233.2177,N,11413.7924,E,0.0,303.6,040191,,,A*67
$GPGGA,165409.000,2233.2177,N,11413.7924,E,1,08,1.4,17.0,M,14.2,M,,0000*62
$GPVTG,303.6,T,,M,0.0,N,0.0,K,A*0B
$GPGLL,2233.2177,N,11413.7924,E,165409.00,A,A*6B
$GPGSA,A,3,02,04,05,09,10,15,26,27,,,,,2.1,1.4,1.5*3E
$GPRMC,165410.000,A,2233.2177,N,11413.7924,E,0.0,303.6,040191,,,A*6F
$GPGGA,165410.000,2233.2177,N,11413.7924,E,1,08,1.4,17.0,M,14.2,M,,0000*6A
$GPVTG,303.6,T,,M,0.0,N,0.0,K,A*0B
$GPGLL,2233.2177,N,11413.7924,E,165410.00,A,A*63
$GPGSA,A,3,02,04,05,09,10,15,26,27,,,,,2.1,1.4,1.5*3E
$GPRMC,165411.000,A,2233.2177,N,11413.7924,E,0.0,303.6,040191,,,A*6E
$GPGGA,165411.000,2233.2177,N,11413.7924,E,1,08,1.4,17.0,M,14.2,M,,0000*6B
$GPVTG,303.6,T,,M,0.0,N,0.0,K,A*0B
$GPGLL,2233.2177,N,11413.7924,E,165411.00,A,A*62
$GPGSA,A,3,02,04,05,09,10,15,26,27,,,,,2.1,1.4,1.5*3E
$GPGSV,3,1,10,10,18,054,20,05,45,017,16,02,46,101,17,04,11,119,22*7F
$GPGSV,3,2,10,27,15,170,37,26,84,077,21,15,64,218,35,09,06,183,36*7A
$GPGSV,3,3,10,29,40,297,20,08,14,067,*75
$GPRMC,165412.000,A,2233.2177,N,11413.7924,E,0.0,303.6,040191,,,A*6D
$GPGGA,165412.000,2233.2177,N,11413.7924,E,1,08,1.4,17.0,M,14.2,M,,0000*68
$GPVTG,303.6,T,,M,0.0,N,0.0,K,A*0B
$GPGLL,2233.2177,N,11413.7924,E,165412.00,A,A*61
$GPGSA,A,3,02,04,05,09,10,15,26,27,,,,,2.1,1.4,1.5*3E
$GPRMC,165413.000,A,2233.2177,N,11413.7924,E,0.0,303.6,040191,,,A*6C
$GPGGA,165413.000,2233.2177,N,11413.7924,E,1,08,1.4,17.0,M,14.2,M,,0000*69
$GPVTG,303.6,T,,M,0.0,N,0.0,K,A*0B
$GPGLL,2233.2177,N,11413.7924,E,165413.00,A,A*60
$GPGSA,A,3,02,04,05,09,10,15,26,27,,,,,2.1,1.4,1.5*3E
$GPRMC,165414.000,A,2233.2177,N,11413.7924,E,0.0,303.6,040191,,,A*6B
$GPGGA,165414.000,2233.2177,N,11413.7924,E,1,08,1.4,17.0,M,14.2,M,,0000*6E
$GPVTG,303.6,T,,M,0.0,N,0.0,K,A*0B
$GPGLL,2233.2177,N,11413.7924,E,165414.00,A,A*67
$GPGSA,A,3,02,04,05,09,10,15,26,27,,,,,2.1,1.4,1.5*3E
$GPRMC,165415.000,A,2233.2177,N,11413.7924,E,0.0,303.6,040191,,,A*6A
$GPGGA,165415.000,2233.2177,N,11413.7924,E,1,08,1.4,17.0,M,14.2,M,,0000*6F
$GPVTG,303.6,T,,M,0.0,N,0.0,K,A*0B
$GPGLL,2233.2177,N,11413.7924,E,165415.00,A,A*66
$GPGSA,A,3,02,04,05,09,10,15,26,27,,,,,2.1,1.4,1.5*3E
$GPRMC,165416.000,A,2233.2177,N,11413.7924,E,0.0,303.6,040191,,,A*69
$GPGGA,165416.000,2233.2177,N,11413.7924,E,1,08,1.4,17.0,M,14.2,M,,0000*6C
$GPVTG,303.6,T,,M,0.0,N,0.0,K,A*0B
$GPGLL,2233.2177,N,11413.7924,E,165416.00,A,A*65
$GPGSA,A,3,02,04,05,09,10,15,26,27,,,,,2.1,1.4,1.5*3E
$GPGSV,3,1,10,10,18,054,23,05,45,018,15,02,46,102,22,04,11,119,23*74
$GPGSV,3,2,10,27,15,170,37,26,84,077,23,15,64,218,34,09,06,183,37*78
$GPGSV,3,3,10,29,40,297,20,08,14,067,*75
$GPRMC,165417.000,A,2233.2177,N,11413.7924,E,0.0,303.6,040191,,,A*68
$GPGGA,165417.000,2233.2177,N,11413.7924,E,1,08,1.4,17.0,M,14.2,M,,0000*6D
$GPVTG,303.6,T,,M,0.0,N,0.0,K,A*0B
$GPGLL,2233.2177,N,11413.7924,E,165417.00,A,A*64
$GPGSA,A,3,02,04,05,09,10,15,26,27,,,,,2.1,1.4,1.5*3E
$GPRMC,165418.000,A,2233.2177,N,11413.7924,E,0.0,303.6,040191,,,A*67
$GPGGA,165418.000,2233.2177,N,11413.7924,E,1,08,1.4,17.0,M,14.2,M,,0000*62
$GPVTG,303.6,T,,M,0.0,N,0.0,K,A*0B
$GPGLL,2233.2177,N,11413.7924,E,165418.00,A,A*6B
$GPGSA,A,3,02,04,05,09,10,15,26,27,,,,,2.1,1.4,1.5*3E
$GPRMC,165419.000,A,2233.2177,N,11413.7924,E,0.0,303.6,040191,,,A*66
$GPGGA,165419.000,2233.2177,N,11413.7924,E,1,08,1.4,17.0,M,14.2,M,,0000*63
$GPVTG,303.6,T,,M,0.0,N,0.0,K,A*0B
$GPGLL,2233.2177,N,11413.7924,E,165419.00,A,A*6A
$GPGSA,A,3,02,04,05,09,10,15,26,27,,,,,2.1,1.4,1.5*3E
$GPRMC,165420.000,A,2233.2177,N,11413.7924,E,0.0,303.6,040191,,,A*6C
$GPGGA,165420.000,2233.2177,N,11413.7924,E,1,08,1.4,17.0,M,14.2,M,,0000*69
$GPVTG,303.6,T,,M,0.0,N,0.0,K,A*0B
$GPGLL,2233.2177,N,11413.7924,E,165420.00,A,A*60
$GPGSA,A,3,02,04,05,09,10,15,26,27,,,,,2.1,1.4,1.5*3E
$GPRMC,165421.000,A,2233.2177,N,11413.7924,E,0.0,303.6,040191,,,A*6D
$GPGGA,165421.000,2233.2177,N,11413.7924,E,1,08,1.4,17.0,M,14.2,M,,0000*68
$GPVTG,303.6,T,,M,0.0,N,0.0,K,A*0B
$GPGLL,2233.2177,N,11413.7924,E,165421.00,A,A*61
$GPGSA,A,3,02,04,05,09,10,15,26,27,,,,,2.1,1.4,1.5*3E
$GPGSV,3,1,11,10,18,054,24,05,45,018,14,02,46,102,20,04,11,119,23*71
$GPGSV,3,2,11,27,15,170,36,26,84,076,22,15,64,218,33,09,06,183,36*7E
$GPGSV,3,3,11,29,40,297,20,08,14,067,,18,04,266,*4B
$GPRMC,165422.000,A,2233.2177,N,11413.7924,E,0.0,303.6,040191,,,A*6E
$GPGGA,165422.000,2233.2177,N,11413.7924,E,1,08,1.4,17.0,M,14.2,M,,0000*6B
$GPVTG,303.6,T,,M,0.0,N,0.0,K,A*0B
$GPGLL,2233.2177,N,11413.7924,E,165422.00,A,A*62
$GPGSA,A,3,02,04,05,09,10,15,26,27,,,,,2.1,1.4,1.5*3E
$GPRMC,165423.000,A,2233.2177,N,11413.7924,E,0.0,303.6,040191,,,A*6F
$GPGGA,165423.000,2233.2177,N,11413.7924,E,1,08,1.4,17.0,M,14.2,M,,0000*6A
$GPVTG,303.6,T,,M,0.0,N,0.0,K,A*0B
$GPGLL,2233.2177,N,11413.7924,E,165423.00,A,A*63
$GPGSA,A,3,02,04,05,09,10,15,26,27,,,,,2.1,1.4,1.5*3E
$GPRMC,165424.000,A,2233.2177,N,11413.7924,E,0.0,303.6,040191,,,A*68
$GPGGA,165424.000,2233.2177,N,11413.7924,E,1,08,1.4,17.0,M,14.2,M,,0000*6D
$GPVTG,303.6,T,,M,0.0,N,0.0,K,A*0B
$GPGLL,2233.2177,N,11413.7924,E,165424.00,A,A*64
$GPGSA,A,3,02,04,05,09,10,15,26,27,,,,,2.1,1.4,1.5*3E
$GPRMC,165425.000,A,2233.2177,N,11413.7924,E,0.0,303.6,040191,,,A*69
$GPGGA,165425.000,2233.2177,N,11413.7924,E,1,08,1.4,17.0,M,14.2,M,,0000*6C
$GPVTG,303.6,T,,M,0.0,N,0.0,K,A*0B
$GPGLL,2233.2177,N,11413.7924,E,165425.00,A,A*65
$GPGSA,A,3,02,04,05,09,10,15,26,27,,,,,2.1,1.4,1.5*3E
$GPRMC,165426.000,A,2233.2177,N,11413.7924,E,0.0,303.6,040191,,,A*6A
$GPGGA,165426.000,2233.2177,N,11413.7924,E,1,08,1.4,17.0,M,14.2,M,,0000*6F
$GPVTG,303.6,T,,M,0.0,N,0.0,K,A*0B
$GPGLL,2233.2177,N,11413.7924,E,165426.00,A,A*66
$GPGSA,A,3,02,04,05,09,10,15,26,27,,,,,2.1,1.4,1.5*3E
$GPGSV,3,1,11,10,18,054,25,05,45,018,11,02,46,102,19,04,11,119,23*7F
$GPGSV,3,2,11,27,15,170,37,26,84,076,22,15,64,218,34,09,06,183,37*79
$GPGSV,3,3,11,29,40,297,20,08,14,067,,18,04,266,*4B
$GPRMC,165427.000,A,2233.2177,N,11413.7924,E,0.0,303.6,040191,,,A*6B
$GPGGA,165427.000,2233.2177,N,11413.7924,E,1,08,1.4,17.0,M,14.2,M,,0000*6E
$GPVTG,303.6,T,,M,0.0,N,0.0,K,A*0B
$GPGLL,2233.2177,N,11413.7924,E,165427.00,A,A*67
$GPGSA,A,3,02,04,05,09,10,15,26,27,,,,,2.1,1.4,1.5*3E
$GPRMC,165428.000,A,2233.2177,N,11413.7924,E,0.0,303.6,040191,,,A*64
$GPGGA,165428.000,2233.2177,N,11413.7924,E,1,08,1.4,17.0,M,14.2,M,,0000*61
$GPVTG,303.6,T,,M,0.0,N,0.0,K,A*0B
$GPGLL,2233.2177,N,11413.7924,E,165428.00,A,A*68
$GPGSA,A,3,02,04,05,09,10,15,26,27,,,,,2.1,1.4,1.5*3E
$GPRMC,165429.000,A,2233.2177,N,11413.7924,E,0.0,303.6,040191,,,A*65
$GPGGA,165429.000,2233.2177,N,11413.7924,E,1,08,1.4,17.0,M,14.2,M,,0000*60
$GPVTG,303.6,T,,M,0.0,N,0.0,K,A*0B
$GPGLL,2233.2177,N,11413.7924,E,165429.00,A,A*69
$GPGSA,A,3,02,04,05,09,10,15,26,27,,,,,2.1,1.4,1.5*3E
$GPRMC,165430.000,A,2233.2177,N,11413.7924,E,0.0,303.6,040191,,,A*6D
$GPGGA,165430.000,2233.2177,N,11413.7924,E,1,08,1.4,17.0,M,14.2,M,,0000*68
$GPVTG,303.6,T,,M,0.0,N,0.0,K,A*0B
$GPGLL,2233.2177,N,11413.7924,E,165430.00,A,A*61
$GPGSA,A,3,02,04,05,09,10,15,26,27,,,,,2.1,1.4,1.5*3E
$GPRMC,165431.000,A,2233.2177,N,11413.7924,E,0.0,303.6,040191,,,A*6C
$GPGGA,165431.000,2233.2177,N,11413.7924,E,1,08,1.4,17.0,M,14.2,M,,0000*69
$GPVTG,303.6,T,,M,0.0,N,0.0,K,A*0B
$GPGLL,2233.2177,N,11413.7924,E,165431.00,A,A*60
$GPGSA,A,3,02,04,05,09,10,15,26,27,,,,,2.1,1.4,1.5*3E
$GPGSV,3,1,11,10,18,054,22,02,46,102,17,04,11,119,23,27,15,170,38*77
$GPGSV,3,2,11,26,84,075,21,15,64,218,35,09,06,183,38,29,40,297,20*75
$GPGSV,3,3,11,05,45,018,,08,14,067,,18,04,266,*47
$GPRMC,165432.000,A,2233.2177,N,11413.7924,E,0.0,303.6,040191,,,A*6F
$GPGGA,165432.000,2233.2177,N,11413.7924,E,1,07,1.8,17.0,M,14.2,M,,0000*69
$GPVTG,303.6,T,,M,0.0,N,0.0,K,A*0B
$GPGLL,2233.2177,N,11413.7924,E,165432.00,A,A*63
$GPGSA,A,3,02,04,09,10,15,26,27,,,,,,2.4,1.8,1.6*31
$GPRMC,165433.000,A,2233.2177,N,11413.7924,E,0.0,303.6,040191,,,A*6E
$GPGGA,165433.000,2233.2177,N,11413.7924,E,1,08,1.4,17.0,M,14.2,M,,0000*6B
$GPVTG,303.6,T,,M,0.0,N,0.0,K,A*0B
$GPGLL,2233.2177,N,11413.7924,E,165433.00,A,A*62
$GPGSA,A,3,02,04,05,09,10,15,26,27,,,,,2.1,1.4,1.5*3E
$GPRMC,165434.000,A,2233.2177,N,11413.7924,E,0.0,303.6,040191,,,A*69
$GPGGA,165434.000,2233.2177,N,11413.7924,E,1,08,1.4,17.0,M,14.2,M,,0000*6C
$GPVTG,303.6,T,,M,0.0,N,0.0,K,A*0B
$GPGLL,2233.2177,N,11413.7924,E,165434.00,A,A*65
$GPGSA,A,3,02,04,05,09,10,15,26,27,,,,,2.1,1.4,1.5*3E
$GPRMC,165435.000,A,2233.2177,N,11413.7924,E,0.0,303.6,040191,,,A*68
$GPGGA,165435.000,2233.2177,N,11413.7924,E,1,07,1.8,17.0,M,14.2,M,,0000*6E
$GPVTG,303.6,T,,M,0.0,N,0.0,K,A*0B
$GPGLL,2233.2177,N,11413.7924,E,165435.00,A,A*64
$GPGSA,A,3,02,04,09,10,15,26,27,,,,,,2.4,1.8,1.6*31
$GPRMC,165436.000,A,2233.2177,N,11413.7924,E,0.0,303.6,040191,,,A*6B
$GPGGA,165436.000,2233.2177,N,11413.7924,E,1,07,1.8,17.0,M,14.2,M,,0000*6D
$GPVTG,303.6,T,,M,0.0,N,0.0,K,A*0B
$GPGLL,2233.2177,N,11413.7924,E,165436.00,A,A*67
$GPGSA,A,3,02,04,09,10,15,26,27,,,,,,2.4,1.8,1.6*31
$GPGSV,3,1,11,10,18,054,21,05,45,018,12,02,46,102,17,04,11,119,21*74
$GPGSV,3,2,11,27,15,170,37,26,84,075,22,15,64,218,36,09,06,183,38*77
$GPGSV,3,3,11,29,40,297,,08,14,067,,18,04,266,*49
$GPRMC,165437.000,A,2233.2177,N,11413.7924,E,0.0,303.6,040191,,,A*6A
$GPGGA,165437.000,2233.2177,N,11413.7924,E,1,07,1.8,17.0,M,14.2,M,,0000*6C
$GPVTG,303.6,T,,M,0.0,N,0.0,K,A*0B
$GPGLL,2233.2177,N,11413.7924,E,165437.00,A,A*66
$GPGSA,A,3,02,04,09,10,15,26,27,,,,,,2.4,1.8,1.6*31
$GPRMC,165438.000,A,2233.2177,N,11413.7924,E,0.0,303.6,040191,,,A*65
$GPGGA,165438.000,2233.2177,N,11413.7924,E,1,08,1.4,17.0,M,14.2,M,,0000*60
$GPVTG,303.6,T,,M,0.0,N,0.0,K,A*0B
$GPGLL,2233.2177,N,11413.7924,E,165438.00,A,A*69
$GPGSA,A,3,02,04,05,09,10,15,26,27,,,,,2.1,1.4,1.5*3E
$GPRMC,165439.000,A,2233.2177,N,11413.7924,E,0.0,303.6,040191,,,A*64
$GPGGA,165439.000,2233.2177,N,11413.7924,E,1,08,1.4,17.0,M,14.2,M,,0000*61
$GPVTG,303.6,T,,M,0.0,N,0.0,K,A*0B
$GPGLL,2233.2177,N,11413.7924,E,165439.00,A,A*68
$GPGSA,A,3,02,04,05,09,10,15,26,27,,,,,2.1,1.4,1.5*3E
$GPRMC,165440.000,A,2233.2177,N,11413.7924,E,0.0,303.6,040191,,,A*6A
$GPGGA,165440.000,2233.2177,N,11413.7924,E,1,08,1.4,17.0,M,14.2,M,,0000*6F
$GPVTG,303.6,T,,M,0.0,N,0.0,K,A*0B
$GPGLL,2233.2177,N,11413.7924,E,165440.00,A,A*66
$GPGSA,A,3,02,04,05,09,10,15,26,27,,,,,2.1,1.4,1.5*3E
$GPRMC,165441.000,A,2233.2177,N,11413.7924,E,0.0,303.6,040191,,,A*6B
$GPGGA,165441.000,2233.2177,N,11413.7924,E,1,08,1.4,17.0,M,14.2,M,,0000*6E
$GPVTG,303.6,T,,M,0.0,N,0.0,K,A*0B
$GPGLL,2233.2177,N,11413.7924,E,165441.00,A,A*67
$GPGSA,A,3,02,04,05,09,10,15,26,27,,,,,2.1,1.4,1.5*3E
$GPGSV,3,1,11,10,18,054,24,05,45,018,15,02,46,102,14,04,11,119,22*76
$GPGSV,3,2,11,27,15,170,37,26,84,074,22,15,64,218,36,09,06,183,39*77
$GPGSV,3,3,11,29,40,297,,08,14,067,,18,04,266,*49
$GPRMC,165442.000,A,2233.2177,N,11413.7924,E,0.0,303.6,040191,,,A*68
$GPGGA,165442.000,2233.2177,N,11413.7924,E,1,08,1.4,17.0,M,14.2,M,,0000*6D
$GPVTG,303.6,T,,M,0.0,N,0.0,K,A*0B
$GPGLL,2233.2177,N,11413.7924,E,165442.00,A,A*64
$GPGSA,A,3,02,04,05,09,10,15,26,27,,,,,2.1,1.4,1.5*3E
$GPRMC,165443.000,A,2233.2177,N,11413.7924,E,0.0,303.6,040191,,,A*69
$GPGGA,165443.000,2233.2177,N,11413.7924,E,1,08,1.4,17.0,M,14.2,M,,0000*6C
$GPVTG,303.6,T,,M,0.0,N,0.0,K,A*0B
$GPGLL,2233.2177,N,11413.7924,E,165443.00,A,A*65
$GPGSA,A,3,02,04,05,09,10,15,26,27,,,,,2.1,1.4,1.5*3E
$GPRMC,165444.000,A,2233.2177,N,11413.7924,E,0.0,303.6,040191,,,A*6E
$GPGGA,165444.000,2233.2177,N,11413.7924,E,1,08,1.4,17.0,M,14.2,M,,0000*6B
$GPVTG,303.6,T,,M,0.0,N,0.0,K,A*0B
$GPGLL,2233.2177,N,11413.7924,E,165444.00,A,A*62
$GPGSA,A,3,02,04,05,09,10,15,26,27,,,,,2.1,1.4,1.5*3E
$GPRMC,165445.000,A,2233.2177,N,11413.7924,E,0.0,303.6,040191,,,A*6F
$GPGGA,165445.000,2233.2177,N,11413.7924,E,1,08,1.4,17.0,M,14.2,M,,0000*6A
$GPVTG,303.6,T,,M,0.0,N,0.0,K,A*0B
$GPGLL,2233.2177,N,11413.7924,E,165445.00,A,A*63
$GPGSA,A,3,02,04,05,09,10,15,26,27,,,,,2.1,1.4,1.5*3E
$GPRMC,165446.000,A,2233.2177,N,11413.7924,E,0.0,303.6,040191,,,A*6C
$GPGGA,165446.000,2233.2177,N,11413.7924,E,1,08,1.4,17.0,M,14.2,M,,0000*69
$GPVTG,303.6,T,,M,0.0,N,0.0,K,A*0B
$GPGLL,2233.2177,N,11413.7924,E,165446.00,A,A*60
$GPGSA,A,3,02,04,05,09,10,15,26,27,,,,,2.1,1.4,1.5*3E
$GPGSV,3,1,11,10,18,054,25,05,45,018,15,02,46,102,16,04,11,119,20*77
$GPGSV,3,2,11,27,15,170,36,26,84,074,19,15,64,218,34,09,06,183,37*72
$GPGSV,3,3,11,29,40,297,,08,14,067,,18,04,266,*49
$GPRMC,165447.000,A,2233.2177,N,11413.7924,E,0.0,303.6,040191,,,A*6D
$GPGGA,165447.000,2233.2177,N,11413.7924,E,1,08,1.4,17.0,M,14.2,M,,0000*68
$GPVTG,303.6,T,,M,0.0,N,0.0,K,A*0B
$GPGLL,2233.2177,N,11413.7924,E,165447.00,A,A*61
$GPGSA,A,3,02,04,05,09,10,15,26,27,,,,,2.1,1.4,1.5*3E
$GPRMC,165448.000,A,2233.2177,N,11413.7924,E,0.0,303.6,040191,,,A*62
$GPGGA,165448.000,2233.2177,N,11413.7924,E,1,08,1.4,17.0,M,14.2,M,,0000*67
$GPVTG,303.6,T,,M,0.0,N,0.0,K,A*0B
$GPGLL,2233.2177,N,11413.7924,E,165448.00,A,A*6E
$GPGSA,A,3,02,04,05,09,10,15,26,27,,,,,2.1,1.4,1.5*3E
$GPRMC,165449.000,A,2233.2177,N,11413.7924,E,0.0,303.6,040191,,,A*63
$GPGGA,165449.000,2233.2177,N,11413.7924,E,1,08,1.4,17.0,M,14.2,M,,0000*66
$GPVTG,303.6,T,,M,0.0,N,0.0,K,A*0B
$GPGLL,2233.2177,N,11413.7924,E,165449.00,A,A*6F
$GPGSA,A,3,02,04,05,09,10,15,26,27,,,,,2.1,1.4,1.5*3E
$GPRMC,165450.000,A,2233.2177,N,11413.7924,E,0.0,303.6,040191,,,A*6B
$GPGGA,165450.000,2233.2177,N,11413.7924,E,1,08,1.4,17.0,M,14.2,M,,0000*6E
$GPVTG,303.6,T,,M,0.0,N,0.0,K,A*0B
$GPGLL,2233.2177,N,11413.7924,E,165450.00,A,A*67
$GPGSA,A,3,02,04,05,09,10,15,26,27,,,,,2.1,1.4,1.5*3E
$GPRMC,165451.000,A,2233.2177,N,11413.7924,E,0.0,303.6,040191,,,A*6A
$GPGGA,165451.000,2233.2177,N,11413.7924,E,1,08,1.4,17.0,M,14.2,M,,0000*6F
$GPVTG,303.6,T,,M,0.0,N,0.0,K,A*0B
$GPGLL,2233.2177,N,11413.7924,E,165451.00,A,A*66
$GPGSA,A,3,02,04,05,09,10,15,26,27,,,,,2.1,1.4,1.5*3E
$GPGSV,3,1,11,10,18,054,25,05,45,018,14,02,46,102,20,04,11,119,21*72
$GPGSV,3,2,11,27,15,170,37,26,84,074,20,15,64,218,35,09,06,183,36*79
$GPGSV,3,3,11,29,40,297,,08,14,067,,18,04,266,*49
$GPRMC,165452.000,A,2233.2177,N,11413.7924,E,0.0,303.6,040191,,,A*69
$GPGGA,165452.000,2233.2177,N,11413.7924,E,1,08,1.4,17.0,M,14.2,M,,0000*6C
$GPVTG,303.6,T,,M,0.0,N,0.0,K,A*0B
$GPGLL,2233.2177,N,11413.7924,E,165452.00,A,A*65
$GPGSA,A,3,02,04,05,09,10,15,26,27,,,,,2.1,1.4,1.5*3E
$GPRMC,165453.000,A,2233.2177,N,11413.7924,E,0.0,303.6,040191,,,A*68
$GPGGA,165453.000,2233.2177,N,11413.7924,E,1,08,1.4,17.0,M,14.2,M,,0000*6D
$GPVTG,303.6,T,,M,0.0,N,0.0,K,A*0B
$GPGLL,2233.2177,N,11413.7924,E,165453.00,A,A*64
$GPGSA,A,3,02,04,05,09,10,15,26,27,,,,,2.1,1.4,1.5*3E
$GPRMC,165454.000,A,2233.2177,N,11413.7924,E,0.0,303.6,040191,,,A*6F
$GPGGA,165454.000,2233.2177,N,11413.7924,E,1,08,1.4,17.0,M,14.2,M,,0000*6A
$GPVTG,303.6,T,,M,0.0,N,0.0,K,A*0B
$GPGLL,2233.2177,N,11413.7924,E,165454.00,A,A*63
$GPGSA,A,3,02,04,05,09,10,15,26,27,,,,,2.1,1.4,1.5*3E
$GPRMC,165455.000,A,2233.2177,N,11413.7924,E,0.0,303.6,040191,,,A*6E
$GPGGA,165455.000,2233.2177,N,11413.7924,E,1,08,1.4,17.0,M,14.2,M,,0000*6B
$GPVTG,303.6,T,,M,0.0,N,0.0,K,A*0B
$GPGLL,2233.2177,N,11413.7924,E,165455.00,A,A*62
$GPGSA,A,3,02,04,05,09,10,15,26,27,,,,,2.1,1.4,1.5*3E
$GPRMC,165456.000,A,2233.2177,N,11413.7924,E,0.0,303.6,040191,,,A*6D
$GPGGA,165456.000,2233.2177,N,11413.7924,E,1,08,1.4,17.0,M,14.2,M,,0000*68
$GPVTG,303.6,T,,M,0.0,N,0.0,K,A*0B
$GPGLL,2233.2177,N,11413.7924,E,165456.00,A,A*61
$GPGSA,A,3,02,04,05,09,10,15,26,27,,,,,2.1,1.4,1.5*3E
$GPGSV,3,1,11,10,18,054,23,05,45,018,13,02,46,102,18,04,11,119,20*79
$GPGSV,3,2,11,27,15,170,36,26,84,073,20,15,64,218,34,09,06,182,35*7C
$GPGSV,3,3,11,29,40,297,,08,14,067,,18,04,266,*49
$GPRMC,165457.000,A,2233.2177,N,11413.7924,E,0.0,303.6,040191,,,A*6C
$GPGGA,165457.000,2233.2177,N,11413.7924,E,1,08,1.4,17.0,M,14.2,M,,0000*69
$GPVTG,303.6,T,,M,0.0,N,0.0,K,A*0B
$GPGLL,2233.2177,N,11413.7924,E,165457.00,A,A*60
$GPGSA,A,3,02,04,05,09,10,15,26,27,,,,,2.1,1.4,1.5*3E
$GPRMC,165458.000,A,2233.2177,N,11413.7924,E,0.0,303.6,040191,,,A*63
$GPGGA,165458.000,2233.2177,N,11413.7924,E,1,08,1.4,17.0,M,14.2,M,,0000*66
$GPVTG,303.6,T,,M,0.0,N,0.0,K,A*0B
$GPGLL,2233.2177,N,11413.7924,E,165458.00,A,A*6F
$GPGSA,A,3,02,04,05,09,10,15,26,27,,,,,2.1,1.4,1.5*3E
$GPRMC,165459.000,A,2233.2177,N,11413.7924,E,0.0,303.6,040191,,,A*62
$GPGGA,165459.000,2233.2177,N,11413.7924,E,1,08,1.4,17.0,M,14.2,M,,0000*67
$GPVTG,303.6,T,,M,0.0,N,0.0,K,A*0B
$GPGLL,2233.2177,N,11413.7924,E,165459.00,A,A*6E
$GPGSA,A,3,02,04,05,09,10,15,26,27,,,,,2.1,1.4,1.5*3E
$GPRMC,165500.000,A,2233.2177,N,11413.7924,E,0.0,303.6,040191,,,A*6F
$GPGGA,165500.000,2233.2177,N,11413.7924,E,1,08,1.4,17.0,M,14.2,M,,0000*6A
$GPVTG,303.6,T,,M,0.0,N,0.0,K,A*0B
$GPGLL,2233.2177,N,11413.7924,E,165500.00,A,A*63
$GPGSA,A,3,02,04,05,09,10,15,26,27,,,,,2.1,1.4,1.5*3E
$GPRMC,165501.000,A,2233.2177,N,11413.7924,E,0.0,303.6,040191,,,A*6E
$GPGGA,165501.000,2233.2177,N,11413.7924,E,1,07,1.8,17.0,M,14.2,M,,0000*68
$GPVTG,303.6,T,,M,0.0,N,0.0,K,A*0B
$GPGLL,2233.2177,N,11413.7924,E,165501.00,A,A*62
$GPGSA,A,3,02,04,09,10,15,26,27,,,,,,2.4,1.8,1.6*31
$GPGSV,3,1,11,10,18,054,23,05,45,018,11,02,46,102,18,04,11,119,21*7A
$GPGSV,3,2,11,27,15,170,38,26,84,073,23,15,64,218,36,09,06,182,36*70
$GPGSV,3,3,11,29,40,297,,08,14,067,,18,04,266,*49
$GPRMC,165502.000,A,2233.2177,N,11413.7924,E,0.0,303.6,040191,,,A*6D
$GPGGA,165502.000,2233.2177,N,11413.7924,E,1,07,1.8,17.0,M,14.2,M,,0000*6B
$GPVTG,303.6,T,,M,0.0,N,0.0,K,A*0B
$GPGLL,2233.2177,N,11413.7924,E,165502.00,A,A*61
$GPGSA,A,3,02,04,09,10,15,26,27,,,,,,2.4,1.8,1.6*31
$GPRMC,165503.000,A,2233.2177,N,11413.7924,E,0.0,303.6,040191,,,A*6C
$GPGGA,165503.000,2233.2177,N,11413.7924,E,1,07,1.8,17.0,M,14.2,M,,0000*6A
$GPVTG,303.6,T,,M,0.0,N,0.0,K,A*0B
$GPGLL,2233.2177,N,11413.7924,E,165503.00,A,A*60
$GPGSA,A,3,02,04,09,10,15,26,27,,,,,,2.4,1.8,1.6*31
$GPRMC,165504.000,A,2233.2177,N,11413.7924,E,0.0,303.6,040191,,,A*6B
$GPGGA,165504.000,2233.2177,N,11413.7924,E,1,07,1.8,17.0,M,14.2,M,,0000*6D
$GPVTG,303.6,T,,M,0.0,N,0.0,K,A*0B
$GPGLL,2233.2177,N,11413.7924,E,165504.00,A,A*67
$GPGSA,A,3,02,04,09,10,15,26,27,,,,,,2.4,1.8,1.6*31
$GPRMC,165505.000,A,2233.2177,N,11413.7924,E,0.0,303.6,040191,,,A*6A
$GPGGA,165505.000,2233.2177,N,11413.7924,E,1,07,1.8,17.0,M,14.2,M,,0000*6C
$GPVTG,303.6,T,,M,0.0,N,0.0,K,A*0B
$GPGLL,2233.2177,N,11413.7924,E,165505.00,A,A*66
$GPGSA,A,3,02,04,09,10,15,26,27,,,,,,2.4,1.8,1.6*31
$GPRMC,165506.000,A,2233.2177,N,11413.7924,E,0.0,303.6,040191,,,A*69
$GPGGA,165506.000,2233.2177,N,11413.7924,E,1,07,1.8,17.0,M,14.2,M,,0000*6F
$GPVTG,303.6,T,,M,0.0,N,0.0,K,A*0B
$GPGLL,2233.2177,N,11413.7924,E,165506.00,A,A*65
$GPGSA,A,3,02,04,09,10,15,26,27,,,,,,2.4,1.8,1.6*31
$GPGSV,3,1,11,10,18,054,21,02,46,102,17,04,11,119,19,27,15,170,37*72
$GPGSV,3,2,11,26,84,072,22,15,65,218,35,09,06,182,36,05,45,018,*73
$GPGSV,3,3,11,29,40,297,,08,14,067,,18,04,266,*49
$GPRMC,165507.000,A,2233.2177,N,11413.7924,E,0.0,303.6,040191,,,A*68
$GPGGA,165507.000,2233.2177,N,11413.7924,E,1,07,1.8,17.0,M,14.2,M,,0000*6E
$GPVTG,303.6,T,,M,0.0,N,0.0,K,A*0B
$GPGLL,2233.2177,N,11413.7924,E,165507.00,A,A*64
$GPGSA,A,3,02,04,09,10,15,26,27,,,,,,2.4,1.8,1.6*31
$GPRMC,165508.000,A,2233.2177,N,11413.7924,E,0.0,303.6,040191,,,A*67
$GPGGA,165508.000,2233.2177,N,11413.7924,E,1,07,1.8,17.0,M,14.2,M,,0000*61
$GPVTG,303.6,T,,M,0.0,N,0.0,K,A*0B
$GPGLL,2233.2177,N,11413.7924,E,165508.00,A,A*6B
$GPGSA,A,3,02,04,09,10,15,26,27,,,,,,2.4,1.8,1.6*31
$GPRMC,165509.000,A,2233.2177,N,11413.7924,E,0.0,303.6,040191,,,A*66
$GPGGA,165509.000,2233.2177,N,11413.7924,E,1,07,1.8,17.0,M,14.2,M,,0000*60
$GPVTG,303.6,T,,M,0.0,N,0.0,K,A*0B
$GPGLL,2233.2177,N,11413.7924,E,165509.00,A,A*6A
$GPGSA,A,3,02,04,09,10,15,26,27,,,,,,2.4,1.8,1.6*31
$GPRMC,165510.000,A,2233.2177,N,11413.7924,E,0.0,303.6,040191,,,A*6E
$GPGGA,165510.000,2233.2177,N,11413.7924,E,1,07,1.8,17.0,M,14.2,M,,0000*68
$GPVTG,303.6,T,,M,0.0,N,0.0,K,A*0B
$GPGLL,2233.2177,N,11413.7924,E,165510.00,A,A*62
$GPGSA,A,3,02,04,09,10,15,26,27,,,,,,2.4,1.8,1.6*31
$GPRMC,165511.000,A,2233.2177,N,11413.7924,E,0.0,303.6,040191,,,A*6F
$GPGGA,165511.000,2233.2177,N,11413.7924,E,1,07,1.8,17.0,M,14.2,M,,0000*69
$GPVTG,303.6,T,,M,0.0,N,0.0,K,A*0B
$GPGLL,2233.2177,N,11413.7924,E,165511.00,A,A*63
$GPGSA,A,3,02,04,09,10,15,26,27,,,,,,2.4,1.8,1.6*31
$GPGSV,3,1,11,10,18,054,24,02,45,102,19,04,11,119,20,27,15,170,38*7F
$GPGSV,3,2,11,26,84,072,22,15,65,218,36,09,06,182,37,05,45,018,*71
$GPGSV,3,3,11,29,40,297,,08,14,067,,18,04,266,*49
$GPRMC,165512.000,A,2233.2177,N,11413.7924,E,0.0,303.6,040191,,,A*6C
$GPGGA,165512.000,2233.2177,N,11413.7924,E,1,07,1.8,17.0,M,14.2,M,,0000*6A
$GPVTG,303.6,T,,M,0.0,N,0.0,K,A*0B
$GPGLL,2233.2177,N,11413.7924,E,165512.00,A,A*60
$GPGSA,A,3,02,04,09,10,15,26,27,,,,,,2.4,1.8,1.6*31
$GPRMC,165513.000,A,2233.2177,N,11413.7924,E,0.0,303.6,040191,,,A*6D
$GPGGA,165513.000,2233.2177,N,11413.7924,E,1,07,1.8,17.0,M,14.2,M,,0000*6B
$GPVTG,303.6,T,,M,0.0,N,0.0,K,A*0B
$GPGLL,2233.2177,N,11413.7924,E,165513.00,A,A*61
$GPGSA,A,3,02,04,09,10,15,26,27,,,,,,2.4,1.8,1.6*31
$GPRMC,165514.000,A,2233.2177,N,11413.7924,E,0.0,303.6,040191,,,A*6A
$GPGGA,165514.000,2233.2177,N,11413.7924,E,1,07,1.8,17.0,M,14.2,M,,0000*6C
$GPVTG,303.6,T,,M,0.0,N,0.0,K,A*0B
$GPGLL,2233.2177,N,11413.7924,E,165514.00,A,A*66
$GPGSA,A,3,02,04,09,10,15,26,27,,,,,,2.4,1.8,1.6*31
$GPRMC,165515.000,A,2233.2177,N,11413.7924,E,0.0,303.6,040191,,,A*6B
$GPGGA,165515.000,2233.2177,N,11413.7924,E,1,07,1.8,17.0,M,14.2,M,,0000*6D
$GPVTG,303.6,T,,M,0.0,N,0.0,K,A*0B
$GPGLL,2233.2177,N,11413.7924,E,165515.00,A,A*67
$GPGSA,A,3,02,04,09,10,15,26,27,,,,,,2.4,1.8,1.6*31
$GPRMC,165516.000,A,2233.2177,N,11413.7924,E,0.0,303.6,040191,,,A*68
$GPGGA,165516.000,2233.2177,N,11413.7924,E,1,07,1.8,17.0,M,14.2,M,,0000*6E
$GPVTG,303.6,T,,M,0.0,N,0.0,K,A*0B
$GPGLL,2233.2177,N,11413.7924,E,165516.00,A,A*64
$GPGSA,A,3,02,04,09,10,15,26,27,,,,,,2.4,1.8,1.6*31
$GPGSV,3,1,11,10,18,054,26,05,45,018,11,02,45,102,14,04,11,119,21*70
$GPGSV,3,2,11,27,15,170,37,26,84,071,18,15,65,218,36,09,06,182,36*74
$GPGSV,3,3,11,29,40,296,,08,14,067,,18,04,266,*48
$GPRMC,165517.000,A,2233.2177,N,11413.7924,E,0.0,303.6,040191,,,A*69
$GPGGA,165517.000,2233.2177,N,11413.7924,E,1,08,1.4,17.0,M,14.2,M,,0000*6C
$GPVTG,303.6,T,,M,0.0,N,0.0,K,A*0B
$GPGLL,2233.2177,N,11413.7924,E,165517.00,A,A*65
$GPGSA,A,3,02,04,05,09,10,15,26,27,,,,,2.1,1.4,1.5*3E
$GPRMC,165518.000,A,2233.2177,N,11413.7924,E,0.0,303.6,040191,,,A*66
$GPGGA,165518.000,2233.2177,N,11413.7924,E,1,07,1.8,17.0,M,14.2,M,,0000*60
$GPVTG,303.6,T,,M,0.0,N,0.0,K,A*0B
$GPGLL,2233.2177,N,11413.7924,E,165518.00,A,A*6A
$GPGSA,A,3,02,04,09,10,15,26,27,,,,,,2.4,1.8,1.6*31
$GPRMC,165519.000,A,2233.2177,N,11413.7924,E,0.0,303.6,040191,,,A*67
$GPGGA,165519.000,2233.2177,N,11413.7924,E,1,08,1.4,17.0,M,14.2,M,,0000*62
$GPVTG,303.6,T,,M,0.0,N,0.0,K,A*0B
$GPGLL,2233.2177,N,11413.7924,E,165519.00,A,A*6B
$GPGSA,A,3,02,04,05,09,10,15,26,27,,,,,2.1,1.4,1.5*3E
$GPRMC,165520.000,A,2233.2177,N,11413.7924,E,0.0,303.6,040191,,,A*6D
$GPGGA,165520.000,2233.2177,N,11413.7924,E,1,08,1.4,17.0,M,14.2,M,,0000*68
$GPVTG,303.6,T,,M,0.0,N,0.0,K,A*0B
$GPGLL,2233.2177,N,11413.7924,E,165520.00,A,A*61
$GPGSA,A,3,02,04,05,09,10,15,26,27,,,,,2.1,1.4,1.5*3E
$GPRMC,165521.000,A,2233.2177,N,11413.7924,E,0.0,303.6,040191,,,A*6C
$GPGGA,165521.000,2233.2177,N,11413.7924,E,1,07,1.8,17.0,M,14.2,M,,0000*6A
$GPVTG,303.6,T,,M,0.0,N,0.0,K,A*0B
$GPGLL,2233.2177,N,11413.7924,E,165521.00,A,A*60
$GPGSA,A,3,02,04,09,10,15,26,27,,,,,,2.4,1.8,1.6*31
$GPGSV,3,1,11,10,18,054,25,05,45,018,13,02,45,102,16,04,11,119,20*72
$GPGSV,3,2,11,27,15,170,36,26,84,071,22,15,65,219,34,09,06,182,35*7C
$GPGSV,3,3,11,29,40,296,,08,14,067,,18,04,266,*48
$GPRMC,165522.000,A,2233.2177,N,11413.7924,E,0.0,303.6,040191,,,A*6F
$GPGGA,165522.000,2233.2177,N,11413.7924,E,1,07,1.8,17.0,M,14.2,M,,0000*69
$GPVTG,303.6,T,,M,0.0,N,0.0,K,A*0B
$GPGLL,2233.2177,N,11413.7924,E,165522.00,A,A*63
$GPGSA,A,3,02,04,09,10,15,26,27,,,,,,2.4,1.8,1.6*31
$GPRMC,165523.000,A,2233.2177,N,11413.7924,E,0.0,303.6,040191,,,A*6E
$GPGGA,165523.000,2233.2177,N,11413.7924,E,1,07,1.8,17.0,M,14.2,M,,0000*68
$GPVTG,303.6,T,,M,0.0,N,0.0,K,A*0B
$GPGLL,2233.2177,N,11413.7924,E,165523.00,A,A*62
$GPGSA,A,3,02,04,09,10,15,26,27,,,,,,2.4,1.8,1.6*31
$GPRMC,165524.000,A,2233.2177,N,11413.7924,E,0.0,303.6,040191,,,A*69
$GPGGA,165524.000,2233.2177,N,11413.7924,E,1,08,1.4,17.0,M,14.2,M,,0000*6C
$GPVTG,303.6,T,,M,0.0,N,0.0,K,A*0B
$GPGLL,2233.2177,N,11413.7924,E,165524.00,A,A*65
$GPGSA,A,3,02,04,05,09,10,15,26,27,,,,,2.1,1.4,1.5*3E
$GPRMC,165525.000,A,2233.2177,N,11413.7924,E,0.0,303.6,040191,,,A*68
$GPGGA,165525.000,2233.2177,N,11413.7924,E,1,08,1.4,17.0,M,14.2,M,,0000*6D
$GPVTG,303.6,T,,M,0.0,N,0.0,K,A*0B
$GPGLL,2233.2177,N,11413.7924,E,165525.00,A,A*64
$GPGSA,A,3,02,04,05,09,10,15,26,27,,,,,2.1,1.4,1.5*3E
$GPRMC,165526.000,A,2233.2177,N,11413.7924,E,0.0,303.6,040191,,,A*6B
$GPGGA,165526.000,2233.2177,N,11413.7924,E,1,08,1.4,17.0,M,14.2,M,,0000*6E
$GPVTG,303.6,T,,M,0.0,N,0.0,K,A*0B
$GPGLL,2233.2177,N,11413.7924,E,165526.00,A,A*67
$GPGSA,A,3,02,04,05,09,10,15,26,27,,,,,2.1,1.4,1.5*3E
$GPGSV,3,1,11,10,18,054,24,05,45,018,15,02,45,102,24,04,11,119,22*76
$GPGSV,3,2,11,27,16,170,37,26,84,071,21,15,65,219,34,09,06,182,36*7E
$GPGSV,3,3,11,29,40,296,,08,14,067,,18,04,266,*48
$GPRMC,165527.000,A,2233.2177,N,11413.7924,E,0.0,303.6,040191,,,A*6A
$GPGGA,165527.000,2233.2177,N,11413.7924,E,1,08,1.4,17.0,M,14.2,M,,0000*6F
$GPVTG,303.6,T,,M,0.0,N,0.0,K,A*0B
$GPGLL,2233.2177,N,11413.7924,E,165527.00,A,A*66
$GPGSA,A,3,02,04,05,09,10,15,26,27,,,,,2.1,1.4,1.5*3E
$GPRMC,165528.000,A,2233.2177,N,11413.7924,E,0.0,303.6,040191,,,A*65
$GPGGA,165528.000,2233.2177,N,11413.7924,E,1,08,1.4,17.0,M,14.2,M,,0000*60
$GPVTG,303.6,T,,M,0.0,N,0.0,K,A*0B
$GPGLL,2233.2177,N,11413.7924,E,165528.00,A,A*69
$GPGSA,A,3,02,04,05,09,10,15,26,27,,,,,2.1,1.4,1.5*3E
$GPRMC,165529.000,A,2233.2177,N,11413.7924,E,0.0,303.6,040191,,,A*64
$GPGGA,165529.000,2233.2177,N,11413.7924,E,1,08,1.4,17.0,M,14.2,M,,0000*61
$GPVTG,303.6,T,,M,0.0,N,0.0,K,A*0B
$GPGLL,2233.2177,N,11413.7924,E,165529.00,A,A*68
$GPGSA,A,3,02,04,05,09,10,15,26,27,,,,,2.1,1.4,1.5*3E
$GPRMC,165530.000,A,2233.2177,N,11413.7924,E,0.0,303.6,040191,,,A*6C
$GPGGA,165530.000,2233.2177,N,11413.7924,E,1,08,1.4,17.0,M,14.2,M,,0000*69
$GPVTG,303.6,T,,M,0.0,N,0.0,K,A*0B
$GPGLL,2233.2177,N,11413.7924,E,165530.00,A,A*60
$GPGSA,A,3,02,04,05,09,10,15,26,27,,,,,2.1,1.4,1.5*3E
$GPRMC,165531.000,A,2233.2177,N,11413.7924,E,0.0,303.6,040191,,,A*6D
$GPGGA,165531.000,2233.2177,N,11413.7924,E,1,08,1.4,17.0,M,14.2,M,,0000*68
$GPVTG,303.6,T,,M,0.0,N,0.0,K,A*0B
$GPGLL,2233.2177,N,11413.7924,E,165531.00,A,A*61
$GPGSA,A,3,02,04,05,09,10,15,26,27,,,,,2.1,1.4,1.5*3E
$GPGSV,3,1,11,10,18,055,22,05,45,018,14,02,45,102,20,04,11,119,22*74
$GPGSV,3,2,11,27,16,170,36,26,84,070,22,15,65,219,33,09,06,182,35*79
$GPGSV,3,3,11,29,40,296,18,08,14,067,,18,04,266,*41
$GPRMC,165532.000,A,2233.2177,N,11413.7924,E,0.0,303.6,040191,,,A*6E
$GPGGA,165532.000,2233.2177,N,11413.7924,E,1,08,1.4,17.0,M,14.2,M,,0000*6B
$GPVTG,303.6,T,,M,0.0,N,0.0,K,A*0B
$GPGLL,2233.2177,N,11413.7924,E,165532.00,A,A*62
$GPGSA,A,3,02,04,05,09,10,15,26,27,,,,,2.1,1.4,1.5*3E
$GPRMC,165533.000,A,2233.2177,N,11413.7924,E,0.0,303.6,040191,,,A*6F
$GPGGA,165533.000,2233.2177,N,11413.7924,E,1,08,1.4,17.0,M,14.2,M,,0000*6A
$GPVTG,303.6,T,,M,0.0,N,0.0,K,A*0B
$GPGLL,2233.2177,N,11413.7924,E,165533.00,A,A*63
$GPGSA,A,3,02,04,05,09,10,15,26,27,,,,,2.1,1.4,1.5*3E
$GPRMC,165534.000,A,2233.2177,N,11413.7924,E,0.0,303.6,040191,,,A*68
$GPGGA,165534.000,2233.2177,N,11413.7924,E,1,08,1.4,17.0,M,14.2,M,,0000*6D
$GPVTG,303.6,T,,M,0.0,N,0.0,K,A*0B
$GPGLL,2233.2177,N,11413.7924,E,165534.00,A,A*64
$GPGSA,A,3,02,04,05,09,10,15,26,27,,,,,2.1,1.4,1.5*3E
$GPRMC,165535.000,A,2233.2177,N,11413.7924,E,0.0,303.6,040191,,,A*69
$GPGGA,165535.000,2233.2177,N,11413.7924,E,1,08,1.4,17.0,M,14.2,M,,0000*6C
$GPVTG,303.6,T,,M,0.0,N,0.0,K,A*0B
$GPGLL,2233.2177,N,11413.7924,E,165535.00,A,A*65
$GPGSA,A,3,02,04,05,09,10,15,26,27,,,,,2.1,1.4,1.5*3E
$GPRMC,165536.000,A,2233.2177,N,11413.7924,E,0.0,303.6,040191,,,A*6A
$GPGGA,165536.000,2233.2177,N,11413.7924,E,1,08,1.4,17.0,M,14.2,M,,0000*6F
$GPVTG,303.6,T,,M,0.0,N,0.0,K,A*0B
$GPGLL,2233.2177,N,11413.7924,E,165536.00,A,A*66
$GPGSA,A,3,02,04,05,09,10,15,26,27,,,,,2.1,1.4,1.5*3E
$GPGSV,3,1,11,10,18,055,25,05,45,018,14,02,45,102,18,04,11,119,23*79
$GPGSV,3,2,11,27,16,170,37,26,84,070,23,15,65,219,33,09,06,182,36*7A
$GPGSV,3,3,11,29,40,296,19,08,14,067,,18,04,266,*40
$GPRMC,165537.000,A,2233.2177,N,11413.7924,E,0.0,303.6,040191,,,A*6B
$GPGGA,165537.000,2233.2177,N,11413.7924,E,1,08,1.4,17.0,M,14.2,M,,0000*6E
$GPVTG,303.6,T,,M,0.0,N,0.0,K,A*0B
$GPGLL,2233.2177,N,11413.7924,E,165537.00,A,A*67
$GPGSA,A,3,02,04,05,09,10,15,26,27,,,,,2.1,1.4,1.5*3E
$GPRMC,165538.000,A,2233.2177,N,11413.7924,E,0.0,303.6,040191,,,A*64
$GPGGA,165538.000,2233.2177,N,11413.7924,E,1,08,1.4,17.0,M,14.2,M,,0000*61
$GPVTG,303.6,T,,M,0.0,N,0.0,K,A*0B
$GPGLL,2233.2177,N,11413.7924,E,165538.00,A,A*68
$GPGSA,A,3,02,04,05,09,10,15,26,27,,,,,2.1,1.4,1.5*3E
$GPRMC,165539.000,A,2233.2177,N,11413.7924,E,0.0,303.6,040191,,,A*65
$GPGGA,165539.000,2233.2177,N,11413.7924,E,1,08,1.4,17.0,M,14.2,M,,0000*60
$GPVTG,303.6,T,,M,0.0,N,0.0,K,A*0B
$GPGLL,2233.2177,N,11413.7924,E,165539.00,A,A*69
$GPGSA,A,3,02,04,05,09,10,15,26,27,,,,,2.1,1.4,1.5*3E
$GPRMC,165540.000,A,2233.2177,N,11413.7924,E,0.0,303.6,040191,,,A*6B
$GPGGA,165540.000,2233.2177,N,11413.7924,E,1,08,1.4,17.0,M,14.2,M,,0000*6E
$GPVTG,303.6,T,,M,0.0,N,0.0,K,A*0B
$GPGLL,2233.2177,N,11413.7924,E,165540.00,A,A*67
$GPGSA,A,3,02,04,05,09,10,15,26,27,,,,,2.1,1.4,1.5*3E
$GPRMC,165541.000,A,2233.2177,N,11413.7924,E,0.0,303.6,040191,,,A*6A
$GPGGA,165541.000,2233.2177,N,11413.7924,E,1,08,1.4,17.0,M,14.2,M,,0000*6F
$GPVTG,303.6,T,,M,0.0,N,0.0,K,A*0B
$GPGLL,2233.2177,N,11413.7924,E,165541.00,A,A*66
$GPGSA,A,3,02,04,05,09,10,15,26,27,,,,,2.1,1.4,1.5*3E
$GPGSV,3,1,11,10,18,055,26,05,45,018,13,02,45,102,19,04,11,119,24*7B
$GPGSV,3,2,11,27,16,170,37,26,84,069,22,15,65,219,34,09,06,182,37*75
$GPGSV,3,3,11,29,40,296,23,08,14,067,,18,04,266,*49
$GPRMC,165542.000,A,2233.2177,N,11413.7924,E,0.0,303.6,040191,,,A*69
$GPGGA,165542.000,2233.2177,N,11413.7924,E,1,08,1.4,17.0,M,14.2,M,,0000*6C
$GPVTG,303.6,T,,M,0.0,N,0.0,K,A*0B
$GPGLL,2233.2177,N,11413.7924,E,165542.00,A,A*65
$GPGSA,A,3,02,04,05,09,10,15,26,27,,,,,2.1,1.4,1.5*3E
$GPRMC,165543.000,A,2233.2177,N,11413.7924,E,0.0,303.6,040191,,,A*68
$GPGGA,165543.000,2233.2177,N,11413.7924,E,1,07,1.8,17.0,M,14.2,M,,0000*6E
$GPVTG,303.6,T,,M,0.0,N,0.0,K,A*0B
$GPGLL,2233.2177,N,11413.7924,E,165543.00,A,A*64
$GPGSA,A,3,04,05,09,10,15,26,27,,,,,,2.6,1.8,1.9*3B
$GPRMC,165544.000,A,2233.2177,N,11413.7924,E,0.0,303.6,040191,,,A*6F
$GPGGA,165544.000,2233.2177,N,11413.7924,E,1,07,1.8,17.0,M,14.2,M,,0000*69
$GPVTG,303.6,T,,M,0.0,N,0.0,K,A*0B
$GPGLL,2233.2177,N,11413.7924,E,165544.00,A,A*63
$GPGSA,A,3,04,05,09,10,15,26,27,,,,,,2.6,1.8,1.9*3B
$GPRMC,165545.000,A,2233.2177,N,11413.7924,E,0.0,303.6,040191,,,A*6E
$GPGGA,165545.000,2233.2177,N,11413.7924,E,1,07,1.8,17.0,M,14.2,M,,0000*68
$GPVTG,303.6,T,,M,0.0,N,0.0,K,A*0B
$GPGLL,2233.2177,N,11413.7924,E,165545.00,A,A*62
$GPGSA,A,3,04,05,09,10,15,26,27,,,,,,2.6,1.8,1.9*3B
$GPRMC,165546.000,A,2233.2177,N,11413.7924,E,0.0,303.6,040191,,,A*6D
$GPGGA,165546.000,2233.2177,N,11413.7924,E,1,07,1.8,17.0,M,14.2,M,,0000*6B
$GPVTG,303.6,T,,M,0.0,N,0.0,K,A*0B
$GPGLL,2233.2177,N,11413.7924,E,165546.00,A,A*61
$GPGSA,A,3,04,05,09,10,15,26,27,,,,,,2.6,1.8,1.9*3B
$GPGSV,3,1,11,10,18,055,26,05,45,018,18,04,11,119,25,27,16,170,37*79
$GPGSV,3,2,11,26,84,069,24,15,65,219,35,09,06,182,37,29,40,296,20*72
$GPGSV,3,3,11,02,45,102,,08,14,067,,18,04,266,*4A
$GPRMC,165547.000,A,2233.2177,N,11413.7924,E,0.0,303.6,040191,,,A*6C
$GPGGA,165547.000,2233.2177,N,11413.7924,E,1,07,1.9,17.0,M,14.2,M,,0000*6B
$GPVTG,303.6,T,,M,0.0,N,0.0,K,A*0B
$GPGLL,2233.2177,N,11413.7924,E,165547.00,A,A*60
$GPGSA,A,3,04,05,09,10,15,26,27,,,,,,2.7,1.9,1.9*3B
$GPRMC,165548.000,A,2233.2177,N,11413.7924,E,0.0,303.6,040191,,,A*63
$GPGGA,165548.000,2233.2177,N,11413.7924,E,1,07,1.9,17.0,M,14.2,M,,0000*64
$GPVTG,303.6,T,,M,0.0,N,0.0,K,A*0B
$GPGLL,2233.2177,N,11413.7924,E,165548.00,A,A*6F
$GPGSA,A,3,04,05,09,10,15,26,27,,,,,,2.7,1.9,1.9*3B
$GPRMC,165549.000,A,2233.2177,N,11413.7924,E,0.0,303.6,040191,,,A*62
$GPGGA,165549.000,2233.2177,N,11413.7924,E,1,07,1.9,17.0,M,14.2,M,,0000*65
$GPVTG,303.6,T,,M,0.0,N,0.0,K,A*0B
$GPGLL,2233.2177,N,11413.7924,E,165549.00,A,A*6E
$GPGSA,A,3,04,05,09,10,15,26,27,,,,,,2.7,1.9,1.9*3B
$GPRMC,165550.000,A,2233.2177,N,11413.7924,E,0.0,303.6,040191,,,A*6A
$GPGGA,165550.000,2233.2177,N,11413.7924,E,1,08,1.4,17.0,M,14.2,M,,0000*6F
$GPVTG,303.6,T,,M,0.0,N,0.0,K,A*0B
$GPGLL,2233.2177,N,11413.7924,E,165550.00,A,A*66
$GPGSA,A,3,02,04,05,09,10,15,26,27,,,,,2.1,1.4,1.5*3E
$GPRMC,165551.000,A,2233.2177,N,11413.7924,E,0.0,303.6,040191,,,A*6B
$GPGGA,165551.000,2233.2177,N,11413.7924,E,1,08,1.4,17.0,M,14.2,M,,0000*6E
$GPVTG,303.6,T,,M,0.0,N,0.0,K,A*0B
$GPGLL,2233.2177,N,11413.7924,E,165551.00,A,A*67
$GPGSA,A,3,02,04,05,09,10,15,26,27,,,,,2.1,1.4,1.5*3E
$GPGSV,3,1,11,10,18,055,26,05,45,018,18,02,45,103,16,04,11,119,24*7E
$GPGSV,3,2,11,27,16,170,37,26,84,069,24,15,65,219,35,09,06,182,36*73
$GPGSV,3,3,11,29,40,296,18,08,14,067,,18,04,266,*41
$GPRMC,165552.000,A,2233.2177,N,11413.7924,E,0.0,303.6,040191,,,A*68
$GPGGA,165552.000,2233.2177,N,11413.7924,E,1,08,1.4,17.0,M,14.2,M,,0000*6D
$GPVTG,303.6,T,,M,0.0,N,0.0,K,A*0B
$GPGLL,2233.2177,N,11413.7924,E,165552.00,A,A*64
$GPGSA,A,3,02,04,05,09,10,15,26,27,,,,,2.1,1.4,1.5*3E
$GPRMC,165553.000,A,2233.2177,N,11413.7924,E,0.0,303.6,040191,,,A*69
$GPGGA,165553.000,2233.2177,N,11413.7924,E,1,08,1.4,17.0,M,14.2,M,,0000*6C
$GPVTG,303.6,T,,M,0.0,N,0.0,K,A*0B
$GPGLL,2233.2177,N,11413.7924,E,165553.00,A,A*65
$GPGSA,A,3,02,04,05,09,10,15,26,27,,,,,2.1,1.4,1.5*3E
$GPRMC,165554.000,A,2233.2177,N,11413.7924,E,0.0,303.6,040191,,,A*6E
$GPGGA,165554.000,2233.2177,N,11413.7924,E,1,08,1.4,17.0,M,14.2,M,,0000*6B
$GPVTG,303.6,T,,M,0.0,N,0.0,K,A*0B
$GPGLL,2233.2177,N,11413.7924,E,165554.00,A,A*62
$GPGSA,A,3,02,04,05,09,10,15,26,27,,,,,2.1,1.4,1.5*3E
$GPRMC,165555.000,A,2233.2177,N,11413.7924,E,0.0,303.6,040191,,,A*6F
$GPGGA,165555.000,2233.2177,N,11413.7924,E,1,08,1.4,17.0,M,14.2,M,,0000*6A
$GPVTG,303.6,T,,M,0.0,N,0.0,K,A*0B
$GPGLL,2233.2177,N,11413.7924,E,165555.00,A,A*63
$GPGSA,A,3,02,04,05,09,10,15,26,27,,,,,2.1,1.4,1.5*3E
$GPRMC,165556.000,A,2233.2177,N,11413.7924,E,0.0,303.6,040191,,,A*6C
$GPGGA,165556.000,2233.2177,N,11413.7924,E,1,08,1.4,17.0,M,14.2,M,,0000*69
$GPVTG,303.6,T,,M,0.0,N,0.0,K,A*0B
$GPGLL,2233.2177,N,11413.7924,E,165556.00,A,A*60
$GPGSA,A,3,02,04,05,09,10,15,26,27,,,,,2.1,1.4,1.5*3E
$GPGSV,3,1,11,10,18,055,26,05,45,018,18,02,45,103,22,04,11,119,25*78
$GPGSV,3,2,11,27,16,170,38,26,84,068,24,15,65,219,36,09,06,182,37*7F
$GPGSV,3,3,11,29,40,296,20,08,14,067,,18,04,266,*4A
$GPRMC,165557.000,A,2233.2177,N,11413.7924,E,0.0,303.6,040191,,,A*6D
$GPGGA,165557.000,2233.2177,N,11413.7924,E,1,08,1.4,17.0,M,14.2,M,,0000*68
$GPVTG,303.6,T,,M,0.0,N,0.0,K,A*0B
$GPGLL,2233.2177,N,11413.7924,E,165557.00,A,A*61
$GPGSA,A,3,02,04,05,09,10,15,26,27,,,,,2.1,1.4,1.5*3E
$GPRMC,165558.000,A,2233.2177,N,11413.7924,E,0.0,303.6,040191,,,A*62
$GPGGA,165558.000,2233.2177,N,11413.7924,E,1,08,1.4,17.0,M,14.2,M,,0000*67
$GPVTG,303.6,T,,M,0.0,N,0.0,K,A*0B
$GPGLL,2233.2177,N,11413.7924,E,165558.00,A,A*6E
$GPGSA,A,3,02,04,05,09,10,15,26,27,,,,,2.1,1.4,1.5*3E
$GPRMC,165559.000,A,2233.2177,N,11413.7924,E,0.0,303.6,040191,,,A*63
$GPGGA,165559.000,2233.2177,N,11413.7924,E,1,08,1.4,17.0,M,14.2,M,,0000*66
$GPVTG,303.6,T,,M,0.0,N,0.0,K,A*0B
$GPGLL,2233.2177,N,11413.7924,E,165559.00,A,A*6F
$GPGSA,A,3,02,04,05,09,10,15,26,27,,,,,2.1,1.4,1.5*3E
$GPRMC,165600.000,A,2233.2177,N,11413.7924,E,0.0,303.6,040191,,,A*6C
$GPGGA,165600.000,2233.2177,N,11413.7924,E,1,08,1.4,17.0,M,14.2,M,,0000*69
$GPVTG,303.6,T,,M,0.0,N,0.0,K,A*0B
$GPGLL,2233.2177,N,11413.7924,E,165600.00,A,A*60
$GPGSA,A,3,02,04,05,09,10,15,26,27,,,,,2.1,1.4,1.5*3E
$GPRMC,165601.000,A,2233.2177,N,11413.7924,E,0.0,303.6,040191,,,A*6D
$GPGGA,165601.000,2233.2177,N,11413.7924,E,1,08,1.4,17.0,M,14.2,M,,0000*68
$GPVTG,303.6,T,,M,0.0,N,0.0,K,A*0B
$GPGLL,2233.2177,N,11413.7924,E,165601.00,A,A*61
$GPGSA,A,3,02,04,05,09,10,15,26,27,,,,,2.1,1.4,1.5*3E
$GPGSV,3,1,11,10,18,055,26,05,45,019,17,02,45,103,19,04,10,119,25*7F
$GPGSV,3,2,11,27,16,170,38,26,84,068,23,15,65,219,37,09,06,182,37*79
$GPGSV,3,3,11,29,40,296,20,08,14,067,,18,04,266,*4A
$GPRMC,165602.000,A,2233.2177,N,11413.7924,E,0.0,303.6,040191,,,A*6E
$GPGGA,165602.000,2233.2177,N,11413.7924,E,1,08,1.4,17.0,M,14.2,M,,0000*6B
$GPVTG,303.6,T,,M,0.0,N,0.0,K,A*0B
$GPGLL,2233.2177,N,11413.7924,E,165602.00,A,A*62
$GPGSA,A,3,02,04,05,09,10,15,26,27,,,,,2.1,1.4,1.5*3E
$GPRMC,165603.000,A,2233.2177,N,11413.7924,E,0.0,303.6,040191,,,A*6F
$GPGGA,165603.000,2233.2177,N,11413.7924,E,1,08,1.4,17.0,M,14.2,M,,0000*6A
$GPVTG,303.6,T,,M,0.0,N,0.0,K,A*0B
$GPGLL,2233.2177,N,11413.7924,E,165603.00,A,A*63
$GPGSA,A,3,02,04,05,09,10,15,26,27,,,,,2.1,1.4,1.5*3E
$GPRMC,165604.000,A,2233.2177,N,11413.7924,E,0.0,303.6,040191,,,A*68
$GPGGA,165604.000,2233.2177,N,11413.7924,E,1,08,1.4,17.0,M,14.2,M,,0000*6D
$GPVTG,303.6,T,,M,0.0,N,0.0,K,A*0B
$GPGLL,2233.2177,N,11413.7924,E,165604.00,A,A*64
$GPGSA,A,3,02,04,05,09,10,15,26,27,,,,,2.1,1.4,1.5*3E
$GPRMC,165605.000,A,2233.2177,N,11413.7924,E,0.0,303.6,040191,,,A*69
$GPGGA,165605.000,2233.2177,N,11413.7924,E,1,08,1.4,17.0,M,14.2,M,,0000*6C
$GPVTG,303.6,T,,M,0.0,N,0.0,K,A*0B
$GPGLL,2233.2177,N,11413.7924,E,165605.00,A,A*65
$GPGSA,A,3,02,04,05,09,10,15,26,27,,,,,2.1,1.4,1.5*3E
$GPRMC,165606.000,A,2233.2177,N,11413.7924,E,0.0,303.6,040191,,,A*6A
$GPGGA,165606.000,2233.2177,N,11413.7924,E,1,08,1.4,17.0,M,14.2,M,,0000*6F
$GPVTG,303.6,T,,M,0.0,N,0.0,K,A*0B
$GPGLL,2233.2177,N,11413.7924,E,165606.00,A,A*66
$GPGSA,A,3,02,04,05,09,10,15,26,27,,,,,2.1,1.4,1.5*3E
$GPGSV,3,1,11,10,17,055,26,05,45,019,16,02,45,103,18,04,10,119,24*71
$GPGSV,3,2,11,27,16,170,38,26,84,067,23,15,65,219,37,09,06,182,36*77
$GPGSV,3,3,11,29,40,296,15,08,14,066,,18,04,266,*4D
$GPRMC,165607.000,A,2233.2177,N,11413.7924,E,0.0,303.6,040191,,,A*6B
$GPGGA,165607.000,2233.2177,N,11413.7924,E,1,08,1.4,17.0,M,14.2,M,,0000*6E
$GPVTG,303.6,T,,M,0.0,N,0.0,K,A*0B
$GPGLL,2233.2177,N,11413.7924,E,165607.00,A,A*67
$GPGSA,A,3,02,04,05,09,10,15,26,27,,,,,2.1,1.4,1.5*3E
$GPRMC,165608.000,A,2233.2177,N,11413.7924,E,0.0,303.6,040191,,,A*64
$GPGGA,165608.000,2233.2177,N,11413.7924,E,1,08,1.4,17.0,M,14.2,M,,0000*61
$GPVTG,303.6,T,,M,0.0,N,0.0,K,A*0B
$GPGLL,2233.2177,N,11413.7924,E,165608.00,A,A*68
$GPGSA,A,3,02,04,05,09,10,15,26,27,,,,,2.1,1.4,1.5*3E
$GPRMC,165609.000,A,2233.2177,N,11413.7924,E,0.0,303.6,040191,,,A*65
$GPGGA,165609.000,2233.2177,N,11413.7924,E,1,08,1.4,17.0,M,14.2,M,,0000*60
$GPVTG,303.6,T,,M,0.0,N,0.0,K,A*0B
$GPGLL,2233.2177,N,11413.7924,E,165609.00,A,A*69
$GPGSA,A,3,02,04,05,09,10,15,26,27,,,,,2.1,1.4,1.5*3E
$GPRMC,165610.000,A,2233.2177,N,11413.7924,E,0.0,303.6,040191,,,A*6D
$GPGGA,165610.000,2233.2177,N,11413.7924,E,1,08,1.4,17.0,M,14.2,M,,0000*68
$GPVTG,303.6,T,,M,0.0,N,0.0,K,A*0B
$GPGLL,2233.2177,N,11413.7924,E,165610.00,A,A*61
$GPGSA,A,3,02,04,05,09,10,15,26,27,,,,,2.1,1.4,1.5*3E
$GPRMC,165611.000,A,2233.2177,N,11413.7924,E,0.0,303.6,040191,,,A*6C
$GPGGA,165611.000,2233.2177,N,11413.7924,E,1,08,1.4,17.0,M,14.2,M,,0000*69
$GPVTG,303.6,T,,M,0.0,N,0.0,K,A*0B
$GPGLL,2233.2177,N,11413.7924,E,165611.00,A,A*60
$GPGSA,A,3,02,04,05,09,10,15,26,27,,,,,2.1,1.4,1.5*3E
$GPGSV,3,1,11,10,17,055,26,05,45,019,15,02,45,103,18,04,10,119,25*73
$GPGSV,3,2,11,27,16,170,37,26,84,067,23,15,65,219,35,09,06,182,36*7A
$GPGSV,3,3,11,29,40,296,16,08,14,066,,18,04,267,*4F
$GPRMC,165612.000,A,2233.2177,N,11413.7924,E,0.0,303.6,040191,,,A*6F
$GPGGA,165612.000,2233.2177,N,11413.7924,E,1,08,1.4,17.0,M,14.2,M,,0000*6A
$GPVTG,303.6,T,,M,0.0,N,0.0,K,A*0B
$GPGLL,2233.2177,N,11413.7924,E,165612.00,A,A*63
$GPGSA,A,3,02,04,05,09,10,15,26,27,,,,,2.1,1.4,1.5*3E
$GPRMC,165613.000,A,2233.2177,N,11413.7924,E,0.0,303.6,040191,,,A*6E
$GPGGA,165613.000,2233.2177,N,11413.7924,E,1,07,1.9,17.0,M,14.2,M,,0000*69
$GPVTG,303.6,T,,M,0.0,N,0.0,K,A*0B
$GPGLL,2233.2177,N,11413.7924,E,165613.00,A,A*62
$GPGSA,A,3,04,05,09,10,15,26,27,,,,,,2.7,1.9,1.9*3B
$GPRMC,165614.000,A,2233.2177,N,11413.7924,E,0.0,303.6,040191,,,A*69
$GPGGA,165614.000,2233.2177,N,11413.7924,E,1,07,1.9,17.0,M,14.2,M,,0000*6E
$GPVTG,303.6,T,,M,0.0,N,0.0,K,A*0B
$GPGLL,2233.2177,N,11413.7924,E,165614.00,A,A*65
$GPGSA,A,3,04,05,09,10,15,26,27,,,,,,2.7,1.9,1.9*3B
$GPRMC,165615.000,A,2233.2177,N,11413.7924,E,0.0,303.6,040191,,,A*68
$GPGGA,165615.000,2233.2177,N,11413.7924,E,1,07,1.9,17.0,M,14.2,M,,0000*6F
$GPVTG,303.6,T,,M,0.0,N,0.0,K,A*0B
$GPGLL,2233.2177,N,11413.7924,E,165615.00,A,A*64
$GPGSA,A,3,04,05,09,10,15,26,27,,,,,,2.7,1.9,1.9*3B
$GPRMC,165616.000,A,2233.2177,N,11413.7924,E,0.0,303.6,040191,,,A*6B
$GPGGA,165616.000,2233.2177,N,11413.7924,E,1,07,1.9,17.0,M,14.2,M,,0000*6C
$GPVTG,303.6,T,,M,0.0,N,0.0,K,A*0B
$GPGLL,2233.2177,N,11413.7924,E,165616.00,A,A*67
$GPGSA,A,3,04,05,09,10,15,26,27,,,,,,2.7,1.9,1.9*3B
$GPGSV,3,1,11,10,17,055,27,05,45,019,15,04,10,119,25,27,16,170,37*7A
$GPGSV,3,2,11,26,83,067,25,15,65,219,35,09,06,182,36,29,40,296,18*70
$GPGSV,3,3,11,02,45,103,,08,14,066,,18,04,267,*4B
$GPRMC,165617.000,A,2233.2177,N,11413.7924,E,0.0,303.6,040191,,,A*6A
$GPGGA,165617.000,2233.2177,N,11413.7924,E,1,07,1.9,17.0,M,14.2,M,,0000*6D
$GPVTG,303.6,T,,M,0.0,N,0.0,K,A*0B
$GPGLL,2233.2177,N,11413.7924,E,165617.00,A,A*66
$GPGSA,A,3,04,05,09,10,15,26,27,,,,,,2.7,1.9,1.9*3B
$GPRMC,165618.000,A,2233.2177,N,11413.7924,E,0.0,303.6,040191,,,A*65
$GPGGA,165618.000,2233.2177,N,11413.7924,E,1,07,1.9,17.0,M,14.2,M,,0000*62
$GPVTG,303.6,T,,M,0.0,N,0.0,K,A*0B
$GPGLL,2233.2177,N,11413.7924,E,165618.00,A,A*69
$GPGSA,A,3,04,05,09,10,15,26,27,,,,,,2.7,1.9,1.9*3B
$GPRMC,165619.000,A,2233.2177,N,11413.7924,E,0.0,303.6,040191,,,A*64
$GPGGA,165619.000,2233.2177,N,11413.7924,E,1,07,1.9,17.0,M,14.2,M,,0000*63
$GPVTG,303.6,T,,M,0.0,N,0.0,K,A*0B
$GPGLL,2233.2177,N,11413.7924,E,165619.00,A,A*68
$GPGSA,A,3,04,05,09,10,15,26,27,,,,,,2.7,1.9,1.9*3B
$GPRMC,165620.000,A,2233.2177,N,11413.7924,E,0.0,303.6,040191,,,A*6E
$GPGGA,165620.000,2233.2177,N,11413.7924,E,1,07,1.9,17.0,M,14.2,M,,0000*69
$GPVTG,303.6,T,,M,0.0,N,0.0,K,A*0B
$GPGLL,2233.2177,N,11413.7924,E,165620.00,A,A*62
$GPGSA,A,3,04,05,09,10,15,26,27,,,,,,2.8,1.9,2.0*3E
$GPRMC,165621.000,A,2233.2177,N,11413.7924,E,0.0,303.6,040191,,,A*6F
$GPGGA,165621.000,2233.2177,N,11413.7924,E,1,07,1.9,17.0,M,14.2,M,,0000*68
$GPVTG,303.6,T,,M,0.0,N,0.0,K,A*0B
$GPGLL,2233.2177,N,11413.7924,E,165621.00,A,A*63
$GPGSA,A,3,04,05,09,10,15,26,27,,,,,,2.8,1.9,2.0*3E
$GPGSV,3,1,11,10,17,055,27,05,45,019,14,04,10,119,25,27,16,170,37*7B
$GPGSV,3,2,11,26,83,066,21,15,65,219,36,09,06,182,36,29,40,296,17*79
$GPGSV,3,3,11,02,45,103,,08,14,066,,18,04,267,*4B
$GPRMC,165622.000,A,2233.2177,N,11413.7924,E,0.0,303.6,040191,,,A*6C
$GPGGA,165622.000,2233.2177,N,11413.7924,E,1,07,1.9,17.0,M,14.2,M,,0000*6B
$GPVTG,303.6,T,,M,0.0,N,0.0,K,A*0B
$GPGLL,2233.2177,N,11413.7924,E,165622.00,A,A*60
$GPGSA,A,3,04,05,09,10,15,26,27,,,,,,2.8,1.9,2.0*3E
$GPRMC,165623.000,A,2233.2177,N,11413.7924,E,0.0,303.6,040191,,,A*6D
$GPGGA,165623.000,2233.2177,N,11413.7924,E,1,07,1.9,17.0,M,14.2,M,,0000*6A
$GPVTG,303.6,T,,M,0.0,N,0.0,K,A*0B
$GPGLL,2233.2177,N,11413.7924,E,165623.00,A,A*61
$GPGSA,A,3,04,05,09,10,15,26,27,,,,,,2.8,1.9,2.0*3E
$GPRMC,165624.000,A,2233.2177,N,11413.7924,E,0.0,303.6,040191,,,A*6A
$GPGGA,165624.000,2233.2177,N,11413.7924,E,1,07,1.9,17.0,M,14.2,M,,0000*6D
$GPVTG,303.6,T,,M,0.0,N,0.0,K,A*0B
$GPGLL,2233.2177,N,11413.7924,E,165624.00,A,A*66
$GPGSA,A,3,04,05,09,10,15,26,27,,,,,,2.8,1.9,2.0*3E
$GPRMC,165625.000,A,2233.2177,N,11413.7924,E,0.0,303.6,040191,,,A*6B
$GPGGA,165625.000,2233.2177,N,11413.7924,E,1,07,1.9,17.0,M,14.2,M,,0000*6C
$GPVTG,303.6,T,,M,0.0,N,0.0,K,A*0B
$GPGLL,2233.2177,N,11413.7924,E,165625.00,A,A*67
$GPGSA,A,3,04,05,09,10,15,26,27,,,,,,2.8,1.9,2.0*3E
$GPRMC,165626.000,A,2233.2177,N,11413.7924,E,0.0,303.6,040191,,,A*68
$GPGGA,165626.000,2233.2177,N,11413.7924,E,1,07,1.9,17.0,M,14.2,M,,0000*6F
$GPVTG,303.6,T,,M,0.0,N,0.0,K,A*0B
$GPGLL,2233.2177,N,11413.7924,E,165626.00,A,A*64
$GPGSA,A,3,04,05,09,10,15,26,27,,,,,,2.8,1.9,2.0*3E
$GPGSV,3,1,11,10,17,055,26,05,44,019,14,04,10,119,26,27,16,170,37*78
$GPGSV,3,2,11,26,83,066,22,15,65,219,35,09,06,182,36,29,40,296,15*7B
$GPGSV,3,3,11,02,45,103,,08,14,066,,18,04,267,*4B
$GPRMC,165627.000,A,2233.2177,N,11413.7924,E,0.0,303.6,040191,,,A*69
$GPGGA,165627.000,2233.2177,N,11413.7924,E,1,07,1.9,17.0,M,14.2,M,,0000*6E
$GPVTG,303.6,T,,M,0.0,N,0.0,K,A*0B
$GPGLL,2233.2177,N,11413.7924,E,165627.00,A,A*65
$GPGSA,A,3,04,05,09,10,15,26,27,,,,,,2.8,1.9,2.0*3E
$GPRMC,165628.000,A,2233.2177,N,11413.7924,E,0.0,303.6,040191,,,A*66
$GPGGA,165628.000,2233.2177,N,11413.7924,E,1,07,1.9,17.0,M,14.2,M,,0000*61
$GPVTG,303.6,T,,M,0.0,N,0.0,K,A*0B
$GPGLL,2233.2177,N,11413.7924,E,165628.00,A,A*6A
$GPGSA,A,3,04,05,09,10,15,26,27,,,,,,2.8,1.9,2.0*3E
$GPRMC,165629.000,A,2233.2177,N,11413.7924,E,0.0,303.6,040191,,,A*67
$GPGGA,165629.000,2233.2177,N,11413.7924,E,1,07,1.9,17.0,M,14.2,M,,0000*60
$GPVTG,303.6,T,,M,0.0,N,0.0,K,A*0B
$GPGLL,2233.2177,N,11413.7924,E,165629.00,A,A*6B
$GPGSA,A,3,04,05,09,10,15,26,27,,,,,,2.8,1.9,2.0*3E
$GPRMC,165630.000,A,2233.2177,N,11413.7924,E,0.0,303.6,040191,,,A*6F
$GPGGA,165630.000,2233.2177,N,11413.7924,E,1,08,1.4,17.0,M,14.2,M,,0000*6A
$GPVTG,303.6,T,,M,0.0,N,0.0,K,A*0B
$GPGLL,2233.2177,N,11413.7924,E,165630.00,A,A*63
$GPGSA,A,3,02,04,05,09,10,15,26,27,,,,,2.1,1.4,1.5*3E
$GPRMC,165631.000,A,2233.2177,N,11413.7924,E,0.0,303.6,040191,,,A*6E
$GPGGA,165631.000,2233.2177,N,11413.7924,E,1,08,1.4,17.0,M,14.2,M,,0000*6B
$GPVTG,303.6,T,,M,0.0,N,0.0,K,A*0B
$GPGLL,2233.2177,N,11413.7924,E,165631.00,A,A*62
$GPGSA,A,3,02,04,05,09,10,15,26,27,,,,,2.1,1.4,1.5*3E
$GPGSV,3,1,11,10,17,055,25,05,44,019,14,02,45,103,12,04,10,119,25*7A
$GPGSV,3,2,11,27,16,170,36,26,83,066,21,15,65,219,33,09,06,182,36*79
$GPGSV,3,3,11,29,40,296,14,08,14,066,,18,04,267,*4D
$GPRMC,165632.000,A,2233.2177,N,11413.7924,E,0.0,303.6,040191,,,A*6D
$GPGGA,165632.000,2233.2177,N,11413.7924,E,1,08,1.4,17.0,M,14.2,M,,0000*68
$GPVTG,303.6,T,,M,0.0,N,0.0,K,A*0B
$GPGLL,2233.2177,N,11413.7924,E,165632.00,A,A*61
$GPGSA,A,3,02,04,05,09,10,15,26,27,,,,,2.1,1.4,1.5*3E
$GPRMC,165633.000,A,2233.2177,N,11413.7924,E,0.0,303.6,040191,,,A*6C
$GPGGA,165633.000,2233.2177,N,11413.7924,E,1,08,1.4,17.0,M,14.2,M,,0000*69
$GPVTG,303.6,T,,M,0.0,N,0.0,K,A*0B
$GPGLL,2233.2177,N,11413.7924,E,165633.00,A,A*60
$GPGSA,A,3,02,04,05,09,10,15,26,27,,,,,2.1,1.4,1.5*3E
$GPRMC,165634.000,A,2233.2177,N,11413.7924,E,0.0,303.6,040191,,,A*6B
$GPGGA,165634.000,2233.2177,N,11413.7924,E,1,08,1.4,17.0,M,14.2,M,,0000*6E
$GPVTG,303.6,T,,M,0.0,N,0.0,K,A*0B
$GPGLL,2233.2177,N,11413.7924,E,165634.00,A,A*67
$GPGSA,A,3,02,04,05,09,10,15,26,27,,,,,2.1,1.4,1.5*3E
$GPRMC,165635.000,A,2233.2177,N,11413.7924,E,0.0,303.6,040191,,,A*6A
$GPGGA,165635.000,2233.2177,N,11413.7924,E,1,08,1.4,17.0,M,14.2,M,,0000*6F
$GPVTG,303.6,T,,M,0.0,N,0.0,K,A*0B
$GPGLL,2233.2177,N,11413.7924,E,165635.00,A,A*66
$GPGSA,A,3,02,04,05,09,10,15,26,27,,,,,2.1,1.4,1.5*3E
$GPRMC,165636.000,A,2233.2177,N,11413.7924,E,0.0,303.6,040191,,,A*69
$GPGGA,165636.000,2233.2177,N,11413.7924,E,1,08,1.4,17.0,M,14.2,M,,0000*6C
$GPVTG,303.6,T,,M,0.0,N,0.0,K,A*0B
$GPGLL,2233.2177,N,11413.7924,E,165636.00,A,A*65
$GPGSA,A,3,02,04,05,09,10,15,26,27,,,,,2.1,1.4,1.5*3E
$GPGSV,3,1,11,10,17,055,26,05,44,019,13,02,45,103,13,04,10,119,26*7C
$GPGSV,3,2,11,27,16,170,37,26,83,065,21,15,65,219,35,09,06,182,37*7C
$GPGSV,3,3,11,29,40,296,14,08,14,066,,18,04,267,*4D
$GPRMC,165637.000,A,2233.2177,N,11413.7924,E,0.0,303.6,040191,,,A*68
$GPGGA,165637.000,2233.2177,N,11413.7924,E,1,08,1.4,17.0,M,14.2,M,,0000*6D
$GPVTG,303.6,T,,M,0.0,N,0.0,K,A*0B
$GPGLL,2233.2177,N,11413.7924,E,165637.00,A,A*64
$GPGSA,A,3,02,04,05,09,10,15,26,27,,,,,2.1,1.4,1.5*3E
$GPRMC,165638.000,A,2233.2177,N,11413.7924,E,0.0,303.6,040191,,,A*67
$GPGGA,165638.000,2233.2177,N,11413.7924,E,1,08,1.4,17.0,M,14.2,M,,0000*62
$GPVTG,303.6,T,,M,0.0,N,0.0,K,A*0B
$GPGLL,2233.2177,N,11413.7924,E,165638.00,A,A*6B
$GPGSA,A,3,02,04,05,09,10,15,26,27,,,,,2.1,1.4,1.5*3E
$GPRMC,165639.000,A,2233.2177,N,11413.7924,E,0.0,303.6,040191,,,A*66
$GPGGA,165639.000,2233.2177,N,11413.7924,E,1,08,1.4,17.0,M,14.2,M,,0000*63
$GPVTG,303.6,T,,M,0.0,N,0.0,K,A*0B
$GPGLL,2233.2177,N,11413.7924,E,165639.00,A,A*6A
$GPGSA,A,3,02,04,05,09,10,15,26,27,,,,,2.1,1.4,1.5*3E
$GPRMC,165640.000,A,2233.2177,N,11413.7924,E,0.0,303.6,040191,,,A*68
$GPGGA,165640.000,2233.2177,N,11413.7924,E,1,08,1.4,17.0,M,14.2,M,,0000*6D
$GPVTG,303.6,T,,M,0.0,N,0.0,K,A*0B
$GPGLL,2233.2177,N,11413.7924,E,165640.00,A,A*64
$GPGSA,A,3,02,04,05,09,10,15,26,27,,,,,2.1,1.4,1.5*3E
$GPRMC,165641.000,A,2233.2177,N,11413.7924,E,0.0,303.6,040191,,,A*69
$GPGGA,165641.000,2233.2177,N,11413.7924,E,1,08,1.4,17.0,M,14.2,M,,0000*6C
$GPVTG,303.6,T,,M,0.0,N,0.0,K,A*0B
$GPGLL,2233.2177,N,11413.7924,E,165641.00,A,A*65
$GPGSA,A,3,02,04,05,09,10,15,26,27,,,,,2.1,1.4,1.5*3E
$GPGSV,3,1,11,10,17,055,26,05,44,019,11,02,45,103,14,04,10,119,26*79
$GPGSV,3,2,11,27,16,170,37,26,83,065,20,15,65,219,34,09,06,182,36*7D
$GPGSV,3,3,11,29,40,296,14,08,14,066,,18,04,267,*4D
$GPRMC,165642.000,A,2233.2177,N,11413.7924,E,0.0,303.6,040191,,,A*6A
$GPGGA,165642.000,2233.2177,N,11413.7924,E,1,08,1.4,17.0,M,14.2,M,,0000*6F
$GPVTG,303.6,T,,M,0.0,N,0.0,K,A*0B
$GPGLL,2233.2177,N,11413.7924,E,165642.00,A,A*66
$GPGSA,A,3,02,04,05,09,10,15,26,27,,,,,2.1,1.4,1.5*3E
$GPRMC,165643.000,A,2233.2177,N,11413.7924,E,0.0,303.6,040191,,,A*6B
$GPGGA,165643.000,2233.2177,N,11413.7924,E,1,07,1.8,17.0,M,14.2,M,,0000*6D
$GPVTG,303.6,T,,M,0.0,N,0.0,K,A*0B
$GPGLL,2233.2177,N,11413.7924,E,165643.00,A,A*67
$GPGSA,A,3,02,04,09,10,15,26,27,,,,,,2.4,1.8,1.6*31
$GPRMC,165644.000,A,2233.2177,N,11413.7924,E,0.0,303.6,040191,,,A*6C
$GPGGA,165644.000,2233.2177,N,11413.7924,E,1,07,1.8,17.0,M,14.2,M,,0000*6A
$GPVTG,303.6,T,,M,0.0,N,0.0,K,A*0B
$GPGLL,2233.2177,N,11413.7924,E,165644.00,A,A*60
$GPGSA,A,3,02,04,09,10,15,26,27,,,,,,2.4,1.8,1.6*31
$GPRMC,165645.000,A,2233.2177,N,11413.7924,E,0.0,303.6,040191,,,A*6D
$GPGGA,165645.000,2233.2177,N,11413.7924,E,1,07,1.8,17.0,M,14.2,M,,0000*6B
$GPVTG,303.6,T,,M,0.0,N,0.0,K,A*0B
$GPGLL,2233.2177,N,11413.7924,E,165645.00,A,A*61
$GPGSA,A,3,02,04,09,10,15,26,27,,,,,,2.4,1.8,1.6*31
$GPRMC,165646.000,A,2233.2177,N,11413.7924,E,0.0,303.6,040191,,,A*6E
$GPGGA,165646.000,2233.2177,N,11413.7924,E,1,07,1.8,17.0,M,14.2,M,,0000*68
$GPVTG,303.6,T,,M,0.0,N,0.0,K,A*0B
$GPGLL,2233.2177,N,11413.7924,E,165646.00,A,A*62
$GPGSA,A,3,02,04,09,10,15,26,27,,,,,,2.4,1.8,1.6*31
$GPGSV,3,1,11,10,17,055,23,02,45,103,14,04,10,119,23,27,16,170,35*76
$GPGSV,3,2,11,26,83,065,22,15,65,219,33,09,06,182,35,29,40,296,14*7C
$GPGSV,3,3,11,05,44,019,,08,14,066,,18,04,267,*47
$GPRMC,165647.000,A,2233.2177,N,11413.7924,E,0.0,303.6,040191,,,A*6F
$GPGGA,165647.000,2233.2177,N,11413.7924,E,1,07,1.8,17.0,M,14.2,M,,0000*69
$GPVTG,303.6,T,,M,0.0,N,0.0,K,A*0B
$GPGLL,2233.2177,N,11413.7924,E,165647.00,A,A*63
$GPGSA,A,3,02,04,09,10,15,26,27,,,,,,2.4,1.8,1.6*31
$GPRMC,165648.000,A,2233.2177,N,11413.7924,E,0.0,303.6,040191,,,A*60
$GPGGA,165648.000,2233.2177,N,11413.7924,E,1,07,1.8,17.0,M,14.2,M,,0000*66
$GPVTG,303.6,T,,M,0.0,N,0.0,K,A*0B
$GPGLL,2233.2177,N,11413.7924,E,165648.00,A,A*6C
$GPGSA,A,3,02,04,09,10,15,26,27,,,,,,2.4,1.8,1.6*31
$GPRMC,165649.000,A,2233.2177,N,11413.7924,E,0.0,303.6,040191,,,A*61
$GPGGA,165649.000,2233.2177,N,11413.7924,E,1,07,1.8,17.0,M,14.2,M,,0000*67
$GPVTG,303.6,T,,M,0.0,N,0.0,K,A*0B
$GPGLL,2233.2177,N,11413.7924,E,165649.00,A,A*6D
$GPGSA,A,3,02,04,09,10,15,26,27,,,,,,2.4,1.8,1.6*31
$GPRMC,165650.000,A,2233.2177,N,11413.7924,E,0.0,303.6,040191,,,A*69
$GPGGA,165650.000,2233.2177,N,11413.7924,E,1,07,1.8,17.0,M,14.2,M,,0000*6F
$GPVTG,303.6,T,,M,0.0,N,0.0,K,A*0B
$GPGLL,2233.2177,N,11413.7924,E,165650.00,A,A*65
$GPGSA,A,3,02,04,09,10,15,26,27,,,,,,2.4,1.8,1.6*31
$GPRMC,165651.000,A,2233.2177,N,11413.7924,E,0.0,303.6,040191,,,A*68
$GPGGA,165651.000,2233.2177,N,11413.7924,E,1,07,1.8,17.0,M,14.2,M,,0000*6E
$GPVTG,303.6,T,,M,0.0,N,0.0,K,A*0B
$GPGLL,2233.2177,N,11413.7924,E,165651.00,A,A*64
$GPGSA,A,3,02,04,09,10,15,26,27,,,,,,2.4,1.8,1.6*31
$GPGSV,3,1,11,10,17,055,24,02,45,103,14,04,10,119,23,27,16,170,35*71
$GPGSV,3,2,11,26,83,064,21,15,65,219,33,09,07,182,35,29,40,296,14*7F
$GPGSV,3,3,11,05,44,019,,08,14,066,,18,04,267,*47
$GPRMC,165652.000,A,2233.2177,N,11413.7924,E,0.0,303.6,040191,,,A*6B
$GPGGA,165652.000,2233.2177,N,11413.7924,E,1,07,1.8,17.0,M,14.2,M,,0000*6D
$GPVTG,303.6,T,,M,0.0,N,0.0,K,A*0B
$GPGLL,2233.2177,N,11413.7924,E,165652.00,A,A*67
$GPGSA,A,3,02,04,09,10,15,26,27,,,,,,2.4,1.8,1.6*31
$GPRMC,165653.000,A,2233.2177,N,11413.7924,E,0.0,303.6,040191,,,A*6A
$GPGGA,165653.000,2233.2177,N,11413.7924,E,1,07,1.8,17.0,M,14.2,M,,0000*6C
$GPVTG,303.6,T,,M,0.0,N,0.0,K,A*0B
$GPGLL,2233.2177,N,11413.7924,E,165653.00,A,A*66
$GPGSA,A,3,02,04,09,10,15,26,27,,,,,,2.4,1.8,1.6*31
$GPRMC,165654.000,A,2233.2177,N,11413.7924,E,0.0,303.6,040191,,,A*6D
$GPGGA,165654.000,2233.2177,N,11413.7924,E,1,07,1.8,17.0,M,14.2,M,,0000*6B
$GPVTG,303.6,T,,M,0.0,N,0.0,K,A*0B
$GPGLL,2233.2177,N,11413.7924,E,165654.00,A,A*61
$GPGSA,A,3,02,04,09,10,15,26,27,,,,,,2.4,1.8,1.6*31
$GPRMC,165655.000,A,2233.2177,N,11413.7924,E,0.0,303.6,040191,,,A*6C
$GPGGA,165655.000,2233.2177,N,11413.7924,E,1,07,1.8,17.0,M,14.2,M,,0000*6A
$GPVTG,303.6,T,,M,0.0,N,0.0,K,A*0B
$GPGLL,2233.2177,N,11413.7924,E,165655.00,A,A*60
$GPGSA,A,3,02,04,09,10,15,26,27,,,,,,2.4,1.8,1.6*31
$GPRMC,165656.000,A,2233.2177,N,11413.7924,E,0.0,303.6,040191,,,A*6F
$GPGGA,165656.000,2233.2177,N,11413.7924,E,1,07,1.8,17.0,M,14.2,M,,0000*69
$GPVTG,303.6,T,,M,0.0,N,0.0,K,A*0B
$GPGLL,2233.2177,N,11413.7924,E,165656.00,A,A*63
$GPGSA,A,3,02,04,09,10,15,26,27,,,,,,2.4,1.8,1.6*31
$GPGSV,3,1,11,10,17,055,24,02,45,103,14,04,10,119,25,27,16,170,36*74
$GPGSV,3,2,11,26,83,064,22,15,65,220,33,09,07,182,36,05,44,019,*7F
$GPGSV,3,3,11,29,40,296,,08,14,066,,18,04,267,*48
$GPRMC,165657.000,A,2233.2177,N,11413.7924,E,0.0,303.6,040191,,,A*6E
$GPGGA,165657.000,2233.2177,N,11413.7924,E,1,07,1.8,17.0,M,14.2,M,,0000*68
$GPVTG,303.6,T,,M,0.0,N,0.0,K,A*0B
$GPGLL,2233.2177,N,11413.7924,E,165657.00,A,A*62
$GPGSA,A,3,02,04,09,10,15,26,27,,,,,,2.4,1.8,1.6*31
$GPRMC,165658.000,A,2233.2177,N,11413.7924,E,0.0,303.6,040191,,,A*61
$GPGGA,165658.000,2233.2177,N,11413.7924,E,1,07,1.8,17.0,M,14.2,M,,0000*67
$GPVTG,303.6,T,,M,0.0,N,0.0,K,A*0B
$GPGLL,2233.2177,N,11413.7924,E,165658.00,A,A*6D
$GPGSA,A,3,02,04,09,10,15,26,27,,,,,,2.4,1.8,1.6*31
$GPRMC,165659.000,A,2233.2177,N,11413.7924,E,0.0,303.6,040191,,,A*60
$GPGGA,165659.000,2233.2177,N,11413.7924,E,1,07,1.8,17.0,M,14.2,M,,0000*66
$GPVTG,303.6,T,,M,0.0,N,0.0,K,A*0B
$GPGLL,2233.2177,N,11413.7924,E,165659.00,A,A*6C
$GPGSA,A,3,02,04,09,10,15,26,27,,,,,,2.4,1.8,1.6*31
$GPRMC,165700.000,A,2233.2177,N,11413.7924,E,0.0,303.6,040191,,,A*6D
$GPGGA,165700.000,2233.2177,N,11413.7924,E,1,07,1.8,17.0,M,14.2,M,,0000*6B
$GPVTG,303.6,T,,M,0.0,N,0.0,K,A*0B
$GPGLL,2233.2177,N,11413.7924,E,165700.00,A,A*61
$GPGSA,A,3,02,04,09,10,15,26,27,,,,,,2.4,1.8,1.6*31
$GPRMC,165701.000,A,2233.2177,N,11413.7924,E,0.0,303.6,040191,,,A*6C
$GPGGA,165701.000,2233.2177,N,11413.7924,E,1,07,1.8,17.0,M,14.2,M,,0000*6A
$GPVTG,303.6,T,,M,0.0,N,0.0,K,A*0B
$GPGLL,2233.2177,N,11413.7924,E,165701.00,A,A*60
$GPGSA,A,3,02,04,09,10,15,26,27,,,,,,2.4,1.8,1.6*31
$GPGSV,3,1,11,10,17,055,24,02,45,103,14,04,10,119,25,27,16,170,35*77
$GPGSV,3,2,11,26,83,063,24,15,65,220,32,09,07,182,35,29,40,296,21*70
$GPGSV,3,3,11,05,44,019,,08,14,066,,18,04,267,*47
$GPRMC,165702.000,A,2233.2177,N,11413.7924,E,0.0,303.6,040191,,,A*6F
$GPGGA,165702.000,2233.2177,N,11413.7924,E,1,07,1.8,17.0,M,14.2,M,,0000*69
$GPVTG,303.6,T,,M,0.0,N,0.0,K,A*0B
$GPGLL,2233.2177,N,11413.7924,E,165702.00,A,A*63
$GPGSA,A,3,02,04,09,10,15,26,27,,,,,,2.4,1.8,1.6*31
$GPRMC,165703.000,A,2233.2177,N,11413.7924,E,0.0,303.6,040191,,,A*6E
$GPGGA,165703.000,2233.2177,N,11413.7924,E,1,07,1.8,17.0,M,14.2,M,,0000*68
$GPVTG,303.6,T,,M,0.0,N,0.0,K,A*0B
$GPGLL,2233.2177,N,11413.7924,E,165703.00,A,A*62
$GPGSA,A,3,02,04,09,10,15,26,27,,,,,,2.4,1.8,1.6*31
$GPRMC,165704.000,A,2233.2177,N,11413.7924,E,0.0,303.6,040191,,,A*69
$GPGGA,165704.000,2233.2177,N,11413.7924,E,1,07,1.8,17.0,M,14.2,M,,0000*6F
$GPVTG,303.6,T,,M,0.0,N,0.0,K,A*0B
$GPGLL,2233.2177,N,11413.7924,E,165704.00,A,A*65
$GPGSA,A,3,02,04,09,10,15,26,27,,,,,,2.4,1.8,1.6*31
$GPRMC,165705.000,A,2233.2177,N,11413.7924,E,0.0,303.6,040191,,,A*68
$GPGGA,165705.000,2233.2177,N,11413.7924,E,1,07,1.8,17.0,M,14.2,M,,0000*6E
$GPVTG,303.6,T,,M,0.0,N,0.0,K,A*0B
$GPGLL,2233.2177,N,11413.7924,E,165705.00,A,A*64
$GPGSA,A,3,02,04,09,10,15,26,27,,,,,,2.4,1.8,1.6*31
$GPRMC,165706.000,A,2233.2177,N,11413.7924,E,0.0,303.6,040191,,,A*6B
$GPGGA,165706.000,2233.2177,N,11413.7924,E,1,07,1.8,17.0,M,14.2,M,,0000*6D
$GPVTG,303.6,T,,M,0.0,N,0.0,K,A*0B
$GPGLL,2233.2177,N,11413.7924,E,165706.00,A,A*67
$GPGSA,A,3,02,04,09,10,15,26,27,,,,,,2.4,1.8,1.6*31
$GPGSV,3,1,11,10,17,055,24,05,44,019,14,02,45,103,18,04,10,119,25*71
$GPGSV,3,2,11,27,16,170,35,26,83,063,24,15,65,220,34,09,07,182,36*76
$GPGSV,3,3,11,29,40,295,19,08,14,066,,18,04,267,*43
$GPRMC,165707.000,A,2233.2177,N,11413.7924,E,0.0,303.6,040191,,,A*6A
$GPGGA,165707.000,2233.2177,N,11413.7924,E,1,08,1.4,17.0,M,14.2,M,,0000*6F
$GPVTG,303.6,T,,M,0.0,N,0.0,K,A*0B
$GPGLL,2233.2177,N,11413.7924,E,165707.00,A,A*66
$GPGSA,A,3,02,04,05,09,10,15,26,27,,,,,2.1,1.4,1.5*3E
$GPRMC,165708.000,A,2233.2177,N,11413.7924,E,0.0,303.6,040191,,,A*65
$GPGGA,165708.000,2233.2177,N,11413.7924,E,1,08,1.4,17.0,M,14.2,M,,0000*60
$GPVTG,303.6,T,,M,0.0,N,0.0,K,A*0B
$GPGLL,2233.2177,N,11413.7924,E,165708.00,A,A*69
$GPGSA,A,3,02,04,05,09,10,15,26,27,,,,,2.1,1.4,1.5*3E
$GPRMC,165709.000,A,2233.2177,N,11413.7924,E,0.0,303.6,040191,,,A*64
$GPGGA,165709.000,2233.2177,N,11413.7924,E,1,08,1.4,17.0,M,14.2,M,,0000*61
$GPVTG,303.6,T,,M,0.0,N,0.0,K,A*0B
$GPGLL,2233.2177,N,11413.7924,E,165709.00,A,A*68
$GPGSA,A,3,02,04,05,09,10,15,26,27,,,,,2.1,1.4,1.5*3E
$GPRMC,165710.000,A,2233.2177,N,11413.7924,E,0.0,303.6,040191,,,A*6C
$GPGGA,165710.000,2233.2177,N,11413.7924,E,1,08,1.4,17.0,M,14.2,M,,0000*69
$GPVTG,303.6,T,,M,0.0,N,0.0,K,A*0B
$GPGLL,2233.2177,N,11413.7924,E,165710.00,A,A*60
$GPGSA,A,3,02,04,05,09,10,15,26,27,,,,,2.1,1.4,1.5*3E
$GPRMC,165711.000,A,2233.2177,N,11413.7924,E,0.0,303.6,040191,,,A*6D
$GPGGA,165711.000,2233.2177,N,11413.7924,E,1,08,1.4,17.0,M,14.2,M,,0000*68
$GPVTG,303.6,T,,M,0.0,N,0.0,K,A*0B
$GPGLL,2233.2177,N,11413.7924,E,165711.00,A,A*61
$GPGSA,A,3,02,04,05,09,10,15,26,27,,,,,2.1,1.4,1.5*3E
$GPGSV,3,1,11,10,17,055,24,05,44,019,14,02,45,103,15,04,10,119,25*7C
$GPGSV,3,2,11,27,16,170,36,26,83,063,23,15,65,220,34,09,07,182,36*72
$GPGSV,3,3,11,29,40,295,16,08,14,066,,18,04,267,*4C
$GPRMC,165712.000,A,2233.2177,N,11413.7924,E,0.0,303.6,040191,,,A*6E
$GPGGA,165712.000,2233.2177,N,11413.7924,E,1,08,1.4,17.0,M,14.2,M,,0000*6B
$GPVTG,303.6,T,,M,0.0,N,0.0,K,A*0B
$GPGLL,2233.2177,N,11413.7924,E,165712.00,A,A*62
$GPGSA,A,3,02,04,05,09,10,15,26,27,,,,,2.1,1.4,1.5*3E
$GPRMC,165713.000,A,2233.2177,N,11413.7924,E,0.0,303.6,040191,,,A*6F
$GPGGA,165713.000,2233.2177,N,11413.7924,E,1,08,1.4,17.0,M,14.2,M,,0000*6A
$GPVTG,303.6,T,,M,0.0,N,0.0,K,A*0B
$GPGLL,2233.2177,N,11413.7924,E,165713.00,A,A*63
$GPGSA,A,3,02,04,05,09,10,15,26,27,,,,,2.1,1.4,1.5*3E
$GPRMC,165714.000,A,2233.2177,N,11413.7924,E,0.0,303.6,040191,,,A*68
$GPGGA,165714.000,2233.2177,N,11413.7924,E,1,08,1.4,17.0,M,14.2,M,,0000*6D
$GPVTG,303.6,T,,M,0.0,N,0.0,K,A*0B
$GPGLL,2233.2177,N,11413.7924,E,165714.00,A,A*64
$GPGSA,A,3,02,04,05,09,10,15,26,27,,,,,2.1,1.4,1.5*3E
$GPRMC,165715.000,A,2233.2177,N,11413.7924,E,0.0,303.6,040191,,,A*69
$GPGGA,165715.000,2233.2177,N,11413.7924,E,1,08,1.4,17.0,M,14.2,M,,0000*6C
$GPVTG,303.6,T,,M,0.0,N,0.0,K,A*0B
$GPGLL,2233.2177,N,11413.7924,E,165715.00,A,A*65
$GPGSA,A,3,02,04,05,09,10,15,26,27,,,,,2.1,1.4,1.5*3E
$GPRMC,165716.000,A,2233.2177,N,11413.7924,E,0.0,303.6,040191,,,A*6A
$GPGGA,165716.000,2233.2177,N,11413.7924,E,1,07,1.9,17.0,M,14.2,M,,0000*6D
$GPVTG,303.6,T,,M,0.0,N,0.0,K,A*0B
$GPGLL,2233.2177,N,11413.7924,E,165716.00,A,A*66
$GPGSA,A,3,04,05,09,10,15,26,27,,,,,,2.8,1.9,2.0*3E
$GPGSV,3,1,11,10,17,055,25,05,44,019,14,02,45,103,16,04,10,120,26*77
$GPGSV,3,2,11,27,16,170,35,26,83,062,23,15,66,220,34,09,07,182,36*73
$GPGSV,3,3,11,29,40,295,17,08,14,066,,18,04,267,*4D
$GPRMC,165717.000,A,2233.2177,N,11413.7924,E,0.0,303.6,040191,,,A*6B
$GPGGA,165717.000,2233.2177,N,11413.7924,E,1,07,1.9,17.0,M,14.2,M,,0000*6C
$GPVTG,303.6,T,,M,0.0,N,0.0,K,A*0B
$GPGLL,2233.2177,N,11413.7924,E,165717.00,A,A*67
$GPGSA,A,3,04,05,09,10,15,26,27,,,,,,2.8,1.9,2.0*3E
$GPRMC,165718.000,A,2233.2177,N,11413.7924,E,0.0,303.6,040191,,,A*64
$GPGGA,165718.000,2233.2177,N,11413.7924,E,1,07,1.9,17.0,M,14.2,M,,0000*63
$GPVTG,303.6,T,,M,0.0,N,0.0,K,A*0B
$GPGLL,2233.2177,N,11413.7924,E,165718.00,A,A*68
$GPGSA,A,3,04,05,09,10,15,26,27,,,,,,2.8,1.9,2.0*3E
$GPRMC,165719.000,A,2233.2177,N,11413.7924,E,0.0,303.6,040191,,,A*65
$GPGGA,165719.000,2233.2177,N,11413.7924,E,1,07,1.9,17.0,M,14.2,M,,0000*62
$GPVTG,303.6,T,,M,0.0,N,0.0,K,A*0B
$GPGLL,2233.2177,N,11413.7924,E,165719.00,A,A*69
$GPGSA,A,3,04,05,09,10,15,26,27,,,,,,2.8,1.9,2.0*3E
$GPRMC,165720.000,A,2233.2177,N,11413.7924,E,0.0,303.6,040191,,,A*6F
$GPGGA,165720.000,2233.2177,N,11413.7924,E,1,07,1.9,17.0,M,14.2,M,,0000*68
$GPVTG,303.6,T,,M,0.0,N,0.0,K,A*0B
$GPGLL,2233.2177,N,11413.7924,E,165720.00,A,A*63
$GPGSA,A,3,04,05,09,10,15,26,27,,,,,,2.8,1.9,2.0*3E
$GPRMC,165721.000,A,2233.2177,N,11413.7924,E,0.0,303.6,040191,,,A*6E
$GPGGA,165721.000,2233.2177,N,11413.7924,E,1,07,1.9,17.0,M,14.2,M,,0000*69
$GPVTG,303.6,T,,M,0.0,N,0.0,K,A*0B
$GPGLL,2233.2177,N,11413.7924,E,165721.00,A,A*62
$GPGSA,A,3,04,05,09,10,15,26,27,,,,,,2.8,1.9,2.0*3E
$GPGSV,3,1,11,10,17,055,27,05,44,019,13,02,45,103,15,04,10,120,26*71
$GPGSV,3,2,11,27,16,170,36,26,83,062,22,15,66,220,32,09,07,182,36*77
$GPGSV,3,3,11,29,41,295,17,08,14,066,,18,04,267,*4C
$GPRMC,165722.000,A,2233.2177,N,11413.7924,E,0.0,303.6,040191,,,A*6D
$GPGGA,165722.000,2233.2177,N,11413.7924,E,1,08,1.4,17.0,M,14.2,M,,0000*68
$GPVTG,303.6,T,,M,0.0,N,0.0,K,A*0B
$GPGLL,2233.2177,N,11413.7924,E,165722.00,A,A*61
$GPGSA,A,3,02,04,05,09,10,15,26,27,,,,,2.1,1.4,1.5*3E
$GPRMC,165723.000,A,2233.2177,N,11413.7924,E,0.0,303.6,040191,,,A*6C
$GPGGA,165723.000,2233.2177,N,11413.7924,E,1,08,1.4,17.0,M,14.2,M,,0000*69
$GPVTG,303.6,T,,M,0.0,N,0.0,K,A*0B
$GPGLL,2233.2177,N,11413.7924,E,165723.00,A,A*60
$GPGSA,A,3,02,04,05,09,10,15,26,27,,,,,2.1,1.4,1.5*3E
$GPRMC,165724.000,A,2233.2177,N,11413.7924,E,0.0,303.6,040191,,,A*6B
$GPGGA,165724.000,2233.2177,N,11413.7924,E,1,08,1.4,17.0,M,14.2,M,,0000*6E
$GPVTG,303.6,T,,M,0.0,N,0.0,K,A*0B
$GPGLL,2233.2177,N,11413.7924,E,165724.00,A,A*67
$GPGSA,A,3,02,04,05,09,10,15,26,27,,,,,2.1,1.4,1.5*3E
$GPRMC,165725.000,A,2233.2177,N,11413.7924,E,0.0,303.6,040191,,,A*6A
$GPGGA,165725.000,2233.2177,N,11413.7924,E,1,08,1.4,17.0,M,14.2,M,,0000*6F
$GPVTG,303.6,T,,M,0.0,N,0.0,K,A*0B
$GPGLL,2233.2177,N,11413.7924,E,165725.00,A,A*66
$GPGSA,A,3,02,04,05,09,10,15,26,27,,,,,2.1,1.4,1.5*3E
$GPRMC,165726.000,A,2233.2177,N,11413.7924,E,0.0,303.6,040191,,,A*69
$GPGGA,165726.000,2233.2177,N,11413.7924,E,1,08,1.4,17.0,M,14.2,M,,0000*6C
$GPVTG,303.6,T,,M,0.0,N,0.0,K,A*0B
$GPGLL,2233.2177,N,11413.7924,E,165726.00,A,A*65
$GPGSA,A,3,02,04,05,09,10,15,26,27,,,,,2.1,1.4,1.5*3E
$GPGSV,3,1,11,10,17,055,24,05,44,019,11,02,45,103,16,04,10,120,27*72
$GPGSV,3,2,11,27,16,170,35,26,83,062,20,15,66,220,32,09,07,182,35*75
$GPGSV,3,3,11,29,41,295,16,08,14,066,,18,04,267,*4D
$GPRMC,165727.000,A,2233.2177,N,11413.7924,E,0.0,303.6,040191,,,A*68
$GPGGA,165727.000,2233.2177,N,11413.7924,E,1,08,1.4,17.0,M,14.2,M,,0000*6D
$GPVTG,303.6,T,,M,0.0,N,0.0,K,A*0B
$GPGLL,2233.2177,N,11413.7924,E,165727.00,A,A*64
$GPGSA,A,3,02,04,05,09,10,15,26,27,,,,,2.1,1.4,1.5*3E
$GPRMC,165728.000,A,2233.2177,N,11413.7924,E,0.0,303.6,040191,,,A*67
$GPGGA,165728.000,2233.2177,N,11413.7924,E,1,08,1.4,17.0,M,14.2,M,,0000*62
$GPVTG,303.6,T,,M,0.0,N,0.0,K,A*0B
$GPGLL,2233.2177,N,11413.7924,E,165728.00,A,A*6B
$GPGSA,A,3,02,04,05,09,10,15,26,27,,,,,2.1,1.4,1.5*3E
$GPRMC,165729.000,A,2233.2177,N,11413.7924,E,0.0,303.6,040191,,,A*66
$GPGGA,165729.000,2233.2177,N,11413.7924,E,1,08,1.4,17.0,M,14.2,M,,0000*63
$GPVTG,303.6,T,,M,0.0,N,0.0,K,A*0B
$GPGLL,2233.2177,N,11413.7924,E,165729.00,A,A*6A
$GPGSA,A,3,02,04,05,09,10,15,26,27,,,,,2.1,1.4,1.5*3E
$GPRMC,165730.000,A,2233.2177,N,11413.7924,E,0.0,303.6,040191,,,A*6E
$GPGGA,165730.000,2233.2177,N,11413.7924,E,1,07,1.8,17.0,M,14.2,M,,0000*68
$GPVTG,303.6,T,,M,0.0,N,0.0,K,A*0B
$GPGLL,2233.2177,N,11413.7924,E,165730.00,A,A*62
$GPGSA,A,3,02,04,09,10,15,26,27,,,,,,2.4,1.8,1.6*31
$GPRMC,165731.000,A,2233.2177,N,11413.7924,E,0.0,303.6,040191,,,A*6F
$GPGGA,165731.000,2233.2177,N,11413.7924,E,1,07,1.8,17.0,M,14.2,M,,0000*69
$GPVTG,303.6,T,,M,0.0,N,0.0,K,A*0B
$GPGLL,2233.2177,N,11413.7924,E,165731.00,A,A*63
$GPGSA,A,3,02,04,09,10,15,26,27,,,,,,2.4,1.8,1.6*31
$GPGSV,3,1,11,10,17,055,25,05,44,019,11,02,45,104,17,04,10,120,27*75
$GPGSV,3,2,11,27,16,170,36,26,83,061,21,15,66,220,33,09,07,182,35*75
$GPGSV,3,3,11,29,41,295,16,08,14,066,,18,04,267,*4D
$GPRMC,165732.000,A,2233.2177,N,11413.7924,E,0.0,303.6,040191,,,A*6C
$GPGGA,165732.000,2233.2177,N,11413.7924,E,1,07,1.8,17.0,M,14.2,M,,0000*6A
$GPVTG,303.6,T,,M,0.0,N,0.0,K,A*0B
$GPGLL,2233.2177,N,11413.7924,E,165732.00,A,A*60
$GPGSA,A,3,02,04,09,10,15,26,27,,,,,,2.4,1.8,1.6*31
$GPRMC,165733.000,A,2233.2177,N,11413.7924,E,0.0,303.6,040191,,,A*6D
$GPGGA,165733.000,2233.2177,N,11413.7924,E,1,07,1.8,17.0,M,14.2,M,,0000*6B
$GPVTG,303.6,T,,M,0.0,N,0.0,K,A*0B
$GPGLL,2233.2177,N,11413.7924,E,165733.00,A,A*61
$GPGSA,A,3,02,04,09,10,15,26,27,,,,,,2.4,1.8,1.6*31
$GPRMC,165734.000,A,2233.2177,N,11413.7924,E,0.0,303.6,040191,,,A*6A
$GPGGA,165734.000,2233.2177,N,11413.7924,E,1,07,1.8,17.0,M,14.2,M,,0000*6C
$GPVTG,303.6,T,,M,0.0,N,0.0,K,A*0B
$GPGLL,2233.2177,N,11413.7924,E,165734.00,A,A*66
$GPGSA,A,3,02,04,09,10,15,26,27,,,,,,2.4,1.8,1.6*31
$GPRMC,165735.000,A,2233.2177,N,11413.7924,E,0.0,303.6,040191,,,A*6B
$GPGGA,165735.000,2233.2177,N,11413.7924,E,1,08,1.4,17.0,M,14.2,M,,0000*6E
$GPVTG,303.6,T,,M,0.0,N,0.0,K,A*0B
$GPGLL,2233.2177,N,11413.7924,E,165735.00,A,A*67
$GPGSA,A,3,02,04,05,09,10,15,26,27,,,,,2.1,1.4,1.5*3E
$GPRMC,165736.000,A,2233.2177,N,11413.7924,E,0.0,303.6,040191,,,A*68
$GPGGA,165736.000,2233.2177,N,11413.7924,E,1,08,1.4,17.0,M,14.2,M,,0000*6D
$GPVTG,303.6,T,,M,0.0,N,0.0,K,A*0B
$GPGLL,2233.2177,N,11413.7924,E,165736.00,A,A*64
$GPGSA,A,3,02,04,05,09,10,15,26,27,,,,,2.1,1.4,1.5*3E
$GPGSV,3,1,11,10,17,055,24,05,44,019,17,02,45,104,15,04,10,120,27*70
$GPGSV,3,2,11,27,16,169,36,26,83,061,24,15,66,220,33,09,07,182,36*7B
$GPGSV,3,3,11,29,41,295,16,08,14,066,,18,04,267,*4D
$GPRMC,165737.000,A,2233.2177,N,11413.7924,E,0.0,303.6,040191,,,A*69
$GPGGA,165737.000,2233.2177,N,11413.7924,E,1,08,1.4,17.0,M,14.2,M,,0000*6C
$GPVTG,303.6,T,,M,0.0,N,0.0,K,A*0B
$GPGLL,2233.2177,N,11413.7924,E,165737.00,A,A*65
$GPGSA,A,3,02,04,05,09,10,15,26,27,,,,,2.1,1.4,1.5*3E
$GPRMC,165738.000,A,2233.2177,N,11413.7924,E,0.0,303.6,040191,,,A*66
$GPGGA,165738.000,2233.2177,N,11413.7924,E,1,08,1.4,17.0,M,14.2,M,,0000*63
$GPVTG,303.6,T,,M,0.0,N,0.0,K,A*0B
$GPGLL,2233.2177,N,11413.7924,E,165738.00,A,A*6A
$GPGSA,A,3,02,04,05,09,10,15,26,27,,,,,2.1,1.4,1.5*3E
$GPRMC,165739.000,A,2233.2177,N,11413.7924,E,0.0,303.6,040191,,,A*67
$GPGGA,165739.000,2233.2177,N,11413.7924,E,1,08,1.4,17.0,M,14.2,M,,0000*62
$GPVTG,303.6,T,,M,0.0,N,0.0,K,A*0B
$GPGLL,2233.2177,N,11413.7924,E,165739.00,A,A*6B
$GPGSA,A,3,02,04,05,09,10,15,26,27,,,,,2.1,1.4,1.5*3E
$GPRMC,165740.000,A,2233.2177,N,11413.7924,E,0.0,303.6,040191,,,A*69
$GPGGA,165740.000,2233.2177,N,11413.7924,E,1,08,1.4,17.0,M,14.2,M,,0000*6C
$GPVTG,303.6,T,,M,0.0,N,0.0,K,A*0B
$GPGLL,2233.2177,N,11413.7924,E,165740.00,A,A*65
$GPGSA,A,3,02,04,05,09,10,15,26,27,,,,,2.1,1.4,1.5*3E
$GPRMC,165741.000,A,2233.2177,N,11413.7924,E,0.0,303.6,040191,,,A*68
$GPGGA,165741.000,2233.2177,N,11413.7924,E,1,08,1.4,17.0,M,14.2,M,,0000*6D
$GPVTG,303.6,T,,M,0.0,N,0.0,K,A*0B
$GPGLL,2233.2177,N,11413.7924,E,165741.00,A,A*64
$GPGSA,A,3,02,04,05,09,10,15,26,27,,,,,2.1,1.4,1.5*3E
$GPGSV,3,1,11,10,17,055,26,05,44,019,19,02,45,104,18,04,10,120,27*71
$GPGSV,3,2,11,27,16,169,35,26,83,061,22,15,66,220,31,09,07,182,36*7C
$GPGSV,3,3,11,29,41,295,16,08,14,066,,18,04,267,*4D
$GPRMC,165742.000,A,2233.2177,N,11413.7924,E,0.0,303.6,040191,,,A*6B
$GPGGA,165742.000,2233.2177,N,11413.7924,E,1,08,1.4,17.0,M,14.2,M,,0000*6E
$GPVTG,303.6,T,,M,0.0,N,0.0,K,A*0B
$GPGLL,2233.2177,N,11413.7924,E,165742.00,A,A*67
$GPGSA,A,3,02,04,05,09,10,15,26,27,,,,,2.1,1.4,1.5*3E
$GPRMC,165743.000,A,2233.2177,N,11413.7924,E,0.0,303.6,040191,,,A*6A
$GPGGA,165743.000,2233.2177,N,11413.7924,E,1,08,1.5,17.0,M,14.2,M,,0000*6E
$GPVTG,303.6,T,,M,0.0,N,0.0,K,A*0B
$GPGLL,2233.2177,N,11413.7924,E,165743.00,A,A*66
$GPGSA,A,3,02,04,05,09,10,15,26,27,,,,,2.1,1.5,1.5*3F
$GPRMC,165744.000,A,2233.2177,N,11413.7924,E,0.0,303.6,040191,,,A*6D
$GPGGA,165744.000,2233.2177,N,11413.7924,E,1,08,1.5,17.0,M,14.2,M,,0000*69
$GPVTG,303.6,T,,M,0.0,N,0.0,K,A*0B
$GPGLL,2233.2177,N,11413.7924,E,165744.00,A,A*61
$GPGSA,A,3,02,04,05,09,10,15,26,27,,,,,2.1,1.5,1.5*3F
$GPRMC,165745.000,A,2233.2177,N,11413.7924,E,0.0,303.6,040191,,,A*6C
$GPGGA,165745.000,2233.2177,N,11413.7924,E,1,08,1.5,17.0,M,14.2,M,,0000*68
$GPVTG,303.6,T,,M,0.0,N,0.0,K,A*0B
$GPGLL,2233.2177,N,11413.7924,E,165745.00,A,A*60
$GPGSA,A,3,02,04,05,09,10,15,26,27,,,,,2.1,1.5,1.5*3F
$GPRMC,165746.000,A,2233.2177,N,11413.7924,E,0.0,303.6,040191,,,A*6F
$GPGGA,165746.000,2233.2177,N,11413.7924,E,1,08,1.5,17.0,M,14.2,M,,0000*6B
$GPVTG,303.6,T,,M,0.0,N,0.0,K,A*0B
$GPGLL,2233.2177,N,11413.7924,E,165746.00,A,A*63
$GPGSA,A,3,02,04,05,09,10,15,26,27,,,,,2.1,1.5,1.5*3F
$GPGSV,3,1,11,10,17,055,26,05,44,020,22,02,45,104,18,04,10,120,27*73
$GPGSV,3,2,11,27,16,169,35,26,83,060,22,15,66,220,31,09,07,182,36*7D
$GPGSV,3,3,11,29,41,295,,08,14,066,,18,04,267,*4A
$GPRMC,165747.000,A,2233.2177,N,11413.7924,E,0.0,303.6,040191,,,A*6E
$GPGGA,165747.000,2233.2177,N,11413.7924,E,1,08,1.5,17.0,M,14.2,M,,0000*6A
$GPVTG,303.6,T,,M,0.0,N,0.0,K,A*0B
$GPGLL,2233.2177,N,11413.7924,E,165747.00,A,A*62
$GPGSA,A,3,02,04,05,09,10,15,26,27,,,,,2.1,1.5,1.5*3F
$GPRMC,165748.000,A,2233.2177,N,11413.7924,E,0.0,303.6,040191,,,A*61
$GPGGA,165748.000,2233.2177,N,11413.7924,E,1,08,1.5,17.0,M,14.2,M,,0000*65
$GPVTG,303.6,T,,M,0.0,N,0.0,K,A*0B
$GPGLL,2233.2177,N,11413.7924,E,165748.00,A,A*6D
$GPGSA,A,3,02,04,05,09,10,15,26,27,,,,,2.1,1.5,1.5*3F
$GPRMC,165749.000,A,2233.2177,N,11413.7924,E,0.0,303.6,040191,,,A*60
$GPGGA,165749.000,2233.2177,N,11413.7924,E,1,08,1.5,17.0,M,14.2,M,,0000*64
$GPVTG,303.6,T,,M,0.0,N,0.0,K,A*0B
$GPGLL,2233.2177,N,11413.7924,E,165749.00,A,A*6C
$GPGSA,A,3,02,04,05,09,10,15,26,27,,,,,2.1,1.5,1.5*3F
$GPRMC,165750.000,A,2233.2177,N,11413.7924,E,0.0,303.6,040191,,,A*68
$GPGGA,165750.000,2233.2177,N,11413.7924,E,1,08,1.5,17.0,M,14.2,M,,0000*6C
$GPVTG,303.6,T,,M,0.0,N,0.0,K,A*0B
$GPGLL,2233.2177,N,11413.7924,E,165750.00,A,A*64
$GPGSA,A,3,02,04,05,09,10,15,26,27,,,,,2.1,1.5,1.5*3F
$GPRMC,165751.000,A,2233.2177,N,11413.7924,E,0.0,303.6,040191,,,A*69
$GPGGA,165751.000,2233.2177,N,11413.7924,E,1,08,1.5,17.0,M,14.2,M,,0000*6D
$GPVTG,303.6,T,,M,0.0,N,0.0,K,A*0B
$GPGLL,2233.2177,N,11413.7924,E,165751.00,A,A*65
$GPGSA,A,3,02,04,05,09,10,15,26,27,,,,,2.1,1.5,1.5*3F
$GPGSV,3,1,11,10,17,055,25,05,44,020,23,02,45,104,18,04,10,120,27*71
$GPGSV,3,2,11,27,16,169,35,26,83,060,23,15,66,220,30,09,07,182,35*7E
$GPGSV,3,3,11,29,41,295,,08,14,066,,18,04,267,*4A
$GPRMC,165752.000,A,2233.2177,N,11413.7924,E,0.0,303.6,040191,,,A*6A
$GPGGA,165752.000,2233.2177,N,11413.7924,E,1,08,1.5,17.0,M,14.2,M,,0000*6E
$GPVTG,303.6,T,,M,0.0,N,0.0,K,A*0B
$GPGLL,2233.2177,N,11413.7924,E,165752.00,A,A*66
$GPGSA,A,3,02,04,05,09,10,15,26,27,,,,,2.1,1.5,1.5*3F
$GPRMC,165753.000,A,2233.2177,N,11413.7924,E,0.0,303.6,040191,,,A*6B
$GPGGA,165753.000,2233.2177,N,11413.7924,E,1,08,1.5,17.0,M,14.2,M,,0000*6F
$GPVTG,303.6,T,,M,0.0,N,0.0,K,A*0B
$GPGLL,2233.2177,N,11413.7924,E,165753.00,A,A*67
$GPGSA,A,3,02,04,05,09,10,15,26,27,,,,,2.1,1.5,1.5*3F
$GPRMC,165754.000,A,2233.2177,N,11413.7924,E,0.0,303.6,040191,,,A*6C
$GPGGA,165754.000,2233.2177,N,11413.7924,E,1,08,1.5,17.0,M,14.2,M,,0000*68
$GPVTG,303.6,T,,M,0.0,N,0.0,K,A*0B
$GPGLL,2233.2177,N,11413.7924,E,165754.00,A,A*60
$GPGSA,A,3,02,04,05,09,10,15,26,27,,,,,2.1,1.5,1.5*3F
$GPRMC,165755.000,A,2233.2177,N,11413.7924,E,0.0,303.6,040191,,,A*6D
$GPGGA,165755.000,2233.2177,N,11413.7924,E,1,08,1.5,17.0,M,14.2,M,,0000*69
$GPVTG,303.6,T,,M,0.0,N,0.0,K,A*0B
$GPGLL,2233.2177,N,11413.7924,E,165755.00,A,A*61
$GPGSA,A,3,02,04,05,09,10,15,26,27,,,,,2.1,1.5,1.5*3F
$GPRMC,165756.000,A,2233.2177,N,11413.7924,E,0.0,303.6,040191,,,A*6E
$GPGGA,165756.000,2233.2177,N,11413.7924,E,1,08,1.5,17.0,M,14.2,M,,0000*6A
$GPVTG,303.6,T,,M,0.0,N,0.0,K,A*0B
$GPGLL,2233.2177,N,11413.7924,E,165756.00,A,A*62
$GPGSA,A,3,02,04,05,09,10,15,26,27,,,,,2.1,1.5,1.5*3F
$GPGSV,3,1,11,10,17,055,25,05,44,020,22,02,45,104,18,04,10,120,26*71
$GPGSV,3,2,11,27,16,169,34,26,83,060,22,15,66,220,31,09,07,182,35*7F
$GPGSV,3,3,11,29,41,295,,08,14,066,,18,04,267,*4A
$GPRMC,165757.000,A,2233.2177,N,11413.7924,E,0.0,303.6,040191,,,A*6F
$GPGGA,165757.000,2233.2177,N,11413.7924,E,1,08,1.5,17.0,M,14.2,M,,0000*6B
$GPVTG,303.6,T,,M,0.0,N,0.0,K,A*0B
$GPGLL,2233.2177,N,11413.7924,E,165757.00,A,A*63
$GPGSA,A,3,02,04,05,09,10,15,26,27,,,,,2.1,1.5,1.5*3F
$GPRMC,165758.000,A,2233.2177,N,11413.7924,E,0.0,303.6,040191,,,A*60
$GPGGA,165758.000,2233.2177,N,11413.7924,E,1,08,1.5,17.0,M,14.2,M,,0000*64
$GPVTG,303.6,T,,M,0.0,N,0.0,K,A*0B
$GPGLL,2233.2177,N,11413.7924,E,165758.00,A,A*6C
$GPGSA,A,3,02,04,05,09,10,15,26,27,,,,,2.1,1.5,1.5*3F
$GPRMC,165759.000,A,2233.2177,N,11413.7924,E,0.0,303.6,040191,,,A*61
$GPGGA,165759.000,2233.2177,N,11413.7924,E,1,08,1.5,17.0,M,14.2,M,,0000*65
$GPVTG,303.6,T,,M,0.0,N,0.0,K,A*0B
$GPGLL,2233.2177,N,11413.7924,E,165759.00,A,A*6D
$GPGSA,A,3,02,04,05,09,10,15,26,27,,,,,2.1,1.5,1.5*3F
$GPRMC,165800.000,A,2233.2177,N,11413.7924,E,0.0,303.6,040191,,,A*62
$GPGGA,165800.000,2233.2177,N,11413.7924,E,1,08,1.5,17.0,M,14.2,M,,0000*66
$GPVTG,303.6,T,,M,0.0,N,0.0,K,A*0B
$GPGLL,2233.2177,N,11413.7924,E,165800.00,A,A*6E
$GPGSA,A,3,02,04,05,09,10,15,26,27,,,,,2.1,1.5,1.5*3F
$GPRMC,165801.000,A,2233.2177,N,11413.7924,E,0.0,303.6,040191,,,A*63
$GPGGA,165801.000,2233.2177,N,11413.7924,E,1,08,1.5,17.0,M,14.2,M,,0000*67
$GPVTG,303.6,T,,M,0.0,N,0.0,K,A*0B
$GPGLL,2233.2177,N,11413.7924,E,165801.00,A,A*6F
$GPGSA,A,3,02,04,05,09,10,15,26,27,,,,,2.1,1.5,1.5*3F
$GPGSV,3,1,11,10,17,055,26,05,44,020,22,02,45,104,13,04,10,120,26*79
$GPGSV,3,2,11,27,16,169,35,26,83,060,20,15,66,220,31,09,07,182,34*7D
$GPGSV,3,3,11,29,41,295,20,08,14,066,,18,04,267,*48
$GPRMC,165802.000,A,2233.2177,N,11413.7924,E,0.0,303.6,040191,,,A*60
$GPGGA,165802.000,2233.2177,N,11413.7924,E,1,08,1.5,17.0,M,14.2,M,,0000*64
$GPVTG,303.6,T,,M,0.0,N,0.0,K,A*0B
$GPGLL,2233.2177,N,11413.7924,E,165802.00,A,A*6C
$GPGSA,A,3,02,04,05,09,10,15,26,27,,,,,2.1,1.5,1.5*3F
$GPRMC,165803.000,A,2233.2177,N,11413.7924,E,0.0,303.6,040191,,,A*61
$GPGGA,165803.000,2233.2177,N,11413.7924,E,1,08,1.5,17.0,M,14.2,M,,0000*65
$GPVTG,303.6,T,,M,0.0,N,0.0,K,A*0B
$GPGLL,2233.2177,N,11413.7924,E,165803.00,A,A*6D
$GPGSA,A,3,02,04,05,09,10,15,26,27,,,,,2.1,1.5,1.5*3F
$GPRMC,165804.000,A,2233.2177,N,11413.7924,E,0.0,303.6,040191,,,A*66
$GPGGA,165804.000,2233.2177,N,11413.7924,E,1,08,1.5,17.0,M,14.2,M,,0000*62
$GPVTG,303.6,T,,M,0.0,N,0.0,K,A*0B
$GPGLL,2233.2177,N,11413.7924,E,165804.00,A,A*6A
$GPGSA,A,3,02,04,05,09,10,15,26,27,,,,,2.1,1.5,1.5*3F
$GPRMC,165805.000,A,2233.2177,N,11413.7924,E,0.0,303.6,040191,,,A*67
$GPGGA,165805.000,2233.2177,N,11413.7924,E,1,07,1.9,17.0,M,14.2,M,,0000*60
$GPVTG,303.6,T,,M,0.0,N,0.0,K,A*0B
$GPGLL,2233.2177,N,11413.7924,E,165805.00,A,A*6B
$GPGSA,A,3,04,05,09,10,15,26,27,,,,,,2.8,1.9,2.0*3E
$GPRMC,165806.000,A,2233.2177,N,11413.7924,E,0.0,303.6,040191,,,A*64
$GPGGA,165806.000,2233.2177,N,11413.7924,E,1,07,1.9,17.0,M,14.2,M,,0000*63
$GPVTG,303.6,T,,M,0.0,N,0.0,K,A*0B
$GPGLL,2233.2177,N,11413.7924,E,165806.00,A,A*68
$GPGSA,A,3,04,05,09,10,15,26,27,,,,,,2.8,1.9,2.0*3E
$GPGSV,3,1,11,10,17,055,25,05,44,020,19,02,45,104,17,04,10,120,24*74
$GPGSV,3,2,11,27,16,169,34,26,83,059,18,15,66,220,30,09,07,182,33*7B
$GPGSV,3,3,11,29,41,295,20,08,14,066,,18,04,267,*48
$GPRMC,165807.000,A,2233.2177,N,11413.7924,E,0.0,303.6,040191,,,A*65
$GPGGA,165807.000,2233.2177,N,11413.7924,E,1,07,1.9,17.0,M,14.2,M,,0000*62
$GPVTG,303.6,T,,M,0.0,N,0.0,K,A*0B
$GPGLL,2233.2177,N,11413.7924,E,165807.00,A,A*69
$GPGSA,A,3,04,05,09,10,15,26,27,,,,,,2.8,1.9,2.0*3E
$GPRMC,165808.000,A,2233.2177,N,11413.7924,E,0.0,303.6,040191,,,A*6A
$GPGGA,165808.000,2233.2177,N,11413.7924,E,1,07,1.9,17.0,M,14.2,M,,0000*6D
$GPVTG,303.6,T,,M,0.0,N,0.0,K,A*0B
$GPGLL,2233.2177,N,11413.7924,E,165808.00,A,A*66
$GPGSA,A,3,04,05,09,10,15,26,27,,,,,,2.8,1.9,2.0*3E
$GPRMC,165809.000,A,2233.2177,N,11413.7924,E,0.0,303.6,040191,,,A*6B
$GPGGA,165809.000,2233.2177,N,11413.7924,E,1,07,1.9,17.0,M,14.2,M,,0000*6C
$GPVTG,303.6,T,,M,0.0,N,0.0,K,A*0B
$GPGLL,2233.2177,N,11413.7924,E,165809.00,A,A*67
$GPGSA,A,3,04,05,09,10,15,26,27,,,,,,2.8,1.9,2.0*3E
$GPRMC,165810.000,A,2233.2177,N,11413.7924,E,0.0,303.6,040191,,,A*63
$GPGGA,165810.000,2233.2177,N,11413.7924,E,1,07,1.9,17.0,M,14.2,M,,0000*64
$GPVTG,303.6,T,,M,0.0,N,0.0,K,A*0B
$GPGLL,2233.2177,N,11413.7924,E,165810.00,A,A*6F
$GPGSA,A,3,04,05,09,10,15,26,27,,,,,,2.8,1.9,2.0*3E
$GPRMC,165811.000,A,2233.2177,N,11413.7924,E,0.0,303.6,040191,,,A*62
$GPGGA,165811.000,2233.2177,N,11413.7924,E,1,07,1.9,17.0,M,14.2,M,,0000*65
$GPVTG,303.6,T,,M,0.0,N,0.0,K,A*0B
$GPGLL,2233.2177,N,11413.7924,E,165811.00,A,A*6E
$GPGSA,A,3,04,05,09,10,15,26,27,,,,,,2.8,1.9,2.0*3E
$GPGSV,3,1,11,10,17,055,25,05,44,020,17,04,10,120,24,27,17,169,35*71
$GPGSV,3,2,11,26,83,059,22,15,66,220,32,09,07,182,34,29,41,295,20*7E
$GPGSV,3,3,11,02,45,104,,08,14,066,,18,04,267,*4C
$GPRMC,165812.000,A,2233.2177,N,11413.7924,E,0.0,303.6,040191,,,A*61
$GPGGA,165812.000,2233.2177,N,11413.7924,E,1,07,1.9,17.0,M,14.2,M,,0000*66
$GPVTG,303.6,T,,M,0.0,N,0.0,K,A*0B
$GPGLL,2233.2177,N,11413.7924,E,165812.00,A,A*6D
$GPGSA,A,3,04,05,09,10,15,26,27,,,,,,2.8,1.9,2.0*3E
$GPRMC,165813.000,A,2233.2177,N,11413.7924,E,0.0,303.6,040191,,,A*60
$GPGGA,165813.000,2233.2177,N,11413.7924,E,1,07,1.9,17.0,M,14.2,M,,0000*67
$GPVTG,303.6,T,,M,0.0,N,0.0,K,A*0B
$GPGLL,2233.2177,N,11413.7924,E,165813.00,A,A*6C
$GPGSA,A,3,04,05,09,10,15,26,27,,,,,,2.8,1.9,2.0*3E
$GPRMC,165814.000,A,2233.2177,N,11413.7924,E,0.0,303.6,040191,,,A*67
$GPGGA,165814.000,2233.2177,N,11413.7924,E,1,07,1.9,17.0,M,14.2,M,,0000*60
$GPVTG,303.6,T,,M,0.0,N,0.0,K,A*0B
$GPGLL,2233.2177,N,11413.7924,E,165814.00,A,A*6B
$GPGSA,A,3,04,05,09,10,15,26,27,,,,,,2.8,1.9,2.0*3E
$GPRMC,165815.000,A,2233.2177,N,11413.7924,E,0.0,303.6,040191,,,A*66
$GPGGA,165815.000,2233.2177,N,11413.7924,E,1,07,1.9,17.0,M,14.2,M,,0000*61
$GPVTG,303.6,T,,M,0.0,N,0.0,K,A*0B
$GPGLL,2233.2177,N,11413.7924,E,165815.00,A,A*6A
$GPGSA,A,3,04,05,09,10,15,26,27,,,,,,2.8,1.9,2.0*3E
$GPRMC,165816.000,A,2233.2177,N,11413.7924,E,0.0,303.6,040191,,,A*65
$GPGGA,165816.000,2233.2177,N,11413.7924,E,1,07,1.9,17.0,M,14.2,M,,0000*62
$GPVTG,303.6,T,,M,0.0,N,0.0,K,A*0B
$GPGLL,2233.2177,N,11413.7924,E,165816.00,A,A*69
$GPGSA,A,3,04,05,09,10,15,26,27,,,,,,2.8,1.9,2.0*3E
$GPGSV,3,1,11,10,17,056,24,05,44,020,14,02,45,104,13,04,10,120,24*7F
$GPGSV,3,2,11,27,17,169,35,26,83,059,19,15,66,220,33,09,07,182,35*7F
$GPGSV,3,3,11,29,41,295,19,08,14,066,,18,04,267,*42
$GPRMC,165817.000,A,2233.2177,N,11413.7924,E,0.0,303.6,040191,,,A*64
$GPGGA,165817.000,2233.2177,N,11413.7924,E,1,08,1.5,17.0,M,14.2,M,,0000*60
$GPVTG,303.6,T,,M,0.0,N,0.0,K,A*0B
$GPGLL,2233.2177,N,11413.7924,E,165817.00,A,A*68
$GPGSA,A,3,02,04,05,09,10,15,26,27,,,,,2.1,1.5,1.5*3F
$GPRMC,165818.000,A,2233.2177,N,11413.7924,E,0.0,303.6,040191,,,A*6B
$GPGGA,165818.000,2233.2177,N,11413.7924,E,1,08,1.5,17.0,M,14.2,M,,0000*6F
$GPVTG,303.6,T,,M,0.0,N,0.0,K,A*0B
$GPGLL,2233.2177,N,11413.7924,E,165818.00,A,A*67
$GPGSA,A,3,02,04,05,09,10,15,26,27,,,,,2.1,1.5,1.5*3F
$GPRMC,165819.000,A,2233.2177,N,11413.7924,E,0.0,303.6,040191,,,A*6A
$GPGGA,165819.000,2233.2177,N,11413.7924,E,1,08,1.5,17.0,M,14.2,M,,0000*6E
$GPVTG,303.6,T,,M,0.0,N,0.0,K,A*0B
$GPGLL,2233.2177,N,11413.7924,E,165819.00,A,A*66
$GPGSA,A,3,02,04,05,09,10,15,26,27,,,,,2.1,1.5,1.5*3F
$GPRMC,165820.000,A,2233.2177,N,11413.7924,E,0.0,303.6,040191,,,A*60
$GPGGA,165820.000,2233.2177,N,11413.7924,E,1,07,1.8,17.0,M,14.2,M,,0000*66
$GPVTG,303.6,T,,M,0.0,N,0.0,K,A*0B
$GPGLL,2233.2177,N,11413.7924,E,165820.00,A,A*6C
$GPGSA,A,3,02,04,09,10,15,26,27,,,,,,2.5,1.8,1.7*31
$GPRMC,165821.000,A,2233.2177,N,11413.7924,E,0.0,303.6,040191,,,A*61
$GPGGA,165821.000,2233.2177,N,11413.7924,E,1,07,1.8,17.0,M,14.2,M,,0000*67
$GPVTG,303.6,T,,M,0.0,N,0.0,K,A*0B
$GPGLL,2233.2177,N,11413.7924,E,165821.00,A,A*6D
$GPGSA,A,3,02,04,09,10,15,26,27,,,,,,2.5,1.8,1.7*31
$GPGSV,3,1,11,10,17,056,23,05,44,020,17,02,45,104,13,04,10,120,23*7C
$GPGSV,3,2,11,27,17,169,35,26,83,058,18,15,66,220,32,09,07,182,35*7E
$GPGSV,3,3,11,29,41,295,18,08,14,065,,18,04,267,*40
$GPRMC,165822.000,A,2233.2177,N,11413.7924,E,0.0,303.6,040191,,,A*62
$GPGGA,165822.000,2233.2177,N,11413.7924,E,1,07,1.8,17.0,M,14.2,M,,0000*64
$GPVTG,303.6,T,,M,0.0,N,0.0,K,A*0B
$GPGLL,2233.2177,N,11413.7924,E,165822.00,A,A*6E
$GPGSA,A,3,02,04,09,10,15,26,27,,,,,,2.5,1.8,1.7*31
$GPRMC,165823.000,A,2233.2177,N,11413.7924,E,0.0,303.6,040191,,,A*63
$GPGGA,165823.000,2233.2177,N,11413.7924,E,1,07,1.8,17.0,M,14.2,M,,0000*65
$GPVTG,303.6,T,,M,0.0,N,0.0,K,A*0B
$GPGLL,2233.2177,N,11413.7924,E,165823.00,A,A*6F
$GPGSA,A,3,02,04,09,10,15,26,27,,,,,,2.5,1.8,1.7*31
$GPRMC,165824.000,A,2233.2177,N,11413.7924,E,0.0,303.6,040191,,,A*64
$GPGGA,165824.000,2233.2177,N,11413.7924,E,1,07,1.8,17.0,M,14.2,M,,0000*62
$GPVTG,303.6,T,,M,0.0,N,0.0,K,A*0B
$GPGLL,2233.2177,N,11413.7924,E,165824.00,A,A*68
$GPGSA,A,3,02,04,09,10,15,26,27,,,,,,2.5,1.8,1.7*31
$GPRMC,165825.000,A,2233.2177,N,11413.7924,E,0.0,303.6,040191,,,A*65
$GPGGA,165825.000,2233.2177,N,11413.7924,E,1,07,1.8,17.0,M,14.2,M,,0000*63
$GPVTG,303.6,T,,M,0.0,N,0.0,K,A*0B
$GPGLL,2233.2177,N,11413.7924,E,165825.00,A,A*69
$GPGSA,A,3,02,04,09,10,15,26,27,,,,,,2.5,1.8,1.7*31
$GPRMC,165826.000,A,2233.2177,N,11413.7924,E,0.0,303.6,040191,,,A*66
$GPGGA,165826.000,2233.2177,N,11413.7924,E,1,07,1.8,17.0,M,14.2,M,,0000*60
$GPVTG,303.6,T,,M,0.0,N,0.0,K,A*0B
$GPGLL,2233.2177,N,11413.7924,E,165826.00,A,A*6A
$GPGSA,A,3,02,04,09,10,15,26,27,,,,,,2.5,1.8,1.7*31
$GPGSV,3,1,11,10,17,056,22,02,45,104,14,04,10,120,23,27,17,169,35*70
$GPGSV,3,2,11,26,83,058,17,15,66,221,33,09,07,182,35,29,41,295,17*7C
$GPGSV,3,3,11,05,44,020,,08,14,065,,18,04,267,*4E
$GPRMC,165827.000,A,2233.2177,N,11413.7924,E,0.0,303.6,040191,,,A*67
$GPGGA,165827.000,2233.2177,N,11413.7924,E,1,07,1.8,17.0,M,14.2,M,,0000*61
$GPVTG,303.6,T,,M,0.0,N,0.0,K,A*0B
$GPGLL,2233.2177,N,11413.7924,E,165827.00,A,A*6B
$GPGSA,A,3,02,04,09,10,15,26,27,,,,,,2.5,1.8,1.7*31
$GPRMC,165828.000,A,2233.2177,N,11413.7924,E,0.0,303.6,040191,,,A*68
$GPGGA,165828.000,2233.2177,N,11413.7924,E,1,07,1.8,17.0,M,14.2,M,,0000*6E
$GPVTG,303.6,T,,M,0.0,N,0.0,K,A*0B
$GPGLL,2233.2177,N,11413.7924,E,165828.00,A,A*64
$GPGSA,A,3,02,04,09,10,15,26,27,,,,,,2.5,1.8,1.7*31
$GPRMC,165829.000,A,2233.2177,N,11413.7924,E,0.0,303.6,040191,,,A*69
$GPGGA,165829.000,2233.2177,N,11413.7924,E,1,07,1.8,17.0,M,14.2,M,,0000*6F
$GPVTG,303.6,T,,M,0.0,N,0.0,K,A*0B
$GPGLL,2233.2177,N,11413.7924,E,165829.00,A,A*65
$GPGSA,A,3,02,04,09,10,15,26,27,,,,,,2.5,1.8,1.7*31
$GPRMC,165830.000,A,2233.2177,N,11413.7924,E,0.0,303.6,040191,,,A*61
$GPGGA,165830.000,2233.2177,N,11413.7924,E,1,07,1.8,17.0,M,14.2,M,,0000*67
$GPVTG,303.6,T,,M,0.0,N,0.0,K,A*0B
$GPGLL,2233.2177,N,11413.7924,E,165830.00,A,A*6D
$GPGSA,A,3,02,04,09,10,15,26,27,,,,,,2.5,1.8,1.7*31
$GPRMC,165831.000,A,2233.2177,N,11413.7924,E,0.0,303.6,040191,,,A*60
$GPGGA,165831.000,2233.2177,N,11413.7924,E,1,08,1.5,17.0,M,14.2,M,,0000*64
$GPVTG,303.6,T,,M,0.0,N,0.0,K,A*0B
$GPGLL,2233.2177,N,11413.7924,E,165831.00,A,A*6C
$GPGSA,A,3,02,04,05,09,10,15,26,27,,,,,2.1,1.5,1.5*3F
$GPGSV,3,1,11,10,17,056,22,05,44,020,13,02,45,104,14,04,10,120,23*7E
$GPGSV,3,2,11,27,17,169,36,26,83,058,18,15,66,221,32,09,07,182,34*7D
$GPGSV,3,3,11,29,41,295,17,08,14,065,,18,04,267,*4F
$GPRMC,165832.000,A,2233.2177,N,11413.7924,E,0.0,303.6,040191,,,A*63
$GPGGA,165832.000,2233.2177,N,11413.7924,E,1,08,1.5,17.0,M,14.2,M,,0000*67
$GPVTG,303.6,T,,M,0.0,N,0.0,K,A*0B
$GPGLL,2233.2177,N,11413.7924,E,165832.00,A,A*6F
$GPGSA,A,3,02,04,05,09,10,15,26,27,,,,,2.1,1.5,1.5*3F
$GPRMC,165833.000,A,2233.2177,N,11413.7924,E,0.0,303.6,040191,,,A*62
$GPGGA,165833.000,2233.2177,N,11413.7924,E,1,08,1.5,17.0,M,14.2,M,,0000*66
$GPVTG,303.6,T,,M,0.0,N,0.0,K,A*0B
$GPGLL,2233.2177,N,11413.7924,E,165833.00,A,A*6E
$GPGSA,A,3,02,04,05,09,10,15,26,27,,,,,2.1,1.5,1.5*3F
$GPRMC,165834.000,A,2233.2177,N,11413.7924,E,0.0,303.6,040191,,,A*65
$GPGGA,165834.000,2233.2177,N,11413.7924,E,1,08,1.5,17.0,M,14.2,M,,0000*61
$GPVTG,303.6,T,,M,0.0,N,0.0,K,A*0B
$GPGLL,2233.2177,N,11413.7924,E,165834.00,A,A*69
$GPGSA,A,3,02,04,05,09,10,15,26,27,,,,,2.1,1.5,1.5*3F
$GPRMC,165835.000,A,2233.2177,N,11413.7924,E,0.0,303.6,040191,,,A*64
$GPGGA,165835.000,2233.2177,N,11413.7924,E,1,08,1.5,17.0,M,14.2,M,,0000*60
$GPVTG,303.6,T,,M,0.0,N,0.0,K,A*0B
$GPGLL,2233.2177,N,11413.7924,E,165835.00,A,A*68
$GPGSA,A,3,02,04,05,09,10,15,26,27,,,,,2.1,1.5,1.5*3F
$GPRMC,165836.000,A,2233.2177,N,11413.7924,E,0.0,303.6,040191,,,A*67
$GPGGA,165836.000,2233.2177,N,11413.7924,E,1,08,1.5,17.0,M,14.2,M,,0000*63
$GPVTG,303.6,T,,M,0.0,N,0.0,K,A*0B
$GPGLL,2233.2177,N,11413.7924,E,165836.00,A,A*6B
$GPGSA,A,3,02,04,05,09,10,15,26,27,,,,,2.1,1.5,1.5*3F
$GPGSV,3,1,11,10,17,056,23,05,44,020,15,02,45,104,14,04,10,120,22*78
$GPGSV,3,2,11,27,17,169,35,26,83,057,21,15,66,221,32,09,07,182,34*7B
$GPGSV,3,3,11,29,41,295,17,08,14,065,,18,04,267,*4F
$GPRMC,165837.000,A,2233.2177,N,11413.7924,E,0.0,303.6,040191,,,A*66
$GPGGA,165837.000,2233.2177,N,11413.7924,E,1,08,1.5,17.0,M,14.2,M,,0000*62
$GPVTG,303.6,T,,M,0.0,N,0.0,K,A*0B
$GPGLL,2233.2177,N,11413.7924,E,165837.00,A,A*6A
$GPGSA,A,3,02,04,05,09,10,15,26,27,,,,,2.1,1.5,1.5*3F
$GPRMC,165838.000,A,2233.2177,N,11413.7924,E,0.0,303.6,040191,,,A*69
$GPGGA,165838.000,2233.2177,N,11413.7924,E,1,08,1.5,17.0,M,14.2,M,,0000*6D
$GPVTG,303.6,T,,M,0.0,N,0.0,K,A*0B
$GPGLL,2233.2177,N,11413.7924,E,165838.00,A,A*65
$GPGSA,A,3,02,04,05,09,10,15,26,27,,,,,2.1,1.5,1.5*3F
$GPRMC,165839.000,A,2233.2177,N,11413.7924,E,0.0,303.6,040191,,,A*68
$GPGGA,165839.000,2233.2177,N,11413.7924,E,1,08,1.5,17.0,M,14.2,M,,0000*6C
$GPVTG,303.6,T,,M,0.0,N,0.0,K,A*0B
$GPGLL,2233.2177,N,11413.7924,E,165839.00,A,A*64
$GPGSA,A,3,02,04,05,09,10,15,26,27,,,,,2.1,1.5,1.5*3F
$GPRMC,165840.000,A,2233.2177,N,11413.7924,E,0.0,303.6,040191,,,A*66
$GPGGA,165840.000,2233.2177,N,11413.7924,E,1,08,1.5,17.0,M,14.2,M,,0000*62
$GPVTG,303.6,T,,M,0.0,N,0.0,K,A*0B
$GPGLL,2233.2177,N,11413.7924,E,165840.00,A,A*6A
$GPGSA,A,3,02,04,05,09,10,15,26,27,,,,,2.1,1.5,1.5*3F
$GPRMC,165841.000,A,2233.2177,N,11413.7924,E,0.0,303.6,040191,,,A*67
$GPGGA,165841.000,2233.2177,N,11413.7924,E,1,08,1.5,17.0,M,14.2,M,,0000*63
$GPVTG,303.6,T,,M,0.0,N,0.0,K,A*0B
$GPGLL,2233.2177,N,11413.7924,E,165841.00,A,A*6B
$GPGSA,A,3,02,04,05,09,10,15,26,27,,,,,2.1,1.5,1.5*3F
$GPGSV,3,1,11,10,17,056,23,05,44,020,15,02,45,104,14,04,10,120,23*79
$GPGSV,3,2,11,27,17,169,36,26,83,057,24,15,66,221,31,09,07,182,34*7E
$GPGSV,3,3,11,29,41,295,15,08,14,065,,18,04,267,*4D
$GPRMC,165842.000,A,2233.2177,N,11413.7924,E,0.0,303.6,040191,,,A*64
$GPGGA,165842.000,2233.2177,N,11413.7924,E,1,08,1.5,17.0,M,14.2,M,,0000*60
$GPVTG,303.6,T,,M,0.0,N,0.0,K,A*0B
$GPGLL,2233.2177,N,11413.7924,E,165842.00,A,A*68
$GPGSA,A,3,02,04,05,09,10,15,26,27,,,,,2.1,1.5,1.5*3F
$GPRMC,165843.000,A,2233.2177,N,11413.7924,E,0.0,303.6,040191,,,A*65
$GPGGA,165843.000,2233.2177,N,11413.7924,E,1,08,1.5,17.0,M,14.2,M,,0000*61
$GPVTG,303.6,T,,M,0.0,N,0.0,K,A*0B
$GPGLL,2233.2177,N,11413.7924,E,165843.00,A,A*69
$GPGSA,A,3,02,04,05,09,10,15,26,27,,,,,2.1,1.5,1.5*3F
$GPRMC,165844.000,A,2233.2177,N,11413.7924,E,0.0,303.6,040191,,,A*62
$GPGGA,165844.000,2233.2177,N,11413.7924,E,1,08,1.5,17.0,M,14.2,M,,0000*66
$GPVTG,303.6,T,,M,0.0,N,0.0,K,A*0B
$GPGLL,2233.2177,N,11413.7924,E,165844.00,A,A*6E
$GPGSA,A,3,02,04,05,09,10,15,26,27,,,,,2.1,1.5,1.5*3F
$GPRMC,165845.000,A,2233.2177,N,11413.7924,E,0.0,303.6,040191,,,A*63
$GPGGA,165845.000,2233.2177,N,11413.7924,E,1,08,1.5,17.0,M,14.2,M,,0000*67
$GPVTG,303.6,T,,M,0.0,N,0.0,K,A*0B
$GPGLL,2233.2177,N,11413.7924,E,165845.00,A,A*6F
$GPGSA,A,3,02,04,05,09,10,15,26,27,,,,,2.1,1.5,1.5*3F
$GPRMC,165846.000,A,2233.2177,N,11413.7924,E,0.0,303.6,040191,,,A*60
$GPGGA,165846.000,2233.2177,N,11413.7924,E,1,08,1.5,17.0,M,14.2,M,,0000*64
$GPVTG,303.6,T,,M,0.0,N,0.0,K,A*0B
$GPGLL,2233.2177,N,11413.7924,E,165846.00,A,A*6C
$GPGSA,A,3,02,04,05,09,10,15,26,27,,,,,2.1,1.5,1.5*3F
$GPGSV,3,1,11,10,17,056,22,05,44,020,14,02,45,104,14,04,10,120,23*79
$GPGSV,3,2,11,27,17,169,35,26,83,057,22,15,66,221,31,09,07,182,35*7A
$GPGSV,3,3,11,29,41,295,18,08,14,065,,18,04,267,*40
$GPRMC,165847.000,A,2233.2177,N,11413.7924,E,0.0,303.6,040191,,,A*61
$GPGGA,165847.000,2233.2177,N,11413.7924,E,1,08,1.5,17.0,M,14.2,M,,0000*65
$GPVTG,303.6,T,,M,0.0,N,0.0,K,A*0B
$GPGLL,2233.2177,N,11413.7924,E,165847.00,A,A*6D
$GPGSA,A,3,02,04,05,09,10,15,26,27,,,,,2.1,1.5,1.5*3F
$GPRMC,165848.000,A,2233.2177,N,11413.7924,E,0.0,303.6,040191,,,A*6E
$GPGGA,165848.000,2233.2177,N,11413.7924,E,1,08,1.5,17.0,M,14.2,M,,0000*6A
$GPVTG,303.6,T,,M,0.0,N,0.0,K,A*0B
$GPGLL,2233.2177,N,11413.7924,E,165848.00,A,A*62
$GPGSA,A,3,02,04,05,09,10,15,26,27,,,,,2.1,1.5,1.5*3F
$GPRMC,165849.000,A,2233.2177,N,11413.7924,E,0.0,303.6,040191,,,A*6F
$GPGGA,165849.000,2233.2177,N,11413.7924,E,1,08,1.5,17.0,M,14.2,M,,0000*6B
$GPVTG,303.6,T,,M,0.0,N,0.0,K,A*0B
$GPGLL,2233.2177,N,11413.7924,E,165849.00,A,A*63
$GPGSA,A,3,02,04,05,09,10,15,26,27,,,,,2.1,1.5,1.5*3F
$GPRMC,165850.000,A,2233.2177,N,11413.7924,E,0.0,303.6,040191,,,A*67
$GPGGA,165850.000,2233.2177,N,11413.7924,E,1,08,1.5,17.0,M,14.2,M,,0000*63
$GPVTG,303.6,T,,M,0.0,N,0.0,K,A*0B
$GPGLL,2233.2177,N,11413.7924,E,165850.00,A,A*6B
$GPGSA,A,3,02,04,05,09,10,15,26,27,,,,,2.1,1.5,1.5*3F
$GPRMC,165851.000,A,2233.2177,N,11413.7924,E,0.0,303.6,040191,,,A*66
$GPGGA,165851.000,2233.2177,N,11413.7924,E,1,08,1.5,17.0,M,14.2,M,,0000*62
$GPVTG,303.6,T,,M,0.0,N,0.0,K,A*0B
$GPGLL,2233.2177,N,11413.7924,E,165851.00,A,A*6A
$GPGSA,A,3,02,04,05,09,10,15,26,27,,,,,2.1,1.5,1.5*3F
$GPGSV,3,1,11,10,17,056,23,05,44,020,14,02,45,104,15,04,10,120,23*79
$GPGSV,3,2,11,27,17,169,35,26,83,057,23,15,66,221,29,09,07,182,35*72
$GPGSV,3,3,11,29,41,294,16,08,14,065,,18,04,268,*40
$GPRMC,165852.000,A,2233.2177,N,11413.7924,E,0.0,303.6,040191,,,A*65
$GPGGA,165852.000,2233.2177,N,11413.7924,E,1,08,1.5,17.0,M,14.2,M,,0000*61
$GPVTG,303.6,T,,M,0.0,N,0.0,K,A*0B
$GPGLL,2233.2177,N,11413.7924,E,165852.00,A,A*69
$GPGSA,A,3,02,04,05,09,10,15,26,27,,,,,2.1,1.5,1.5*3F
$GPRMC,165853.000,A,2233.2177,N,11413.7924,E,0.0,303.6,040191,,,A*64
$GPGGA,165853.000,2233.2177,N,11413.7924,E,1,08,1.5,17.0,M,14.2,M,,0000*60
$GPVTG,303.6,T,,M,0.0,N,0.0,K,A*0B
$GPGLL,2233.2177,N,11413.7924,E,165853.00,A,A*68
$GPGSA,A,3,02,04,05,09,10,15,26,27,,,,,2.1,1.5,1.5*3F
$GPRMC,165854.000,A,2233.2177,N,11413.7924,E,0.0,303.6,040191,,,A*63
$GPGGA,165854.000,2233.2177,N,11413.7924,E,1,08,1.5,17.0,M,14.2,M,,0000*67
$GPVTG,303.6,T,,M,0.0,N,0.0,K,A*0B
$GPGLL,2233.2177,N,11413.7924,E,165854.00,A,A*6F
$GPGSA,A,3,02,04,05,09,10,15,26,27,,,,,2.1,1.5,1.5*3F
$GPRMC,165855.000,A,2233.2177,N,11413.7924,E,0.0,303.6,040191,,,A*62
$GPGGA,165855.000,2233.2177,N,11413.7924,E,1,08,1.5,17.0,M,14.2,M,,0000*66
$GPVTG,303.6,T,,M,0.0,N,0.0,K,A*0B
$GPGLL,2233.2177,N,11413.7924,E,165855.00,A,A*6E
$GPGSA,A,3,02,04,05,09,10,15,26,27,,,,,2.1,1.5,1.5*3F
$GPRMC,165856.000,A,2233.2177,N,11413.7924,E,0.0,303.6,040191,,,A*61
$GPGGA,165856.000,2233.2177,N,11413.7924,E,1,08,1.5,17.0,M,14.2,M,,0000*65
$GPVTG,303.6,T,,M,0.0,N,0.0,K,A*0B
$GPGLL,2233.2177,N,11413.7924,E,165856.00,A,A*6D
$GPGSA,A,3,02,04,05,09,10,15,26,27,,,,,2.1,1.5,1.5*3F
$GPGSV,3,1,11,10,17,056,23,05,44,020,13,02,44,104,16,04,10,120,24*7B
$GPGSV,3,2,11,27,17,169,35,26,83,056,23,15,66,221,28,09,07,182,34*73
$GPGSV,3,3,11,29,41,294,14,08,14,065,,18,04,268,*42
$GPRMC,165857.000,A,2233.2177,N,11413.7924,E,0.0,303.6,040191,,,A*60
$GPGGA,165857.000,2233.2177,N,11413.7924,E,1,08,1.5,17.0,M,14.2,M,,0000*64
$GPVTG,303.6,T,,M,0.0,N,0.0,K,A*0B
$GPGLL,2233.2177,N,11413.7924,E,165857.00,A,A*6C
$GPGSA,A,3,02,04,05,09,10,15,26,27,,,,,2.1,1.5,1.5*3F
$GPRMC,165858.000,A,2233.2177,N,11413.7924,E,0.0,303.6,040191,,,A*6F
$GPGGA,165858.000,2233.2177,N,11413.7924,E,1,08,1.5,17.0,M,14.2,M,,0000*6B
$GPVTG,303.6,T,,M,0.0,N,0.0,K,A*0B
$GPGLL,2233.2177,N,11413.7924,E,165858.00,A,A*63
$GPGSA,A,3,02,04,05,09,10,15,26,27,,,,,2.1,1.5,1.5*3F
$GPRMC,165859.000,A,2233.2177,N,11413.7924,E,0.0,303.6,040191,,,A*6E
$GPGGA,165859.000,2233.2177,N,11413.7924,E,1,08,1.5,17.0,M,14.2,M,,0000*6A
$GPVTG,303.6,T,,M,0.0,N,0.0,K,A*0B
$GPGLL,2233.2177,N,11413.7924,E,165859.00,A,A*62
$GPGSA,A,3,02,04,05,09,10,15,26,27,,,,,2.1,1.5,1.5*3F
$GPRMC,165900.000,A,2233.2177,N,11413.7924,E,0.0,303.6,040191,,,A*63
$GPGGA,165900.000,2233.2177,N,11413.7924,E,1,08,1.5,17.0,M,14.2,M,,0000*67
$GPVTG,303.6,T,,M,0.0,N,0.0,K,A*0B
$GPGLL,2233.2177,N,11413.7924,E,165900.00,A,A*6F
$GPGSA,A,3,02,04,05,09,10,15,26,27,,,,,2.1,1.5,1.5*3F
$GPRMC,165901.000,A,2233.2177,N,11413.7924,E,0.0,303.6,040191,,,A*62
$GPGGA,165901.000,2233.2177,N,11413.7924,E,1,08,1.5,17.0,M,14.2,M,,0000*66
$GPVTG,303.6,T,,M,0.0,N,0.0,K,A*0B
$GPGLL,2233.2177,N,11413.7924,E,165901.00,A,A*6E
$GPGSA,A,3,02,04,05,09,10,15,26,27,,,,,2.1,1.5,1.5*3F
$GPGSV,3,1,11,10,17,056,23,05,44,020,11,02,44,104,15,04,10,120,25*7B
$GPGSV,3,2,11,27,17,169,35,26,83,056,24,15,66,221,29,09,07,182,34*75
$GPGSV,3,3,11,29,41,294,15,08,14,065,,18,04,268,*43
$GPRMC,165902.000,A,2233.2177,N,11413.7924,E,0.0,303.6,040191,,,A*61
$GPGGA,165902.000,2233.2177,N,11413.7924,E,1,08,1.5,17.0,M,14.2,M,,0000*65
$GPVTG,303.6,T,,M,0.0,N,0.0,K,A*0B
$GPGLL,2233.2177,N,11413.7924,E,165902.00,A,A*6D
$GPGSA,A,3,02,04,05,09,10,15,26,27,,,,,2.1,1.5,1.5*3F
$GPRMC,165903.000,A,2233.2177,N,11413.7924,E,0.0,303.6,040191,,,A*60
$GPGGA,165903.000,2233.2177,N,11413.7924,E,1,08,1.5,17.0,M,14.2,M,,0000*64
$GPVTG,303.6,T,,M,0.0,N,0.0,K,A*0B
$GPGLL,2233.2177,N,11413.7924,E,165903.00,A,A*6C
$GPGSA,A,3,02,04,05,09,10,15,26,27,,,,,2.2,1.5,1.6*3F
$GPRMC,165904.000,A,2233.2177,N,11413.7924,E,0.0,303.6,040191,,,A*67
$GPGGA,165904.000,2233.2177,N,11413.7924,E,1,08,1.5,17.0,M,14.2,M,,0000*63
$GPVTG,303.6,T,,M,0.0,N,0.0,K,A*0B
$GPGLL,2233.2177,N,11413.7924,E,165904.00,A,A*6B
$GPGSA,A,3,02,04,05,09,10,15,26,27,,,,,2.2,1.5,1.6*3F
$GPRMC,165905.000,A,2233.2177,N,11413.7924,E,0.0,303.6,040191,,,A*66
$GPGGA,165905.000,2233.2177,N,11413.7924,E,1,08,1.5,17.0,M,14.2,M,,0000*62
$GPVTG,303.6,T,,M,0.0,N,0.0,K,A*0B
$GPGLL,2233.2177,N,11413.7924,E,165905.00,A,A*6A
$GPGSA,A,3,02,04,05,09,10,15,26,27,,,,,2.2,1.5,1.6*3F
$GPRMC,165906.000,A,2233.2177,N,11413.7924,E,0.0,303.6,040191,,,A*65
$GPGGA,165906.000,2233.2177,N,11413.7924,E,1,08,1.5,17.0,M,14.2,M,,0000*61
$GPVTG,303.6,T,,M,0.0,N,0.0,K,A*0B
$GPGLL,2233.2177,N,11413.7924,E,165906.00,A,A*69
$GPGSA,A,3,02,04,05,09,10,15,26,27,,,,,2.2,1.5,1.6*3F
$GPGSV,3,1,11,10,17,056,24,05,44,020,12,02,44,104,14,04,10,120,24*7F
$GPGSV,3,2,11,27,17,169,35,26,82,056,26,15,66,221,28,09,07,182,33*70
$GPGSV,3,3,11,29,41,294,17,08,14,065,,18,04,268,*41
$GPRMC,165907.000,A,2233.2177,N,11413.7924,E,0.0,303.6,040191,,,A*64
$GPGGA,165907.000,2233.2177,N,11413.7924,E,1,08,1.5,17.0,M,14.2,M,,0000*60
$GPVTG,303.6,T,,M,0.0,N,0.0,K,A*0B
$GPGLL,2233.2177,N,11413.7924,E,165907.00,A,A*68
$GPGSA,A,3,02,04,05,09,10,15,26,27,,,,,2.2,1.5,1.6*3F
$GPRMC,165908.000,A,2233.2177,N,11413.7924,E,0.0,303.6,040191,,,A*6B
$GPGGA,165908.000,2233.2177,N,11413.7924,E,1,08,1.5,17.0,M,14.2,M,,0000*6F
$GPVTG,303.6,T,,M,0.0,N,0.0,K,A*0B
$GPGLL,2233.2177,N,11413.7924,E,165908.00,A,A*67
$GPGSA,A,3,02,04,05,09,10,15,26,27,,,,,2.2,1.5,1.6*3F
$GPRMC,165909.000,A,2233.2177,N,11413.7924,E,0.0,303.6,040191,,,A*6A
$GPGGA,165909.000,2233.2177,N,11413.7924,E,1,08,1.5,17.0,M,14.2,M,,0000*6E
$GPVTG,303.6,T,,M,0.0,N,0.0,K,A*0B
$GPGLL,2233.2177,N,11413.7924,E,165909.00,A,A*66
$GPGSA,A,3,02,04,05,09,10,15,26,27,,,,,2.2,1.5,1.6*3F
$GPRMC,165910.000,A,2233.2177,N,11413.7924,E,0.0,303.6,040191,,,A*62
$GPGGA,165910.000,2233.2177,N,11413.7924,E,1,08,1.5,17.0,M,14.2,M,,0000*66
$GPVTG,303.6,T,,M,0.0,N,0.0,K,A*0B
$GPGLL,2233.2177,N,11413.7924,E,165910.00,A,A*6E
$GPGSA,A,3,02,04,05,09,10,15,26,27,,,,,2.2,1.5,1.6*3F
$GPRMC,165911.000,A,2233.2177,N,11413.7924,E,0.0,303.6,040191,,,A*63
$GPGGA,165911.000,2233.2177,N,11413.7924,E,1,08,1.5,17.0,M,14.2,M,,0000*67
$GPVTG,303.6,T,,M,0.0,N,0.0,K,A*0B
$GPGLL,2233.2177,N,11413.7924,E,165911.00,A,A*6F
$GPGSA,A,3,02,04,05,09,10,15,26,27,,,,,2.2,1.5,1.6*3F
$GPGSV,3,1,11,10,17,056,22,05,44,020,14,02,44,105,15,04,10,120,25*7E
$GPGSV,3,2,11,27,17,169,35,26,82,055,25,15,66,221,28,09,07,182,33*70
$GPGSV,3,3,11,29,41,294,19,08,14,065,,18,04,268,*4F
$GPRMC,165912.000,A,2233.2177,N,11413.7924,E,0.0,303.6,040191,,,A*60
$GPGGA,165912.000,2233.2177,N,11413.7924,E,1,08,1.5,17.0,M,14.2,M,,0000*64
$GPVTG,303.6,T,,M,0.0,N,0.0,K,A*0B
$GPGLL,2233.2177,N,11413.7924,E,165912.00,A,A*6C
$GPGSA,A,3,02,04,05,09,10,15,26,27,,,,,2.2,1.5,1.6*3F
$GPRMC,165913.000,A,2233.2177,N,11413.7924,E,0.0,303.6,040191,,,A*61
$GPGGA,165913.000,2233.2177,N,11413.7924,E,1,08,1.5,17.0,M,14.2,M,,0000*65
$GPVTG,303.6,T,,M,0.0,N,0.0,K,A*0B
$GPGLL,2233.2177,N,11413.7924,E,165913.00,A,A*6D
$GPGSA,A,3,02,04,05,09,10,15,26,27,,,,,2.2,1.5,1.6*3F
$GPRMC,165914.000,A,2233.2177,N,11413.7924,E,0.0,303.6,040191,,,A*66
$GPGGA,165914.000,2233.2177,N,11413.7924,E,1,08,1.5,17.0,M,14.2,M,,0000*62
$GPVTG,303.6,T,,M,0.0,N,0.0,K,A*0B
$GPGLL,2233.2177,N,11413.7924,E,165914.00,A,A*6A
$GPGSA,A,3,02,04,05,09,10,15,26,27,,,,,2.2,1.5,1.6*3F
$GPRMC,165915.000,A,2233.2177,N,11413.7924,E,0.0,303.6,040191,,,A*67
$GPGGA,165915.000,2233.2177,N,11413.7924,E,1,08,1.5,17.0,M,14.2,M,,0000*63
$GPVTG,303.6,T,,M,0.0,N,0.0,K,A*0B
$GPGLL,2233.2177,N,11413.7924,E,165915.00,A,A*6B
$GPGSA,A,3,02,04,05,09,10,15,26,27,,,,,2.2,1.5,1.6*3F
$GPRMC,165916.000,A,2233.2177,N,11413.7924,E,0.0,303.6,040191,,,A*64
$GPGGA,165916.000,2233.2177,N,11413.7924,E,1,08,1.5,17.0,M,14.2,M,,0000*60
$GPVTG,303.6,T,,M,0.0,N,0.0,K,A*0B
$GPGLL,2233.2177,N,11413.7924,E,165916.00,A,A*68
$GPGSA,A,3,02,04,05,09,10,15,26,27,,,,,2.2,1.5,1.6*3F
$GPGSV,3,1,11,10,17,056,21,05,44,020,19,02,44,105,16,04,10,120,24*72
$GPGSV,3,2,11,27,17,169,36,26,82,055,26,15,66,221,26,09,07,182,34*79
$GPGSV,3,3,11,29,41,294,18,08,14,065,,18,04,268,*4E
$GPRMC,165917.000,A,2233.2177,N,11413.7924,E,0.0,303.6,040191,,,A*65
$GPGGA,165917.000,2233.2177,N,11413.7924,E,1,08,1.5,17.0,M,14.2,M,,0000*61
$GPVTG,303.6,T,,M,0.0,N,0.0,K,A*0B
$GPGLL,2233.2177,N,11413.7924,E,165917.00,A,A*69
$GPGSA,A,3,02,04,05,09,10,15,26,27,,,,,2.2,1.5,1.6*3F
$GPRMC,165918.000,A,2233.2177,N,11413.7924,E,0.0,303.6,040191,,,A*6A
$GPGGA,165918.000,2233.2177,N,11413.7924,E,1,08,1.5,17.0,M,14.2,M,,0000*6E
$GPVTG,303.6,T,,M,0.0,N,0.0,K,A*0B
$GPGLL,2233.2177,N,11413.7924,E,165918.00,A,A*66
$GPGSA,A,3,02,04,05,09,10,15,26,27,,,,,2.2,1.5,1.6*3F
$GPRMC,165919.000,A,2233.2177,N,11413.7924,E,0.0,303.6,040191,,,A*6B
$GPGGA,165919.000,2233.2177,N,11413.7924,E,1,08,1.5,17.0,M,14.2,M,,0000*6F
$GPVTG,303.6,T,,M,0.0,N,0.0,K,A*0B
$GPGLL,2233.2177,N,11413.7924,E,165919.00,A,A*67
$GPGSA,A,3,02,04,05,09,10,15,26,27,,,,,2.2,1.5,1.6*3F
$GPRMC,165920.000,A,2233.2177,N,11413.7924,E,0.0,303.6,040191,,,A*61
$GPGGA,165920.000,2233.2177,N,11413.7924,E,1,08,1.5,17.0,M,14.2,M,,0000*65
$GPVTG,303.6,T,,M,0.0,N,0.0,K,A*0B
$GPGLL,2233.2177,N,11413.7924,E,165920.00,A,A*6D
$GPGSA,A,3,02,04,05,09,10,15,26,27,,,,,2.2,1.5,1.6*3F
$GPRMC,165921.000,A,2233.2177,N,11413.7924,E,0.0,303.6,040191,,,A*60
$GPGGA,165921.000,2233.2177,N,11413.7924,E,1,08,1.5,17.0,M,14.2,M,,0000*64
$GPVTG,303.6,T,,M,0.0,N,0.0,K,A*0B
$GPGLL,2233.2177,N,11413.7924,E,165921.00,A,A*6C
$GPGSA,A,3,02,04,05,09,10,15,26,27,,,,,2.2,1.5,1.6*3F
$GPGSV,3,1,11,10,17,056,23,05,44,020,20,02,44,105,15,04,10,120,26*7B
$GPGSV,3,2,11,27,17,169,35,26,82,055,26,15,66,221,26,09,07,182,35*7B
$GPGSV,3,3,11,29,41,294,15,08,14,065,,18,04,268,*43
$GPRMC,165922.000,A,2233.2177,N,11413.7924,E,0.0,303.6,040191,,,A*63
$GPGGA,165922.000,2233.2177,N,11413.7924,E,1,08,1.5,17.0,M,14.2,M,,0000*67
$GPVTG,303.6,T,,M,0.0,N,0.0,K,A*0B
$GPGLL,2233.2177,N,11413.7924,E,165922.00,A,A*6F
$GPGSA,A,3,02,04,05,09,10,15,26,27,,,,,2.2,1.5,1.6*3F
$GPRMC,165923.000,A,2233.2177,N,11413.7924,E,0.0,303.6,040191,,,A*62
$GPGGA,165923.000,2233.2177,N,11413.7924,E,1,08,1.5,17.0,M,14.2,M,,0000*66
$GPVTG,303.6,T,,M,0.0,N,0.0,K,A*0B
$GPGLL,2233.2177,N,11413.7924,E,165923.00,A,A*6E
$GPGSA,A,3,02,04,05,09,10,15,26,27,,,,,2.2,1.5,1.6*3F
$GPRMC,165924.000,A,2233.2177,N,11413.7924,E,0.0,303.6,040191,,,A*65
$GPGGA,165924.000,2233.2177,N,11413.7924,E,1,08,1.5,17.0,M,14.2,M,,0000*61
$GPVTG,303.6,T,,M,0.0,N,0.0,K,A*0B
$GPGLL,2233.2177,N,11413.7924,E,165924.00,A,A*69
$GPGSA,A,3,02,04,05,09,10,15,26,27,,,,,2.2,1.5,1.6*3F
$GPRMC,165925.000,A,2233.2177,N,11413.7924,E,0.0,303.6,040191,,,A*64
$GPGGA,165925.000,2233.2177,N,11413.7924,E,1,08,1.5,17.0,M,14.2,M,,0000*60
$GPVTG,303.6,T,,M,0.0,N,0.0,K,A*0B
$GPGLL,2233.2177,N,11413.7924,E,165925.00,A,A*68
$GPGSA,A,3,02,04,05,09,10,15,26,27,,,,,2.2,1.5,1.6*3F
$GPRMC,165926.000,A,2233.2177,N,11413.7924,E,0.0,303.6,040191,,,A*67
$GPGGA,165926.000,2233.2177,N,11413.7924,E,1,08,1.5,17.0,M,14.2,M,,0000*63
$GPVTG,303.6,T,,M,0.0,N,0.0,K,A*0B
$GPGLL,2233.2177,N,11413.7924,E,165926.00,A,A*6B
$GPGSA,A,3,02,04,05,09,10,15,26,27,,,,,2.2,1.5,1.6*3F
$GPGSV,3,1,11,10,17,056,23,05,44,020,20,02,44,105,13,04,10,120,25*7E
$GPGSV,3,2,11,27,17,169,35,26,82,055,28,15,66,221,23,09,07,182,36*73
$GPGSV,3,3,11,29,41,294,14,08,14,065,,18,05,268,*43
$GPRMC,165927.000,A,2233.2177,N,11413.7924,E,0.0,303.6,040191,,,A*66
$GPGGA,165927.000,2233.2177,N,11413.7924,E,1,08,1.5,17.0,M,14.2,M,,0000*62
$GPVTG,303.6,T,,M,0.0,N,0.0,K,A*0B
$GPGLL,2233.2177,N,11413.7924,E,165927.00,A,A*6A
$GPGSA,A,3,02,04,05,09,10,15,26,27,,,,,2.2,1.5,1.6*3F
$GPRMC,165928.000,A,2233.2177,N,11413.7924,E,0.0,303.6,040191,,,A*69
$GPGGA,165928.000,2233.2177,N,11413.7924,E,1,08,1.5,17.0,M,14.2,M,,0000*6D
$GPVTG,303.6,T,,M,0.0,N,0.0,K,A*0B
$GPGLL,2233.2177,N,11413.7924,E,165928.00,A,A*65
$GPGSA,A,3,02,04,05,09,10,15,26,27,,,,,2.2,1.5,1.6*3F
$GPRMC,165929.000,A,2233.2177,N,11413.7924,E,0.0,303.6,040191,,,A*68
$GPGGA,165929.000,2233.2177,N,11413.7924,E,1,08,1.5,17.0,M,14.2,M,,0000*6C
$GPVTG,303.6,T,,M,0.0,N,0.0,K,A*0B
$GPGLL,2233.2177,N,11413.7924,E,165929.00,A,A*64
$GPGSA,A,3,02,04,05,09,10,15,26,27,,,,,2.2,1.5,1.6*3F
$GPRMC,165930.000,A,2233.2177,N,11413.7924,E,0.0,303.6,040191,,,A*60
$GPGGA,165930.000,2233.2177,N,11413.7924,E,1,08,1.5,17.0,M,14.2,M,,0000*64
$GPVTG,303.6,T,,M,0.0,N,0.0,K,A*0B
$GPGLL,2233.2177,N,11413.7924,E,165930.00,A,A*6C
$GPGSA,A,3,02,04,05,09,10,15,26,27,,,,,2.2,1.5,1.6*3F
$GPRMC,165931.000,A,2233.2177,N,11413.7924,E,0.0,303.6,040191,,,A*61
$GPGGA,165931.000,2233.2177,N,11413.7924,E,1,08,1.5,17.0,M,14.2,M,,0000*65
$GPVTG,303.6,T,,M,0.0,N,0.0,K,A*0B
$GPGLL,2233.2177,N,11413.7924,E,165931.00,A,A*6D
$GPGSA,A,3,02,04,05,09,10,15,26,27,,,,,2.2,1.5,1.6*3F
$GPGSV,3,1,11,10,17,056,24,05,44,020,20,02,44,105,11,04,10,120,26*78
$GPGSV,3,2,11,27,17,169,35,26,82,054,25,15,67,221,24,09,07,181,35*79
$GPGSV,3,3,11,29,41,294,14,08,14,065,,18,05,268,*43
$GPRMC,165932.000,A,2233.2177,N,11413.7924,E,0.0,303.6,040191,,,A*62
$GPGGA,165932.000,2233.2177,N,11413.7924,E,1,08,1.5,17.0,M,14.2,M,,0000*66
$GPVTG,303.6,T,,M,0.0,N,0.0,K,A*0B
$GPGLL,2233.2177,N,11413.7924,E,165932.00,A,A*6E
$GPGSA,A,3,02,04,05,09,10,15,26,27,,,,,2.2,1.5,1.6*3F
$GPRMC,165933.000,A,2233.2177,N,11413.7924,E,0.0,303.6,040191,,,A*63
$GPGGA,165933.000,2233.2177,N,11413.7924,E,1,07,2.0,17.0,M,14.2,M,,0000*6E
$GPVTG,303.6,T,,M,0.0,N,0.0,K,A*0B
$GPGLL,2233.2177,N,11413.7924,E,165933.00,A,A*6F
$GPGSA,A,3,04,05,09,10,15,26,27,,,,,,2.9,2.0,2.1*34
$GPRMC,165934.000,A,2233.2177,N,11413.7924,E,0.0,303.6,040191,,,A*64
$GPGGA,165934.000,2233.2177,N,11413.7924,E,1,07,2.0,17.0,M,14.2,M,,0000*69
$GPVTG,303.6,T,,M,0.0,N,0.0,K,A*0B
$GPGLL,2233.2177,N,11413.7924,E,165934.00,A,A*68
$GPGSA,A,3,04,05,09,10,15,26,27,,,,,,2.9,2.0,2.1*34
$GPRMC,165935.000,A,2233.2177,N,11413.7924,E,0.0,303.6,040191,,,A*65
$GPGGA,165935.000,2233.2177,N,11413.7924,E,1,07,2.0,17.0,M,14.2,M,,0000*68
$GPVTG,303.6,T,,M,0.0,N,0.0,K,A*0B
$GPGLL,2233.2177,N,11413.7924,E,165935.00,A,A*69
$GPGSA,A,3,04,05,09,10,15,26,27,,,,,,2.9,2.0,2.1*34
$GPRMC,165936.000,A,2233.2177,N,11413.7924,E,0.0,303.6,040191,,,A*66
$GPGGA,165936.000,2233.2177,N,11413.7924,E,1,07,2.0,17.0,M,14.2,M,,0000*6B
$GPVTG,303.6,T,,M,0.0,N,0.0,K,A*0B
$GPGLL,2233.2177,N,11413.7924,E,165936.00,A,A*6A
$GPGSA,A,3,04,05,09,10,15,26,27,,,,,,2.9,2.0,2.1*34
$GPGSV,3,1,11,10,17,056,24,05,44,021,19,04,09,120,27,27,17,169,35*77
$GPGSV,3,2,11,26,82,054,25,15,67,221,26,09,07,181,34,29,41,294,14*75
$GPGSV,3,3,11,02,44,105,,08,14,065,,18,05,268,*41
$GPRMC,165937.000,A,2233.2177,N,11413.7924,E,0.0,303.6,040191,,,A*67
$GPGGA,165937.000,2233.2177,N,11413.7924,E,1,07,2.0,17.0,M,14.2,M,,0000*6A
$GPVTG,303.6,T,,M,0.0,N,0.0,K,A*0B
$GPGLL,2233.2177,N,11413.7924,E,165937.00,A,A*6B
$GPGSA,A,3,04,05,09,10,15,26,27,,,,,,2.9,2.0,2.1*34
$GPRMC,165938.000,A,2233.2177,N,11413.7924,E,0.0,303.6,040191,,,A*68
$GPGGA,165938.000,2233.2177,N,11413.7924,E,1,07,2.0,17.0,M,14.2,M,,0000*65
$GPVTG,303.6,T,,M,0.0,N,0.0,K,A*0B
$GPGLL,2233.2177,N,11413.7924,E,165938.00,A,A*64
$GPGSA,A,3,04,05,09,10,15,26,27,,,,,,2.9,2.0,2.1*34
$GPRMC,165939.000,A,2233.2177,N,11413.7924,E,0.0,303.6,040191,,,A*69
$GPGGA,165939.000,2233.2177,N,11413.7924,E,1,07,2.0,17.0,M,14.2,M,,0000*64
$GPVTG,303.6,T,,M,0.0,N,0.0,K,A*0B
$GPGLL,2233.2177,N,11413.7924,E,165939.00,A,A*65
$GPGSA,A,3,04,05,09,10,15,26,27,,,,,,2.9,2.0,2.1*34
$GPRMC,165940.000,A,2233.2177,N,11413.7924,E,0.0,303.6,040191,,,A*67
$GPGGA,165940.000,2233.2177,N,11413.7924,E,1,07,2.0,17.0,M,14.2,M,,0000*6A
$GPVTG,303.6,T,,M,0.0,N,0.0,K,A*0B
$GPGLL,2233.2177,N,11413.7924,E,165940.00,A,A*6B
$GPGSA,A,3,04,05,09,10,15,26,27,,,,,,2.9,2.0,2.1*34
$GPRMC,165941.000,A,2233.2177,N,11413.7924,E,0.0,303.6,040191,,,A*66
$GPGGA,165941.000,2233.2177,N,11413.7924,E,1,07,2.0,17.0,M,14.2,M,,0000*6B
$GPVTG,303.6,T,,M,0.0,N,0.0,K,A*0B
$GPGLL,2233.2177,N,11413.7924,E,165941.00,A,A*6A
$GPGSA,A,3,04,05,09,10,15,26,27,,,,,,2.9,2.0,2.1*34
$GPGSV,3,1,11,10,17,056,21,05,44,021,17,04,09,120,27,27,17,169,34*7D
$GPGSV,3,2,11,26,82,054,24,15,67,221,26,09,07,181,35,29,41,294,14*75
$GPGSV,3,3,11,02,44,105,,08,14,065,,18,05,268,*41
$GPRMC,165942.000,A,2233.2177,N,11413.7924,E,0.0,303.6,040191,,,A*65
$GPGGA,165942.000,2233.2177,N,11413.7924,E,1,07,2.0,17.0,M,14.2,M,,0000*68
$GPVTG,303.6,T,,M,0.0,N,0.0,K,A*0B
$GPGLL,2233.2177,N,11413.7924,E,165942.00,A,A*69
$GPGSA,A,3,04,05,09,10,15,26,27,,,,,,2.9,2.0,2.1*34
$GPRMC,165943.000,A,2233.2177,N,11413.7924,E,0.0,303.6,040191,,,A*64
$GPGGA,165943.000,2233.2177,N,11413.7924,E,1,07,2.0,17.0,M,14.2,M,,0000*69
$GPVTG,303.6,T,,M,0.0,N,0.0,K,A*0B
$GPGLL,2233.2177,N,11413.7924,E,165943.00,A,A*68
$GPGSA,A,3,04,05,09,10,15,26,27,,,,,,2.9,2.0,2.1*34
$GPRMC,165944.000,A,2233.2177,N,11413.7924,E,0.0,303.6,040191,,,A*63
$GPGGA,165944.000,2233.2177,N,11413.7924,E,1,07,2.0,17.0,M,14.2,M,,0000*6E
$GPVTG,303.6,T,,M,0.0,N,0.0,K,A*0B
$GPGLL,2233.2177,N,11413.7924,E,165944.00,A,A*6F
$GPGSA,A,3,04,05,09,10,15,26,27,,,,,,2.9,2.0,2.1*34
$GPRMC,165945.000,A,2233.2177,N,11413.7924,E,0.0,303.6,040191,,,A*62
$GPGGA,165945.000,2233.2177,N,11413.7924,E,1,07,2.0,17.0,M,14.2,M,,0000*6F
$GPVTG,303.6,T,,M,0.0,N,0.0,K,A*0B
$GPGLL,2233.2177,N,11413.7924,E,165945.00,A,A*6E
$GPGSA,A,3,04,05,09,10,15,26,27,,,,,,2.9,2.0,2.1*34
$GPRMC,165946.000,A,2233.2177,N,11413.7924,E,0.0,303.6,040191,,,A*61
$GPGGA,165946.000,2233.2177,N,11413.7924,E,1,07,2.0,17.0,M,14.2,M,,0000*6C
$GPVTG,303.6,T,,M,0.0,N,0.0,K,A*0B
$GPGLL,2233.2177,N,11413.7924,E,165946.00,A,A*6D
$GPGSA,A,3,04,05,09,10,15,26,27,,,,,,2.9,2.0,2.1*34
$GPGSV,3,1,11,10,17,056,22,05,44,021,14,04,09,120,26,27,17,169,35*7D
$GPGSV,3,2,11,26,82,054,24,15,67,221,24,09,07,181,35,29,41,294,14*77
$GPGSV,3,3,11,02,44,105,,08,14,065,,18,05,268,*41
$GPRMC,165947.000,A,2233.2177,N,11413.7924,E,0.0,303.6,040191,,,A*60
$GPGGA,165947.000,2233.2177,N,11413.7924,E,1,07,2.0,17.0,M,14.2,M,,0000*6D
$GPVTG,303.6,T,,M,0.0,N,0.0,K,A*0B
$GPGLL,2233.2177,N,11413.7924,E,165947.00,A,A*6C
$GPGSA,A,3,04,05,09,10,15,26,27,,,,,,2.9,2.0,2.1*34
$GPRMC,165948.000,A,2233.2177,N,11413.7924,E,0.0,303.6,040191,,,A*6F
$GPGGA,165948.000,2233.2177,N,11413.7924,E,1,08,1.5,17.0,M,14.2,M,,0000*6B
$GPVTG,303.6,T,,M,0.0,N,0.0,K,A*0B
$GPGLL,2233.2177,N,11413.7924,E,165948.00,A,A*63
$GPGSA,A,3,02,04,05,09,10,15,26,27,,,,,2.2,1.5,1.6*3F
$GPRMC,165949.000,A,2233.2177,N,11413.7924,E,0.0,303.6,040191,,,A*6E
$GPGGA,165949.000,2233.2177,N,11413.7924,E,1,08,1.5,17.0,M,14.2,M,,0000*6A
$GPVTG,303.6,T,,M,0.0,N,0.0,K,A*0B
$GPGLL,2233.2177,N,11413.7924,E,165949.00,A,A*62
$GPGSA,A,3,02,04,05,09,10,15,26,27,,,,,2.2,1.5,1.6*3F
$GPRMC,165950.000,A,2233.2177,N,11413.7924,E,0.0,303.6,040191,,,A*66
$GPGGA,165950.000,2233.2177,N,11413.7924,E,1,08,1.5,17.0,M,14.2,M,,0000*62
$GPVTG,303.6,T,,M,0.0,N,0.0,K,A*0B
$GPGLL,2233.2177,N,11413.7924,E,165950.00,A,A*6A
$GPGSA,A,3,02,04,05,09,10,15,26,27,,,,,2.2,1.5,1.6*3F
$GPRMC,165951.000,A,2233.2177,N,11413.7924,E,0.0,303.6,040191,,,A*67
$GPGGA,165951.000,2233.2177,N,11413.7924,E,1,08,1.5,17.0,M,14.2,M,,0000*63
$GPVTG,303.6,T,,M,0.0,N,0.0,K,A*0B
$GPGLL,2233.2177,N,11413.7924,E,165951.00,A,A*6B
$GPGSA,A,3,02,04,05,09,10,15,26,27,,,,,2.2,1.5,1.6*3F
$GPGSV,3,1,11,10,17,056,22,05,44,021,13,02,44,105,14,04,09,120,27*73
$GPGSV,3,2,11,27,17,169,34,26,82,053,22,15,67,222,30,09,07,181,35*7E
$GPGSV,3,3,11,29,41,294,,08,14,065,,18,05,268,*46
$GPRMC,165952.000,A,2233.2177,N,11413.7924,E,0.0,303.6,040191,,,A*64
$GPGGA,165952.000,2233.2177,N,11413.7924,E,1,08,1.5,17.0,M,14.2,M,,0000*60
$GPVTG,303.6,T,,M,0.0,N,0.0,K,A*0B
$GPGLL,2233.2177,N,11413.7924,E,165952.00,A,A*68
$GPGSA,A,3,02,04,05,09,10,15,26,27,,,,,2.2,1.5,1.6*3F
$GPRMC,165953.000,A,2233.2177,N,11413.7924,E,0.0,303.6,040191,,,A*65
$GPGGA,165953.000,2233.2177,N,11413.7924,E,1,08,1.5,17.0,M,14.2,M,,0000*61
$GPVTG,303.6,T,,M,0.0,N,0.0,K,A*0B
$GPGLL,2233.2177,N,11413.7924,E,165953.00,A,A*69
$GPGSA,A,3,02,04,05,09,10,15,26,27,,,,,2.2,1.5,1.6*3F
$GPRMC,165954.000,A,2233.2177,N,11413.7924,E,0.0,303.6,040191,,,A*62
$GPGGA,165954.000,2233.2177,N,11413.7924,E,1,08,1.5,17.0,M,14.2,M,,0000*66
$GPVTG,303.6,T,,M,0.0,N,0.0,K,A*0B
$GPGLL,2233.2177,N,11413.7924,E,165954.00,A,A*6E
$GPGSA,A,3,02,04,05,09,10,15,26,27,,,,,2.2,1.5,1.6*3F
$GPRMC,165955.000,A,2233.2177,N,11413.7924,E,0.0,303.6,040191,,,A*63
$GPGGA,165955.000,2233.2177,N,11413.7924,E,1,08,1.5,17.0,M,14.2,M,,0000*67
$GPVTG,303.6,T,,M,0.0,N,0.0,K,A*0B
$GPGLL,2233.2177,N,11413.7924,E,165955.00,A,A*6F
$GPGSA,A,3,02,04,05,09,10,15,26,27,,,,,2.2,1.5,1.6*3F
$GPRMC,165956.000,A,2233.2177,N,11413.7924,E,0.0,303.6,040191,,,A*60
$GPGGA,165956.000,2233.2177,N,11413.7924,E,1,08,1.5,17.0,M,14.2,M,,0000*64
$GPVTG,303.6,T,,M,0.0,N,0.0,K,A*0B
$GPGLL,2233.2177,N,11413.7924,E,165956.00,A,A*6C
$GPGSA,A,3,02,04,05,09,10,15,26,27,,,,,2.2,1.5,1.6*3F
$GPGSV,3,1,11,10,17,056,24,05,44,021,12,02,44,105,15,04,09,120,26*74
$GPGSV,3,2,11,27,17,169,35,26,82,053,23,15,67,222,30,09,07,181,35*7E
$GPGSV,3,3,11,29,41,294,,08,14,065,,18,05,268,*46
$GPRMC,165957.000,A,2233.2177,N,11413.7924,E,0.0,303.6,040191,,,A*61
$GPGGA,165957.000,2233.2177,N,11413.7924,E,1,08,1.5,17.0,M,14.2,M,,0000*65
$GPVTG,303.6,T,,M,0.0,N,0.0,K,A*0B
$GPGLL,2233.2177,N,11413.7924,E,165957.00,A,A*6D
$GPGSA,A,3,02,04,05,09,10,15,26,27,,,,,2.2,1.5,1.6*3F
$GPRMC,165958.000,A,2233.2177,N,11413.7924,E,0.0,303.6,040191,,,A*6E
$GPGGA,165958.000,2233.2177,N,11413.7924,E,1,08,1.5,17.0,M,14.2,M,,0000*6A
$GPVTG,303.6,T,,M,0.0,N,0.0,K,A*0B
$GPGLL,2233.2177,N,11413.7924,E,165958.00,A,A*62
$GPGSA,A,3,02,04,05,09,10,15,26,27,,,,,2.2,1.5,1.6*3F
$GPRMC,165959.000,A,2233.2177,N,11413.7924,E,0.0,303.6,040191,,,A*6F
$GPGGA,165959.000,2233.2177,N,11413.7924,E,1,08,1.5,17.0,M,14.2,M,,0000*6B
$GPVTG,303.6,T,,M,0.0,N,0.0,K,A*0B
$GPGLL,2233.2177,N,11413.7924,E,165959.00,A,A*63
$GPGSA,A,3,02,04,05,09,10,15,26,27,,,,,2.2,1.5,1.6*3F
$GPRMC,170000.000,A,2233.2177,N,11413.7924,E,0.0,303.6,040191,,,A*6E
$GPGGA,170000.000,2233.2177,N,11413.7924,E,1,08,1.5,17.0,M,14.2,M,,0000*6A
$GPVTG,303.6,T,,M,0.0,N,0.0,K,A*0B
$GPGLL,2233.2177,N,11413.7924,E,170000.00,A,A*62
$GPGSA,A,3,02,04,05,09,10,15,26,27,,,,,2.2,1.5,1.6*3F
$GPRMC,170001.000,A,2233.2177,N,11413.7924,E,0.0,303.6,040191,,,A*6F
$GPGGA,170001.000,2233.2177,N,11413.7924,E,1,08,1.5,17.0,M,14.2,M,,0000*6B
$GPVTG,303.6,T,,M,0.0,N,0.0,K,A*0B
$GPGLL,2233.2177,N,11413.7924,E,170001.00,A,A*63
$GPGSA,A,3,02,04,05,09,10,15,26,27,,,,,2.2,1.5,1.6*3F
$GPGSV,3,1,11,10,17,056,23,05,44,021,16,02,44,105,14,04,09,120,26*76
$GPGSV,3,2,11,27,17,169,34,26,82,053,23,15,67,222,31,09,07,181,35*7E
$GPGSV,3,3,11,29,41,294,15,08,14,065,,18,05,268,*42
$GPRMC,170002.000,A,2233.2177,N,11413.7924,E,0.0,303.6,040191,,,A*6C
$GPGGA,170002.000,2233.2177,N,11413.7924,E,1,08,1.5,17.0,M,14.2,M,,0000*68
$GPVTG,303.6,T,,M,0.0,N,0.0,K,A*0B
$GPGLL,2233.2177,N,11413.7924,E,170002.00,A,A*60
$GPGSA,A,3,02,04,05,09,10,15,26,27,,,,,2.2,1.5,1.6*3F
$GPRMC,170003.000,A,2233.2177,N,11413.7924,E,0.0,303.6,040191,,,A*6D
$GPGGA,170003.000,2233.2177,N,11413.7924,E,1,08,1.5,17.0,M,14.2,M,,0000*69
$GPVTG,303.6,T,,M,0.0,N,0.0,K,A*0B
$GPGLL,2233.2177,N,11413.7924,E,170003.00,A,A*61
$GPGSA,A,3,02,04,05,09,10,15,26,27,,,,,2.2,1.5,1.6*3F
$GPRMC,170004.000,A,2233.2177,N,11413.7924,E,0.0,303.6,040191,,,A*6A
$GPGGA,170004.000,2233.2177,N,11413.7924,E,1,08,1.5,17.0,M,14.2,M,,0000*6E
$GPVTG,303.6,T,,M,0.0,N,0.0,K,A*0B
$GPGLL,2233.2177,N,11413.7924,E,170004.00,A,A*66
$GPGSA,A,3,02,04,05,09,10,15,26,27,,,,,2.2,1.5,1.6*3F
$GPRMC,170005.000,A,2233.2177,N,11413.7924,E,0.0,303.6,040191,,,A*6B
$GPGGA,170005.000,2233.2177,N,11413.7924,E,1,08,1.5,17.0,M,14.2,M,,0000*6F
$GPVTG,303.6,T,,M,0.0,N,0.0,K,A*0B
$GPGLL,2233.2177,N,11413.7924,E,170005.00,A,A*67
$GPGSA,A,3,02,04,05,09,10,15,26,27,,,,,2.2,1.5,1.6*3F
$GPRMC,170006.000,A,2233.2177,N,11413.7924,E,0.0,303.6,040191,,,A*68
$GPGGA,170006.000,2233.2177,N,11413.7924,E,1,08,1.5,17.0,M,14.2,M,,0000*6C
$GPVTG,303.6,T,,M,0.0,N,0.0,K,A*0B
$GPGLL,2233.2177,N,11413.7924,E,170006.00,A,A*64
$GPGSA,A,3,02,04,05,09,10,15,26,27,,,,,2.2,1.5,1.6*3F
$GPGSV,3,1,11,10,17,056,21,05,44,021,23,04,09,120,27,27,17,169,34*7A
$GPGSV,3,2,11,26,82,053,21,15,67,222,29,09,08,181,34,29,41,294,19*78
$GPGSV,3,3,11,02,44,105,,08,14,065,,18,05,268,*41
$GPRMC,170007.000,A,2233.2177,N,11413.7924,E,0.0,303.6,040191,,,A*69
$GPGGA,170007.000,2233.2177,N,11413.7924,E,1,07,2.0,17.0,M,14.2,M,,0000*64
$GPVTG,303.6,T,,M,0.0,N,0.0,K,A*0B
$GPGLL,2233.2177,N,11413.7924,E,170007.00,A,A*65
$GPGSA,A,3,04,05,09,10,15,26,27,,,,,,2.9,2.0,2.1*34
$GPRMC,170008.000,A,2233.2177,N,11413.7924,E,0.0,303.6,040191,,,A*66
$GPGGA,170008.000,2233.2177,N,11413.7924,E,1,07,2.0,17.0,M,14.2,M,,0000*6B
$GPVTG,303.6,T,,M,0.0,N,0.0,K,A*0B
$GPGLL,2233.2177,N,11413.7924,E,170008.00,A,A*6A
$GPGSA,A,3,04,05,09,10,15,26,27,,,,,,2.9,2.0,2.1*34
$GPRMC,170009.000,A,2233.2177,N,11413.7924,E,0.0,303.6,040191,,,A*67
$GPGGA,170009.000,2233.2177,N,11413.7924,E,1,07,2.0,17.0,M,14.2,M,,0000*6A
$GPVTG,303.6,T,,M,0.0,N,0.0,K,A*0B
$GPGLL,2233.2177,N,11413.7924,E,170009.00,A,A*6B
$GPGSA,A,3,04,05,09,10,15,26,27,,,,,,2.9,2.0,2.1*34
$GPRMC,170010.000,A,2233.2177,N,11413.7924,E,0.0,303.6,040191,,,A*6F
$GPGGA,170010.000,2233.2177,N,11413.7924,E,1,07,2.0,17.0,M,14.2,M,,0000*62
$GPVTG,303.6,T,,M,0.0,N,0.0,K,A*0B
$GPGLL,2233.2177,N,11413.7924,E,170010.00,A,A*63
$GPGSA,A,3,04,05,09,10,15,26,27,,,,,,2.9,2.0,2.1*34
$GPRMC,170011.000,A,2233.2177,N,11413.7924,E,0.0,303.6,040191,,,A*6E
$GPGGA,170011.000,2233.2177,N,11413.7924,E,1,07,2.0,17.0,M,14.2,M,,0000*63
$GPVTG,303.6,T,,M,0.0,N,0.0,K,A*0B
$GPGLL,2233.2177,N,11413.7924,E,170011.00,A,A*62
$GPGSA,A,3,04,05,09,10,15,26,27,,,,,,2.9,2.0,2.1*34
$GPGSV,3,1,11,10,17,056,18,05,44,021,24,04,09,120,27,27,17,169,34*77
$GPGSV,3,2,11,26,82,052,23,15,67,222,30,09,08,181,34,29,41,294,19*73
$GPGSV,3,3,11,02,44,105,,08,14,065,,18,05,268,*41
$GPRMC,170012.000,A,2233.2177,N,11413.7924,E,0.0,303.6,040191,,,A*6D
$GPGGA,170012.000,2233.2177,N,11413.7924,E,1,07,2.0,17.0,M,14.2,M,,0000*60
$GPVTG,303.6,T,,M,0.0,N,0.0,K,A*0B
$GPGLL,2233.2177,N,11413.7924,E,170012.00,A,A*61
$GPGSA,A,3,04,05,09,10,15,26,27,,,,,,2.9,2.0,2.1*34
$GPRMC,170013.000,A,2233.2177,N,11413.7924,E,0.0,303.6,040191,,,A*6C
$GPGGA,170013.000,2233.2177,N,11413.7924,E,1,08,1.5,17.0,M,14.2,M,,0000*68
$GPVTG,303.6,T,,M,0.0,N,0.0,K,A*0B
$GPGLL,2233.2177,N,11413.7924,E,170013.00,A,A*60
$GPGSA,A,3,02,04,05,09,10,15,26,27,,,,,2.2,1.5,1.6*3F
$GPRMC,170014.000,A,2233.2177,N,11413.7924,E,0.0,303.6,040191,,,A*6B
$GPGGA,170014.000,2233.2177,N,11413.7924,E,1,08,1.5,17.0,M,14.2,M,,0000*6F
$GPVTG,303.6,T,,M,0.0,N,0.0,K,A*0B
$GPGLL,2233.2177,N,11413.7924,E,170014.00,A,A*67
$GPGSA,A,3,02,04,05,09,10,15,26,27,,,,,2.2,1.5,1.6*3F
$GPRMC,170015.000,A,2233.2177,N,11413.7924,E,0.0,303.6,040191,,,A*6A
$GPGGA,170015.000,2233.2177,N,11413.7924,E,1,08,1.5,17.0,M,14.2,M,,0000*6E
$GPVTG,303.6,T,,M,0.0,N,0.0,K,A*0B
$GPGLL,2233.2177,N,11413.7924,E,170015.00,A,A*66
$GPGSA,A,3,02,04,05,09,10,15,26,27,,,,,2.2,1.5,1.6*3F
$GPRMC,170016.000,A,2233.2177,N,11413.7924,E,0.0,303.6,040191,,,A*69
$GPGGA,170016.000,2233.2177,N,11413.7924,E,1,08,1.5,17.0,M,14.2,M,,0000*6D
$GPVTG,303.6,T,,M,0.0,N,0.0,K,A*0B
$GPGLL,2233.2177,N,11413.7924,E,170016.00,A,A*65
$GPGSA,A,3,02,04,05,09,10,15,26,27,,,,,2.2,1.5,1.6*3F
$GPGSV,3,1,11,10,17,056,20,05,44,021,25,02,44,105,17,04,09,120,26*76
$GPGSV,3,2,11,27,17,169,35,26,82,052,20,15,67,222,29,09,08,181,32*7C
$GPGSV,3,3,11,29,41,294,19,08,14,065,,18,05,268,*4E
$GPRMC,170017.000,A,2233.2177,N,11413.7924,E,0.0,303.6,040191,,,A*68
$GPGGA,170017.000,2233.2177,N,11413.7924,E,1,08,1.5,17.0,M,14.2,M,,0000*6C
$GPVTG,303.6,T,,M,0.0,N,0.0,K,A*0B
$GPGLL,2233.2177,N,11413.7924,E,170017.00,A,A*64
$GPGSA,A,3,02,04,05,09,10,15,26,27,,,,,2.2,1.5,1.6*3F
$GPRMC,170018.000,A,2233.2177,N,11413.7924,E,0.0,303.6,040191,,,A*67
$GPGGA,170018.000,2233.2177,N,11413.7924,E,1,08,1.5,17.0,M,14.2,M,,0000*63
$GPVTG,303.6,T,,M,0.0,N,0.0,K,A*0B
$GPGLL,2233.2177,N,11413.7924,E,170018.00,A,A*6B
$GPGSA,A,3,02,04,05,09,10,15,26,27,,,,,2.2,1.5,1.6*3F
$GPRMC,170019.000,A,2233.2177,N,11413.7924,E,0.0,303.6,040191,,,A*66
$GPGGA,170019.000,2233.2177,N,11413.7924,E,1,08,1.5,17.0,M,14.2,M,,0000*62
$GPVTG,303.6,T,,M,0.0,N,0.0,K,A*0B
$GPGLL,2233.2177,N,11413.7924,E,170019.00,A,A*6A
$GPGSA,A,3,02,04,05,09,10,15,26,27,,,,,2.2,1.5,1.6*3F
$GPRMC,170020.000,A,2233.2177,N,11413.7924,E,0.0,303.6,040191,,,A*6C
$GPGGA,170020.000,2233.2177,N,11413.7924,E,1,08,1.5,17.0,M,14.2,M,,0000*68
$GPVTG,303.6,T,,M,0.0,N,0.0,K,A*0B
$GPGLL,2233.2177,N,11413.7924,E,170020.00,A,A*60
$GPGSA,A,3,02,04,05,09,10,15,26,27,,,,,2.2,1.5,1.6*3F
$GPRMC,170021.000,A,2233.2177,N,11413.7924,E,0.0,303.6,040191,,,A*6D
$GPGGA,170021.000,2233.2177,N,11413.7924,E,1,08,1.5,17.0,M,14.2,M,,0000*69
$GPVTG,303.6,T,,M,0.0,N,0.0,K,A*0B
$GPGLL,2233.2177,N,11413.7924,E,170021.00,A,A*61
$GPGSA,A,3,02,04,05,09,10,15,26,27,,,,,2.2,1.5,1.6*3F
$GPGSV,3,1,11,10,17,056,20,05,44,021,24,02,44,105,17,04,09,120,26*77
$GPGSV,3,2,11,27,17,169,35,26,82,052,24,15,67,222,26,09,08,181,33*76
$GPGSV,3,3,11,29,41,294,19,08,14,065,,18,05,268,*4E
$GPRMC,170022.000,A,2233.2177,N,11413.7924,E,0.0,303.6,040191,,,A*6E
$GPGGA,170022.000,2233.2177,N,11413.7924,E,1,08,1.5,17.0,M,14.2,M,,0000*6A
$GPVTG,303.6,T,,M,0.0,N,0.0,K,A*0B
$GPGLL,2233.2177,N,11413.7924,E,170022.00,A,A*62
$GPGSA,A,3,02,04,05,09,10,15,26,27,,,,,2.2,1.5,1.6*3F
$GPRMC,170023.000,A,2233.2177,N,11413.7924,E,0.0,303.6,040191,,,A*6F
$GPGGA,170023.000,2233.2177,N,11413.7924,E,1,08,1.5,17.0,M,14.2,M,,0000*6B
$GPVTG,303.6,T,,M,0.0,N,0.0,K,A*0B
$GPGLL,2233.2177,N,11413.7924,E,170023.00,A,A*63
$GPGSA,A,3,02,04,05,09,10,15,26,27,,,,,2.2,1.5,1.6*3F
$GPRMC,170024.000,A,2233.2177,N,11413.7924,E,0.0,303.6,040191,,,A*68
$GPGGA,170024.000,2233.2177,N,11413.7924,E,1,08,1.5,17.0,M,14.2,M,,0000*6C
$GPVTG,303.6,T,,M,0.0,N,0.0,K,A*0B
$GPGLL,2233.2177,N,11413.7924,E,170024.00,A,A*64
$GPGSA,A,3,02,04,05,09,10,15,26,27,,,,,2.2,1.5,1.6*3F
$GPRMC,170025.000,A,2233.2177,N,11413.7924,E,0.0,303.6,040191,,,A*69
$GPGGA,170025.000,2233.2177,N,11413.7924,E,1,08,1.5,17.0,M,14.2,M,,0000*6D
$GPVTG,303.6,T,,M,0.0,N,0.0,K,A*0B
$GPGLL,2233.2177,N,11413.7924,E,170025.00,A,A*65
$GPGSA,A,3,02,04,05,09,10,15,26,27,,,,,2.2,1.5,1.6*3F
$GPRMC,170026.000,A,2233.2177,N,11413.7924,E,0.0,303.6,040191,,,A*6A
$GPGGA,170026.000,2233.2177,N,11413.7924,E,1,08,1.5,17.0,M,14.2,M,,0000*6E
$GPVTG,303.6,T,,M,0.0,N,0.0,K,A*0B
$GPGLL,2233.2177,N,11413.7924,E,170026.00,A,A*66
$GPGSA,A,3,02,04,05,09,10,15,26,27,,,,,2.2,1.5,1.6*3F
$GPGSV,3,1,11,10,16,056,19,05,44,021,20,02,44,105,16,04,09,121,26*78
$GPGSV,3,2,11,27,17,169,34,26,82,052,21,15,67,222,25,09,08,181,34*76
$GPGSV,3,3,11,29,41,294,19,08,14,065,,18,05,268,*4E
$GPRMC,170027.000,A,2233.2177,N,11413.7924,E,0.0,303.6,040191,,,A*6B
$GPGGA,170027.000,2233.2177,N,11413.7924,E,1,08,1.5,17.0,M,14.2,M,,0000*6F
$GPVTG,303.6,T,,M,0.0,N,0.0,K,A*0B
$GPGLL,2233.2177,N,11413.7924,E,170027.00,A,A*67
$GPGSA,A,3,02,04,05,09,10,15,26,27,,,,,2.2,1.5,1.6*3F
$GPRMC,170028.000,A,2233.2177,N,11413.7924,E,0.0,303.6,040191,,,A*64
$GPGGA,170028.000,2233.2177,N,11413.7924,E,1,08,1.5,17.0,M,14.2,M,,0000*60
$GPVTG,303.6,T,,M,0.0,N,0.0,K,A*0B
$GPGLL,2233.2177,N,11413.7924,E,170028.00,A,A*68
$GPGSA,A,3,02,04,05,09,10,15,26,27,,,,,2.2,1.5,1.6*3F
$GPRMC,170029.000,A,2233.2177,N,11413.7924,E,0.0,303.6,040191,,,A*65
$GPGGA,170029.000,2233.2177,N,11413.7924,E,1,08,1.5,17.0,M,14.2,M,,0000*61
$GPVTG,303.6,T,,M,0.0,N,0.0,K,A*0B
$GPGLL,2233.2177,N,11413.7924,E,170029.00,A,A*69
$GPGSA,A,3,02,04,05,09,10,15,26,27,,,,,2.2,1.5,1.6*3F
$GPRMC,170030.000,A,2233.2177,N,11413.7924,E,0.0,303.6,040191,,,A*6D
$GPGGA,170030.000,2233.2177,N,11413.7924,E,1,08,1.5,17.0,M,14.2,M,,0000*69
$GPVTG,303.6,T,,M,0.0,N,0.0,K,A*0B
$GPGLL,2233.2177,N,11413.7924,E,170030.00,A,A*61
$GPGSA,A,3,02,04,05,09,10,15,26,27,,,,,2.2,1.5,1.6*3F
$GPRMC,170031.000,A,2233.2177,N,11413.7924,E,0.0,303.6,040191,,,A*6C
$GPGGA,170031.000,2233.2177,N,11413.7924,E,1,08,1.5,17.0,M,14.2,M,,0000*68
$GPVTG,303.6,T,,M,0.0,N,0.0,K,A*0B
$GPGLL,2233.2177,N,11413.7924,E,170031.00,A,A*60
$GPGSA,A,3,02,04,05,09,10,15,26,27,,,,,2.2,1.5,1.6*3F
$GPGSV,3,1,11,10,16,056,20,05,44,021,18,02,44,105,16,04,09,121,26*79
$GPGSV,3,2,11,27,17,169,33,26,82,051,19,15,67,222,25,09,08,181,34*79
$GPGSV,3,3,11,29,41,294,,08,14,065,,18,05,268,*46
$GPRMC,170032.000,A,2233.2177,N,11413.7924,E,0.0,303.6,040191,,,A*6F
$GPGGA,170032.000,2233.2177,N,11413.7924,E,1,08,1.5,17.0,M,14.2,M,,0000*6B
$GPVTG,303.6,T,,M,0.0,N,0.0,K,A*0B
$GPGLL,2233.2177,N,11413.7924,E,170032.00,A,A*63
$GPGSA,A,3,02,04,05,09,10,15,26,27,,,,,2.2,1.5,1.6*3F
$GPRMC,170033.000,A,2233.2177,N,11413.7924,E,0.0,303.6,040191,,,A*6E
$GPGGA,170033.000,2233.2177,N,11413.7924,E,1,08,1.5,17.0,M,14.2,M,,0000*6A
$GPVTG,303.6,T,,M,0.0,N,0.0,K,A*0B
$GPGLL,2233.2177,N,11413.7924,E,170033.00,A,A*62
$GPGSA,A,3,02,04,05,09,10,15,26,27,,,,,2.2,1.5,1.6*3F
$GPRMC,170034.000,A,2233.2177,N,11413.7924,E,0.0,303.6,040191,,,A*69
$GPGGA,170034.000,2233.2177,N,11413.7924,E,1,08,1.5,17.0,M,14.2,M,,0000*6D
$GPVTG,303.6,T,,M,0.0,N,0.0,K,A*0B
$GPGLL,2233.2177,N,11413.7924,E,170034.00,A,A*65
$GPGSA,A,3,02,04,05,09,10,15,26,27,,,,,2.2,1.5,1.6*3F
$GPRMC,170035.000,A,2233.2177,N,11413.7924,E,0.0,303.6,040191,,,A*68
$GPGGA,170035.000,2233.2177,N,11413.7924,E,1,08,1.5,17.0,M,14.2,M,,0000*6C
$GPVTG,303.6,T,,M,0.0,N,0.0,K,A*0B
$GPGLL,2233.2177,N,11413.7924,E,170035.00,A,A*64
$GPGSA,A,3,02,04,05,09,10,15,26,27,,,,,2.2,1.5,1.6*3F
$GPRMC,170036.000,A,2233.2177,N,11413.7924,E,0.0,303.6,040191,,,A*6B
$GPGGA,170036.000,2233.2177,N,11413.7924,E,1,08,1.5,17.0,M,14.2,M,,0000*6F
$GPVTG,303.6,T,,M,0.0,N,0.0,K,A*0B
$GPGLL,2233.2177,N,11413.7924,E,170036.00,A,A*67
$GPGSA,A,3,02,04,05,09,10,15,26,27,,,,,2.2,1.5,1.6*3F
$GPGSV,3,1,11,10,16,056,20,05,44,021,20,02,44,105,21,04,09,121,26*76
$GPGSV,3,2,11,27,17,169,34,26,82,051,18,15,67,222,22,09,08,181,33*7F
$GPGSV,3,3,11,29,41,293,,08,14,064,,18,05,268,*40
$GPRMC,170037.000,A,2233.2177,N,11413.7924,E,0.0,303.6,040191,,,A*6A
$GPGGA,170037.000,2233.2177,N,11413.7924,E,1,07,1.8,17.0,M,14.2,M,,0000*6C
$GPVTG,303.6,T,,M,0.0,N,0.0,K,A*0B
$GPGLL,2233.2177,N,11413.7924,E,170037.00,A,A*66
$GPGSA,A,3,02,04,09,10,15,26,27,,,,,,2.5,1.8,1.7*31
$GPRMC,170038.000,A,2233.2177,N,11413.7924,E,0.0,303.6,040191,,,A*65
$GPGGA,170038.000,2233.2177,N,11413.7924,E,1,07,1.8,17.0,M,14.2,M,,0000*63
$GPVTG,303.6,T,,M,0.0,N,0.0,K,A*0B
$GPGLL,2233.2177,N,11413.7924,E,170038.00,A,A*69
$GPGSA,A,3,02,04,09,10,15,26,27,,,,,,2.5,1.8,1.7*31
$GPRMC,170039.000,A,2233.2177,N,11413.7924,E,0.0,303.6,040191,,,A*64
$GPGGA,170039.000,2233.2177,N,11413.7924,E,1,07,1.8,17.0,M,14.2,M,,0000*62
$GPVTG,303.6,T,,M,0.0,N,0.0,K,A*0B
$GPGLL,2233.2177,N,11413.7924,E,170039.00,A,A*68
$GPGSA,A,3,02,04,09,10,15,26,27,,,,,,2.5,1.8,1.7*31
$GPRMC,170040.000,A,2233.2177,N,11413.7924,E,0.0,303.6,040191,,,A*6A
$GPGGA,170040.000,2233.2177,N,11413.7924,E,1,07,1.8,17.0,M,14.2,M,,0000*6C
$GPVTG,303.6,T,,M,0.0,N,0.0,K,A*0B
$GPGLL,2233.2177,N,11413.7924,E,170040.00,A,A*66
$GPGSA,A,3,02,04,09,10,15,26,27,,,,,,2.5,1.8,1.7*31
$GPRMC,170041.000,A,2233.2177,N,11413.7924,E,0.0,303.6,040191,,,A*6B
$GPGGA,170041.000,2233.2177,N,11413.7924,E,1,08,1.5,17.0,M,14.2,M,,0000*6F
$GPVTG,303.6,T,,M,0.0,N,0.0,K,A*0B
$GPGLL,2233.2177,N,11413.7924,E,170041.00,A,A*67
$GPGSA,A,3,02,04,05,09,10,15,26,27,,,,,2.2,1.5,1.6*3F
$GPGSV,3,1,11,10,16,056,21,05,44,021,19,02,44,105,20,04,09,121,26*7C
$GPGSV,3,2,11,27,17,169,34,26,82,051,17,15,67,222,24,09,08,181,34*71
$GPGSV,3,3,11,29,41,293,,08,14,064,,18,05,268,*40
$GPRMC,170042.000,A,2233.2177,N,11413.7924,E,0.0,303.6,040191,,,A*68
$GPGGA,170042.000,2233.2177,N,11413.7924,E,1,08,1.5,17.0,M,14.2,M,,0000*6C
$GPVTG,303.6,T,,M,0.0,N,0.0,K,A*0B
$GPGLL,2233.2177,N,11413.7924,E,170042.00,A,A*64
$GPGSA,A,3,02,04,05,09,10,15,26,27,,,,,2.2,1.5,1.6*3F
$GPRMC,170043.000,A,2233.2177,N,11413.7924,E,0.0,303.6,040191,,,A*69
$GPGGA,170043.000,2233.2177,N,11413.7924,E,1,08,1.5,17.0,M,14.2,M,,0000*6D
$GPVTG,303.6,T,,M,0.0,N,0.0,K,A*0B
$GPGLL,2233.2177,N,11413.7924,E,170043.00,A,A*65
$GPGSA,A,3,02,04,05,09,10,15,26,27,,,,,2.2,1.5,1.6*3F
$GPRMC,170044.000,A,2233.2177,N,11413.7924,E,0.0,303.6,040191,,,A*6E
$GPGGA,170044.000,2233.2177,N,11413.7924,E,1,08,1.5,17.0,M,14.2,M,,0000*6A
$GPVTG,303.6,T,,M,0.0,N,0.0,K,A*0B
$GPGLL,2233.2177,N,11413.7924,E,170044.00,A,A*62
$GPGSA,A,3,02,04,05,09,10,15,26,27,,,,,2.2,1.5,1.6*3F
$GPRMC,170045.000,A,2233.2177,N,11413.7924,E,0.0,303.6,040191,,,A*6F
$GPGGA,170045.000,2233.2177,N,11413.7924,E,1,08,1.5,17.0,M,14.2,M,,0000*6B
$GPVTG,303.6,T,,M,0.0,N,0.0,K,A*0B
$GPGLL,2233.2177,N,11413.7924,E,170045.00,A,A*63
$GPGSA,A,3,02,04,05,09,10,15,26,27,,,,,2.2,1.5,1.6*3F
$GPRMC,170046.000,A,2233.2177,N,11413.7924,E,0.0,303.6,040191,,,A*6C
$GPGGA,170046.000,2233.2177,N,11413.7924,E,1,08,1.5,17.0,M,14.2,M,,0000*68
$GPVTG,303.6,T,,M,0.0,N,0.0,K,A*0B
$GPGLL,2233.2177,N,11413.7924,E,170046.00,A,A*60
$GPGSA,A,3,02,04,05,09,10,15,26,27,,,,,2.2,1.5,1.6*3F
$GPGSV,3,1,11,10,16,056,18,05,44,021,22,02,44,105,20,04,09,121,27*7F
$GPGSV,3,2,11,27,17,169,35,26,82,051,19,15,67,222,22,09,08,181,35*79
$GPGSV,3,3,11,29,41,293,,08,14,064,,18,05,268,*40
$GPRMC,170047.000,A,2233.2177,N,11413.7924,E,0.0,303.6,040191,,,A*6D
$GPGGA,170047.000,2233.2177,N,11413.7924,E,1,08,1.5,17.0,M,14.2,M,,0000*69
$GPVTG,303.6,T,,M,0.0,N,0.0,K,A*0B
$GPGLL,2233.2177,N,11413.7924,E,170047.00,A,A*61
$GPGSA,A,3,02,04,05,09,10,15,26,27,,,,,2.2,1.5,1.6*3F
$GPRMC,170048.000,A,2233.2177,N,11413.7924,E,0.0,303.6,040191,,,A*62
$GPGGA,170048.000,2233.2177,N,11413.7924,E,1,08,1.5,17.0,M,14.2,M,,0000*66
$GPVTG,303.6,T,,M,0.0,N,0.0,K,A*0B
$GPGLL,2233.2177,N,11413.7924,E,170048.00,A,A*6E
$GPGSA,A,3,02,04,05,09,10,15,26,27,,,,,2.2,1.5,1.6*3F
$GPRMC,170049.000,A,2233.2177,N,11413.7924,E,0.0,303.6,040191,,,A*63
$GPGGA,170049.000,2233.2177,N,11413.7924,E,1,08,1.5,17.0,M,14.2,M,,0000*67
$GPVTG,303.6,T,,M,0.0,N,0.0,K,A*0B
$GPGLL,2233.2177,N,11413.7924,E,170049.00,A,A*6F
$GPGSA,A,3,02,04,05,09,10,15,26,27,,,,,2.2,1.5,1.6*3F
$GPRMC,170050.000,A,2233.2177,N,11413.7924,E,0.0,303.6,040191,,,A*6B
$GPGGA,170050.000,2233.2177,N,11413.7924,E,1,08,1.5,17.0,M,14.2,M,,0000*6F
$GPVTG,303.6,T,,M,0.0,N,0.0,K,A*0B
$GPGLL,2233.2177,N,11413.7924,E,170050.00,A,A*67
$GPGSA,A,3,02,04,05,09,10,15,26,27,,,,,2.2,1.5,1.6*3F
$GPRMC,170051.000,A,2233.2177,N,11413.7924,E,0.0,303.6,040191,,,A*6A
$GPGGA,170051.000,2233.2177,N,11413.7924,E,1,08,1.5,17.0,M,14.2,M,,0000*6E
$GPVTG,303.6,T,,M,0.0,N,0.0,K,A*0B
$GPGLL,2233.2177,N,11413.7924,E,170051.00,A,A*66
$GPGSA,A,3,02,04,05,09,10,15,26,27,,,,,2.2,1.5,1.6*3F
$GPGSV,3,1,11,10,16,056,19,05,44,021,23,02,44,106,18,04,09,121,26*76
$GPGSV,3,2,11,27,17,169,34,26,82,051,18,15,67,222,19,09,08,181,35*71
$GPGSV,3,3,11,29,41,293,16,08,14,064,,18,05,268,*47
$GPRMC,170052.000,A,2233.2177,N,11413.7924,E,0.0,303.6,040191,,,A*69
$GPGGA,170052.000,2233.2177,N,11413.7924,E,1,08,1.5,17.0,M,14.2,M,,0000*6D
$GPVTG,303.6,T,,M,0.0,N,0.0,K,A*0B
$GPGLL,2233.2177,N,11413.7924,E,170052.00,A,A*65
$GPGSA,A,3,02,04,05,09,10,15,26,27,,,,,2.2,1.5,1.6*3F
$GPRMC,170053.000,A,2233.2177,N,11413.7924,E,0.0,303.6,040191,,,A*68
$GPGGA,170053.000,2233.2177,N,11413.7924,E,1,08,1.5,17.0,M,14.2,M,,0000*6C
$GPVTG,303.6,T,,M,0.0,N,0.0,K,A*0B
$GPGLL,2233.2177,N,11413.7924,E,170053.00,A,A*64
$GPGSA,A,3,02,04,05,09,10,15,26,27,,,,,2.2,1.5,1.6*3F
$GPRMC,170054.000,A,2233.2177,N,11413.7924,E,0.0,303.6,040191,,,A*6F
$GPGGA,170054.000,2233.2177,N,11413.7924,E,1,08,1.5,17.0,M,14.2,M,,0000*6B
$GPVTG,303.6,T,,M,0.0,N,0.0,K,A*0B
$GPGLL,2233.2177,N,11413.7924,E,170054.00,A,A*63
$GPGSA,A,3,02,04,05,09,10,15,26,27,,,,,2.2,1.5,1.6*3F
$GPRMC,170055.000,A,2233.2177,N,11413.7924,E,0.0,303.6,040191,,,A*6E
$GPGGA,170055.000,2233.2177,N,11413.7924,E,1,08,1.5,17.0,M,14.2,M,,0000*6A
$GPVTG,303.6,T,,M,0.0,N,0.0,K,A*0B
$GPGLL,2233.2177,N,11413.7924,E,170055.00,A,A*62
$GPGSA,A,3,02,04,05,09,10,15,26,27,,,,,2.2,1.5,1.6*3F
$GPRMC,170056.000,A,2233.2177,N,11413.7924,E,0.0,303.6,040191,,,A*6D
$GPGGA,170056.000,2233.2177,N,11413.7924,E,1,08,1.5,17.0,M,14.2,M,,0000*69
$GPVTG,303.6,T,,M,0.0,N,0.0,K,A*0B
$GPGLL,2233.2177,N,11413.7924,E,170056.00,A,A*61
$GPGSA,A,3,02,04,05,09,10,15,26,27,,,,,2.2,1.5,1.6*3F
$GPGSV,3,1,11,10,16,056,20,05,44,021,22,02,44,106,18,04,09,121,27*7C
$GPGSV,3,2,11,27,18,169,34,26,82,050,15,15,67,222,17,09,08,181,35*7C
$GPGSV,3,3,11,29,41,293,16,08,14,064,,18,05,268,*47
$GPRMC,170057.000,A,2233.2177,N,11413.7924,E,0.0,303.6,040191,,,A*6C
$GPGGA,170057.000,2233.2177,N,11413.7924,E,1,08,1.5,17.0,M,14.2,M,,0000*68
$GPVTG,303.6,T,,M,0.0,N,0.0,K,A*0B
$GPGLL,2233.2177,N,11413.7924,E,170057.00,A,A*60
$GPGSA,A,3,02,04,05,09,10,15,26,27,,,,,2.2,1.5,1.6*3F
$GPRMC,170058.000,A,2233.2177,N,11413.7924,E,0.0,303.6,040191,,,A*63
$GPGGA,170058.000,2233.2177,N,11413.7924,E,1,07,2.0,17.0,M,14.2,M,,0000*6E
$GPVTG,303.6,T,,M,0.0,N,0.0,K,A*0B
$GPGLL,2233.2177,N,11413.7924,E,170058.00,A,A*6F
$GPGSA,A,3,04,05,09,10,15,26,27,,,,,,2.9,2.0,2.1*34
$GPRMC,170059.000,A,2233.2177,N,11413.7924,E,0.0,303.6,040191,,,A*62
$GPGGA,170059.000,2233.2177,N,11413.7924,E,1,08,1.5,17.0,M,14.2,M,,0000*66
$GPVTG,303.6,T,,M,0.0,N,0.0,K,A*0B
$GPGLL,2233.2177,N,11413.7924,E,170059.00,A,A*6E
$GPGSA,A,3,02,04,05,09,10,15,26,27,,,,,2.2,1.5,1.6*3F
$GPRMC,170100.000,A,2233.2177,N,11413.7924,E,0.0,303.6,040191,,,A*6F
$GPGGA,170100.000,2233.2177,N,11413.7924,E,1,08,1.5,17.0,M,14.2,M,,0000*6B
$GPVTG,303.6,T,,M,0.0,N,0.0,K,A*0B
$GPGLL,2233.2177,N,11413.7924,E,170100.00,A,A*63
$GPGSA,A,3,02,04,05,09,10,15,26,27,,,,,2.2,1.5,1.6*3F
$GPRMC,170101.000,A,2233.2177,N,11413.7924,E,0.0,303.6,040191,,,A*6E
$GPGGA,170101.000,2233.2177,N,11413.7924,E,1,08,1.5,17.0,M,14.2,M,,0000*6A
$GPVTG,303.6,T,,M,0.0,N,0.0,K,A*0B
$GPGLL,2233.2177,N,11413.7924,E,170101.00,A,A*62
$GPGSA,A,3,02,04,05,09,10,15,26,27,,,,,2.2,1.5,1.6*3F
$GPGSV,3,1,11,10,16,056,21,05,44,021,17,02,44,106,18,04,09,121,27*7B
$GPGSV,3,2,11,27,18,169,34,26,82,050,14,15,67,222,20,09,08,181,35*79
$GPGSV,3,3,11,29,41,293,16,08,14,064,,18,05,268,*47
$GPRMC,170102.000,A,2233.2177,N,11413.7924,E,0.0,303.6,040191,,,A*6D
$GPGGA,170102.000,2233.2177,N,11413.7924,E,1,08,1.5,17.0,M,14.2,M,,0000*69
$GPVTG,303.6,T,,M,0.0,N,0.0,K,A*0B
$GPGLL,2233.2177,N,11413.7924,E,170102.00,A,A*61
$GPGSA,A,3,02,04,05,09,10,15,26,27,,,,,2.2,1.5,1.6*3F
$GPRMC,170103.000,A,2233.2177,N,11413.7924,E,0.0,303.6,040191,,,A*6C
$GPGGA,170103.000,2233.2177,N,11413.7924,E,1,08,1.5,17.0,M,14.2,M,,0000*68
$GPVTG,303.6,T,,M,0.0,N,0.0,K,A*0B
$GPGLL,2233.2177,N,11413.7924,E,170103.00,A,A*60
$GPGSA,A,3,02,04,05,09,10,15,26,27,,,,,2.2,1.5,1.6*3F
$GPRMC,170104.000,A,2233.2177,N,11413.7924,E,0.0,303.6,040191,,,A*6B
$GPGGA,170104.000,2233.2177,N,11413.7924,E,1,08,1.5,17.0,M,14.2,M,,0000*6F
$GPVTG,303.6,T,,M,0.0,N,0.0,K,A*0B
$GPGLL,2233.2177,N,11413.7924,E,170104.00,A,A*67
$GPGSA,A,3,02,04,05,09,10,15,26,27,,,,,2.2,1.5,1.6*3F
$GPRMC,170105.000,A,2233.2177,N,11413.7924,E,0.0,303.6,040191,,,A*6A
$GPGGA,170105.000,2233.2177,N,11413.7924,E,1,08,1.5,17.0,M,14.2,M,,0000*6E
$GPVTG,303.6,T,,M,0.0,N,0.0,K,A*0B
$GPGLL,2233.2177,N,11413.7924,E,170105.00,A,A*66
$GPGSA,A,3,02,04,05,09,10,15,26,27,,,,,2.2,1.5,1.6*3F
$GPRMC,170106.000,A,2233.2177,N,11413.7924,E,0.0,303.6,040191,,,A*69
$GPGGA,170106.000,2233.2177,N,11413.7924,E,1,08,1.5,17.0,M,14.2,M,,0000*6D
$GPVTG,303.6,T,,M,0.0,N,0.0,K,A*0B
$GPGLL,2233.2177,N,11413.7924,E,170106.00,A,A*65
$GPGSA,A,3,02,04,05,09,10,15,26,27,,,,,2.2,1.5,1.6*3F
$GPGSV,3,1,11,10,16,057,21,05,44,021,19,02,44,106,19,04,09,121,27*75
$GPGSV,3,2,11,27,18,169,35,26,82,050,12,15,67,222,22,09,08,181,35*7C
$GPGSV,3,3,11,29,41,293,16,08,14,064,,18,05,268,*47
$GPRMC,170107.000,A,2233.2177,N,11413.7924,E,0.0,303.6,040191,,,A*68
$GPGGA,170107.000,2233.2177,N,11413.7924,E,1,08,1.5,17.0,M,14.2,M,,0000*6C
$GPVTG,303.6,T,,M,0.0,N,0.0,K,A*0B
$GPGLL,2233.2177,N,11413.7924,E,170107.00,A,A*64
$GPGSA,A,3,02,04,05,09,10,15,26,27,,,,,2.2,1.5,1.6*3F
$GPRMC,170108.000,A,2233.2177,N,11413.7924,E,0.0,303.6,040191,,,A*67
$GPGGA,170108.000,2233.2177,N,11413.7924,E,1,08,1.5,17.0,M,14.2,M,,0000*63
$GPVTG,303.6,T,,M,0.0,N,0.0,K,A*0B
$GPGLL,2233.2177,N,11413.7924,E,170108.00,A,A*6B
$GPGSA,A,3,02,04,05,09,10,15,26,27,,,,,2.2,1.5,1.6*3F
$GPRMC,170109.000,A,2233.2177,N,11413.7924,E,0.0,303.6,040191,,,A*66
$GPGGA,170109.000,2233.2177,N,11413.7924,E,1,07,1.8,17.0,M,14.2,M,,0000*60
$GPVTG,303.6,T,,M,0.0,N,0.0,K,A*0B
$GPGLL,2233.2177,N,11413.7924,E,170109.00,A,A*6A
$GPGSA,A,3,02,04,09,10,15,26,27,,,,,,2.5,1.8,1.7*31
$GPRMC,170110.000,A,2233.2177,N,11413.7924,E,0.0,303.6,040191,,,A*6E
$GPGGA,170110.000,2233.2177,N,11413.7924,E,1,07,1.8,17.0,M,14.2,M,,0000*68
$GPVTG,303.6,T,,M,0.0,N,0.0,K,A*0B
$GPGLL,2233.2177,N,11413.7924,E,170110.00,A,A*62
$GPGSA,A,3,02,04,09,10,15,26,27,,,,,,2.5,1.8,1.7*31
$GPRMC,170111.000,A,2233.2177,N,11413.7924,E,0.0,303.6,040191,,,A*6F
$GPGGA,170111.000,2233.2177,N,11413.7924,E,1,06,1.8,17.0,M,14.2,M,,0000*68
$GPVTG,303.6,T,,M,0.0,N,0.0,K,A*0B
$GPGLL,2233.2177,N,11413.7924,E,170111.00,A,A*63
$GPGSA,A,3,02,04,09,10,15,27,,,,,,,2.5,1.8,1.8*3A
$GPGSV,3,1,11,10,16,057,20,02,44,106,15,04,09,121,27,27,18,169,35*72
$GPGSV,3,2,11,26,82,050,11,15,67,223,23,09,08,181,33,29,41,293,15*7F
$GPGSV,3,3,11,05,44,021,,08,14,064,,18,05,268,*40
$GPRMC,170112.000,A,2233.2177,N,11413.7924,E,0.0,303.6,040191,,,A*6C
$GPGGA,170112.000,2233.2177,N,11413.7924,E,1,06,1.8,17.0,M,14.2,M,,0000*6B
$GPVTG,303.6,T,,M,0.0,N,0.0,K,A*0B
$GPGLL,2233.2177,N,11413.7924,E,170112.00,A,A*60
$GPGSA,A,3,02,04,09,10,15,27,,,,,,,2.5,1.8,1.8*3A
$GPRMC,170113.000,A,2233.2177,N,11413.7924,E,0.0,303.6,040191,,,A*6D
$GPGGA,170113.000,2233.2177,N,11413.7924,E,1,06,1.8,17.0,M,14.2,M,,0000*6A
$GPVTG,303.6,T,,M,0.0,N,0.0,K,A*0B
$GPGLL,2233.2177,N,11413.7924,E,170113.00,A,A*61
$GPGSA,A,3,02,04,09,10,15,27,,,,,,,2.5,1.8,1.8*3A
$GPRMC,170114.000,A,2233.2177,N,11413.7924,E,0.0,303.6,040191,,,A*6A
$GPGGA,170114.000,2233.2177,N,11413.7924,E,1,07,1.5,17.0,M,14.2,M,,0000*61
$GPVTG,303.6,T,,M,0.0,N,0.0,K,A*0B
$GPGLL,2233.2177,N,11413.7924,E,170114.00,A,A*66
$GPGSA,A,3,02,04,05,09,10,15,27,,,,,,2.3,1.5,1.8*34
$GPRMC,170115.000,A,2233.2177,N,11413.7924,E,0.0,303.6,040191,,,A*6B
$GPGGA,170115.000,2233.2177,N,11413.7924,E,1,06,1.8,17.0,M,14.2,M,,0000*6C
$GPVTG,303.6,T,,M,0.0,N,0.0,K,A*0B
$GPGLL,2233.2177,N,11413.7924,E,170115.00,A,A*67
$GPGSA,A,3,02,04,09,10,15,27,,,,,,,2.5,1.8,1.8*3A
$GPRMC,170116.000,A,2233.2177,N,11413.7924,E,0.0,303.6,040191,,,A*68
$GPGGA,170116.000,2233.2177,N,11413.7924,E,1,06,2.3,17.0,M,14.2,M,,0000*67
$GPVTG,303.6,T,,M,0.0,N,0.0,K,A*0B
$GPGLL,2233.2177,N,11413.7924,E,170116.00,A,A*64
$GPGSA,A,3,04,05,09,10,15,27,,,,,,,3.6,2.3,2.8*34
$GPGSV,3,1,11,10,16,057,21,05,44,021,17,02,44,106,13,04,09,121,27*71
$GPGSV,3,2,11,27,18,169,36,15,67,223,22,09,08,181,33,29,41,293,20*74
$GPGSV,3,3,11,26,82,049,,08,14,064,,18,05,268,*45
$GPRMC,170117.000,A,2233.2177,N,11413.7924,E,0.0,303.6,040191,,,A*69
$GPGGA,170117.000,2233.2177,N,11413.7924,E,1,07,1.5,17.0,M,14.2,M,,0000*62
$GPVTG,303.6,T,,M,0.0,N,0.0,K,A*0B
$GPGLL,2233.2177,N,11413.7924,E,170117.00,A,A*65
$GPGSA,A,3,02,04,05,09,10,15,27,,,,,,2.3,1.5,1.8*34
$GPRMC,170118.000,A,2233.2177,N,11413.7924,E,0.0,303.6,040191,,,A*66
$GPGGA,170118.000,2233.2177,N,11413.7924,E,1,06,1.8,17.0,M,14.2,M,,0000*61
$GPVTG,303.6,T,,M,0.0,N,0.0,K,A*0B
$GPGLL,2233.2177,N,11413.7924,E,170118.00,A,A*6A
$GPGSA,A,3,02,04,09,10,15,27,,,,,,,2.5,1.8,1.8*3A
$GPRMC,170119.000,A,2233.2177,N,11413.7924,E,0.0,303.6,040191,,,A*67
$GPGGA,170119.000,2233.2177,N,11413.7924,E,1,07,1.5,17.0,M,14.2,M,,0000*6C
$GPVTG,303.6,T,,M,0.0,N,0.0,K,A*0B
$GPGLL,2233.2177,N,11413.7924,E,170119.00,A,A*6B
$GPGSA,A,3,02,04,05,09,10,15,27,,,,,,2.3,1.5,1.8*34
$GPRMC,170120.000,A,2233.2177,N,11413.7924,E,0.0,303.6,040191,,,A*6D
$GPGGA,170120.000,2233.2177,N,11413.7924,E,1,07,1.5,17.0,M,14.2,M,,0000*66
$GPVTG,303.6,T,,M,0.0,N,0.0,K,A*0B
$GPGLL,2233.2177,N,11413.7924,E,170120.00,A,A*61
$GPGSA,A,3,02,04,05,09,10,15,27,,,,,,2.3,1.5,1.8*34
$GPRMC,170121.000,A,2233.2177,N,11413.7924,E,0.0,303.6,040191,,,A*6C
$GPGGA,170121.000,2233.2177,N,11413.7924,E,1,08,1.5,17.0,M,14.2,M,,0000*68
$GPVTG,303.6,T,,M,0.0,N,0.0,K,A*0B
$GPGLL,2233.2177,N,11413.7924,E,170121.00,A,A*60
$GPGSA,A,3,02,04,05,09,10,15,26,27,,,,,2.2,1.5,1.6*3F
$GPGSV,3,1,11,10,16,057,23,05,44,021,20,02,44,106,19,04,09,121,27*7D
$GPGSV,3,2,11,27,18,168,35,26,82,049,14,15,67,223,23,09,08,181,33*75
$GPGSV,3,3,11,29,41,293,16,08,14,064,,18,05,268,*47
$GPRMC,170122.000,A,2233.2177,N,11413.7924,E,0.0,303.6,040191,,,A*6F
$GPGGA,170122.000,2233.2177,N,11413.7924,E,1,08,1.5,17.0,M,14.2,M,,0000*6B
$GPVTG,303.6,T,,M,0.0,N,0.0,K,A*0B
$GPGLL,2233.2177,N,11413.7924,E,170122.00,A,A*63
$GPGSA,A,3,02,04,05,09,10,15,26,27,,,,,2.2,1.5,1.6*3F
$GPRMC,170123.000,A,2233.2177,N,11413.7924,E,0.0,303.6,040191,,,A*6E
$GPGGA,170123.000,2233.2177,N,11413.7924,E,1,08,1.5,17.0,M,14.2,M,,0000*6A
$GPVTG,303.6,T,,M,0.0,N,0.0,K,A*0B
$GPGLL,2233.2177,N,11413.7924,E,170123.00,A,A*62
$GPGSA,A,3,02,04,05,09,10,15,26,27,,,,,2.2,1.5,1.6*3F
$GPRMC,170124.000,A,2233.2177,N,11413.7924,E,0.0,303.6,040191,,,A*69
$GPGGA,170124.000,2233.2177,N,11413.7924,E,1,08,1.5,17.0,M,14.2,M,,0000*6D
$GPVTG,303.6,T,,M,0.0,N,0.0,K,A*0B
$GPGLL,2233.2177,N,11413.7924,E,170124.00,A,A*65
$GPGSA,A,3,02,04,05,09,10,15,26,27,,,,,2.2,1.5,1.6*3F
$GPRMC,170125.000,A,2233.2177,N,11413.7924,E,0.0,303.6,040191,,,A*68
$GPGGA,170125.000,2233.2177,N,11413.7924,E,1,08,1.5,17.0,M,14.2,M,,0000*6C
$GPVTG,303.6,T,,M,0.0,N,0.0,K,A*0B
$GPGLL,2233.2177,N,11413.7924,E,170125.00,A,A*64
$GPGSA,A,3,02,04,05,09,10,15,26,27,,,,,2.2,1.5,1.6*3F
$GPRMC,170126.000,A,2233.2177,N,11413.7924,E,0.0,303.6,040191,,,A*6B
$GPGGA,170126.000,2233.2177,N,11413.7924,E,1,08,1.5,17.0,M,14.2,M,,0000*6F
$GPVTG,303.6,T,,M,0.0,N,0.0,K,A*0B
$GPGLL,2233.2177,N,11413.7924,E,170126.00,A,A*67
$GPGSA,A,3,02,04,05,09,10,15,26,27,,,,,2.2,1.5,1.6*3F
$GPGSV,3,1,11,10,16,057,22,05,44,022,21,02,44,106,18,04,09,121,27*7F
$GPGSV,3,2,11,27,18,168,35,26,82,049,13,15,67,223,24,09,08,181,33*75
$GPGSV,3,3,11,29,41,293,,08,14,064,,18,05,268,*40
$GPRMC,170127.000,A,2233.2177,N,11413.7924,E,0.0,303.6,040191,,,A*6A
$GPGGA,170127.000,2233.2177,N,11413.7924,E,1,08,1.5,17.0,M,14.2,M,,0000*6E
$GPVTG,303.6,T,,M,0.0,N,0.0,K,A*0B
$GPGLL,2233.2177,N,11413.7924,E,170127.00,A,A*66
$GPGSA,A,3,02,04,05,09,10,15,26,27,,,,,2.2,1.5,1.6*3F
$GPRMC,170128.000,A,2233.2177,N,11413.7924,E,0.0,303.6,040191,,,A*65
$GPGGA,170128.000,2233.2177,N,11413.7924,E,1,08,1.5,17.0,M,14.2,M,,0000*61
$GPVTG,303.6,T,,M,0.0,N,0.0,K,A*0B
$GPGLL,2233.2177,N,11413.7924,E,170128.00,A,A*69
$GPGSA,A,3,02,04,05,09,10,15,26,27,,,,,2.2,1.5,1.6*3F
$GPRMC,170129.000,A,2233.2177,N,11413.7924,E,0.0,303.6,040191,,,A*64
$GPGGA,170129.000,2233.2177,N,11413.7924,E,1,08,1.5,17.0,M,14.2,M,,0000*60
$GPVTG,303.6,T,,M,0.0,N,0.0,K,A*0B
$GPGLL,2233.2177,N,11413.7924,E,170129.00,A,A*68
$GPGSA,A,3,02,04,05,09,10,15,26,27,,,,,2.2,1.5,1.6*3F
$GPRMC,170130.000,A,2233.2177,N,11413.7924,E,0.0,303.6,040191,,,A*6C
$GPGGA,170130.000,2233.2177,N,11413.7924,E,1,08,1.5,17.0,M,14.2,M,,0000*68
$GPVTG,303.6,T,,M,0.0,N,0.0,K,A*0B
$GPGLL,2233.2177,N,11413.7924,E,170130.00,A,A*60
$GPGSA,A,3,02,04,05,09,10,15,26,27,,,,,2.2,1.5,1.6*3F
$GPRMC,170131.000,A,2233.2177,N,11413.7924,E,0.0,303.6,040191,,,A*6D
$GPGGA,170131.000,2233.2177,N,11413.7924,E,1,08,1.5,17.0,M,14.2,M,,0000*69
$GPVTG,303.6,T,,M,0.0,N,0.0,K,A*0B
$GPGLL,2233.2177,N,11413.7924,E,170131.00,A,A*61
$GPGSA,A,3,02,04,05,09,10,15,26,27,,,,,2.2,1.5,1.6*3F
$GPGSV,3,1,12,10,16,057,20,05,44,022,23,02,44,106,18,04,09,121,26*7D
$GPGSV,3,2,12,27,18,168,34,26,82,049,13,15,67,223,25,09,08,181,32*77
$GPGSV,3,3,12,29,41,293,,08,14,064,,18,05,268,,21,04,313,*75
$GPRMC,170132.000,A,2233.2177,N,11413.7924,E,0.0,303.6,040191,,,A*6E
$GPGGA,170132.000,2233.2177,N,11413.7924,E,1,08,1.5,17.0,M,14.2,M,,0000*6A
$GPVTG,303.6,T,,M,0.0,N,0.0,K,A*0B
$GPGLL,2233.2177,N,11413.7924,E,170132.00,A,A*62
$GPGSA,A,3,02,04,05,09,10,15,26,27,,,,,2.2,1.5,1.6*3F
$GPRMC,170133.000,A,2233.2177,N,11413.7924,E,0.0,303.6,040191,,,A*6F
$GPGGA,170133.000,2233.2177,N,11413.7924,E,1,08,1.5,17.0,M,14.2,M,,0000*6B
$GPVTG,303.6,T,,M,0.0,N,0.0,K,A*0B
$GPGLL,2233.2177,N,11413.7924,E,170133.00,A,A*63
$GPGSA,A,3,02,04,05,09,10,15,26,27,,,,,2.2,1.5,1.6*3F
$GPRMC,170134.000,A,2233.2177,N,11413.7924,E,0.0,303.6,040191,,,A*68
$GPGGA,170134.000,2233.2177,N,11413.7924,E,1,08,1.5,17.0,M,14.2,M,,0000*6C
$GPVTG,303.6,T,,M,0.0,N,0.0,K,A*0B
$GPGLL,2233.2177,N,11413.7924,E,170134.00,A,A*64
$GPGSA,A,3,02,04,05,09,10,15,26,27,,,,,2.2,1.5,1.6*3F
$GPRMC,170135.000,A,2233.2177,N,11413.7924,E,0.0,303.6,040191,,,A*69
$GPGGA,170135.000,2233.2177,N,11413.7924,E,1,08,1.5,17.0,M,14.2,M,,0000*6D
$GPVTG,303.6,T,,M,0.0,N,0.0,K,A*0B
$GPGLL,2233.2177,N,11413.7924,E,170135.00,A,A*65
$GPGSA,A,3,02,04,05,09,10,15,26,27,,,,,2.2,1.5,1.6*3F
$GPRMC,170136.000,A,2233.2177,N,11413.7924,E,0.0,303.6,040191,,,A*6A
$GPGGA,170136.000,2233.2177,N,11413.7924,E,1,08,1.5,17.0,M,14.2,M,,0000*6E
$GPVTG,303.6,T,,M,0.0,N,0.0,K,A*0B
$GPGLL,2233.2177,N,11413.7924,E,170136.00,A,A*66
$GPGSA,A,3,02,04,05,09,10,15,26,27,,,,,2.2,1.5,1.6*3F
$GPGSV,3,1,12,10,16,057,20,05,44,022,22,02,44,106,20,04,09,121,28*79
$GPGSV,3,2,12,27,18,168,35,26,81,049,14,15,67,223,28,09,08,181,33*7E
$GPGSV,3,3,12,29,41,293,,08,14,064,,18,05,269,,21,04,313,*74
$GPRMC,170137.000,A,2233.2177,N,11413.7924,E,0.0,303.6,040191,,,A*6B
$GPGGA,170137.000,2233.2177,N,11413.7924,E,1,08,1.5,17.0,M,14.2,M,,0000*6F
$GPVTG,303.6,T,,M,0.0,N,0.0,K,A*0B
$GPGLL,2233.2177,N,11413.7924,E,170137.00,A,A*67
$GPGSA,A,3,02,04,05,09,10,15,26,27,,,,,2.2,1.5,1.6*3F
$GPRMC,170138.000,A,2233.2177,N,11413.7924,E,0.0,303.6,040191,,,A*64
$GPGGA,170138.000,2233.2177,N,11413.7924,E,1,08,1.5,17.0,M,14.2,M,,0000*60
$GPVTG,303.6,T,,M,0.0,N,0.0,K,A*0B
$GPGLL,2233.2177,N,11413.7924,E,170138.00,A,A*68
$GPGSA,A,3,02,04,05,09,10,15,26,27,,,,,2.2,1.5,1.6*3F
$GPRMC,170139.000,A,2233.2177,N,11413.7924,E,0.0,303.6,040191,,,A*65
$GPGGA,170139.000,2233.2177,N,11413.7924,E,1,08,1.5,17.0,M,14.2,M,,0000*61
$GPVTG,303.6,T,,M,0.0,N,0.0,K,A*0B
$GPGLL,2233.2177,N,11413.7924,E,170139.00,A,A*69
$GPGSA,A,3,02,04,05,09,10,15,26,27,,,,,2.2,1.5,1.6*3F
$GPRMC,170140.000,A,2233.2177,N,11413.7924,E,0.0,303.6,040191,,,A*6B
$GPGGA,170140.000,2233.2177,N,11413.7924,E,1,08,1.5,17.0,M,14.2,M,,0000*6F
$GPVTG,303.6,T,,M,0.0,N,0.0,K,A*0B
$GPGLL,2233.2177,N,11413.7924,E,170140.00,A,A*67
$GPGSA,A,3,02,04,05,09,10,15,26,27,,,,,2.2,1.5,1.6*3F
$GPRMC,170141.000,A,2233.2177,N,11413.7924,E,0.0,303.6,040191,,,A*6A
$GPGGA,170141.000,2233.2177,N,11413.7924,E,1,08,1.5,17.0,M,14.2,M,,0000*6E
$GPVTG,303.6,T,,M,0.0,N,0.0,K,A*0B
$GPGLL,2233.2177,N,11413.7924,E,170141.00,A,A*66
$GPGSA,A,3,02,04,05,09,10,15,26,27,,,,,2.2,1.5,1.6*3F
$GPGSV,3,1,12,10,16,057,22,05,44,022,20,02,44,106,18,04,09,121,27*7D
$GPGSV,3,2,12,27,18,168,34,26,81,048,15,15,67,223,27,09,08,181,34*77
$GPGSV,3,3,12,29,41,293,,08,14,064,,18,05,269,,21,04,313,*74
$GPRMC,170142.000,A,2233.2177,N,11413.7924,E,0.0,303.6,040191,,,A*69
$GPGGA,170142.000,2233.2177,N,11413.7924,E,1,08,1.5,17.0,M,14.2,M,,0000*6D
$GPVTG,303.6,T,,M,0.0,N,0.0,K,A*0B
$GPGLL,2233.2177,N,11413.7924,E,170142.00,A,A*65
$GPGSA,A,3,02,04,05,09,10,15,26,27,,,,,2.2,1.5,1.6*3F
$GPRMC,170143.000,A,2233.2177,N,11413.7924,E,0.0,303.6,040191,,,A*68
$GPGGA,170143.000,2233.2177,N,11413.7924,E,1,08,1.5,17.0,M,14.2,M,,0000*6C
$GPVTG,303.6,T,,M,0.0,N,0.0,K,A*0B
$GPGLL,2233.2177,N,11413.7924,E,170143.00,A,A*64
$GPGSA,A,3,02,04,05,09,10,15,26,27,,,,,2.2,1.5,1.6*3F
$GPRMC,170144.000,A,2233.2177,N,11413.7924,E,0.0,303.6,040191,,,A*6F
$GPGGA,170144.000,2233.2177,N,11413.7924,E,1,08,1.5,17.0,M,14.2,M,,0000*6B
$GPVTG,303.6,T,,M,0.0,N,0.0,K,A*0B
$GPGLL,2233.2177,N,11413.7924,E,170144.00,A,A*63
$GPGSA,A,3,02,04,05,09,10,15,26,27,,,,,2.2,1.5,1.6*3F
$GPRMC,170145.000,A,2233.2177,N,11413.7924,E,0.0,303.6,040191,,,A*6E
$GPGGA,170145.000,2233.2177,N,11413.7924,E,1,08,1.5,17.0,M,14.2,M,,0000*6A
$GPVTG,303.6,T,,M,0.0,N,0.0,K,A*0B
$GPGLL,2233.2177,N,11413.7924,E,170145.00,A,A*62
$GPGSA,A,3,02,04,05,09,10,15,26,27,,,,,2.2,1.5,1.6*3F
$GPRMC,170146.000,A,2233.2177,N,11413.7924,E,0.0,303.6,040191,,,A*6D
$GPGGA,170146.000,2233.2177,N,11413.7924,E,1,08,1.5,17.0,M,14.2,M,,0000*69
$GPVTG,303.6,T,,M,0.0,N,0.0,K,A*0B
$GPGLL,2233.2177,N,11413.7924,E,170146.00,A,A*61
$GPGSA,A,3,02,04,05,09,10,15,26,27,,,,,2.2,1.5,1.6*3F
$GPGSV,3,1,12,10,16,057,24,05,44,022,19,02,44,106,18,04,09,121,28*7E
$GPGSV,3,2,12,27,18,168,34,26,81,048,15,15,68,223,27,09,08,181,33*7F
$GPGSV,3,3,12,29,41,293,,08,14,064,,18,05,269,,21,04,313,*74
$GPRMC,170147.000,A,2233.2177,N,11413.7924,E,0.0,303.6,040191,,,A*6C
$GPGGA,170147.000,2233.2177,N,11413.7924,E,1,08,1.5,17.0,M,14.2,M,,0000*68
$GPVTG,303.6,T,,M,0.0,N,0.0,K,A*0B
$GPGLL,2233.2177,N,11413.7924,E,170147.00,A,A*60
$GPGSA,A,3,02,04,05,09,10,15,26,27,,,,,2.2,1.5,1.6*3F
$GPRMC,170148.000,A,2233.2177,N,11413.7924,E,0.0,303.6,040191,,,A*63
$GPGGA,170148.000,2233.2177,N,11413.7924,E,1,08,1.5,17.0,M,14.2,M,,0000*67
$GPVTG,303.6,T,,M,0.0,N,0.0,K,A*0B
$GPGLL,2233.2177,N,11413.7924,E,170148.00,A,A*6F
$GPGSA,A,3,02,04,05,09,10,15,26,27,,,,,2.2,1.5,1.6*3F
$GPRMC,170149.000,A,2233.2177,N,11413.7924,E,0.0,303.6,040191,,,A*62
$GPGGA,170149.000,2233.2177,N,11413.7924,E,1,07,2.0,17.0,M,14.2,M,,0000*6F
$GPVTG,303.6,T,,M,0.0,N,0.0,K,A*0B
$GPGLL,2233.2177,N,11413.7924,E,170149.00,A,A*6E
$GPGSA,A,3,04,05,09,10,15,26,27,,,,,,3.0,2.0,2.2*3F
$GPRMC,170150.000,A,2233.2177,N,11413.7924,E,0.0,303.6,040191,,,A*6A
$GPGGA,170150.000,2233.2177,N,11413.7924,E,1,07,2.0,17.0,M,14.2,M,,0000*67
$GPVTG,303.6,T,,M,0.0,N,0.0,K,A*0B
$GPGLL,2233.2177,N,11413.7924,E,170150.00,A,A*66
$GPGSA,A,3,04,05,09,10,15,26,27,,,,,,3.0,2.0,2.2*3F
$GPRMC,170151.000,A,2233.2177,N,11413.7924,E,0.0,303.6,040191,,,A*6B
$GPGGA,170151.000,2233.2177,N,11413.7924,E,1,07,2.0,17.0,M,14.2,M,,0000*66
$GPVTG,303.6,T,,M,0.0,N,0.0,K,A*0B
$GPGLL,2233.2177,N,11413.7924,E,170151.00,A,A*67
$GPGSA,A,3,04,05,09,10,15,26,27,,,,,,3.0,2.0,2.2*3F
$GPGSV,3,1,12,10,16,057,23,05,44,022,18,04,09,121,27,27,18,168,33*78
$GPGSV,3,2,12,26,81,048,15,15,68,223,27,09,08,181,33,02,44,106,*7E
$GPGSV,3,3,12,29,41,293,,08,14,064,,18,05,269,,21,04,313,*74
$GPRMC,170152.000,A,2233.2177,N,11413.7924,E,0.0,303.6,040191,,,A*68
$GPGGA,170152.000,2233.2177,N,11413.7924,E,1,07,2.0,17.0,M,14.2,M,,0000*65
$GPVTG,303.6,T,,M,0.0,N,0.0,K,A*0B
$GPGLL,2233.2177,N,11413.7924,E,170152.00,A,A*64
$GPGSA,A,3,04,05,09,10,15,26,27,,,,,,3.0,2.0,2.2*3F
$GPRMC,170153.000,A,2233.2177,N,11413.7924,E,0.0,303.6,040191,,,A*69
$GPGGA,170153.000,2233.2177,N,11413.7924,E,1,07,2.0,17.0,M,14.2,M,,0000*64
$GPVTG,303.6,T,,M,0.0,N,0.0,K,A*0B
$GPGLL,2233.2177,N,11413.7924,E,170153.00,A,A*65
$GPGSA,A,3,04,05,09,10,15,26,27,,,,,,3.0,2.0,2.2*3F
$GPRMC,170154.000,A,2233.2177,N,11413.7924,E,0.0,303.6,040191,,,A*6E
$GPGGA,170154.000,2233.2177,N,11413.7924,E,1,07,2.0,17.0,M,14.2,M,,0000*63
$GPVTG,303.6,T,,M,0.0,N,0.0,K,A*0B
$GPGLL,2233.2177,N,11413.7924,E,170154.00,A,A*62
$GPGSA,A,3,04,05,09,10,15,26,27,,,,,,3.0,2.0,2.2*3F
$GPRMC,170155.000,A,2233.2177,N,11413.7924,E,0.0,303.6,040191,,,A*6F
$GPGGA,170155.000,2233.2177,N,11413.7924,E,1,07,2.0,17.0,M,14.2,M,,0000*62
$GPVTG,303.6,T,,M,0.0,N,0.0,K,A*0B
$GPGLL,2233.2177,N,11413.7924,E,170155.00,A,A*63
$GPGSA,A,3,04,05,09,10,15,26,27,,,,,,3.0,2.0,2.2*3F
$GPRMC,170156.000,A,2233.2177,N,11413.7924,E,0.0,303.6,040191,,,A*6C
$GPGGA,170156.000,2233.2177,N,11413.7924,E,1,07,2.0,17.0,M,14.2,M,,0000*61
$GPVTG,303.6,T,,M,0.0,N,0.0,K,A*0B
$GPGLL,2233.2177,N,11413.7924,E,170156.00,A,A*60
$GPGSA,A,3,04,05,09,10,15,26,27,,,,,,3.0,2.0,2.2*3F
$GPGSV,3,1,12,10,16,057,22,05,43,022,17,04,09,121,28,27,18,168,34*79
$GPGSV,3,2,12,26,81,048,15,15,68,223,28,09,08,181,34,02,44,106,*76
$GPGSV,3,3,12,29,41,293,,08,14,064,,18,05,269,,21,04,313,*74
$GPRMC,170157.000,A,2233.2177,N,11413.7924,E,0.0,303.6,040191,,,A*6D
$GPGGA,170157.000,2233.2177,N,11413.7924,E,1,07,2.0,17.0,M,14.2,M,,0000*60
$GPVTG,303.6,T,,M,0.0,N,0.0,K,A*0B
$GPGLL,2233.2177,N,11413.7924,E,170157.00,A,A*61
$GPGSA,A,3,04,05,09,10,15,26,27,,,,,,3.0,2.0,2.2*3F
$GPRMC,170158.000,A,2233.2177,N,11413.7924,E,0.0,303.6,040191,,,A*62
$GPGGA,170158.000,2233.2177,N,11413.7924,E,1,06,2.4,17.0,M,14.2,M,,0000*6A
$GPVTG,303.6,T,,M,0.0,N,0.0,K,A*0B
$GPGLL,2233.2177,N,11413.7924,E,170158.00,A,A*6E
$GPGSA,A,3,04,09,10,15,26,27,,,,,,,3.4,2.4,2.4*3C
$GPRMC,170159.000,A,2233.2177,N,11413.7924,E,0.0,303.6,040191,,,A*63
$GPGGA,170159.000,2233.2177,N,11413.7924,E,1,06,2.4,17.0,M,14.2,M,,0000*6B
$GPVTG,303.6,T,,M,0.0,N,0.0,K,A*0B
$GPGLL,2233.2177,N,11413.7924,E,170159.00,A,A*6F
$GPGSA,A,3,04,09,10,15,26,27,,,,,,,3.4,2.4,2.4*3C
$GPRMC,170200.000,A,2233.2177,N,11413.7924,E,0.0,303.6,040191,,,A*6C
$GPGGA,170200.000,2233.2177,N,11413.7924,E,1,06,2.4,17.0,M,14.2,M,,0000*64
$GPVTG,303.6,T,,M,0.0,N,0.0,K,A*0B
$GPGLL,2233.2177,N,11413.7924,E,170200.00,A,A*60
$GPGSA,A,3,04,09,10,15,26,27,,,,,,,3.4,2.4,2.4*3C
$GPRMC,170201.000,A,2233.2177,N,11413.7924,E,0.0,303.6,040191,,,A*6D
$GPGGA,170201.000,2233.2177,N,11413.7924,E,1,06,2.4,17.0,M,14.2,M,,0000*65
$GPVTG,303.6,T,,M,0.0,N,0.0,K,A*0B
$GPGLL,2233.2177,N,11413.7924,E,170201.00,A,A*61
$GPGSA,A,3,04,09,10,15,26,27,,,,,,,3.4,2.4,2.4*3C
$GPGSV,3,1,12,10,16,057,21,02,44,106,13,04,09,121,28,27,18,168,34*79
$GPGSV,3,2,12,26,81,048,14,15,68,223,28,09,08,181,34,05,43,022,*70
$GPGSV,3,3,12,29,41,293,,08,14,064,,18,05,269,,21,04,313,*74
$GPRMC,170202.000,A,2233.2177,N,11413.7924,E,0.0,303.6,040191,,,A*6E
$GPGGA,170202.000,2233.2177,N,11413.7924,E,1,07,1.8,17.0,M,14.2,M,,0000*68
$GPVTG,303.6,T,,M,0.0,N,0.0,K,A*0B
$GPGLL,2233.2177,N,11413.7924,E,170202.00,A,A*62
$GPGSA,A,3,02,04,09,10,15,26,27,,,,,,2.5,1.8,1.7*31
$GPRMC,170203.000,A,2233.2177,N,11413.7924,E,0.0,303.6,040191,,,A*6F
$GPGGA,170203.000,2233.2177,N,11413.7924,E,1,07,1.8,17.0,M,14.2,M,,0000*69
$GPVTG,303.6,T,,M,0.0,N,0.0,K,A*0B
$GPGLL,2233.2177,N,11413.7924,E,170203.00,A,A*63
$GPGSA,A,3,02,04,09,10,15,26,27,,,,,,2.5,1.8,1.7*31
$GPRMC,170204.000,A,2233.2177,N,11413.7924,E,0.0,303.6,040191,,,A*68
$GPGGA,170204.000,2233.2177,N,11413.7924,E,1,07,1.8,17.0,M,14.2,M,,0000*6E
$GPVTG,303.6,T,,M,0.0,N,0.0,K,A*0B
$GPGLL,2233.2177,N,11413.7924,E,170204.00,A,A*64
$GPGSA,A,3,02,04,09,10,15,26,27,,,,,,2.5,1.8,1.7*31
$GPRMC,170205.000,A,2233.2177,N,11413.7924,E,0.0,303.6,040191,,,A*69
$GPGGA,170205.000,2233.2177,N,11413.7924,E,1,07,1.8,17.0,M,14.2,M,,0000*6F
$GPVTG,303.6,T,,M,0.0,N,0.0,K,A*0B
$GPGLL,2233.2177,N,11413.7924,E,170205.00,A,A*65
$GPGSA,A,3,02,04,09,10,15,26,27,,,,,,2.5,1.8,1.7*31
$GPRMC,170206.000,A,2233.2177,N,11413.7924,E,0.0,303.6,040191,,,A*6A
$GPGGA,170206.000,2233.2177,N,11413.7924,E,1,07,1.8,17.0,M,14.2,M,,0000*6C
$GPVTG,303.6,T,,M,0.0,N,0.0,K,A*0B
$GPGLL,2233.2177,N,11413.7924,E,170206.00,A,A*66
$GPGSA,A,3,02,04,09,10,15,26,27,,,,,,2.5,1.8,1.7*31
$GPGSV,3,1,12,10,16,057,23,05,43,022,14,02,44,106,15,04,09,121,27*71
$GPGSV,3,2,12,27,18,168,34,26,81,047,15,15,68,223,28,09,08,181,34*78
$GPGSV,3,3,12,29,41,293,,08,14,064,,18,05,269,,21,04,313,*74
$GPRMC,170207.000,A,2233.2177,N,11413.7924,E,0.0,303.6,040191,,,A*6B
$GPGGA,170207.000,2233.2177,N,11413.7924,E,1,08,1.5,17.0,M,14.2,M,,0000*6F
$GPVTG,303.6,T,,M,0.0,N,0.0,K,A*0B
$GPGLL,2233.2177,N,11413.7924,E,170207.00,A,A*67
$GPGSA,A,3,02,04,05,09,10,15,26,27,,,,,2.2,1.5,1.6*3F
$GPRMC,170208.000,A,2233.2177,N,11413.7924,E,0.0,303.6,040191,,,A*64
$GPGGA,170208.000,2233.2177,N,11413.7924,E,1,07,1.8,17.0,M,14.2,M,,0000*62
$GPVTG,303.6,T,,M,0.0,N,0.0,K,A*0B
$GPGLL,2233.2177,N,11413.7924,E,170208.00,A,A*68
$GPGSA,A,3,02,04,09,10,15,26,27,,,,,,2.5,1.8,1.7*31
$GPRMC,170209.000,A,2233.2177,N,11413.7924,E,0.0,303.6,040191,,,A*65
$GPGGA,170209.000,2233.2177,N,11413.7924,E,1,08,1.5,17.0,M,14.2,M,,0000*61
$GPVTG,303.6,T,,M,0.0,N,0.0,K,A*0B
$GPGLL,2233.2177,N,11413.7924,E,170209.00,A,A*69
$GPGSA,A,3,02,04,05,09,10,15,26,27,,,,,2.2,1.5,1.6*3F
$GPRMC,170210.000,A,2233.2177,N,11413.7924,E,0.0,303.6,040191,,,A*6D
$GPGGA,170210.000,2233.2177,N,11413.7924,E,1,08,1.5,17.0,M,14.2,M,,0000*69
$GPVTG,303.6,T,,M,0.0,N,0.0,K,A*0B
$GPGLL,2233.2177,N,11413.7924,E,170210.00,A,A*61
$GPGSA,A,3,02,04,05,09,10,15,26,27,,,,,2.2,1.5,1.6*3F
$GPRMC,170211.000,A,2233.2177,N,11413.7924,E,0.0,303.6,040191,,,A*6C
$GPGGA,170211.000,2233.2177,N,11413.7924,E,1,07,1.8,17.0,M,14.2,M,,0000*6A
$GPVTG,303.6,T,,M,0.0,N,0.0,K,A*0B
$GPGLL,2233.2177,N,11413.7924,E,170211.00,A,A*60
$GPGSA,A,3,02,04,09,10,15,26,27,,,,,,2.5,1.8,1.7*31
$GPGSV,3,1,12,10,16,057,25,05,43,022,14,02,44,106,17,04,09,121,27*75
$GPGSV,3,2,12,27,18,168,33,26,81,047,19,15,68,223,26,09,08,181,33*7A
$GPGSV,3,3,12,29,41,293,,08,14,064,,18,05,269,,21,04,313,*74
$GPRMC,170212.000,A,2233.2177,N,11413.7924,E,0.0,303.6,040191,,,A*6F
$GPGGA,170212.000,2233.2177,N,11413.7924,E,1,07,1.8,17.0,M,14.2,M,,0000*69
$GPVTG,303.6,T,,M,0.0,N,0.0,K,A*0B
$GPGLL,2233.2177,N,11413.7924,E,170212.00,A,A*63
$GPGSA,A,3,02,04,09,10,15,26,27,,,,,,2.5,1.8,1.7*31
$GPRMC,170213.000,A,2233.2177,N,11413.7924,E,0.0,303.6,040191,,,A*6E
$GPGGA,170213.000,2233.2177,N,11413.7924,E,1,07,1.8,17.0,M,14.2,M,,0000*68
$GPVTG,303.6,T,,M,0.0,N,0.0,K,A*0B
$GPGLL,2233.2177,N,11413.7924,E,170213.00,A,A*62
$GPGSA,A,3,02,04,09,10,15,26,27,,,,,,2.5,1.8,1.7*31
$GPRMC,170214.000,A,2233.2177,N,11413.7924,E,0.0,303.6,040191,,,A*69
$GPGGA,170214.000,2233.2177,N,11413.7924,E,1,07,1.8,17.0,M,14.2,M,,0000*6F
$GPVTG,303.6,T,,M,0.0,N,0.0,K,A*0B
$GPGLL,2233.2177,N,11413.7924,E,170214.00,A,A*65
$GPGSA,A,3,02,04,09,10,15,26,27,,,,,,2.5,1.8,1.7*31
$GPRMC,170215.000,A,2233.2177,N,11413.7924,E,0.0,303.6,040191,,,A*68
$GPGGA,170215.000,2233.2177,N,11413.7924,E,1,08,1.5,17.0,M,14.2,M,,0000*6C
$GPVTG,303.6,T,,M,0.0,N,0.0,K,A*0B
$GPGLL,2233.2177,N,11413.7924,E,170215.00,A,A*64
$GPGSA,A,3,02,04,05,09,10,15,26,27,,,,,2.2,1.5,1.6*3F
$GPRMC,170216.000,A,2233.2177,N,11413.7924,E,0.0,303.6,040191,,,A*6B
$GPGGA,170216.000,2233.2177,N,11413.7924,E,1,08,1.5,17.0,M,14.2,M,,0000*6F
$GPVTG,303.6,T,,M,0.0,N,0.0,K,A*0B
$GPGLL,2233.2177,N,11413.7924,E,170216.00,A,A*67
$GPGSA,A,3,02,04,05,09,10,15,26,27,,,,,2.2,1.5,1.6*3F
$GPGSV,3,1,12,10,16,057,24,05,43,022,20,02,44,106,16,04,09,121,27*72
$GPGSV,3,2,12,27,18,168,33,26,81,047,20,15,68,223,25,09,08,181,32*72
$GPGSV,3,3,12,29,41,293,,08,14,064,,18,05,269,,21,04,313,*74
$GPRMC,170217.000,A,2233.2177,N,11413.7924,E,0.0,303.6,040191,,,A*6A
$GPGGA,170217.000,2233.2177,N,11413.7924,E,1,08,1.5,17.0,M,14.2,M,,0000*6E
$GPVTG,303.6,T,,M,0.0,N,0.0,K,A*0B
$GPGLL,2233.2177,N,11413.7924,E,170217.00,A,A*66
$GPGSA,A,3,02,04,05,09,10,15,26,27,,,,,2.2,1.5,1.6*3F
$GPRMC,170218.000,A,2233.2177,N,11413.7924,E,0.0,303.6,040191,,,A*65
$GPGGA,170218.000,2233.2177,N,11413.7924,E,1,07,1.8,17.0,M,14.2,M,,0000*63
$GPVTG,303.6,T,,M,0.0,N,0.0,K,A*0B
$GPGLL,2233.2177,N,11413.7924,E,170218.00,A,A*69
$GPGSA,A,3,02,04,09,10,15,26,27,,,,,,2.5,1.8,1.7*31
$GPRMC,170219.000,A,2233.2177,N,11413.7924,E,0.0,303.6,040191,,,A*64
$GPGGA,170219.000,2233.2177,N,11413.7924,E,1,08,1.5,17.0,M,14.2,M,,0000*60
$GPVTG,303.6,T,,M,0.0,N,0.0,K,A*0B
$GPGLL,2233.2177,N,11413.7924,E,170219.00,A,A*68
$GPGSA,A,3,02,04,05,09,10,15,26,27,,,,,2.2,1.5,1.6*3F
$GPRMC,170220.000,A,2233.2177,N,11413.7924,E,0.0,303.6,040191,,,A*6E
$GPGGA,170220.000,2233.2177,N,11413.7924,E,1,08,1.5,17.0,M,14.2,M,,0000*6A
$GPVTG,303.6,T,,M,0.0,N,0.0,K,A*0B
$GPGLL,2233.2177,N,11413.7924,E,170220.00,A,A*62
$GPGSA,A,3,02,04,05,09,10,15,26,27,,,,,2.2,1.5,1.6*3F
$GPRMC,170221.000,A,2233.2177,N,11413.7924,E,0.0,303.6,040191,,,A*6F
$GPGGA,170221.000,2233.2177,N,11413.7924,E,1,08,1.5,17.0,M,14.2,M,,0000*6B
$GPVTG,303.6,T,,M,0.0,N,0.0,K,A*0B
$GPGLL,2233.2177,N,11413.7924,E,170221.00,A,A*63
$GPGSA,A,3,02,04,05,09,10,15,26,27,,,,,2.2,1.5,1.6*3F
$GPGSV,3,1,12,10,16,057,23,05,43,022,20,02,44,106,13,04,09,121,28*7F
$GPGSV,3,2,12,27,18,168,33,26,81,047,22,15,68,223,25,09,08,181,32*70
$GPGSV,3,3,12,29,41,292,,08,14,064,,18,05,269,,21,04,313,*75
$GPRMC,170222.000,A,2233.2177,N,11413.7924,E,0.0,303.6,040191,,,A*6C
$GPGGA,170222.000,2233.2177,N,11413.7924,E,1,08,1.5,17.0,M,14.2,M,,0000*68
$GPVTG,303.6,T,,M,0.0,N,0.0,K,A*0B
$GPGLL,2233.2177,N,11413.7924,E,170222.00,A,A*60
$GPGSA,A,3,02,04,05,09,10,15,26,27,,,,,2.2,1.5,1.6*3F
$GPRMC,170223.000,A,2233.2177,N,11413.7924,E,0.0,303.6,040191,,,A*6D
$GPGGA,170223.000,2233.2177,N,11413.7924,E,1,08,1.5,17.0,M,14.2,M,,0000*69
$GPVTG,303.6,T,,M,0.0,N,0.0,K,A*0B
$GPGLL,2233.2177,N,11413.7924,E,170223.00,A,A*61
$GPGSA,A,3,02,04,05,09,10,15,26,27,,,,,2.2,1.5,1.6*3F
$GPRMC,170224.000,A,2233.2177,N,11413.7924,E,0.0,303.6,040191,,,A*6A
$GPGGA,170224.000,2233.2177,N,11413.7924,E,1,08,1.5,17.0,M,14.2,M,,0000*6E
$GPVTG,303.6,T,,M,0.0,N,0.0,K,A*0B
$GPGLL,2233.2177,N,11413.7924,E,170224.00,A,A*66
$GPGSA,A,3,02,04,05,09,10,15,26,27,,,,,2.2,1.5,1.6*3F
$GPRMC,170225.000,A,2233.2177,N,11413.7924,E,0.0,303.6,040191,,,A*6B
$GPGGA,170225.000,2233.2177,N,11413.7924,E,1,08,1.5,17.0,M,14.2,M,,0000*6F
$GPVTG,303.6,T,,M,0.0,N,0.0,K,A*0B
$GPGLL,2233.2177,N,11413.7924,E,170225.00,A,A*67
$GPGSA,A,3,02,04,05,09,10,15,26,27,,,,,2.2,1.5,1.6*3F
$GPRMC,170226.000,A,2233.2177,N,11413.7924,E,0.0,303.6,040191,,,A*68
$GPGGA,170226.000,2233.2177,N,11413.7924,E,1,07,2.1,17.0,M,14.2,M,,0000*64
$GPVTG,303.6,T,,M,0.0,N,0.0,K,A*0B
$GPGLL,2233.2177,N,11413.7924,E,170226.00,A,A*64
$GPGSA,A,3,04,05,09,10,15,26,27,,,,,,3.0,2.1,2.2*3E
$GPGSV,3,1,12,10,16,057,23,05,43,022,20,02,44,106,11,04,09,121,27*72
$GPGSV,3,2,12,27,18,168,33,26,81,047,20,15,68,224,24,09,08,181,33*75
$GPGSV,3,3,12,29,41,292,,08,14,064,,18,05,269,,21,04,313,*75
$GPRMC,170227.000,A,2233.2177,N,11413.7924,E,0.0,303.6,040191,,,A*69
$GPGGA,170227.000,2233.2177,N,11413.7924,E,1,07,2.1,17.0,M,14.2,M,,0000*65
$GPVTG,303.6,T,,M,0.0,N,0.0,K,A*0B
$GPGLL,2233.2177,N,11413.7924,E,170227.00,A,A*65
$GPGSA,A,3,04,05,09,10,15,26,27,,,,,,3.0,2.1,2.2*3E
$GPRMC,170228.000,A,2233.2177,N,11413.7924,E,0.0,303.6,040191,,,A*66
$GPGGA,170228.000,2233.2177,N,11413.7924,E,1,07,2.1,17.0,M,14.2,M,,0000*6A
$GPVTG,303.6,T,,M,0.0,N,0.0,K,A*0B
$GPGLL,2233.2177,N,11413.7924,E,170228.00,A,A*6A
$GPGSA,A,3,04,05,09,10,15,26,27,,,,,,3.0,2.1,2.2*3E
$GPRMC,170229.000,A,2233.2177,N,11413.7924,E,0.0,303.6,040191,,,A*67
$GPGGA,170229.000,2233.2177,N,11413.7924,E,1,07,2.1,17.0,M,14.2,M,,0000*6B
$GPVTG,303.6,T,,M,0.0,N,0.0,K,A*0B
$GPGLL,2233.2177,N,11413.7924,E,170229.00,A,A*6B
$GPGSA,A,3,04,05,09,10,15,26,27,,,,,,3.0,2.1,2.2*3E
$GPRMC,170230.000,A,2233.2177,N,11413.7924,E,0.0,303.6,040191,,,A*6F
$GPGGA,170230.000,2233.2177,N,11413.7924,E,1,07,2.1,17.0,M,14.2,M,,0000*63
$GPVTG,303.6,T,,M,0.0,N,0.0,K,A*0B
$GPGLL,2233.2177,N,11413.7924,E,170230.00,A,A*63
$GPGSA,A,3,04,05,09,10,15,26,27,,,,,,3.0,2.1,2.2*3E
$GPRMC,170231.000,A,2233.2177,N,11413.7924,E,0.0,303.6,040191,,,A*6E
$GPGGA,170231.000,2233.2177,N,11413.7924,E,1,08,1.5,17.0,M,14.2,M,,0000*6A
$GPVTG,303.6,T,,M,0.0,N,0.0,K,A*0B
$GPGLL,2233.2177,N,11413.7924,E,170231.00,A,A*62
$GPGSA,A,3,02,04,05,09,10,15,26,27,,,,,2.2,1.5,1.6*3F
$GPGSV,3,1,12,10,16,057,24,05,43,022,19,02,43,107,16,04,09,121,29*70
$GPGSV,3,2,12,27,18,168,34,26,81,046,22,15,68,224,25,09,08,181,34*77
$GPGSV,3,3,12,29,41,292,15,08,14,064,,18,05,269,,21,04,313,*71
$GPRMC,170232.000,A,2233.2177,N,11413.7924,E,0.0,303.6,040191,,,A*6D
$GPGGA,170232.000,2233.2177,N,11413.7924,E,1,08,1.5,17.0,M,14.2,M,,0000*69
$GPVTG,303.6,T,,M,0.0,N,0.0,K,A*0B
$GPGLL,2233.2177,N,11413.7924,E,170232.00,A,A*61
$GPGSA,A,3,02,04,05,09,10,15,26,27,,,,,2.2,1.5,1.6*3F
$GPRMC,170233.000,A,2233.2177,N,11413.7924,E,0.0,303.6,040191,,,A*6C
$GPGGA,170233.000,2233.2177,N,11413.7924,E,1,08,1.5,17.0,M,14.2,M,,0000*68
$GPVTG,303.6,T,,M,0.0,N,0.0,K,A*0B
$GPGLL,2233.2177,N,11413.7924,E,170233.00,A,A*60
$GPGSA,A,3,02,04,05,09,10,15,26,27,,,,,2.2,1.5,1.6*3F
$GPRMC,170234.000,A,2233.2177,N,11413.7924,E,0.0,303.6,040191,,,A*6B
$GPGGA,170234.000,2233.2177,N,11413.7924,E,1,08,1.5,17.0,M,14.2,M,,0000*6F
$GPVTG,303.6,T,,M,0.0,N,0.0,K,A*0B
$GPGLL,2233.2177,N,11413.7924,E,170234.00,A,A*67
$GPGSA,A,3,02,04,05,09,10,15,26,27,,,,,2.2,1.5,1.6*3F
$GPRMC,170235.000,A,2233.2177,N,11413.7924,E,0.0,303.6,040191,,,A*6A
$GPGGA,170235.000,2233.2177,N,11413.7924,E,1,08,1.5,17.0,M,14.2,M,,0000*6E
$GPVTG,303.6,T,,M,0.0,N,0.0,K,A*0B
$GPGLL,2233.2177,N,11413.7924,E,170235.00,A,A*66
$GPGSA,A,3,02,04,05,09,10,15,26,27,,,,,2.2,1.5,1.6*3F
$GPRMC,170236.000,A,2233.2177,N,11413.7924,E,0.0,303.6,040191,,,A*69
$GPGGA,170236.000,2233.2177,N,11413.7924,E,1,08,1.5,17.0,M,14.2,M,,0000*6D
$GPVTG,303.6,T,,M,0.0,N,0.0,K,A*0B
$GPGLL,2233.2177,N,11413.7924,E,170236.00,A,A*65
$GPGSA,A,3,02,04,05,09,10,15,26,27,,,,,2.2,1.5,1.6*3F
$GPGSV,3,1,12,10,16,057,24,05,43,022,18,02,43,107,15,04,09,121,28*73
$GPGSV,3,2,12,27,18,168,34,26,81,046,20,15,68,224,25,09,08,181,33*72
$GPGSV,3,3,12,29,41,292,19,08,14,064,,18,05,269,,21,04,313,*7D
$GPRMC,170237.000,A,2233.2177,N,11413.7924,E,0.0,303.6,040191,,,A*68
$GPGGA,170237.000,2233.2177,N,11413.7924,E,1,08,1.5,17.0,M,14.2,M,,0000*6C
$GPVTG,303.6,T,,M,0.0,N,0.0,K,A*0B
$GPGLL,2233.2177,N,11413.7924,E,170237.00,A,A*64
$GPGSA,A,3,02,04,05,09,10,15,26,27,,,,,2.2,1.5,1.6*3F
$GPRMC,170238.000,A,2233.2177,N,11413.7924,E,0.0,303.6,040191,,,A*67
$GPGGA,170238.000,2233.2177,N,11413.7924,E,1,08,1.5,17.0,M,14.2,M,,0000*63
$GPVTG,303.6,T,,M,0.0,N,0.0,K,A*0B
$GPGLL,2233.2177,N,11413.7924,E,170238.00,A,A*6B
$GPGSA,A,3,02,04,05,09,10,15,26,27,,,,,2.2,1.5,1.6*3F
$GPRMC,170239.000,A,2233.2177,N,11413.7924,E,0.0,303.6,040191,,,A*66
$GPGGA,170239.000,2233.2177,N,11413.7924,E,1,08,1.5,17.0,M,14.2,M,,0000*62
$GPVTG,303.6,T,,M,0.0,N,0.0,K,A*0B
$GPGLL,2233.2177,N,11413.7924,E,170239.00,A,A*6A
$GPGSA,A,3,02,04,05,09,10,15,26,27,,,,,2.2,1.5,1.6*3F
$GPRMC,170240.000,A,2233.2177,N,11413.7924,E,0.0,303.6,040191,,,A*68
$GPGGA,170240.000,2233.2177,N,11413.7924,E,1,08,1.5,17.0,M,14.2,M,,0000*6C
$GPVTG,303.6,T,,M,0.0,N,0.0,K,A*0B
$GPGLL,2233.2177,N,11413.7924,E,170240.00,A,A*64
$GPGSA,A,3,02,04,05,09,10,15,26,27,,,,,2.2,1.5,1.6*3F
$GPRMC,170241.000,A,2233.2177,N,11413.7924,E,0.0,303.6,040191,,,A*69
$GPGGA,170241.000,2233.2177,N,11413.7924,E,1,08,1.5,17.0,M,14.2,M,,0000*6D
$GPVTG,303.6,T,,M,0.0,N,0.0,K,A*0B
$GPGLL,2233.2177,N,11413.7924,E,170241.00,A,A*65
$GPGSA,A,3,02,04,05,09,10,15,26,27,,,,,2.2,1.5,1.6*3F
$GPGSV,3,1,12,10,16,057,24,05,43,022,18,02,43,107,15,04,09,121,29*72
$GPGSV,3,2,12,27,18,168,34,26,81,046,20,15,68,224,26,09,08,181,33*71
$GPGSV,3,3,12,29,41,292,17,08,14,064,,18,05,269,,21,04,313,*73
$GPRMC,170242.000,A,2233.2177,N,11413.7924,E,0.0,303.6,040191,,,A*6A
$GPGGA,170242.000,2233.2177,N,11413.7924,E,1,08,1.5,17.0,M,14.2,M,,0000*6E
$GPVTG,303.6,T,,M,0.0,N,0.0,K,A*0B
$GPGLL,2233.2177,N,11413.7924,E,170242.00,A,A*66
$GPGSA,A,3,02,04,05,09,10,15,26,27,,,,,2.2,1.5,1.6*3F
$GPRMC,170243.000,A,2233.2177,N,11413.7924,E,0.0,303.6,040191,,,A*6B
$GPGGA,170243.000,2233.2177,N,11413.7924,E,1,07,1.8,17.0,M,14.2,M,,0000*6D
$GPVTG,303.6,T,,M,0.0,N,0.0,K,A*0B
$GPGLL,2233.2177,N,11413.7924,E,170243.00,A,A*67
$GPGSA,A,3,02,04,09,10,15,26,27,,,,,,2.5,1.8,1.7*31
$GPRMC,170244.000,A,2233.2177,N,11413.7924,E,0.0,303.6,040191,,,A*6C
$GPGGA,170244.000,2233.2177,N,11413.7924,E,1,07,1.8,17.0,M,14.2,M,,0000*6A
$GPVTG,303.6,T,,M,0.0,N,0.0,K,A*0B
$GPGLL,2233.2177,N,11413.7924,E,170244.00,A,A*60
$GPGSA,A,3,02,04,09,10,15,26,27,,,,,,2.5,1.8,1.7*31
$GPRMC,170245.000,A,2233.2177,N,11413.7924,E,0.0,303.6,040191,,,A*6D
$GPGGA,170245.000,2233.2177,N,11413.7924,E,1,07,1.8,17.0,M,14.2,M,,0000*6B
$GPVTG,303.6,T,,M,0.0,N,0.0,K,A*0B
$GPGLL,2233.2177,N,11413.7924,E,170245.00,A,A*61
$GPGSA,A,3,02,04,09,10,15,26,27,,,,,,2.5,1.8,1.7*31
$GPRMC,170246.000,A,2233.2177,N,11413.7924,E,0.0,303.6,040191,,,A*6E
$GPGGA,170246.000,2233.2177,N,11413.7924,E,1,07,1.8,17.0,M,14.2,M,,0000*68
$GPVTG,303.6,T,,M,0.0,N,0.0,K,A*0B
$GPGLL,2233.2177,N,11413.7924,E,170246.00,A,A*62
$GPGSA,A,3,02,04,09,10,15,26,27,,,,,,2.5,1.8,1.7*31
$GPGSV,3,1,12,10,16,057,24,02,43,107,14,04,09,121,28,27,18,168,34*7D
$GPGSV,3,2,12,26,81,046,21,15,68,224,22,09,08,181,33,29,41,292,16*70
$GPGSV,3,3,12,05,43,022,,08,14,064,,18,05,269,,21,04,313,*70
$GPRMC,170247.000,A,2233.2177,N,11413.7924,E,0.0,303.6,040191,,,A*6F
$GPGGA,170247.000,2233.2177,N,11413.7924,E,1,07,1.8,17.0,M,14.2,M,,0000*69
$GPVTG,303.6,T,,M,0.0,N,0.0,K,A*0B
$GPGLL,2233.2177,N,11413.7924,E,170247.00,A,A*63
$GPGSA,A,3,02,04,09,10,15,26,27,,,,,,2.5,1.8,1.7*31
$GPRMC,170248.000,A,2233.2177,N,11413.7924,E,0.0,303.6,040191,,,A*60
$GPGGA,170248.000,2233.2177,N,11413.7924,E,1,08,1.5,17.0,M,14.2,M,,0000*64
$GPVTG,303.6,T,,M,0.0,N,0.0,K,A*0B
$GPGLL,2233.2177,N,11413.7924,E,170248.00,A,A*6C
$GPGSA,A,3,02,04,05,09,10,15,26,27,,,,,2.2,1.5,1.6*3F
$GPRMC,170249.000,A,2233.2177,N,11413.7924,E,0.0,303.6,040191,,,A*61
$GPGGA,170249.000,2233.2177,N,11413.7924,E,1,08,1.5,17.0,M,14.2,M,,0000*65
$GPVTG,303.6,T,,M,0.0,N,0.0,K,A*0B
$GPGLL,2233.2177,N,11413.7924,E,170249.00,A,A*6D
$GPGSA,A,3,02,04,05,09,10,15,26,27,,,,,2.2,1.5,1.6*3F
$GPRMC,170250.000,A,2233.2177,N,11413.7924,E,0.0,303.6,040191,,,A*69
$GPGGA,170250.000,2233.2177,N,11413.7924,E,1,08,1.5,17.0,M,14.2,M,,0000*6D
$GPVTG,303.6,T,,M,0.0,N,0.0,K,A*0B
$GPGLL,2233.2177,N,11413.7924,E,170250.00,A,A*65
$GPGSA,A,3,02,04,05,09,10,15,26,27,,,,,2.2,1.5,1.6*3F
$GPRMC,170251.000,A,2233.2177,N,11413.7924,E,0.0,303.6,040191,,,A*68
$GPGGA,170251.000,2233.2177,N,11413.7924,E,1,08,1.5,17.0,M,14.2,M,,0000*6C
$GPVTG,303.6,T,,M,0.0,N,0.0,K,A*0B
$GPGLL,2233.2177,N,11413.7924,E,170251.00,A,A*64
$GPGSA,A,3,02,04,05,09,10,15,26,27,,,,,2.2,1.5,1.6*3F
$GPGSV,3,1,12,10,16,057,23,05,43,022,18,02,43,107,12,04,09,121,28*73
$GPGSV,3,2,12,27,18,168,33,26,81,046,20,15,68,224,18,09,08,181,32*7A
$GPGSV,3,3,12,29,42,292,14,08,14,063,,18,05,269,,21,04,313,*74
$GPRMC,170252.000,A,2233.2177,N,11413.7924,E,0.0,303.6,040191,,,A*6B
$GPGGA,170252.000,2233.2177,N,11413.7924,E,1,08,1.5,17.0,M,14.2,M,,0000*6F
$GPVTG,303.6,T,,M,0.0,N,0.0,K,A*0B
$GPGLL,2233.2177,N,11413.7924,E,170252.00,A,A*67
$GPGSA,A,3,02,04,05,09,10,15,26,27,,,,,2.2,1.5,1.6*3F
$GPRMC,170253.000,A,2233.2177,N,11413.7924,E,0.0,303.6,040191,,,A*6A
$GPGGA,170253.000,2233.2177,N,11413.7924,E,1,08,1.5,17.0,M,14.2,M,,0000*6E
$GPVTG,303.6,T,,M,0.0,N,0.0,K,A*0B
$GPGLL,2233.2177,N,11413.7924,E,170253.00,A,A*66
$GPGSA,A,3,02,04,05,09,10,15,26,27,,,,,2.2,1.5,1.6*3F
$GPRMC,170254.000,A,2233.2177,N,11413.7924,E,0.0,303.6,040191,,,A*6D
$GPGGA,170254.000,2233.2177,N,11413.7924,E,1,08,1.5,17.0,M,14.2,M,,0000*69
$GPVTG,303.6,T,,M,0.0,N,0.0,K,A*0B
$GPGLL,2233.2177,N,11413.7924,E,170254.00,A,A*61
$GPGSA,A,3,02,04,05,09,10,15,26,27,,,,,2.2,1.5,1.6*3F
$GPRMC,170255.000,A,2233.2177,N,11413.7924,E,0.0,303.6,040191,,,A*6C
$GPGGA,170255.000,2233.2177,N,11413.7924,E,1,08,1.5,17.0,M,14.2,M,,0000*68
$GPVTG,303.6,T,,M,0.0,N,0.0,K,A*0B
$GPGLL,2233.2177,N,11413.7924,E,170255.00,A,A*60
$GPGSA,A,3,02,04,05,09,10,15,26,27,,,,,2.2,1.5,1.6*3F
$GPRMC,170256.000,A,2233.2177,N,11413.7924,E,0.0,303.6,040191,,,A*6F
$GPGGA,170256.000,2233.2177,N,11413.7924,E,1,08,1.5,17.0,M,14.2,M,,0000*6B
$GPVTG,303.6,T,,M,0.0,N,0.0,K,A*0B
$GPGLL,2233.2177,N,11413.7924,E,170256.00,A,A*63
$GPGSA,A,3,02,04,05,09,10,15,26,27,,,,,2.2,1.5,1.6*3F
$GPGSV,3,1,12,10,16,057,25,05,43,022,22,02,43,107,12,04,09,121,28*7C
$GPGSV,3,2,12,27,18,168,34,26,81,046,20,15,68,224,19,09,08,181,33*7D
$GPGSV,3,3,12,29,42,292,14,08,14,063,,18,05,269,,21,04,313,*74
$GPRMC,170257.000,A,2233.2177,N,11413.7924,E,0.0,303.6,040191,,,A*6E
$GPGGA,170257.000,2233.2177,N,11413.7924,E,1,08,1.5,17.0,M,14.2,M,,0000*6A
$GPVTG,303.6,T,,M,0.0,N,0.0,K,A*0B
$GPGLL,2233.2177,N,11413.7924,E,170257.00,A,A*62
$GPGSA,A,3,02,04,05,09,10,15,26,27,,,,,2.2,1.5,1.6*3F
$GPRMC,170258.000,A,2233.2177,N,11413.7924,E,0.0,303.6,040191,,,A*61
$GPGGA,170258.000,2233.2177,N,11413.7924,E,1,08,1.5,17.0,M,14.2,M,,0000*65
$GPVTG,303.6,T,,M,0.0,N,0.0,K,A*0B
$GPGLL,2233.2177,N,11413.7924,E,170258.00,A,A*6D
$GPGSA,A,3,02,04,05,09,10,15,26,27,,,,,2.2,1.5,1.6*3F
$GPRMC,170259.000,A,2233.2177,N,11413.7924,E,0.0,303.6,040191,,,A*60
$GPGGA,170259.000,2233.2177,N,11413.7924,E,1,08,1.5,17.0,M,14.2,M,,0000*64
$GPVTG,303.6,T,,M,0.0,N,0.0,K,A*0B
$GPGLL,2233.2177,N,11413.7924,E,170259.00,A,A*6C
$GPGSA,A,3,02,04,05,09,10,15,26,27,,,,,2.2,1.5,1.6*3F
$GPRMC,170300.000,A,2233.2177,N,11413.7924,E,0.0,303.6,040191,,,A*6D
$GPGGA,170300.000,2233.2177,N,11413.7924,E,1,08,1.5,17.0,M,14.2,M,,0000*69
$GPVTG,303.6,T,,M,0.0,N,0.0,K,A*0B
$GPGLL,2233.2177,N,11413.7924,E,170300.00,A,A*61
$GPGSA,A,3,02,04,05,09,10,15,26,27,,,,,2.2,1.5,1.6*3F
$GPRMC,170301.000,A,2233.2177,N,11413.7924,E,0.0,303.6,040191,,,A*6C
$GPGGA,170301.000,2233.2177,N,11413.7924,E,1,08,1.5,17.0,M,14.2,M,,0000*68
$GPVTG,303.6,T,,M,0.0,N,0.0,K,A*0B
$GPGLL,2233.2177,N,11413.7924,E,170301.00,A,A*60
$GPGSA,A,3,02,04,05,09,10,15,26,27,,,,,2.2,1.5,1.6*3F
$GPGSV,3,1,12,10,16,057,25,05,43,022,21,02,43,107,12,04,09,121,27*70
$GPGSV,3,2,12,27,18,168,35,26,81,045,19,15,68,224,21,09,08,181,32*7F
$GPGSV,3,3,12,29,42,292,21,08,14,063,,18,05,269,,21,04,313,*72
$GPRMC,170302.000,A,2233.2177,N,11413.7924,E,0.0,303.6,040191,,,A*6F
$GPGGA,170302.000,2233.2177,N,11413.7924,E,1,08,1.5,17.0,M,14.2,M,,0000*6B
$GPVTG,303.6,T,,M,0.0,N,0.0,K,A*0B
$GPGLL,2233.2177,N,11413.7924,E,170302.00,A,A*63
$GPGSA,A,3,02,04,05,09,10,15,26,27,,,,,2.2,1.5,1.6*3F
$GPRMC,170303.000,A,2233.2177,N,11413.7924,E,0.0,303.6,040191,,,A*6E
$GPGGA,170303.000,2233.2177,N,11413.7924,E,1,08,1.5,17.0,M,14.2,M,,0000*6A
$GPVTG,303.6,T,,M,0.0,N,0.0,K,A*0B
$GPGLL,2233.2177,N,11413.7924,E,170303.00,A,A*62
$GPGSA,A,3,02,04,05,09,10,15,26,27,,,,,2.2,1.5,1.6*3F
$GPRMC,170304.000,A,2233.2177,N,11413.7924,E,0.0,303.6,040191,,,A*69
$GPGGA,170304.000,2233.2177,N,11413.7924,E,1,08,1.5,17.0,M,14.2,M,,0000*6D
$GPVTG,303.6,T,,M,0.0,N,0.0,K,A*0B
$GPGLL,2233.2177,N,11413.7924,E,170304.00,A,A*65
$GPGSA,A,3,02,04,05,09,10,15,26,27,,,,,2.2,1.5,1.6*3F
$GPRMC,170305.000,A,2233.2177,N,11413.7924,E,0.0,303.6,040191,,,A*68
$GPGGA,170305.000,2233.2177,N,11413.7924,E,1,08,1.5,17.0,M,14.2,M,,0000*6C
$GPVTG,303.6,T,,M,0.0,N,0.0,K,A*0B
$GPGLL,2233.2177,N,11413.7924,E,170305.00,A,A*64
$GPGSA,A,3,02,04,05,09,10,15,26,27,,,,,2.2,1.5,1.6*3F
$GPRMC,170306.000,A,2233.2177,N,11413.7924,E,0.0,303.6,040191,,,A*6B
$GPGGA,170306.000,2233.2177,N,11413.7924,E,1,08,1.5,17.0,M,14.2,M,,0000*6F
$GPVTG,303.6,T,,M,0.0,N,0.0,K,A*0B
$GPGLL,2233.2177,N,11413.7924,E,170306.00,A,A*67
$GPGSA,A,3,02,04,05,09,10,15,26,27,,,,,2.2,1.5,1.6*3F
$GPGSV,3,1,12,10,16,057,26,05,43,022,19,02,43,107,15,04,08,121,28*71
$GPGSV,3,2,12,27,18,168,35,26,81,045,18,15,68,224,25,09,08,181,33*7B
$GPGSV,3,3,12,29,42,292,23,08,14,063,,18,05,269,,21,04,313,*70
$GPRMC,170307.000,A,2233.2177,N,11413.7924,E,0.0,303.6,040191,,,A*6A
$GPGGA,170307.000,2233.2177,N,11413.7924,E,1,08,1.5,17.0,M,14.2,M,,0000*6E
$GPVTG,303.6,T,,M,0.0,N,0.0,K,A*0B
$GPGLL,2233.2177,N,11413.7924,E,170307.00,A,A*66
$GPGSA,A,3,02,04,05,09,10,15,26,27,,,,,2.2,1.5,1.6*3F
$GPRMC,170308.000,A,2233.2177,N,11413.7924,E,0.0,303.6,040191,,,A*65
$GPGGA,170308.000,2233.2177,N,11413.7924,E,1,08,1.5,17.0,M,14.2,M,,0000*61
$GPVTG,303.6,T,,M,0.0,N,0.0,K,A*0B
$GPGLL,2233.2177,N,11413.7924,E,170308.00,A,A*69
$GPGSA,A,3,02,04,05,09,10,15,26,27,,,,,2.2,1.5,1.6*3F
$GPRMC,170309.000,A,2233.2177,N,11413.7924,E,0.0,303.6,040191,,,A*64
$GPGGA,170309.000,2233.2177,N,11413.7924,E,1,08,1.5,17.0,M,14.2,M,,0000*60
$GPVTG,303.6,T,,M,0.0,N,0.0,K,A*0B
$GPGLL,2233.2177,N,11413.7924,E,170309.00,A,A*68
$GPGSA,A,3,02,04,05,09,10,15,26,27,,,,,2.2,1.5,1.6*3F
$GPRMC,170310.000,A,2233.2177,N,11413.7924,E,0.0,303.6,040191,,,A*6C
$GPGGA,170310.000,2233.2177,N,11413.7924,E,1,08,1.5,17.0,M,14.2,M,,0000*68
$GPVTG,303.6,T,,M,0.0,N,0.0,K,A*0B
$GPGLL,2233.2177,N,11413.7924,E,170310.00,A,A*60
$GPGSA,A,3,02,04,05,09,10,15,26,27,,,,,2.2,1.5,1.6*3F
$GPRMC,170311.000,A,2233.2177,N,11413.7924,E,0.0,303.6,040191,,,A*6D
$GPGGA,170311.000,2233.2177,N,11413.7924,E,1,08,1.5,17.0,M,14.2,M,,0000*69
$GPVTG,303.6,T,,M,0.0,N,0.0,K,A*0B
$GPGLL,2233.2177,N,11413.7924,E,170311.00,A,A*61
$GPGSA,A,3,02,04,05,09,10,15,26,27,,,,,2.2,1.5,1.6*3F
$GPGSV,3,1,12,10,16,057,26,05,43,022,17,02,43,107,19,04,08,121,27*7C
$GPGSV,3,2,12,27,18,168,36,26,81,045,17,15,68,224,24,09,08,181,33*76
$GPGSV,3,3,12,29,42,292,23,08,14,063,,18,05,269,,21,04,313,*70
$GPRMC,170312.000,A,2233.2177,N,11413.7924,E,0.0,303.6,040191,,,A*6E
$GPGGA,170312.000,2233.2177,N,11413.7924,E,1,08,1.5,17.0,M,14.2,M,,0000*6A
$GPVTG,303.6,T,,M,0.0,N,0.0,K,A*0B
$GPGLL,2233.2177,N,11413.7924,E,170312.00,A,A*62
$GPGSA,A,3,02,04,05,09,10,15,26,27,,,,,2.2,1.5,1.6*3F
$GPRMC,170313.000,A,2233.2177,N,11413.7924,E,0.0,303.6,040191,,,A*6F
$GPGGA,170313.000,2233.2177,N,11413.7924,E,1,08,1.5,17.0,M,14.2,M,,0000*6B
$GPVTG,303.6,T,,M,0.0,N,0.0,K,A*0B
$GPGLL,2233.2177,N,11413.7924,E,170313.00,A,A*63
$GPGSA,A,3,02,04,05,09,10,15,26,27,,,,,2.2,1.5,1.6*3F
$GPRMC,170314.000,A,2233.2177,N,11413.7924,E,0.0,303.6,040191,,,A*68
$GPGGA,170314.000,2233.2177,N,11413.7924,E,1,08,1.5,17.0,M,14.2,M,,0000*6C
$GPVTG,303.6,T,,M,0.0,N,0.0,K,A*0B
$GPGLL,2233.2177,N,11413.7924,E,170314.00,A,A*64
$GPGSA,A,3,02,04,05,09,10,15,26,27,,,,,2.2,1.5,1.6*3F
$GPRMC,170315.000,A,2233.2177,N,11413.7924,E,0.0,303.6,040191,,,A*69
$GPGGA,170315.000,2233.2177,N,11413.7924,E,1,08,1.5,17.0,M,14.2,M,,0000*6D
$GPVTG,303.6,T,,M,0.0,N,0.0,K,A*0B
$GPGLL,2233.2177,N,11413.7924,E,170315.00,A,A*65
$GPGSA,A,3,02,04,05,09,10,15,26,27,,,,,2.2,1.5,1.6*3F
$GPRMC,170316.000,A,2233.2177,N,11413.7924,E,0.0,303.6,040191,,,A*6A
$GPGGA,170316.000,2233.2177,N,11413.7924,E,1,08,1.5,17.0,M,14.2,M,,0000*6E
$GPVTG,303.6,T,,M,0.0,N,0.0,K,A*0B
$GPGLL,2233.2177,N,11413.7924,E,170316.00,A,A*66
$GPGSA,A,3,02,04,05,09,10,15,26,27,,,,,2.2,1.5,1.6*3F
$GPGSV,3,1,12,10,16,057,24,05,43,023,18,02,43,107,17,04,08,121,27*7E
$GPGSV,3,2,12,27,18,168,35,26,81,045,18,15,68,224,26,09,09,181,33*79
$GPGSV,3,3,12,29,42,292,24,08,14,063,,18,05,269,,21,04,313,*77
$GPRMC,170317.000,A,2233.2177,N,11413.7924,E,0.0,303.6,040191,,,A*6B
$GPGGA,170317.000,2233.2177,N,11413.7924,E,1,08,1.5,17.0,M,14.2,M,,0000*6F
$GPVTG,303.6,T,,M,0.0,N,0.0,K,A*0B
$GPGLL,2233.2177,N,11413.7924,E,170317.00,A,A*67
$GPGSA,A,3,02,04,05,09,10,15,26,27,,,,,2.2,1.5,1.6*3F
$GPRMC,170318.000,A,2233.2177,N,11413.7924,E,0.0,303.6,040191,,,A*64
$GPGGA,170318.000,2233.2177,N,11413.7924,E,1,07,1.8,17.0,M,14.2,M,,0000*62
$GPVTG,303.6,T,,M,0.0,N,0.0,K,A*0B
$GPGLL,2233.2177,N,11413.7924,E,170318.00,A,A*68
$GPGSA,A,3,02,04,09,10,15,26,27,,,,,,2.5,1.8,1.7*31
$GPRMC,170319.000,A,2233.2177,N,11413.7924,E,0.0,303.6,040191,,,A*65
$GPGGA,170319.000,2233.2177,N,11413.7924,E,1,07,1.8,17.0,M,14.2,M,,0000*63
$GPVTG,303.6,T,,M,0.0,N,0.0,K,A*0B
$GPGLL,2233.2177,N,11413.7924,E,170319.00,A,A*69
$GPGSA,A,3,02,04,09,10,15,26,27,,,,,,2.5,1.8,1.7*31
$GPRMC,170320.000,A,2233.2177,N,11413.7924,E,0.0,303.6,040191,,,A*6F
$GPGGA,170320.000,2233.2177,N,11413.7924,E,1,07,1.8,17.0,M,14.2,M,,0000*69
$GPVTG,303.6,T,,M,0.0,N,0.0,K,A*0B
$GPGLL,2233.2177,N,11413.7924,E,170320.00,A,A*63
$GPGSA,A,3,02,04,09,10,15,26,27,,,,,,2.5,1.8,1.7*31
$GPRMC,170321.000,A,2233.2177,N,11413.7924,E,0.0,303.6,040191,,,A*6E
$GPGGA,170321.000,2233.2177,N,11413.7924,E,1,07,1.8,17.0,M,14.2,M,,0000*68
$GPVTG,303.6,T,,M,0.0,N,0.0,K,A*0B
$GPGLL,2233.2177,N,11413.7924,E,170321.00,A,A*62
$GPGSA,A,3,02,04,09,10,15,26,27,,,,,,2.5,1.8,1.7*31
$GPGSV,3,1,12,10,16,057,23,04,08,121,26,27,18,168,35,26,81,045,17*78
$GPGSV,3,2,12,15,68,224,26,09,09,181,34,29,42,292,22,02,43,107,*79
$GPGSV,3,3,12,05,43,023,,08,14,063,,18,05,269,,21,04,313,*76
$GPRMC,170322.000,A,2233.2177,N,11413.7924,E,0.0,303.6,040191,,,A*6D
$GPGGA,170322.000,2233.2177,N,11413.7924,E,1,06,2.5,17.0,M,14.2,M,,0000*64
$GPVTG,303.6,T,,M,0.0,N,0.0,K,A*0B
$GPGLL,2233.2177,N,11413.7924,E,170322.00,A,A*61
$GPGSA,A,3,04,09,10,15,26,27,,,,,,,3.5,2.5,2.4*3C
$GPRMC,170323.000,A,2233.2177,N,11413.7924,E,0.0,303.6,040191,,,A*6C
$GPGGA,170323.000,2233.2177,N,11413.7924,E,1,08,1.5,17.0,M,14.2,M,,0000*68
$GPVTG,303.6,T,,M,0.0,N,0.0,K,A*0B
$GPGLL,2233.2177,N,11413.7924,E,170323.00,A,A*60
$GPGSA,A,3,02,04,05,09,10,15,26,27,,,,,2.2,1.5,1.6*3F
$GPRMC,170324.000,A,2233.2177,N,11413.7924,E,0.0,303.6,040191,,,A*6B
$GPGGA,170324.000,2233.2177,N,11413.7924,E,1,08,1.5,17.0,M,14.2,M,,0000*6F
$GPVTG,303.6,T,,M,0.0,N,0.0,K,A*0B
$GPGLL,2233.2177,N,11413.7924,E,170324.00,A,A*67
$GPGSA,A,3,02,04,05,09,10,15,26,27,,,,,2.2,1.5,1.6*3F
$GPRMC,170325.000,A,2233.2177,N,11413.7924,E,0.0,303.6,040191,,,A*6A
$GPGGA,170325.000,2233.2177,N,11413.7924,E,1,07,2.1,17.0,M,14.2,M,,0000*66
$GPVTG,303.6,T,,M,0.0,N,0.0,K,A*0B
$GPGLL,2233.2177,N,11413.7924,E,170325.00,A,A*66
$GPGSA,A,3,04,05,09,10,15,26,27,,,,,,3.0,2.1,2.2*3E
$GPRMC,170326.000,A,2233.2177,N,11413.7924,E,0.0,303.6,040191,,,A*69
$GPGGA,170326.000,2233.2177,N,11413.7924,E,1,07,2.1,17.0,M,14.2,M,,0000*65
$GPVTG,303.6,T,,M,0.0,N,0.0,K,A*0B
$GPGLL,2233.2177,N,11413.7924,E,170326.00,A,A*65
$GPGSA,A,3,04,05,09,10,15,26,27,,,,,,3.0,2.1,2.2*3E
$GPGSV,3,1,12,10,16,057,25,05,43,023,20,02,43,107,13,04,08,121,25*72
$GPGSV,3,2,12,27,18,168,34,26,81,044,15,15,68,224,26,09,09,181,35*72
$GPGSV,3,3,12,29,42,292,19,08,14,063,,18,05,269,,21,04,313,*79
$GPRMC,170327.000,A,2233.2177,N,11413.7924,E,0.0,303.6,040191,,,A*68
$GPGGA,170327.000,2233.2177,N,11413.7924,E,1,07,2.1,17.0,M,14.2,M,,0000*64
$GPVTG,303.6,T,,M,0.0,N,0.0,K,A*0B
$GPGLL,2233.2177,N,11413.7924,E,170327.00,A,A*64
$GPGSA,A,3,04,05,09,10,15,26,27,,,,,,3.0,2.1,2.2*3E
$GPRMC,170328.000,A,2233.2177,N,11413.7924,E,0.0,303.6,040191,,,A*67
$GPGGA,170328.000,2233.2177,N,11413.7924,E,1,07,2.1,17.0,M,14.2,M,,0000*6B
$GPVTG,303.6,T,,M,0.0,N,0.0,K,A*0B
$GPGLL,2233.2177,N,11413.7924,E,170328.00,A,A*6B
$GPGSA,A,3,04,05,09,10,15,26,27,,,,,,3.0,2.1,2.2*3E
$GPRMC,170329.000,A,2233.2177,N,11413.7924,E,0.0,303.6,040191,,,A*66
$GPGGA,170329.000,2233.2177,N,11413.7924,E,1,07,2.1,17.0,M,14.2,M,,0000*6A
$GPVTG,303.6,T,,M,0.0,N,0.0,K,A*0B
$GPGLL,2233.2177,N,11413.7924,E,170329.00,A,A*6A
$GPGSA,A,3,04,05,09,10,15,26,27,,,,,,3.0,2.1,2.2*3E
$GPRMC,170330.000,A,2233.2177,N,11413.7924,E,0.0,303.6,040191,,,A*6E
$GPGGA,170330.000,2233.2177,N,11413.7924,E,1,07,2.1,17.0,M,14.2,M,,0000*62
$GPVTG,303.6,T,,M,0.0,N,0.0,K,A*0B
$GPGLL,2233.2177,N,11413.7924,E,170330.00,A,A*62
$GPGSA,A,3,04,05,09,10,15,26,27,,,,,,3.0,2.1,2.2*3E
$GPRMC,170331.000,A,2233.2177,N,11413.7924,E,0.0,303.6,040191,,,A*6F
$GPGGA,170331.000,2233.2177,N,11413.7924,E,1,07,2.1,17.0,M,14.2,M,,0000*63
$GPVTG,303.6,T,,M,0.0,N,0.0,K,A*0B
$GPGLL,2233.2177,N,11413.7924,E,170331.00,A,A*63
$GPGSA,A,3,04,05,09,10,15,26,27,,,,,,3.0,2.1,2.2*3E
$GPGSV,3,1,12,10,16,057,27,05,43,023,23,04,08,121,25,27,18,168,34*76
$GPGSV,3,2,12,26,81,044,15,15,68,224,22,09,09,181,33,29,42,292,17*76
$GPGSV,3,3,12,02,43,107,,08,14,063,,18,05,269,,21,04,313,*76
$GPRMC,170332.000,A,2233.2177,N,11413.7924,E,0.0,303.6,040191,,,A*6C
$GPGGA,170332.000,2233.2177,N,11413.7924,E,1,07,2.1,17.0,M,14.2,M,,0000*60
$GPVTG,303.6,T,,M,0.0,N,0.0,K,A*0B
$GPGLL,2233.2177,N,11413.7924,E,170332.00,A,A*60
$GPGSA,A,3,04,05,09,10,15,26,27,,,,,,3.0,2.1,2.2*3E
$GPRMC,170333.000,A,2233.2177,N,11413.7924,E,0.0,303.6,040191,,,A*6D
$GPGGA,170333.000,2233.2177,N,11413.7924,E,1,07,2.1,17.0,M,14.2,M,,0000*61
$GPVTG,303.6,T,,M,0.0,N,0.0,K,A*0B
$GPGLL,2233.2177,N,11413.7924,E,170333.00,A,A*61
$GPGSA,A,3,04,05,09,10,15,26,27,,,,,,3.0,2.1,2.2*3E
$GPRMC,170334.000,A,2233.2177,N,11413.7924,E,0.0,303.6,040191,,,A*6A
$GPGGA,170334.000,2233.2177,N,11413.7924,E,1,07,2.1,17.0,M,14.2,M,,0000*66
$GPVTG,303.6,T,,M,0.0,N,0.0,K,A*0B
$GPGLL,2233.2177,N,11413.7924,E,170334.00,A,A*66
$GPGSA,A,3,04,05,09,10,15,26,27,,,,,,3.0,2.1,2.2*3E
$GPRMC,170335.000,A,2233.2177,N,11413.7924,E,0.0,303.6,040191,,,A*6B
$GPGGA,170335.000,2233.2177,N,11413.7924,E,1,07,2.1,17.0,M,14.2,M,,0000*67
$GPVTG,303.6,T,,M,0.0,N,0.0,K,A*0B
$GPGLL,2233.2177,N,11413.7924,E,170335.00,A,A*67
$GPGSA,A,3,04,05,09,10,15,26,27,,,,,,3.0,2.1,2.2*3E
$GPRMC,170336.000,A,2233.2177,N,11413.7924,E,0.0,303.6,040191,,,A*68
$GPGGA,170336.000,2233.2177,N,11413.7924,E,1,07,2.1,17.0,M,14.2,M,,0000*64
$GPVTG,303.6,T,,M,0.0,N,0.0,K,A*0B
$GPGLL,2233.2177,N,11413.7924,E,170336.00,A,A*64
$GPGSA,A,3,04,05,09,10,15,26,27,,,,,,3.0,2.1,2.2*3E
$GPGSV,3,1,12,10,16,057,27,05,43,023,23,04,08,121,22,27,19,168,33*77
$GPGSV,3,2,12,26,81,044,12,15,68,224,19,09,09,181,32,29,42,292,18*77
$GPGSV,3,3,12,02,43,107,,08,14,063,,18,05,269,,21,04,313,*76
$GPRMC,170337.000,A,2233.2177,N,11413.7924,E,0.0,303.6,040191,,,A*69
$GPGGA,170337.000,2233.2177,N,11413.7924,E,1,07,2.1,17.0,M,14.2,M,,0000*65
$GPVTG,303.6,T,,M,0.0,N,0.0,K,A*0B
$GPGLL,2233.2177,N,11413.7924,E,170337.00,A,A*65
$GPGSA,A,3,04,05,09,10,15,26,27,,,,,,3.0,2.1,2.2*3E
$GPRMC,170338.000,A,2233.2177,N,11413.7924,E,0.0,303.6,040191,,,A*66
$GPGGA,170338.000,2233.2177,N,11413.7924,E,1,07,2.1,17.0,M,14.2,M,,0000*6A
$GPVTG,303.6,T,,M,0.0,N,0.0,K,A*0B
$GPGLL,2233.2177,N,11413.7924,E,170338.00,A,A*6A
$GPGSA,A,3,04,05,09,10,15,26,27,,,,,,3.0,2.1,2.2*3E
$GPRMC,170339.000,A,2233.2177,N,11413.7924,E,0.0,303.6,040191,,,A*67
$GPGGA,170339.000,2233.2177,N,11413.7924,E,1,07,2.1,17.0,M,14.2,M,,0000*6B
$GPVTG,303.6,T,,M,0.0,N,0.0,K,A*0B
$GPGLL,2233.2177,N,11413.7924,E,170339.00,A,A*6B
$GPGSA,A,3,04,05,09,10,15,26,27,,,,,,3.0,2.1,2.2*3E
$GPRMC,170340.000,A,2233.2177,N,11413.7924,E,0.0,303.6,040191,,,A*69
$GPGGA,170340.000,2233.2177,N,11413.7924,E,1,07,2.1,17.0,M,14.2,M,,0000*65
$GPVTG,303.6,T,,M,0.0,N,0.0,K,A*0B
$GPGLL,2233.2177,N,11413.7924,E,170340.00,A,A*65
$GPGSA,A,3,04,05,09,10,15,26,27,,,,,,3.0,2.1,2.2*3E
$GPRMC,170341.000,A,2233.2177,N,11413.7924,E,0.0,303.6,040191,,,A*68
$GPGGA,170341.000,2233.2177,N,11413.7924,E,1,06,2.4,17.0,M,14.2,M,,0000*60
$GPVTG,303.6,T,,M,0.0,N,0.0,K,A*0B
$GPGLL,2233.2177,N,11413.7924,E,170341.00,A,A*64
$GPGSA,A,3,04,05,09,10,15,27,,,,,,,3.8,2.4,3.0*34
$GPGSV,3,1,12,10,16,057,25,05,43,023,21,04,08,121,24,27,19,168,34*76
$GPGSV,3,2,12,26,81,044,11,15,68,225,26,09,09,181,32,29,42,292,16*77
$GPGSV,3,3,12,02,43,107,,08,14,063,,18,05,269,,21,04,313,*76
$GPRMC,170342.000,A,2233.2177,N,11413.7924,E,0.0,303.6,040191,,,A*6B
$GPGGA,170342.000,2233.2177,N,11413.7924,E,1,06,2.4,17.0,M,14.2,M,,0000*63
$GPVTG,303.6,T,,M,0.0,N,0.0,K,A*0B
$GPGLL,2233.2177,N,11413.7924,E,170342.00,A,A*67
$GPGSA,A,3,04,05,09,10,15,27,,,,,,,3.8,2.4,3.0*34
$GPRMC,170343.000,A,2233.2177,N,11413.7924,E,0.0,303.6,040191,,,A*6A
$GPGGA,170343.000,2233.2177,N,11413.7924,E,1,06,2.4,17.0,M,14.2,M,,0000*62
$GPVTG,303.6,T,,M,0.0,N,0.0,K,A*0B
$GPGLL,2233.2177,N,11413.7924,E,170343.00,A,A*66
$GPGSA,A,3,04,05,09,10,15,27,,,,,,,3.8,2.4,3.0*34
$GPRMC,170344.000,A,2233.2177,N,11413.7924,E,0.0,303.6,040191,,,A*6D
$GPGGA,170344.000,2233.2177,N,11413.7924,E,1,07,1.5,17.0,M,14.2,M,,0000*66
$GPVTG,303.6,T,,M,0.0,N,0.0,K,A*0B
$GPGLL,2233.2177,N,11413.7924,E,170344.00,A,A*61
$GPGSA,A,3,02,04,05,09,10,15,27,,,,,,2.3,1.5,1.8*34
$GPRMC,170345.000,A,2233.2177,N,11413.7924,E,0.0,303.6,040191,,,A*6C
$GPGGA,170345.000,2233.2177,N,11413.7924,E,1,07,1.5,17.0,M,14.2,M,,0000*67
$GPVTG,303.6,T,,M,0.0,N,0.0,K,A*0B
$GPGLL,2233.2177,N,11413.7924,E,170345.00,A,A*60
$GPGSA,A,3,02,04,05,09,10,15,27,,,,,,2.3,1.5,1.8*34
$GPRMC,170346.000,A,2233.2177,N,11413.7924,E,0.0,303.6,040191,,,A*6F
$GPGGA,170346.000,2233.2177,N,11413.7924,E,1,07,1.5,17.0,M,14.2,M,,0000*64
$GPVTG,303.6,T,,M,0.0,N,0.0,K,A*0B
$GPGLL,2233.2177,N,11413.7924,E,170346.00,A,A*63
$GPGSA,A,3,02,04,05,09,10,15,27,,,,,,2.3,1.5,1.8*34
$GPGSV,3,1,12,10,16,058,27,05,43,023,21,02,43,107,18,04,08,122,24*77
$GPGSV,3,2,12,27,19,168,35,26,80,044,15,15,68,225,27,09,09,181,33*75
$GPGSV,3,3,12,29,42,292,17,08,14,063,,18,05,269,,21,04,313,*77
$GPRMC,170347.000,A,2233.2177,N,11413.7924,E,0.0,303.6,040191,,,A*6E
$GPGGA,170347.000,2233.2177,N,11413.7924,E,1,08,1.5,17.0,M,14.2,M,,0000*6A
$GPVTG,303.6,T,,M,0.0,N,0.0,K,A*0B
$GPGLL,2233.2177,N,11413.7924,E,170347.00,A,A*62
$GPGSA,A,3,02,04,05,09,10,15,26,27,,,,,2.2,1.5,1.6*3F
$GPRMC,170348.000,A,2233.2177,N,11413.7924,E,0.0,303.6,040191,,,A*61
$GPGGA,170348.000,2233.2177,N,11413.7924,E,1,07,1.5,17.0,M,14.2,M,,0000*6A
$GPVTG,303.6,T,,M,0.0,N,0.0,K,A*0B
$GPGLL,2233.2177,N,11413.7924,E,170348.00,A,A*6D
$GPGSA,A,3,02,04,05,09,10,15,27,,,,,,2.3,1.5,1.8*34
$GPRMC,170349.000,A,2233.2177,N,11413.7924,E,0.0,303.6,040191,,,A*60
$GPGGA,170349.000,2233.2177,N,11413.7924,E,1,08,1.5,17.0,M,14.2,M,,0000*64
$GPVTG,303.6,T,,M,0.0,N,0.0,K,A*0B
$GPGLL,2233.2177,N,11413.7924,E,170349.00,A,A*6C
$GPGSA,A,3,02,04,05,09,10,15,26,27,,,,,2.2,1.5,1.6*3F
$GPRMC,170350.000,A,2233.2177,N,11413.7924,E,0.0,303.6,040191,,,A*68
$GPGGA,170350.000,2233.2177,N,11413.7924,E,1,08,1.5,17.0,M,14.2,M,,0000*6C
$GPVTG,303.6,T,,M,0.0,N,0.0,K,A*0B
$GPGLL,2233.2177,N,11413.7924,E,170350.00,A,A*64
$GPGSA,A,3,02,04,05,09,10,15,26,27,,,,,2.2,1.5,1.6*3F
$GPRMC,170351.000,A,2233.2177,N,11413.7924,E,0.0,303.6,040191,,,A*69
$GPGGA,170351.000,2233.2177,N,11413.7924,E,1,07,1.5,17.0,M,14.2,M,,0000*62
$GPVTG,303.6,T,,M,0.0,N,0.0,K,A*0B
$GPGLL,2233.2177,N,11413.7924,E,170351.00,A,A*65
$GPGSA,A,3,02,04,05,09,10,15,27,,,,,,2.3,1.5,1.8*34
$GPGSV,3,1,12,10,16,058,29,05,43,023,18,02,43,107,21,04,08,122,24*79
$GPGSV,3,2,12,27,19,168,35,26,80,044,18,15,68,225,24,09,09,181,33*7B
$GPGSV,3,3,12,29,42,292,17,08,14,063,,18,05,269,,21,04,313,*77
$GPRMC,170352.000,A,2233.2177,N,11413.7924,E,0.0,303.6,040191,,,A*6A
$GPGGA,170352.000,2233.2177,N,11413.7924,E,1,08,1.5,17.0,M,14.2,M,,0000*6E
$GPVTG,303.6,T,,M,0.0,N,0.0,K,A*0B
$GPGLL,2233.2177,N,11413.7924,E,170352.00,A,A*66
$GPGSA,A,3,02,04,05,09,10,15,26,27,,,,,2.2,1.5,1.6*3F
$GPRMC,170353.000,A,2233.2177,N,11413.7924,E,0.0,303.6,040191,,,A*6B
$GPGGA,170353.000,2233.2177,N,11413.7924,E,1,07,1.5,17.0,M,14.2,M,,0000*60
$GPVTG,303.6,T,,M,0.0,N,0.0,K,A*0B
$GPGLL,2233.2177,N,11413.7924,E,170353.00,A,A*67
$GPGSA,A,3,02,04,05,09,10,15,27,,,,,,2.3,1.5,1.8*34
$GPRMC,170354.000,A,2233.2177,N,11413.7924,E,0.0,303.6,040191,,,A*6C
$GPGGA,170354.000,2233.2177,N,11413.7924,E,1,08,1.5,17.0,M,14.2,M,,0000*68
$GPVTG,303.6,T,,M,0.0,N,0.0,K,A*0B
$GPGLL,2233.2177,N,11413.7924,E,170354.00,A,A*60
$GPGSA,A,3,02,04,05,09,10,15,26,27,,,,,2.2,1.5,1.6*3F
$GPRMC,170355.000,A,2233.2177,N,11413.7924,E,0.0,303.6,040191,,,A*6D
$GPGGA,170355.000,2233.2177,N,11413.7924,E,1,08,1.5,17.0,M,14.2,M,,0000*69
$GPVTG,303.6,T,,M,0.0,N,0.0,K,A*0B
$GPGLL,2233.2177,N,11413.7924,E,170355.00,A,A*61
$GPGSA,A,3,02,04,05,09,10,15,26,27,,,,,2.2,1.5,1.6*3F
$GPRMC,170356.000,A,2233.2177,N,11413.7924,E,0.0,303.6,040191,,,A*6E
$GPGGA,170356.000,2233.2177,N,11413.7924,E,1,07,1.5,17.0,M,14.2,M,,0000*65
$GPVTG,303.6,T,,M,0.0,N,0.0,K,A*0B
$GPGLL,2233.2177,N,11413.7924,E,170356.00,A,A*62
$GPGSA,A,3,02,04,05,09,10,15,27,,,,,,2.3,1.5,1.8*34
$GPGSV,3,1,12,10,16,058,29,05,43,023,16,02,43,107,21,04,08,122,24*77
$GPGSV,3,2,12,27,19,168,35,26,80,044,18,15,68,225,22,09,09,181,34*7A
$GPGSV,3,3,12,29,42,292,16,08,14,063,,18,05,269,,21,04,313,*76
$GPRMC,170357.000,A,2233.2177,N,11413.7924,E,0.0,303.6,040191,,,A*6F
$GPGGA,170357.000,2233.2177,N,11413.7924,E,1,08,1.5,17.0,M,14.2,M,,0000*6B
$GPVTG,303.6,T,,M,0.0,N,0.0,K,A*0B
$GPGLL,2233.2177,N,11413.7924,E,170357.00,A,A*63
$GPGSA,A,3,02,04,05,09,10,15,26,27,,,,,2.2,1.5,1.6*3F
$GPRMC,170358.000,A,2233.2177,N,11413.7924,E,0.0,303.6,040191,,,A*60
$GPGGA,170358.000,2233.2177,N,11413.7924,E,1,08,1.5,17.0,M,14.2,M,,0000*64
$GPVTG,303.6,T,,M,0.0,N,0.0,K,A*0B
$GPGLL,2233.2177,N,11413.7924,E,170358.00,A,A*6C
$GPGSA,A,3,02,04,05,09,10,15,26,27,,,,,2.2,1.5,1.6*3F
$GPRMC,170359.000,A,2233.2177,N,11413.7924,E,0.0,303.6,040191,,,A*61
$GPGGA,170359.000,2233.2177,N,11413.7924,E,1,08,1.5,17.0,M,14.2,M,,0000*65
$GPVTG,303.6,T,,M,0.0,N,0.0,K,A*0B
$GPGLL,2233.2177,N,11413.7924,E,170359.00,A,A*6D
$GPGSA,A,3,02,04,05,09,10,15,26,27,,,,,2.2,1.5,1.6*3F
$GPRMC,170400.000,A,2233.2177,N,11413.7924,E,0.0,303.6,040191,,,A*6A
$GPGGA,170400.000,2233.2177,N,11413.7924,E,1,08,1.5,17.0,M,14.2,M,,0000*6E
$GPVTG,303.6,T,,M,0.0,N,0.0,K,A*0B
$GPGLL,2233.2177,N,11413.7924,E,170400.00,A,A*66
$GPGSA,A,3,02,04,05,09,10,15,26,27,,,,,2.2,1.5,1.6*3F
$GPRMC,170401.000,A,2233.2177,N,11413.7924,E,0.0,303.6,040191,,,A*6B
$GPGGA,170401.000,2233.2177,N,11413.7924,E,1,07,1.8,17.0,M,14.2,M,,0000*6D
$GPVTG,303.6,T,,M,0.0,N,0.0,K,A*0B
$GPGLL,2233.2177,N,11413.7924,E,170401.00,A,A*67
$GPGSA,A,3,02,04,09,10,15,26,27,,,,,,2.5,1.8,1.7*31
$GPGSV,3,1,12,10,16,058,29,05,43,023,18,02,43,107,19,04,08,122,24*72
$GPGSV,3,2,12,27,19,168,35,26,80,043,16,15,69,225,25,09,09,181,34*75
$GPGSV,3,3,12,29,42,291,14,08,14,063,,18,05,269,,21,04,313,*77
$GPRMC,170402.000,A,2233.2177,N,11413.7924,E,0.0,303.6,040191,,,A*68
$GPGGA,170402.000,2233.2177,N,11413.7924,E,1,07,1.8,17.0,M,14.2,M,,0000*6E
$GPVTG,303.6,T,,M,0.0,N,0.0,K,A*0B
$GPGLL,2233.2177,N,11413.7924,E,170402.00,A,A*64
$GPGSA,A,3,02,04,09,10,15,26,27,,,,,,2.5,1.8,1.7*31
$GPRMC,170403.000,A,2233.2177,N,11413.7924,E,0.0,303.6,040191,,,A*69
$GPGGA,170403.000,2233.2177,N,11413.7924,E,1,07,1.8,17.0,M,14.2,M,,0000*6F
$GPVTG,303.6,T,,M,0.0,N,0.0,K,A*0B
$GPGLL,2233.2177,N,11413.7924,E,170403.00,A,A*65
$GPGSA,A,3,02,04,09,10,15,26,27,,,,,,2.5,1.8,1.7*31
$GPRMC,170404.000,A,2233.2177,N,11413.7924,E,0.0,303.6,040191,,,A*6E
$GPGGA,170404.000,2233.2177,N,11413.7924,E,1,07,1.8,17.0,M,14.2,M,,0000*68
$GPVTG,303.6,T,,M,0.0,N,0.0,K,A*0B
$GPGLL,2233.2177,N,11413.7924,E,170404.00,A,A*62
$GPGSA,A,3,02,04,09,10,15,26,27,,,,,,2.5,1.8,1.7*31
$GPRMC,170405.000,A,2233.2177,N,11413.7924,E,0.0,303.6,040191,,,A*6F
$GPGGA,170405.000,2233.2177,N,11413.7924,E,1,07,1.8,17.0,M,14.2,M,,0000*69
$GPVTG,303.6,T,,M,0.0,N,0.0,K,A*0B
$GPGLL,2233.2177,N,11413.7924,E,170405.00,A,A*63
$GPGSA,A,3,02,04,09,10,15,26,27,,,,,,2.5,1.8,1.7*31
$GPRMC,170406.000,A,2233.2177,N,11413.7924,E,0.0,303.6,040191,,,A*6C
$GPGGA,170406.000,2233.2177,N,11413.7924,E,1,08,1.5,17.0,M,14.2,M,,0000*68
$GPVTG,303.6,T,,M,0.0,N,0.0,K,A*0B
$GPGLL,2233.2177,N,11413.7924,E,170406.00,A,A*60
$GPGSA,A,3,02,04,05,09,10,15,26,27,,,,,2.2,1.5,1.6*3F
$GPGSV,3,1,12,10,16,058,29,05,43,023,17,02,43,107,18,04,08,122,24*7C
$GPGSV,3,2,12,27,19,168,35,18,05,269,17,26,80,043,16,15,69,225,26*7E
$GPGSV,3,3,12,09,09,180,33,29,42,291,14,08,14,063,,21,04,313,*7F
$GPRMC,170407.000,A,2233.2177,N,11413.7924,E,0.0,303.6,040191,,,A*6D
$GPGGA,170407.000,2233.2177,N,11413.7924,E,1,08,1.5,17.0,M,14.2,M,,0000*69
$GPVTG,303.6,T,,M,0.0,N,0.0,K,A*0B
$GPGLL,2233.2177,N,11413.7924,E,170407.00,A,A*61
$GPGSA,A,3,02,04,05,09,10,15,26,27,,,,,2.2,1.5,1.6*3F
$GPRMC,170408.000,A,2233.2177,N,11413.7924,E,0.0,303.6,040191,,,A*62
$GPGGA,170408.000,2233.2177,N,11413.7924,E,1,08,1.5,17.0,M,14.2,M,,0000*66
$GPVTG,303.6,T,,M,0.0,N,0.0,K,A*0B
$GPGLL,2233.2177,N,11413.7924,E,170408.00,A,A*6E
$GPGSA,A,3,02,04,05,09,10,15,26,27,,,,,2.2,1.5,1.6*3F
$GPRMC,170409.000,A,2233.2177,N,11413.7924,E,0.0,303.6,040191,,,A*63
$GPGGA,170409.000,2233.2177,N,11413.7924,E,1,08,1.5,17.0,M,14.2,M,,0000*67
$GPVTG,303.6,T,,M,0.0,N,0.0,K,A*0B
$GPGLL,2233.2177,N,11413.7924,E,170409.00,A,A*6F
$GPGSA,A,3,02,04,05,09,10,15,26,27,,,,,2.2,1.5,1.6*3F
$GPRMC,170410.000,A,2233.2177,N,11413.7924,E,0.0,303.6,040191,,,A*6B
$GPGGA,170410.000,2233.2177,N,11413.7924,E,1,08,1.5,17.0,M,14.2,M,,0000*6F
$GPVTG,303.6,T,,M,0.0,N,0.0,K,A*0B
$GPGLL,2233.2177,N,11413.7924,E,170410.00,A,A*67
$GPGSA,A,3,02,04,05,09,10,15,26,27,,,,,2.2,1.5,1.6*3F
$GPRMC,170411.000,A,2233.2177,N,11413.7924,E,0.0,303.6,040191,,,A*6A
$GPGGA,170411.000,2233.2177,N,11413.7924,E,1,08,1.5,17.0,M,14.2,M,,0000*6E
$GPVTG,303.6,T,,M,0.0,N,0.0,K,A*0B
$GPGLL,2233.2177,N,11413.7924,E,170411.00,A,A*66
$GPGSA,A,3,02,04,05,09,10,15,26,27,,,,,2.2,1.5,1.6*3F
$GPGSV,3,1,12,10,16,058,28,05,43,023,18,02,43,107,15,04,08,122,25*7E
$GPGSV,3,2,12,27,19,168,35,18,05,269,17,26,80,043,16,15,69,225,25*7D
$GPGSV,3,3,12,09,09,180,32,29,42,291,14,08,14,063,,21,04,313,*7E
$GPRMC,170412.000,A,2233.2177,N,11413.7924,E,0.0,303.6,040191,,,A*69
$GPGGA,170412.000,2233.2177,N,11413.7924,E,1,08,1.5,17.0,M,14.2,M,,0000*6D
$GPVTG,303.6,T,,M,0.0,N,0.0,K,A*0B
$GPGLL,2233.2177,N,11413.7924,E,170412.00,A,A*65
$GPGSA,A,3,02,04,05,09,10,15,26,27,,,,,2.2,1.5,1.6*3F
$GPRMC,170413.000,A,2233.2177,N,11413.7924,E,0.0,303.6,040191,,,A*68
$GPGGA,170413.000,2233.2177,N,11413.7924,E,1,08,1.5,17.0,M,14.2,M,,0000*6C
$GPVTG,303.6,T,,M,0.0,N,0.0,K,A*0B
$GPGLL,2233.2177,N,11413.7924,E,170413.00,A,A*64
$GPGSA,A,3,02,04,05,09,10,15,26,27,,,,,2.2,1.5,1.6*3F
$GPRMC,170414.000,A,2233.2177,N,11413.7924,E,0.0,303.6,040191,,,A*6F
$GPGGA,170414.000,2233.2177,N,11413.7924,E,1,08,1.5,17.0,M,14.2,M,,0000*6B
$GPVTG,303.6,T,,M,0.0,N,0.0,K,A*0B
$GPGLL,2233.2177,N,11413.7924,E,170414.00,A,A*63
$GPGSA,A,3,02,04,05,09,10,15,26,27,,,,,2.2,1.5,1.6*3F
$GPRMC,170415.000,A,2233.2177,N,11413.7924,E,0.0,303.6,040191,,,A*6E
$GPGGA,170415.000,2233.2177,N,11413.7924,E,1,08,1.5,17.0,M,14.2,M,,0000*6A
$GPVTG,303.6,T,,M,0.0,N,0.0,K,A*0B
$GPGLL,2233.2177,N,11413.7924,E,170415.00,A,A*62
$GPGSA,A,3,02,04,05,09,10,15,26,27,,,,,2.2,1.5,1.6*3F
$GPRMC,170416.000,A,2233.2177,N,11413.7924,E,0.0,303.6,040191,,,A*6D
$GPGGA,170416.000,2233.2177,N,11413.7924,E,1,08,1.5,17.0,M,14.2,M,,0000*69
$GPVTG,303.6,T,,M,0.0,N,0.0,K,A*0B
$GPGLL,2233.2177,N,11413.7924,E,170416.00,A,A*61
$GPGSA,A,3,02,04,05,09,10,15,26,27,,,,,2.2,1.5,1.6*3F
$GPGSV,3,1,12,10,16,058,29,05,43,023,17,02,43,108,17,04,08,122,25*7D
$GPGSV,3,2,12,27,19,168,36,18,05,270,16,26,80,043,19,15,69,225,25*78
$GPGSV,3,3,12,09,09,180,34,29,42,291,14,08,14,063,,21,04,313,*78
$GPRMC,170417.000,A,2233.2177,N,11413.7924,E,0.0,303.6,040191,,,A*6C
$GPGGA,170417.000,2233.2177,N,11413.7924,E,1,08,1.5,17.0,M,14.2,M,,0000*68
$GPVTG,303.6,T,,M,0.0,N,0.0,K,A*0B
$GPGLL,2233.2177,N,11413.7924,E,170417.00,A,A*60
$GPGSA,A,3,02,04,05,09,10,15,26,27,,,,,2.2,1.5,1.6*3F
$GPRMC,170418.000,A,2233.2177,N,11413.7924,E,0.0,303.6,040191,,,A*63
$GPGGA,170418.000,2233.2177,N,11413.7924,E,1,08,1.5,17.0,M,14.2,M,,0000*67
$GPVTG,303.6,T,,M,0.0,N,0.0,K,A*0B
$GPGLL,2233.2177,N,11413.7924,E,170418.00,A,A*6F
$GPGSA,A,3,02,04,05,09,10,15,26,27,,,,,2.2,1.5,1.6*3F
$GPRMC,170419.000,A,2233.2177,N,11413.7924,E,0.0,303.6,040191,,,A*62
$GPGGA,170419.000,2233.2177,N,11413.7924,E,1,08,1.5,17.0,M,14.2,M,,0000*66
$GPVTG,303.6,T,,M,0.0,N,0.0,K,A*0B
$GPGLL,2233.2177,N,11413.7924,E,170419.00,A,A*6E
$GPGSA,A,3,02,04,05,09,10,15,26,27,,,,,2.2,1.5,1.6*3F
$GPRMC,170420.000,A,2233.2177,N,11413.7924,E,0.0,303.6,040191,,,A*68
$GPGGA,170420.000,2233.2177,N,11413.7924,E,1,08,1.5,17.0,M,14.2,M,,0000*6C
$GPVTG,303.6,T,,M,0.0,N,0.0,K,A*0B
$GPGLL,2233.2177,N,11413.7924,E,170420.00,A,A*64
$GPGSA,A,3,02,04,05,09,10,15,26,27,,,,,2.2,1.5,1.6*3F
$GPRMC,170421.000,A,2233.2177,N,11413.7924,E,0.0,303.6,040191,,,A*69
$GPGGA,170421.000,2233.2177,N,11413.7924,E,1,08,1.5,17.0,M,14.2,M,,0000*6D
$GPVTG,303.6,T,,M,0.0,N,0.0,K,A*0B
$GPGLL,2233.2177,N,11413.7924,E,170421.00,A,A*65
$GPGSA,A,3,02,04,05,09,10,15,26,27,,,,,2.2,1.5,1.6*3F
$GPGSV,3,1,12,10,16,058,28,05,43,023,16,02,43,108,16,04,08,122,24*7D
$GPGSV,3,2,12,27,19,168,35,18,05,270,17,08,14,063,17,26,80,043,18*7C
$GPGSV,3,3,12,15,69,225,25,09,09,180,32,29,42,291,14,21,04,313,*7F
$GPRMC,170422.000,A,2233.2177,N,11413.7924,E,0.0,303.6,040191,,,A*6A
$GPGGA,170422.000,2233.2177,N,11413.7924,E,1,08,1.5,17.0,M,14.2,M,,0000*6E
$GPVTG,303.6,T,,M,0.0,N,0.0,K,A*0B
$GPGLL,2233.2177,N,11413.7924,E,170422.00,A,A*66
$GPGSA,A,3,02,04,05,09,10,15,26,27,,,,,2.2,1.5,1.6*3F
$GPRMC,170423.000,A,2233.2177,N,11413.7924,E,0.0,303.6,040191,,,A*6B
$GPGGA,170423.000,2233.2177,N,11413.7924,E,1,08,1.5,17.0,M,14.2,M,,0000*6F
$GPVTG,303.6,T,,M,0.0,N,0.0,K,A*0B
$GPGLL,2233.2177,N,11413.7924,E,170423.00,A,A*67
$GPGSA,A,3,02,04,05,09,10,15,26,27,,,,,2.2,1.5,1.6*3F
$GPRMC,170424.000,A,2233.2177,N,11413.7924,E,0.0,303.6,040191,,,A*6C
$GPGGA,170424.000,2233.2177,N,11413.7924,E,1,08,1.5,17.0,M,14.2,M,,0000*68
$GPVTG,303.6,T,,M,0.0,N,0.0,K,A*0B
$GPGLL,2233.2177,N,11413.7924,E,170424.00,A,A*60
$GPGSA,A,3,02,04,05,09,10,15,26,27,,,,,2.2,1.5,1.6*3F
$GPRMC,170425.000,A,2233.2177,N,11413.7924,E,0.0,303.6,040191,,,A*6D
$GPGGA,170425.000,2233.2177,N,11413.7924,E,1,08,1.5,17.0,M,14.2,M,,0000*69
$GPVTG,303.6,T,,M,0.0,N,0.0,K,A*0B
$GPGLL,2233.2177,N,11413.7924,E,170425.00,A,A*61
$GPGSA,A,3,02,04,05,09,10,15,26,27,,,,,2.2,1.5,1.6*3F
$GPRMC,170426.000,A,2233.2177,N,11413.7924,E,0.0,303.6,040191,,,A*6E
$GPGGA,170426.000,2233.2177,N,11413.7924,E,1,08,1.5,17.0,M,14.2,M,,0000*6A
$GPVTG,303.6,T,,M,0.0,N,0.0,K,A*0B
$GPGLL,2233.2177,N,11413.7924,E,170426.00,A,A*62
$GPGSA,A,3,02,04,05,09,10,15,26,27,,,,,2.2,1.5,1.6*3F
$GPGSV,3,1,12,10,16,058,25,05,43,023,16,02,43,108,15,04,08,122,23*74
$GPGSV,3,2,12,27,19,168,34,18,05,270,17,08,14,063,17,26,80,043,18*7D
$GPGSV,3,3,12,15,69,225,28,09,09,180,31,29,42,291,,21,04,313,*74
$GPRMC,170427.000,A,2233.2177,N,11413.7924,E,0.0,303.6,040191,,,A*6F
$GPGGA,170427.000,2233.2177,N,11413.7924,E,1,08,1.5,17.0,M,14.2,M,,0000*6B
$GPVTG,303.6,T,,M,0.0,N,0.0,K,A*0B
$GPGLL,2233.2177,N,11413.7924,E,170427.00,A,A*63
$GPGSA,A,3,02,04,05,09,10,15,26,27,,,,,2.2,1.5,1.6*3F
$GPRMC,170428.000,A,2233.2177,N,11413.7924,E,0.0,303.6,040191,,,A*60
$GPGGA,170428.000,2233.2177,N,11413.7924,E,1,08,1.5,17.0,M,14.2,M,,0000*64
$GPVTG,303.6,T,,M,0.0,N,0.0,K,A*0B
$GPGLL,2233.2177,N,11413.7924,E,170428.00,A,A*6C
$GPGSA,A,3,02,04,05,09,10,15,26,27,,,,,2.2,1.5,1.6*3F
$GPRMC,170429.000,A,2233.2177,N,11413.7924,E,0.0,303.6,040191,,,A*61
$GPGGA,170429.000,2233.2177,N,11413.7924,E,1,08,1.5,17.0,M,14.2,M,,0000*65
$GPVTG,303.6,T,,M,0.0,N,0.0,K,A*0B
$GPGLL,2233.2177,N,11413.7924,E,170429.00,A,A*6D
$GPGSA,A,3,02,04,05,09,10,15,26,27,,,,,2.2,1.5,1.6*3F
$GPRMC,170430.000,A,2233.2177,N,11413.7924,E,0.0,303.6,040191,,,A*69
$GPGGA,170430.000,2233.2177,N,11413.7924,E,1,08,1.5,17.0,M,14.2,M,,0000*6D
$GPVTG,303.6,T,,M,0.0,N,0.0,K,A*0B
$GPGLL,2233.2177,N,11413.7924,E,170430.00,A,A*65
$GPGSA,A,3,02,04,05,09,10,15,26,27,,,,,2.2,1.5,1.6*3F
$GPRMC,170431.000,A,2233.2177,N,11413.7924,E,0.0,303.6,040191,,,A*68
$GPGGA,170431.000,2233.2177,N,11413.7924,E,1,08,1.5,17.0,M,14.2,M,,0000*6C
$GPVTG,303.6,T,,M,0.0,N,0.0,K,A*0B
$GPGLL,2233.2177,N,11413.7924,E,170431.00,A,A*64
$GPGSA,A,3,02,04,05,09,10,15,26,27,,,,,2.2,1.5,1.6*3F
$GPGSV,3,1,12,10,16,058,25,05,43,023,19,02,43,108,13,04,08,122,23*7D
$GPGSV,3,2,12,27,19,168,34,18,05,270,17,08,14,063,17,26,80,042,14*70
$GPGSV,3,3,12,15,69,225,29,09,09,180,32,29,42,291,16,21,04,313,*71
$GPRMC,170432.000,A,2233.2177,N,11413.7924,E,0.0,303.6,040191,,,A*6B
$GPGGA,170432.000,2233.2177,N,11413.7924,E,1,08,1.5,17.0,M,14.2,M,,0000*6F
$GPVTG,303.6,T,,M,0.0,N,0.0,K,A*0B
$GPGLL,2233.2177,N,11413.7924,E,170432.00,A,A*67
$GPGSA,A,3,02,04,05,09,10,15,26,27,,,,,2.2,1.5,1.6*3F
$GPRMC,170433.000,A,2233.2177,N,11413.7924,E,0.0,303.6,040191,,,A*6A
$GPGGA,170433.000,2233.2177,N,11413.7924,E,1,08,1.5,17.0,M,14.2,M,,0000*6E
$GPVTG,303.6,T,,M,0.0,N,0.0,K,A*0B
$GPGLL,2233.2177,N,11413.7924,E,170433.00,A,A*66
$GPGSA,A,3,02,04,05,09,10,15,26,27,,,,,2.2,1.5,1.6*3F
$GPRMC,170434.000,A,2233.2177,N,11413.7924,E,0.0,303.6,040191,,,A*6D
$GPGGA,170434.000,2233.2177,N,11413.7924,E,1,08,1.5,17.0,M,14.2,M,,0000*69
$GPVTG,303.6,T,,M,0.0,N,0.0,K,A*0B
$GPGLL,2233.2177,N,11413.7924,E,170434.00,A,A*61
$GPGSA,A,3,02,04,05,09,10,15,26,27,,,,,2.2,1.5,1.6*3F
$GPRMC,170435.000,A,2233.2177,N,11413.7924,E,0.0,303.6,040191,,,A*6C
$GPGGA,170435.000,2233.2177,N,11413.7924,E,1,07,2.1,17.0,M,14.2,M,,0000*60
$GPVTG,303.6,T,,M,0.0,N,0.0,K,A*0B
$GPGLL,2233.2177,N,11413.7924,E,170435.00,A,A*60
$GPGSA,A,3,04,05,09,10,15,26,27,,,,,,3.1,2.1,2.3*3E
$GPRMC,170436.000,A,2233.2177,N,11413.7924,E,0.0,303.6,040191,,,A*6F
$GPGGA,170436.000,2233.2177,N,11413.7924,E,1,07,2.1,17.0,M,14.2,M,,0000*63
$GPVTG,303.6,T,,M,0.0,N,0.0,K,A*0B
$GPGLL,2233.2177,N,11413.7924,E,170436.00,A,A*63
$GPGSA,A,3,04,05,09,10,15,26,27,,,,,,3.1,2.1,2.3*3E
$GPGSV,3,1,12,10,16,058,26,05,43,023,22,02,43,108,12,04,08,122,23*77
$GPGSV,3,2,12,27,19,168,34,18,05,270,17,08,14,063,17,26,80,042,15*71
$GPGSV,3,3,12,15,69,225,23,09,09,180,32,29,42,291,19,21,04,313,*74
$GPRMC,170437.000,A,2233.2177,N,11413.7924,E,0.0,303.6,040191,,,A*6E
$GPGGA,170437.000,2233.2177,N,11413.7924,E,1,07,2.1,17.0,M,14.2,M,,0000*62
$GPVTG,303.6,T,,M,0.0,N,0.0,K,A*0B
$GPGLL,2233.2177,N,11413.7924,E,170437.00,A,A*62
$GPGSA,A,3,04,05,09,10,15,26,27,,,,,,3.1,2.1,2.3*3E
$GPRMC,170438.000,A,2233.2177,N,11413.7924,E,0.0,303.6,040191,,,A*61
$GPGGA,170438.000,2233.2177,N,11413.7924,E,1,07,2.1,17.0,M,14.2,M,,0000*6D
$GPVTG,303.6,T,,M,0.0,N,0.0,K,A*0B
$GPGLL,2233.2177,N,11413.7924,E,170438.00,A,A*6D
$GPGSA,A,3,04,05,09,10,15,26,27,,,,,,3.1,2.1,2.3*3E
$GPRMC,170439.000,A,2233.2177,N,11413.7924,E,0.0,303.6,040191,,,A*60
$GPGGA,170439.000,2233.2177,N,11413.7924,E,1,07,2.1,17.0,M,14.2,M,,0000*6C
$GPVTG,303.6,T,,M,0.0,N,0.0,K,A*0B
$GPGLL,2233.2177,N,11413.7924,E,170439.00,A,A*6C
$GPGSA,A,3,04,05,09,10,15,26,27,,,,,,3.1,2.1,2.3*3E
$GPRMC,170440.000,A,2233.2177,N,11413.7924,E,0.0,303.6,040191,,,A*6E
$GPGGA,170440.000,2233.2177,N,11413.7924,E,1,07,2.1,17.0,M,14.2,M,,0000*62
$GPVTG,303.6,T,,M,0.0,N,0.0,K,A*0B
$GPGLL,2233.2177,N,11413.7924,E,170440.00,A,A*62
$GPGSA,A,3,04,05,09,10,15,26,27,,,,,,3.1,2.1,2.3*3E
$GPRMC,170441.000,A,2233.2177,N,11413.7924,E,0.0,303.6,040191,,,A*6F
$GPGGA,170441.000,2233.2177,N,11413.7924,E,1,07,2.1,17.0,M,14.2,M,,0000*63
$GPVTG,303.6,T,,M,0.0,N,0.0,K,A*0B
$GPGLL,2233.2177,N,11413.7924,E,170441.00,A,A*63
$GPGSA,A,3,04,05,09,10,15,26,27,,,,,,3.1,2.1,2.3*3E
$GPGSV,3,1,12,10,16,058,27,05,43,023,23,04,08,122,23,27,19,168,34*7D
$GPGSV,3,2,12,18,06,270,15,26,80,042,13,15,69,225,22,09,09,180,32*7B
$GPGSV,3,3,12,02,43,108,,29,42,291,,08,14,063,,21,04,313,*7F
$GPRMC,170442.000,A,2233.2177,N,11413.7924,E,0.0,303.6,040191,,,A*6C
$GPGGA,170442.000,2233.2177,N,11413.7924,E,1,07,2.1,17.0,M,14.2,M,,0000*60
$GPVTG,303.6,T,,M,0.0,N,0.0,K,A*0B
$GPGLL,2233.2177,N,11413.7924,E,170442.00,A,A*60
$GPGSA,A,3,04,05,09,10,15,26,27,,,,,,3.1,2.1,2.3*3E
$GPRMC,170443.000,A,2233.2177,N,11413.7924,E,0.0,303.6,040191,,,A*6D
$GPGGA,170443.000,2233.2177,N,11413.7924,E,1,07,2.1,17.0,M,14.2,M,,0000*61
$GPVTG,303.6,T,,M,0.0,N,0.0,K,A*0B
$GPGLL,2233.2177,N,11413.7924,E,170443.00,A,A*61
$GPGSA,A,3,04,05,09,10,15,26,27,,,,,,3.1,2.1,2.3*3E
$GPRMC,170444.000,A,2233.2177,N,11413.7924,E,0.0,303.6,040191,,,A*6A
$GPGGA,170444.000,2233.2177,N,11413.7924,E,1,07,2.1,17.0,M,14.2,M,,0000*66
$GPVTG,303.6,T,,M,0.0,N,0.0,K,A*0B
$GPGLL,2233.2177,N,11413.7924,E,170444.00,A,A*66
$GPGSA,A,3,04,05,09,10,15,26,27,,,,,,3.1,2.1,2.3*3E
$GPRMC,170445.000,A,2233.2177,N,11413.7924,E,0.0,303.6,040191,,,A*6B
$GPGGA,170445.000,2233.2177,N,11413.7924,E,1,07,2.1,17.0,M,14.2,M,,0000*67
$GPVTG,303.6,T,,M,0.0,N,0.0,K,A*0B
$GPGLL,2233.2177,N,11413.7924,E,170445.00,A,A*67
$GPGSA,A,3,04,05,09,10,15,26,27,,,,,,3.1,2.1,2.3*3E
$GPRMC,170446.000,A,2233.2177,N,11413.7924,E,0.0,303.6,040191,,,A*68
$GPGGA,170446.000,2233.2177,N,11413.7924,E,1,07,2.1,17.0,M,14.2,M,,0000*64
$GPVTG,303.6,T,,M,0.0,N,0.0,K,A*0B
$GPGLL,2233.2177,N,11413.7924,E,170446.00,A,A*64
$GPGSA,A,3,04,05,09,10,15,26,27,,,,,,3.1,2.1,2.3*3E
$GPGSV,3,1,12,10,16,058,26,05,43,023,23,04,08,122,22,27,19,168,33*7A
$GPGSV,3,2,12,18,06,270,20,26,80,042,12,15,69,225,19,09,09,180,32*74
$GPGSV,3,3,12,02,43,108,,29,42,291,,08,14,063,,21,04,313,*7F
$GPRMC,170447.000,A,2233.2177,N,11413.7924,E,0.0,303.6,040191,,,A*69
$GPGGA,170447.000,2233.2177,N,11413.7924,E,1,07,2.1,17.0,M,14.2,M,,0000*65
$GPVTG,303.6,T,,M,0.0,N,0.0,K,A*0B
$GPGLL,2233.2177,N,11413.7924,E,170447.00,A,A*65
$GPGSA,A,3,04,05,09,10,15,26,27,,,,,,3.1,2.1,2.3*3E
$GPRMC,170448.000,A,2233.2177,N,11413.7924,E,0.0,303.6,040191,,,A*66
$GPGGA,170448.000,2233.2177,N,11413.7924,E,1,07,2.1,17.0,M,14.2,M,,0000*6A
$GPVTG,303.6,T,,M,0.0,N,0.0,K,A*0B
$GPGLL,2233.2177,N,11413.7924,E,170448.00,A,A*6A
$GPGSA,A,3,04,05,09,10,15,26,27,,,,,,3.1,2.1,2.3*3E
$GPRMC,170449.000,A,2233.2177,N,11413.7924,E,0.0,303.6,040191,,,A*67
$GPGGA,170449.000,2233.2177,N,11413.7924,E,1,07,2.1,17.0,M,14.2,M,,0000*6B
$GPVTG,303.6,T,,M,0.0,N,0.0,K,A*0B
$GPGLL,2233.2177,N,11413.7924,E,170449.00,A,A*6B
$GPGSA,A,3,04,05,09,10,15,26,27,,,,,,3.1,2.1,2.3*3E
$GPRMC,170450.000,A,2233.2177,N,11413.7924,E,0.0,303.6,040191,,,A*6F
$GPGGA,170450.000,2233.2177,N,11413.7924,E,1,07,2.1,17.0,M,14.2,M,,0000*63
$GPVTG,303.6,T,,M,0.0,N,0.0,K,A*0B
$GPGLL,2233.2177,N,11413.7924,E,170450.00,A,A*63
$GPGSA,A,3,04,05,09,10,15,26,27,,,,,,3.1,2.1,2.3*3E
$GPRMC,170451.000,A,2233.2177,N,11413.7924,E,0.0,303.6,040191,,,A*6E
$GPGGA,170451.000,2233.2177,N,11413.7924,E,1,07,2.1,17.0,M,14.2,M,,0000*62
$GPVTG,303.6,T,,M,0.0,N,0.0,K,A*0B
$GPGLL,2233.2177,N,11413.7924,E,170451.00,A,A*62
$GPGSA,A,3,04,05,09,10,15,26,27,,,,,,3.1,2.1,2.3*3E
$GPGSV,3,1,12,10,16,058,26,05,43,023,22,04,08,122,22,27,19,168,33*7B
$GPGSV,3,2,12,18,06,270,18,15,69,226,22,09,09,180,32,26,80,042,*77
$GPGSV,3,3,12,02,43,108,,29,42,291,,08,14,063,,21,05,313,*7E
$GPRMC,170452.000,A,2233.2177,N,11413.7924,E,0.0,303.6,040191,,,A*6D
$GPGGA,170452.000,2233.2177,N,11413.7924,E,1,06,2.4,17.0,M,14.2,M,,0000*65
$GPVTG,303.6,T,,M,0.0,N,0.0,K,A*0B
$GPGLL,2233.2177,N,11413.7924,E,170452.00,A,A*61
$GPGSA,A,3,04,05,09,10,15,27,,,,,,,3.8,2.4,3.0*34
$GPRMC,170453.000,A,2233.2177,N,11413.7924,E,0.0,303.6,040191,,,A*6C
$GPGGA,170453.000,2233.2177,N,11413.7924,E,1,06,2.4,17.0,M,14.2,M,,0000*64
$GPVTG,303.6,T,,M,0.0,N,0.0,K,A*0B
$GPGLL,2233.2177,N,11413.7924,E,170453.00,A,A*60
$GPGSA,A,3,04,05,09,10,15,27,,,,,,,3.8,2.4,3.0*34
$GPRMC,170454.000,A,2233.2177,N,11413.7924,E,0.0,303.6,040191,,,A*6B
$GPGGA,170454.000,2233.2177,N,11413.7924,E,1,06,2.4,17.0,M,14.2,M,,0000*63
$GPVTG,303.6,T,,M,0.0,N,0.0,K,A*0B
$GPGLL,2233.2177,N,11413.7924,E,170454.00,A,A*67
$GPGSA,A,3,04,05,09,10,15,27,,,,,,,3.8,2.4,3.0*34
$GPRMC,170455.000,A,2233.2177,N,11413.7924,E,0.0,303.6,040191,,,A*6A
$GPGGA,170455.000,2233.2177,N,11413.7924,E,1,06,2.4,17.0,M,14.2,M,,0000*62
$GPVTG,303.6,T,,M,0.0,N,0.0,K,A*0B
$GPGLL,2233.2177,N,11413.7924,E,170455.00,A,A*66
$GPGSA,A,3,04,05,09,10,15,27,,,,,,,3.8,2.4,3.0*34
$GPRMC,170456.000,A,2233.2177,N,11413.7924,E,0.0,303.6,040191,,,A*69
$GPGGA,170456.000,2233.2177,N,11413.7924,E,1,06,2.4,17.0,M,14.2,M,,0000*61
$GPVTG,303.6,T,,M,0.0,N,0.0,K,A*0B
$GPGLL,2233.2177,N,11413.7924,E,170456.00,A,A*65
$GPGSA,A,3,04,05,09,10,15,27,,,,,,,3.8,2.4,3.0*34
$GPGSV,3,1,12,10,15,058,23,05,43,023,21,04,08,122,22,27,19,168,33*7E
$GPGSV,3,2,12,18,06,270,18,15,69,226,21,09,09,180,32,26,80,042,*74
$GPGSV,3,3,12,02,43,108,,29,42,291,,08,14,063,,21,05,313,*7E
$GPRMC,170457.000,A,2233.2177,N,11413.7924,E,0.0,303.6,040191,,,A*68
$GPGGA,170457.000,2233.2177,N,11413.7924,E,1,06,2.4,17.0,M,14.2,M,,0000*60
$GPVTG,303.6,T,,M,0.0,N,0.0,K,A*0B
$GPGLL,2233.2177,N,11413.7924,E,170457.00,A,A*64
$GPGSA,A,3,04,05,09,10,15,27,,,,,,,3.8,2.4,3.0*34
$GPRMC,170458.000,A,2233.2177,N,11413.7924,E,0.0,303.6,040191,,,A*67
$GPGGA,170458.000,2233.2177,N,11413.7924,E,1,06,2.4,17.0,M,14.2,M,,0000*6F
$GPVTG,303.6,T,,M,0.0,N,0.0,K,A*0B
$GPGLL,2233.2177,N,11413.7924,E,170458.00,A,A*6B
$GPGSA,A,3,04,05,09,10,15,27,,,,,,,3.8,2.4,3.0*34
$GPRMC,170459.000,A,2233.2177,N,11413.7924,E,0.0,303.6,040191,,,A*66
$GPGGA,170459.000,2233.2177,N,11413.7924,E,1,07,1.5,17.0,M,14.2,M,,0000*6D
$GPVTG,303.6,T,,M,0.0,N,0.0,K,A*0B
$GPGLL,2233.2177,N,11413.7924,E,170459.00,A,A*6A
$GPGSA,A,3,02,04,05,09,10,15,27,,,,,,2.3,1.5,1.8*34
$GPRMC,170500.000,A,2233.2177,N,11413.7924,E,0.0,303.6,040191,,,A*6B
$GPGGA,170500.000,2233.2177,N,11413.7924,E,1,07,1.5,17.0,M,14.2,M,,0000*60
$GPVTG,303.6,T,,M,0.0,N,0.0,K,A*0B
$GPGLL,2233.2177,N,11413.7924,E,170500.00,A,A*67
$GPGSA,A,3,02,04,05,09,10,15,27,,,,,,2.3,1.5,1.8*34
$GPRMC,170501.000,A,2233.2177,N,11413.7924,E,0.0,303.6,040191,,,A*6A
$GPGGA,170501.000,2233.2177,N,11413.7924,E,1,07,1.5,17.0,M,14.2,M,,0000*61
$GPVTG,303.6,T,,M,0.0,N,0.0,K,A*0B
$GPGLL,2233.2177,N,11413.7924,E,170501.00,A,A*66
$GPGSA,A,3,02,04,05,09,10,15,27,,,,,,2.3,1.5,1.8*34
$GPGSV,3,1,12,10,15,058,25,05,43,024,19,02,43,108,14,04,08,122,20*7D
$GPGSV,3,2,12,27,19,168,34,18,06,270,18,15,69,226,22,09,09,180,32*78
$GPGSV,3,3,12,26,80,042,,29,42,291,,08,14,063,,21,05,313,*78
$GPRMC,170502.000,A,2233.2177,N,11413.7924,E,0.0,303.6,040191,,,A*69
$GPGGA,170502.000,2233.2177,N,11413.7924,E,1,07,1.5,17.0,M,14.2,M,,0000*62
$GPVTG,303.6,T,,M,0.0,N,0.0,K,A*0B
$GPGLL,2233.2177,N,11413.7924,E,170502.00,A,A*65
$GPGSA,A,3,02,04,05,09,10,15,27,,,,,,2.3,1.5,1.8*34
$GPRMC,170503.000,A,2233.2177,N,11413.7924,E,0.0,303.6,040191,,,A*68
$GPGGA,170503.000,2233.2177,N,11413.7924,E,1,07,1.5,17.0,M,14.2,M,,0000*63
$GPVTG,303.6,T,,M,0.0,N,0.0,K,A*0B
$GPGLL,2233.2177,N,11413.7924,E,170503.00,A,A*64
$GPGSA,A,3,02,04,05,09,10,15,27,,,,,,2.3,1.5,1.8*34
$GPRMC,170504.000,A,2233.2177,N,11413.7924,E,0.0,303.6,040191,,,A*6F
$GPGGA,170504.000,2233.2177,N,11413.7924,E,1,07,1.5,17.0,M,14.2,M,,0000*64
$GPVTG,303.6,T,,M,0.0,N,0.0,K,A*0B
$GPGLL,2233.2177,N,11413.7924,E,170504.00,A,A*63
$GPGSA,A,3,02,04,05,09,10,15,27,,,,,,2.3,1.5,1.8*34
$GPRMC,170505.000,A,2233.2177,N,11413.7924,E,0.0,303.6,040191,,,A*6E
$GPGGA,170505.000,2233.2177,N,11413.7924,E,1,07,1.5,17.0,M,14.2,M,,0000*65
$GPVTG,303.6,T,,M,0.0,N,0.0,K,A*0B
$GPGLL,2233.2177,N,11413.7924,E,170505.00,A,A*62
$GPGSA,A,3,02,04,05,09,10,15,27,,,,,,2.3,1.5,1.8*34
$GPRMC,170506.000,A,2233.2177,N,11413.7924,E,0.0,303.6,040191,,,A*6D
$GPGGA,170506.000,2233.2177,N,11413.7924,E,1,07,1.5,17.0,M,14.2,M,,0000*66
$GPVTG,303.6,T,,M,0.0,N,0.0,K,A*0B
$GPGLL,2233.2177,N,11413.7924,E,170506.00,A,A*61
$GPGSA,A,3,02,04,05,09,10,15,27,,,,,,2.3,1.5,1.8*34
$GPGSV,3,1,12,10,15,058,27,05,43,024,17,02,43,108,12,04,08,122,19*7D
$GPGSV,3,2,12,27,19,168,34,18,06,270,21,15,69,226,22,09,09,180,32*72
$GPGSV,3,3,12,29,42,291,17,26,80,041,,08,14,063,,21,05,313,*7D
$GPRMC,170507.000,A,2233.2177,N,11413.7924,E,0.0,303.6,040191,,,A*6C
$GPGGA,170507.000,2233.2177,N,11413.7924,E,1,07,1.5,17.0,M,14.2,M,,0000*67
$GPVTG,303.6,T,,M,0.0,N,0.0,K,A*0B
$GPGLL,2233.2177,N,11413.7924,E,170507.00,A,A*60
$GPGSA,A,3,02,04,05,09,10,15,27,,,,,,2.3,1.5,1.8*34
$GPRMC,170508.000,A,2233.2177,N,11413.7924,E,0.0,303.6,040191,,,A*63
$GPGGA,170508.000,2233.2177,N,11413.7924,E,1,07,1.5,17.0,M,14.2,M,,0000*68
$GPVTG,303.6,T,,M,0.0,N,0.0,K,A*0B
$GPGLL,2233.2177,N,11413.7924,E,170508.00,A,A*6F
$GPGSA,A,3,02,04,05,09,10,15,27,,,,,,2.3,1.5,1.8*34
$GPRMC,170509.000,A,2233.2177,N,11413.7924,E,0.0,303.6,040191,,,A*62
$GPGGA,170509.000,2233.2177,N,11413.7924,E,1,07,1.5,17.0,M,14.2,M,,0000*69
$GPVTG,303.6,T,,M,0.0,N,0.0,K,A*0B
$GPGLL,2233.2177,N,11413.7924,E,170509.00,A,A*6E
$GPGSA,A,3,02,04,05,09,10,15,27,,,,,,2.3,1.5,1.8*34
$GPRMC,170510.000,A,2233.2177,N,11413.7924,E,0.0,303.6,040191,,,A*6A
$GPGGA,170510.000,2233.2177,N,11413.7924,E,1,07,1.5,17.0,M,14.2,M,,0000*61
$GPVTG,303.6,T,,M,0.0,N,0.0,K,A*0B
$GPGLL,2233.2177,N,11413.7924,E,170510.00,A,A*66
$GPGSA,A,3,02,04,05,09,10,15,27,,,,,,2.3,1.5,1.8*34
$GPRMC,170511.000,A,2233.2177,N,11413.7924,E,0.0,303.6,040191,,,A*6B
$GPGGA,170511.000,2233.2177,N,11413.7924,E,1,07,1.5,17.0,M,14.2,M,,0000*60
$GPVTG,303.6,T,,M,0.0,N,0.0,K,A*0B
$GPGLL,2233.2177,N,11413.7924,E,170511.00,A,A*67
$GPGSA,A,3,02,04,05,09,10,15,27,,,,,,2.3,1.5,1.8*34
$GPGSV,3,1,12,10,15,058,26,05,43,024,15,02,43,108,11,04,08,122,20*77
$GPGSV,3,2,12,27,19,167,34,18,06,270,,15,69,226,20,09,09,180,32*7C
$GPGSV,3,3,12,29,42,291,17,26,80,041,,08,14,062,,21,05,313,*7C
$GPRMC,170512.000,A,2233.2177,N,11413.7924,E,0.0,303.6,040191,,,A*68
$GPGGA,170512.000,2233.2177,N,11413.7924,E,1,06,2.4,17.0,M,14.2,M,,0000*60
$GPVTG,303.6,T,,M,0.0,N,0.0,K,A*0B
$GPGLL,2233.2177,N,11413.7924,E,170512.00,A,A*64
$GPGSA,A,3,04,05,09,10,15,27,,,,,,,3.9,2.4,3.1*34
$GPRMC,170513.000,A,2233.2177,N,11413.7924,E,0.0,303.6,040191,,,A*69
$GPGGA,170513.000,2233.2177,N,11413.7924,E,1,06,2.4,17.0,M,14.2,M,,0000*61
$GPVTG,303.6,T,,M,0.0,N,0.0,K,A*0B
$GPGLL,2233.2177,N,11413.7924,E,170513.00,A,A*65
$GPGSA,A,3,04,05,09,10,15,27,,,,,,,3.9,2.4,3.1*34
$GPRMC,170514.000,A,2233.2177,N,11413.7924,E,0.0,303.6,040191,,,A*6E
$GPGGA,170514.000,2233.2177,N,11413.7924,E,1,06,2.4,17.0,M,14.2,M,,0000*66
$GPVTG,303.6,T,,M,0.0,N,0.0,K,A*0B
$GPGLL,2233.2177,N,11413.7924,E,170514.00,A,A*62
$GPGSA,A,3,04,05,09,10,15,27,,,,,,,3.9,2.4,3.1*34
$GPRMC,170515.000,A,2233.2177,N,11413.7924,E,0.0,303.6,040191,,,A*6F
$GPGGA,170515.000,2233.2177,N,11413.7924,E,1,06,2.4,17.0,M,14.2,M,,0000*67
$GPVTG,303.6,T,,M,0.0,N,0.0,K,A*0B
$GPGLL,2233.2177,N,11413.7924,E,170515.00,A,A*63
$GPGSA,A,3,04,05,09,10,15,27,,,,,,,3.9,2.4,3.1*34
$GPRMC,170516.000,A,2233.2177,N,11413.7924,E,0.0,303.6,040191,,,A*6C
$GPGGA,170516.000,2233.2177,N,11413.7924,E,1,06,2.4,17.0,M,14.2,M,,0000*64
$GPVTG,303.6,T,,M,0.0,N,0.0,K,A*0B
$GPGLL,2233.2177,N,11413.7924,E,170516.00,A,A*60
$GPGSA,A,3,04,05,09,10,15,27,,,,,,,3.9,2.4,3.1*34
$GPGSV,3,1,12,10,15,058,26,05,43,024,14,02,43,108,17,04,08,122,20*70
$GPGSV,3,2,12,27,19,167,34,18,06,270,19,08,14,062,23,26,80,041,14*77
$GPGSV,3,3,12,15,69,226,20,09,09,180,31,29,42,291,,21,05,313,*7E
$GPRMC,170517.000,A,2233.2177,N,11413.7924,E,0.0,303.6,040191,,,A*6D
$GPGGA,170517.000,2233.2177,N,11413.7924,E,1,08,1.5,17.0,M,14.2,M,,0000*69
$GPVTG,303.6,T,,M,0.0,N,0.0,K,A*0B
$GPGLL,2233.2177,N,11413.7924,E,170517.00,A,A*61
$GPGSA,A,3,02,04,05,09,10,15,26,27,,,,,2.2,1.5,1.6*3F
$GPRMC,170518.000,A,2233.2177,N,11413.7924,E,0.0,303.6,040191,,,A*62
$GPGGA,170518.000,2233.2177,N,11413.7924,E,1,07,1.5,17.0,M,14.2,M,,0000*69
$GPVTG,303.6,T,,M,0.0,N,0.0,K,A*0B
$GPGLL,2233.2177,N,11413.7924,E,170518.00,A,A*6E
$GPGSA,A,3,02,04,05,09,10,15,27,,,,,,2.3,1.5,1.8*34
$GPRMC,170519.000,A,2233.2177,N,11413.7924,E,0.0,303.6,040191,,,A*63
$GPGGA,170519.000,2233.2177,N,11413.7924,E,1,08,1.5,17.0,M,14.2,M,,0000*67
$GPVTG,303.6,T,,M,0.0,N,0.0,K,A*0B
$GPGLL,2233.2177,N,11413.7924,E,170519.00,A,A*6F
$GPGSA,A,3,02,04,05,09,10,15,26,27,,,,,2.2,1.5,1.6*3F
$GPRMC,170520.000,A,2233.2177,N,11413.7924,E,0.0,303.6,040191,,,A*69
$GPGGA,170520.000,2233.2177,N,11413.7924,E,1,08,1.5,17.0,M,14.2,M,,0000*6D
$GPVTG,303.6,T,,M,0.0,N,0.0,K,A*0B
$GPGLL,2233.2177,N,11413.7924,E,170520.00,A,A*65
$GPGSA,A,3,02,04,05,09,10,15,26,27,,,,,2.2,1.5,1.6*3F
$GPRMC,170521.000,A,2233.2177,N,11413.7924,E,0.0,303.6,040191,,,A*68
$GPGGA,170521.000,2233.2177,N,11413.7924,E,1,07,1.5,17.0,M,14.2,M,,0000*63
$GPVTG,303.6,T,,M,0.0,N,0.0,K,A*0B
$GPGLL,2233.2177,N,11413.7924,E,170521.00,A,A*64
$GPGSA,A,3,02,04,05,09,10,15,27,,,,,,2.3,1.5,1.8*34
$GPGSV,3,1,12,10,15,058,25,05,43,024,12,02,43,108,17,04,08,122,19*7F
$GPGSV,3,2,12,27,19,167,34,18,06,270,18,08,14,062,23,26,80,041,14*76
$GPGSV,3,3,12,15,69,226,18,09,09,180,30,29,42,291,,21,05,313,*74
$GPRMC,170522.000,A,2233.2177,N,11413.7924,E,0.0,303.6,040191,,,A*6B
$GPGGA,170522.000,2233.2177,N,11413.7924,E,1,06,1.8,17.0,M,14.2,M,,0000*6C
$GPVTG,303.6,T,,M,0.0,N,0.0,K,A*0B
$GPGLL,2233.2177,N,11413.7924,E,170522.00,A,A*67
$GPGSA,A,3,02,04,09,10,15,27,,,,,,,2.6,1.8,1.9*38
$GPRMC,170523.000,A,2233.2177,N,11413.7924,E,0.0,303.6,040191,,,A*6A
$GPGGA,170523.000,2233.2177,N,11413.7924,E,1,06,1.8,17.0,M,14.2,M,,0000*6D
$GPVTG,303.6,T,,M,0.0,N,0.0,K,A*0B
$GPGLL,2233.2177,N,11413.7924,E,170523.00,A,A*66
$GPGSA,A,3,02,04,09,10,15,27,,,,,,,2.6,1.8,1.9*38
$GPRMC,170524.000,A,2233.2177,N,11413.7924,E,0.0,303.6,040191,,,A*6D
$GPGGA,170524.000,2233.2177,N,11413.7924,E,1,06,1.8,17.0,M,14.2,M,,0000*6A
$GPVTG,303.6,T,,M,0.0,N,0.0,K,A*0B
$GPGLL,2233.2177,N,11413.7924,E,170524.00,A,A*61
$GPGSA,A,3,02,04,09,10,15,27,,,,,,,2.6,1.8,1.9*38
$GPRMC,170525.000,A,2233.2177,N,11413.7924,E,0.0,303.6,040191,,,A*6C
$GPGGA,170525.000,2233.2177,N,11413.7924,E,1,06,1.8,17.0,M,14.2,M,,0000*6B
$GPVTG,303.6,T,,M,0.0,N,0.0,K,A*0B
$GPGLL,2233.2177,N,11413.7924,E,170525.00,A,A*60
$GPGSA,A,3,02,04,09,10,15,27,,,,,,,2.6,1.8,1.9*38
$GPRMC,170526.000,A,2233.2177,N,11413.7924,E,0.0,303.6,040191,,,A*6F
$GPGGA,170526.000,2233.2177,N,11413.7924,E,1,06,1.8,17.0,M,14.2,M,,0000*68
$GPVTG,303.6,T,,M,0.0,N,0.0,K,A*0B
$GPGLL,2233.2177,N,11413.7924,E,170526.00,A,A*63
$GPGSA,A,3,02,04,09,10,15,27,,,,,,,2.6,1.8,1.9*38
$GPGSV,3,1,12,10,15,058,26,02,43,108,17,04,08,122,20,27,19,167,34*7B
$GPGSV,3,2,12,18,06,270,17,08,14,062,23,15,69,226,15,09,09,180,30*7C
$GPGSV,3,3,12,29,42,291,16,26,80,041,,05,43,024,,21,05,313,*70
$GPRMC,170527.000,A,2233.2177,N,11413.7924,E,0.0,303.6,040191,,,A*6E
$GPGGA,170527.000,2233.2177,N,11413.7924,E,1,06,1.8,17.0,M,14.2,M,,0000*69
$GPVTG,303.6,T,,M,0.0,N,0.0,K,A*0B
$GPGLL,2233.2177,N,11413.7924,E,170527.00,A,A*62
$GPGSA,A,3,02,04,09,10,15,27,,,,,,,2.6,1.8,1.9*38
$GPRMC,170528.000,A,2233.2177,N,11413.7924,E,0.0,303.6,040191,,,A*61
$GPGGA,170528.000,2233.2177,N,11413.7924,E,1,07,1.5,17.0,M,14.2,M,,0000*6A
$GPVTG,303.6,T,,M,0.0,N,0.0,K,A*0B
$GPGLL,2233.2177,N,11413.7924,E,170528.00,A,A*6D
$GPGSA,A,3,02,04,05,09,10,15,27,,,,,,2.3,1.5,1.8*34
$GPRMC,170529.000,A,2233.2177,N,11413.7924,E,0.0,303.6,040191,,,A*60
$GPGGA,170529.000,2233.2177,N,11413.7924,E,1,07,1.5,17.0,M,14.2,M,,0000*6B
$GPVTG,303.6,T,,M,0.0,N,0.0,K,A*0B
$GPGLL,2233.2177,N,11413.7924,E,170529.00,A,A*6C
$GPGSA,A,3,02,04,05,09,10,15,27,,,,,,2.3,1.5,1.8*34
$GPRMC,170530.000,A,2233.2177,N,11413.7924,E,0.0,303.6,040191,,,A*68
$GPGGA,170530.000,2233.2177,N,11413.7924,E,1,07,1.5,17.0,M,14.2,M,,0000*63
$GPVTG,303.6,T,,M,0.0,N,0.0,K,A*0B
$GPGLL,2233.2177,N,11413.7924,E,170530.00,A,A*64
$GPGSA,A,3,02,04,05,09,10,15,27,,,,,,2.3,1.5,1.8*34
$GPRMC,170531.000,A,2233.2177,N,11413.7924,E,0.0,303.6,040191,,,A*69
$GPGGA,170531.000,2233.2177,N,11413.7924,E,1,07,1.5,17.0,M,14.2,M,,0000*62
$GPVTG,303.6,T,,M,0.0,N,0.0,K,A*0B
$GPGLL,2233.2177,N,11413.7924,E,170531.00,A,A*65
$GPGSA,A,3,02,04,05,09,10,15,27,,,,,,2.3,1.5,1.8*34
$GPGSV,3,1,12,10,15,058,26,05,43,024,16,02,43,108,15,04,08,122,19*7A
$GPGSV,3,2,12,27,19,167,33,18,06,270,18,08,14,062,23,15,69,226,16*77
$GPGSV,3,3,12,09,09,180,29,29,42,291,18,26,80,041,,21,05,313,*78
$GPRMC,170532.000,A,2233.2177,N,11413.7924,E,0.0,303.6,040191,,,A*6A
$GPGGA,170532.000,2233.2177,N,11413.7924,E,1,07,1.5,17.0,M,14.2,M,,0000*61
$GPVTG,303.6,T,,M,0.0,N,0.0,K,A*0B
$GPGLL,2233.2177,N,11413.7924,E,170532.00,A,A*66
$GPGSA,A,3,02,04,05,09,10,15,27,,,,,,2.3,1.5,1.8*34
$GPRMC,170533.000,A,2233.2177,N,11413.7924,E,0.0,303.6,040191,,,A*6B
$GPGGA,170533.000,2233.2177,N,11413.7924,E,1,07,1.5,17.0,M,14.2,M,,0000*60
$GPVTG,303.6,T,,M,0.0,N,0.0,K,A*0B
$GPGLL,2233.2177,N,11413.7924,E,170533.00,A,A*67
$GPGSA,A,3,02,04,05,09,10,15,27,,,,,,2.3,1.5,1.8*34
$GPRMC,170534.000,A,2233.2177,N,11413.7924,E,0.0,303.6,040191,,,A*6C
$GPGGA,170534.000,2233.2177,N,11413.7924,E,1,07,1.5,17.0,M,14.2,M,,0000*67
$GPVTG,303.6,T,,M,0.0,N,0.0,K,A*0B
$GPGLL,2233.2177,N,11413.7924,E,170534.00,A,A*60
$GPGSA,A,3,02,04,05,09,10,15,27,,,,,,2.3,1.5,1.8*34
$GPRMC,170535.000,A,2233.2177,N,11413.7924,E,0.0,303.6,040191,,,A*6D
$GPGGA,170535.000,2233.2177,N,11413.7924,E,1,07,1.5,17.0,M,14.2,M,,0000*66
$GPVTG,303.6,T,,M,0.0,N,0.0,K,A*0B
$GPGLL,2233.2177,N,11413.7924,E,170535.00,A,A*61
$GPGSA,A,3,02,04,05,09,10,15,27,,,,,,2.3,1.5,1.8*34
$GPRMC,170536.000,A,2233.2177,N,11413.7924,E,0.0,303.6,040191,,,A*6E
$GPGGA,170536.000,2233.2177,N,11413.7924,E,1,07,1.5,17.0,M,14.2,M,,0000*65
$GPVTG,303.6,T,,M,0.0,N,0.0,K,A*0B
$GPGLL,2233.2177,N,11413.7924,E,170536.00,A,A*62
$GPGSA,A,3,02,04,05,09,10,15,27,,,,,,2.3,1.5,1.8*34
$GPGSV,3,1,12,10,15,058,26,05,43,024,18,02,43,108,15,04,08,122,20*7E
$GPGSV,3,2,12,27,19,167,34,18,06,270,20,08,14,062,23,15,69,226,13*7E
$GPGSV,3,3,12,09,09,180,30,29,42,291,21,26,80,041,,21,05,313,*7A
$GPRMC,170537.000,A,2233.2177,N,11413.7924,E,0.0,303.6,040191,,,A*6F
$GPGGA,170537.000,2233.2177,N,11413.7924,E,1,07,1.5,17.0,M,14.2,M,,0000*64
$GPVTG,303.6,T,,M,0.0,N,0.0,K,A*0B
$GPGLL,2233.2177,N,11413.7924,E,170537.00,A,A*63
$GPGSA,A,3,02,04,05,09,10,15,27,,,,,,2.3,1.5,1.8*34
$GPRMC,170538.000,A,2233.2177,N,11413.7924,E,0.0,303.6,040191,,,A*60
$GPGGA,170538.000,2233.2177,N,11413.7924,E,1,07,1.5,17.0,M,14.2,M,,0000*6B
$GPVTG,303.6,T,,M,0.0,N,0.0,K,A*0B
$GPGLL,2233.2177,N,11413.7924,E,170538.00,A,A*6C
$GPGSA,A,3,02,04,05,09,10,15,27,,,,,,2.3,1.5,1.8*34
$GPRMC,170539.000,A,2233.2177,N,11413.7924,E,0.0,303.6,040191,,,A*61
$GPGGA,170539.000,2233.2177,N,11413.7924,E,1,07,1.5,17.0,M,14.2,M,,0000*6A
$GPVTG,303.6,T,,M,0.0,N,0.0,K,A*0B
$GPGLL,2233.2177,N,11413.7924,E,170539.00,A,A*6D
$GPGSA,A,3,02,04,05,09,10,15,27,,,,,,2.3,1.5,1.8*34
$GPRMC,170540.000,A,2233.2177,N,11413.7924,E,0.0,303.6,040191,,,A*6F
$GPGGA,170540.000,2233.2177,N,11413.7924,E,1,07,1.5,17.0,M,14.2,M,,0000*64
$GPVTG,303.6,T,,M,0.0,N,0.0,K,A*0B
$GPGLL,2233.2177,N,11413.7924,E,170540.00,A,A*63
$GPGSA,A,3,02,04,05,09,10,15,27,,,,,,2.3,1.5,1.8*34
$GPRMC,170541.000,A,2233.2177,N,11413.7924,E,0.0,303.6,040191,,,A*6E
$GPGGA,170541.000,2233.2177,N,11413.7924,E,1,07,1.5,17.0,M,14.2,M,,0000*65
$GPVTG,303.6,T,,M,0.0,N,0.0,K,A*0B
$GPGLL,2233.2177,N,11413.7924,E,170541.00,A,A*62
$GPGSA,A,3,02,04,05,09,10,15,27,,,,,,2.3,1.5,1.8*34
$GPGSV,3,1,12,10,15,058,24,05,43,024,17,02,43,108,14,04,08,122,20*72
$GPGSV,3,2,12,27,19,167,32,18,06,270,17,15,69,226,15,09,09,180,30*78
$GPGSV,3,3,12,29,42,290,17,26,80,040,,08,14,062,,21,05,313,*7C
$GPRMC,170542.000,A,2233.2177,N,11413.7924,E,0.0,303.6,040191,,,A*6D
$GPGGA,170542.000,2233.2177,N,11413.7924,E,1,07,1.5,17.0,M,14.2,M,,0000*66
$GPVTG,303.6,T,,M,0.0,N,0.0,K,A*0B
$GPGLL,2233.2177,N,11413.7924,E,170542.00,A,A*61
$GPGSA,A,3,02,04,05,09,10,15,27,,,,,,2.3,1.5,1.8*34
$GPRMC,170543.000,A,2233.2177,N,11413.7924,E,0.0,303.6,040191,,,A*6C
$GPGGA,170543.000,2233.2177,N,11413.7924,E,1,07,1.5,17.0,M,14.2,M,,0000*67
$GPVTG,303.6,T,,M,0.0,N,0.0,K,A*0B
$GPGLL,2233.2177,N,11413.7924,E,170543.00,A,A*60
$GPGSA,A,3,02,04,05,09,10,15,27,,,,,,2.3,1.5,1.8*34
$GPRMC,170544.000,A,2233.2177,N,11413.7924,E,0.0,303.6,040191,,,A*6B
$GPGGA,170544.000,2233.2177,N,11413.7924,E,1,07,1.5,17.0,M,14.2,M,,0000*60
$GPVTG,303.6,T,,M,0.0,N,0.0,K,A*0B
$GPGLL,2233.2177,N,11413.7924,E,170544.00,A,A*67
$GPGSA,A,3,02,04,05,09,10,15,27,,,,,,2.3,1.5,1.8*34
$GPRMC,170545.000,A,2233.2177,N,11413.7924,E,0.0,303.6,040191,,,A*6A
$GPGGA,170545.000,2233.2177,N,11413.7924,E,1,07,1.5,17.0,M,14.2,M,,0000*61
$GPVTG,303.6,T,,M,0.0,N,0.0,K,A*0B
$GPGLL,2233.2177,N,11413.7924,E,170545.00,A,A*66
$GPGSA,A,3,02,04,05,09,10,15,27,,,,,,2.3,1.5,1.8*34
$GPRMC,170546.000,A,2233.2177,N,11413.7924,E,0.0,303.6,040191,,,A*69
$GPGGA,170546.000,2233.2177,N,11413.7924,E,1,07,1.5,17.0,M,14.2,M,,0000*62
$GPVTG,303.6,T,,M,0.0,N,0.0,K,A*0B
$GPGLL,2233.2177,N,11413.7924,E,170546.00,A,A*65
$GPGSA,A,3,02,04,05,09,10,15,27,,,,,,2.3,1.5,1.8*34
$GPGSV,3,1,12,10,15,058,25,05,43,024,17,02,43,108,13,04,08,122,18*7F
$GPGSV,3,2,12,27,19,167,32,18,06,270,17,15,69,226,18,09,09,180,29*7D
$GPGSV,3,3,12,29,42,290,19,26,80,040,,08,14,062,,21,05,313,*72
$GPRMC,170547.000,A,2233.2177,N,11413.7924,E,0.0,303.6,040191,,,A*68
$GPGGA,170547.000,2233.2177,N,11413.7924,E,1,07,1.5,17.0,M,14.2,M,,0000*63
$GPVTG,303.6,T,,M,0.0,N,0.0,K,A*0B
$GPGLL,2233.2177,N,11413.7924,E,170547.00,A,A*64
$GPGSA,A,3,02,04,05,09,10,15,27,,,,,,2.3,1.5,1.8*34
$GPRMC,170548.000,A,2233.2177,N,11413.7924,E,0.0,303.6,040191,,,A*67
$GPGGA,170548.000,2233.2177,N,11413.7924,E,1,07,1.5,17.0,M,14.2,M,,0000*6C
$GPVTG,303.6,T,,M,0.0,N,0.0,K,A*0B
$GPGLL,2233.2177,N,11413.7924,E,170548.00,A,A*6B
$GPGSA,A,3,02,04,05,09,10,15,27,,,,,,2.3,1.5,1.8*34
$GPRMC,170549.000,A,2233.2177,N,11413.7924,E,0.0,303.6,040191,,,A*66
$GPGGA,170549.000,2233.2177,N,11413.7924,E,1,07,1.5,17.0,M,14.2,M,,0000*6D
$GPVTG,303.6,T,,M,0.0,N,0.0,K,A*0B
$GPGLL,2233.2177,N,11413.7924,E,170549.00,A,A*6A
$GPGSA,A,3,02,04,05,09,10,15,27,,,,,,2.4,1.5,1.9*32
$GPRMC,170550.000,A,2233.2177,N,11413.7924,E,0.0,303.6,040191,,,A*6E
$GPGGA,170550.000,2233.2177,N,11413.7924,E,1,07,1.5,17.0,M,14.2,M,,0000*65
$GPVTG,303.6,T,,M,0.0,N,0.0,K,A*0B
$GPGLL,2233.2177,N,11413.7924,E,170550.00,A,A*62
$GPGSA,A,3,02,04,05,09,10,15,27,,,,,,2.4,1.5,1.9*32
$GPRMC,170551.000,A,2233.2177,N,11413.7924,E,0.0,303.6,040191,,,A*6F
$GPGGA,170551.000,2233.2177,N,11413.7924,E,1,07,1.5,17.0,M,14.2,M,,0000*64
$GPVTG,303.6,T,,M,0.0,N,0.0,K,A*0B
$GPGLL,2233.2177,N,11413.7924,E,170551.00,A,A*63
$GPGSA,A,3,02,04,05,09,10,15,27,,,,,,2.4,1.5,1.9*32
$GPGSV,3,1,12,10,15,058,25,05,43,024,17,02,43,108,14,04,08,122,18*78
$GPGSV,3,2,12,27,19,167,31,18,06,270,17,15,69,226,21,09,09,180,30*7C
$GPGSV,3,3,12,29,42,290,19,26,80,040,,08,14,062,,21,05,313,*72
$GPRMC,170552.000,A,2233.2177,N,11413.7924,E,0.0,303.6,040191,,,A*6C
$GPGGA,170552.000,2233.2177,N,11413.7924,E,1,07,1.5,17.0,M,14.2,M,,0000*67
$GPVTG,303.6,T,,M,0.0,N,0.0,K,A*0B
$GPGLL,2233.2177,N,11413.7924,E,170552.00,A,A*60
$GPGSA,A,3,02,04,05,09,10,15,27,,,,,,2.4,1.5,1.9*32
$GPRMC,170553.000,A,2233.2177,N,11413.7924,E,0.0,303.6,040191,,,A*6D
$GPGGA,170553.000,2233.2177,N,11413.7924,E,1,07,1.5,17.0,M,14.2,M,,0000*66
$GPVTG,303.6,T,,M,0.0,N,0.0,K,A*0B
$GPGLL,2233.2177,N,11413.7924,E,170553.00,A,A*61
$GPGSA,A,3,02,04,05,09,10,15,27,,,,,,2.4,1.5,1.9*32
$GPRMC,170554.000,A,2233.2177,N,11413.7924,E,0.0,303.6,040191,,,A*6A
$GPGGA,170554.000,2233.2177,N,11413.7924,E,1,07,1.5,17.0,M,14.2,M,,0000*61
$GPVTG,303.6,T,,M,0.0,N,0.0,K,A*0B
$GPGLL,2233.2177,N,11413.7924,E,170554.00,A,A*66
$GPGSA,A,3,02,04,05,09,10,15,27,,,,,,2.4,1.5,1.9*32
$GPRMC,170555.000,A,2233.2177,N,11413.7924,E,0.0,303.6,040191,,,A*6B
$GPGGA,170555.000,2233.2177,N,11413.7924,E,1,08,1.5,17.0,M,14.2,M,,0000*6F
$GPVTG,303.6,T,,M,0.0,N,0.0,K,A*0B
$GPGLL,2233.2177,N,11413.7924,E,170555.00,A,A*67
$GPGSA,A,3,02,04,05,09,10,15,26,27,,,,,2.3,1.5,1.7*3F
$GPRMC,170556.000,A,2233.2177,N,11413.7924,E,0.0,303.6,040191,,,A*68
$GPGGA,170556.000,2233.2177,N,11413.7924,E,1,07,1.5,17.0,M,14.2,M,,0000*63
$GPVTG,303.6,T,,M,0.0,N,0.0,K,A*0B
$GPGLL,2233.2177,N,11413.7924,E,170556.00,A,A*64
$GPGSA,A,3,02,04,05,09,10,15,27,,,,,,2.4,1.5,1.9*32
$GPGSV,3,1,12,10,15,058,24,05,43,024,17,02,42,108,19,04,08,122,19*74
$GPGSV,3,2,12,27,19,167,31,18,06,270,17,26,79,040,13,15,69,227,18*71
$GPGSV,3,3,12,09,09,180,30,29,42,290,19,08,14,062,,21,05,313,*70
$GPRMC,170557.000,A,2233.2177,N,11413.7924,E,0.0,303.6,040191,,,A*69
$GPGGA,170557.000,2233.2177,N,11413.7924,E,1,08,1.5,17.0,M,14.2,M,,0000*6D
$GPVTG,303.6,T,,M,0.0,N,0.0,K,A*0B
$GPGLL,2233.2177,N,11413.7924,E,170557.00,A,A*65
$GPGSA,A,3,02,04,05,09,10,15,26,27,,,,,2.3,1.5,1.7*3F
$GPRMC,170558.000,A,2233.2177,N,11413.7924,E,0.0,303.6,040191,,,A*66
$GPGGA,170558.000,2233.2177,N,11413.7924,E,1,08,1.5,17.0,M,14.2,M,,0000*62
$GPVTG,303.6,T,,M,0.0,N,0.0,K,A*0B
$GPGLL,2233.2177,N,11413.7924,E,170558.00,A,A*6A
$GPGSA,A,3,02,04,05,09,10,15,26,27,,,,,2.3,1.5,1.7*3F
$GPRMC,170559.000,A,2233.2177,N,11413.7924,E,0.0,303.6,040191,,,A*67
$GPGGA,170559.000,2233.2177,N,11413.7924,E,1,08,1.5,17.0,M,14.2,M,,0000*63
$GPVTG,303.6,T,,M,0.0,N,0.0,K,A*0B
$GPGLL,2233.2177,N,11413.7924,E,170559.00,A,A*6B
$GPGSA,A,3,02,04,05,09,10,15,26,27,,,,,2.3,1.5,1.7*3F
$GPRMC,170600.000,A,2233.2177,N,11413.7924,E,0.0,303.6,040191,,,A*68
$GPGGA,170600.000,2233.2177,N,11413.7924,E,1,08,1.5,17.0,M,14.2,M,,0000*6C
$GPVTG,303.6,T,,M,0.0,N,0.0,K,A*0B
$GPGLL,2233.2177,N,11413.7924,E,170600.00,A,A*64
$GPGSA,A,3,02,04,05,09,10,15,26,27,,,,,2.3,1.5,1.7*3F
$GPRMC,170601.000,A,2233.2177,N,11413.7924,E,0.0,303.6,040191,,,A*69
$GPGGA,170601.000,2233.2177,N,11413.7924,E,1,08,1.5,17.0,M,14.2,M,,0000*6D
$GPVTG,303.6,T,,M,0.0,N,0.0,K,A*0B
$GPGLL,2233.2177,N,11413.7924,E,170601.00,A,A*65
$GPGSA,A,3,02,04,05,09,10,15,26,27,,,,,2.3,1.5,1.7*3F
$GPGSV,3,1,12,10,15,058,25,05,43,024,15,02,42,108,18,04,08,122,19*76
$GPGSV,3,2,12,27,19,167,31,18,06,270,17,26,79,040,19,15,69,227,15*76
$GPGSV,3,3,12,09,09,180,30,29,42,290,19,08,14,062,,21,05,313,*70
$GPRMC,170602.000,A,2233.2177,N,11413.7924,E,0.0,303.6,040191,,,A*6A
$GPGGA,170602.000,2233.2177,N,11413.7924,E,1,08,1.5,17.0,M,14.2,M,,0000*6E
$GPVTG,303.6,T,,M,0.0,N,0.0,K,A*0B
$GPGLL,2233.2177,N,11413.7924,E,170602.00,A,A*66
$GPGSA,A,3,02,04,05,09,10,15,26,27,,,,,2.3,1.5,1.7*3F
$GPRMC,170603.000,A,2233.2177,N,11413.7924,E,0.0,303.6,040191,,,A*6B
$GPGGA,170603.000,2233.2177,N,11413.7924,E,1,08,1.5,17.0,M,14.2,M,,0000*6F
$GPVTG,303.6,T,,M,0.0,N,0.0,K,A*0B
$GPGLL,2233.2177,N,11413.7924,E,170603.00,A,A*67
$GPGSA,A,3,02,04,05,09,10,15,26,27,,,,,2.3,1.5,1.7*3F
$GPRMC,170604.000,A,2233.2177,N,11413.7924,E,0.0,303.6,040191,,,A*6C
$GPGGA,170604.000,2233.2177,N,11413.7924,E,1,08,1.5,17.0,M,14.2,M,,0000*68
$GPVTG,303.6,T,,M,0.0,N,0.0,K,A*0B
$GPGLL,2233.2177,N,11413.7924,E,170604.00,A,A*60
$GPGSA,A,3,02,04,05,09,10,15,26,27,,,,,2.3,1.5,1.7*3F
$GPRMC,170605.000,A,2233.2177,N,11413.7924,E,0.0,303.6,040191,,,A*6D
$GPGGA,170605.000,2233.2177,N,11413.7924,E,1,08,1.5,17.0,M,14.2,M,,0000*69
$GPVTG,303.6,T,,M,0.0,N,0.0,K,A*0B
$GPGLL,2233.2177,N,11413.7924,E,170605.00,A,A*61
$GPGSA,A,3,02,04,05,09,10,15,26,27,,,,,2.3,1.5,1.7*3F
$GPRMC,170606.000,A,2233.2177,N,11413.7924,E,0.0,303.6,040191,,,A*6E
$GPGGA,170606.000,2233.2177,N,11413.7924,E,1,08,1.5,17.0,M,14.2,M,,0000*6A
$GPVTG,303.6,T,,M,0.0,N,0.0,K,A*0B
$GPGLL,2233.2177,N,11413.7924,E,170606.00,A,A*62
$GPGSA,A,3,02,04,05,09,10,15,26,27,,,,,2.3,1.5,1.7*3F
$GPGSV,3,1,12,10,15,058,26,05,43,024,15,02,42,109,15,04,08,122,18*78
$GPGSV,3,2,12,27,19,167,32,18,06,270,20,26,79,040,17,15,69,227,17*7D
$GPGSV,3,3,12,09,09,180,29,29,42,290,,08,14,062,,21,05,313,*70
$GPRMC,170607.000,A,2233.2177,N,11413.7924,E,0.0,303.6,040191,,,A*6F
$GPGGA,170607.000,2233.2177,N,11413.7924,E,1,08,1.5,17.0,M,14.2,M,,0000*6B
$GPVTG,303.6,T,,M,0.0,N,0.0,K,A*0B
$GPGLL,2233.2177,N,11413.7924,E,170607.00,A,A*63
$GPGSA,A,3,02,04,05,09,10,15,26,27,,,,,2.3,1.5,1.7*3F
$GPRMC,170608.000,A,2233.2177,N,11413.7924,E,0.0,303.6,040191,,,A*60
$GPGGA,170608.000,2233.2177,N,11413.7924,E,1,08,1.5,17.0,M,14.2,M,,0000*64
$GPVTG,303.6,T,,M,0.0,N,0.0,K,A*0B
$GPGLL,2233.2177,N,11413.7924,E,170608.00,A,A*6C
$GPGSA,A,3,02,04,05,09,10,15,26,27,,,,,2.3,1.5,1.7*3F
$GPRMC,170609.000,A,2233.2177,N,11413.7924,E,0.0,303.6,040191,,,A*61
$GPGGA,170609.000,2233.2177,N,11413.7924,E,1,08,1.5,17.0,M,14.2,M,,0000*65
$GPVTG,303.6,T,,M,0.0,N,0.0,K,A*0B
$GPGLL,2233.2177,N,11413.7924,E,170609.00,A,A*6D
$GPGSA,A,3,02,04,05,09,10,15,26,27,,,,,2.3,1.5,1.7*3F
$GPRMC,170610.000,A,2233.2177,N,11413.7924,E,0.0,303.6,040191,,,A*69
$GPGGA,170610.000,2233.2177,N,11413.7924,E,1,08,1.5,17.0,M,14.2,M,,0000*6D
$GPVTG,303.6,T,,M,0.0,N,0.0,K,A*0B
$GPGLL,2233.2177,N,11413.7924,E,170610.00,A,A*65
$GPGSA,A,3,02,04,05,09,10,15,26,27,,,,,2.3,1.5,1.7*3F
$GPRMC,170611.000,A,2233.2177,N,11413.7924,E,0.0,303.6,040191,,,A*68
$GPGGA,170611.000,2233.2177,N,11413.7924,E,1,08,1.5,17.0,M,14.2,M,,0000*6C
$GPVTG,303.6,T,,M,0.0,N,0.0,K,A*0B
$GPGLL,2233.2177,N,11413.7924,E,170611.00,A,A*64
$GPGSA,A,3,02,04,05,09,10,15,26,27,,,,,2.3,1.5,1.7*3F
$GPGSV,3,1,12,10,15,058,28,05,43,024,15,02,42,109,15,04,08,122,19*77
$GPGSV,3,2,12,27,19,167,34,18,06,270,22,26,79,040,19,15,69,227,21*72
$GPGSV,3,3,12,09,09,180,30,29,42,290,,08,14,062,,21,05,313,*78
$GPRMC,170612.000,A,2233.2177,N,11413.7924,E,0.0,303.6,040191,,,A*6B
$GPGGA,170612.000,2233.2177,N,11413.7924,E,1,08,1.5,17.0,M,14.2,M,,0000*6F
$GPVTG,303.6,T,,M,0.0,N,0.0,K,A*0B
$GPGLL,2233.2177,N,11413.7924,E,170612.00,A,A*67
$GPGSA,A,3,02,04,05,09,10,15,26,27,,,,,2.3,1.5,1.7*3F
$GPRMC,170613.000,A,2233.2177,N,11413.7924,E,0.0,303.6,040191,,,A*6A
$GPGGA,170613.000,2233.2177,N,11413.7924,E,1,08,1.5,17.0,M,14.2,M,,0000*6E
$GPVTG,303.6,T,,M,0.0,N,0.0,K,A*0B
$GPGLL,2233.2177,N,11413.7924,E,170613.00,A,A*66
$GPGSA,A,3,02,04,05,09,10,15,26,27,,,,,2.3,1.5,1.7*3F
$GPRMC,170614.000,A,2233.2177,N,11413.7924,E,0.0,303.6,040191,,,A*6D
$GPGGA,170614.000,2233.2177,N,11413.7924,E,1,08,1.5,17.0,M,14.2,M,,0000*69
$GPVTG,303.6,T,,M,0.0,N,0.0,K,A*0B
$GPGLL,2233.2177,N,11413.7924,E,170614.00,A,A*61
$GPGSA,A,3,02,04,05,09,10,15,26,27,,,,,2.3,1.5,1.7*3F
$GPRMC,170615.000,A,2233.2177,N,11413.7924,E,0.0,303.6,040191,,,A*6C
$GPGGA,170615.000,2233.2177,N,11413.7924,E,1,08,1.5,17.0,M,14.2,M,,0000*68
$GPVTG,303.6,T,,M,0.0,N,0.0,K,A*0B
$GPGLL,2233.2177,N,11413.7924,E,170615.00,A,A*60
$GPGSA,A,3,02,04,05,09,10,15,26,27,,,,,2.3,1.5,1.7*3F
$GPRMC,170616.000,A,2233.2177,N,11413.7924,E,0.0,303.6,040191,,,A*6F
$GPGGA,170616.000,2233.2177,N,11413.7924,E,1,08,1.5,17.0,M,14.2,M,,0000*6B
$GPVTG,303.6,T,,M,0.0,N,0.0,K,A*0B
$GPGLL,2233.2177,N,11413.7924,E,170616.00,A,A*63
$GPGSA,A,3,02,04,05,09,10,15,26,27,,,,,2.3,1.5,1.7*3F
$GPGSV,3,1,12,10,15,058,28,05,43,024,16,02,42,109,16,04,08,122,20*7D
$GPGSV,3,2,12,27,20,167,34,18,06,270,22,26,79,040,18,15,69,227,21*79
$GPGSV,3,3,12,09,09,180,29,29,42,290,15,08,14,062,,21,05,313,*74
$GPRMC,170617.000,A,2233.2177,N,11413.7924,E,0.0,303.6,040191,,,A*6E
$GPGGA,170617.000,2233.2177,N,11413.7924,E,1,08,1.5,17.0,M,14.2,M,,0000*6A
$GPVTG,303.6,T,,M,0.0,N,0.0,K,A*0B
$GPGLL,2233.2177,N,11413.7924,E,170617.00,A,A*62
$GPGSA,A,3,02,04,05,09,10,15,26,27,,,,,2.3,1.5,1.7*3F
$GPRMC,170618.000,A,2233.2177,N,11413.7924,E,0.0,303.6,040191,,,A*61
$GPGGA,170618.000,2233.2177,N,11413.7924,E,1,08,1.5,17.0,M,14.2,M,,0000*65
$GPVTG,303.6,T,,M,0.0,N,0.0,K,A*0B
$GPGLL,2233.2177,N,11413.7924,E,170618.00,A,A*6D
$GPGSA,A,3,02,04,05,09,10,15,26,27,,,,,2.3,1.5,1.7*3F
$GPRMC,170619.000,A,2233.2177,N,11413.7924,E,0.0,303.6,040191,,,A*60
$GPGGA,170619.000,2233.2177,N,11413.7924,E,1,08,1.5,17.0,M,14.2,M,,0000*64
$GPVTG,303.6,T,,M,0.0,N,0.0,K,A*0B
$GPGLL,2233.2177,N,11413.7924,E,170619.00,A,A*6C
$GPGSA,A,3,02,04,05,09,10,15,26,27,,,,,2.3,1.5,1.7*3F
$GPRMC,170620.000,A,2233.2177,N,11413.7924,E,0.0,303.6,040191,,,A*6A
$GPGGA,170620.000,2233.2177,N,11413.7924,E,1,08,1.5,17.0,M,14.2,M,,0000*6E
$GPVTG,303.6,T,,M,0.0,N,0.0,K,A*0B
$GPGLL,2233.2177,N,11413.7924,E,170620.00,A,A*66
$GPGSA,A,3,02,04,05,09,10,15,26,27,,,,,2.3,1.5,1.7*3F
$GPRMC,170621.000,A,2233.2177,N,11413.7924,E,0.0,303.6,040191,,,A*6B
$GPGGA,170621.000,2233.2177,N,11413.7924,E,1,08,1.5,17.0,M,14.2,M,,0000*6F
$GPVTG,303.6,T,,M,0.0,N,0.0,K,A*0B
$GPGLL,2233.2177,N,11413.7924,E,170621.00,A,A*67
$GPGSA,A,3,02,04,05,09,10,15,26,27,,,,,2.3,1.5,1.7*3F
$GPGSV,3,1,12,10,15,058,27,05,43,024,20,02,42,109,21,04,08,122,21*72
$GPGSV,3,2,12,27,20,167,34,18,06,270,24,26,79,039,15,15,70,227,21*74
$GPGSV,3,3,12,09,09,180,30,29,42,290,23,08,14,062,,21,05,313,*79
$GPRMC,170622.000,A,2233.2177,N,11413.7924,E,0.0,303.6,040191,,,A*68
$GPGGA,170622.000,2233.2177,N,11413.7924,E,1,08,1.5,17.0,M,14.2,M,,0000*6C
$GPVTG,303.6,T,,M,0.0,N,0.0,K,A*0B
$GPGLL,2233.2177,N,11413.7924,E,170622.00,A,A*64
$GPGSA,A,3,02,04,05,09,10,15,26,27,,,,,2.3,1.5,1.7*3F
$GPRMC,170623.000,A,2233.2177,N,11413.7924,E,0.0,303.6,040191,,,A*69
$GPGGA,170623.000,2233.2177,N,11413.7924,E,1,08,1.5,17.0,M,14.2,M,,0000*6D
$GPVTG,303.6,T,,M,0.0,N,0.0,K,A*0B
$GPGLL,2233.2177,N,11413.7924,E,170623.00,A,A*65
$GPGSA,A,3,02,04,05,09,10,15,26,27,,,,,2.3,1.5,1.7*3F
$GPRMC,170624.000,A,2233.2177,N,11413.7924,E,0.0,303.6,040191,,,A*6E
$GPGGA,170624.000,2233.2177,N,11413.7924,E,1,08,1.5,17.0,M,14.2,M,,0000*6A
$GPVTG,303.6,T,,M,0.0,N,0.0,K,A*0B
$GPGLL,2233.2177,N,11413.7924,E,170624.00,A,A*62
$GPGSA,A,3,02,04,05,09,10,15,26,27,,,,,2.3,1.5,1.7*3F
$GPRMC,170625.000,A,2233.2177,N,11413.7924,E,0.0,303.6,040191,,,A*6F
$GPGGA,170625.000,2233.2177,N,11413.7924,E,1,08,1.5,17.0,M,14.2,M,,0000*6B
$GPVTG,303.6,T,,M,0.0,N,0.0,K,A*0B
$GPGLL,2233.2177,N,11413.7924,E,170625.00,A,A*63
$GPGSA,A,3,02,04,05,09,10,15,26,27,,,,,2.3,1.5,1.7*3F
$GPRMC,170626.000,A,2233.2177,N,11413.7924,E,0.0,303.6,040191,,,A*6C
$GPGGA,170626.000,2233.2177,N,11413.7924,E,1,08,1.5,17.0,M,14.2,M,,0000*68
$GPVTG,303.6,T,,M,0.0,N,0.0,K,A*0B
$GPGLL,2233.2177,N,11413.7924,E,170626.00,A,A*60
$GPGSA,A,3,02,04,05,09,10,15,26,27,,,,,2.3,1.5,1.7*3F
$GPGSV,3,1,12,10,15,058,27,05,43,024,22,02,42,109,20,04,08,122,22*72
$GPGSV,3,2,12,27,20,167,34,18,06,270,23,26,79,039,17,15,70,227,20*70
$GPGSV,3,3,12,09,10,180,30,29,42,290,20,08,14,062,,21,05,313,*72
$GPRMC,170627.000,A,2233.2177,N,11413.7924,E,0.0,303.6,040191,,,A*6D
$GPGGA,170627.000,2233.2177,N,11413.7924,E,1,08,1.5,17.0,M,14.2,M,,0000*69
$GPVTG,303.6,T,,M,0.0,N,0.0,K,A*0B
$GPGLL,2233.2177,N,11413.7924,E,170627.00,A,A*61
$GPGSA,A,3,02,04,05,09,10,15,26,27,,,,,2.3,1.5,1.7*3F
$GPRMC,170628.000,A,2233.2177,N,11413.7924,E,0.0,303.6,040191,,,A*62
$GPGGA,170628.000,2233.2177,N,11413.7924,E,1,07,1.5,17.0,M,14.2,M,,0000*69
$GPVTG,303.6,T,,M,0.0,N,0.0,K,A*0B
$GPGLL,2233.2177,N,11413.7924,E,170628.00,A,A*6E
$GPGSA,A,3,02,04,05,09,10,15,27,,,,,,2.4,1.5,1.9*32
$GPRMC,170629.000,A,2233.2177,N,11413.7924,E,0.0,303.6,040191,,,A*63
$GPGGA,170629.000,2233.2177,N,11413.7924,E,1,07,1.5,17.0,M,14.2,M,,0000*68
$GPVTG,303.6,T,,M,0.0,N,0.0,K,A*0B
$GPGLL,2233.2177,N,11413.7924,E,170629.00,A,A*6F
$GPGSA,A,3,02,04,05,09,10,15,27,,,,,,2.4,1.5,1.9*32
$GPRMC,170630.000,A,2233.2177,N,11413.7924,E,0.0,303.6,040191,,,A*6B
$GPGGA,170630.000,2233.2177,N,11413.7924,E,1,07,1.5,17.0,M,14.2,M,,0000*60
$GPVTG,303.6,T,,M,0.0,N,0.0,K,A*0B
$GPGLL,2233.2177,N,11413.7924,E,170630.00,A,A*67
$GPGSA,A,3,02,04,05,09,10,15,27,,,,,,2.4,1.5,1.9*32
$GPRMC,170631.000,A,2233.2177,N,11413.7924,E,0.0,303.6,040191,,,A*6A
$GPGGA,170631.000,2233.2177,N,11413.7924,E,1,07,1.5,17.0,M,14.2,M,,0000*61
$GPVTG,303.6,T,,M,0.0,N,0.0,K,A*0B
$GPGLL,2233.2177,N,11413.7924,E,170631.00,A,A*66
$GPGSA,A,3,02,04,05,09,10,15,27,,,,,,2.4,1.5,1.9*32
$GPGSV,3,1,12,10,15,059,24,05,43,024,22,02,42,109,18,04,08,122,21*78
$GPGSV,3,2,12,27,20,167,33,18,06,270,21,15,70,227,19,09,10,180,29*73
$GPGSV,3,3,12,29,42,290,18,26,79,039,,08,14,062,,21,05,313,*7B
$GPRMC,170632.000,A,2233.2177,N,11413.7924,E,0.0,303.6,040191,,,A*69
$GPGGA,170632.000,2233.2177,N,11413.7924,E,1,07,1.5,17.0,M,14.2,M,,0000*62
$GPVTG,303.6,T,,M,0.0,N,0.0,K,A*0B
$GPGLL,2233.2177,N,11413.7924,E,170632.00,A,A*65
$GPGSA,A,3,02,04,05,09,10,15,27,,,,,,2.4,1.5,1.9*32
$GPRMC,170633.000,A,2233.2177,N,11413.7924,E,0.0,303.6,040191,,,A*68
$GPGGA,170633.000,2233.2177,N,11413.7924,E,1,07,1.5,17.0,M,14.2,M,,0000*63
$GPVTG,303.6,T,,M,0.0,N,0.0,K,A*0B
$GPGLL,2233.2177,N,11413.7924,E,170633.00,A,A*64
$GPGSA,A,3,02,04,05,09,10,15,27,,,,,,2.4,1.5,1.9*32
$GPRMC,170634.000,A,2233.2177,N,11413.7924,E,0.0,303.6,040191,,,A*6F
$GPGGA,170634.000,2233.2177,N,11413.7924,E,1,07,1.5,17.0,M,14.2,M,,0000*64
$GPVTG,303.6,T,,M,0.0,N,0.0,K,A*0B
$GPGLL,2233.2177,N,11413.7924,E,170634.00,A,A*63
$GPGSA,A,3,02,04,05,09,10,15,27,,,,,,2.4,1.5,1.9*32
$GPRMC,170635.000,A,2233.2177,N,11413.7924,E,0.0,303.6,040191,,,A*6E
$GPGGA,170635.000,2233.2177,N,11413.7924,E,1,08,1.5,17.0,M,14.2,M,,0000*6A
$GPVTG,303.6,T,,M,0.0,N,0.0,K,A*0B
$GPGLL,2233.2177,N,11413.7924,E,170635.00,A,A*62
$GPGSA,A,3,02,04,05,09,10,15,26,27,,,,,2.3,1.5,1.7*3F
$GPRMC,170636.000,A,2233.2177,N,11413.7924,E,0.0,303.6,040191,,,A*6D
$GPGGA,170636.000,2233.2177,N,11413.7924,E,1,08,1.5,17.0,M,14.2,M,,0000*69
$GPVTG,303.6,T,,M,0.0,N,0.0,K,A*0B
$GPGLL,2233.2177,N,11413.7924,E,170636.00,A,A*61
$GPGSA,A,3,02,04,05,09,10,15,26,27,,,,,2.3,1.5,1.7*3F
$GPGSV,3,1,12,10,15,059,26,05,43,024,21,02,42,109,17,04,07,122,22*7A
$GPGSV,3,2,12,27,20,167,33,18,06,270,18,26,79,039,15,15,70,227,21*7C
$GPGSV,3,3,12,09,10,180,31,29,42,290,18,08,14,062,,21,05,313,*78
$GPRMC,170637.000,A,2233.2177,N,11413.7924,E,0.0,303.6,040191,,,A*6C
$GPGGA,170637.000,2233.2177,N,11413.7924,E,1,08,1.5,17.0,M,14.2,M,,0000*68
$GPVTG,303.6,T,,M,0.0,N,0.0,K,A*0B
$GPGLL,2233.2177,N,11413.7924,E,170637.00,A,A*60
$GPGSA,A,3,02,04,05,09,10,15,26,27,,,,,2.3,1.5,1.7*3F
$GPRMC,170638.000,A,2233.2177,N,11413.7924,E,0.0,303.6,040191,,,A*63
$GPGGA,170638.000,2233.2177,N,11413.7924,E,1,08,1.5,17.0,M,14.2,M,,0000*67
$GPVTG,303.6,T,,M,0.0,N,0.0,K,A*0B
$GPGLL,2233.2177,N,11413.7924,E,170638.00,A,A*6F
$GPGSA,A,3,02,04,05,09,10,15,26,27,,,,,2.3,1.5,1.7*3F
$GPRMC,170639.000,A,2233.2177,N,11413.7924,E,0.0,303.6,040191,,,A*62
$GPGGA,170639.000,2233.2177,N,11413.7924,E,1,08,1.5,17.0,M,14.2,M,,0000*66
$GPVTG,303.6,T,,M,0.0,N,0.0,K,A*0B
$GPGLL,2233.2177,N,11413.7924,E,170639.00,A,A*6E
$GPGSA,A,3,02,04,05,09,10,15,26,27,,,,,2.3,1.5,1.7*3F
$GPRMC,170640.000,A,2233.2177,N,11413.7924,E,0.0,303.6,040191,,,A*6C
$GPGGA,170640.000,2233.2177,N,11413.7924,E,1,08,1.5,17.0,M,14.2,M,,0000*68
$GPVTG,303.6,T,,M,0.0,N,0.0,K,A*0B
$GPGLL,2233.2177,N,11413.7924,E,170640.00,A,A*60
$GPGSA,A,3,02,04,05,09,10,15,26,27,,,,,2.3,1.5,1.7*3F
$GPRMC,170641.000,A,2233.2177,N,11413.7924,E,0.0,303.6,040191,,,A*6D
$GPGGA,170641.000,2233.2177,N,11413.7924,E,1,08,1.5,17.0,M,14.2,M,,0000*69
$GPVTG,303.6,T,,M,0.0,N,0.0,K,A*0B
$GPGLL,2233.2177,N,11413.7924,E,170641.00,A,A*61
$GPGSA,A,3,02,04,05,09,10,15,26,27,,,,,2.3,1.5,1.7*3F
$GPGSV,3,1,12,10,15,059,26,05,43,024,19,02,42,109,16,04,07,122,20*72
$GPGSV,3,2,12,27,20,167,33,18,06,270,17,26,79,039,17,15,70,227,19*7A
$GPGSV,3,3,12,09,10,180,29,29,42,290,18,08,14,062,,21,05,313,*71
$GPRMC,170642.000,A,2233.2177,N,11413.7924,E,0.0,303.6,040191,,,A*6E
$GPGGA,170642.000,2233.2177,N,11413.7924,E,1,07,2.2,17.0,M,14.2,M,,0000*61
$GPVTG,303.6,T,,M,0.0,N,0.0,K,A*0B
$GPGLL,2233.2177,N,11413.7924,E,170642.00,A,A*62
$GPGSA,A,3,04,05,09,10,15,26,27,,,,,,3.3,2.2,2.4*38
$GPRMC,170643.000,A,2233.2177,N,11413.7924,E,0.0,303.6,040191,,,A*6F
$GPGGA,170643.000,2233.2177,N,11413.7924,E,1,08,1.5,17.0,M,14.2,M,,0000*6B
$GPVTG,303.6,T,,M,0.0,N,0.0,K,A*0B
$GPGLL,2233.2177,N,11413.7924,E,170643.00,A,A*63
$GPGSA,A,3,02,04,05,09,10,15,26,27,,,,,2.3,1.5,1.7*3F
$GPRMC,170644.000,A,2233.2177,N,11413.7924,E,0.0,303.6,040191,,,A*68
$GPGGA,170644.000,2233.2177,N,11413.7924,E,1,08,1.5,17.0,M,14.2,M,,0000*6C
$GPVTG,303.6,T,,M,0.0,N,0.0,K,A*0B
$GPGLL,2233.2177,N,11413.7924,E,170644.00,A,A*64
$GPGSA,A,3,02,04,05,09,10,15,26,27,,,,,2.3,1.5,1.7*3F
$GPRMC,170645.000,A,2233.2177,N,11413.7924,E,0.0,303.6,040191,,,A*69
$GPGGA,170645.000,2233.2177,N,11413.7924,E,1,08,1.5,17.0,M,14.2,M,,0000*6D
$GPVTG,303.6,T,,M,0.0,N,0.0,K,A*0B
$GPGLL,2233.2177,N,11413.7924,E,170645.00,A,A*65
$GPGSA,A,3,02,04,05,09,10,15,26,27,,,,,2.3,1.5,1.7*3F
$GPRMC,170646.000,A,2233.2177,N,11413.7924,E,0.0,303.6,040191,,,A*6A
$GPGGA,170646.000,2233.2177,N,11413.7924,E,1,08,1.5,17.0,M,14.2,M,,0000*6E
$GPVTG,303.6,T,,M,0.0,N,0.0,K,A*0B
$GPGLL,2233.2177,N,11413.7924,E,170646.00,A,A*66
$GPGSA,A,3,02,04,05,09,10,15,26,27,,,,,2.3,1.5,1.7*3F
$GPGSV,3,1,12,10,15,059,26,05,43,024,16,02,42,109,14,04,07,122,20*7F
$GPGSV,3,2,12,27,20,167,33,18,06,270,17,26,79,039,18,15,70,227,21*7E
$GPGSV,3,3,12,09,10,180,29,29,42,290,18,08,14,062,,21,05,313,*71
$GPRMC,170647.000,A,2233.2177,N,11413.7924,E,0.0,303.6,040191,,,A*6B
$GPGGA,170647.000,2233.2177,N,11413.7924,E,1,08,1.5,17.0,M,14.2,M,,0000*6F
$GPVTG,303.6,T,,M,0.0,N,0.0,K,A*0B
$GPGLL,2233.2177,N,11413.7924,E,170647.00,A,A*67
$GPGSA,A,3,02,04,05,09,10,15,26,27,,,,,2.3,1.5,1.7*3F
$GPRMC,170648.000,A,2233.2177,N,11413.7924,E,0.0,303.6,040191,,,A*64
$GPGGA,170648.000,2233.2177,N,11413.7924,E,1,08,1.5,17.0,M,14.2,M,,0000*60
$GPVTG,303.6,T,,M,0.0,N,0.0,K,A*0B
$GPGLL,2233.2177,N,11413.7924,E,170648.00,A,A*68
$GPGSA,A,3,02,04,05,09,10,15,26,27,,,,,2.3,1.5,1.7*3F
$GPRMC,170649.000,A,2233.2177,N,11413.7924,E,0.0,303.6,040191,,,A*65
$GPGGA,170649.000,2233.2177,N,11413.7924,E,1,08,1.5,17.0,M,14.2,M,,0000*61
$GPVTG,303.6,T,,M,0.0,N,0.0,K,A*0B
$GPGLL,2233.2177,N,11413.7924,E,170649.00,A,A*69
$GPGSA,A,3,02,04,05,09,10,15,26,27,,,,,2.3,1.5,1.7*3F
$GPRMC,170650.000,A,2233.2177,N,11413.7924,E,0.0,303.6,040191,,,A*6D
$GPGGA,170650.000,2233.2177,N,11413.7924,E,1,08,1.5,17.0,M,14.2,M,,0000*69
$GPVTG,303.6,T,,M,0.0,N,0.0,K,A*0B
$GPGLL,2233.2177,N,11413.7924,E,170650.00,A,A*61
$GPGSA,A,3,02,04,05,09,10,15,26,27,,,,,2.3,1.5,1.7*3F
$GPRMC,170651.000,A,2233.2177,N,11413.7924,E,0.0,303.6,040191,,,A*6C
$GPGGA,170651.000,2233.2177,N,11413.7924,E,1,08,1.5,17.0,M,14.2,M,,0000*68
$GPVTG,303.6,T,,M,0.0,N,0.0,K,A*0B
$GPGLL,2233.2177,N,11413.7924,E,170651.00,A,A*60
$GPGSA,A,3,02,04,05,09,10,15,26,27,,,,,2.3,1.5,1.7*3F
$GPGSV,3,1,12,10,15,059,25,05,43,025,16,02,42,109,18,04,07,122,21*70
$GPGSV,3,2,12,27,20,167,32,18,06,270,18,26,79,039,21,15,70,227,22*79
$GPGSV,3,3,12,09,10,180,30,29,42,290,15,08,14,062,,21,05,314,*73
$GPRMC,170652.000,A,2233.2177,N,11413.7924,E,0.0,303.6,040191,,,A*6F
$GPGGA,170652.000,2233.2177,N,11413.7924,E,1,08,1.5,17.0,M,14.2,M,,0000*6B
$GPVTG,303.6,T,,M,0.0,N,0.0,K,A*0B
$GPGLL,2233.2177,N,11413.7924,E,170652.00,A,A*63
$GPGSA,A,3,02,04,05,09,10,15,26,27,,,,,2.3,1.5,1.7*3F
$GPRMC,170653.000,A,2233.2177,N,11413.7924,E,0.0,303.6,040191,,,A*6E
$GPGGA,170653.000,2233.2177,N,11413.7924,E,1,08,1.5,17.0,M,14.2,M,,0000*6A
$GPVTG,303.6,T,,M,0.0,N,0.0,K,A*0B
$GPGLL,2233.2177,N,11413.7924,E,170653.00,A,A*62
$GPGSA,A,3,02,04,05,09,10,15,26,27,,,,,2.3,1.5,1.7*3F
$GPRMC,170654.000,A,2233.2177,N,11413.7924,E,0.0,303.6,040191,,,A*69
$GPGGA,170654.000,2233.2177,N,11413.7924,E,1,08,1.5,17.0,M,14.2,M,,0000*6D
$GPVTG,303.6,T,,M,0.0,N,0.0,K,A*0B
$GPGLL,2233.2177,N,11413.7924,E,170654.00,A,A*65
$GPGSA,A,3,02,04,05,09,10,15,26,27,,,,,2.3,1.5,1.7*3F
$GPRMC,170655.000,A,2233.2177,N,11413.7924,E,0.0,303.6,040191,,,A*68
$GPGGA,170655.000,2233.2177,N,11413.7924,E,1,08,1.5,17.0,M,14.2,M,,0000*6C
$GPVTG,303.6,T,,M,0.0,N,0.0,K,A*0B
$GPGLL,2233.2177,N,11413.7924,E,170655.00,A,A*64
$GPGSA,A,3,02,04,05,09,10,15,26,27,,,,,2.3,1.5,1.7*3F
$GPRMC,170656.000,A,2233.2177,N,11413.7924,E,0.0,303.6,040191,,,A*6B
$GPGGA,170656.000,2233.2177,N,11413.7924,E,1,08,1.5,17.0,M,14.2,M,,0000*6F
$GPVTG,303.6,T,,M,0.0,N,0.0,K,A*0B
$GPGLL,2233.2177,N,11413.7924,E,170656.00,A,A*67
$GPGSA,A,3,02,04,05,09,10,15,26,27,,,,,2.3,1.5,1.7*3F
$GPGSV,3,1,12,10,15,059,25,05,43,025,14,02,42,109,20,04,07,122,20*78
$GPGSV,3,2,12,27,20,167,32,18,06,271,18,26,79,039,18,15,70,227,21*71
$GPGSV,3,3,12,09,10,180,31,29,42,290,18,08,14,062,,21,05,314,*7F
$GPRMC,170657.000,A,2233.2177,N,11413.7924,E,0.0,303.6,040191,,,A*6A
$GPGGA,170657.000,2233.2177,N,11413.7924,E,1,08,1.5,17.0,M,14.2,M,,0000*6E
$GPVTG,303.6,T,,M,0.0,N,0.0,K,A*0B
$GPGLL,2233.2177,N,11413.7924,E,170657.00,A,A*66
$GPGSA,A,3,02,04,05,09,10,15,26,27,,,,,2.3,1.5,1.7*3F
$GPRMC,170658.000,A,2233.2177,N,11413.7924,E,0.0,303.6,040191,,,A*65
$GPGGA,170658.000,2233.2177,N,11413.7924,E,1,08,1.5,17.0,M,14.2,M,,0000*61
$GPVTG,303.6,T,,M,0.0,N,0.0,K,A*0B
$GPGLL,2233.2177,N,11413.7924,E,170658.00,A,A*69
$GPGSA,A,3,02,04,05,09,10,15,26,27,,,,,2.3,1.5,1.7*3F
$GPRMC,170659.000,A,2233.2177,N,11413.7924,E,0.0,303.6,040191,,,A*64
$GPGGA,170659.000,2233.2177,N,11413.7924,E,1,08,1.5,17.0,M,14.2,M,,0000*60
$GPVTG,303.6,T,,M,0.0,N,0.0,K,A*0B
$GPGLL,2233.2177,N,11413.7924,E,170659.00,A,A*68
$GPGSA,A,3,02,04,05,09,10,15,26,27,,,,,2.3,1.5,1.7*3F
$GPRMC,170700.000,A,2233.2177,N,11413.7924,E,0.0,303.6,040191,,,A*69
$GPGGA,170700.000,2233.2177,N,11413.7924,E,1,08,1.5,17.0,M,14.2,M,,0000*6D
$GPVTG,303.6,T,,M,0.0,N,0.0,K,A*0B
$GPGLL,2233.2177,N,11413.7924,E,170700.00,A,A*65
$GPGSA,A,3,02,04,05,09,10,15,26,27,,,,,2.3,1.5,1.7*3F
$GPRMC,170701.000,A,2233.2177,N,11413.7924,E,0.0,303.6,040191,,,A*68
$GPGGA,170701.000,2233.2177,N,11413.7924,E,1,07,1.6,17.0,M,14.2,M,,0000*60
$GPVTG,303.6,T,,M,0.0,N,0.0,K,A*0B
$GPGLL,2233.2177,N,11413.7924,E,170701.00,A,A*64
$GPGSA,A,3,02,04,05,09,10,26,27,,,,,,2.3,1.6,1.7*38
$GPGSV,3,1,12,10,15,059,25,05,43,025,15,02,42,109,17,04,07,122,20*7D
$GPGSV,3,2,12,27,20,167,32,18,06,271,17,08,14,062,14,26,79,039,16*7B
$GPGSV,3,3,12,15,70,228,19,09,10,180,31,29,42,290,21,21,05,314,*7F
$GPRMC,170702.000,A,2233.2177,N,11413.7924,E,0.0,303.6,040191,,,A*6B
$GPGGA,170702.000,2233.2177,N,11413.7924,E,1,07,1.6,17.0,M,14.2,M,,0000*63
$GPVTG,303.6,T,,M,0.0,N,0.0,K,A*0B
$GPGLL,2233.2177,N,11413.7924,E,170702.00,A,A*67
$GPGSA,A,3,02,04,05,09,10,26,27,,,,,,2.3,1.6,1.7*38
$GPRMC,170703.000,A,2233.2177,N,11413.7924,E,0.0,303.6,040191,,,A*6A
$GPGGA,170703.000,2233.2177,N,11413.7924,E,1,07,1.6,17.0,M,14.2,M,,0000*62
$GPVTG,303.6,T,,M,0.0,N,0.0,K,A*0B
$GPGLL,2233.2177,N,11413.7924,E,170703.00,A,A*66
$GPGSA,A,3,02,04,05,09,10,26,27,,,,,,2.3,1.6,1.7*38
$GPRMC,170704.000,A,2233.2177,N,11413.7924,E,0.0,303.6,040191,,,A*6D
$GPGGA,170704.000,2233.2177,N,11413.7924,E,1,07,1.6,17.0,M,14.2,M,,0000*65
$GPVTG,303.6,T,,M,0.0,N,0.0,K,A*0B
$GPGLL,2233.2177,N,11413.7924,E,170704.00,A,A*61
$GPGSA,A,3,02,04,05,09,10,26,27,,,,,,2.3,1.6,1.7*38
$GPRMC,170705.000,A,2233.2177,N,11413.7924,E,0.0,303.6,040191,,,A*6C
$GPGGA,170705.000,2233.2177,N,11413.7924,E,1,07,1.6,17.0,M,14.2,M,,0000*64
$GPVTG,303.6,T,,M,0.0,N,0.0,K,A*0B
$GPGLL,2233.2177,N,11413.7924,E,170705.00,A,A*60
$GPGSA,A,3,02,04,05,09,10,26,27,,,,,,2.3,1.6,1.7*38
$GPRMC,170706.000,A,2233.2177,N,11413.7924,E,0.0,303.6,040191,,,A*6F
$GPGGA,170706.000,2233.2177,N,11413.7924,E,1,07,1.6,17.0,M,14.2,M,,0000*67
$GPVTG,303.6,T,,M,0.0,N,0.0,K,A*0B
$GPGLL,2233.2177,N,11413.7924,E,170706.00,A,A*63
$GPGSA,A,3,02,04,05,09,10,26,27,,,,,,2.3,1.6,1.7*38
$GPGSV,3,1,12,10,15,059,22,05,43,025,19,02,42,109,18,04,07,123,20*78
$GPGSV,3,2,12,27,20,167,31,18,06,271,16,08,14,062,14,26,79,038,16*78
$GPGSV,3,3,12,09,10,180,30,29,42,290,21,15,70,228,,21,05,314,*76
$GPRMC,170707.000,A,2233.2177,N,11413.7924,E,0.0,303.6,040191,,,A*6E
$GPGGA,170707.000,2233.2177,N,11413.7924,E,1,06,2.3,17.0,M,14.2,M,,0000*61
$GPVTG,303.6,T,,M,0.0,N,0.0,K,A*0B
$GPGLL,2233.2177,N,11413.7924,E,170707.00,A,A*62
$GPGSA,A,3,04,05,09,10,26,27,,,,,,,3.4,2.3,2.5*3B
$GPRMC,170708.000,A,2233.2177,N,11413.7924,E,0.0,303.6,040191,,,A*61
$GPGGA,170708.000,2233.2177,N,11413.7924,E,1,06,2.3,17.0,M,14.2,M,,0000*6E
$GPVTG,303.6,T,,M,0.0,N,0.0,K,A*0B
$GPGLL,2233.2177,N,11413.7924,E,170708.00,A,A*6D
$GPGSA,A,3,04,05,09,10,26,27,,,,,,,3.4,2.3,2.5*3B
$GPRMC,170709.000,A,2233.2177,N,11413.7924,E,0.0,303.6,040191,,,A*60
$GPGGA,170709.000,2233.2177,N,11413.7924,E,1,06,2.3,17.0,M,14.2,M,,0000*6F
$GPVTG,303.6,T,,M,0.0,N,0.0,K,A*0B
$GPGLL,2233.2177,N,11413.7924,E,170709.00,A,A*6C
$GPGSA,A,3,04,05,09,10,26,27,,,,,,,3.4,2.3,2.5*3B
$GPRMC,170710.000,A,2233.2177,N,11413.7924,E,0.0,303.6,040191,,,A*68
$GPGGA,170710.000,2233.2177,N,11413.7924,E,1,07,2.2,17.0,M,14.2,M,,0000*67
$GPVTG,303.6,T,,M,0.0,N,0.0,K,A*0B
$GPGLL,2233.2177,N,11413.7924,E,170710.00,A,A*64
$GPGSA,A,3,04,05,09,10,15,26,27,,,,,,3.3,2.2,2.4*38
$GPRMC,170711.000,A,2233.2177,N,11413.7924,E,0.0,303.6,040191,,,A*69
$GPGGA,170711.000,2233.2177,N,11413.7924,E,1,07,2.2,17.0,M,14.2,M,,0000*66
$GPVTG,303.6,T,,M,0.0,N,0.0,K,A*0B
$GPGLL,2233.2177,N,11413.7924,E,170711.00,A,A*65
$GPGSA,A,3,04,05,09,10,15,26,27,,,,,,3.3,2.2,2.4*38
$GPGSV,3,1,12,10,15,059,24,05,43,025,20,04,07,123,20,27,20,167,32*77
$GPGSV,3,2,12,18,06,271,14,08,14,062,14,26,79,038,14,15,70,228,13*74
$GPGSV,3,3,12,09,10,180,30,29,42,290,20,02,42,109,,21,05,314,*70
$GPRMC,170712.000,A,2233.2177,N,11413.7924,E,0.0,303.6,040191,,,A*6A
$GPGGA,170712.000,2233.2177,N,11413.7924,E,1,06,2.3,17.0,M,14.2,M,,0000*65
$GPVTG,303.6,T,,M,0.0,N,0.0,K,A*0B
$GPGLL,2233.2177,N,11413.7924,E,170712.00,A,A*66
$GPGSA,A,3,04,05,09,10,26,27,,,,,,,3.4,2.3,2.5*3B
$GPRMC,170713.000,A,2233.2177,N,11413.7924,E,0.0,303.6,040191,,,A*6B
$GPGGA,170713.000,2233.2177,N,11413.7924,E,1,06,2.3,17.0,M,14.2,M,,0000*64
$GPVTG,303.6,T,,M,0.0,N,0.0,K,A*0B
$GPGLL,2233.2177,N,11413.7924,E,170713.00,A,A*67
$GPGSA,A,3,04,05,09,10,26,27,,,,,,,3.4,2.3,2.5*3B
$GPRMC,170714.000,A,2233.2177,N,11413.7924,E,0.0,303.6,040191,,,A*6C
$GPGGA,170714.000,2233.2177,N,11413.7924,E,1,06,2.3,17.0,M,14.2,M,,0000*63
$GPVTG,303.6,T,,M,0.0,N,0.0,K,A*0B
$GPGLL,2233.2177,N,11413.7924,E,170714.00,A,A*60
$GPGSA,A,3,04,05,09,10,26,27,,,,,,,3.4,2.3,2.5*3B
$GPRMC,170715.000,A,2233.2177,N,11413.7924,E,0.0,303.6,040191,,,A*6D
$GPGGA,170715.000,2233.2177,N,11413.7924,E,1,06,2.3,17.0,M,14.2,M,,0000*62
$GPVTG,303.6,T,,M,0.0,N,0.0,K,A*0B
$GPGLL,2233.2177,N,11413.7924,E,170715.00,A,A*61
$GPGSA,A,3,04,05,09,10,26,27,,,,,,,3.4,2.3,2.5*3B
$GPRMC,170716.000,A,2233.2177,N,11413.7924,E,0.0,303.6,040191,,,A*6E
$GPGGA,170716.000,2233.2177,N,11413.7924,E,1,06,2.3,17.0,M,14.2,M,,0000*61
$GPVTG,303.6,T,,M,0.0,N,0.0,K,A*0B
$GPGLL,2233.2177,N,11413.7924,E,170716.00,A,A*62
$GPGSA,A,3,04,05,09,10,26,27,,,,,,,3.4,2.3,2.5*3B
$GPGSV,3,1,12,10,15,059,23,05,43,025,20,04,07,123,21,27,20,167,33*70
$GPGSV,3,2,12,18,06,271,14,08,14,062,14,26,79,038,14,09,10,180,29*77
$GPGSV,3,3,12,29,42,289,19,15,70,228,,02,42,109,,21,05,314,*7B
$GPRMC,170717.000,A,2233.2177,N,11413.7924,E,0.0,303.6,040191,,,A*6F
$GPGGA,170717.000,2233.2177,N,11413.7924,E,1,06,2.3,17.0,M,14.2,M,,0000*60
$GPVTG,303.6,T,,M,0.0,N,0.0,K,A*0B
$GPGLL,2233.2177,N,11413.7924,E,170717.00,A,A*63
$GPGSA,A,3,04,05,09,10,26,27,,,,,,,3.4,2.3,2.5*3B
$GPRMC,170718.000,A,2233.2177,N,11413.7924,E,0.0,303.6,040191,,,A*60
$GPGGA,170718.000,2233.2177,N,11413.7924,E,1,06,2.3,17.0,M,14.2,M,,0000*6F
$GPVTG,303.6,T,,M,0.0,N,0.0,K,A*0B
$GPGLL,2233.2177,N,11413.7924,E,170718.00,A,A*6C
$GPGSA,A,3,04,05,09,10,26,27,,,,,,,3.4,2.3,2.5*3B
$GPRMC,170719.000,A,2233.2177,N,11413.7924,E,0.0,303.6,040191,,,A*61
$GPGGA,170719.000,2233.2177,N,11413.7924,E,1,06,2.3,17.0,M,14.2,M,,0000*6E
$GPVTG,303.6,T,,M,0.0,N,0.0,K,A*0B
$GPGLL,2233.2177,N,11413.7924,E,170719.00,A,A*6D
$GPGSA,A,3,04,05,09,10,26,27,,,,,,,3.4,2.3,2.5*3B
$GPRMC,170720.000,A,2233.2177,N,11413.7924,E,0.0,303.6,040191,,,A*6B
$GPGGA,170720.000,2233.2177,N,11413.7924,E,1,07,2.3,17.0,M,14.2,M,,0000*65
$GPVTG,303.6,T,,M,0.0,N,0.0,K,A*0B
$GPGLL,2233.2177,N,11413.7924,E,170720.00,A,A*67
$GPGSA,A,3,04,05,09,10,15,26,27,,,,,,3.3,2.3,2.4*39
$GPRMC,170721.000,A,2233.2177,N,11413.7924,E,0.0,303.6,040191,,,A*6A
$GPGGA,170721.000,2233.2177,N,11413.7924,E,1,07,2.3,17.0,M,14.2,M,,0000*64
$GPVTG,303.6,T,,M,0.0,N,0.0,K,A*0B
$GPGLL,2233.2177,N,11413.7924,E,170721.00,A,A*66
$GPGSA,A,3,04,05,09,10,15,26,27,,,,,,3.3,2.3,2.4*39
$GPGSV,3,1,12,10,15,059,23,05,43,025,19,04,07,123,20,27,20,167,33*7B
$GPGSV,3,2,12,18,06,271,14,08,14,062,14,26,79,038,14,15,70,228,15*72
$GPGSV,3,3,12,09,10,180,28,29,42,289,21,02,42,109,,21,05,314,*70
$GPRMC,170722.000,A,2233.2177,N,11413.7924,E,0.0,303.6,040191,,,A*69
$GPGGA,170722.000,2233.2177,N,11413.7924,E,1,07,2.3,17.0,M,14.2,M,,0000*67
$GPVTG,303.6,T,,M,0.0,N,0.0,K,A*0B
$GPGLL,2233.2177,N,11413.7924,E,170722.00,A,A*65
$GPGSA,A,3,04,05,09,10,15,26,27,,,,,,3.3,2.3,2.4*39
$GPRMC,170723.000,A,2233.2177,N,11413.7924,E,0.0,303.6,040191,,,A*68
$GPGGA,170723.000,2233.2177,N,11413.7924,E,1,07,2.3,17.0,M,14.2,M,,0000*66
$GPVTG,303.6,T,,M,0.0,N,0.0,K,A*0B
$GPGLL,2233.2177,N,11413.7924,E,170723.00,A,A*64
$GPGSA,A,3,04,05,09,10,15,26,27,,,,,,3.3,2.3,2.4*39
$GPRMC,170724.000,A,2233.2177,N,11413.7924,E,0.0,303.6,040191,,,A*6F
$GPGGA,170724.000,2233.2177,N,11413.7924,E,1,07,2.3,17.0,M,14.2,M,,0000*61
$GPVTG,303.6,T,,M,0.0,N,0.0,K,A*0B
$GPGLL,2233.2177,N,11413.7924,E,170724.00,A,A*63
$GPGSA,A,3,04,05,09,10,15,26,27,,,,,,3.3,2.3,2.4*39
$GPRMC,170725.000,A,2233.2177,N,11413.7924,E,0.0,303.6,040191,,,A*6E
$GPGGA,170725.000,2233.2177,N,11413.7924,E,1,07,2.3,17.0,M,14.2,M,,0000*60
$GPVTG,303.6,T,,M,0.0,N,0.0,K,A*0B
$GPGLL,2233.2177,N,11413.7924,E,170725.00,A,A*62
$GPGSA,A,3,04,05,09,10,15,26,27,,,,,,3.3,2.3,2.4*39
$GPRMC,170726.000,A,2233.2177,N,11413.7924,E,0.0,303.6,040191,,,A*6D
$GPGGA,170726.000,2233.2177,N,11413.7924,E,1,07,2.3,17.0,M,14.2,M,,0000*63
$GPVTG,303.6,T,,M,0.0,N,0.0,K,A*0B
$GPGLL,2233.2177,N,11413.7924,E,170726.00,A,A*61
$GPGSA,A,3,04,05,09,10,15,26,27,,,,,,3.3,2.3,2.4*39
$GPGSV,3,1,12,10,15,059,24,05,43,025,20,04,07,123,18,27,20,167,33*7D
$GPGSV,3,2,12,18,06,271,14,26,79,038,18,15,70,228,14,09,10,180,30*71
$GPGSV,3,3,12,29,42,289,23,02,42,109,,08,14,061,,21,05,314,*73
$GPRMC,170727.000,A,2233.2177,N,11413.7924,E,0.0,303.6,040191,,,A*6C
$GPGGA,170727.000,2233.2177,N,11413.7924,E,1,07,2.3,17.0,M,14.2,M,,0000*62
$GPVTG,303.6,T,,M,0.0,N,0.0,K,A*0B
$GPGLL,2233.2177,N,11413.7924,E,170727.00,A,A*60
$GPGSA,A,3,04,05,09,10,15,26,27,,,,,,3.3,2.3,2.4*39
$GPRMC,170728.000,A,2233.2177,N,11413.7924,E,0.0,303.6,040191,,,A*63
$GPGGA,170728.000,2233.2177,N,11413.7924,E,1,07,2.3,17.0,M,14.2,M,,0000*6D
$GPVTG,303.6,T,,M,0.0,N,0.0,K,A*0B
$GPGLL,2233.2177,N,11413.7924,E,170728.00,A,A*6F
$GPGSA,A,3,04,05,09,10,15,26,27,,,,,,3.3,2.3,2.4*39
$GPRMC,170729.000,A,2233.2177,N,11413.7924,E,0.0,303.6,040191,,,A*62
$GPGGA,170729.000,2233.2177,N,11413.7924,E,1,07,2.3,17.0,M,14.2,M,,0000*6C
$GPVTG,303.6,T,,M,0.0,N,0.0,K,A*0B
$GPGLL,2233.2177,N,11413.7924,E,170729.00,A,A*6E
$GPGSA,A,3,04,05,09,10,15,26,27,,,,,,3.3,2.3,2.4*39
$GPRMC,170730.000,A,2233.2177,N,11413.7924,E,0.0,303.6,040191,,,A*6A
$GPGGA,170730.000,2233.2177,N,11413.7924,E,1,07,2.3,17.0,M,14.2,M,,0000*64
$GPVTG,303.6,T,,M,0.0,N,0.0,K,A*0B
$GPGLL,2233.2177,N,11413.7924,E,170730.00,A,A*66
$GPGSA,A,3,04,05,09,10,15,26,27,,,,,,3.3,2.3,2.4*39
$GPRMC,170731.000,A,2233.2177,N,11413.7924,E,0.0,303.6,040191,,,A*6B
$GPGGA,170731.000,2233.2177,N,11413.7924,E,1,07,2.3,17.0,M,14.2,M,,0000*65
$GPVTG,303.6,T,,M,0.0,N,0.0,K,A*0B
$GPGLL,2233.2177,N,11413.7924,E,170731.00,A,A*67
$GPGSA,A,3,04,05,09,10,15,26,27,,,,,,3.3,2.3,2.4*39
$GPGSV,3,1,12,10,15,059,23,05,42,025,19,04,07,123,19,27,20,167,33*70
$GPGSV,3,2,12,18,06,271,14,26,79,038,23,15,70,228,14,09,10,180,28*70
$GPGSV,3,3,12,29,42,289,23,02,42,109,,08,14,061,,21,05,314,*73
$GPRMC,170732.000,A,2233.2177,N,11413.7924,E,0.0,303.6,040191,,,A*68
$GPGGA,170732.000,2233.2177,N,11413.7924,E,1,07,2.3,17.0,M,14.2,M,,0000*66
$GPVTG,303.6,T,,M,0.0,N,0.0,K,A*0B
$GPGLL,2233.2177,N,11413.7924,E,170732.00,A,A*64
$GPGSA,A,3,04,05,09,10,15,26,27,,,,,,3.3,2.3,2.4*39
$GPRMC,170733.000,A,2233.2177,N,11413.7924,E,0.0,303.6,040191,,,A*69
$GPGGA,170733.000,2233.2177,N,11413.7924,E,1,08,1.6,17.0,M,14.2,M,,0000*6E
$GPVTG,303.6,T,,M,0.0,N,0.0,K,A*0B
$GPGLL,2233.2177,N,11413.7924,E,170733.00,A,A*65
$GPGSA,A,3,02,04,05,09,10,15,26,27,,,,,2.3,1.6,1.7*3C
$GPRMC,170734.000,A,2233.2177,N,11413.7924,E,0.0,303.6,040191,,,A*6E
$GPGGA,170734.000,2233.2177,N,11413.7924,E,1,08,1.6,17.0,M,14.2,M,,0000*69
$GPVTG,303.6,T,,M,0.0,N,0.0,K,A*0B
$GPGLL,2233.2177,N,11413.7924,E,170734.00,A,A*62
$GPGSA,A,3,02,04,05,09,10,15,26,27,,,,,2.3,1.6,1.7*3C
$GPRMC,170735.000,A,2233.2177,N,11413.7924,E,0.0,303.6,040191,,,A*6F
$GPGGA,170735.000,2233.2177,N,11413.7924,E,1,07,2.3,17.0,M,14.2,M,,0000*61
$GPVTG,303.6,T,,M,0.0,N,0.0,K,A*0B
$GPGLL,2233.2177,N,11413.7924,E,170735.00,A,A*63
$GPGSA,A,3,04,05,09,10,15,26,27,,,,,,3.3,2.3,2.4*39
$GPRMC,170736.000,A,2233.2177,N,11413.7924,E,0.0,303.6,040191,,,A*6C
$GPGGA,170736.000,2233.2177,N,11413.7924,E,1,07,2.3,17.0,M,14.2,M,,0000*62
$GPVTG,303.6,T,,M,0.0,N,0.0,K,A*0B
$GPGLL,2233.2177,N,11413.7924,E,170736.00,A,A*60
$GPGSA,A,3,04,05,09,10,15,26,27,,,,,,3.3,2.3,2.4*39
$GPGSV,3,1,12,10,15,059,24,05,42,025,18,02,42,109,13,04,07,123,17*71
$GPGSV,3,2,12,27,20,167,32,08,14,061,16,26,79,038,23,15,70,228,15*7F
$GPGSV,3,3,12,09,10,180,27,29,42,289,25,18,06,271,,21,05,314,*7C
$GPRMC,170737.000,A,2233.2177,N,11413.7924,E,0.0,303.6,040191,,,A*6D
$GPGGA,170737.000,2233.2177,N,11413.7924,E,1,07,2.3,17.0,M,14.2,M,,0000*63
$GPVTG,303.6,T,,M,0.0,N,0.0,K,A*0B
$GPGLL,2233.2177,N,11413.7924,E,170737.00,A,A*61
$GPGSA,A,3,04,05,09,10,15,26,27,,,,,,3.3,2.3,2.4*39
$GPRMC,170738.000,A,2233.2177,N,11413.7924,E,0.0,303.6,040191,,,A*62
$GPGGA,170738.000,2233.2177,N,11413.7924,E,1,07,2.3,17.0,M,14.2,M,,0000*6C
$GPVTG,303.6,T,,M,0.0,N,0.0,K,A*0B
$GPGLL,2233.2177,N,11413.7924,E,170738.00,A,A*6E
$GPGSA,A,3,04,05,09,10,15,26,27,,,,,,3.3,2.3,2.4*39
$GPRMC,170739.000,A,2233.2177,N,11413.7924,E,0.0,303.6,040191,,,A*63
$GPGGA,170739.000,2233.2177,N,11413.7924,E,1,07,2.3,17.0,M,14.2,M,,0000*6D
$GPVTG,303.6,T,,M,0.0,N,0.0,K,A*0B
$GPGLL,2233.2177,N,11413.7924,E,170739.00,A,A*6F
$GPGSA,A,3,04,05,09,10,15,26,27,,,,,,3.3,2.3,2.4*39
$GPRMC,170740.000,A,2233.2177,N,11413.7924,E,0.0,303.6,040191,,,A*6D
$GPGGA,170740.000,2233.2177,N,11413.7924,E,1,07,2.3,17.0,M,14.2,M,,0000*63
$GPVTG,303.6,T,,M,0.0,N,0.0,K,A*0B
$GPGLL,2233.2177,N,11413.7924,E,170740.00,A,A*61
$GPGSA,A,3,04,05,09,10,15,26,27,,,,,,3.3,2.3,2.4*39
$GPRMC,170741.000,A,2233.2177,N,11413.7924,E,0.0,303.6,040191,,,A*6C
$GPGGA,170741.000,2233.2177,N,11413.7924,E,1,07,2.3,17.0,M,14.2,M,,0000*62
$GPVTG,303.6,T,,M,0.0,N,0.0,K,A*0B
$GPGLL,2233.2177,N,11413.7924,E,170741.00,A,A*60
$GPGSA,A,3,04,05,09,10,15,26,27,,,,,,3.3,2.3,2.4*39
$GPGSV,3,1,12,10,15,059,24,05,42,025,16,04,07,123,16,27,20,167,34*70
$GPGSV,3,2,12,08,14,061,16,26,79,038,22,15,70,228,20,09,10,180,27*7A
$GPGSV,3,3,12,29,42,289,26,02,42,109,,18,06,271,,21,05,314,*77
$GPRMC,170742.000,A,2233.2177,N,11413.7924,E,0.0,303.6,040191,,,A*6F
$GPGGA,170742.000,2233.2177,N,11413.7924,E,1,07,2.3,17.0,M,14.2,M,,0000*61
$GPVTG,303.6,T,,M,0.0,N,0.0,K,A*0B
$GPGLL,2233.2177,N,11413.7924,E,170742.00,A,A*63
$GPGSA,A,3,04,05,09,10,15,26,27,,,,,,3.3,2.3,2.4*39
$GPRMC,170743.000,A,2233.2177,N,11413.7924,E,0.0,303.6,040191,,,A*6E
$GPGGA,170743.000,2233.2177,N,11413.7924,E,1,07,2.3,17.0,M,14.2,M,,0000*60
$GPVTG,303.6,T,,M,0.0,N,0.0,K,A*0B
$GPGLL,2233.2177,N,11413.7924,E,170743.00,A,A*62
$GPGSA,A,3,04,05,09,10,15,26,27,,,,,,3.3,2.3,2.4*39
$GPRMC,170744.000,A,2233.2177,N,11413.7924,E,0.0,303.6,040191,,,A*69
$GPGGA,170744.000,2233.2177,N,11413.7924,E,1,07,2.3,17.0,M,14.2,M,,0000*67
$GPVTG,303.6,T,,M,0.0,N,0.0,K,A*0B
$GPGLL,2233.2177,N,11413.7924,E,170744.00,A,A*65
$GPGSA,A,3,04,05,09,10,15,26,27,,,,,,3.3,2.3,2.4*39
$GPRMC,170745.000,A,2233.2177,N,11413.7924,E,0.0,303.6,040191,,,A*68
$GPGGA,170745.000,2233.2177,N,11413.7924,E,1,07,2.3,17.0,M,14.2,M,,0000*66
$GPVTG,303.6,T,,M,0.0,N,0.0,K,A*0B
$GPGLL,2233.2177,N,11413.7924,E,170745.00,A,A*64
$GPGSA,A,3,04,05,09,10,15,26,27,,,,,,3.3,2.3,2.4*39
$GPRMC,170746.000,A,2233.2177,N,11413.7924,E,0.0,303.6,040191,,,A*6B
$GPGGA,170746.000,2233.2177,N,11413.7924,E,1,08,1.6,17.0,M,14.2,M,,0000*6C
$GPVTG,303.6,T,,M,0.0,N,0.0,K,A*0B
$GPGLL,2233.2177,N,11413.7924,E,170746.00,A,A*67
$GPGSA,A,3,02,04,05,09,10,15,26,27,,,,,2.3,1.6,1.7*3C
$GPGSV,3,1,12,10,15,059,23,05,42,025,16,02,42,109,14,04,07,123,16*7E
$GPGSV,3,2,12,27,20,167,33,08,14,061,17,26,79,038,19,15,70,228,17*74
$GPGSV,3,3,12,09,10,180,28,29,42,289,27,18,06,271,,21,05,314,*71
$GPRMC,170747.000,A,2233.2177,N,11413.7924,E,0.0,303.6,040191,,,A*6A
$GPGGA,170747.000,2233.2177,N,11413.7924,E,1,08,1.6,17.0,M,14.2,M,,0000*6D
$GPVTG,303.6,T,,M,0.0,N,0.0,K,A*0B
$GPGLL,2233.2177,N,11413.7924,E,170747.00,A,A*66
$GPGSA,A,3,02,04,05,09,10,15,26,27,,,,,2.3,1.6,1.7*3C
$GPRMC,170748.000,A,2233.2177,N,11413.7924,E,0.0,303.6,040191,,,A*65
$GPGGA,170748.000,2233.2177,N,11413.7924,E,1,08,1.6,17.0,M,14.2,M,,0000*62
$GPVTG,303.6,T,,M,0.0,N,0.0,K,A*0B
$GPGLL,2233.2177,N,11413.7924,E,170748.00,A,A*69
$GPGSA,A,3,02,04,05,09,10,15,26,27,,,,,2.3,1.6,1.7*3C
$GPRMC,170749.000,A,2233.2177,N,11413.7924,E,0.0,303.6,040191,,,A*64
$GPGGA,170749.000,2233.2177,N,11413.7924,E,1,08,1.6,17.0,M,14.2,M,,0000*63
$GPVTG,303.6,T,,M,0.0,N,0.0,K,A*0B
$GPGLL,2233.2177,N,11413.7924,E,170749.00,A,A*68
$GPGSA,A,3,02,04,05,09,10,15,26,27,,,,,2.3,1.6,1.7*3C
$GPRMC,170750.000,A,2233.2177,N,11413.7924,E,0.0,303.6,040191,,,A*6C
$GPGGA,170750.000,2233.2177,N,11413.7924,E,1,08,1.6,17.0,M,14.2,M,,0000*6B
$GPVTG,303.6,T,,M,0.0,N,0.0,K,A*0B
$GPGLL,2233.2177,N,11413.7924,E,170750.00,A,A*60
$GPGSA,A,3,02,04,05,09,10,15,26,27,,,,,2.3,1.6,1.7*3C
$GPRMC,170751.000,A,2233.2177,N,11413.7924,E,0.0,303.6,040191,,,A*6D
$GPGGA,170751.000,2233.2177,N,11413.7924,E,1,08,1.6,17.0,M,14.2,M,,0000*6A
$GPVTG,303.6,T,,M,0.0,N,0.0,K,A*0B
$GPGLL,2233.2177,N,11413.7924,E,170751.00,A,A*61
$GPGSA,A,3,02,04,05,09,10,15,26,27,,,,,2.3,1.6,1.7*3C
$GPGSV,3,1,12,10,15,059,22,05,42,025,15,02,42,110,22,04,07,123,13*74
$GPGSV,3,2,12,27,20,167,34,08,14,061,19,26,79,037,16,15,70,228,17*7D
$GPGSV,3,3,12,09,10,180,28,29,42,289,27,18,06,271,,21,05,314,*71
$GPRMC,170752.000,A,2233.2177,N,11413.7924,E,0.0,303.6,040191,,,A*6E
$GPGGA,170752.000,2233.2177,N,11413.7924,E,1,08,1.6,17.0,M,14.2,M,,0000*69
$GPVTG,303.6,T,,M,0.0,N,0.0,K,A*0B
$GPGLL,2233.2177,N,11413.7924,E,170752.00,A,A*62
$GPGSA,A,3,02,04,05,09,10,15,26,27,,,,,2.3,1.6,1.7*3C
$GPRMC,170753.000,A,2233.2177,N,11413.7924,E,0.0,303.6,040191,,,A*6F
$GPGGA,170753.000,2233.2177,N,11413.7924,E,1,08,1.6,17.0,M,14.2,M,,0000*68
$GPVTG,303.6,T,,M,0.0,N,0.0,K,A*0B
$GPGLL,2233.2177,N,11413.7924,E,170753.00,A,A*63
$GPGSA,A,3,02,04,05,09,10,15,26,27,,,,,2.3,1.6,1.7*3C
$GPRMC,170754.000,A,2233.2177,N,11413.7924,E,0.0,303.6,040191,,,A*68
$GPGGA,170754.000,2233.2177,N,11413.7924,E,1,08,1.6,17.0,M,14.2,M,,0000*6F
$GPVTG,303.6,T,,M,0.0,N,0.0,K,A*0B
$GPGLL,2233.2177,N,11413.7924,E,170754.00,A,A*64
$GPGSA,A,3,02,04,05,09,10,15,26,27,,,,,2.3,1.6,1.7*3C
$GPRMC,170755.000,A,2233.2177,N,11413.7924,E,0.0,303.6,040191,,,A*69
$GPGGA,170755.000,2233.2177,N,11413.7924,E,1,07,1.7,17.0,M,14.2,M,,0000*60
$GPVTG,303.6,T,,M,0.0,N,0.0,K,A*0B
$GPGLL,2233.2177,N,11413.7924,E,170755.00,A,A*65
$GPGSA,A,3,02,05,09,10,15,26,27,,,,,,2.4,1.7,1.7*3E
$GPRMC,170756.000,A,2233.2177,N,11413.7924,E,0.0,303.6,040191,,,A*6A
$GPGGA,170756.000,2233.2177,N,11413.7924,E,1,07,1.7,17.0,M,14.2,M,,0000*63
$GPVTG,303.6,T,,M,0.0,N,0.0,K,A*0B
$GPGLL,2233.2177,N,11413.7924,E,170756.00,A,A*66
$GPGSA,A,3,02,05,09,10,15,26,27,,,,,,2.4,1.7,1.7*3E
$GPGSV,3,1,12,10,15,059,24,05,42,025,13,02,42,110,22,04,07,123,12*75
$GPGSV,3,2,12,27,20,167,34,08,14,061,17,26,78,037,19,15,70,228,15*7F
$GPGSV,3,3,12,09,10,180,27,29,42,289,22,18,06,271,,21,05,314,*7B
$GPRMC,170757.000,A,2233.2177,N,11413.7924,E,0.0,303.6,040191,,,A*6B
$GPGGA,170757.000,2233.2177,N,11413.7924,E,1,07,1.6,17.0,M,14.2,M,,0000*63
$GPVTG,303.6,T,,M,0.0,N,0.0,K,A*0B
$GPGLL,2233.2177,N,11413.7924,E,170757.00,A,A*67
$GPGSA,A,3,02,04,05,09,10,15,27,,,,,,2.5,1.6,1.9*30
$GPRMC,170758.000,A,2233.2177,N,11413.7924,E,0.0,303.6,040191,,,A*64
$GPGGA,170758.000,2233.2177,N,11413.7924,E,1,07,1.6,17.0,M,14.2,M,,0000*6C
$GPVTG,303.6,T,,M,0.0,N,0.0,K,A*0B
$GPGLL,2233.2177,N,11413.7924,E,170758.00,A,A*68
$GPGSA,A,3,02,04,05,09,10,15,27,,,,,,2.5,1.6,1.9*30
$GPRMC,170759.000,A,2233.2177,N,11413.7924,E,0.0,303.6,040191,,,A*65
$GPGGA,170759.000,2233.2177,N,11413.7924,E,1,06,1.7,17.0,M,14.2,M,,0000*6D
$GPVTG,303.6,T,,M,0.0,N,0.0,K,A*0B
$GPGLL,2233.2177,N,11413.7924,E,170759.00,A,A*69
$GPGSA,A,3,02,05,09,10,15,27,,,,,,,2.5,1.7,1.9*35
$GPRMC,170800.000,A,2233.2177,N,11413.7924,E,0.0,303.6,040191,,,A*66
$GPGGA,170800.000,2233.2177,N,11413.7924,E,1,06,1.7,17.0,M,14.2,M,,0000*6E
$GPVTG,303.6,T,,M,0.0,N,0.0,K,A*0B
$GPGLL,2233.2177,N,11413.7924,E,170800.00,A,A*6A
$GPGSA,A,3,02,05,09,10,15,27,,,,,,,2.5,1.7,1.9*35
$GPRMC,170801.000,A,2233.2177,N,11413.7924,E,0.0,303.6,040191,,,A*67
$GPGGA,170801.000,2233.2177,N,11413.7924,E,1,05,2.0,17.0,M,14.2,M,,0000*68
$GPVTG,303.6,T,,M,0.0,N,0.0,K,A*0B
$GPGLL,2233.2177,N,11413.7924,E,170801.00,A,A*6B
$GPGSA,A,3,02,09,10,15,27,,,,,,,,2.8,2.0,1.9*39
$GPGSV,3,1,12,10,15,059,25,05,42,025,11,02,42,110,21,27,20,167,33*72
$GPGSV,3,2,12,08,14,061,18,15,70,228,15,09,10,180,28,29,42,289,23*73
$GPGSV,3,3,12,26,78,037,,04,07,123,,18,06,271,,21,05,314,*7D
$GPRMC,170802.000,A,2233.2177,N,11413.7924,E,0.0,303.6,040191,,,A*64
$GPGGA,170802.000,2233.2177,N,11413.7924,E,1,05,2.0,17.0,M,14.2,M,,0000*6B
$GPVTG,303.6,T,,M,0.0,N,0.0,K,A*0B
$GPGLL,2233.2177,N,11413.7924,E,170802.00,A,A*68
$GPGSA,A,3,02,09,10,15,27,,,,,,,,2.8,2.0,1.9*39
$GPRMC,170803.000,A,2233.2177,N,11413.7924,E,0.0,303.6,040191,,,A*65
$GPGGA,170803.000,2233.2177,N,11413.7924,E,1,05,2.0,17.0,M,14.2,M,,0000*6A
$GPVTG,303.6,T,,M,0.0,N,0.0,K,A*0B
$GPGLL,2233.2177,N,11413.7924,E,170803.00,A,A*69
$GPGSA,A,3,02,09,10,15,27,,,,,,,,2.8,2.0,1.9*39
$GPRMC,170804.000,A,2233.2177,N,11413.7924,E,0.0,303.6,040191,,,A*62
$GPGGA,170804.000,2233.2177,N,11413.7924,E,1,06,2.0,17.0,M,14.2,M,,0000*6E
$GPVTG,303.6,T,,M,0.0,N,0.0,K,A*0B
$GPGLL,2233.2177,N,11413.7924,E,170804.00,A,A*6E
$GPGSA,A,3,02,09,10,15,26,27,,,,,,,2.7,2.0,1.8*33
$GPRMC,170805.000,A,2233.2177,N,11413.7924,E,0.0,303.6,040191,,,A*63
$GPGGA,170805.000,2233.2177,N,11413.7924,E,1,06,2.0,17.0,M,14.2,M,,0000*6F
$GPVTG,303.6,T,,M,0.0,N,0.0,K,A*0B
$GPGLL,2233.2177,N,11413.7924,E,170805.00,A,A*6F
$GPGSA,A,3,02,09,10,15,26,27,,,,,,,2.7,2.0,1.8*33
$GPRMC,170806.000,A,2233.2177,N,11413.7924,E,0.0,303.6,040191,,,A*60
$GPGGA,170806.000,2233.2177,N,11413.7924,E,1,06,2.0,17.0,M,14.2,M,,0000*6C
$GPVTG,303.6,T,,M,0.0,N,0.0,K,A*0B
$GPGLL,2233.2177,N,11413.7924,E,170806.00,A,A*6C
$GPGSA,A,3,02,09,10,15,26,27,,,,,,,2.7,2.0,1.8*33
$GPGSV,3,1,12,10,15,059,24,02,42,110,17,27,20,167,33,08,14,061,18*71
$GPGSV,3,2,12,26,78,037,15,15,70,229,22,09,10,180,29,05,42,025,*74
$GPGSV,3,3,12,29,42,289,,04,07,123,,18,06,271,,21,06,314,*7F
$GPRMC,170807.000,A,2233.2177,N,11413.7924,E,0.0,303.6,040191,,,A*61
$GPGGA,170807.000,2233.2177,N,11413.7924,E,1,06,2.0,17.0,M,14.2,M,,0000*6D
$GPVTG,303.6,T,,M,0.0,N,0.0,K,A*0B
$GPGLL,2233.2177,N,11413.7924,E,170807.00,A,A*6D
$GPGSA,A,3,02,09,10,15,26,27,,,,,,,2.7,2.0,1.8*33
$GPRMC,170808.000,A,2233.2177,N,11413.7924,E,0.0,303.6,040191,,,A*6E
$GPGGA,170808.000,2233.2177,N,11413.7924,E,1,06,2.0,17.0,M,14.2,M,,0000*62
$GPVTG,303.6,T,,M,0.0,N,0.0,K,A*0B
$GPGLL,2233.2177,N,11413.7924,E,170808.00,A,A*62
$GPGSA,A,3,02,09,10,15,26,27,,,,,,,2.7,2.0,1.8*33
$GPRMC,170809.000,A,2233.2177,N,11413.7924,E,0.0,303.6,040191,,,A*6F
$GPGGA,170809.000,2233.2177,N,11413.7924,E,1,06,2.0,17.0,M,14.2,M,,0000*63
$GPVTG,303.6,T,,M,0.0,N,0.0,K,A*0B
$GPGLL,2233.2177,N,11413.7924,E,170809.00,A,A*63
$GPGSA,A,3,02,09,10,15,26,27,,,,,,,2.7,2.0,1.8*33
$GPRMC,170810.000,A,2233.2177,N,11413.7924,E,0.0,303.6,040191,,,A*67
$GPGGA,170810.000,2233.2177,N,11413.7924,E,1,06,2.0,17.0,M,14.2,M,,0000*6B
$GPVTG,303.6,T,,M,0.0,N,0.0,K,A*0B
$GPGLL,2233.2177,N,11413.7924,E,170810.00,A,A*6B
$GPGSA,A,3,02,09,10,15,26,27,,,,,,,2.7,2.0,1.8*33
$GPRMC,170811.000,A,2233.2177,N,11413.7924,E,0.0,303.6,040191,,,A*66
$GPGGA,170811.000,2233.2177,N,11413.7924,E,1,06,2.0,17.0,M,14.2,M,,0000*6A
$GPVTG,303.6,T,,M,0.0,N,0.0,K,A*0B
$GPGLL,2233.2177,N,11413.7924,E,170811.00,A,A*6A
$GPGSA,A,3,02,09,10,15,26,27,,,,,,,2.7,2.0,1.8*33
$GPGSV,3,1,12,10,15,059,25,02,42,110,19,27,20,167,32,18,06,271,17*71
$GPGSV,3,2,12,08,14,061,17,26,78,037,15,15,70,229,23,09,10,180,30*75
$GPGSV,3,3,12,29,42,289,17,05,42,025,,04,07,123,,21,06,314,*76
$GPRMC,170812.000,A,2233.2177,N,11413.7924,E,0.0,303.6,040191,,,A*65
$GPGGA,170812.000,2233.2177,N,11413.7924,E,1,06,2.0,17.0,M,14.2,M,,0000*69
$GPVTG,303.6,T,,M,0.0,N,0.0,K,A*0B
$GPGLL,2233.2177,N,11413.7924,E,170812.00,A,A*69
$GPGSA,A,3,02,09,10,15,26,27,,,,,,,2.7,2.0,1.8*33
$GPRMC,170813.000,A,2233.2177,N,11413.7924,E,0.0,303.6,040191,,,A*64
$GPGGA,170813.000,2233.2177,N,11413.7924,E,1,05,4.2,17.0,M,14.2,M,,0000*6F
$GPVTG,303.6,T,,M,0.0,N,0.0,K,A*0B
$GPGLL,2233.2177,N,11413.7924,E,170813.00,A,A*68
$GPGSA,A,3,09,10,15,26,27,,,,,,,,5.4,4.2,3.4*3F
$GPRMC,170814.000,A,2233.2177,N,11413.7924,E,0.0,303.6,040191,,,A*63
$GPGGA,170814.000,2233.2177,N,11413.7924,E,1,05,4.2,17.0,M,14.2,M,,0000*68
$GPVTG,303.6,T,,M,0.0,N,0.0,K,A*0B
$GPGLL,2233.2177,N,11413.7924,E,170814.00,A,A*6F
$GPGSA,A,3,09,10,15,26,27,,,,,,,,5.4,4.2,3.4*3F
$GPRMC,170815.000,A,2233.2177,N,11413.7924,E,0.0,303.6,040191,,,A*62
$GPGGA,170815.000,2233.2177,N,11413.7924,E,1,05,4.2,17.0,M,14.2,M,,0000*69
$GPVTG,303.6,T,,M,0.0,N,0.0,K,A*0B
$GPGLL,2233.2177,N,11413.7924,E,170815.00,A,A*6E
$GPGSA,A,3,09,10,15,26,27,,,,,,,,5.4,4.2,3.4*3F
$GPRMC,170816.000,A,2233.2177,N,11413.7924,E,0.0,303.6,040191,,,A*61
$GPGGA,170816.000,2233.2177,N,11413.7924,E,1,05,4.2,17.0,M,14.2,M,,0000*6A
$GPVTG,303.6,T,,M,0.0,N,0.0,K,A*0B
$GPGLL,2233.2177,N,11413.7924,E,170816.00,A,A*6D
$GPGSA,A,3,09,10,15,26,27,,,,,,,,5.4,4.2,3.4*3F
$GPGSV,3,1,12,10,15,059,25,27,20,167,33,18,06,271,17,08,14,061,17*70
$GPGSV,3,2,12,26,78,037,17,15,70,229,24,09,10,180,29,29,42,289,21*79
$GPGSV,3,3,12,05,42,025,,02,42,110,,04,07,123,,21,06,314,*7A
$GPRMC,170817.000,A,2233.2177,N,11413.7924,E,0.0,303.6,040191,,,A*60
$GPGGA,170817.000,2233.2177,N,11413.7924,E,1,05,4.2,17.0,M,14.2,M,,0000*6B
$GPVTG,303.6,T,,M,0.0,N,0.0,K,A*0B
$GPGLL,2233.2177,N,11413.7924,E,170817.00,A,A*6C
$GPGSA,A,3,09,10,15,26,27,,,,,,,,5.4,4.2,3.4*3F
$GPRMC,170818.000,A,2233.2177,N,11413.7924,E,0.0,303.6,040191,,,A*6F
$GPGGA,170818.000,2233.2177,N,11413.7924,E,1,05,4.2,17.0,M,14.2,M,,0000*64
$GPVTG,303.6,T,,M,0.0,N,0.0,K,A*0B
$GPGLL,2233.2177,N,11413.7924,E,170818.00,A,A*63
$GPGSA,A,3,09,10,15,26,27,,,,,,,,5.4,4.2,3.4*3F
$GPRMC,170819.000,A,2233.2177,N,11413.7924,E,0.0,303.6,040191,,,A*6E
$GPGGA,170819.000,2233.2177,N,11413.7924,E,1,05,4.2,17.0,M,14.2,M,,0000*65
$GPVTG,303.6,T,,M,0.0,N,0.0,K,A*0B
$GPGLL,2233.2177,N,11413.7924,E,170819.00,A,A*62
$GPGSA,A,3,09,10,15,26,27,,,,,,,,5.4,4.2,3.4*3F
$GPRMC,170820.000,A,2233.2177,N,11413.7924,E,0.0,303.6,040191,,,A*64
$GPGGA,170820.000,2233.2177,N,11413.7924,E,1,05,4.2,17.0,M,14.2,M,,0000*6F
$GPVTG,303.6,T,,M,0.0,N,0.0,K,A*0B
$GPGLL,2233.2177,N,11413.7924,E,170820.00,A,A*68
$GPGSA,A,3,09,10,15,26,27,,,,,,,,5.4,4.2,3.4*3F
$GPRMC,170821.000,A,2233.2177,N,11413.7924,E,0.0,303.6,040191,,,A*65
$GPGGA,170821.000,2233.2177,N,11413.7924,E,1,05,4.2,17.0,M,14.2,M,,0000*6E
$GPVTG,303.6,T,,M,0.0,N,0.0,K,A*0B
$GPGLL,2233.2177,N,11413.7924,E,170821.00,A,A*69
$GPGSA,A,3,09,10,15,26,27,,,,,,,,5.4,4.2,3.4*3F
$GPGSV,3,1,12,10,15,059,26,27,20,167,33,18,06,271,17,26,78,037,18*79
$GPGSV,3,2,12,15,70,229,23,09,10,180,28,29,42,289,22,05,42,025,*71
$GPGSV,3,3,12,02,42,110,,08,14,061,,04,07,123,,21,06,314,*74
$GPRMC,170822.000,A,2233.2177,N,11413.7924,E,0.0,303.6,040191,,,A*66
$GPGGA,170822.000,2233.2177,N,11413.7924,E,1,05,4.2,17.0,M,14.2,M,,0000*6D
$GPVTG,303.6,T,,M,0.0,N,0.0,K,A*0B
$GPGLL,2233.2177,N,11413.7924,E,170822.00,A,A*6A
$GPGSA,A,3,09,10,15,26,27,,,,,,,,5.4,4.2,3.4*3F
$GPRMC,170823.000,A,2233.2177,N,11413.7924,E,0.0,303.6,040191,,,A*67
$GPGGA,170823.000,2233.2177,N,11413.7924,E,1,05,4.2,17.0,M,14.2,M,,0000*6C
$GPVTG,303.6,T,,M,0.0,N,0.0,K,A*0B
$GPGLL,2233.2177,N,11413.7924,E,170823.00,A,A*6B
$GPGSA,A,3,09,10,15,26,27,,,,,,,,5.4,4.2,3.4*3F
$GPRMC,170824.000,A,2233.2177,N,11413.7924,E,0.0,303.6,040191,,,A*60
$GPGGA,170824.000,2233.2177,N,11413.7924,E,1,05,4.2,17.0,M,14.2,M,,0000*6B
$GPVTG,303.6,T,,M,0.0,N,0.0,K,A*0B
$GPGLL,2233.2177,N,11413.7924,E,170824.00,A,A*6C
$GPGSA,A,3,09,10,15,26,27,,,,,,,,5.4,4.2,3.4*3F
$GPRMC,170825.000,A,2233.2177,N,11413.7924,E,0.0,303.6,040191,,,A*61
$GPGGA,170825.000,2233.2177,N,11413.7924,E,1,06,2.0,17.0,M,14.2,M,,0000*6D
$GPVTG,303.6,T,,M,0.0,N,0.0,K,A*0B
$GPGLL,2233.2177,N,11413.7924,E,170825.00,A,A*6D
$GPGSA,A,3,02,09,10,15,26,27,,,,,,,2.7,2.0,1.8*33
$GPRMC,170826.000,A,2233.2177,N,11413.7924,E,0.0,303.6,040191,,,A*62
$GPGGA,170826.000,2233.2177,N,11413.7924,E,1,06,2.0,17.0,M,14.2,M,,0000*6E
$GPVTG,303.6,T,,M,0.0,N,0.0,K,A*0B
$GPGLL,2233.2177,N,11413.7924,E,170826.00,A,A*6E
$GPGSA,A,3,02,09,10,15,26,27,,,,,,,2.7,2.0,1.8*33
$GPGSV,3,1,12,10,15,059,24,05,42,025,13,02,42,110,12,27,20,167,32*70
$GPGSV,3,2,12,18,06,271,17,08,14,061,20,26,78,037,15,15,70,229,23*7E
$GPGSV,3,3,12,09,10,180,27,29,42,289,21,04,07,123,,21,06,314,*73
$GPRMC,170827.000,A,2233.2177,N,11413.7924,E,0.0,303.6,040191,,,A*63
$GPGGA,170827.000,2233.2177,N,11413.7924,E,1,07,1.7,17.0,M,14.2,M,,0000*6A
$GPVTG,303.6,T,,M,0.0,N,0.0,K,A*0B
$GPGLL,2233.2177,N,11413.7924,E,170827.00,A,A*6F
$GPGSA,A,3,02,05,09,10,15,26,27,,,,,,2.4,1.7,1.7*3E
$GPRMC,170828.000,A,2233.2177,N,11413.7924,E,0.0,303.6,040191,,,A*6C
$GPGGA,170828.000,2233.2177,N,11413.7924,E,1,07,1.7,17.0,M,14.2,M,,0000*65
$GPVTG,303.6,T,,M,0.0,N,0.0,K,A*0B
$GPGLL,2233.2177,N,11413.7924,E,170828.00,A,A*60
$GPGSA,A,3,02,05,09,10,15,26,27,,,,,,2.4,1.7,1.7*3E
$GPRMC,170829.000,A,2233.2177,N,11413.7924,E,0.0,303.6,040191,,,A*6D
$GPGGA,170829.000,2233.2177,N,11413.7924,E,1,07,1.7,17.0,M,14.2,M,,0000*64
$GPVTG,303.6,T,,M,0.0,N,0.0,K,A*0B
$GPGLL,2233.2177,N,11413.7924,E,170829.00,A,A*61
$GPGSA,A,3,02,05,09,10,15,26,27,,,,,,2.4,1.7,1.7*3E
$GPRMC,170830.000,A,2233.2177,N,11413.7924,E,0.0,303.6,040191,,,A*65
$GPGGA,170830.000,2233.2177,N,11413.7924,E,1,07,1.7,17.0,M,14.2,M,,0000*6C
$GPVTG,303.6,T,,M,0.0,N,0.0,K,A*0B
$GPGLL,2233.2177,N,11413.7924,E,170830.00,A,A*69
$GPGSA,A,3,02,05,09,10,15,26,27,,,,,,2.4,1.7,1.7*3E
$GPRMC,170831.000,A,2233.2177,N,11413.7924,E,0.0,303.6,040191,,,A*64
$GPGGA,170831.000,2233.2177,N,11413.7924,E,1,07,1.7,17.0,M,14.2,M,,0000*6D
$GPVTG,303.6,T,,M,0.0,N,0.0,K,A*0B
$GPGLL,2233.2177,N,11413.7924,E,170831.00,A,A*68
$GPGSA,A,3,02,05,09,10,15,26,27,,,,,,2.4,1.7,1.7*3E
$GPGSV,3,1,12,10,15,059,23,05,42,025,15,02,42,110,11,27,20,167,32*72
$GPGSV,3,2,12,18,06,271,17,08,14,061,20,26,78,037,16,15,70,229,21*7F
$GPGSV,3,3,12,09,10,180,28,29,42,289,19,04,07,123,,21,06,314,*77
$GPRMC,170832.000,A,2233.2177,N,11413.7924,E,0.0,303.6,040191,,,A*67
$GPGGA,170832.000,2233.2177,N,11413.7924,E,1,07,1.7,17.0,M,14.2,M,,0000*6E
$GPVTG,303.6,T,,M,0.0,N,0.0,K,A*0B
$GPGLL,2233.2177,N,11413.7924,E,170832.00,A,A*6B
$GPGSA,A,3,02,05,09,10,15,26,27,,,,,,2.4,1.7,1.7*3E
$GPRMC,170833.000,A,2233.2177,N,11413.7924,E,0.0,303.6,040191,,,A*66
$GPGGA,170833.000,2233.2177,N,11413.7924,E,1,07,1.7,17.0,M,14.2,M,,0000*6F
$GPVTG,303.6,T,,M,0.0,N,0.0,K,A*0B
$GPGLL,2233.2177,N,11413.7924,E,170833.00,A,A*6A
$GPGSA,A,3,02,05,09,10,15,26,27,,,,,,2.4,1.7,1.7*3E
$GPRMC,170834.000,A,2233.2177,N,11413.7924,E,0.0,303.6,040191,,,A*61
$GPGGA,170834.000,2233.2177,N,11413.7924,E,1,07,1.7,17.0,M,14.2,M,,0000*68
$GPVTG,303.6,T,,M,0.0,N,0.0,K,A*0B
$GPGLL,2233.2177,N,11413.7924,E,170834.00,A,A*6D
$GPGSA,A,3,02,05,09,10,15,26,27,,,,,,2.4,1.7,1.7*3E
$GPRMC,170835.000,A,2233.2177,N,11413.7924,E,0.0,303.6,040191,,,A*60
$GPGGA,170835.000,2233.2177,N,11413.7924,E,1,07,1.7,17.0,M,14.2,M,,0000*69
$GPVTG,303.6,T,,M,0.0,N,0.0,K,A*0B
$GPGLL,2233.2177,N,11413.7924,E,170835.00,A,A*6C
$GPGSA,A,3,02,05,09,10,15,26,27,,,,,,2.4,1.7,1.7*3E
$GPRMC,170836.000,A,2233.2177,N,11413.7924,E,0.0,303.6,040191,,,A*63
$GPGGA,170836.000,2233.2177,N,11413.7924,E,1,07,1.7,17.0,M,14.2,M,,0000*6A
$GPVTG,303.6,T,,M,0.0,N,0.0,K,A*0B
$GPGLL,2233.2177,N,11413.7924,E,170836.00,A,A*6F
$GPGSA,A,3,02,05,09,10,15,26,27,,,,,,2.4,1.7,1.7*3E
$GPGSV,3,1,12,10,15,059,24,05,42,025,21,02,42,110,12,27,20,167,32*71
$GPGSV,3,2,12,18,06,271,17,08,14,061,20,26,78,037,16,15,70,229,21*7F
$GPGSV,3,3,12,09,10,180,29,29,42,289,19,04,07,123,,21,06,314,*76
$GPRMC,170837.000,A,2233.2177,N,11413.7924,E,0.0,303.6,040191,,,A*62
$GPGGA,170837.000,2233.2177,N,11413.7924,E,1,07,1.7,17.0,M,14.2,M,,0000*6B
$GPVTG,303.6,T,,M,0.0,N,0.0,K,A*0B
$GPGLL,2233.2177,N,11413.7924,E,170837.00,A,A*6E
$GPGSA,A,3,02,05,09,10,15,26,27,,,,,,2.4,1.7,1.7*3E
$GPRMC,170838.000,A,2233.2177,N,11413.7924,E,0.0,303.6,040191,,,A*6D
$GPGGA,170838.000,2233.2177,N,11413.7924,E,1,07,1.7,17.0,M,14.2,M,,0000*64
$GPVTG,303.6,T,,M,0.0,N,0.0,K,A*0B
$GPGLL,2233.2177,N,11413.7924,E,170838.00,A,A*61
$GPGSA,A,3,02,05,09,10,15,26,27,,,,,,2.4,1.7,1.7*3E
$GPRMC,170839.000,A,2233.2177,N,11413.7924,E,0.0,303.6,040191,,,A*6C
$GPGGA,170839.000,2233.2177,N,11413.7924,E,1,07,1.7,17.0,M,14.2,M,,0000*65
$GPVTG,303.6,T,,M,0.0,N,0.0,K,A*0B
$GPGLL,2233.2177,N,11413.7924,E,170839.00,A,A*60
$GPGSA,A,3,02,05,09,10,15,26,27,,,,,,2.4,1.7,1.7*3E
$GPRMC,170840.000,A,2233.2177,N,11413.7924,E,0.0,303.6,040191,,,A*62
$GPGGA,170840.000,2233.2177,N,11413.7924,E,1,07,1.7,17.0,M,14.2,M,,0000*6B
$GPVTG,303.6,T,,M,0.0,N,0.0,K,A*0B
$GPGLL,2233.2177,N,11413.7924,E,170840.00,A,A*6E
$GPGSA,A,3,02,05,09,10,15,26,27,,,,,,2.4,1.7,1.7*3E
$GPRMC,170841.000,A,2233.2177,N,11413.7924,E,0.0,303.6,040191,,,A*63
$GPGGA,170841.000,2233.2177,N,11413.7924,E,1,07,1.7,17.0,M,14.2,M,,0000*6A
$GPVTG,303.6,T,,M,0.0,N,0.0,K,A*0B
$GPGLL,2233.2177,N,11413.7924,E,170841.00,A,A*6F
$GPGSA,A,3,02,05,09,10,15,26,27,,,,,,2.4,1.7,1.7*3E
$GPGSV,3,1,12,10,15,059,25,05,42,025,21,02,42,110,14,27,20,167,32*76
$GPGSV,3,2,12,18,06,271,,08,14,061,20,26,78,036,17,15,70,229,21*79
$GPGSV,3,3,12,09,10,180,29,29,42,289,19,04,07,123,,21,06,314,*76
$GPRMC,170842.000,A,2233.2177,N,11413.7924,E,0.0,303.6,040191,,,A*60
$GPGGA,170842.000,2233.2177,N,11413.7924,E,1,07,1.7,17.0,M,14.2,M,,0000*69
$GPVTG,303.6,T,,M,0.0,N,0.0,K,A*0B
$GPGLL,2233.2177,N,11413.7924,E,170842.00,A,A*6C
$GPGSA,A,3,02,05,09,10,15,26,27,,,,,,2.4,1.7,1.7*3E
$GPRMC,170843.000,A,2233.2177,N,11413.7924,E,0.0,303.6,040191,,,A*61
$GPGGA,170843.000,2233.2177,N,11413.7924,E,1,07,1.7,17.0,M,14.2,M,,0000*68
$GPVTG,303.6,T,,M,0.0,N,0.0,K,A*0B
$GPGLL,2233.2177,N,11413.7924,E,170843.00,A,A*6D
$GPGSA,A,3,02,05,09,10,15,26,27,,,,,,2.4,1.7,1.7*3E
$GPRMC,170844.000,A,2233.2177,N,11413.7924,E,0.0,303.6,040191,,,A*66
$GPGGA,170844.000,2233.2177,N,11413.7924,E,1,07,1.7,17.0,M,14.2,M,,0000*6F
$GPVTG,303.6,T,,M,0.0,N,0.0,K,A*0B
$GPGLL,2233.2177,N,11413.7924,E,170844.00,A,A*6A
$GPGSA,A,3,02,05,09,10,15,26,27,,,,,,2.4,1.7,1.7*3E
$GPRMC,170845.000,A,2233.2177,N,11413.7924,E,0.0,303.6,040191,,,A*67
$GPGGA,170845.000,2233.2177,N,11413.7924,E,1,07,1.7,17.0,M,14.2,M,,0000*6E
$GPVTG,303.6,T,,M,0.0,N,0.0,K,A*0B
$GPGLL,2233.2177,N,11413.7924,E,170845.00,A,A*6B
$GPGSA,A,3,02,05,09,10,15,26,27,,,,,,2.4,1.7,1.7*3E
$GPRMC,170846.000,A,2233.2177,N,11413.7924,E,0.0,303.6,040191,,,A*64
$GPGGA,170846.000,2233.2177,N,11413.7924,E,1,07,1.7,17.0,M,14.2,M,,0000*6D
$GPVTG,303.6,T,,M,0.0,N,0.0,K,A*0B
$GPGLL,2233.2177,N,11413.7924,E,170846.00,A,A*68
$GPGSA,A,3,02,05,09,10,15,26,27,,,,,,2.4,1.7,1.7*3E
$GPGSV,3,1,12,10,15,059,25,05,42,026,22,02,42,110,19,27,20,167,32*7B
$GPGSV,3,2,12,18,06,271,16,08,14,061,20,26,78,036,16,15,71,229,22*7D
$GPGSV,3,3,12,09,10,180,29,29,42,289,19,04,07,123,,21,06,314,*76
$GPRMC,170847.000,A,2233.2177,N,11413.7924,E,0.0,303.6,040191,,,A*65
$GPGGA,170847.000,2233.2177,N,11413.7924,E,1,07,1.7,17.0,M,14.2,M,,0000*6C
$GPVTG,303.6,T,,M,0.0,N,0.0,K,A*0B
$GPGLL,2233.2177,N,11413.7924,E,170847.00,A,A*69
$GPGSA,A,3,02,05,09,10,15,26,27,,,,,,2.4,1.7,1.7*3E
$GPRMC,170848.000,A,2233.2177,N,11413.7924,E,0.0,303.6,040191,,,A*6A
$GPGGA,170848.000,2233.2177,N,11413.7924,E,1,07,1.7,17.0,M,14.2,M,,0000*63
$GPVTG,303.6,T,,M,0.0,N,0.0,K,A*0B
$GPGLL,2233.2177,N,11413.7924,E,170848.00,A,A*66
$GPGSA,A,3,02,05,09,10,15,26,27,,,,,,2.4,1.7,1.7*3E
$GPRMC,170849.000,A,2233.2177,N,11413.7924,E,0.0,303.6,040191,,,A*6B
$GPGGA,170849.000,2233.2177,N,11413.7924,E,1,07,1.7,17.0,M,14.2,M,,0000*62
$GPVTG,303.6,T,,M,0.0,N,0.0,K,A*0B
$GPGLL,2233.2177,N,11413.7924,E,170849.00,A,A*67
$GPGSA,A,3,02,05,09,10,15,26,27,,,,,,2.4,1.7,1.7*3E
$GPRMC,170850.000,A,2233.2177,N,11413.7924,E,0.0,303.6,040191,,,A*63
$GPGGA,170850.000,2233.2177,N,11413.7924,E,1,07,1.7,17.0,M,14.2,M,,0000*6A
$GPVTG,303.6,T,,M,0.0,N,0.0,K,A*0B
$GPGLL,2233.2177,N,11413.7924,E,170850.00,A,A*6F
$GPGSA,A,3,02,05,09,10,15,26,27,,,,,,2.4,1.7,1.7*3E
$GPRMC,170851.000,A,2233.2177,N,11413.7924,E,0.0,303.6,040191,,,A*62
$GPGGA,170851.000,2233.2177,N,11413.7924,E,1,07,1.7,17.0,M,14.2,M,,0000*6B
$GPVTG,303.6,T,,M,0.0,N,0.0,K,A*0B
$GPGLL,2233.2177,N,11413.7924,E,170851.00,A,A*6E
$GPGSA,A,3,02,05,09,10,15,26,27,,,,,,2.4,1.7,1.7*3E
$GPGSV,3,1,12,10,15,059,25,05,42,026,21,02,42,110,18,27,21,167,32*78
$GPGSV,3,2,12,18,06,271,18,26,78,036,16,15,71,229,22,09,10,180,28*70
$GPGSV,3,3,12,29,42,289,14,08,14,061,,04,07,123,,21,06,314,*7B
$GPRMC,170852.000,A,2233.2177,N,11413.7924,E,0.0,303.6,040191,,,A*61
$GPGGA,170852.000,2233.2177,N,11413.7924,E,1,07,1.7,17.0,M,14.2,M,,0000*68
$GPVTG,303.6,T,,M,0.0,N,0.0,K,A*0B
$GPGLL,2233.2177,N,11413.7924,E,170852.00,A,A*6D
$GPGSA,A,3,02,05,09,10,15,26,27,,,,,,2.4,1.7,1.7*3E
$GPRMC,170853.000,A,2233.2177,N,11413.7924,E,0.0,303.6,040191,,,A*60
$GPGGA,170853.000,2233.2177,N,11413.7924,E,1,07,1.7,17.0,M,14.2,M,,0000*69
$GPVTG,303.6,T,,M,0.0,N,0.0,K,A*0B
$GPGLL,2233.2177,N,11413.7924,E,170853.00,A,A*6C
$GPGSA,A,3,02,05,09,10,15,26,27,,,,,,2.4,1.7,1.7*3E
$GPRMC,170854.000,A,2233.2177,N,11413.7924,E,0.0,303.6,040191,,,A*67
$GPGGA,170854.000,2233.2177,N,11413.7924,E,1,07,1.7,17.0,M,14.2,M,,0000*6E
$GPVTG,303.6,T,,M,0.0,N,0.0,K,A*0B
$GPGLL,2233.2177,N,11413.7924,E,170854.00,A,A*6B
$GPGSA,A,3,02,05,09,10,15,26,27,,,,,,2.4,1.7,1.7*3E
$GPRMC,170855.000,A,2233.2177,N,11413.7924,E,0.0,303.6,040191,,,A*66
$GPGGA,170855.000,2233.2177,N,11413.7924,E,1,07,1.7,17.0,M,14.2,M,,0000*6F
$GPVTG,303.6,T,,M,0.0,N,0.0,K,A*0B
$GPGLL,2233.2177,N,11413.7924,E,170855.00,A,A*6A
$GPGSA,A,3,02,05,09,10,15,26,27,,,,,,2.4,1.7,1.7*3E
$GPRMC,170856.000,A,2233.2177,N,11413.7924,E,0.0,303.6,040191,,,A*65
$GPGGA,170856.000,2233.2177,N,11413.7924,E,1,07,1.7,17.0,M,14.2,M,,0000*6C
$GPVTG,303.6,T,,M,0.0,N,0.0,K,A*0B
$GPGLL,2233.2177,N,11413.7924,E,170856.00,A,A*69
$GPGSA,A,3,02,05,09,10,15,26,27,,,,,,2.4,1.7,1.7*3E
$GPGSV,3,1,12,10,15,059,24,05,42,026,19,02,42,110,18,27,21,166,32*73
$GPGSV,3,2,12,18,06,271,18,26,78,036,15,15,71,229,24,09,10,179,28*73
$GPGSV,3,3,12,29,42,288,19,08,14,061,,04,07,123,,21,06,314,*77
$GPRMC,170857.000,A,2233.2177,N,11413.7924,E,0.0,303.6,040191,,,A*64
$GPGGA,170857.000,2233.2177,N,11413.7924,E,1,07,1.7,17.0,M,14.2,M,,0000*6D
$GPVTG,303.6,T,,M,0.0,N,0.0,K,A*0B
$GPGLL,2233.2177,N,11413.7924,E,170857.00,A,A*68
$GPGSA,A,3,02,05,09,10,15,26,27,,,,,,2.4,1.7,1.7*3E
$GPRMC,170858.000,A,2233.2177,N,11413.7924,E,0.0,303.6,040191,,,A*6B
$GPGGA,170858.000,2233.2177,N,11413.7924,E,1,07,1.7,17.0,M,14.2,M,,0000*62
$GPVTG,303.6,T,,M,0.0,N,0.0,K,A*0B
$GPGLL,2233.2177,N,11413.7924,E,170858.00,A,A*67
$GPGSA,A,3,02,05,09,10,15,26,27,,,,,,2.4,1.7,1.7*3E
$GPRMC,170859.000,A,2233.2177,N,11413.7924,E,0.0,303.6,040191,,,A*6A
$GPGGA,170859.000,2233.2177,N,11413.7924,E,1,07,1.7,17.0,M,14.2,M,,0000*63
$GPVTG,303.6,T,,M,0.0,N,0.0,K,A*0B
$GPGLL,2233.2177,N,11413.7924,E,170859.00,A,A*66
$GPGSA,A,3,02,05,09,10,15,26,27,,,,,,2.4,1.7,1.7*3E
$GPRMC,170900.000,A,2233.2177,N,11413.7924,E,0.0,303.6,040191,,,A*67
$GPGGA,170900.000,2233.2177,N,11413.7924,E,1,07,1.7,17.0,M,14.2,M,,0000*6E
$GPVTG,303.6,T,,M,0.0,N,0.0,K,A*0B
$GPGLL,2233.2177,N,11413.7924,E,170900.00,A,A*6B
$GPGSA,A,3,02,05,09,10,15,26,27,,,,,,2.4,1.7,1.7*3E
$GPRMC,170901.000,A,2233.2177,N,11413.7924,E,0.0,303.6,040191,,,A*66
$GPGGA,170901.000,2233.2177,N,11413.7924,E,1,07,1.7,17.0,M,14.2,M,,0000*6F
$GPVTG,303.6,T,,M,0.0,N,0.0,K,A*0B
$GPGLL,2233.2177,N,11413.7924,E,170901.00,A,A*6A
$GPGSA,A,3,02,05,09,10,15,26,27,,,,,,2.4,1.7,1.7*3E
$GPGSV,3,1,12,10,15,059,23,05,42,026,18,02,42,110,20,27,21,166,31*7D
$GPGSV,3,2,12,18,06,271,18,26,78,036,16,15,71,230,22,09,10,179,26*70
$GPGSV,3,3,12,29,42,288,18,08,14,061,,04,07,123,,21,06,314,*76
$GPRMC,170902.000,A,2233.2177,N,11413.7924,E,0.0,303.6,040191,,,A*65
$GPGGA,170902.000,2233.2177,N,11413.7924,E,1,07,1.7,17.0,M,14.2,M,,0000*6C
$GPVTG,303.6,T,,M,0.0,N,0.0,K,A*0B
$GPGLL,2233.2177,N,11413.7924,E,170902.00,A,A*69
$GPGSA,A,3,02,05,09,10,15,26,27,,,,,,2.4,1.7,1.7*3E
$GPRMC,170903.000,A,2233.2177,N,11413.7924,E,0.0,303.6,040191,,,A*64
$GPGGA,170903.000,2233.2177,N,11413.7924,E,1,07,1.7,17.0,M,14.2,M,,0000*6D
$GPVTG,303.6,T,,M,0.0,N,0.0,K,A*0B
$GPGLL,2233.2177,N,11413.7924,E,170903.00,A,A*68
$GPGSA,A,3,02,05,09,10,15,26,27,,,,,,2.4,1.7,1.7*3E
$GPRMC,170904.000,A,2233.2177,N,11413.7924,E,0.0,303.6,040191,,,A*63
$GPGGA,170904.000,2233.2177,N,11413.7924,E,1,07,1.7,17.0,M,14.2,M,,0000*6A
$GPVTG,303.6,T,,M,0.0,N,0.0,K,A*0B
$GPGLL,2233.2177,N,11413.7924,E,170904.00,A,A*6F
$GPGSA,A,3,02,05,09,10,15,26,27,,,,,,2.4,1.7,1.7*3E
$GPRMC,170905.000,A,2233.2177,N,11413.7924,E,0.0,303.6,040191,,,A*62
$GPGGA,170905.000,2233.2177,N,11413.7924,E,1,07,1.7,17.0,M,14.2,M,,0000*6B
$GPVTG,303.6,T,,M,0.0,N,0.0,K,A*0B
$GPGLL,2233.2177,N,11413.7924,E,170905.00,A,A*6E
$GPGSA,A,3,02,05,09,10,15,26,27,,,,,,2.4,1.7,1.7*3E
$GPRMC,170906.000,A,2233.2177,N,11413.7924,E,0.0,303.6,040191,,,A*61
$GPGGA,170906.000,2233.2177,N,11413.7924,E,1,07,1.7,17.0,M,14.2,M,,0000*68
$GPVTG,303.6,T,,M,0.0,N,0.0,K,A*0B
$GPGLL,2233.2177,N,11413.7924,E,170906.00,A,A*6D
$GPGSA,A,3,02,05,09,10,15,26,27,,,,,,2.4,1.7,1.7*3E
$GPGSV,3,1,12,10,15,059,22,05,42,026,14,02,42,110,19,27,21,166,31*7A
$GPGSV,3,2,12,26,78,036,18,15,71,230,21,09,10,179,27,29,42,288,18*78
$GPGSV,3,3,12,08,14,061,,04,07,123,,18,06,271,,21,06,314,*7B
$GPRMC,170907.000,A,2233.2177,N,11413.7924,E,0.0,303.6,040191,,,A*60
$GPGGA,170907.000,2233.2177,N,11413.7924,E,1,07,1.7,17.0,M,14.2,M,,0000*69
$GPVTG,303.6,T,,M,0.0,N,0.0,K,A*0B
$GPGLL,2233.2177,N,11413.7924,E,170907.00,A,A*6C
$GPGSA,A,3,02,05,09,10,15,26,27,,,,,,2.4,1.7,1.7*3E
$GPRMC,170908.000,A,2233.2177,N,11413.7924,E,0.0,303.6,040191,,,A*6F
$GPGGA,170908.000,2233.2177,N,11413.7924,E,1,07,1.7,17.0,M,14.2,M,,0000*66
$GPVTG,303.6,T,,M,0.0,N,0.0,K,A*0B
$GPGLL,2233.2177,N,11413.7924,E,170908.00,A,A*63
$GPGSA,A,3,02,05,09,10,15,26,27,,,,,,2.4,1.7,1.7*3E
$GPRMC,170909.000,A,2233.2177,N,11413.7924,E,0.0,303.6,040191,,,A*6E
$GPGGA,170909.000,2233.2177,N,11413.7924,E,1,07,1.7,17.0,M,14.2,M,,0000*67
$GPVTG,303.6,T,,M,0.0,N,0.0,K,A*0B
$GPGLL,2233.2177,N,11413.7924,E,170909.00,A,A*62
$GPGSA,A,3,02,05,09,10,15,26,27,,,,,,2.4,1.7,1.7*3E
$GPRMC,170910.000,A,2233.2177,N,11413.7924,E,0.0,303.6,040191,,,A*66
$GPGGA,170910.000,2233.2177,N,11413.7924,E,1,06,2.0,17.0,M,14.2,M,,0000*6A
$GPVTG,303.6,T,,M,0.0,N,0.0,K,A*0B
$GPGLL,2233.2177,N,11413.7924,E,170910.00,A,A*6A
$GPGSA,A,3,02,09,10,15,26,27,,,,,,,2.7,2.0,1.8*33
$GPRMC,170911.000,A,2233.2177,N,11413.7924,E,0.0,303.6,040191,,,A*67
$GPGGA,170911.000,2233.2177,N,11413.7924,E,1,06,2.0,17.0,M,14.2,M,,0000*6B
$GPVTG,303.6,T,,M,0.0,N,0.0,K,A*0B
$GPGLL,2233.2177,N,11413.7924,E,170911.00,A,A*6B
$GPGSA,A,3,02,09,10,15,26,27,,,,,,,2.7,2.0,1.8*33
$GPGSV,3,1,12,10,15,059,23,05,42,026,17,02,42,110,18,27,21,166,30*78
$GPGSV,3,2,12,26,78,036,17,15,71,230,18,09,10,179,28,29,42,288,18*72
$GPGSV,3,3,12,08,14,061,,04,07,123,,18,06,271,,21,06,314,*7B
$GPRMC,170912.000,A,2233.2177,N,11413.7924,E,0.0,303.6,040191,,,A*64
$GPGGA,170912.000,2233.2177,N,11413.7924,E,1,06,2.0,17.0,M,14.2,M,,0000*68
$GPVTG,303.6,T,,M,0.0,N,0.0,K,A*0B
$GPGLL,2233.2177,N,11413.7924,E,170912.00,A,A*68
$GPGSA,A,3,02,09,10,15,26,27,,,,,,,2.7,2.0,1.8*33
$GPRMC,170913.000,A,2233.2177,N,11413.7924,E,0.0,303.6,040191,,,A*65
$GPGGA,170913.000,2233.2177,N,11413.7924,E,1,06,2.0,17.0,M,14.2,M,,0000*69
$GPVTG,303.6,T,,M,0.0,N,0.0,K,A*0B
$GPGLL,2233.2177,N,11413.7924,E,170913.00,A,A*69
$GPGSA,A,3,02,09,10,15,26,27,,,,,,,2.7,2.0,1.8*33
$GPRMC,170914.000,A,2233.2177,N,11413.7924,E,0.0,303.6,040191,,,A*62
$GPGGA,170914.000,2233.2177,N,11413.7924,E,1,06,2.0,17.0,M,14.2,M,,0000*6E
$GPVTG,303.6,T,,M,0.0,N,0.0,K,A*0B
$GPGLL,2233.2177,N,11413.7924,E,170914.00,A,A*6E
$GPGSA,A,3,02,09,10,15,26,27,,,,,,,2.7,2.0,1.8*33
$GPRMC,170915.000,A,2233.2177,N,11413.7924,E,0.0,303.6,040191,,,A*63
$GPGGA,170915.000,2233.2177,N,11413.7924,E,1,06,2.0,17.0,M,14.2,M,,0000*6F
$GPVTG,303.6,T,,M,0.0,N,0.0,K,A*0B
$GPGLL,2233.2177,N,11413.7924,E,170915.00,A,A*6F
$GPGSA,A,3,02,09,10,15,26,27,,,,,,,2.7,2.0,1.8*33
$GPRMC,170916.000,A,2233.2177,N,11413.7924,E,0.0,303.6,040191,,,A*60
$GPGGA,170916.000,2233.2177,N,11413.7924,E,1,07,1.7,17.0,M,14.2,M,,0000*69
$GPVTG,303.6,T,,M,0.0,N,0.0,K,A*0B
$GPGLL,2233.2177,N,11413.7924,E,170916.00,A,A*6C
$GPGSA,A,3,02,05,09,10,15,26,27,,,,,,2.4,1.7,1.7*3E
$GPGSV,3,1,12,10,15,060,22,05,42,026,15,02,42,110,19,27,21,166,31*71
$GPGSV,3,2,12,26,78,036,18,15,71,230,18,09,10,179,28,29,42,288,18*7D
$GPGSV,3,3,12,08,14,061,,04,07,123,,18,06,271,,21,06,314,*7B
$GPRMC,170917.000,A,2233.2177,N,11413.7924,E,0.0,303.6,040191,,,A*61
$GPGGA,170917.000,2233.2177,N,11413.7924,E,1,07,1.7,17.0,M,14.2,M,,0000*68
$GPVTG,303.6,T,,M,0.0,N,0.0,K,A*0B
$GPGLL,2233.2177,N,11413.7924,E,170917.00,A,A*6D
$GPGSA,A,3,02,05,09,10,15,26,27,,,,,,2.4,1.7,1.7*3E
$GPRMC,170918.000,A,2233.2177,N,11413.7924,E,0.0,303.6,040191,,,A*6E
$GPGGA,170918.000,2233.2177,N,11413.7924,E,1,06,2.0,17.0,M,14.2,M,,0000*62
$GPVTG,303.6,T,,M,0.0,N,0.0,K,A*0B
$GPGLL,2233.2177,N,11413.7924,E,170918.00,A,A*62
$GPGSA,A,3,02,09,10,15,26,27,,,,,,,2.7,2.0,1.8*33
$GPRMC,170919.000,A,2233.2177,N,11413.7924,E,0.0,303.6,040191,,,A*6F
$GPGGA,170919.000,2233.2177,N,11413.7924,E,1,07,1.7,17.0,M,14.2,M,,0000*66
$GPVTG,303.6,T,,M,0.0,N,0.0,K,A*0B
$GPGLL,2233.2177,N,11413.7924,E,170919.00,A,A*63
$GPGSA,A,3,02,05,09,10,15,26,27,,,,,,2.4,1.7,1.7*3E
$GPRMC,170920.000,A,2233.2177,N,11413.7924,E,0.0,303.6,040191,,,A*65
$GPGGA,170920.000,2233.2177,N,11413.7924,E,1,07,1.7,17.0,M,14.2,M,,0000*6C
$GPVTG,303.6,T,,M,0.0,N,0.0,K,A*0B
$GPGLL,2233.2177,N,11413.7924,E,170920.00,A,A*69
$GPGSA,A,3,02,05,09,10,15,26,27,,,,,,2.4,1.7,1.7*3E
$GPRMC,170921.000,A,2233.2177,N,11413.7924,E,0.0,303.6,040191,,,A*64
$GPGGA,170921.000,2233.2177,N,11413.7924,E,1,06,2.0,17.0,M,14.2,M,,0000*68
$GPVTG,303.6,T,,M,0.0,N,0.0,K,A*0B
$GPGLL,2233.2177,N,11413.7924,E,170921.00,A,A*68
$GPGSA,A,3,02,09,10,15,26,27,,,,,,,2.7,2.0,1.8*33
$GPGSV,3,1,12,10,15,060,22,05,42,026,14,02,41,110,18,27,21,166,31*72
$GPGSV,3,2,12,18,06,271,16,26,78,036,16,15,71,230,16,09,10,179,29*76
$GPGSV,3,3,12,29,42,288,18,08,14,061,,04,07,123,,21,06,314,*76
$GPRMC,170922.000,A,2233.2177,N,11413.7924,E,0.0,303.6,040191,,,A*67
$GPGGA,170922.000,2233.2177,N,11413.7924,E,1,06,2.0,17.0,M,14.2,M,,0000*6B
$GPVTG,303.6,T,,M,0.0,N,0.0,K,A*0B
$GPGLL,2233.2177,N,11413.7924,E,170922.00,A,A*6B
$GPGSA,A,3,02,09,10,15,26,27,,,,,,,2.7,2.0,1.8*33
$GPRMC,170923.000,A,2233.2177,N,11413.7924,E,0.0,303.6,040191,,,A*66
$GPGGA,170923.000,2233.2177,N,11413.7924,E,1,06,2.0,17.0,M,14.2,M,,0000*6A
$GPVTG,303.6,T,,M,0.0,N,0.0,K,A*0B
$GPGLL,2233.2177,N,11413.7924,E,170923.00,A,A*6A
$GPGSA,A,3,02,09,10,15,26,27,,,,,,,2.7,2.0,1.8*33
$GPRMC,170924.000,A,2233.2177,N,11413.7924,E,0.0,303.6,040191,,,A*61
$GPGGA,170924.000,2233.2177,N,11413.7924,E,1,07,1.7,17.0,M,14.2,M,,0000*68
$GPVTG,303.6,T,,M,0.0,N,0.0,K,A*0B
$GPGLL,2233.2177,N,11413.7924,E,170924.00,A,A*6D
$GPGSA,A,3,02,05,09,10,15,26,27,,,,,,2.4,1.7,1.7*3E
$GPRMC,170925.000,A,2233.2177,N,11413.7924,E,0.0,303.6,040191,,,A*60
$GPGGA,170925.000,2233.2177,N,11413.7924,E,1,07,1.7,17.0,M,14.2,M,,0000*69
$GPVTG,303.6,T,,M,0.0,N,0.0,K,A*0B
$GPGLL,2233.2177,N,11413.7924,E,170925.00,A,A*6C
$GPGSA,A,3,02,05,09,10,15,26,27,,,,,,2.4,1.7,1.7*3E
$GPRMC,170926.000,A,2233.2177,N,11413.7924,E,0.0,303.6,040191,,,A*63
$GPGGA,170926.000,2233.2177,N,11413.7924,E,1,06,2.0,17.0,M,14.2,M,,0000*6F
$GPVTG,303.6,T,,M,0.0,N,0.0,K,A*0B
$GPGLL,2233.2177,N,11413.7924,E,170926.00,A,A*6F
$GPGSA,A,3,02,09,10,15,26,27,,,,,,,2.7,2.0,1.8*33
$GPGSV,3,1,12,10,15,060,22,05,42,026,16,02,41,110,15,27,21,166,31*7D
$GPGSV,3,2,12,18,06,271,16,26,78,036,16,15,71,230,16,09,11,179,27*79
$GPGSV,3,3,12,29,42,288,,08,14,061,,04,07,123,,21,06,314,*7F
$GPRMC,170927.000,A,2233.2177,N,11413.7924,E,0.0,303.6,040191,,,A*62
$GPGGA,170927.000,2233.2177,N,11413.7924,E,1,06,2.0,17.0,M,14.2,M,,0000*6E
$GPVTG,303.6,T,,M,0.0,N,0.0,K,A*0B
$GPGLL,2233.2177,N,11413.7924,E,170927.00,A,A*6E
$GPGSA,A,3,02,09,10,15,26,27,,,,,,,2.7,2.0,1.8*33
$GPRMC,170928.000,A,2233.2177,N,11413.7924,E,0.0,303.6,040191,,,A*6D
$GPGGA,170928.000,2233.2177,N,11413.7924,E,1,07,1.7,17.0,M,14.2,M,,0000*64
$GPVTG,303.6,T,,M,0.0,N,0.0,K,A*0B
$GPGLL,2233.2177,N,11413.7924,E,170928.00,A,A*61
$GPGSA,A,3,02,05,09,10,15,26,27,,,,,,2.4,1.7,1.7*3E
$GPRMC,170929.000,A,2233.2177,N,11413.7924,E,0.0,303.6,040191,,,A*6C
$GPGGA,170929.000,2233.2177,N,11413.7924,E,1,07,1.7,17.0,M,14.2,M,,0000*65
$GPVTG,303.6,T,,M,0.0,N,0.0,K,A*0B
$GPGLL,2233.2177,N,11413.7924,E,170929.00,A,A*60
$GPGSA,A,3,02,05,09,10,15,26,27,,,,,,2.4,1.7,1.7*3E
$GPRMC,170930.000,A,2233.2177,N,11413.7924,E,0.0,303.6,040191,,,A*64
$GPGGA,170930.000,2233.2177,N,11413.7924,E,1,07,1.7,17.0,M,14.2,M,,0000*6D
$GPVTG,303.6,T,,M,0.0,N,0.0,K,A*0B
$GPGLL,2233.2177,N,11413.7924,E,170930.00,A,A*68
$GPGSA,A,3,02,05,09,10,15,26,27,,,,,,2.4,1.7,1.7*3E
$GPRMC,170931.000,A,2233.2177,N,11413.7924,E,0.0,303.6,040191,,,A*65
$GPGGA,170931.000,2233.2177,N,11413.7924,E,1,07,1.7,17.0,M,14.2,M,,0000*6C
$GPVTG,303.6,T,,M,0.0,N,0.0,K,A*0B
$GPGLL,2233.2177,N,11413.7924,E,170931.00,A,A*69
$GPGSA,A,3,02,05,09,10,15,26,27,,,,,,2.4,1.7,1.7*3E
$GPGSV,3,1,12,10,14,060,23,05,42,026,18,02,41,110,15,27,21,166,30*72
$GPGSV,3,2,12,18,06,271,,26,78,035,13,15,71,230,17,09,11,179,27*79
$GPGSV,3,3,12,29,43,288,15,08,14,061,,04,07,123,,21,06,314,*7A
$GPRMC,170932.000,A,2233.2177,N,11413.7924,E,0.0,303.6,040191,,,A*66
$GPGGA,170932.000,2233.2177,N,11413.7924,E,1,07,1.7,17.0,M,14.2,M,,0000*6F
$GPVTG,303.6,T,,M,0.0,N,0.0,K,A*0B
$GPGLL,2233.2177,N,11413.7924,E,170932.00,A,A*6A
$GPGSA,A,3,02,05,09,10,15,26,27,,,,,,2.4,1.7,1.7*3E
$GPRMC,170933.000,A,2233.2177,N,11413.7924,E,0.0,303.6,040191,,,A*67
$GPGGA,170933.000,2233.2177,N,11413.7924,E,1,07,1.7,17.0,M,14.2,M,,0000*6E
$GPVTG,303.6,T,,M,0.0,N,0.0,K,A*0B
$GPGLL,2233.2177,N,11413.7924,E,170933.00,A,A*6B
$GPGSA,A,3,02,05,09,10,15,26,27,,,,,,2.4,1.7,1.7*3E
$GPRMC,170934.000,A,2233.2177,N,11413.7924,E,0.0,303.6,040191,,,A*60
$GPGGA,170934.000,2233.2177,N,11413.7924,E,1,07,1.7,17.0,M,14.2,M,,0000*69
$GPVTG,303.6,T,,M,0.0,N,0.0,K,A*0B
$GPGLL,2233.2177,N,11413.7924,E,170934.00,A,A*6C
$GPGSA,A,3,02,05,09,10,15,26,27,,,,,,2.4,1.7,1.7*3E
$GPRMC,170935.000,A,2233.2177,N,11413.7924,E,0.0,303.6,040191,,,A*61
$GPGGA,170935.000,2233.2177,N,11413.7924,E,1,07,1.7,17.0,M,14.2,M,,0000*68
$GPVTG,303.6,T,,M,0.0,N,0.0,K,A*0B
$GPGLL,2233.2177,N,11413.7924,E,170935.00,A,A*6D
$GPGSA,A,3,02,05,09,10,15,26,27,,,,,,2.4,1.7,1.7*3E
$GPRMC,170936.000,A,2233.2177,N,11413.7924,E,0.0,303.6,040191,,,A*62
$GPGGA,170936.000,2233.2177,N,11413.7924,E,1,07,1.7,17.0,M,14.2,M,,0000*6B
$GPVTG,303.6,T,,M,0.0,N,0.0,K,A*0B
$GPGLL,2233.2177,N,11413.7924,E,170936.00,A,A*6E
$GPGSA,A,3,02,05,09,10,15,26,27,,,,,,2.4,1.7,1.7*3E
$GPGSV,3,1,12,10,14,060,22,05,42,026,18,02,41,110,14,27,21,166,31*73
$GPGSV,3,2,12,26,78,035,13,15,71,230,16,09,11,179,27,29,43,288,15*79
$GPGSV,3,3,12,08,14,061,,04,07,123,,18,06,272,,21,06,314,*78
$GPRMC,170937.000,A,2233.2177,N,11413.7924,E,0.0,303.6,040191,,,A*63
$GPGGA,170937.000,2233.2177,N,11413.7924,E,1,07,1.7,17.0,M,14.2,M,,0000*6A
$GPVTG,303.6,T,,M,0.0,N,0.0,K,A*0B
$GPGLL,2233.2177,N,11413.7924,E,170937.00,A,A*6F
$GPGSA,A,3,02,05,09,10,15,26,27,,,,,,2.4,1.7,1.7*3E
$GPRMC,17